
Distance (Route):
Temperature : 21.2°C
Humidity : 71.6%
Pressure : 992.72hPa| Receiver | Frames | First received | Last received |
|---|---|---|---|
| BIOWL1-15 | 619 | 2026-09-04 06:48:39 | 2026-09-04 08:30:39 |
| DL1XH-west | 549 | 2026-09-04 06:51:54 | 2026-09-04 08:28:48 |
| DM0DOS-11 | 527 | 2026-09-04 06:46:47 | 2026-09-04 08:31:55 |
| DF8AY | 437 | 2026-09-04 07:13:26 | 2026-09-04 08:32:13 |
| DL1XH1-15 | 429 | 2026-09-04 06:52:43 | 2026-09-04 08:28:21 |
| DO2JMG | 363 | 2026-09-04 06:57:36 | 2026-09-04 08:09:05 |
| AA1-15 | 362 | 2026-09-04 07:09:36 | 2026-09-04 08:25:31 |
| DB0DAN | 238 | 2026-09-04 07:03:40 | 2026-09-04 08:33:40 |
| DL1XH-15 | 224 | 2026-09-04 07:00:22 | 2026-09-04 08:27:48 |
| HSKMA3-T | 187 | 2026-09-04 07:22:50 | 2026-09-04 08:08:43 |
| DO2SHX-10 | 169 | 2026-09-04 07:15:21 | 2026-09-04 08:19:48 |
| GOEST3-10 | 161 | 2026-09-04 06:50:58 | 2026-09-04 08:19:21 |
| DN9WHV | 152 | 2026-09-04 06:51:20 | 2026-09-04 08:02:21 |
| DL1NUX | 136 | 2026-09-04 07:19:39 | 2026-09-04 08:07:10 |
| DD8BA-10 | 131 | 2026-09-04 06:48:22 | 2026-09-04 08:25:34 |
| DJ2DS-15 | 121 | 2026-09-04 06:48:17 | 2026-09-04 08:26:56 |
| DF5WG-10 | 70 | 2026-09-04 06:53:58 | 2026-09-04 08:13:08 |
| DL3AQ-11 | 69 | 2026-09-04 06:56:56 | 2026-09-04 08:20:56 |
| DL4XJ-10 | 66 | 2026-09-04 07:07:08 | 2026-09-04 08:27:58 |
| DO9LL-15 | 44 | 2026-09-04 06:48:35 | 2026-09-04 08:06:46 |
| DL4BBY-15 | 41 | 2026-09-04 06:48:20 | 2026-09-04 08:17:36 |
| DB0UT-7 | 38 | 2026-09-04 07:00:48 | 2026-09-04 08:14:22 |
| DD1CC3-15 | 29 | 2026-09-04 06:55:10 | 2026-09-04 08:19:00 |
| DF8AY-15 | 28 | 2026-09-04 07:26:29 | 2026-09-04 08:30:36 |
| DO3DL | 27 | 2026-09-04 07:09:00 | 2026-09-04 08:09:10 |
| BIOWL9-15 | 24 | 2026-09-04 06:49:10 | 2026-09-04 08:12:28 |
| SO1NDE-10 | 23 | 2026-09-04 07:24:46 | 2026-09-04 08:05:15 |
| DL1LOL-11 | 21 | 2026-09-04 06:46:53 | 2026-09-04 08:22:43 |
| DL1CLM-18 | 21 | 2026-09-04 06:48:14 | 2026-09-04 08:19:11 |
| DC6BW-12 | 21 | 2026-09-04 06:48:34 | 2026-09-04 08:02:22 |
| HTAHTA | 20 | 2026-09-04 06:53:10 | 2026-09-04 08:05:37 |
| SONCRA | 20 | 2026-09-04 07:03:05 | 2026-09-04 08:25:24 |
| DF2AP-13 | 19 | 2026-09-04 07:21:41 | 2026-09-04 08:19:49 |
| DL8OAI-8 | 18 | 2026-09-04 07:06:55 | 2026-09-04 08:24:32 |
| BIOWL7-15 | 17 | 2026-09-04 06:48:23 | 2026-09-04 08:25:33 |
| DD1CC8 | 16 | 2026-09-04 07:05:33 | 2026-09-04 08:10:47 |
| BUE01 | 16 | 2026-09-04 07:07:44 | 2026-09-04 08:18:40 |
| DJ2KF-10 | 16 | 2026-09-04 07:11:55 | 2026-09-04 07:58:38 |
| SONDE2-11 | 16 | 2026-09-04 07:20:16 | 2026-09-04 08:18:45 |
| SMARD9-15 | 14 | 2026-09-04 07:18:25 | 2026-09-04 08:17:57 |
| EDDB2-12 | 14 | 2026-09-04 07:24:30 | 2026-09-04 08:19:20 |
| D01LWL | 13 | 2026-09-04 07:30:48 | 2026-09-04 08:19:27 |
| DB0NH | 12 | 2026-09-04 07:17:05 | 2026-09-04 08:16:24 |
| DK9SH | 11 | 2026-09-04 06:53:44 | 2026-09-04 08:19:15 |
| DF4FW | 10 | 2026-09-04 06:52:12 | 2026-09-04 07:12:15 |
| DO2LYB-13 | 10 | 2026-09-04 07:03:03 | 2026-09-04 08:20:52 |
| DB0ND-19 | 7 | 2026-09-04 07:07:45 | 2026-09-04 08:13:57 |
| SMARD9-10 | 6 | 2026-09-04 07:15:45 | 2026-09-04 08:27:29 |
| DL1ZP-14 | 6 | 2026-09-04 07:31:14 | 2026-09-04 08:06:57 |
| AP2371 | 5 | 2026-09-04 07:29:46 | 2026-09-04 07:57:27 |
| AU51GT2 | 5 | 2026-09-04 07:36:21 | 2026-09-04 07:53:56 |
| DK5PH-5 | 4 | 2026-09-04 07:34:41 | 2026-09-04 07:51:42 |
| DL3OBA | 3 | 2026-09-04 07:31:26 | 2026-09-04 07:58:26 |
| WEDDY | 2 | 2026-09-04 07:29:23 | 2026-09-04 07:34:30 |
| DL8DAS-14 | 2 | 2026-09-04 07:38:51 | 2026-09-04 07:43:30 |
| S3001 | 2 | 2026-09-04 07:47:09 | 2026-09-04 08:10:57 |
| EDDB2-11 | 2 | 2026-09-04 07:52:36 | 2026-09-04 08:03:28 |
| DF7ER-10 | 2 | 2026-09-04 08:24:30 | 2026-09-04 08:27:36 |
| Receiver | Date | Latitude | Longitude | Direction | Speed | Altitude | Climb | Temperature | Humidity | Pressure | Voltage | Killtimer | Uptime | BKT | XDATA |
|---|---|---|---|---|---|---|---|---|---|---|---|---|---|---|---|
| DB0DAN | 2026-09-04 08:33:40 | 52.59631 | 10.31306 | 56° | 47km/h | 166m | -4.8m/s | 21.2°C | 71.6% | 992.72hPa | 2.8V | 00:00:00 | 00:00:00 | 00:00:00 | |
| DB0DAN | 2026-09-04 08:33:25 | 52.59527 | 10.31021 | 58° | 57km/h | 262m | -5m/s | 20.3°C | 74.2% | 981.7hPa | 2.8V | 00:00:00 | 00:00:00 | 00:00:00 | |
| DB0DAN | 2026-09-04 08:33:10 | 52.59410 | 10.30719 | 62° | 57km/h | 347m | -6.8m/s | 19.4°C | 78.1% | 971.86hPa | 2.8V | 00:00:00 | 00:00:00 | 00:00:00 | |
| DB0DAN | 2026-09-04 08:32:55 | 52.59307 | 10.30392 | 69° | 60km/h | 452m | -5.3m/s | 18.7°C | 78.4% | 960.16hPa | 2.7V | 00:00:00 | 00:00:00 | 00:00:00 | |
| DB0DAN | 2026-09-04 08:32:40 | 52.59206 | 10.30006 | 71° | 66km/h | 538m | -6.7m/s | 17.8°C | 81.6% | 950.69hPa | 2.8V | 00:00:00 | 00:00:00 | 00:00:00 | |
| DB0DAN | 2026-09-04 08:32:25 | 52.59121 | 10.29599 | 69° | 68km/h | 625m | -6.1m/s | 16.9°C | 85.7% | 941.02hPa | 2.8V | 00:00:00 | 00:00:00 | 00:00:00 | |
| DF8AY | 2026-09-04 08:32:13 | 52.59056 | 10.29285 | 72° | 69km/h | 685m | -5.1m/s | 16.3°C | 94.6% | 934.6hPa | 2.8V | 07:46:56 | 01:59:21 | 00:00:00 | |
| DF8AY | 2026-09-04 08:32:12 | 52.59050 | 10.29257 | 72° | 71km/h | 690m | -5.4m/s | 16.2°C | 94.3% | 933.9hPa | 2.8V | 07:46:56 | 01:59:20 | 00:00:00 | |
| DF8AY | 2026-09-04 08:32:11 | 52.59044 | 10.29229 | 71° | 71km/h | 696m | -5.1m/s | 16.2°C | 94% | 933.5hPa | 2.8V | 07:46:56 | 01:59:19 | 00:00:00 | |
| DB0DAN | 2026-09-04 08:32:10 | 52.59038 | 10.29200 | 71° | 69km/h | 701m | -5.1m/s | 16.1°C | 89.5% | 932.69hPa | 2.7V | 00:00:00 | 00:00:00 | 00:00:00 | |
| DF8AY | 2026-09-04 08:32:09 | 52.59032 | 10.29171 | 70° | 73km/h | 706m | -4.4m/s | 16°C | 93.7% | 932.3hPa | 2.8V | 07:46:56 | 01:59:17 | 00:00:00 | |
| DF8AY | 2026-09-04 08:32:08 | 52.59026 | 10.29142 | 70° | 75km/h | 710m | -4.4m/s | 16°C | 93.6% | 931.8hPa | 2.8V | 07:46:56 | 01:59:16 | 00:00:00 | |
| DF8AY | 2026-09-04 08:32:01 | 52.58977 | 10.28946 | 70° | 68km/h | 746m | -6m/s | 15.5°C | 98.4% | 927.9hPa | 2.8V | 07:46:56 | 01:59:09 | 00:00:00 | |
| DF8AY | 2026-09-04 08:31:59 | 52.58966 | 10.28892 | 73° | 69km/h | 757m | -5.9m/s | 15.4°C | 99.4% | 926.7hPa | 2.7V | 07:46:56 | 01:59:07 | 00:00:00 | |
| DF8AY | 2026-09-04 08:31:57 | 52.58956 | 10.28836 | 75° | 71km/h | 769m | -5.4m/s | 15.3°C | 99.6% | 925.3hPa | 2.8V | 07:46:56 | 01:59:05 | 00:00:00 | |
| DB0DAN | 2026-09-04 08:31:55 | 52.58947 | 10.28779 | 75° | 68km/h | 780m | -6.2m/s | 15.2°C | 93.9% | 924.13hPa | 2.8V | 00:00:00 | 00:00:00 | 00:00:00 | |
| DM0DOS-11 | 2026-09-04 08:31:55 | 52.58921 | 10.28632 | 72° | 75km/h | 807m | -5.2m/s | 14.9°C | 95.4% | 921.3hPa | 2.8V | 07:46:58 | 01:58:58 | 00:00:00 | |
| DF8AY | 2026-09-04 08:31:55 | 52.58947 | 10.28779 | 75° | 71km/h | 780m | -6.2m/s | 15.2°C | 99.3% | 924.1hPa | 2.8V | 07:46:56 | 01:59:03 | 00:00:00 | |
| DF8AY | 2026-09-04 08:31:53 | 52.58937 | 10.28721 | 74° | 73km/h | 791m | -4.8m/s | 15.1°C | 99% | 922.8hPa | 2.8V | 07:46:56 | 01:59:01 | 00:00:00 | |
| DF8AY | 2026-09-04 08:31:52 | 52.58932 | 10.28692 | 73° | 75km/h | 796m | -5.1m/s | 15°C | 98.4% | 922.5hPa | 2.8V | 07:46:56 | 01:59:00 | 00:00:00 | |
| DF8AY | 2026-09-04 08:31:50 | 52.58921 | 10.28632 | 72° | 75km/h | 807m | -5.2m/s | 14.9°C | 97.9% | 921.3hPa | 2.8V | 07:47:47 | 01:58:58 | 00:00:00 | |
| DF8AY | 2026-09-04 08:31:49 | 52.58915 | 10.28602 | 72° | 77km/h | 811m | -5m/s | 14.9°C | 98.1% | 920.8hPa | 2.7V | 07:47:47 | 01:58:57 | 00:00:00 | |
| DF8AY | 2026-09-04 08:31:48 | 52.58908 | 10.28572 | 71° | 77km/h | 817m | -5.5m/s | 14.9°C | 97.6% | 920.1hPa | 2.8V | 07:47:47 | 01:58:56 | 00:00:00 | |
| DF8AY | 2026-09-04 08:31:46 | 52.58895 | 10.28511 | 71° | 78km/h | 828m | -7.3m/s | 14.8°C | 97.9% | 919hPa | 2.8V | 07:47:47 | 01:58:54 | 00:00:00 | |
| DF8AY | 2026-09-04 08:31:44 | 52.58882 | 10.28450 | 71° | 78km/h | 841m | -5.5m/s | 14.7°C | 98% | 917.3hPa | 2.8V | 07:47:47 | 01:58:52 | 00:00:00 | |
| DF8AY | 2026-09-04 08:31:43 | 52.58876 | 10.28418 | 71° | 80km/h | 847m | -5.8m/s | 14.6°C | 98.5% | 917hPa | 2.8V | 07:47:47 | 01:58:51 | 00:00:00 | |
| DF8AY | 2026-09-04 08:31:41 | 52.58863 | 10.28355 | 72° | 80km/h | 860m | -6.8m/s | 14.5°C | 99.1% | 915.4hPa | 2.8V | 07:47:47 | 01:58:49 | 00:00:00 | |
| DB0DAN | 2026-09-04 08:31:40 | 52.58857 | 10.28323 | 72° | 77km/h | 867m | -6.3m/s | 14.5°C | 95% | 914.74hPa | 2.8V | 00:00:00 | 00:00:00 | 00:00:00 | |
| DF8AY | 2026-09-04 08:31:39 | 52.58850 | 10.28291 | 72° | 82km/h | 873m | -6.7m/s | 14.4°C | 98.2% | 914.1hPa | 2.7V | 07:47:47 | 01:58:47 | 00:00:00 | |
| DF8AY | 2026-09-04 08:31:38 | 52.58844 | 10.28259 | 73° | 82km/h | 879m | -5.2m/s | 14.4°C | 98.2% | 913.3hPa | 2.8V | 07:47:47 | 01:58:46 | 00:00:00 | |
| DF8AY | 2026-09-04 08:31:37 | 52.58838 | 10.28227 | 73° | 80km/h | 885m | -6.4m/s | 14.3°C | 98.4% | 912.9hPa | 2.8V | 07:47:47 | 01:58:45 | 00:00:00 | |
| DF8AY | 2026-09-04 08:31:35 | 52.58827 | 10.28163 | 75° | 80km/h | 897m | -5.6m/s | 14.3°C | 97.4% | 911.5hPa | 2.8V | 07:47:47 | 01:58:43 | 00:00:00 | |
| DF8AY | 2026-09-04 08:31:34 | 52.58800 | 10.28002 | 75° | 80km/h | 925m | -6.7m/s | 14.1°C | 100% | 908.3hPa | 2.8V | 07:47:47 | 01:58:38 | 00:00:00 | |
| DF8AY | 2026-09-04 08:31:34 | 52.58795 | 10.27970 | 75° | 80km/h | 931m | -6.7m/s | 14°C | 100% | 907.8hPa | 2.7V | 07:47:47 | 01:58:37 | 00:00:00 | |
| DF8AY | 2026-09-04 08:31:28 | 52.58790 | 10.27938 | 75° | 78km/h | 938m | -6.8m/s | 14°C | 100% | 907hPa | 2.8V | 07:47:47 | 01:58:36 | 00:00:00 | |
| DF8AY | 2026-09-04 08:31:26 | 52.58779 | 10.27875 | 74° | 80km/h | 950m | -5.5m/s | 13.9°C | 100% | 905.6hPa | 2.8V | 07:47:47 | 01:58:34 | 00:00:00 | |
| DB0DAN | 2026-09-04 08:31:25 | 52.58774 | 10.27843 | 75° | 77km/h | 956m | -5.5m/s | 13.9°C | 96.1% | 904.91hPa | 2.8V | 00:00:00 | 00:00:00 | 00:00:00 | |
| DF8AY | 2026-09-04 08:31:25 | 52.58774 | 10.27843 | 75° | 80km/h | 956m | -5.5m/s | 13.9°C | 100% | 904.9hPa | 2.8V | 07:47:47 | 01:58:33 | 00:00:00 | |
| DF8AY | 2026-09-04 08:31:24 | 52.58768 | 10.27810 | 74° | 80km/h | 961m | -5.9m/s | 13.8°C | 100% | 904.3hPa | 2.8V | 07:47:47 | 01:58:32 | 00:00:00 | |
| DF8AY | 2026-09-04 08:31:22 | 52.58757 | 10.27745 | 74° | 82km/h | 973m | -5.7m/s | 13.7°C | 100% | 903.3hPa | 2.8V | 07:47:47 | 01:58:30 | 00:00:00 | |
| DF8AY | 2026-09-04 08:31:20 | 52.58745 | 10.27679 | 75° | 84km/h | 983m | -5.2m/s | 13.7°C | 100% | 902.2hPa | 2.8V | 07:47:47 | 01:58:28 | 00:00:00 | |
| DF8AY | 2026-09-04 08:31:19 | 52.58740 | 10.27645 | 74° | 84km/h | 988m | -5.4m/s | 13.7°C | 100% | 901.8hPa | 2.7V | 07:47:47 | 01:58:27 | 00:00:00 | |
| DF8AY | 2026-09-04 08:31:17 | 52.58728 | 10.27579 | 74° | 82km/h | 999m | -5.9m/s | 13.6°C | 99% | 900.5hPa | 2.8V | 07:47:47 | 01:58:25 | 00:00:00 | |
| DF8AY | 2026-09-04 08:31:15 | 52.58716 | 10.27513 | 73° | 82km/h | 1009m | -4.4m/s | 13.5°C | 99.3% | 899.1hPa | 2.8V | 07:47:47 | 01:58:23 | 00:00:00 | |
| DF8AY | 2026-09-04 08:31:13 | 52.58704 | 10.27449 | 73° | 82km/h | 1019m | -5.5m/s | 13.4°C | 100% | 898.2hPa | 2.8V | 07:47:47 | 01:58:21 | 00:00:00 | |
| DF8AY | 2026-09-04 08:31:13 | 52.58698 | 10.27416 | 72° | 80km/h | 1024m | -5.1m/s | 13.4°C | 100% | 897.6hPa | 2.8V | 07:47:47 | 01:58:20 | 00:00:00 | |
| DB0DAN | 2026-09-04 08:31:10 | 52.58685 | 10.27352 | 72° | 77km/h | 1036m | -5.9m/s | 13.3°C | 98% | 896.54hPa | 2.7V | 00:00:00 | 00:00:00 | 00:00:00 | |
| DF8AY | 2026-09-04 08:31:10 | 52.58685 | 10.27352 | 72° | 80km/h | 1036m | -5.9m/s | 13.3°C | 100% | 896.5hPa | 2.7V | 07:47:47 | 01:58:18 | 00:00:00 | |
| DF8AY | 2026-09-04 08:31:09 | 52.58679 | 10.27321 | 72° | 80km/h | 1042m | -5.2m/s | 13.3°C | 100% | 895.8hPa | 2.8V | 07:47:47 | 01:58:17 | 00:00:00 | |
| DF8AY | 2026-09-04 08:31:07 | 52.58666 | 10.27257 | 72° | 80km/h | 1051m | -5.1m/s | 13.3°C | 100% | 894.7hPa | 2.8V | 07:47:47 | 01:58:15 | 00:00:00 | |
| DF8AY | 2026-09-04 08:31:05 | 52.58653 | 10.27193 | 72° | 80km/h | 1062m | -5.8m/s | 13.2°C | 100% | 893.6hPa | 2.8V | 07:47:47 | 01:58:13 | 00:00:00 | |
| DF8AY | 2026-09-04 08:31:04 | 52.58647 | 10.27161 | 73° | 82km/h | 1067m | -4.9m/s | 13.2°C | 100% | 893.1hPa | 2.8V | 07:47:47 | 01:58:12 | 00:00:00 | |
| DF8AY | 2026-09-04 08:31:02 | 52.58635 | 10.27096 | 73° | 82km/h | 1078m | -5.5m/s | 13.2°C | 100% | 891.8hPa | 2.8V | 07:47:47 | 01:58:10 | 00:00:00 | |
| DM0DOS-11 | 2026-09-04 08:31:01 | 52.58598 | 10.26900 | 72° | 82km/h | 1110m | -4.6m/s | 13°C | 0% | 888.5hPa | 2.8V | 07:47:52 | 01:58:04 | 00:00:00 | |
| DF8AY | 2026-09-04 08:31:00 | 52.58623 | 10.27030 | 73° | 82km/h | 1089m | -5m/s | 13.1°C | 100% | 890.8hPa | 2.8V | 07:48:38 | 01:58:08 | 00:00:00 | |
| DF8AY | 2026-09-04 08:30:59 | 52.58617 | 10.26997 | 73° | 82km/h | 1094m | -5.5m/s | 13.1°C | 100% | 890.3hPa | 2.8V | 07:48:38 | 01:58:07 | 00:00:00 | |
| DF8AY | 2026-09-04 08:30:57 | 52.58605 | 10.26932 | 73° | 82km/h | 1105m | -5.3m/s | 13°C | 100% | 889hPa | 2.8V | 07:48:38 | 01:58:05 | 00:00:00 | |
| DB0DAN | 2026-09-04 08:30:55 | 52.58592 | 10.26867 | 72° | 78km/h | 1115m | -5.6m/s | 13°C | 100% | 888.07hPa | 2.8V | 00:00:00 | 00:00:00 | 00:00:00 | |
| DF8AY | 2026-09-04 08:30:55 | 52.58592 | 10.26867 | 72° | 82km/h | 1115m | -5.6m/s | 13°C | 100% | 888.1hPa | 2.8V | 07:48:38 | 01:58:03 | 00:00:00 | |
| DF8AY | 2026-09-04 08:30:54 | 52.58585 | 10.26835 | 72° | 82km/h | 1120m | -5.4m/s | 12.9°C | 100% | 887.5hPa | 2.8V | 07:48:38 | 01:58:02 | 00:00:00 | |
| DM0DOS-11 | 2026-09-04 08:30:53 | 52.58566 | 10.26736 | 71° | 82km/h | 1136m | -6.5m/s | 12.8°C | 0% | 885.8hPa | 2.8V | 07:47:57 | 01:57:59 | 00:00:00 | |
| DF8AY | 2026-09-04 08:30:52 | 52.58572 | 10.26769 | 72° | 84km/h | 1131m | -4.9m/s | 12.8°C | 100% | 886.3hPa | 2.7V | 07:48:38 | 01:58:00 | 00:00:00 | |
| DF8AY | 2026-09-04 08:30:50 | 52.58559 | 10.26703 | 72° | 84km/h | 1143m | -7.2m/s | 12.8°C | 100% | 885.1hPa | 2.8V | 07:48:38 | 01:57:58 | 00:00:00 | |
| DF8AY | 2026-09-04 08:30:49 | 52.58553 | 10.26670 | 72° | 84km/h | 1149m | -4.7m/s | 12.8°C | 100% | 884.4hPa | 2.8V | 07:48:38 | 01:57:57 | 00:00:00 | |
| DF8AY | 2026-09-04 08:30:48 | 52.58546 | 10.26637 | 73° | 84km/h | 1154m | -5.8m/s | 12.8°C | 100% | 884hPa | 2.8V | 07:48:38 | 01:57:56 | 00:00:00 | |
| DF8AY | 2026-09-04 08:30:46 | 52.58534 | 10.26570 | 73° | 84km/h | 1164m | -6.1m/s | 12.8°C | 100% | 882.9hPa | 2.8V | 07:48:38 | 01:57:54 | 00:00:00 | |
| DF8AY | 2026-09-04 08:30:46 | 52.58528 | 10.26537 | 73° | 84km/h | 1170m | -5.2m/s | 12.8°C | 100% | 882.2hPa | 2.8V | 07:48:38 | 01:57:53 | 00:00:00 | |
| DF8AY | 2026-09-04 08:30:43 | 52.58516 | 10.26471 | 74° | 84km/h | 1181m | -5.7m/s | 12.7°C | 100% | 881.1hPa | 2.7V | 07:48:38 | 01:57:51 | 00:00:00 | |
| DF8AY | 2026-09-04 08:30:41 | 52.58504 | 10.26403 | 74° | 86km/h | 1191m | -5.5m/s | 12.6°C | 100% | 880.1hPa | 2.8V | 07:48:38 | 01:57:49 | 00:00:00 | |
| DB0DAN | 2026-09-04 08:30:40 | 52.58499 | 10.26369 | 75° | 80km/h | 1196m | -4.1m/s | 12.6°C | 100% | 879.56hPa | 2.8V | 00:00:00 | 00:00:00 | 00:00:00 | |
| DF8AY | 2026-09-04 08:30:39 | 52.58493 | 10.26335 | 75° | 84km/h | 1200m | -3.8m/s | 12.6°C | 100% | 879.1hPa | 2.8V | 07:48:38 | 01:57:47 | 00:00:00 | |
| BIOWL1-15 | 2026-09-04 08:30:39 | 52.58481 | 10.26266 | 74° | 88km/h | 1209m | -4.4m/s | 12.6°C | 100% | 878.4hPa | 2.8V | 07:48:38 | 01:57:45 | 00:00:00 | |
| DF8AY | 2026-09-04 08:30:38 | 52.58487 | 10.26301 | 74° | 86km/h | 1204m | -4.6m/s | 12.6°C | 100% | 878.7hPa | 2.8V | 07:48:38 | 01:57:46 | 00:00:00 | |
| DF8AY | 2026-09-04 08:30:36 | 52.58475 | 10.26231 | 75° | 88km/h | 1213m | -4m/s | 12.6°C | 100% | 877.8hPa | 2.8V | 07:48:38 | 01:57:44 | 00:00:00 | |
| DF8AY-15 | 2026-09-04 08:30:36 | 52.58475 | 10.26231 | 75° | 86km/h | 1213m | -4.0m/s | 12.5°C | 0% | 877.8hPa | 2.8V | 00:00:00 | 01:57:44 | 00:00:00 | |
| DM0DOS-11 | 2026-09-04 08:30:34 | 52.58438 | 10.25986 | 78° | 88km/h | 1241m | -4.2m/s | 12.5°C | 98.8% | 874.9hPa | 2.8V | 07:48:19 | 01:57:37 | 00:00:00 | |
| DF8AY | 2026-09-04 08:30:34 | 52.58464 | 10.26161 | 76° | 86km/h | 1221m | -4.4m/s | 12.5°C | 100% | 877hPa | 2.8V | 07:48:38 | 01:57:42 | 00:00:00 | |
| DF8AY | 2026-09-04 08:30:33 | 52.58458 | 10.26127 | 75° | 86km/h | 1226m | -4.2m/s | 12.5°C | 100% | 876.6hPa | 2.8V | 07:48:38 | 01:57:41 | 00:00:00 | |
| DF8AY | 2026-09-04 08:30:32 | 52.58453 | 10.26092 | 77° | 86km/h | 1230m | -3.8m/s | 12.5°C | 100% | 876.3hPa | 2.8V | 07:48:38 | 01:57:40 | 00:00:00 | |
| DF8AY | 2026-09-04 08:30:30 | 52.58442 | 10.26021 | 77° | 88km/h | 1237m | -3.9m/s | 12.4°C | 100% | 875.3hPa | 2.8V | 07:48:38 | 01:57:38 | 00:00:00 | |
| BIOWL1-15 | 2026-09-04 08:30:30 | 52.58433 | 10.25949 | 78° | 89km/h | 1245m | -4.4m/s | 12.6°C | 95.4% | 874.5hPa | 2.8V | 07:48:38 | 01:57:36 | 00:00:00 | |
| DF8AY | 2026-09-04 08:30:29 | 52.58438 | 10.25986 | 78° | 88km/h | 1241m | -4.2m/s | 12.5°C | 97.2% | 874.9hPa | 2.8V | 07:48:38 | 01:57:37 | 00:00:00 | |
| DF8AY | 2026-09-04 08:30:27 | 52.58428 | 10.25913 | 78° | 89km/h | 1250m | -4m/s | 12.6°C | 94.7% | 873.9hPa | 2.7V | 07:48:38 | 01:57:35 | 00:00:00 | |
| DF8AY | 2026-09-04 08:30:26 | 52.58423 | 10.25877 | 77° | 89km/h | 1253m | -3.9m/s | 12.4°C | 95.1% | 873.8hPa | 2.7V | 07:48:38 | 01:57:34 | 00:00:00 | |
| DB0DAN | 2026-09-04 08:30:25 | 52.58418 | 10.25840 | 76° | 86km/h | 1258m | -4.1m/s | 12.4°C | 96.3% | 873.17hPa | 2.8V | 00:00:00 | 00:00:00 | 00:00:00 | |
| DF8AY | 2026-09-04 08:30:25 | 52.58418 | 10.25840 | 76° | 89km/h | 1258m | -4.1m/s | 12.4°C | 94.6% | 873.2hPa | 2.8V | 07:48:38 | 01:57:33 | 00:00:00 | |
| DF8AY | 2026-09-04 08:30:24 | 52.58412 | 10.25805 | 75° | 88km/h | 1262m | -3.7m/s | 12.4°C | 94% | 872.8hPa | 2.7V | 07:48:38 | 01:57:32 | 00:00:00 | |
| DM0DOS-11 | 2026-09-04 08:30:22 | 52.58395 | 10.25699 | 77° | 86km/h | 1274m | -4.8m/s | 12.3°C | 98% | 871.5hPa | 2.7V | 07:48:27 | 01:57:29 | 00:00:00 | |
| DM0DOS-11 | 2026-09-04 08:30:22 | 52.58378 | 10.25552 | 79° | 93km/h | 1294m | -6m/s | 12.3°C | 95.8% | 869.5hPa | 2.7V | 07:48:31 | 01:57:25 | 00:00:00 | |
| DF8AY | 2026-09-04 08:30:22 | 52.58400 | 10.25734 | 76° | 88km/h | 1269m | -4m/s | 12.2°C | 95.5% | 871.9hPa | 2.7V | 07:48:38 | 01:57:30 | 00:00:00 | |
| BIOWL1-15 | 2026-09-04 08:30:22 | 52.58391 | 10.25664 | 79° | 88km/h | 1279m | -4.7m/s | 12.3°C | 95.1% | 871hPa | 2.7V | 07:48:38 | 01:57:28 | 00:00:00 | |
| DF8AY | 2026-09-04 08:30:21 | 52.58395 | 10.25699 | 78° | 86km/h | 1274m | -4.8m/s | 12.3°C | 94.9% | 871.5hPa | 2.7V | 07:48:38 | 01:57:29 | 00:00:00 | |
| DF8AY | 2026-09-04 08:30:19 | 52.58386 | 10.25627 | 79° | 89km/h | 1284m | -5m/s | 12.3°C | 94.8% | 870.6hPa | 2.7V | 07:48:38 | 01:57:27 | 00:00:00 | |
| BIOWL1-15 | 2026-09-04 08:30:18 | 52.58382 | 10.25590 | 80° | 91km/h | 1288m | -5.2m/s | 12.3°C | 94.9% | 870.1hPa | 2.7V | 07:48:38 | 01:57:26 | 00:00:00 | |
| DF8AY | 2026-09-04 08:30:17 | 52.58378 | 10.25552 | 79° | 93km/h | 1294m | -6.1m/s | 12.4°C | 94% | 869.5hPa | 2.7V | 07:48:38 | 01:57:25 | 00:00:00 | |
| DM0DOS-11 | 2026-09-04 08:30:16 | 52.58358 | 10.25397 | 77° | 95km/h | 1318m | -6.2m/s | 12.6°C | 92.5% | 866.9hPa | 2.7V | 07:48:35 | 01:57:21 | 00:00:00 | |
| DF8AY | 2026-09-04 08:30:15 | 52.58369 | 10.25475 | 79° | 95km/h | 1306m | -5.8m/s | 12.4°C | 93.6% | 868.3hPa | 2.8V | 07:48:38 | 01:57:23 | 00:00:00 | |
| DF8AY | 2026-09-04 08:30:14 | 52.58364 | 10.25436 | 78° | 97km/h | 1312m | -5.7m/s | 12.5°C | 92.7% | 867.7hPa | 2.7V | 07:48:38 | 01:57:22 | 00:00:00 | |
| DF8AY | 2026-09-04 08:30:12 | 52.58347 | 10.25320 | 76° | 95km/h | 1329m | -5.7m/s | 12.6°C | 92.1% | 865.9hPa | 2.7V | 07:48:38 | 01:57:19 | 00:00:00 | |
| BIOWL1-15 | 2026-09-04 08:30:12 | 52.58353 | 10.25358 | 77° | 95km/h | 1323m | -5.6m/s | 12.5°C | 92.1% | 866.4hPa | 2.7V | 07:48:38 | 01:57:20 | 00:00:00 | |
| DB0DAN | 2026-09-04 08:30:10 | 52.58342 | 10.25282 | 77° | 89km/h | 1335m | -6.3m/s | 12.6°C | 89.4% | 865.12hPa | 2.7V | 00:00:00 | 00:00:00 | 00:00:00 | |
| BIOWL1-15 | 2026-09-04 08:30:10 | 52.58342 | 10.25282 | 77° | 93km/h | 1335m | -6.3m/s | 12.6°C | 91.7% | 865.1hPa | 2.7V | 07:48:38 | 01:57:18 | 00:00:00 | |
| BIOWL1-15 | 2026-09-04 08:30:09 | 52.58336 | 10.25244 | 77° | 93km/h | 1341m | -6.1m/s | 12.6°C | 91.6% | 864.6hPa | 2.8V | 07:49:29 | 01:57:17 | 00:00:00 | |
| DF8AY | 2026-09-04 08:30:08 | 52.58331 | 10.25207 | 77° | 91km/h | 1348m | -6.4m/s | 12.6°C | 91.2% | 863.9hPa | 2.8V | 07:49:29 | 01:57:16 | 00:00:00 | |
| BIOWL1-15 | 2026-09-04 08:30:07 | 52.58326 | 10.25170 | 78° | 91km/h | 1354m | -6.1m/s | 12.7°C | 90.1% | 863.4hPa | 2.8V | 07:49:29 | 01:57:15 | 00:00:00 | |
| BIOWL1-15 | 2026-09-04 08:30:06 | 52.58321 | 10.25133 | 78° | 91km/h | 1360m | -6.2m/s | 12.8°C | 88.5% | 862.8hPa | 2.8V | 07:49:29 | 01:57:14 | 00:00:00 | |
| BIOWL1-15 | 2026-09-04 08:30:04 | 52.58312 | 10.25059 | 79° | 91km/h | 1372m | -6.2m/s | 13.1°C | 85.8% | 861.5hPa | 2.8V | 07:49:29 | 01:57:12 | 00:00:00 | |
| DF8AY | 2026-09-04 08:30:03 | 52.58308 | 10.25022 | 80° | 91km/h | 1378m | -5.8m/s | 13.5°C | 83.4% | 860.7hPa | 2.8V | 07:49:29 | 01:57:11 | 00:00:00 | |
| BIOWL1-15 | 2026-09-04 08:30:02 | 52.58304 | 10.24984 | 81° | 91km/h | 1384m | -5.8m/s | 13.8°C | 80.9% | 860.1hPa | 2.7V | 07:49:29 | 01:57:10 | 00:00:00 | |
| BIOWL1-15 | 2026-09-04 08:30:00 | 52.58293 | 10.24869 | 82° | 95km/h | 1400m | -4.9m/s | 13.6°C | 80.1% | 858.3hPa | 2.8V | 07:49:29 | 01:57:07 | 00:00:00 | |
| DF8AY | 2026-09-04 08:30:00 | 52.58297 | 10.24908 | 82° | 93km/h | 1395m | -4.9m/s | 13.6°C | 80.3% | 859hPa | 2.8V | 07:49:29 | 01:57:08 | 00:00:00 | |
| DM0DOS-11 | 2026-09-04 08:29:58 | 52.58279 | 10.24710 | 81° | 99km/h | 1419m | -4.5m/s | 13.6°C | 76.4% | 856.5hPa | 2.7V | 07:48:53 | 01:57:03 | 00:00:00 | |
| DF8AY | 2026-09-04 08:29:58 | 52.58290 | 10.24830 | 82° | 95km/h | 1405m | -4.1m/s | 13.7°C | 79.7% | 857.9hPa | 2.8V | 07:49:29 | 01:57:06 | 00:00:00 | |
| BIOWL1-15 | 2026-09-04 08:29:56 | 52.58279 | 10.24710 | 81° | 99km/h | 1419m | -4.5m/s | 13.6°C | 79.2% | 856.5hPa | 2.7V | 07:49:29 | 01:57:03 | 00:00:00 | |
| DF8AY | 2026-09-04 08:29:56 | 52.58283 | 10.24751 | 82° | 97km/h | 1414m | -4.6m/s | 13.7°C | 79% | 857.1hPa | 2.8V | 07:49:29 | 01:57:04 | 00:00:00 | |
| DB0DAN | 2026-09-04 08:29:55 | 52.58279 | 10.24710 | 81° | 95km/h | 1419m | -4.5m/s | 13.6°C | 75% | 856.54hPa | 2.7V | 00:00:00 | 00:00:00 | 00:00:00 | |
| DF8AY | 2026-09-04 08:29:54 | 52.58275 | 10.24670 | 80° | 99km/h | 1423m | -3.9m/s | 13.6°C | 79.4% | 856.2hPa | 2.7V | 07:49:29 | 01:57:02 | 00:00:00 | |
| DF8AY | 2026-09-04 08:29:53 | 52.58271 | 10.24630 | 80° | 99km/h | 1427m | -4.6m/s | 13.5°C | 79.7% | 855.6hPa | 2.8V | 07:49:29 | 01:57:01 | 00:00:00 | |
| BIOWL1-15 | 2026-09-04 08:29:52 | 52.58267 | 10.24590 | 79° | 97km/h | 1432m | -5.5m/s | 13.5°C | 79.8% | 855.2hPa | 2.8V | 07:49:29 | 01:57:00 | 00:00:00 | |
| DF8AY | 2026-09-04 08:29:51 | 52.58257 | 10.24511 | 79° | 95km/h | 1441m | -5.3m/s | 13.5°C | 79.6% | 854.2hPa | 2.8V | 07:49:29 | 01:56:58 | 00:00:00 | |
| BIOWL1-15 | 2026-09-04 08:29:51 | 52.58262 | 10.24550 | 79° | 97km/h | 1437m | -4.4m/s | 13.5°C | 79.7% | 854.7hPa | 2.8V | 07:49:29 | 01:56:59 | 00:00:00 | |
| BIOWL1-15 | 2026-09-04 08:29:49 | 52.58252 | 10.24473 | 78° | 95km/h | 1446m | -4.6m/s | 13.5°C | 79.6% | 853.7hPa | 2.8V | 07:49:29 | 01:56:57 | 00:00:00 | |
| BIOWL1-15 | 2026-09-04 08:29:47 | 52.58243 | 10.24397 | 79° | 91km/h | 1455m | -4.4m/s | 13.4°C | 80.2% | 852.8hPa | 2.7V | 07:49:29 | 01:56:55 | 00:00:00 | |
| DM0DOS-11 | 2026-09-04 08:29:46 | 52.58234 | 10.24322 | 80° | 89km/h | 1465m | -4.6m/s | 13.3°C | 76.7% | 851.9hPa | 2.8V | 07:49:03 | 01:56:53 | 00:00:00 | |
| BIOWL1-15 | 2026-09-04 08:29:45 | 52.58235 | 10.24322 | 80° | 89km/h | 1465m | -4.6m/s | 13.4°C | 80.9% | 851.9hPa | 2.8V | 07:49:29 | 01:56:53 | 00:00:00 | |
| DF8AY | 2026-09-04 08:29:44 | 52.58231 | 10.24285 | 81° | 91km/h | 1469m | -4.4m/s | 13.3°C | 81.5% | 851.5hPa | 2.8V | 07:49:29 | 01:56:52 | 00:00:00 | |
| BIOWL1-15 | 2026-09-04 08:29:43 | 52.58227 | 10.24248 | 82° | 91km/h | 1474m | -5.8m/s | 13.3°C | 81.8% | 851hPa | 2.8V | 07:49:29 | 01:56:51 | 00:00:00 | |
| BIOWL1-15 | 2026-09-04 08:29:42 | 52.58224 | 10.24210 | 83° | 91km/h | 1479m | -4.8m/s | 13.2°C | 81.8% | 850.3hPa | 2.8V | 07:49:29 | 01:56:50 | 00:00:00 | |
| BIOWL1-15 | 2026-09-04 08:29:41 | 52.58221 | 10.24172 | 83° | 93km/h | 1484m | -4.9m/s | 13.2°C | 82.1% | 849.8hPa | 2.8V | 07:49:29 | 01:56:49 | 00:00:00 | |
| DB0DAN | 2026-09-04 08:29:40 | 52.58219 | 10.24134 | 83° | 89km/h | 1489m | -4.4m/s | 13.1°C | 76.2% | 849.39hPa | 2.7V | 00:00:00 | 00:00:00 | 00:00:00 | |
| DM0DOS-11 | 2026-09-04 08:29:40 | 52.58216 | 10.24095 | 83° | 93km/h | 1493m | -4.4m/s | 13.1°C | 77.8% | 848.9hPa | 2.7V | 07:49:09 | 01:56:47 | 00:00:00 | |
| DM0DOS-11 | 2026-09-04 08:29:40 | 52.58210 | 10.24018 | 83° | 95km/h | 1502m | -4.1m/s | 13°C | 78.2% | 848.1hPa | 2.8V | 07:49:11 | 01:56:45 | 00:00:00 | |
| DF8AY | 2026-09-04 08:29:40 | 52.58219 | 10.24134 | 84° | 93km/h | 1489m | -4.4m/s | 13.1°C | 82.3% | 849.4hPa | 2.7V | 07:49:29 | 01:56:48 | 00:00:00 | |
| BIOWL1-15 | 2026-09-04 08:29:39 | 52.58210 | 10.24018 | 83° | 95km/h | 1502m | -4.1m/s | 13°C | 82.7% | 848.1hPa | 2.8V | 07:49:29 | 01:56:45 | 00:00:00 | |
| DF8AY | 2026-09-04 08:29:38 | 52.58213 | 10.24057 | 83° | 95km/h | 1498m | -4.4m/s | 13°C | 82.6% | 848.5hPa | 2.8V | 07:49:29 | 01:56:46 | 00:00:00 | |
| DF8AY | 2026-09-04 08:29:36 | 52.58208 | 10.23979 | 84° | 93km/h | 1506m | -3.8m/s | 13°C | 82.8% | 847.7hPa | 2.8V | 07:49:29 | 01:56:44 | 00:00:00 | |
| DF8AY | 2026-09-04 08:29:35 | 52.58205 | 10.23941 | 84° | 93km/h | 1510m | -3.9m/s | 12.9°C | 83.4% | 847.2hPa | 2.8V | 07:49:29 | 01:56:43 | 00:00:00 | |
| BIOWL1-15 | 2026-09-04 08:29:35 | 52.58200 | 10.23864 | 85° | 93km/h | 1518m | -3.1m/s | 12.9°C | 83.4% | 846.6hPa | 2.8V | 07:49:29 | 01:56:41 | 00:00:00 | |
| DM0DOS-11 | 2026-09-04 08:29:34 | 52.58190 | 10.23709 | 81° | 95km/h | 1533m | -3.9m/s | 12.7°C | 79.5% | 844.9hPa | 2.8V | 07:49:19 | 01:56:37 | 00:00:00 | |
| DF8AY | 2026-09-04 08:29:34 | 52.58203 | 10.23902 | 84° | 93km/h | 1514m | -4.9m/s | 12.9°C | 83.5% | 846.9hPa | 2.8V | 07:49:29 | 01:56:42 | 00:00:00 | |
| DF8AY | 2026-09-04 08:29:32 | 52.58198 | 10.23825 | 84° | 93km/h | 1522m | -4.1m/s | 12.9°C | 83.9% | 846.1hPa | 2.8V | 07:49:29 | 01:56:40 | 00:00:00 | |
| BIOWL1-15 | 2026-09-04 08:29:31 | 52.58196 | 10.23787 | 84° | 95km/h | 1526m | -4m/s | 12.8°C | 84% | 845.7hPa | 2.7V | 07:49:29 | 01:56:39 | 00:00:00 | |
| BIOWL1-15 | 2026-09-04 08:29:30 | 52.58193 | 10.23748 | 83° | 95km/h | 1529m | -4m/s | 12.8°C | 84.2% | 845.4hPa | 2.8V | 07:49:29 | 01:56:38 | 00:00:00 | |
| BIOWL1-15 | 2026-09-04 08:29:28 | 52.58186 | 10.23670 | 81° | 95km/h | 1537m | -4.1m/s | 12.7°C | 84.8% | 844.4hPa | 2.8V | 07:49:29 | 01:56:36 | 00:00:00 | |
| BIOWL1-15 | 2026-09-04 08:29:27 | 52.58182 | 10.23631 | 80° | 95km/h | 1541m | -3.9m/s | 12.6°C | 85% | 844hPa | 2.8V | 07:49:29 | 01:56:35 | 00:00:00 | |
| DB0DAN | 2026-09-04 08:29:25 | 52.58174 | 10.23554 | 79° | 89km/h | 1548m | -2.9m/s | 12.5°C | 78.8% | 843.21hPa | 2.8V | 00:00:00 | 00:00:00 | 00:00:00 | |
| BIOWL1-15 | 2026-09-04 08:29:25 | 52.58174 | 10.23554 | 79° | 93km/h | 1548m | -2.9m/s | 12.5°C | 85.4% | 843.2hPa | 2.8V | 07:49:29 | 01:56:33 | 00:00:00 | |
| BIOWL1-15 | 2026-09-04 08:29:24 | 52.58169 | 10.23516 | 80° | 93km/h | 1552m | -4.4m/s | 12.5°C | 85.8% | 843hPa | 2.7V | 07:49:29 | 01:56:32 | 00:00:00 | |
| BIOWL1-15 | 2026-09-04 08:29:22 | 52.58162 | 10.23441 | 81° | 89km/h | 1560m | -4.3m/s | 12.4°C | 86.1% | 842.2hPa | 2.8V | 07:49:29 | 01:56:30 | 00:00:00 | |
| BIOWL1-15 | 2026-09-04 08:29:20 | 52.58153 | 10.23330 | 84° | 89km/h | 1572m | -4.8m/s | 12.1°C | 86.6% | 841.1hPa | 2.8V | 07:49:29 | 01:56:27 | 00:00:00 | |
| DF8AY | 2026-09-04 08:29:20 | 52.58155 | 10.23367 | 83° | 89km/h | 1568m | -4.1m/s | 12.2°C | 86.6% | 841.3hPa | 2.8V | 07:49:29 | 01:56:28 | 00:00:00 | |
| DF8AY | 2026-09-04 08:29:18 | 52.58150 | 10.23293 | 84° | 89km/h | 1577m | -4.2m/s | 12.1°C | 86.7% | 840.4hPa | 2.8V | 07:50:20 | 01:56:26 | 00:00:00 | |
| DF8AY | 2026-09-04 08:29:17 | 52.58148 | 10.23255 | 84° | 91km/h | 1581m | -3.8m/s | 12°C | 87% | 840.1hPa | 2.8V | 07:50:20 | 01:56:25 | 00:00:00 | |
| DM0DOS-11 | 2026-09-04 08:29:16 | 52.58126 | 10.23029 | 80° | 88km/h | 1605m | -4.4m/s | 11.6°C | 84.3% | 837.9hPa | 2.8V | 07:49:37 | 01:56:19 | 00:00:00 | |
| DF8AY | 2026-09-04 08:29:15 | 52.58142 | 10.23179 | 82° | 93km/h | 1590m | -3.9m/s | 11.9°C | 87.4% | 839.3hPa | 2.8V | 07:50:20 | 01:56:23 | 00:00:00 | |
| DF8AY | 2026-09-04 08:29:14 | 52.58138 | 10.23141 | 81° | 93km/h | 1593m | -3.9m/s | 11.8°C | 87.3% | 838.8hPa | 2.8V | 07:50:20 | 01:56:22 | 00:00:00 | |
| DF8AY | 2026-09-04 08:29:12 | 52.58130 | 10.23066 | 80° | 91km/h | 1601m | -3.4m/s | 11.6°C | 88.4% | 838.2hPa | 2.8V | 07:50:20 | 01:56:20 | 00:00:00 | |
| DF8AY | 2026-09-04 08:29:11 | 52.58126 | 10.23029 | 80° | 88km/h | 1605m | -4.4m/s | 11.6°C | 88.9% | 837.9hPa | 2.8V | 07:50:20 | 01:56:19 | 00:00:00 | |
| DB0DAN | 2026-09-04 08:29:10 | 52.58123 | 10.22993 | 81° | 84km/h | 1609m | -4.7m/s | 11.5°C | 83% | 837.42hPa | 2.8V | 00:00:00 | 00:00:00 | 00:00:00 | |
| DF8AY | 2026-09-04 08:29:10 | 52.58123 | 10.22993 | 81° | 88km/h | 1609m | -4.7m/s | 11.5°C | 89.5% | 837.4hPa | 2.8V | 07:50:20 | 01:56:18 | 00:00:00 | |
| BIOWL1-15 | 2026-09-04 08:29:10 | 52.58116 | 10.22922 | 81° | 86km/h | 1620m | -4.2m/s | 11.4°C | 89.6% | 836.3hPa | 2.8V | 07:50:20 | 01:56:16 | 00:00:00 | |
| DF8AY | 2026-09-04 08:29:09 | 52.58119 | 10.22957 | 81° | 88km/h | 1615m | -6.1m/s | 11.4°C | 89.6% | 836.9hPa | 2.7V | 07:50:20 | 01:56:17 | 00:00:00 | |
| DF8AY | 2026-09-04 08:29:07 | 52.58112 | 10.22887 | 81° | 86km/h | 1624m | -4.4m/s | 11.3°C | 90.3% | 835.9hPa | 2.8V | 07:50:20 | 01:56:15 | 00:00:00 | |
| BIOWL1-15 | 2026-09-04 08:29:06 | 52.58108 | 10.22851 | 80° | 88km/h | 1629m | -5.1m/s | 11.3°C | 90.6% | 835.5hPa | 2.8V | 07:50:20 | 01:56:14 | 00:00:00 | |
| BIOWL1-15 | 2026-09-04 08:29:05 | 52.58105 | 10.22815 | 80° | 88km/h | 1634m | -5.2m/s | 11.2°C | 91.2% | 835.1hPa | 2.8V | 07:50:20 | 01:56:13 | 00:00:00 | |
| DM0DOS-11 | 2026-09-04 08:29:04 | 52.58096 | 10.22743 | 79° | 89km/h | 1643m | -4.8m/s | 11.1°C | 87.3% | 834hPa | 2.8V | 07:49:45 | 01:56:11 | 00:00:00 | |
| BIOWL1-15 | 2026-09-04 08:29:04 | 52.58100 | 10.22779 | 79° | 88km/h | 1639m | -4.6m/s | 11.2°C | 91.1% | 834.4hPa | 2.8V | 07:50:20 | 01:56:12 | 00:00:00 | |
| DF8AY | 2026-09-04 08:29:03 | 52.58096 | 10.22743 | 79° | 89km/h | 1643m | -4.8m/s | 11.1°C | 90.9% | 834hPa | 2.8V | 07:50:20 | 01:56:11 | 00:00:00 | |
| BIOWL1-15 | 2026-09-04 08:29:02 | 52.58092 | 10.22707 | 80° | 89km/h | 1647m | -3.7m/s | 11.1°C | 91.2% | 833.5hPa | 2.7V | 07:50:20 | 01:56:10 | 00:00:00 | |
| BIOWL1-15 | 2026-09-04 08:29:01 | 52.58088 | 10.22670 | 81° | 89km/h | 1652m | -4.3m/s | 11°C | 92% | 833.1hPa | 2.8V | 07:50:20 | 01:56:09 | 00:00:00 | |
| BIOWL1-15 | 2026-09-04 08:28:59 | 52.58082 | 10.22596 | 83° | 91km/h | 1661m | -5.8m/s | 10.9°C | 92.2% | 832.3hPa | 2.8V | 07:50:20 | 01:56:07 | 00:00:00 | |
| DM0DOS-11 | 2026-09-04 08:28:58 | 52.58066 | 10.22365 | 81° | 95km/h | 1689m | -4.4m/s | 10.6°C | 89.8% | 829.5hPa | 2.8V | 07:49:55 | 01:56:01 | 00:00:00 | |
| BIOWL1-15 | 2026-09-04 08:28:58 | 52.58080 | 10.22558 | 84° | 93km/h | 1666m | -4.4m/s | 10.8°C | 92.2% | 831.8hPa | 2.8V | 07:50:20 | 01:56:06 | 00:00:00 | |
| BIOWL1-15 | 2026-09-04 08:28:57 | 52.58077 | 10.22520 | 84° | 93km/h | 1671m | -4.8m/s | 10.8°C | 92.4% | 831.3hPa | 2.7V | 07:50:20 | 01:56:05 | 00:00:00 | |
| BIOWL1-15 | 2026-09-04 08:28:56 | 52.58075 | 10.22481 | 84° | 93km/h | 1675m | -4.9m/s | 10.7°C | 92.3% | 830.9hPa | 2.7V | 07:50:20 | 01:56:04 | 00:00:00 | |
| DB0DAN | 2026-09-04 08:28:55 | 52.58072 | 10.22443 | 83° | 89km/h | 1680m | -4.3m/s | 10.7°C | 87.9% | 830.34hPa | 2.7V | 00:00:00 | 00:00:00 | 00:00:00 | |
| BIOWL1-15 | 2026-09-04 08:28:54 | 52.58069 | 10.22404 | 83° | 93km/h | 1685m | -4.9m/s | 10.6°C | 92.7% | 829.9hPa | 2.8V | 07:50:20 | 01:56:02 | 00:00:00 | |
| BIOWL1-15 | 2026-09-04 08:28:53 | 52.58066 | 10.22365 | 82° | 95km/h | 1689m | -4.4m/s | 10.6°C | 92.6% | 829.5hPa | 2.8V | 07:50:20 | 01:56:01 | 00:00:00 | |
| DF8AY | 2026-09-04 08:28:52 | 52.58062 | 10.22327 | 81° | 95km/h | 1694m | -4.9m/s | 10.5°C | 93.6% | 829.1hPa | 2.8V | 07:50:20 | 01:56:00 | 00:00:00 | |
| DM0DOS-11 | 2026-09-04 08:28:52 | 52.58059 | 10.22288 | 80° | 93km/h | 1698m | -4.2m/s | 10.5°C | 91.1% | 828.7hPa | 2.8V | 07:49:57 | 01:55:59 | 00:00:00 | |
| BIOWL1-15 | 2026-09-04 08:28:51 | 52.58059 | 10.22288 | 81° | 93km/h | 1698m | -4.3m/s | 10.5°C | 93.7% | 828.7hPa | 2.8V | 07:50:20 | 01:55:59 | 00:00:00 | |
| BIOWL1-15 | 2026-09-04 08:28:50 | 52.58055 | 10.22250 | 80° | 93km/h | 1703m | -4.5m/s | 10.5°C | 93.1% | 828.1hPa | 2.7V | 07:50:20 | 01:55:58 | 00:00:00 | |
| BIOWL1-15 | 2026-09-04 08:28:49 | 52.58050 | 10.22212 | 80° | 91km/h | 1707m | -4.5m/s | 10.5°C | 95.4% | 827.7hPa | 2.7V | 07:50:20 | 01:55:57 | 00:00:00 | |
| DL1XH-west | 2026-09-04 08:28:48 | 52.58046 | 10.22175 | 79° | 91km/h | 1712m | -4.3m/s | 10.5°C | 95.4% | 827.2hPa | 2.7V | 07:50:20 | 01:55:56 | 00:00:00 | |
| BIOWL1-15 | 2026-09-04 08:28:46 | 52.58038 | 10.22101 | 80° | 88km/h | 1720m | -4.2m/s | 10.4°C | 95.6% | 826.3hPa | 2.8V | 07:50:20 | 01:55:54 | 00:00:00 | |
| DL1XH-west | 2026-09-04 08:28:45 | 52.58034 | 10.22065 | 80° | 88km/h | 1724m | -4.3m/s | 10.3°C | 94% | 825.9hPa | 2.8V | 07:50:20 | 01:55:53 | 00:00:00 | |
| DF8AY | 2026-09-04 08:28:44 | 52.58030 | 10.22029 | 81° | 86km/h | 1729m | -5m/s | 10.3°C | 93.7% | 825.7hPa | 2.8V | 07:50:20 | 01:55:52 | 00:00:00 | |
| DL1XH-west | 2026-09-04 08:28:43 | 52.58027 | 10.21994 | 82° | 86km/h | 1733m | -4.3m/s | 10.3°C | 95% | 825.1hPa | 2.7V | 07:50:20 | 01:55:51 | 00:00:00 | |
| DF8AY | 2026-09-04 08:28:42 | 52.58024 | 10.21959 | 82° | 86km/h | 1737m | -3.8m/s | 10.2°C | 93.1% | 824.6hPa | 2.7V | 07:50:20 | 01:55:50 | 00:00:00 | |
| DL1XH-west | 2026-09-04 08:28:41 | 52.58021 | 10.21923 | 83° | 86km/h | 1741m | -3.8m/s | 10.3°C | 96.3% | 824.3hPa | 2.7V | 07:50:20 | 01:55:49 | 00:00:00 | |
| DB0DAN | 2026-09-04 08:28:40 | 52.58019 | 10.21888 | 83° | 82km/h | 1745m | -4.1m/s | 10.2°C | 91.9% | 823.88hPa | 2.7V | 00:00:00 | 00:00:00 | 00:00:00 | |
| BIOWL1-15 | 2026-09-04 08:28:40 | 52.58019 | 10.21888 | 83° | 86km/h | 1745m | -4.1m/s | 10.2°C | 95.9% | 823.9hPa | 2.7V | 07:50:20 | 01:55:48 | 00:00:00 | |
| DF8AY | 2026-09-04 08:28:39 | 52.58016 | 10.21853 | 82° | 86km/h | 1749m | -3.3m/s | 10.3°C | 97.7% | 823.5hPa | 2.7V | 07:50:20 | 01:55:47 | 00:00:00 | |
| BIOWL1-15 | 2026-09-04 08:28:38 | 52.58013 | 10.21818 | 82° | 86km/h | 1753m | -4m/s | 10.2°C | 98.2% | 823.2hPa | 2.7V | 07:50:20 | 01:55:46 | 00:00:00 | |
| BIOWL1-15 | 2026-09-04 08:28:36 | 52.58007 | 10.21747 | 82° | 86km/h | 1761m | -4.5m/s | 10.2°C | 98.8% | 822.4hPa | 2.7V | 07:50:20 | 01:55:44 | 00:00:00 | |
| BIOWL1-15 | 2026-09-04 08:28:34 | 52.57998 | 10.21643 | 81° | 84km/h | 1775m | -4.4m/s | 10°C | 97.9% | 821.1hPa | 2.7V | 07:50:20 | 01:55:41 | 00:00:00 | |
| DF8AY | 2026-09-04 08:28:34 | 52.58001 | 10.21678 | 82° | 84km/h | 1771m | -4.4m/s | 10°C | 96.4% | 821.5hPa | 2.7V | 07:50:20 | 01:55:42 | 00:00:00 | |
| DF8AY | 2026-09-04 08:28:32 | 52.57994 | 10.21608 | 80° | 84km/h | 1779m | -3.7m/s | 10°C | 98.8% | 820.7hPa | 2.7V | 07:50:20 | 01:55:40 | 00:00:00 | |
| DF8AY | 2026-09-04 08:28:31 | 52.57991 | 10.21574 | 80° | 86km/h | 1783m | -4.1m/s | 10°C | 99.2% | 820.5hPa | 2.7V | 07:50:20 | 01:55:39 | 00:00:00 | |
| BIOWL1-15 | 2026-09-04 08:28:30 | 52.57973 | 10.21400 | 82° | 84km/h | 1804m | -4.3m/s | 9.6°C | 94.6% | 818.3hPa | 2.8V | 07:51:11 | 01:55:34 | 00:00:00 | |
| DL1XH-west | 2026-09-04 08:28:29 | 52.57983 | 10.21504 | 80° | 86km/h | 1792m | -4.6m/s | 9.8°C | 96.4% | 819.6hPa | 2.7V | 07:50:20 | 01:55:37 | 00:00:00 | |
| DL1XH-west | 2026-09-04 08:28:28 | 52.57979 | 10.21469 | 81° | 84km/h | 1796m | -4.1m/s | 9.7°C | 95.2% | 819hPa | 2.7V | 07:50:20 | 01:55:36 | 00:00:00 | |
| DF8AY | 2026-09-04 08:28:27 | 52.57976 | 10.21435 | 81° | 84km/h | 1800m | -3.3m/s | 9.6°C | 95.2% | 818.6hPa | 2.7V | 07:51:11 | 01:55:35 | 00:00:00 | |
| DB0DAN | 2026-09-04 08:28:25 | 52.57970 | 10.21365 | 82° | 80km/h | 1808m | -4m/s | 9.6°C | 91.8% | 818.03hPa | 2.7V | 00:00:00 | 00:00:00 | 00:00:00 | |
| DL1XH-west | 2026-09-04 08:28:25 | 52.57970 | 10.21365 | 82° | 86km/h | 1808m | -4m/s | 9.6°C | 95.6% | 818hPa | 2.7V | 07:51:11 | 01:55:33 | 00:00:00 | |
| BIOWL1-15 | 2026-09-04 08:28:24 | 52.57967 | 10.21330 | 83° | 86km/h | 1812m | -4.2m/s | 9.5°C | 95.1% | 817.7hPa | 2.7V | 07:51:11 | 01:55:32 | 00:00:00 | |
| BIOWL1-15 | 2026-09-04 08:28:23 | 52.57964 | 10.21295 | 83° | 86km/h | 1816m | -4m/s | 9.5°C | 94.9% | 817.1hPa | 2.7V | 07:51:11 | 01:55:31 | 00:00:00 | |
| BIOWL1-15 | 2026-09-04 08:28:22 | 52.57962 | 10.21260 | 83° | 86km/h | 1820m | -4m/s | 9.4°C | 94.6% | 816.7hPa | 2.7V | 07:51:11 | 01:55:30 | 00:00:00 | |
| DL1XH1-15 | 2026-09-04 08:28:21 | 52.57959 | 10.21224 | 83° | 86km/h | 1824m | -4.1m/s | 9.4°C | 93.5% | 816.3hPa | 2.7V | 07:50:27 | 01:55:29 | 00:00:00 | |
| DL1XH-west | 2026-09-04 08:28:21 | 52.57959 | 10.21224 | 83° | 86km/h | 1824m | -4.1m/s | 9.4°C | 94.6% | 816.3hPa | 2.7V | 07:51:11 | 01:55:29 | 00:00:00 | |
| BIOWL1-15 | 2026-09-04 08:28:20 | 52.57951 | 10.21119 | 83° | 86km/h | 1837m | -4.3m/s | 9.3°C | 95.1% | 815.2hPa | 2.6V | 07:51:11 | 01:55:26 | 00:00:00 | |
| DL1XH-west | 2026-09-04 08:28:19 | 52.57954 | 10.21154 | 83° | 86km/h | 1832m | -4.1m/s | 9.3°C | 94.8% | 815.6hPa | 2.7V | 07:51:11 | 01:55:27 | 00:00:00 | |
| DF8AY | 2026-09-04 08:28:17 | 52.57949 | 10.21083 | 83° | 86km/h | 1841m | -4.4m/s | 9.3°C | 95.3% | 814.8hPa | 2.7V | 07:51:11 | 01:55:25 | 00:00:00 | |
| DL1XH-west | 2026-09-04 08:28:16 | 52.57946 | 10.21048 | 83° | 86km/h | 1846m | -4.2m/s | 9.2°C | 95.2% | 814.3hPa | 2.7V | 07:51:11 | 01:55:24 | 00:00:00 | |
| DL1XH-west | 2026-09-04 08:28:15 | 52.57944 | 10.21012 | 84° | 88km/h | 1850m | -4.7m/s | 9.2°C | 95.5% | 813.9hPa | 2.7V | 07:51:11 | 01:55:23 | 00:00:00 | |
| DF8AY | 2026-09-04 08:28:14 | 52.57941 | 10.20976 | 84° | 89km/h | 1855m | -4.4m/s | 9.2°C | 94.9% | 813.4hPa | 2.7V | 07:51:11 | 01:55:22 | 00:00:00 | |
| BIOWL1-15 | 2026-09-04 08:28:13 | 52.57939 | 10.20939 | 84° | 89km/h | 1859m | -3.9m/s | 9.2°C | 95.3% | 812.9hPa | 2.7V | 07:51:11 | 01:55:21 | 00:00:00 | |
| DL1XH-west | 2026-09-04 08:28:11 | 52.57934 | 10.20864 | 84° | 91km/h | 1867m | -4.6m/s | 9.1°C | 95.9% | 811.9hPa | 2.7V | 07:51:11 | 01:55:19 | 00:00:00 | |
| DB0DAN | 2026-09-04 08:28:10 | 52.57932 | 10.20826 | 84° | 88km/h | 1872m | -4.2m/s | 9.1°C | 93.4% | 811.5hPa | 2.7V | 00:00:00 | 00:00:00 | 00:00:00 | |
| BIOWL1-15 | 2026-09-04 08:28:10 | 52.57932 | 10.20826 | 84° | 91km/h | 1872m | -4.2m/s | 9.1°C | 95.9% | 811.5hPa | 2.7V | 07:51:11 | 01:55:18 | 00:00:00 | |
| DL1XH-west | 2026-09-04 08:28:09 | 52.57929 | 10.20788 | 84° | 93km/h | 1876m | -4.4m/s | 9.1°C | 96.3% | 811.2hPa | 2.7V | 07:51:11 | 01:55:17 | 00:00:00 | |
| DL1XH-west | 2026-09-04 08:28:08 | 52.57927 | 10.20749 | 84° | 93km/h | 1881m | -4.8m/s | 9°C | 96.3% | 810.9hPa | 2.7V | 07:51:11 | 01:55:16 | 00:00:00 | |
| DF8AY | 2026-09-04 08:28:07 | 52.57910 | 10.20517 | 83° | 93km/h | 1908m | -3.8m/s | 8.9°C | 95.3% | 808hPa | 2.7V | 07:51:11 | 01:55:10 | 00:00:00 | |
| BIOWL1-15 | 2026-09-04 08:28:07 | 52.57924 | 10.20711 | 83° | 93km/h | 1886m | -5.1m/s | 9°C | 95.9% | 810.4hPa | 2.7V | 07:51:11 | 01:55:15 | 00:00:00 | |
| BIOWL1-15 | 2026-09-04 08:28:06 | 52.57921 | 10.20672 | 83° | 93km/h | 1891m | -4.7m/s | 8.9°C | 95.4% | 809.8hPa | 2.6V | 07:51:11 | 01:55:14 | 00:00:00 | |
| BIOWL1-15 | 2026-09-04 08:28:04 | 52.57916 | 10.20595 | 83° | 95km/h | 1900m | -4.2m/s | 8.9°C | 94.8% | 808.9hPa | 2.7V | 07:51:11 | 01:55:12 | 00:00:00 | |
| DL1XH-west | 2026-09-04 08:28:03 | 52.57913 | 10.20556 | 83° | 95km/h | 1904m | -4.3m/s | 8.9°C | 94.6% | 808.5hPa | 2.7V | 07:51:11 | 01:55:11 | 00:00:00 | |
| BIOWL1-15 | 2026-09-04 08:28:01 | 52.57907 | 10.20478 | 83° | 95km/h | 1912m | -4.1m/s | 8.9°C | 95.2% | 807.8hPa | 2.7V | 07:51:11 | 01:55:09 | 00:00:00 | |
| DF8AY | 2026-09-04 08:28:00 | 52.57904 | 10.20439 | 83° | 95km/h | 1916m | -4.5m/s | 8.9°C | 95.1% | 807.4hPa | 2.7V | 07:51:11 | 01:55:08 | 00:00:00 | |
| DL1XH-west | 2026-09-04 08:27:59 | 52.57901 | 10.20400 | 83° | 95km/h | 1920m | -4.2m/s | 8.8°C | 94.9% | 807hPa | 2.7V | 07:51:11 | 01:55:07 | 00:00:00 | |
| BIOWL1-15 | 2026-09-04 08:27:58 | 52.57887 | 10.20246 | 81° | 95km/h | 1936m | -4m/s | 9.3°C | 100% | 805.4hPa | 2.7V | 07:51:11 | 01:55:03 | 00:00:00 | |
| DM0DOS-11 | 2026-09-04 08:27:58 | 52.57887 | 10.20246 | 80° | 95km/h | 1936m | -4m/s | 9.3°C | 0% | 805.4hPa | 2.7V | 07:50:53 | 01:55:03 | 00:00:00 | |
| DM0DOS-11 | 2026-09-04 08:27:58 | 52.57879 | 10.20168 | 79° | 95km/h | 1945m | -4.7m/s | 9.5°C | 0% | 804.5hPa | 2.7V | 07:50:55 | 01:55:01 | 00:00:00 | |
| DL1XH-west | 2026-09-04 08:27:58 | 52.57898 | 10.20362 | 82° | 93km/h | 1925m | -3.9m/s | 8.8°C | 94.9% | 806.4hPa | 2.7V | 07:51:11 | 01:55:06 | 00:00:00 | |
| DL4XJ-10 | 2026-09-04 08:27:58 | 52.57898 | 10.20362 | 83° | 95km/h | 1925m | -3.8m/s | 8.1°C | 0% | 0hPa | 2.7V | 00:00:00 | 00:00:00 | 00:00:00 | |
| DL1XH1-15 | 2026-09-04 08:27:57 | 52.57875 | 10.20129 | 79° | 95km/h | 1949m | -4.2m/s | 9.4°C | 0% | 804.2hPa | 2.7V | 07:50:56 | 01:55:00 | 00:00:00 | |
| DF8AY | 2026-09-04 08:27:57 | 52.57895 | 10.20323 | 82° | 95km/h | 1928m | -3.9m/s | 9°C | 98.8% | 806.2hPa | 2.7V | 07:51:11 | 01:55:05 | 00:00:00 | |
| DL1XH-west | 2026-09-04 08:27:56 | 52.57891 | 10.20285 | 81° | 93km/h | 1932m | -4.2m/s | 9.2°C | 100% | 805.8hPa | 2.7V | 07:51:11 | 01:55:04 | 00:00:00 | |
| DB0DAN | 2026-09-04 08:27:55 | 52.57887 | 10.20246 | 81° | 89km/h | 1936m | -4m/s | 9.3°C | 100% | 805.36hPa | 2.7V | 00:00:00 | 00:00:00 | 00:00:00 | |
| DL1XH-west | 2026-09-04 08:27:54 | 52.57883 | 10.20207 | 80° | 95km/h | 1940m | -4m/s | 9.4°C | 100% | 804.9hPa | 2.7V | 07:51:11 | 01:55:02 | 00:00:00 | |
| BIOWL1-15 | 2026-09-04 08:27:53 | 52.57879 | 10.20168 | 80° | 95km/h | 1945m | -4.7m/s | 9.5°C | 100% | 804.6hPa | 2.7V | 07:51:11 | 01:55:01 | 00:00:00 | |
| DM0DOS-11 | 2026-09-04 08:27:52 | 52.57870 | 10.20091 | 79° | 95km/h | 1953m | -4.1m/s | 9.4°C | 0% | 803.7hPa | 2.7V | 07:50:57 | 01:54:59 | 00:00:00 | |
| DM0DOS-11 | 2026-09-04 08:27:52 | 52.57862 | 10.20014 | 80° | 93km/h | 1962m | -4.4m/s | 9.4°C | 0% | 803hPa | 2.7V | 07:50:59 | 01:54:57 | 00:00:00 | |
| DL1XH-west | 2026-09-04 08:27:52 | 52.57875 | 10.20129 | 79° | 95km/h | 1949m | -4.2m/s | 9.4°C | 100% | 804.2hPa | 2.7V | 07:51:11 | 01:55:00 | 00:00:00 | |
| DL1XH1-15 | 2026-09-04 08:27:51 | 52.57866 | 10.20052 | 79° | 95km/h | 1957m | -4.2m/s | 9.4°C | 0% | 803.3hPa | 2.7V | 07:50:58 | 01:54:58 | 00:00:00 | |
| DL1XH1-15 | 2026-09-04 08:27:51 | 52.57858 | 10.19975 | 80° | 93km/h | 1966m | -4.2m/s | 9.3°C | 0% | 802.6hPa | 2.6V | 07:51:00 | 01:54:56 | 00:00:00 | |
| BIOWL1-15 | 2026-09-04 08:27:51 | 52.57870 | 10.20091 | 80° | 95km/h | 1953m | -4.1m/s | 9.4°C | 100% | 803.8hPa | 2.7V | 07:51:11 | 01:54:59 | 00:00:00 | |
| BIOWL1-15 | 2026-09-04 08:27:50 | 52.57866 | 10.20052 | 80° | 95km/h | 1957m | -4.2m/s | 9.4°C | 100% | 803.3hPa | 2.7V | 07:51:11 | 01:54:58 | 00:00:00 | |
| DL1XH-west | 2026-09-04 08:27:49 | 52.57862 | 10.20014 | 80° | 93km/h | 1962m | -4.4m/s | 9.4°C | 100% | 803hPa | 2.7V | 07:51:11 | 01:54:57 | 00:00:00 | |
| DL1XH-15 | 2026-09-04 08:27:48 | 52.57850 | 10.19899 | 80° | 93km/h | 1975m | -4.9m/s | 9.3°C | 0% | 801.7hPa | 2.7V | 07:51:02 | 01:54:54 | 00:00:00 | |
| BIOWL1-15 | 2026-09-04 08:27:48 | 52.57858 | 10.19975 | 80° | 93km/h | 1966m | -4.2m/s | 9.3°C | 100% | 802.6hPa | 2.6V | 07:51:11 | 01:54:56 | 00:00:00 | |
| DL1XH-west | 2026-09-04 08:27:47 | 52.57854 | 10.19937 | 81° | 93km/h | 1970m | -4.5m/s | 9.3°C | 100% | 802.1hPa | 2.7V | 07:51:11 | 01:54:55 | 00:00:00 | |
| DM0DOS-11 | 2026-09-04 08:27:46 | 52.57846 | 10.19860 | 81° | 93km/h | 1980m | -5.3m/s | 9.2°C | 0% | 801.3hPa | 2.7V | 07:51:03 | 01:54:53 | 00:00:00 | |
| DM0DOS-11 | 2026-09-04 08:27:46 | 52.57833 | 10.19707 | 81° | 91km/h | 2000m | -4.2m/s | 9.1°C | 0% | 799.1hPa | 2.7V | 07:51:07 | 01:54:49 | 00:00:00 | |
| BIOWL1-15 | 2026-09-04 08:27:46 | 52.57850 | 10.19899 | 81° | 93km/h | 1975m | -4.9m/s | 9.3°C | 100% | 801.7hPa | 2.7V | 07:51:11 | 01:54:54 | 00:00:00 | |
| DF8AY-15 | 2026-09-04 08:27:46 | 52.57850 | 10.19899 | 81° | 93km/h | 1975m | -4.8m/s | 9.2°C | 0% | 801.7hPa | 2.7V | 00:00:00 | 01:54:54 | 00:00:00 | |
| DL1XH1-15 | 2026-09-04 08:27:45 | 52.57843 | 10.19822 | 82° | 93km/h | 1986m | -5.7m/s | 9.2°C | 0% | 800.6hPa | 2.7V | 07:51:04 | 01:54:52 | 00:00:00 | |
| DL1XH1-15 | 2026-09-04 08:27:45 | 52.57837 | 10.19745 | 82° | 93km/h | 1995m | -4.5m/s | 9.1°C | 0% | 799.9hPa | 2.7V | 07:51:06 | 01:54:50 | 00:00:00 | |
| DL1XH1-15 | 2026-09-04 08:27:45 | 52.57830 | 10.19669 | 80° | 91km/h | 2004m | -4.3m/s | 9.1°C | 0% | 798.8hPa | 2.7V | 07:51:08 | 01:54:48 | 00:00:00 | |
| BIOWL1-15 | 2026-09-04 08:27:45 | 52.57846 | 10.19860 | 81° | 93km/h | 1980m | -5.4m/s | 9.2°C | 100% | 801.3hPa | 2.7V | 07:51:11 | 01:54:53 | 00:00:00 | |
| BIOWL1-15 | 2026-09-04 08:27:44 | 52.57843 | 10.19822 | 82° | 93km/h | 1986m | -5.7m/s | 9.2°C | 100% | 800.6hPa | 2.7V | 07:51:11 | 01:54:52 | 00:00:00 | |
| DL1XH-west | 2026-09-04 08:27:43 | 52.57840 | 10.19783 | 82° | 93km/h | 1991m | -4.5m/s | 9.2°C | 100% | 800.2hPa | 2.7V | 07:51:11 | 01:54:51 | 00:00:00 | |
| DF8AY | 2026-09-04 08:27:42 | 52.57837 | 10.19745 | 82° | 93km/h | 1996m | -4.5m/s | 9.1°C | 100% | 799.9hPa | 2.7V | 07:51:11 | 01:54:50 | 00:00:00 | |
| BIOWL1-15 | 2026-09-04 08:27:41 | 52.57833 | 10.19707 | 82° | 91km/h | 2000m | -4.2m/s | 9.1°C | 100% | 799.1hPa | 2.7V | 07:51:11 | 01:54:49 | 00:00:00 | |
| DB0DAN | 2026-09-04 08:27:40 | 52.57830 | 10.19669 | 81° | 88km/h | 2004m | -4.3m/s | 9.1°C | 100% | 798.8hPa | 2.7V | 00:00:00 | 00:00:00 | 00:00:00 | |
| BIOWL1-15 | 2026-09-04 08:27:38 | 52.57822 | 10.19595 | 79° | 91km/h | 2012m | -3.7m/s | 9°C | 100% | 798.1hPa | 2.7V | 07:51:11 | 01:54:46 | 00:00:00 | |
| DM0DOS-11 | 2026-09-04 08:27:37 | 52.57817 | 10.19558 | 78° | 91km/h | 2016m | -3.6m/s | 9°C | 0% | 797.7hPa | 2.7V | 07:51:11 | 01:54:45 | 00:00:00 | |
| DM0DOS-11 | 2026-09-04 08:27:37 | 52.57795 | 10.19372 | 79° | 89km/h | 2035m | -3.9m/s | 8.8°C | 0% | 795.9hPa | 2.7V | 07:51:16 | 01:54:40 | 00:00:00 | |
| DF7ER-10 | 2026-09-04 08:27:36 | 52.57817 | 10.19558 | 79° | 91km/h | 2016m | -3.6m/s | 0°C | 0% | 0hPa | 2.7V | 07:51:00 | 00:00:00 | 00:00:00 | |
| DL1XH1-15 | 2026-09-04 08:27:35 | 52.57808 | 10.19483 | 78° | 91km/h | 2023m | -4.1m/s | 9°C | 0% | 796.9hPa | 2.7V | 07:51:13 | 01:54:43 | 00:00:00 | |
| DL1XH1-15 | 2026-09-04 08:27:35 | 52.57787 | 10.19298 | 80° | 89km/h | 2042m | -3.9m/s | 8.8°C | 0% | 795.2hPa | 2.7V | 07:51:18 | 01:54:38 | 00:00:00 | |
| DF8AY | 2026-09-04 08:27:31 | 52.57790 | 10.19335 | 80° | 89km/h | 2039m | -3.6m/s | 8.8°C | 100% | 795.5hPa | 2.7V | 07:52:02 | 01:54:39 | 00:00:00 | |
| SMARD9-10 | 2026-09-04 08:27:29 | 52.57786 | 10.19298 | 81° | 89km/h | 2042m | -3.9m/s | 8.8°C | 0% | 795.2hPa | 2.7V | 00:00:00 | 00:00:00 | 00:00:00 | |
| DM0DOS-11 | 2026-09-04 08:27:27 | 52.57776 | 10.19186 | 81° | 91km/h | 2054m | -3.5m/s | 8.8°C | 0% | 794hPa | 2.7V | 07:51:21 | 01:54:35 | 00:00:00 | |
| DL1XH-west | 2026-09-04 08:27:27 | 52.57776 | 10.19186 | 82° | 91km/h | 2054m | -3.5m/s | 8.8°C | 100% | 794hPa | 2.7V | 07:52:02 | 01:54:35 | 00:00:00 | |
| DB0DAN | 2026-09-04 08:27:25 | 52.57770 | 10.19111 | 82° | 86km/h | 2061m | -4.3m/s | 8.7°C | 100% | 793.31hPa | 2.7V | 00:00:00 | 00:00:00 | 00:00:00 | |
| DL1XH1-15 | 2026-09-04 08:27:25 | 52.57750 | 10.18923 | 80° | 93km/h | 2082m | -4.2m/s | 8.7°C | 0% | 791.3hPa | 2.7V | 07:51:28 | 01:54:28 | 00:00:00 | |
| DM0DOS-11 | 2026-09-04 08:27:22 | 52.57740 | 10.18809 | 82° | 91km/h | 2094m | -4m/s | 8.6°C | 0% | 790.2hPa | 2.7V | 07:51:31 | 01:54:25 | 00:00:00 | |
| DL1XH1-15 | 2026-09-04 08:27:20 | 52.57734 | 10.18735 | 81° | 89km/h | 2103m | -3.9m/s | 8.6°C | 0% | 789.3hPa | 2.7V | 07:51:33 | 01:54:23 | 00:00:00 | |
| DF8AY | 2026-09-04 08:27:20 | 52.57750 | 10.18923 | 81° | 93km/h | 2082m | -4.2m/s | 8.7°C | 100% | 791.3hPa | 2.7V | 07:52:02 | 01:54:28 | 00:00:00 | |
| DL1XH-west | 2026-09-04 08:27:17 | 52.57740 | 10.18809 | 82° | 91km/h | 2095m | -4m/s | 8.6°C | 100% | 790.2hPa | 2.7V | 07:52:02 | 01:54:25 | 00:00:00 | |
| DL1XH1-15 | 2026-09-04 08:27:15 | 52.57715 | 10.18546 | 81° | 95km/h | 2124m | -4m/s | 8.5°C | 0% | 787.3hPa | 2.6V | 07:51:38 | 01:54:18 | 00:00:00 | |
| DF8AY | 2026-09-04 08:27:14 | 52.57711 | 10.18506 | 82° | 97km/h | 2128m | -5.1m/s | 8.4°C | 100% | 787.1hPa | 2.7V | 07:52:02 | 01:54:17 | 00:00:00 | |
| DM0DOS-11 | 2026-09-04 08:27:12 | 52.57705 | 10.18427 | 83° | 95km/h | 2138m | -4.6m/s | 8.4°C | 0% | 786hPa | 2.7V | 07:51:41 | 01:54:15 | 00:00:00 | |
| DF8AY-15 | 2026-09-04 08:27:12 | 52.57723 | 10.18623 | 81° | 95km/h | 2115m | -4.5m/s | 8.5°C | 0% | 788.1hPa | 2.7V | 00:00:00 | 01:54:20 | 00:00:00 | |
| DB0DAN | 2026-09-04 08:27:10 | 52.57715 | 10.18546 | 81° | 91km/h | 2124m | -4m/s | 8.5°C | 99.9% | 787.29hPa | 2.6V | 00:00:00 | 00:00:00 | 00:00:00 | |
| BIOWL1-15 | 2026-09-04 08:27:07 | 52.57705 | 10.18427 | 83° | 95km/h | 2138m | -4.6m/s | 8.4°C | 100% | 786hPa | 2.7V | 07:52:02 | 01:54:15 | 00:00:00 | |
| DL1XH-15 | 2026-09-04 08:27:06 | 52.57685 | 10.18197 | 80° | 95km/h | 2165m | -4.9m/s | 8.3°C | 0% | 783.6hPa | 2.6V | 07:51:47 | 01:54:09 | 00:00:00 | |
| DL1XH-west | 2026-09-04 08:27:06 | 52.57702 | 10.18388 | 83° | 95km/h | 2142m | -4.6m/s | 8.4°C | 100% | 786hPa | 2.7V | 07:52:02 | 01:54:14 | 00:00:00 | |
| DL1XH1-15 | 2026-09-04 08:27:05 | 52.57699 | 10.18349 | 83° | 93km/h | 2147m | -4.7m/s | 8.3°C | 0% | 785.2hPa | 2.7V | 07:51:43 | 01:54:13 | 00:00:00 | |
| DL1XH-15 | 2026-09-04 08:27:01 | 52.57668 | 10.17999 | 83° | 97km/h | 2188m | -4.6m/s | 8.1°C | 0% | 781.2hPa | 2.7V | 07:51:52 | 01:54:04 | 00:00:00 | |
| DF8AY | 2026-09-04 08:26:58 | 52.57674 | 10.18079 | 82° | 97km/h | 2179m | -4.8m/s | 8.1°C | 100% | 782.3hPa | 2.7V | 07:52:02 | 01:54:06 | 00:00:00 | |
| DM0DOS-11 | 2026-09-04 08:26:57 | 52.57671 | 10.18039 | 83° | 97km/h | 2184m | -4.7m/s | 8.1°C | 0% | 781.8hPa | 2.7V | 07:51:51 | 01:54:05 | 00:00:00 | |
| BIOWL1-15 | 2026-09-04 08:26:56 | 52.57668 | 10.17999 | 83° | 97km/h | 2188m | -4.6m/s | 8.1°C | 100% | 781.3hPa | 2.7V | 07:52:02 | 01:54:04 | 00:00:00 | |
| DJ2DS-15 | 2026-09-04 08:26:56 | 52.57665 | 10.17959 | 82° | 97km/h | 2193m | -5.3m/s | 8.1°C | 100.0% | 780.9hPa | 2.7V | 00:00:00 | 00:00:00 | 00:00:00 | |
| DB0DAN | 2026-09-04 08:26:55 | 52.57665 | 10.17959 | 83° | 93km/h | 2194m | -5.3m/s | 8.1°C | 100% | 780.91hPa | 2.7V | 00:00:00 | 00:00:00 | 00:00:00 | |
| DL1XH1-15 | 2026-09-04 08:26:55 | 52.57665 | 10.17959 | 82° | 97km/h | 2193m | -5.2m/s | 8.1°C | 0% | 780.9hPa | 2.7V | 07:51:53 | 01:54:03 | 00:00:00 | |
| DL1XH1-15 | 2026-09-04 08:26:55 | 52.57650 | 10.17760 | 83° | 95km/h | 2219m | -5m/s | 8°C | 0% | 778.6hPa | 2.6V | 07:51:58 | 01:53:58 | 00:00:00 | |
| DL1XH-west | 2026-09-04 08:26:55 | 52.57665 | 10.17959 | 83° | 97km/h | 2194m | -5.3m/s | 8.1°C | 100% | 780.9hPa | 2.7V | 07:52:02 | 01:54:03 | 00:00:00 | |
| DL1XH-15 | 2026-09-04 08:26:52 | 52.57653 | 10.17800 | 82° | 97km/h | 2213m | -5.5m/s | 8°C | 0% | 779.1hPa | 2.7V | 07:51:57 | 01:53:59 | 00:00:00 | |
| DM0DOS-11 | 2026-09-04 08:26:52 | 52.57639 | 10.17604 | 83° | 95km/h | 2241m | -6.9m/s | 7.8°C | 0% | 776.5hPa | 2.7V | 07:52:02 | 01:53:54 | 00:00:00 | |
| DF8AY | 2026-09-04 08:26:48 | 52.57645 | 10.17682 | 84° | 95km/h | 2229m | -4.7m/s | 7.9°C | 100% | 777.7hPa | 2.7V | 07:52:02 | 01:53:56 | 00:00:00 | |
| BIOWL1-15 | 2026-09-04 08:26:46 | 52.57639 | 10.17604 | 84° | 95km/h | 2241m | -6.9m/s | 7.8°C | 100% | 776.5hPa | 2.7V | 07:52:02 | 01:53:54 | 00:00:00 | |
| DL1XH1-15 | 2026-09-04 08:26:45 | 52.57637 | 10.17564 | 84° | 95km/h | 2248m | -6.3m/s | 7.8°C | 0% | 776hPa | 2.7V | 07:52:03 | 01:53:53 | 00:00:00 | |
| DL1XH1-15 | 2026-09-04 08:26:45 | 52.57624 | 10.17365 | 82° | 99km/h | 2279m | -6.5m/s | 7.6°C | 0% | 773hPa | 2.7V | 07:52:08 | 01:53:48 | 00:00:00 | |
| DL1XH-west | 2026-09-04 08:26:44 | 52.57634 | 10.17525 | 85° | 95km/h | 2255m | -7m/s | 7.7°C | 100% | 775.3hPa | 2.7V | 07:52:53 | 01:53:52 | 00:00:00 | |
| DM0DOS-11 | 2026-09-04 08:26:41 | 52.57627 | 10.17405 | 83° | 99km/h | 2273m | -6.2m/s | 7.6°C | 0% | 773.6hPa | 2.7V | 07:52:07 | 01:53:49 | 00:00:00 | |
| DB0DAN | 2026-09-04 08:26:40 | 52.57624 | 10.17365 | 83° | 93km/h | 2279m | -6.5m/s | 7.6°C | 100% | 772.98hPa | 2.7V | 00:00:00 | 00:00:00 | 00:00:00 | |
| DL1XH1-15 | 2026-09-04 08:26:40 | 52.57609 | 10.17163 | 83° | 99km/h | 2310m | -5.9m/s | 7.4°C | 0% | 769.9hPa | 2.7V | 07:52:13 | 01:53:43 | 00:00:00 | |
| DF8AY | 2026-09-04 08:26:38 | 52.57618 | 10.17283 | 83° | 99km/h | 2292m | -5.5m/s | 7.5°C | 100% | 771.6hPa | 2.7V | 07:52:53 | 01:53:46 | 00:00:00 | |
| DL4XJ-10 | 2026-09-04 08:26:38 | 52.57618 | 10.17283 | 84° | 95km/h | 2291m | -5.5m/s | 6.8°C | 0% | 0hPa | 2.7V | 00:00:00 | 00:00:00 | 00:00:00 | |
| DL1XH-15 | 2026-09-04 08:26:36 | 52.57612 | 10.17203 | 83° | 97km/h | 2303m | -7m/s | 7.5°C | 0% | 770.7hPa | 2.7V | 07:52:12 | 01:53:44 | 00:00:00 | |
| BIOWL1-15 | 2026-09-04 08:26:36 | 52.57612 | 10.17203 | 83° | 97km/h | 2303m | -7m/s | 7.5°C | 100% | 770.7hPa | 2.7V | 07:52:53 | 01:53:44 | 00:00:00 | |
| DL1XH1-15 | 2026-09-04 08:26:35 | 52.57596 | 10.16962 | 83° | 95km/h | 2336m | -4.2m/s | 7.2°C | 0% | 767.6hPa | 2.7V | 07:52:18 | 01:53:38 | 00:00:00 | |
| DL1XH-west | 2026-09-04 08:26:33 | 52.57604 | 10.17082 | 84° | 99km/h | 2321m | -5.2m/s | 7.2°C | 100% | 769hPa | 2.6V | 07:52:53 | 01:53:41 | 00:00:00 | |
| DF8AY-15 | 2026-09-04 08:26:32 | 52.57601 | 10.17042 | 84° | 95km/h | 2326m | -5.1m/s | 7.1°C | 0% | 768.3hPa | 2.7V | 07:52:00 | 01:53:40 | 00:00:00 | |
| DM0DOS-11 | 2026-09-04 08:26:31 | 52.57587 | 10.16806 | 84° | 95km/h | 2352m | -4.1m/s | 7.1°C | 0% | 766hPa | 2.7V | 07:52:22 | 01:53:34 | 00:00:00 | |
| DL1XH1-15 | 2026-09-04 08:26:30 | 52.57585 | 10.16767 | 85° | 93km/h | 2356m | -3.8m/s | 7°C | 0% | 765.5hPa | 2.7V | 07:52:23 | 01:53:33 | 00:00:00 | |
| DF8AY | 2026-09-04 08:26:28 | 52.57589 | 10.16845 | 85° | 93km/h | 2348m | -4.1m/s | 7.2°C | 100% | 766.3hPa | 2.7V | 07:52:53 | 01:53:35 | 00:00:00 | |
| BIOWL1-15 | 2026-09-04 08:26:26 | 52.57587 | 10.16806 | 85° | 95km/h | 2352m | -4.1m/s | 7.1°C | 100% | 766hPa | 2.7V | 07:52:53 | 01:53:34 | 00:00:00 | |
| DB0DAN | 2026-09-04 08:26:25 | 52.57585 | 10.16767 | 85° | 89km/h | 2356m | -3.8m/s | 7°C | 99.5% | 765.5hPa | 2.7V | 00:00:00 | 00:00:00 | 00:00:00 | |
| DL1XH-west | 2026-09-04 08:26:22 | 52.57579 | 10.16651 | 85° | 95km/h | 2368m | -4.6m/s | 7.1°C | 100% | 764.5hPa | 2.7V | 07:52:53 | 01:53:30 | 00:00:00 | |
| DM0DOS-11 | 2026-09-04 08:26:21 | 52.57566 | 10.16412 | 85° | 97km/h | 2393m | -4.5m/s | 6.8°C | 0% | 762.1hPa | 2.7V | 07:52:32 | 01:53:24 | 00:00:00 | |
| DL1XH1-15 | 2026-09-04 08:26:20 | 52.57575 | 10.16572 | 84° | 95km/h | 2377m | -4.4m/s | 7°C | 0% | 763.6hPa | 2.7V | 07:52:28 | 01:53:28 | 00:00:00 | |
| DL1XH1-15 | 2026-09-04 08:26:20 | 52.57565 | 10.16372 | 85° | 97km/h | 2398m | -4.7m/s | 6.7°C | 0% | 761.6hPa | 2.7V | 07:52:33 | 01:53:23 | 00:00:00 | |
| BIOWL1-15 | 2026-09-04 08:26:17 | 52.57565 | 10.16372 | 85° | 97km/h | 2398m | -4.7m/s | 6.7°C | 100% | 761.6hPa | 2.7V | 07:52:53 | 01:53:23 | 00:00:00 | |
| DF8AY | 2026-09-04 08:26:16 | 52.57567 | 10.16412 | 85° | 97km/h | 2393m | -4.6m/s | 6.8°C | 100% | 762.1hPa | 2.7V | 07:52:53 | 01:53:24 | 00:00:00 | |
| DL1XH-west | 2026-09-04 08:26:12 | 52.57559 | 10.16251 | 86° | 97km/h | 2412m | -5.2m/s | 6.7°C | 100% | 760.2hPa | 2.7V | 07:52:53 | 01:53:20 | 00:00:00 | |
| DF8AY-15 | 2026-09-04 08:26:12 | 52.57559 | 10.16251 | 86° | 95km/h | 2412m | -5.2m/s | 6.6°C | 0% | 760.2hPa | 2.7V | 00:00:00 | 01:53:20 | 00:00:00 | |
| DM0DOS-11 | 2026-09-04 08:26:11 | 52.57550 | 10.16014 | 84° | 95km/h | 2437m | -4.1m/s | 6.5°C | 0% | 757.9hPa | 2.7V | 07:52:42 | 01:53:14 | 00:00:00 | |
| DB0DAN | 2026-09-04 08:26:10 | 52.57556 | 10.16171 | 87° | 91km/h | 2420m | -4.1m/s | 6.7°C | 100% | 759.62hPa | 2.7V | 00:00:00 | 00:00:00 | 00:00:00 | |
| DL1XH1-15 | 2026-09-04 08:26:10 | 52.57556 | 10.16171 | 86° | 97km/h | 2420m | -4.1m/s | 6.7°C | 0% | 759.6hPa | 2.7V | 07:52:38 | 01:53:18 | 00:00:00 | |
| DL1XH1-15 | 2026-09-04 08:26:10 | 52.57547 | 10.15974 | 84° | 95km/h | 2441m | -4.1m/s | 6.5°C | 0% | 757.5hPa | 2.7V | 07:52:43 | 01:53:13 | 00:00:00 | |
| DF8AY | 2026-09-04 08:26:06 | 52.57550 | 10.16014 | 85° | 95km/h | 2437m | -4.1m/s | 6.5°C | 100% | 757.9hPa | 2.7V | 07:52:53 | 01:53:14 | 00:00:00 | |
| BIOWL1-15 | 2026-09-04 08:26:05 | 52.57547 | 10.15974 | 84° | 95km/h | 2441m | -4.1m/s | 6.5°C | 100% | 757.5hPa | 2.7V | 07:52:53 | 01:53:13 | 00:00:00 | |
| DL1XH1-15 | 2026-09-04 08:26:05 | 52.57534 | 10.15779 | 83° | 93km/h | 2465m | -4.4m/s | 6.3°C | 0% | 755.4hPa | 2.7V | 07:52:48 | 01:53:08 | 00:00:00 | |
| DL1XH-west | 2026-09-04 08:26:02 | 52.57540 | 10.15857 | 84° | 95km/h | 2456m | -4.7m/s | 6.4°C | 100% | 756.2hPa | 2.7V | 07:52:53 | 01:53:10 | 00:00:00 | |
| DL1XH1-15 | 2026-09-04 08:26:00 | 52.57523 | 10.15585 | 84° | 95km/h | 2484m | -4m/s | 6.2°C | 0% | 753.5hPa | 2.7V | 07:52:53 | 01:53:03 | 00:00:00 | |
| DL4XJ-10 | 2026-09-04 08:25:58 | 52.57530 | 10.15702 | 85° | 95km/h | 2472m | -2.8m/s | 5.6°C | 0% | 0hPa | 2.7V | 00:00:00 | 00:00:00 | 00:00:00 | |
| DM0DOS-11 | 2026-09-04 08:25:56 | 52.57525 | 10.15625 | 84° | 95km/h | 2480m | -4.7m/s | 6.3°C | 0% | 753.9hPa | 2.7V | 07:52:52 | 01:53:04 | 00:00:00 | |
| DB0DAN | 2026-09-04 08:25:55 | 52.57523 | 10.15585 | 85° | 89km/h | 2484m | -4m/s | 6.2°C | 100% | 753.5hPa | 2.7V | 00:00:00 | 00:00:00 | 00:00:00 | |
| DF8AY | 2026-09-04 08:25:55 | 52.57523 | 10.15585 | 85° | 95km/h | 2484m | -4m/s | 6.2°C | 100% | 753.5hPa | 2.7V | 07:52:53 | 01:53:03 | 00:00:00 | |
| DL1XH-west | 2026-09-04 08:25:52 | 52.57517 | 10.15467 | 85° | 97km/h | 2497m | -4.2m/s | 6.2°C | 100% | 752.3hPa | 2.7V | 07:53:44 | 01:53:00 | 00:00:00 | |
| DF8AY-15 | 2026-09-04 08:25:52 | 52.57517 | 10.15467 | 86° | 97km/h | 2497m | -4.1m/s | 6.1°C | 0% | 752.2hPa | 2.7V | 00:00:00 | 01:53:00 | 00:00:00 | |
| DM0DOS-11 | 2026-09-04 08:25:46 | 52.57489 | 10.15035 | 83° | 95km/h | 2549m | -4.1m/s | 5.9°C | 0% | 747.6hPa | 2.7V | 07:53:07 | 01:52:49 | 00:00:00 | |
| DF8AY | 2026-09-04 08:25:45 | 52.57500 | 10.15191 | 83° | 93km/h | 2533m | -4m/s | 6°C | 100% | 749.1hPa | 2.7V | 07:53:44 | 01:52:53 | 00:00:00 | |
| DL1XH1-15 | 2026-09-04 08:25:45 | 52.57500 | 10.15191 | 83° | 93km/h | 2533m | -4m/s | 6°C | 0% | 749.1hPa | 2.7V | 07:53:03 | 01:52:53 | 00:00:00 | |
| DL1XH-west | 2026-09-04 08:25:41 | 52.57489 | 10.15035 | 84° | 95km/h | 2549m | -4.1m/s | 5.9°C | 100% | 747.6hPa | 2.7V | 07:53:44 | 01:52:49 | 00:00:00 | |
| DB0DAN | 2026-09-04 08:25:40 | 52.57486 | 10.14995 | 85° | 93km/h | 2553m | -4.1m/s | 5.9°C | 100% | 747.3hPa | 2.7V | 00:00:00 | 00:00:00 | 00:00:00 | |
| DF8AY | 2026-09-04 08:25:36 | 52.57477 | 10.14790 | 87° | 100km/h | 2574m | -5.2m/s | 5.8°C | 100% | 745.3hPa | 2.7V | 07:53:44 | 01:52:43 | 00:00:00 | |
| DL1XH1-15 | 2026-09-04 08:25:35 | 52.57477 | 10.14790 | 86° | 100km/h | 2574m | -5.2m/s | 5.8°C | 0% | 745.3hPa | 2.7V | 07:53:13 | 01:52:43 | 00:00:00 | |
| DL1XH1-15 | 2026-09-04 08:25:35 | 52.57470 | 10.14582 | 87° | 100km/h | 2602m | -5.1m/s | 5.6°C | 0% | 742.9hPa | 2.7V | 07:53:18 | 01:52:38 | 00:00:00 | |
| BIOWL1-15 | 2026-09-04 08:25:34 | 52.57475 | 10.14749 | 87° | 100km/h | 2580m | -5.6m/s | 5.8°C | 100% | 744.9hPa | 2.7V | 07:53:44 | 01:52:42 | 00:00:00 | |
| DD8BA-10 | 2026-09-04 08:25:34 | 52.57475 | 10.14749 | 87° | 102km/h | 2580m | -5.5m/s | 5.7°C | 0% | 744.9hPa | 2.7V | 00:00:00 | 00:00:00 | 00:00:00 | |
| BIOWL7-15 | 2026-09-04 08:25:33 | 52.57475 | 10.14749 | 88° | 100km/h | 2580m | -5.6m/s | 5.8°C | 0% | 744.9hPa | 2.7V | 07:53:00 | 00:00:00 | 00:00:00 | |
| DL1XH-15 | 2026-09-04 08:25:31 | 52.57471 | 10.14624 | 87° | 100km/h | 2597m | -5.4m/s | 5.7°C | 0% | 743.4hPa | 2.7V | 07:53:17 | 01:52:39 | 00:00:00 | |
| DM0DOS-11 | 2026-09-04 08:25:31 | 52.57466 | 10.14412 | 88° | 102km/h | 2624m | -5.7m/s | 5.5°C | 0% | 741hPa | 2.7V | 07:53:22 | 01:52:34 | 00:00:00 | |
| AA1-15 | 2026-09-04 08:25:31 | 52.57471 | 10.14624 | 88° | 100km/h | 2597m | -5.4m/s | 5.7°C | 100% | 743.4hPa | 2.7V | 07:53:44 | 01:52:39 | 00:00:00 | |
| DL1XH-west | 2026-09-04 08:25:30 | 52.57470 | 10.14582 | 87° | 100km/h | 2602m | -5.1m/s | 5.6°C | 100% | 742.9hPa | 2.7V | 07:53:44 | 01:52:38 | 00:00:00 | |
| DB0DAN | 2026-09-04 08:25:25 | 52.57465 | 10.14369 | 88° | 99km/h | 2630m | -6.5m/s | 5.5°C | 100% | 740.51hPa | 2.7V | 00:00:00 | 00:00:00 | 00:00:00 | |
| DF8AY | 2026-09-04 08:25:24 | 52.57464 | 10.14326 | 88° | 104km/h | 2636m | -5.5m/s | 5.4°C | 100% | 740hPa | 2.6V | 07:53:44 | 01:52:32 | 00:00:00 | |
| SONCRA | 2026-09-04 08:25:24 | 52.57464 | 10.14282 | 88° | 104km/h | 2641m | -6.4m/s | 5.3°C | 97.6% | 739.4hPa | 2.7V | 00:00:00 | 00:00:00 | 00:00:00 | |
| DL1XH1-15 | 2026-09-04 08:25:20 | 52.57463 | 10.14152 | 90° | 104km/h | 2658m | -5.6m/s | 5.2°C | 0% | 737.9hPa | 2.7V | 07:53:28 | 01:52:28 | 00:00:00 | |
| DL1XH1-15 | 2026-09-04 08:25:20 | 52.57466 | 10.13932 | 90° | 108km/h | 2686m | -5.6m/s | 5.1°C | 0% | 735.5hPa | 2.6V | 07:53:33 | 01:52:23 | 00:00:00 | |
| DL1XH-west | 2026-09-04 08:25:20 | 52.57463 | 10.14152 | 91° | 104km/h | 2658m | -5.6m/s | 5.2°C | 97.6% | 737.9hPa | 2.7V | 07:53:44 | 01:52:28 | 00:00:00 | |
| DL4XJ-10 | 2026-09-04 08:25:18 | 52.57464 | 10.14065 | 92° | 110km/h | 2670m | -5.4m/s | 4.5°C | 0% | 0hPa | 2.7V | 00:00:00 | 00:00:00 | 00:00:00 | |
| DM0DOS-11 | 2026-09-04 08:25:16 | 52.57465 | 10.13976 | 91° | 108km/h | 2680m | -5.2m/s | 5.2°C | 0% | 736.1hPa | 2.7V | 07:53:32 | 01:52:24 | 00:00:00 | |
| DL1XH1-15 | 2026-09-04 08:25:15 | 52.57470 | 10.13708 | 94° | 110km/h | 2710m | -4.6m/s | 5.2°C | 0% | 733.3hPa | 2.7V | 07:53:38 | 01:52:18 | 00:00:00 | |
| DF8AY | 2026-09-04 08:25:13 | 52.57466 | 10.13843 | 91° | 106km/h | 2695m | -4.4m/s | 5°C | 99% | 734.6hPa | 2.7V | 07:53:44 | 01:52:21 | 00:00:00 | |
| DF8AY-15 | 2026-09-04 08:25:12 | 52.57467 | 10.13798 | 93° | 111km/h | 2700m | -4.9m/s | 5.0°C | 0% | 734.1hPa | 2.7V | 00:00:00 | 01:52:20 | 00:00:00 | |
| DM0DOS-11 | 2026-09-04 08:25:11 | 52.57479 | 10.13524 | 94° | 111km/h | 2730m | -3.9m/s | 6°C | 83.7% | 731.5hPa | 2.6V | 07:53:42 | 01:52:14 | 00:00:00 | |
| DB0DAN | 2026-09-04 08:25:10 | 52.57470 | 10.13708 | 94° | 104km/h | 2710m | -4.6m/s | 5.2°C | 97.7% | 733.26hPa | 2.7V | 00:00:00 | 00:00:00 | 00:00:00 | |
| DL1XH-west | 2026-09-04 08:25:09 | 52.57473 | 10.13662 | 94° | 110km/h | 2715m | -5.7m/s | 5.8°C | 91.7% | 733hPa | 2.7V | 07:53:44 | 01:52:17 | 00:00:00 | |
| DJ2DS-15 | 2026-09-04 08:25:08 | 52.57477 | 10.13570 | 94° | 111km/h | 2725m | -5.0m/s | 6.1°C | 79.8% | 732.0hPa | 2.6V | 00:00:00 | 00:00:00 | 00:00:00 | |
| DL1XH1-15 | 2026-09-04 08:25:05 | 52.57481 | 10.13477 | 93° | 113km/h | 2734m | -4.1m/s | 5.9°C | 85.2% | 731hPa | 2.6V | 07:53:43 | 01:52:13 | 00:00:00 | |
| AA1-15 | 2026-09-04 08:25:05 | 52.57481 | 10.13477 | 94° | 113km/h | 2734m | -4.1m/s | 5.9°C | 85% | 731hPa | 2.6V | 07:53:44 | 01:52:13 | 00:00:00 | |
| BIOWL1-15 | 2026-09-04 08:25:04 | 52.57486 | 10.13337 | 93° | 113km/h | 2748m | -4.2m/s | 6.6°C | 82.1% | 729.8hPa | 2.7V | 07:54:35 | 01:52:10 | 00:00:00 | |
| DF8AY | 2026-09-04 08:25:03 | 52.57484 | 10.13384 | 93° | 113km/h | 2744m | -4.5m/s | 6.6°C | 81.9% | 730.2hPa | 2.7V | 07:54:35 | 01:52:11 | 00:00:00 | |
| DL1XH-15 | 2026-09-04 08:25:01 | 52.57487 | 10.13291 | 93° | 111km/h | 2752m | -4.9m/s | 6.6°C | 81.2% | 729.5hPa | 2.7V | 07:53:47 | 01:52:09 | 00:00:00 | |
| DL1XH-west | 2026-09-04 08:24:58 | 52.57492 | 10.13153 | 93° | 111km/h | 2768m | -5.5m/s | 6.7°C | 80.9% | 728.3hPa | 2.7V | 07:54:35 | 01:52:06 | 00:00:00 | |
| DL4XJ-10 | 2026-09-04 08:24:58 | 52.57492 | 10.13153 | 94° | 111km/h | 2767m | -5.4m/s | 6.0°C | 0% | 0hPa | 2.7V | 00:00:00 | 00:00:00 | 00:00:00 | |
| DM0DOS-11 | 2026-09-04 08:24:56 | 52.57509 | 10.12831 | 95° | 110km/h | 2810m | -6.1m/s | 6.7°C | 84.6% | 724.5hPa | 2.7V | 07:53:57 | 01:51:59 | 00:00:00 | |
| DB0DAN | 2026-09-04 08:24:55 | 52.57498 | 10.13015 | 95° | 106km/h | 2784m | -5.8m/s | 6.8°C | 77.3% | 726.56hPa | 2.7V | 00:00:00 | 00:00:00 | 00:00:00 | |
| DL1XH1-15 | 2026-09-04 08:24:55 | 52.57498 | 10.13015 | 94° | 111km/h | 2784m | -5.8m/s | 6.8°C | 79.1% | 726.6hPa | 2.7V | 07:53:53 | 01:52:03 | 00:00:00 | |
| DL1XH1-15 | 2026-09-04 08:24:55 | 52.57511 | 10.12786 | 95° | 110km/h | 2816m | -5.5m/s | 6.6°C | 85.1% | 723.8hPa | 2.7V | 07:53:58 | 01:51:58 | 00:00:00 | |
| AA1-15 | 2026-09-04 08:24:55 | 52.57498 | 10.13015 | 95° | 111km/h | 2784m | -5.8m/s | 6.8°C | 82.4% | 726.6hPa | 2.7V | 07:54:35 | 01:52:03 | 00:00:00 | |
| DF8AY | 2026-09-04 08:24:52 | 52.57506 | 10.12877 | 96° | 110km/h | 2804m | -6.5m/s | 6.7°C | 86.1% | 724.9hPa | 2.7V | 07:54:35 | 01:52:00 | 00:00:00 | |
| BIOWL1-15 | 2026-09-04 08:24:51 | 52.57509 | 10.12831 | 96° | 110km/h | 2810m | -6.1m/s | 6.7°C | 87.4% | 724.5hPa | 2.7V | 07:54:35 | 01:51:59 | 00:00:00 | |
| DL1XH-west | 2026-09-04 08:24:47 | 52.57519 | 10.12649 | 96° | 113km/h | 2833m | -6m/s | 6.5°C | 89.2% | 722.5hPa | 2.6V | 07:54:35 | 01:51:55 | 00:00:00 | |
| DL1XH-15 | 2026-09-04 08:24:46 | 52.57522 | 10.12603 | 95° | 111km/h | 2840m | -7.6m/s | 6.4°C | 85.2% | 721.9hPa | 2.7V | 07:54:02 | 01:51:54 | 00:00:00 | |
| DJ2DS-15 | 2026-09-04 08:24:46 | 52.57522 | 10.12603 | 96° | 113km/h | 2840m | -7.6m/s | 6.4°C | 85.2% | 721.8hPa | 2.7V | 00:00:00 | 01:51:54 | 00:00:00 | |
| DL1XH1-15 | 2026-09-04 08:24:45 | 52.57539 | 10.12321 | 96° | 113km/h | 2881m | -5.1m/s | 6.2°C | 86.4% | 718.1hPa | 2.7V | 07:54:08 | 01:51:48 | 00:00:00 | |
| AA1-15 | 2026-09-04 08:24:44 | 52.57528 | 10.12509 | 96° | 113km/h | 2856m | -8m/s | 6.3°C | 89.4% | 720.4hPa | 2.7V | 07:54:35 | 01:51:52 | 00:00:00 | |
| DF8AY | 2026-09-04 08:24:42 | 52.57533 | 10.12415 | 96° | 113km/h | 2870m | -6.7m/s | 6.3°C | 89.2% | 719.4hPa | 2.7V | 07:54:35 | 01:51:50 | 00:00:00 | |
| DB0DAN | 2026-09-04 08:24:40 | 52.57539 | 10.12321 | 96° | 108km/h | 2881m | -5.1m/s | 6.2°C | 84.4% | 718.14hPa | 2.7V | 00:00:00 | 00:00:00 | 00:00:00 | |
| DL1XH1-15 | 2026-09-04 08:24:40 | 52.57555 | 10.12090 | 96° | 111km/h | 2909m | -6.3m/s | 6°C | 85.8% | 715.8hPa | 2.7V | 07:54:13 | 01:51:43 | 00:00:00 | |
| BIOWL1-15 | 2026-09-04 08:24:40 | 52.57539 | 10.12321 | 96° | 113km/h | 2881m | -5.1m/s | 6.2°C | 89.3% | 718.1hPa | 2.7V | 07:54:35 | 01:51:48 | 00:00:00 | |
| DL4XJ-10 | 2026-09-04 08:24:38 | 52.57545 | 10.12228 | 97° | 113km/h | 2893m | -5.8m/s | 5.4°C | 0% | 0hPa | 2.7V | 00:00:00 | 00:00:00 | 00:00:00 | |
| DL1XH-15 | 2026-09-04 08:24:36 | 52.57552 | 10.12136 | 96° | 111km/h | 2904m | -5m/s | 6°C | 86.4% | 716.2hPa | 2.7V | 07:54:12 | 01:51:44 | 00:00:00 | |
| DL1XH-west | 2026-09-04 08:24:36 | 52.57552 | 10.12136 | 97° | 111km/h | 2904m | -5.1m/s | 6°C | 89.9% | 716.2hPa | 2.7V | 07:54:35 | 01:51:44 | 00:00:00 | |
| AA1-15 | 2026-09-04 08:24:33 | 52.57561 | 10.11999 | 96° | 111km/h | 2922m | -6.1m/s | 5.9°C | 90% | 714.7hPa | 2.6V | 07:54:35 | 01:51:41 | 00:00:00 | |
| BIOWL1-15 | 2026-09-04 08:24:33 | 52.57573 | 10.11812 | 96° | 115km/h | 2947m | -7.5m/s | 5.7°C | 91.2% | 712.5hPa | 2.7V | 07:54:35 | 01:51:37 | 00:00:00 | |
| DL8OAI-8 | 2026-09-04 08:24:32 | 52.57561 | 10.11999 | 97° | 111km/h | 2922m | -6.1m/s | 5.9°C | 83.6% | 714.7hPa | 2.7V | 07:54:00 | 00:00:00 | 00:00:00 | |
| DM0DOS-11 | 2026-09-04 08:24:31 | 52.57567 | 10.11906 | 95° | 113km/h | 2934m | -5.7m/s | 5.8°C | 87.7% | 713.6hPa | 2.7V | 07:54:17 | 01:51:39 | 00:00:00 | |
| DF8AY | 2026-09-04 08:24:31 | 52.57567 | 10.11906 | 96° | 113km/h | 2934m | -5.7m/s | 5.8°C | 91.8% | 713.6hPa | 2.7V | 07:54:35 | 01:51:39 | 00:00:00 | |
| DF7ER-10 | 2026-09-04 08:24:30 | 52.57567 | 10.11906 | 97° | 113km/h | 2934m | -5.7m/s | 0°C | 0% | 0hPa | 2.7V | 00:00:00 | 00:00:00 | 00:00:00 | |
| BIOWL7-15 | 2026-09-04 08:24:28 | 52.57573 | 10.11812 | 97° | 115km/h | 2947m | -7.5m/s | 5.7°C | 85.0% | 712.5hPa | 2.7V | 07:54:00 | 00:00:00 | 00:00:00 | |
| DM0DOS-11 | 2026-09-04 08:24:26 | 52.57596 | 10.11438 | 95° | 110km/h | 2994m | -5.1m/s | 5.3°C | 87.5% | 708.2hPa | 2.7V | 07:54:27 | 01:51:29 | 00:00:00 | |
| DB0DAN | 2026-09-04 08:24:25 | 52.57584 | 10.11623 | 96° | 108km/h | 2971m | -6.4m/s | 5.5°C | 86.6% | 710.42hPa | 2.6V | 00:00:00 | 00:00:00 | 00:00:00 | |
| DL1XH1-15 | 2026-09-04 08:24:25 | 52.57584 | 10.11623 | 95° | 113km/h | 2971m | -6.4m/s | 5.5°C | 88.8% | 710.4hPa | 2.6V | 07:54:23 | 01:51:33 | 00:00:00 | |
| DL1XH-west | 2026-09-04 08:24:25 | 52.57584 | 10.11623 | 96° | 113km/h | 2971m | -6.4m/s | 5.5°C | 92.1% | 710.4hPa | 2.6V | 07:54:35 | 01:51:33 | 00:00:00 | |
| AA1-15 | 2026-09-04 08:24:23 | 52.57590 | 10.11530 | 96° | 111km/h | 2983m | -6.2m/s | 5.4°C | 90.7% | 709.3hPa | 2.7V | 07:54:35 | 01:51:31 | 00:00:00 | |
| DF8AY | 2026-09-04 08:24:21 | 52.57596 | 10.11438 | 96° | 110km/h | 2994m | -5.1m/s | 5.3°C | 90.3% | 708.2hPa | 2.7V | 07:54:35 | 01:51:29 | 00:00:00 | |
| BIOWL1-15 | 2026-09-04 08:24:18 | 52.57604 | 10.11300 | 95° | 111km/h | 3012m | -5.8m/s | 5.3°C | 90% | 707hPa | 2.7V | 07:54:35 | 01:51:26 | 00:00:00 | |
| DL4XJ-10 | 2026-09-04 08:24:18 | 52.57604 | 10.11299 | 96° | 115km/h | 3012m | -5.8m/s | 4.6°C | 0% | 0hPa | 2.7V | 00:00:00 | 00:00:00 | 00:00:00 | |
| DM0DOS-11 | 2026-09-04 08:24:16 | 52.57624 | 10.10970 | 95° | 117km/h | 3051m | -5.8m/s | 4.9°C | 87.6% | 703.6hPa | 2.7V | 07:54:37 | 01:51:19 | 00:00:00 | |
| DL1XH1-15 | 2026-09-04 08:24:15 | 52.57613 | 10.11160 | 95° | 113km/h | 3028m | -5.2m/s | 5.1°C | 85.9% | 705.3hPa | 2.7V | 07:54:33 | 01:51:23 | 00:00:00 | |
| DL1XH1-15 | 2026-09-04 08:24:15 | 52.57627 | 10.10921 | 95° | 117km/h | 3057m | -6m/s | 4.9°C | 87.8% | 703hPa | 2.7V | 07:54:38 | 01:51:18 | 00:00:00 | |
| DL1XH-west | 2026-09-04 08:24:14 | 52.57616 | 10.11113 | 96° | 115km/h | 3034m | -5.5m/s | 5.1°C | 88.2% | 705.1hPa | 2.7V | 07:54:35 | 01:51:22 | 00:00:00 | |
| AA1-15 | 2026-09-04 08:24:12 | 52.57621 | 10.11018 | 96° | 115km/h | 3045m | -6.5m/s | 5°C | 90% | 704hPa | 2.7V | 07:55:26 | 01:51:20 | 00:00:00 | |
| DF8AY-15 | 2026-09-04 08:24:12 | 52.57621 | 10.11018 | 96° | 117km/h | 3045m | -6.5m/s | 4.9°C | 86.8% | 704.0hPa | 2.7V | 00:00:00 | 01:51:20 | 00:00:00 | |
| DL8OAI-8 | 2026-09-04 08:24:11 | 52.57621 | 10.11018 | 97° | 115km/h | 3045m | -6.5m/s | 5.0°C | 84.7% | 704.0hPa | 2.7V | 07:55:00 | 00:00:00 | 00:00:00 | |
| DB0DAN | 2026-09-04 08:24:10 | 52.57627 | 10.10921 | 95° | 111km/h | 3057m | -6m/s | 4.9°C | 85.6% | 703.03hPa | 2.7V | 00:00:00 | 00:00:00 | 00:00:00 | |
| DF8AY | 2026-09-04 08:24:10 | 52.57627 | 10.10921 | 95° | 117km/h | 3057m | -6m/s | 4.9°C | 90.6% | 703hPa | 2.7V | 07:55:26 | 01:51:18 | 00:00:00 | |
| BIOWL1-15 | 2026-09-04 08:24:08 | 52.57633 | 10.10824 | 96° | 117km/h | 3068m | -6.1m/s | 4.8°C | 91.5% | 702.1hPa | 2.6V | 07:55:26 | 01:51:16 | 00:00:00 | |
| BIOWL7-15 | 2026-09-04 08:24:07 | 52.57632 | 10.10824 | 97° | 117km/h | 3068m | -6.1m/s | 4.8°C | 86.6% | 702.1hPa | 2.6V | 07:55:00 | 00:00:00 | 00:00:00 | |
| DJ2DS-15 | 2026-09-04 08:24:06 | 52.57638 | 10.10727 | 96° | 115km/h | 3080m | -5.3m/s | 4.6°C | 92.0% | 701.0hPa | 2.6V | 00:00:00 | 01:51:14 | 00:00:00 | |
| DL1XH1-15 | 2026-09-04 08:24:05 | 52.57656 | 10.10446 | 94° | 113km/h | 3114m | -5.2m/s | 4.5°C | 91.1% | 698hPa | 2.6V | 07:54:48 | 01:51:08 | 00:00:00 | |
| DL1XH-west | 2026-09-04 08:24:04 | 52.57645 | 10.10633 | 96° | 113km/h | 3091m | -5.1m/s | 4.6°C | 94.3% | 700hPa | 2.7V | 07:55:26 | 01:51:12 | 00:00:00 | |
| DD8BA-10 | 2026-09-04 08:24:04 | 52.57645 | 10.10633 | 97° | 115km/h | 3091m | -5.0m/s | 4.5°C | 92.8% | 700.0hPa | 2.7V | 00:00:00 | 00:00:00 | 00:00:00 | |
| DM0DOS-11 | 2026-09-04 08:24:01 | 52.57653 | 10.10493 | 95° | 113km/h | 3108m | -6.3m/s | 4.5°C | 91.5% | 698.7hPa | 2.7V | 07:54:47 | 01:51:09 | 00:00:00 | |
| AA1-15 | 2026-09-04 08:24:01 | 52.57654 | 10.10493 | 95° | 113km/h | 3108m | -6.3m/s | 4.5°C | 93.2% | 698.7hPa | 2.7V | 07:55:26 | 01:51:09 | 00:00:00 | |
| DL1XH1-15 | 2026-09-04 08:24:00 | 52.57666 | 10.10205 | 93° | 119km/h | 3141m | -5.7m/s | 4.5°C | 84% | 695.9hPa | 2.7V | 07:54:53 | 01:51:03 | 00:00:00 | |
| DF8AY | 2026-09-04 08:24:00 | 52.57656 | 10.10446 | 95° | 113km/h | 3114m | -5.3m/s | 4.5°C | 92.5% | 698hPa | 2.6V | 07:55:26 | 01:51:08 | 00:00:00 | |
| BIOWL1-15 | 2026-09-04 08:23:59 | 52.57662 | 10.10303 | 93° | 117km/h | 3130m | -6.5m/s | 4.5°C | 89.2% | 696.8hPa | 2.7V | 07:55:26 | 01:51:05 | 00:00:00 | |
| DJ2DS-15 | 2026-09-04 08:23:56 | 52.57666 | 10.10205 | 93° | 119km/h | 3141m | -5.7m/s | 4.5°C | 82.0% | 695.9hPa | 2.7V | 00:00:00 | 00:00:00 | 00:00:00 | |
| DB0DAN | 2026-09-04 08:23:55 | 52.57666 | 10.10205 | 94° | 113km/h | 3141m | -5.7m/s | 4.5°C | 82% | 695.89hPa | 2.7V | 00:00:00 | 00:00:00 | 00:00:00 | |
| DL1XH1-15 | 2026-09-04 08:23:55 | 52.57680 | 10.09961 | 95° | 115km/h | 3167m | -4.6m/s | 4.3°C | 84.6% | 693.6hPa | 2.7V | 07:54:58 | 01:50:58 | 00:00:00 | |
| DL1XH-west | 2026-09-04 08:23:53 | 52.57671 | 10.10106 | 95° | 119km/h | 3151m | -5.2m/s | 4.4°C | 87.4% | 694.9hPa | 2.7V | 07:55:26 | 01:51:01 | 00:00:00 | |
| DM0DOS-11 | 2026-09-04 08:23:51 | 52.57677 | 10.10009 | 95° | 117km/h | 3162m | -5.1m/s | 4.4°C | 84.6% | 694hPa | 2.6V | 07:54:57 | 01:50:59 | 00:00:00 | |
| AA1-15 | 2026-09-04 08:23:50 | 52.57680 | 10.09961 | 96° | 115km/h | 3167m | -4.6m/s | 4.3°C | 88.5% | 693.6hPa | 2.7V | 07:55:26 | 01:50:58 | 00:00:00 | |
| DF8AY | 2026-09-04 08:23:49 | 52.57683 | 10.09914 | 95° | 113km/h | 3173m | -6.1m/s | 4.3°C | 89.4% | 693.3hPa | 2.7V | 07:55:26 | 01:50:57 | 00:00:00 | |
| BIOWL1-15 | 2026-09-04 08:23:47 | 52.57687 | 10.09819 | 94° | 115km/h | 3186m | -6.6m/s | 4.3°C | 89.3% | 692.1hPa | 2.7V | 07:55:26 | 01:50:55 | 00:00:00 | |
| DM0DOS-11 | 2026-09-04 08:23:46 | 52.57699 | 10.09528 | 94° | 119km/h | 3219m | -5.8m/s | 4°C | 86.7% | 689.2hPa | 2.7V | 07:55:07 | 01:50:49 | 00:00:00 | |
| DL1XH1-15 | 2026-09-04 08:23:45 | 52.57690 | 10.09724 | 93° | 117km/h | 3197m | -5.8m/s | 4.2°C | 85.7% | 691hPa | 2.7V | 07:55:03 | 01:50:53 | 00:00:00 | |
| DL1XH1-15 | 2026-09-04 08:23:45 | 52.57701 | 10.09479 | 94° | 117km/h | 3224m | -5m/s | 4°C | 87.7% | 688.7hPa | 2.7V | 07:55:08 | 01:50:48 | 00:00:00 | |
| DL1XH-west | 2026-09-04 08:23:43 | 52.57694 | 10.09626 | 94° | 119km/h | 3208m | -4.8m/s | 4.1°C | 89.6% | 690.1hPa | 2.6V | 07:55:26 | 01:50:51 | 00:00:00 | |
| DB0DAN | 2026-09-04 08:23:40 | 52.57701 | 10.09479 | 94° | 111km/h | 3224m | -5m/s | 4°C | 85.5% | 688.68hPa | 2.7V | 00:00:00 | 00:00:00 | 00:00:00 | |
| AA1-15 | 2026-09-04 08:23:40 | 52.57701 | 10.09479 | 94° | 117km/h | 3224m | -5m/s | 4°C | 90.6% | 688.7hPa | 2.7V | 07:55:26 | 01:50:48 | 00:00:00 | |
| BIOWL1-15 | 2026-09-04 08:23:39 | 52.57707 | 10.09334 | 93° | 117km/h | 3240m | -4.8m/s | 3.9°C | 89.8% | 687.5hPa | 2.7V | 07:55:26 | 01:50:45 | 00:00:00 | |
| DF8AY | 2026-09-04 08:23:38 | 52.57705 | 10.09382 | 93° | 117km/h | 3235m | -5.3m/s | 3.9°C | 90.2% | 687.8hPa | 2.7V | 07:55:26 | 01:50:46 | 00:00:00 | |
| DL4XJ-10 | 2026-09-04 08:23:38 | 52.57705 | 10.09382 | 93° | 117km/h | 3235m | -5.3m/s | 3.3°C | 0% | 0hPa | 2.6V | 00:00:00 | 00:00:00 | 00:00:00 | |
| DL1XH-15 | 2026-09-04 08:23:36 | 52.57708 | 10.09285 | 92° | 117km/h | 3245m | -5m/s | 3.8°C | 88.3% | 687hPa | 2.6V | 07:55:12 | 01:50:44 | 00:00:00 | |
| DM0DOS-11 | 2026-09-04 08:23:36 | 52.57717 | 10.09044 | 94° | 117km/h | 3270m | -4.7m/s | 3.6°C | 90.2% | 684.8hPa | 2.7V | 07:55:17 | 01:50:39 | 00:00:00 | |
| DL1XH1-15 | 2026-09-04 08:23:35 | 52.57719 | 10.08995 | 94° | 117km/h | 3275m | -5.1m/s | 3.6°C | 90.7% | 684.5hPa | 2.7V | 07:55:18 | 01:50:38 | 00:00:00 | |
| DL1XH-west | 2026-09-04 08:23:32 | 52.57715 | 10.09092 | 94° | 117km/h | 3265m | -5.1m/s | 3.7°C | 90.6% | 685.5hPa | 2.7V | 07:55:26 | 01:50:40 | 00:00:00 | |
| DF8AY-15 | 2026-09-04 08:23:32 | 52.57715 | 10.09092 | 95° | 117km/h | 3265m | -5.1m/s | 3.6°C | 89.7% | 685.4hPa | 2.7V | 00:00:00 | 01:50:40 | 00:00:00 | |
| DM0DOS-11 | 2026-09-04 08:23:31 | 52.57728 | 10.08800 | 94° | 117km/h | 3303m | -8.1m/s | 3.4°C | 91% | 682.3hPa | 2.7V | 07:55:22 | 01:50:34 | 00:00:00 | |
| AA1-15 | 2026-09-04 08:23:30 | 52.57719 | 10.08995 | 94° | 117km/h | 3275m | -5.1m/s | 3.6°C | 92.7% | 684.5hPa | 2.7V | 07:55:26 | 01:50:38 | 00:00:00 | |
| DF8AY | 2026-09-04 08:23:28 | 52.57724 | 10.08898 | 95° | 119km/h | 3287m | -6m/s | 3.5°C | 94.4% | 683.7hPa | 2.6V | 07:55:26 | 01:50:36 | 00:00:00 | |
| DM0DOS-11 | 2026-09-04 08:23:26 | 52.57739 | 10.08555 | 93° | 119km/h | 3330m | -5.3m/s | 3.2°C | 90.1% | 679.8hPa | 2.7V | 07:55:27 | 01:50:29 | 00:00:00 | |
| BIOWL1-15 | 2026-09-04 08:23:26 | 52.57728 | 10.08800 | 94° | 117km/h | 3303m | -8.1m/s | 3.4°C | 92.6% | 682.3hPa | 2.7V | 07:55:26 | 01:50:34 | 00:00:00 | |
| DB0DAN | 2026-09-04 08:23:25 | 52.57731 | 10.08752 | 94° | 113km/h | 3310m | -4.9m/s | 3.4°C | 87.7% | 681.46hPa | 2.7V | 00:00:00 | 00:00:00 | 00:00:00 | |
| DL1XH1-15 | 2026-09-04 08:23:25 | 52.57730 | 10.08751 | 94° | 119km/h | 3310m | -4.9m/s | 3.4°C | 90% | 681.5hPa | 2.7V | 07:55:23 | 01:50:33 | 00:00:00 | |
| DL1XH1-15 | 2026-09-04 08:23:25 | 52.57741 | 10.08506 | 93° | 119km/h | 3335m | -4.6m/s | 3.2°C | 89.8% | 679.3hPa | 2.6V | 07:55:28 | 01:50:28 | 00:00:00 | |
| DL1XH-west | 2026-09-04 08:23:21 | 52.57739 | 10.08555 | 94° | 119km/h | 3330m | -5.3m/s | 3.2°C | 91.8% | 679.8hPa | 2.7V | 07:56:17 | 01:50:29 | 00:00:00 | |
| DL1XH1-15 | 2026-09-04 08:23:20 | 52.57750 | 10.08264 | 92° | 117km/h | 3366m | -6.7m/s | 3.2°C | 83% | 676.7hPa | 2.7V | 07:55:33 | 01:50:23 | 00:00:00 | |
| AA1-15 | 2026-09-04 08:23:19 | 52.57743 | 10.08458 | 93° | 117km/h | 3340m | -5.8m/s | 3.2°C | 92.2% | 679hPa | 2.6V | 07:56:17 | 01:50:27 | 00:00:00 | |
| DF8AY | 2026-09-04 08:23:18 | 52.57745 | 10.08409 | 94° | 117km/h | 3347m | -7.2m/s | 3.3°C | 91.8% | 678.5hPa | 2.7V | 07:56:17 | 01:50:26 | 00:00:00 | |
| BIOWL1-15 | 2026-09-04 08:23:16 | 52.57748 | 10.08312 | 93° | 117km/h | 3360m | -6.3m/s | 3.2°C | 88.9% | 677.4hPa | 2.7V | 07:56:17 | 01:50:24 | 00:00:00 | |
| DL1XH1-15 | 2026-09-04 08:23:15 | 52.57758 | 10.08018 | 94° | 120km/h | 3395m | -6.2m/s | 3°C | 90.3% | 674.1hPa | 2.7V | 07:55:38 | 01:50:18 | 00:00:00 | |
| DL1XH-west | 2026-09-04 08:23:11 | 52.57756 | 10.08068 | 94° | 120km/h | 3388m | -5.9m/s | 3°C | 91.6% | 674.9hPa | 2.6V | 07:56:17 | 01:50:19 | 00:00:00 | |
| DB0DAN | 2026-09-04 08:23:10 | 52.57758 | 10.08018 | 95° | 115km/h | 3395m | -6.2m/s | 3°C | 88% | 674.14hPa | 2.7V | 00:00:00 | 00:00:00 | 00:00:00 | |
| AA1-15 | 2026-09-04 08:23:08 | 52.57764 | 10.07918 | 96° | 120km/h | 3404m | -4.9m/s | 2.9°C | 89.1% | 673.6hPa | 2.7V | 07:56:17 | 01:50:16 | 00:00:00 | |
| DF8AY | 2026-09-04 08:23:07 | 52.57767 | 10.07869 | 96° | 119km/h | 3409m | -4.9m/s | 2.9°C | 89.1% | 673.2hPa | 2.7V | 07:56:17 | 01:50:15 | 00:00:00 | |
| DL1XH-15 | 2026-09-04 08:23:06 | 52.57770 | 10.07819 | 96° | 119km/h | 3414m | -4.4m/s | 2.9°C | 86.9% | 672.7hPa | 2.7V | 07:55:42 | 01:50:14 | 00:00:00 | |
| BIOWL1-15 | 2026-09-04 08:23:06 | 52.57770 | 10.07820 | 96° | 119km/h | 3414m | -4.4m/s | 2.9°C | 88.1% | 672.7hPa | 2.7V | 07:56:17 | 01:50:14 | 00:00:00 | |
| DL1XH1-15 | 2026-09-04 08:23:05 | 52.57788 | 10.07525 | 95° | 120km/h | 3442m | -4.1m/s | 3°C | 69.7% | 670.3hPa | 2.7V | 07:55:48 | 01:50:08 | 00:00:00 | |
| DD8BA-10 | 2026-09-04 08:23:04 | 52.57776 | 10.07722 | 96° | 120km/h | 3423m | -5.0m/s | 2.8°C | 85.2% | 672.0hPa | 2.6V | 00:00:00 | 00:00:00 | 00:00:00 | |
| DM0DOS-11 | 2026-09-04 08:23:01 | 52.57803 | 10.07326 | 97° | 120km/h | 3461m | -5m/s | 2.9°C | 69.6% | 668.8hPa | 2.6V | 07:55:52 | 01:50:04 | 00:00:00 | |
| DL1XH-west | 2026-09-04 08:23:00 | 52.57788 | 10.07525 | 96° | 120km/h | 3442m | -4.1m/s | 3°C | 73.3% | 670.3hPa | 2.7V | 07:56:17 | 01:50:08 | 00:00:00 | |
| AA1-15 | 2026-09-04 08:22:58 | 52.57795 | 10.07425 | 97° | 120km/h | 3452m | -4.6m/s | 3°C | 72.7% | 669.7hPa | 2.7V | 07:56:17 | 01:50:06 | 00:00:00 | |
| BIOWL1-15 | 2026-09-04 08:22:57 | 52.57807 | 10.07277 | 97° | 120km/h | 3466m | -5.1m/s | 2.9°C | 73.3% | 668.5hPa | 2.6V | 07:56:17 | 01:50:03 | 00:00:00 | |
| DF8AY | 2026-09-04 08:22:56 | 52.57803 | 10.07326 | 98° | 120km/h | 3461m | -5m/s | 2.9°C | 73% | 668.8hPa | 2.6V | 07:56:17 | 01:50:04 | 00:00:00 | |
| DB0DAN | 2026-09-04 08:22:55 | 52.57807 | 10.07277 | 97° | 115km/h | 3466m | -5.1m/s | 2.9°C | 68.2% | 668.45hPa | 2.6V | 00:00:00 | 00:00:00 | 00:00:00 | |
| DL1XH1-15 | 2026-09-04 08:22:55 | 52.57824 | 10.07028 | 96° | 120km/h | 3491m | -6.1m/s | 2.8°C | 69.5% | 666.4hPa | 2.7V | 07:55:58 | 01:49:58 | 00:00:00 | |
| DL1XH-west | 2026-09-04 08:22:49 | 52.57827 | 10.06979 | 96° | 120km/h | 3497m | -6m/s | 2.8°C | 74.2% | 666hPa | 2.6V | 07:56:17 | 01:49:57 | 00:00:00 | |
| AA1-15 | 2026-09-04 08:22:47 | 52.57834 | 10.06880 | 97° | 119km/h | 3510m | -6m/s | 2.7°C | 72.7% | 665hPa | 2.7V | 07:56:17 | 01:49:55 | 00:00:00 | |
| BIOWL1-15 | 2026-09-04 08:22:47 | 52.57841 | 10.06782 | 97° | 119km/h | 3521m | -5.3m/s | 2.6°C | 72.7% | 664hPa | 2.7V | 07:56:17 | 01:49:53 | 00:00:00 | |
| DL1XH-15 | 2026-09-04 08:22:46 | 52.57838 | 10.06831 | 97° | 119km/h | 3515m | -5.8m/s | 2.7°C | 68.6% | 664.4hPa | 2.7V | 07:56:02 | 01:49:54 | 00:00:00 | |
| DF8AY | 2026-09-04 08:22:46 | 52.57838 | 10.06831 | 97° | 120km/h | 3516m | -5.8m/s | 2.7°C | 72.8% | 664.4hPa | 2.7V | 07:56:17 | 01:49:54 | 00:00:00 | |
| DJ2DS-15 | 2026-09-04 08:22:46 | 52.57838 | 10.06831 | 98° | 120km/h | 3516m | -5.8m/s | 2.6°C | 68.6% | 664.4hPa | 2.6V | 00:00:00 | 01:49:54 | 00:00:00 | |
| BIOWL7-15 | 2026-09-04 08:22:45 | 52.57838 | 10.06831 | 98° | 120km/h | 3516m | -5.8m/s | 2.7°C | 66.8% | 664.4hPa | 2.6V | 07:56:00 | 00:00:00 | 00:00:00 | |
| DD8BA-10 | 2026-09-04 08:22:44 | 52.57845 | 10.06732 | 97° | 120km/h | 3527m | -6.9m/s | 2.5°C | 69.2% | 663.6hPa | 2.6V | 00:00:00 | 00:00:00 | 00:00:00 | |
| DL1LOL-11 | 2026-09-04 08:22:43 | 52.57845 | 10.06732 | 98° | 120km/h | 3527m | -7.0m/s | 2.5°C | 67.4% | 663.6hPa | 2.6V | 07:56:00 | 00:00:00 | 00:00:00 | |
| DB0DAN | 2026-09-04 08:22:40 | 52.57859 | 10.06534 | 96° | 115km/h | 3552m | -6.5m/s | 2.4°C | 67.7% | 661.59hPa | 2.6V | 00:00:00 | 00:00:00 | 00:00:00 | |
| DL1XH1-15 | 2026-09-04 08:22:40 | 52.57859 | 10.06534 | 96° | 120km/h | 3552m | -6.5m/s | 2.4°C | 69.6% | 661.6hPa | 2.6V | 07:56:08 | 01:49:48 | 00:00:00 | |
| DL1XH1-15 | 2026-09-04 08:22:40 | 52.57875 | 10.06286 | 95° | 120km/h | 3582m | -5.4m/s | 2.2°C | 67.6% | 659.1hPa | 2.7V | 07:56:13 | 01:49:43 | 00:00:00 | |
| DL1XH-west | 2026-09-04 08:22:39 | 52.57862 | 10.06485 | 97° | 120km/h | 3558m | -6.4m/s | 2.3°C | 74.3% | 661.1hPa | 2.7V | 07:56:17 | 01:49:47 | 00:00:00 | |
| DL4XJ-10 | 2026-09-04 08:22:38 | 52.57866 | 10.06435 | 97° | 120km/h | 3566m | -6.7m/s | 1.6°C | 0% | 0hPa | 2.7V | 00:00:00 | 00:00:00 | 00:00:00 | |
| DL1XH-15 | 2026-09-04 08:22:36 | 52.57872 | 10.06336 | 95° | 120km/h | 3577m | -5.4m/s | 2.2°C | 67.7% | 659.4hPa | 2.7V | 07:56:12 | 01:49:44 | 00:00:00 | |
| DF8AY | 2026-09-04 08:22:36 | 52.57872 | 10.06336 | 96° | 120km/h | 3577m | -5.4m/s | 2.2°C | 71.7% | 659.4hPa | 2.7V | 07:56:17 | 01:49:44 | 00:00:00 | |
| BIOWL1-15 | 2026-09-04 08:22:35 | 52.57875 | 10.06286 | 95° | 120km/h | 3582m | -5.4m/s | 2.2°C | 71.6% | 659.1hPa | 2.7V | 07:56:17 | 01:49:43 | 00:00:00 | |
| AA1-15 | 2026-09-04 08:22:33 | 52.57881 | 10.06186 | 95° | 120km/h | 3592m | -5.4m/s | 2.1°C | 70.7% | 658.2hPa | 2.6V | 07:56:17 | 01:49:41 | 00:00:00 | |
| DL1XH-west | 2026-09-04 08:22:29 | 52.57891 | 10.05986 | 95° | 120km/h | 3612m | -5m/s | 2°C | 68% | 656.6hPa | 2.7V | 07:57:08 | 01:49:37 | 00:00:00 | |
| BIOWL1-15 | 2026-09-04 08:22:27 | 52.57902 | 10.05785 | 96° | 122km/h | 3632m | -4.2m/s | 1.8°C | 74.6% | 654.9hPa | 2.7V | 07:57:08 | 01:49:33 | 00:00:00 | |
| DL1XH-15 | 2026-09-04 08:22:26 | 52.57899 | 10.05835 | 95° | 122km/h | 3627m | -4.9m/s | 1.8°C | 68.7% | 655.5hPa | 2.6V | 07:56:22 | 01:49:34 | 00:00:00 | |
| DL1XH-15 | 2026-09-04 08:22:26 | 52.57912 | 10.05584 | 94° | 120km/h | 3650m | -5.2m/s | 1.9°C | 58.3% | 653.5hPa | 2.7V | 07:56:27 | 01:49:29 | 00:00:00 | |
| DF8AY | 2026-09-04 08:22:26 | 52.57899 | 10.05835 | 95° | 122km/h | 3627m | -4.9m/s | 1.8°C | 71.6% | 655.5hPa | 2.6V | 07:57:08 | 01:49:34 | 00:00:00 | |
| DB0DAN | 2026-09-04 08:22:25 | 52.57902 | 10.05785 | 96° | 117km/h | 3632m | -4.2m/s | 1.8°C | 70.1% | 654.93hPa | 2.7V | 00:00:00 | 00:00:00 | 00:00:00 | |
| DL1XH1-15 | 2026-09-04 08:22:25 | 52.57903 | 10.05785 | 95° | 122km/h | 3632m | -4.2m/s | 1.8°C | 72% | 654.9hPa | 2.7V | 07:56:23 | 01:49:33 | 00:00:00 | |
| AA1-15 | 2026-09-04 08:22:22 | 52.57910 | 10.05634 | 94° | 120km/h | 3645m | -5.1m/s | 1.9°C | 64% | 653.9hPa | 2.7V | 07:57:08 | 01:49:30 | 00:00:00 | |
| DM0DOS-11 | 2026-09-04 08:22:21 | 52.57922 | 10.05332 | 93° | 122km/h | 3676m | -4.9m/s | 1.8°C | 55.4% | 651.5hPa | 2.7V | 07:56:32 | 01:49:24 | 00:00:00 | |
| DF8AY | 2026-09-04 08:22:20 | 52.57924 | 10.05282 | 93° | 122km/h | 3680m | -5.4m/s | 1.8°C | 58.8% | 651hPa | 2.7V | 07:57:08 | 01:49:23 | 00:00:00 | |
| DL1XH-west | 2026-09-04 08:22:18 | 52.57918 | 10.05433 | 93° | 122km/h | 3665m | -4.7m/s | 1.8°C | 60% | 652.1hPa | 2.6V | 07:57:08 | 01:49:26 | 00:00:00 | |
| DL4XJ-10 | 2026-09-04 08:22:18 | 52.57918 | 10.05433 | 94° | 124km/h | 3665m | -4.6m/s | 1.2°C | 0% | 0hPa | 2.6V | 00:00:00 | 00:00:00 | 00:00:00 | |
| SONCRA | 2026-09-04 08:22:17 | 52.57920 | 10.05383 | 93° | 120km/h | 3670m | -5.6m/s | 1.8°C | 54.0% | 651.7hPa | 2.6V | 00:00:00 | 00:00:00 | 00:00:00 | |
| DM0DOS-11 | 2026-09-04 08:22:16 | 52.57932 | 10.05078 | 93° | 124km/h | 3702m | -5.2m/s | 1.6°C | 55% | 649.4hPa | 2.6V | 07:56:37 | 01:49:19 | 00:00:00 | |
| DL1XH1-15 | 2026-09-04 08:22:15 | 52.57924 | 10.05282 | 93° | 122km/h | 3680m | -5.4m/s | 1.8°C | 55.2% | 651hPa | 2.7V | 07:56:33 | 01:49:23 | 00:00:00 | |
| DL1XH1-15 | 2026-09-04 08:22:15 | 52.57933 | 10.05026 | 93° | 124km/h | 3708m | -5.8m/s | 1.6°C | 54.1% | 648.9hPa | 2.7V | 07:56:38 | 01:49:18 | 00:00:00 | |
| BIOWL1-15 | 2026-09-04 08:22:14 | 52.57926 | 10.05231 | 93° | 122km/h | 3686m | -5.3m/s | 1.7°C | 58.9% | 650.6hPa | 2.7V | 07:57:08 | 01:49:22 | 00:00:00 | |
| DD8BA-10 | 2026-09-04 08:22:14 | 52.57926 | 10.05231 | 94° | 124km/h | 3686m | -5.2m/s | 1.7°C | 55.2% | 650.6hPa | 2.6V | 00:00:00 | 00:00:00 | 00:00:00 | |
| DF8AY-15 | 2026-09-04 08:22:12 | 52.57930 | 10.05129 | 94° | 124km/h | 3697m | -5.3m/s | 1.6°C | 55.1% | 649.7hPa | 2.6V | 00:00:00 | 01:49:20 | 00:00:00 | |
| DM0DOS-11 | 2026-09-04 08:22:11 | 52.57940 | 10.04820 | 92° | 124km/h | 3732m | -6.3m/s | 1.5°C | 53.7% | 647.1hPa | 2.7V | 07:56:42 | 01:49:14 | 00:00:00 | |
| AA1-15 | 2026-09-04 08:22:11 | 52.57932 | 10.05078 | 94° | 124km/h | 3702m | -5.2m/s | 1.6°C | 58.9% | 649.4hPa | 2.6V | 07:57:08 | 01:49:19 | 00:00:00 | |
| DB0DAN | 2026-09-04 08:22:10 | 52.57933 | 10.05026 | 93° | 119km/h | 3708m | -5.8m/s | 1.6°C | 52.6% | 648.86hPa | 2.7V | 00:00:00 | 00:00:00 | 00:00:00 | |
| DL1XH-west | 2026-09-04 08:22:08 | 52.57937 | 10.04923 | 93° | 124km/h | 3719m | -5.3m/s | 1.6°C | 58.2% | 648.1hPa | 2.7V | 07:57:08 | 01:49:16 | 00:00:00 | |
| DJ2DS-15 | 2026-09-04 08:22:07 | 52.57939 | 10.04872 | 92° | 124km/h | 3725m | -7.2m/s | 1.5°C | 52.3% | 647.6hPa | 2.6V | 00:00:00 | 00:00:00 | 00:00:00 | |
| DL8OAI-8 | 2026-09-04 08:22:06 | 52.57938 | 10.04872 | 94° | 124km/h | 3726m | -7.2m/s | 1.5°C | 52.3% | 647.6hPa | 2.6V | 07:57:00 | 00:00:00 | 00:00:00 | |
| DL1XH1-15 | 2026-09-04 08:22:05 | 52.57942 | 10.04769 | 92° | 124km/h | 3739m | -6.6m/s | 1.5°C | 53.6% | 646.5hPa | 2.6V | 07:56:43 | 01:49:13 | 00:00:00 | |
| DL1XH1-15 | 2026-09-04 08:22:05 | 52.57951 | 10.04512 | 93° | 124km/h | 3769m | -6.2m/s | 1.4°C | 51.3% | 644.1hPa | 2.7V | 07:56:48 | 01:49:08 | 00:00:00 | |
| DF8AY | 2026-09-04 08:22:04 | 52.57943 | 10.04717 | 93° | 124km/h | 3745m | -6.1m/s | 1.5°C | 57.8% | 646hPa | 2.6V | 07:57:08 | 01:49:12 | 00:00:00 | |
| BIOWL1-15 | 2026-09-04 08:22:03 | 52.57945 | 10.04666 | 93° | 124km/h | 3751m | -5.7m/s | 1.4°C | 57.4% | 645.5hPa | 2.7V | 07:57:08 | 01:49:11 | 00:00:00 | |
| DL1XH-15 | 2026-09-04 08:22:01 | 52.57948 | 10.04563 | 93° | 124km/h | 3762m | -6.2m/s | 1.4°C | 50.4% | 644.5hPa | 2.7V | 07:56:47 | 01:49:09 | 00:00:00 | |
| AA1-15 | 2026-09-04 08:22:01 | 52.57948 | 10.04563 | 94° | 124km/h | 3763m | -6.2m/s | 1.4°C | 55.3% | 644.5hPa | 2.7V | 07:57:08 | 01:49:09 | 00:00:00 | |
| DL1XH1-15 | 2026-09-04 08:22:00 | 52.57959 | 10.04251 | 92° | 126km/h | 3798m | -5.6m/s | 1.2°C | 58% | 641.6hPa | 2.7V | 07:56:53 | 01:49:03 | 00:00:00 | |
| DL1XH-west | 2026-09-04 08:21:58 | 52.57954 | 10.04408 | 94° | 126km/h | 3781m | -6.5m/s | 1.3°C | 56.7% | 643.1hPa | 2.6V | 07:57:08 | 01:49:06 | 00:00:00 | |
| DL4XJ-10 | 2026-09-04 08:21:58 | 52.57954 | 10.04408 | 94° | 126km/h | 3781m | -6.4m/s | 0.7°C | 0% | 0hPa | 2.7V | 00:00:00 | 00:00:00 | 00:00:00 | |
| DB0DAN | 2026-09-04 08:21:55 | 52.57959 | 10.04251 | 92° | 120km/h | 3798m | -5.6m/s | 1.2°C | 56.4% | 641.63hPa | 2.7V | 00:00:00 | 00:00:00 | 00:00:00 | |
| DL1XH1-15 | 2026-09-04 08:21:55 | 52.57963 | 10.03991 | 91° | 126km/h | 3826m | -5.7m/s | 1.1°C | 58.5% | 639.3hPa | 2.6V | 07:56:58 | 01:48:58 | 00:00:00 | |
| DF8AY | 2026-09-04 08:21:53 | 52.57961 | 10.04147 | 91° | 126km/h | 3810m | -6.1m/s | 1.2°C | 63.7% | 640.8hPa | 2.7V | 07:57:08 | 01:49:01 | 00:00:00 | |
| BIOWL1-15 | 2026-09-04 08:21:52 | 52.57962 | 10.04095 | 91° | 126km/h | 3815m | -5.1m/s | 1.1°C | 63.3% | 640.4hPa | 2.7V | 07:57:08 | 01:49:00 | 00:00:00 | |
| DL1XH-15 | 2026-09-04 08:21:51 | 52.57963 | 10.04043 | 91° | 124km/h | 3820m | -5.6m/s | 1.1°C | 59.4% | 639.7hPa | 2.6V | 07:56:57 | 01:48:59 | 00:00:00 | |
| AA1-15 | 2026-09-04 08:21:51 | 52.57963 | 10.04043 | 91° | 124km/h | 3820m | -5.6m/s | 1.1°C | 63.3% | 639.7hPa | 2.6V | 07:57:08 | 01:48:59 | 00:00:00 | |
| DL1XH-west | 2026-09-04 08:21:47 | 52.57966 | 10.03834 | 92° | 126km/h | 3842m | -5.2m/s | 0.9°C | 62.6% | 638hPa | 2.7V | 07:57:08 | 01:48:55 | 00:00:00 | |
| DM0DOS-11 | 2026-09-04 08:21:46 | 52.57973 | 10.03519 | 91° | 128km/h | 3876m | -5.3m/s | 0.7°C | 57.9% | 635.4hPa | 2.7V | 07:57:07 | 01:48:49 | 00:00:00 | |
| DL1XH1-15 | 2026-09-04 08:21:45 | 52.57968 | 10.03729 | 91° | 126km/h | 3852m | -5.6m/s | 0.8°C | 58.4% | 637hPa | 2.7V | 07:57:03 | 01:48:53 | 00:00:00 | |
| BIOWL1-15 | 2026-09-04 08:21:44 | 52.57972 | 10.03572 | 92° | 128km/h | 3870m | -5.4m/s | 0.7°C | 62.5% | 635.7hPa | 2.7V | 07:57:08 | 01:48:50 | 00:00:00 | |
| DF8AY | 2026-09-04 08:21:43 | 52.57971 | 10.03624 | 92° | 128km/h | 3865m | -6.6m/s | 0.8°C | 63.5% | 636.3hPa | 2.6V | 07:57:08 | 01:48:51 | 00:00:00 | |
| DL1XH1-15 | 2026-09-04 08:21:40 | 52.57974 | 10.03466 | 91° | 128km/h | 3881m | -6.4m/s | 0.7°C | 55.7% | 634.9hPa | 2.7V | 07:57:08 | 01:48:48 | 00:00:00 | |
| DB0DAN | 2026-09-04 08:21:40 | 52.57974 | 10.03466 | 92° | 122km/h | 3882m | -6.4m/s | 0.7°C | 54.1% | 634.92hPa | 2.7V | 00:00:00 | 00:00:00 | 00:00:00 | |
| AA1-15 | 2026-09-04 08:21:40 | 52.57974 | 10.03466 | 92° | 128km/h | 3882m | -6.4m/s | 0.7°C | 59.8% | 634.9hPa | 2.7V | 07:57:08 | 01:48:48 | 00:00:00 | |
| DL4XJ-10 | 2026-09-04 08:21:38 | 52.57976 | 10.03360 | 92° | 128km/h | 3894m | -6.0m/s | -0.0°C | 0% | 0hPa | 2.6V | 00:00:00 | 00:00:00 | 00:00:00 | |
| SMARD9-10 | 2026-09-04 08:21:37 | 52.57976 | 10.03360 | 93° | 128km/h | 3894m | -6.1m/s | 0.6°C | 64.8% | 634.0hPa | 2.6V | 00:00:00 | 00:00:00 | 00:00:00 | |
| DL1XH-15 | 2026-09-04 08:21:36 | 52.57978 | 10.03254 | 92° | 128km/h | 3906m | -6.5m/s | 0.6°C | 65.5% | 633hPa | 2.6V | 07:57:12 | 01:48:44 | 00:00:00 | |
| DM0DOS-11 | 2026-09-04 08:21:36 | 52.57985 | 10.02987 | 92° | 128km/h | 3938m | -6.2m/s | 0.6°C | 49.7% | 630.5hPa | 2.7V | 07:57:17 | 01:48:39 | 00:00:00 | |
| DL1XH-west | 2026-09-04 08:21:36 | 52.57978 | 10.03254 | 92° | 128km/h | 3906m | -6.5m/s | 0.6°C | 69.4% | 633hPa | 2.6V | 07:57:59 | 01:48:44 | 00:00:00 | |
| DF8AY | 2026-09-04 08:21:32 | 52.57983 | 10.03040 | 93° | 128km/h | 3932m | -7.1m/s | 0.6°C | 58.1% | 631hPa | 2.7V | 07:57:59 | 01:48:40 | 00:00:00 | |
| BIOWL1-15 | 2026-09-04 08:21:31 | 52.57985 | 10.02987 | 93° | 128km/h | 3938m | -6.2m/s | 0.6°C | 54% | 630.5hPa | 2.7V | 07:57:59 | 01:48:39 | 00:00:00 | |
| DL1XH1-15 | 2026-09-04 08:21:30 | 52.57986 | 10.02934 | 92° | 128km/h | 3944m | -5.6m/s | 0.6°C | 42.7% | 629.9hPa | 2.6V | 07:57:18 | 01:48:38 | 00:00:00 | |
| AA1-15 | 2026-09-04 08:21:30 | 52.57986 | 10.02934 | 93° | 128km/h | 3944m | -5.6m/s | 0.6°C | 47.1% | 629.9hPa | 2.6V | 07:57:59 | 01:48:38 | 00:00:00 | |
| DL1XH-west | 2026-09-04 08:21:26 | 52.57992 | 10.02722 | 92° | 128km/h | 3969m | -6.5m/s | 0.5°C | 56.5% | 628.1hPa | 2.7V | 07:57:59 | 01:48:34 | 00:00:00 | |
| DB0DAN | 2026-09-04 08:21:25 | 52.57994 | 10.02669 | 93° | 120km/h | 3976m | -6.3m/s | 0.4°C | 71.6% | 627.67hPa | 2.7V | 00:00:00 | 00:00:00 | 00:00:00 | |
| BIOWL1-15 | 2026-09-04 08:21:21 | 52.58000 | 10.02457 | 93° | 130km/h | 4000m | -5.9m/s | 0.2°C | 85.9% | 625.6hPa | 2.7V | 07:57:59 | 01:48:29 | 00:00:00 | |
| DL1XH1-15 | 2026-09-04 08:21:20 | 52.58002 | 10.02403 | 93° | 130km/h | 4006m | -6.2m/s | 0.1°C | 83.4% | 625.2hPa | 2.7V | 07:57:28 | 01:48:28 | 00:00:00 | |
| AA1-15 | 2026-09-04 08:21:19 | 52.58004 | 10.02350 | 93° | 128km/h | 4012m | -6.5m/s | 0.1°C | 85.8% | 624.6hPa | 2.7V | 07:57:59 | 01:48:27 | 00:00:00 | |
| DL1XH-west | 2026-09-04 08:21:16 | 52.58009 | 10.02191 | 93° | 128km/h | 4032m | -7.1m/s | 0.1°C | 73% | 623.2hPa | 2.6V | 07:57:59 | 01:48:24 | 00:00:00 | |
| BIOWL1-15 | 2026-09-04 08:21:13 | 52.58017 | 10.01927 | 93° | 128km/h | 4064m | -6.1m/s | -0.1°C | 60.9% | 620.8hPa | 2.7V | 07:57:59 | 01:48:19 | 00:00:00 | |
| DF8AY-15 | 2026-09-04 08:21:12 | 52.58015 | 10.01980 | 93° | 126km/h | 4057m | -6.0m/s | 0.0°C | 52.7% | 621.2hPa | 2.7V | 07:57:00 | 01:48:20 | 00:00:00 | |
| DB0DAN | 2026-09-04 08:21:10 | 52.58018 | 10.01875 | 93° | 120km/h | 4070m | -6.4m/s | -0.1°C | 53.8% | 620.34hPa | 2.7V | 00:00:00 | 00:00:00 | 00:00:00 | |
| DL1XH1-15 | 2026-09-04 08:21:10 | 52.58018 | 10.01875 | 93° | 126km/h | 4070m | -6.4m/s | -0.1°C | 55.4% | 620.3hPa | 2.7V | 07:57:38 | 01:48:18 | 00:00:00 | |
| DL1XH1-15 | 2026-09-04 08:21:10 | 52.58027 | 10.01614 | 92° | 126km/h | 4099m | -5.8m/s | -0.2°C | 52.5% | 618hPa | 2.7V | 07:57:43 | 01:48:13 | 00:00:00 | |
| DF8AY | 2026-09-04 08:21:10 | 52.58018 | 10.01875 | 93° | 126km/h | 4070m | -6.4m/s | -0.1°C | 60.3% | 620.3hPa | 2.7V | 07:57:59 | 01:48:18 | 00:00:00 | |
| AA1-15 | 2026-09-04 08:21:09 | 52.58020 | 10.01822 | 93° | 126km/h | 4076m | -6.2m/s | -0.1°C | 61.7% | 619.9hPa | 2.6V | 07:57:59 | 01:48:17 | 00:00:00 | |
| DM0DOS-11 | 2026-09-04 08:21:06 | 52.58033 | 10.01406 | 92° | 126km/h | 4121m | -5.8m/s | -0.4°C | 57% | 616.3hPa | 2.7V | 07:57:47 | 01:48:09 | 00:00:00 | |
| DL1XH-west | 2026-09-04 08:21:05 | 52.58027 | 10.01614 | 93° | 126km/h | 4099m | -5.8m/s | -0.2°C | 57.6% | 618hPa | 2.7V | 07:57:59 | 01:48:13 | 00:00:00 | |
| DF8AY | 2026-09-04 08:21:00 | 52.58035 | 10.01354 | 93° | 126km/h | 4126m | -5.3m/s | -0.4°C | 60.3% | 615.9hPa | 2.7V | 07:57:59 | 01:48:08 | 00:00:00 | |
| AA1-15 | 2026-09-04 08:20:59 | 52.58036 | 10.01302 | 93° | 126km/h | 4132m | -5.7m/s | -0.5°C | 59.9% | 615.4hPa | 2.7V | 07:57:59 | 01:48:07 | 00:00:00 | |
| DL4XJ-10 | 2026-09-04 08:20:58 | 52.58038 | 10.01250 | 93° | 126km/h | 4137m | -6.1m/s | -1.1°C | 0% | 0hPa | 2.6V | 00:00:00 | 00:00:00 | 00:00:00 | |
| DL1XH-15 | 2026-09-04 08:20:56 | 52.58041 | 10.01146 | 93° | 126km/h | 4148m | -5.3m/s | -0.6°C | 56.1% | 614.2hPa | 2.6V | 07:57:52 | 01:48:04 | 00:00:00 | |
| DL3AQ-11 | 2026-09-04 08:20:56 | 52.58043 | 10.01094 | 93° | 124km/h | 4154m | -7.1m/s | -0.6°C | 52.5% | 613.8hPa | 2.6V | 00:00:00 | 00:00:00 | 00:00:00 | |
| DB0DAN | 2026-09-04 08:20:55 | 52.58043 | 10.01094 | 93° | 120km/h | 4154m | -7.1m/s | -0.6°C | 52.5% | 613.79hPa | 2.6V | 00:00:00 | 00:00:00 | 00:00:00 | |
| DL1XH-west | 2026-09-04 08:20:55 | 52.58043 | 10.01094 | 93° | 126km/h | 4154m | -7.1m/s | -0.6°C | 59.1% | 613.8hPa | 2.6V | 07:57:59 | 01:48:03 | 00:00:00 | |
| DD8BA-10 | 2026-09-04 08:20:54 | 52.58045 | 10.01042 | 94° | 126km/h | 4161m | -5.4m/s | -0.6°C | 54.8% | 613.3hPa | 2.7V | 00:00:00 | 00:00:00 | 00:00:00 | |
| DO2LYB-13 | 2026-09-04 08:20:52 | 52.58047 | 10.00990 | 94° | 126km/h | 4166m | -5.8m/s | -0.7°C | 52.3% | 612.9hPa | 2.7V | 00:00:00 | 00:00:00 | 00:00:00 | |
| DM0DOS-11 | 2026-09-04 08:20:51 | 52.58051 | 10.00886 | 93° | 126km/h | 4177m | -5.8m/s | -0.8°C | 48.2% | 612hPa | 2.7V | 07:57:57 | 01:47:59 | 00:00:00 | |
| DL1XH1-15 | 2026-09-04 08:20:50 | 52.58053 | 10.00834 | 94° | 124km/h | 4183m | -6m/s | -0.8°C | 48.1% | 611.5hPa | 2.7V | 07:57:58 | 01:47:58 | 00:00:00 | |
| DL1XH1-15 | 2026-09-04 08:20:50 | 52.58067 | 10.00574 | 95° | 128km/h | 4211m | -5.3m/s | -1.1°C | 57.9% | 609.3hPa | 2.7V | 07:58:03 | 01:47:53 | 00:00:00 | |
| BIOWL1-15 | 2026-09-04 08:20:50 | 52.58053 | 10.00834 | 94° | 124km/h | 4183m | -6m/s | -0.8°C | 53.4% | 611.5hPa | 2.7V | 07:57:59 | 01:47:58 | 00:00:00 | |
| AA1-15 | 2026-09-04 08:20:48 | 52.58058 | 10.00730 | 95° | 126km/h | 4195m | -5.6m/s | -0.9°C | 53.7% | 610.7hPa | 2.6V | 07:58:50 | 01:47:56 | 00:00:00 | |
| DL1XH-15 | 2026-09-04 08:20:46 | 52.58064 | 10.00626 | 95° | 126km/h | 4206m | -5.8m/s | -1°C | 53% | 609.8hPa | 2.7V | 07:58:02 | 01:47:54 | 00:00:00 | |
| DM0DOS-11 | 2026-09-04 08:20:46 | 52.58077 | 10.00362 | 94° | 126km/h | 4234m | -5.2m/s | -1.3°C | 67.3% | 607.6hPa | 2.7V | 07:58:07 | 01:47:49 | 00:00:00 | |
| DL1XH-west | 2026-09-04 08:20:44 | 52.58069 | 10.00521 | 95° | 128km/h | 4217m | -5.8m/s | -1.2°C | 64.9% | 608.9hPa | 2.7V | 07:58:50 | 01:47:52 | 00:00:00 | |
| DD8BA-10 | 2026-09-04 08:20:44 | 52.58069 | 10.00521 | 95° | 128km/h | 4217m | -5.7m/s | -1.1°C | 60.5% | 608.9hPa | 2.7V | 00:00:00 | 00:00:00 | 00:00:00 | |
| DL3AQ-11 | 2026-09-04 08:20:43 | 52.58075 | 10.00415 | 94° | 126km/h | 4228m | -5.9m/s | -1.3°C | 61.9% | 608.1hPa | 2.7V | 00:00:00 | 00:00:00 | 00:00:00 | |
| DL1XH1-15 | 2026-09-04 08:20:42 | 52.58080 | 10.00310 | 94° | 128km/h | 4239m | -5.1m/s | -1.4°C | 68.8% | 607.2hPa | 2.7V | 07:58:08 | 01:47:48 | 00:00:00 | |
| DB0DAN | 2026-09-04 08:20:40 | 52.58080 | 10.00310 | 95° | 120km/h | 4239m | -5.1m/s | -1.4°C | 66.8% | 607.17hPa | 2.7V | 00:00:00 | 00:00:00 | 00:00:00 | |
| DF8AY | 2026-09-04 08:20:39 | 52.58082 | 10.00257 | 95° | 126km/h | 4244m | -5.1m/s | -1.4°C | 73.7% | 606.8hPa | 2.7V | 07:58:50 | 01:47:47 | 00:00:00 | |
| AA1-15 | 2026-09-04 08:20:37 | 52.58088 | 10.00152 | 95° | 126km/h | 4255m | -6.4m/s | -1.5°C | 79.3% | 605.9hPa | 2.7V | 07:58:50 | 01:47:45 | 00:00:00 | |
| DM0DOS-11 | 2026-09-04 08:20:36 | 52.58091 | 10.00100 | 95° | 128km/h | 4262m | -6.5m/s | -1.6°C | 76.9% | 605.5hPa | 2.6V | 07:58:12 | 01:47:44 | 00:00:00 | |
| DM0DOS-11 | 2026-09-04 08:20:36 | 52.58108 | 9.99838 | 97° | 128km/h | 4297m | -7m/s | -1.9°C | 83% | 602.9hPa | 2.7V | 07:58:17 | 01:47:39 | 00:00:00 | |
| DL1XH1-15 | 2026-09-04 08:20:35 | 52.58094 | 10.00047 | 95° | 128km/h | 4268m | -7.1m/s | -1.6°C | 78.6% | 604.9hPa | 2.6V | 07:58:13 | 01:47:43 | 00:00:00 | |
| DL1XH1-15 | 2026-09-04 08:20:35 | 52.58112 | 9.99786 | 96° | 126km/h | 4304m | -7.1m/s | -1.9°C | 83.7% | 602.2hPa | 2.6V | 07:58:18 | 01:47:38 | 00:00:00 | |
| DL1XH-west | 2026-09-04 08:20:33 | 52.58101 | 9.99943 | 96° | 126km/h | 4283m | -7.3m/s | -1.7°C | 84.5% | 604hPa | 2.7V | 07:58:50 | 01:47:41 | 00:00:00 | |
| BIOWL1-15 | 2026-09-04 08:20:28 | 52.58120 | 9.99682 | 98° | 126km/h | 4318m | -7.2m/s | -2.1°C | 88.8% | 601.3hPa | 2.7V | 07:58:50 | 01:47:36 | 00:00:00 | |
| DL1XH-15 | 2026-09-04 08:20:26 | 52.58128 | 9.99577 | 97° | 126km/h | 4332m | -7.1m/s | -2.2°C | 86.9% | 600.2hPa | 2.7V | 07:58:22 | 01:47:34 | 00:00:00 | |
| DL1XH-15 | 2026-09-04 08:20:26 | 52.58149 | 9.99316 | 98° | 126km/h | 4368m | -7.4m/s | -2.5°C | 92.8% | 597.6hPa | 2.7V | 07:58:27 | 01:47:29 | 00:00:00 | |
| AA1-15 | 2026-09-04 08:20:26 | 52.58128 | 9.99577 | 98° | 126km/h | 4332m | -7.1m/s | -2.2°C | 90.2% | 600.2hPa | 2.7V | 07:58:50 | 01:47:34 | 00:00:00 | |
| DB0DAN | 2026-09-04 08:20:25 | 52.58133 | 9.99525 | 98° | 120km/h | 4339m | -6.8m/s | -2.2°C | 85.3% | 599.64hPa | 2.7V | 00:00:00 | 00:00:00 | 00:00:00 | |
| DL1XH-west | 2026-09-04 08:20:23 | 52.58141 | 9.99420 | 98° | 126km/h | 4353m | -7.2m/s | -2.4°C | 93.3% | 598.5hPa | 2.6V | 07:58:50 | 01:47:31 | 00:00:00 | |
| DM0DOS-11 | 2026-09-04 08:20:21 | 52.58172 | 9.99054 | 98° | 128km/h | 4403m | -7m/s | -2.7°C | 95.4% | 594.8hPa | 2.6V | 07:58:32 | 01:47:24 | 00:00:00 | |
| DL1XH1-15 | 2026-09-04 08:20:19 | 52.58158 | 9.99211 | 98° | 126km/h | 4382m | -7.2m/s | -2.6°C | 94% | 596.4hPa | 2.7V | 07:58:29 | 01:47:27 | 00:00:00 | |
| DL1XH1-15 | 2026-09-04 08:20:19 | 52.58183 | 9.98950 | 99° | 126km/h | 4416m | -6.9m/s | -2.7°C | 95% | 593.9hPa | 2.7V | 07:58:34 | 01:47:22 | 00:00:00 | |
| BIOWL1-15 | 2026-09-04 08:20:18 | 52.58163 | 9.99159 | 98° | 128km/h | 4389m | -6.9m/s | -2.6°C | 96.3% | 595.9hPa | 2.7V | 07:58:50 | 01:47:26 | 00:00:00 | |
| AA1-15 | 2026-09-04 08:20:16 | 52.58172 | 9.99054 | 99° | 128km/h | 4403m | -7m/s | -2.7°C | 97.3% | 594.8hPa | 2.6V | 07:58:50 | 01:47:24 | 00:00:00 | |
| DL1XH-west | 2026-09-04 08:20:12 | 52.58192 | 9.98845 | 99° | 128km/h | 4430m | -7.3m/s | -2.7°C | 95.4% | 592.8hPa | 2.7V | 07:58:50 | 01:47:20 | 00:00:00 | |
| DF8AY-15 | 2026-09-04 08:20:12 | 52.58192 | 9.98845 | 99° | 130km/h | 4430m | -7.3m/s | -2.7°C | 92.8% | 592.8hPa | 2.7V | 00:00:00 | 01:47:20 | 00:00:00 | |
| DL1XH1-15 | 2026-09-04 08:20:09 | 52.58207 | 9.98688 | 98° | 128km/h | 4452m | -7.8m/s | -2.9°C | 91.8% | 591.1hPa | 2.7V | 07:58:39 | 01:47:17 | 00:00:00 | |
| DL1XH1-15 | 2026-09-04 08:20:09 | 52.58231 | 9.98420 | 98° | 131km/h | 4489m | -7.3m/s | -3.2°C | 93.3% | 588.5hPa | 2.6V | 07:58:44 | 01:47:12 | 00:00:00 | |
| BIOWL1-15 | 2026-09-04 08:20:08 | 52.58211 | 9.98635 | 98° | 130km/h | 4460m | -7.5m/s | -3°C | 95% | 590.6hPa | 2.7V | 07:58:50 | 01:47:16 | 00:00:00 | |
| AA1-15 | 2026-09-04 08:20:06 | 52.58220 | 9.98528 | 99° | 130km/h | 4475m | -7.4m/s | -3.1°C | 94.9% | 589.5hPa | 2.7V | 07:58:50 | 01:47:14 | 00:00:00 | |
| DJ2DS-15 | 2026-09-04 08:20:06 | 52.58220 | 9.98528 | 99° | 131km/h | 4475m | -7.4m/s | -3.0°C | 92.3% | 589.5hPa | 2.6V | 00:00:00 | 01:47:14 | 00:00:00 | |
| DD8BA-10 | 2026-09-04 08:20:04 | 52.58230 | 9.98420 | 99° | 131km/h | 4490m | -7.3m/s | -3.2°C | 93.3% | 588.5hPa | 2.6V | 00:00:00 | 00:00:00 | 00:00:00 | |
| DL3AQ-11 | 2026-09-04 08:20:03 | 52.58240 | 9.98311 | 98° | 131km/h | 4504m | -7.2m/s | -3.3°C | 90.9% | 587.4hPa | 2.7V | 00:00:00 | 00:00:00 | 00:00:00 | |
| DL1XH-15 | 2026-09-04 08:20:01 | 52.58270 | 9.97989 | 98° | 130km/h | 4548m | -6.9m/s | -3.6°C | 92.4% | 584.4hPa | 2.7V | 07:58:52 | 01:47:04 | 00:00:00 | |
| DL1XH-west | 2026-09-04 08:20:01 | 52.58245 | 9.98257 | 98° | 133km/h | 4511m | -7m/s | -3.4°C | 95.8% | 586.8hPa | 2.7V | 07:58:50 | 01:47:09 | 00:00:00 | |
| DL1XH1-15 | 2026-09-04 08:19:59 | 52.58255 | 9.98149 | 98° | 131km/h | 4526m | -7.4m/s | -3.5°C | 93.9% | 585.9hPa | 2.7V | 07:58:49 | 01:47:07 | 00:00:00 | |
| DL1XH1-15 | 2026-09-04 08:19:59 | 52.58279 | 9.97882 | 98° | 130km/h | 4562m | -7.3m/s | -3.7°C | 92.5% | 583.1hPa | 2.7V | 07:58:54 | 01:47:02 | 00:00:00 | |
| BIOWL1-15 | 2026-09-04 08:19:57 | 52.58265 | 9.98042 | 98° | 130km/h | 4540m | -7.4m/s | -3.6°C | 95.1% | 584.8hPa | 2.6V | 07:59:41 | 01:47:05 | 00:00:00 | |
| DB0DAN | 2026-09-04 08:19:55 | 52.58274 | 9.97936 | 98° | 122km/h | 4555m | -6.9m/s | -3.7°C | 89.7% | 583.78hPa | 2.7V | 00:00:00 | 00:00:00 | 00:00:00 | |
| AA1-15 | 2026-09-04 08:19:55 | 52.58274 | 9.97936 | 98° | 128km/h | 4555m | -6.9m/s | -3.7°C | 94.5% | 583.8hPa | 2.7V | 07:59:41 | 01:47:03 | 00:00:00 | |
| DL1XH-west | 2026-09-04 08:19:50 | 52.58300 | 9.97668 | 99° | 130km/h | 4591m | -7.4m/s | -3.9°C | 92.8% | 581.1hPa | 2.7V | 07:59:41 | 01:46:58 | 00:00:00 | |
| DL1XH1-15 | 2026-09-04 08:19:49 | 52.58305 | 9.97614 | 98° | 131km/h | 4598m | -7.4m/s | -3.9°C | 90.3% | 580.6hPa | 2.7V | 07:58:59 | 01:46:57 | 00:00:00 | |
| DL1XH1-15 | 2026-09-04 08:19:49 | 52.58329 | 9.97342 | 97° | 133km/h | 4633m | -7.3m/s | -4.2°C | 91.2% | 577.9hPa | 2.7V | 07:59:04 | 01:46:52 | 00:00:00 | |
| BIOWL1-15 | 2026-09-04 08:19:49 | 52.58315 | 9.97505 | 99° | 131km/h | 4612m | -6.7m/s | -4.1°C | 93.3% | 579.5hPa | 2.7V | 07:59:41 | 01:46:55 | 00:00:00 | |
| DF2AP-13 | 2026-09-04 08:19:49 | 52.58305 | 9.97614 | 99° | 133km/h | 4598m | -7.3m/s | -3.9°C | 90.3% | 580.6hPa | 2.6V | 00:00:00 | 01:46:57 | 00:00:00 | |
| DO2SHX-10 | 2026-09-04 08:19:48 | 52.58310 | 9.97560 | 99° | 131km/h | 4605m | -6.6m/s | -3.9°C | 90.7% | 580.1hPa | 2.6V | 00:00:00 | 01:46:56 | 00:00:00 | |
| DL1XH-15 | 2026-09-04 08:19:46 | 52.58320 | 9.97451 | 97° | 131km/h | 4619m | -7.3m/s | -4.1°C | 90.9% | 579hPa | 2.6V | 07:59:02 | 01:46:54 | 00:00:00 | |
| DM0DOS-11 | 2026-09-04 08:19:46 | 52.58342 | 9.97178 | 97° | 131km/h | 4657m | -8.5m/s | -4.4°C | 91.6% | 576.2hPa | 2.7V | 07:59:07 | 01:46:49 | 00:00:00 | |
| DF8AY | 2026-09-04 08:19:46 | 52.58320 | 9.97451 | 98° | 131km/h | 4619m | -7.3m/s | -4.1°C | 93.5% | 579hPa | 2.6V | 07:59:41 | 01:46:54 | 00:00:00 | |
| AA1-15 | 2026-09-04 08:19:45 | 52.58325 | 9.97397 | 98° | 133km/h | 4626m | -7.4m/s | -4.2°C | 93.6% | 578.5hPa | 2.6V | 07:59:41 | 01:46:53 | 00:00:00 | |
| DO2SHX-10 | 2026-09-04 08:19:45 | 52.58325 | 9.97397 | 98° | 133km/h | 4626m | -7.3m/s | -4.1°C | 90.7% | 578.4hPa | 2.6V | 00:00:00 | 01:46:53 | 00:00:00 | |
| DD8BA-10 | 2026-09-04 08:19:44 | 52.58329 | 9.97342 | 98° | 131km/h | 4634m | -7.2m/s | -4.2°C | 91.2% | 577.8hPa | 2.7V | 00:00:00 | 00:00:00 | 00:00:00 | |
| DL8OAI-8 | 2026-09-04 08:19:43 | 52.58329 | 9.97342 | 99° | 133km/h | 4634m | -7.3m/s | -4.2°C | 88.3% | 577.9hPa | 2.7V | 07:59:00 | 00:00:00 | 00:00:00 | |
| DO2SHX-10 | 2026-09-04 08:19:42 | 52.58338 | 9.97233 | 98° | 131km/h | 4649m | -8.1m/s | -4.3°C | 92.0% | 576.8hPa | 2.7V | 00:00:00 | 01:46:50 | 00:00:00 | |
| DM0DOS-11 | 2026-09-04 08:19:41 | 52.58365 | 9.96906 | 98° | 131km/h | 4696m | -7.1m/s | -4.7°C | 92.6% | 573.5hPa | 2.7V | 07:59:12 | 01:46:44 | 00:00:00 | |
| DL1XH-west | 2026-09-04 08:19:39 | 52.58351 | 9.97069 | 98° | 131km/h | 4673m | -7.9m/s | -4.5°C | 95.1% | 575.2hPa | 2.6V | 07:59:41 | 01:46:47 | 00:00:00 | |
| BIOWL1-15 | 2026-09-04 08:19:37 | 52.58360 | 9.96961 | 98° | 131km/h | 4688m | -7.9m/s | -4.7°C | 95.2% | 574hPa | 2.7V | 07:59:41 | 01:46:45 | 00:00:00 | |
| DM0DOS-11 | 2026-09-04 08:19:36 | 52.58390 | 9.96634 | 97° | 133km/h | 4735m | -7.8m/s | -5.2°C | 95% | 570.6hPa | 2.7V | 07:59:17 | 01:46:39 | 00:00:00 | |
| DF8AY | 2026-09-04 08:19:35 | 52.58371 | 9.96852 | 99° | 131km/h | 4703m | -7.8m/s | -4.8°C | 95.7% | 572.7hPa | 2.7V | 07:59:41 | 01:46:43 | 00:00:00 | |
| AA1-15 | 2026-09-04 08:19:34 | 52.58376 | 9.96798 | 99° | 131km/h | 4711m | -8m/s | -4.9°C | 96.1% | 572.4hPa | 2.6V | 07:59:41 | 01:46:42 | 00:00:00 | |
| DD8BA-10 | 2026-09-04 08:19:34 | 52.58376 | 9.96798 | 99° | 133km/h | 4711m | -8.0m/s | -4.8°C | 93.2% | 572.3hPa | 2.6V | 00:00:00 | 00:00:00 | 00:00:00 | |
| DF8AY-15 | 2026-09-04 08:19:32 | 52.58385 | 9.96689 | 99° | 133km/h | 4727m | -8.1m/s | -5.0°C | 94.3% | 571.1hPa | 2.7V | 00:00:00 | 01:46:40 | 00:00:00 | |
| DL1XH-15 | 2026-09-04 08:19:31 | 52.58414 | 9.96361 | 98° | 133km/h | 4775m | -8.2m/s | -5.6°C | 99.3% | 567.6hPa | 2.7V | 07:59:22 | 01:46:34 | 00:00:00 | |
| DL1XH-west | 2026-09-04 08:19:29 | 52.58399 | 9.96524 | 97° | 133km/h | 4751m | -8.1m/s | -5°C | 92.9% | 569.5hPa | 2.7V | 07:59:41 | 01:46:37 | 00:00:00 | |
| D01LWL | 2026-09-04 08:19:27 | 52.58414 | 9.96361 | 98° | 131km/h | 4775m | -8.2m/s | -5.6°C | 96.1% | 567.6hPa | 2.6V | 00:00:00 | 00:00:00 | 00:00:00 | |
| DL1XH-15 | 2026-09-04 08:19:26 | 52.58438 | 9.96085 | 98° | 133km/h | 4813m | -7.4m/s | -5.9°C | 0% | 564.7hPa | 2.6V | 07:59:27 | 01:46:29 | 00:00:00 | |
| BIOWL1-15 | 2026-09-04 08:19:26 | 52.58414 | 9.96361 | 99° | 133km/h | 4775m | -8.2m/s | -5.6°C | 100% | 567.6hPa | 2.7V | 07:59:41 | 01:46:34 | 00:00:00 | |
| DB0DAN | 2026-09-04 08:19:25 | 52.58419 | 9.96306 | 98° | 126km/h | 4783m | -8m/s | -5.7°C | 97.4% | 567hPa | 2.7V | 00:00:00 | 00:00:00 | 00:00:00 | |
| DF8AY | 2026-09-04 08:19:24 | 52.58424 | 9.96251 | 98° | 135km/h | 4791m | -7.4m/s | -5.7°C | 100% | 566.5hPa | 2.7V | 07:59:41 | 01:46:32 | 00:00:00 | |
| AA1-15 | 2026-09-04 08:19:23 | 52.58429 | 9.96196 | 98° | 135km/h | 4798m | -7.7m/s | -5.8°C | 100% | 566hPa | 2.7V | 07:59:41 | 01:46:31 | 00:00:00 | |
| DL8OAI-8 | 2026-09-04 08:19:22 | 52.58429 | 9.96196 | 99° | 135km/h | 4798m | -7.7m/s | -5.8°C | 97.6% | 566.0hPa | 2.7V | 07:59:00 | 00:00:00 | 00:00:00 | |
| GOEST3-10 | 2026-09-04 08:19:21 | 52.58438 | 9.96085 | 99° | 133km/h | 4813m | -7.4m/s | -5.8°C | 0% | 564.7hPa | 2.7V | 00:00:00 | 01:46:29 | 00:00:00 | |
| EDDB2-12 | 2026-09-04 08:19:20 | 52.58448 | 9.95975 | 98° | 133km/h | 4828m | -7.6m/s | -5.8°C | 92.0% | 563.7hPa | 2.7V | 00:00:00 | 00:00:00 | 00:00:00 | |
| DL1XH1-15 | 2026-09-04 08:19:19 | 52.58472 | 9.95700 | 98° | 133km/h | 4867m | -7.6m/s | -5.8°C | 89.9% | 561hPa | 2.7V | 07:59:34 | 01:46:22 | 00:00:00 | |
| DL1XH-west | 2026-09-04 08:19:18 | 52.58453 | 9.95920 | 99° | 133km/h | 4836m | -7.6m/s | -5.8°C | 95.4% | 563.1hPa | 2.7V | 07:59:41 | 01:46:26 | 00:00:00 | |
| DL4XJ-10 | 2026-09-04 08:19:18 | 52.58453 | 9.95920 | 99° | 133km/h | 4836m | -7.6m/s | -6.3°C | 0% | 0hPa | 2.6V | 00:00:00 | 00:00:00 | 00:00:00 | |
| BIOWL7-15 | 2026-09-04 08:19:17 | 52.58453 | 9.95920 | 100° | 133km/h | 4836m | -7.6m/s | -5.8°C | 91.4% | 563.1hPa | 2.6V | 07:59:00 | 00:00:00 | 00:00:00 | |
| DM0DOS-11 | 2026-09-04 08:19:16 | 52.58463 | 9.95810 | 97° | 133km/h | 4852m | -7.8m/s | -5.9°C | 95.1% | 562hPa | 2.6V | 07:59:32 | 01:46:24 | 00:00:00 | |
| BIOWL1-15 | 2026-09-04 08:19:16 | 52.58463 | 9.95810 | 98° | 133km/h | 4852m | -7.8m/s | -5.9°C | 95.8% | 562hPa | 2.6V | 07:59:41 | 01:46:24 | 00:00:00 | |
| DK9SH | 2026-09-04 08:19:15 | 52.58462 | 9.95810 | 99° | 133km/h | 4852m | -7.8m/s | -5.9°C | 92.0% | 562.0hPa | 2.6V | 00:00:00 | 00:00:00 | 00:00:00 | |
| DL1XH1-15 | 2026-09-04 08:19:14 | 52.58496 | 9.95427 | 98° | 133km/h | 4904m | -7.3m/s | -6.1°C | 90.5% | 558.3hPa | 2.6V | 07:59:39 | 01:46:17 | 00:00:00 | |
| DF8AY | 2026-09-04 08:19:14 | 52.58472 | 9.95700 | 98° | 133km/h | 4867m | -7.6m/s | -5.8°C | 91.8% | 561hPa | 2.7V | 07:59:41 | 01:46:22 | 00:00:00 | |
| AA1-15 | 2026-09-04 08:19:13 | 52.58477 | 9.95646 | 98° | 133km/h | 4874m | -7.4m/s | -5.9°C | 91.7% | 560.5hPa | 2.7V | 07:59:41 | 01:46:21 | 00:00:00 | |
| DF8AY-15 | 2026-09-04 08:19:12 | 52.58482 | 9.95591 | 99° | 133km/h | 4882m | -7.8m/s | -5.9°C | 89.9% | 559.9hPa | 2.7V | 00:00:00 | 01:46:20 | 00:00:00 | |
| DL1CLM-18 | 2026-09-04 08:19:11 | 52.58482 | 9.95591 | 99° | 133km/h | 4882m | -7.9m/s | -5.9°C | 87.0% | 560.0hPa | 2.6V | 00:00:00 | 00:00:00 | 00:00:00 | |
| DB0DAN | 2026-09-04 08:19:10 | 52.58492 | 9.95481 | 98° | 126km/h | 4897m | -7.3m/s | -6.1°C | 87.8% | 558.88hPa | 2.6V | 00:00:00 | 00:00:00 | 00:00:00 | |
| DL1XH1-15 | 2026-09-04 08:19:09 | 52.58523 | 9.95154 | 99° | 133km/h | 4941m | -7m/s | -6.4°C | 91.3% | 555.8hPa | 2.6V | 07:59:44 | 01:46:12 | 00:00:00 | |
| DL1XH-west | 2026-09-04 08:19:08 | 52.58502 | 9.95372 | 99° | 131km/h | 4912m | -7.2m/s | -6.2°C | 92.7% | 557.9hPa | 2.7V | 07:59:41 | 01:46:16 | 00:00:00 | |
| DM0DOS-11 | 2026-09-04 08:19:06 | 52.58512 | 9.95264 | 98° | 133km/h | 4926m | -7.2m/s | -6.3°C | 90.7% | 556.7hPa | 2.7V | 07:59:42 | 01:46:14 | 00:00:00 | |
| DM0DOS-11 | 2026-09-04 08:19:06 | 52.58539 | 9.94990 | 98° | 133km/h | 4962m | -7.1m/s | -6.6°C | 91.3% | 554.2hPa | 2.7V | 07:59:47 | 01:46:09 | 00:00:00 | |
| BIOWL1-15 | 2026-09-04 08:19:06 | 52.58512 | 9.95264 | 99° | 133km/h | 4926m | -7.2m/s | -6.3°C | 92.4% | 556.7hPa | 2.7V | 08:00:32 | 01:46:14 | 00:00:00 | |
| DF8AY | 2026-09-04 08:19:03 | 52.58529 | 9.95100 | 99° | 133km/h | 4948m | -7.5m/s | -6.5°C | 92.8% | 555.2hPa | 2.6V | 08:00:32 | 01:46:11 | 00:00:00 | |
| AA1-15 | 2026-09-04 08:19:02 | 52.58534 | 9.95045 | 99° | 133km/h | 4955m | -7.5m/s | -6.5°C | 92.7% | 554.7hPa | 2.7V | 08:00:32 | 01:46:10 | 00:00:00 | |
| DL1XH-15 | 2026-09-04 08:19:01 | 52.58565 | 9.94720 | 98° | 130km/h | 4998m | -7.4m/s | -6.9°C | 90.5% | 551.6hPa | 2.7V | 07:59:52 | 01:46:04 | 00:00:00 | |
| DD1CC3-15 | 2026-09-04 08:19:00 | 52.58539 | 9.94990 | 100° | 133km/h | 4963m | -7.1m/s | -6.6°C | 88.3% | 554.2hPa | 2.7V | 08:00:00 | 00:00:00 | 00:00:00 | |
| DL1XH1-15 | 2026-09-04 08:18:59 | 52.58550 | 9.94882 | 98° | 131km/h | 4977m | -7.2m/s | -6.7°C | 90.6% | 553.2hPa | 2.7V | 07:59:49 | 01:46:07 | 00:00:00 | |
| DL1XH1-15 | 2026-09-04 08:18:59 | 52.58575 | 9.94612 | 98° | 131km/h | 5013m | -7.4m/s | -7°C | 89.6% | 550.6hPa | 2.7V | 07:59:54 | 01:46:02 | 00:00:00 | |
| DL1XH-west | 2026-09-04 08:18:57 | 52.58560 | 9.94774 | 99° | 131km/h | 4991m | -7.1m/s | -6.8°C | 91.9% | 552.1hPa | 2.6V | 08:00:32 | 01:46:05 | 00:00:00 | |
| BIOWL1-15 | 2026-09-04 08:18:57 | 52.58570 | 9.94666 | 99° | 131km/h | 5006m | -7.3m/s | -6.9°C | 91% | 551.1hPa | 2.7V | 08:00:32 | 01:46:03 | 00:00:00 | |
| DL3AQ-11 | 2026-09-04 08:18:56 | 52.58570 | 9.94666 | 98° | 131km/h | 5006m | -7.3m/s | -6.9°C | 86.3% | 551.1hPa | 2.7V | 00:00:00 | 00:00:00 | 00:00:00 | |
| DB0DAN | 2026-09-04 08:18:55 | 52.58570 | 9.94666 | 99° | 126km/h | 5006m | -7.3m/s | -6.9°C | 86.3% | 551.07hPa | 2.7V | 00:00:00 | 00:00:00 | 00:00:00 | |
| DL1XH-15 | 2026-09-04 08:18:54 | 52.58598 | 9.94342 | 97° | 130km/h | 5049m | -7.4m/s | -7.3°C | 89.4% | 548hPa | 2.7V | 07:59:59 | 01:45:57 | 00:00:00 | |
| DF8AY | 2026-09-04 08:18:52 | 52.58584 | 9.94504 | 99° | 131km/h | 5028m | -7.3m/s | -7.1°C | 91.6% | 549.5hPa | 2.6V | 08:00:32 | 01:46:00 | 00:00:00 | |
| AA1-15 | 2026-09-04 08:18:51 | 52.58589 | 9.94450 | 98° | 131km/h | 5035m | -7.4m/s | -7.2°C | 91.1% | 549hPa | 2.6V | 08:00:32 | 01:45:59 | 00:00:00 | |
| DO2SHX-10 | 2026-09-04 08:18:51 | 52.58589 | 9.94450 | 99° | 130km/h | 5035m | -7.3m/s | -7.1°C | 89.7% | 549.0hPa | 2.7V | 00:00:00 | 01:45:59 | 00:00:00 | |
| DL1XH1-15 | 2026-09-04 08:18:49 | 52.58621 | 9.94076 | 98° | 130km/h | 5086m | -7.4m/s | -7.6°C | 88.7% | 545.4hPa | 2.7V | 08:00:04 | 01:45:52 | 00:00:00 | |
| DL1XH-west | 2026-09-04 08:18:47 | 52.58607 | 9.94236 | 98° | 130km/h | 5064m | -7.3m/s | -7.4°C | 90.3% | 547hPa | 2.6V | 08:00:32 | 01:45:55 | 00:00:00 | |
| BIOWL1-15 | 2026-09-04 08:18:46 | 52.58621 | 9.94076 | 98° | 130km/h | 5086m | -7.4m/s | -7.6°C | 89.9% | 545.4hPa | 2.7V | 08:00:32 | 01:45:52 | 00:00:00 | |
| DM0DOS-11 | 2026-09-04 08:18:45 | 52.58640 | 9.93864 | 97° | 130km/h | 5115m | -7.1m/s | -7.7°C | 82.6% | 543.4hPa | 2.6V | 08:00:08 | 01:45:48 | 00:00:00 | |
| SONDE2-11 | 2026-09-04 08:18:45 | 52.58621 | 9.94076 | 98° | 128km/h | 5086m | -7.4m/s | -7.6°C | 85.6% | 545.4hPa | 2.7V | 00:00:00 | 00:00:00 | 00:00:00 | |
| DF8AY | 2026-09-04 08:18:42 | 52.58631 | 9.93971 | 98° | 128km/h | 5100m | -7.5m/s | -7.7°C | 87.8% | 544.4hPa | 2.7V | 08:00:32 | 01:45:50 | 00:00:00 | |
| AA1-15 | 2026-09-04 08:18:41 | 52.58635 | 9.93918 | 98° | 130km/h | 5108m | -7.1m/s | -7.7°C | 87.8% | 544hPa | 2.6V | 08:00:32 | 01:45:49 | 00:00:00 | |
| DB0DAN | 2026-09-04 08:18:40 | 52.58640 | 9.93864 | 98° | 124km/h | 5115m | -7.1m/s | -7.7°C | 79.7% | 543.39hPa | 2.6V | 00:00:00 | 00:00:00 | 00:00:00 | |
| BUE01 | 2026-09-04 08:18:40 | 52.58644 | 9.93811 | 97° | 128km/h | 5122m | -7.7m/s | -7.8°C | 79.2% | 543.0hPa | 2.6V | 00:00:00 | 00:00:00 | 00:00:00 | |
| DL1XH1-15 | 2026-09-04 08:18:39 | 52.58666 | 9.93543 | 97° | 130km/h | 5159m | -7.4m/s | -8°C | 83.9% | 540.3hPa | 2.6V | 08:00:14 | 01:45:42 | 00:00:00 | |
| DL1XH-west | 2026-09-04 08:18:37 | 52.58653 | 9.93704 | 98° | 130km/h | 5137m | -7.5m/s | -7.8°C | 84.6% | 541.9hPa | 2.7V | 08:00:32 | 01:45:45 | 00:00:00 | |
| DM0DOS-11 | 2026-09-04 08:18:35 | 52.58685 | 9.93331 | 97° | 128km/h | 5188m | -7.2m/s | -8.2°C | 83.1% | 538.3hPa | 2.7V | 08:00:18 | 01:45:38 | 00:00:00 | |
| DL1XH-15 | 2026-09-04 08:18:34 | 52.58689 | 9.93278 | 97° | 128km/h | 5196m | -7.9m/s | -8.3°C | 81.5% | 537.8hPa | 2.6V | 08:00:19 | 01:45:37 | 00:00:00 | |
| BIOWL1-15 | 2026-09-04 08:18:34 | 52.58666 | 9.93543 | 98° | 130km/h | 5159m | -7.4m/s | -8°C | 85.4% | 540.3hPa | 2.6V | 08:00:32 | 01:45:42 | 00:00:00 | |
| AA1-15 | 2026-09-04 08:18:31 | 52.58681 | 9.93384 | 98° | 130km/h | 5181m | -7.7m/s | -8.2°C | 85.7% | 538.9hPa | 2.7V | 08:00:32 | 01:45:39 | 00:00:00 | |
| DL1XH1-15 | 2026-09-04 08:18:29 | 52.58710 | 9.93016 | 97° | 128km/h | 5232m | -7.2m/s | -8.4°C | 78.6% | 535.3hPa | 2.6V | 08:00:24 | 01:45:32 | 00:00:00 | |
| DL1XH-west | 2026-09-04 08:18:26 | 52.58702 | 9.93120 | 98° | 126km/h | 5218m | -7m/s | -8.4°C | 80.3% | 536.3hPa | 2.7V | 08:00:32 | 01:45:34 | 00:00:00 | |
| DM0DOS-11 | 2026-09-04 08:18:25 | 52.58726 | 9.92803 | 97° | 130km/h | 5261m | -7.1m/s | -8.6°C | 83.3% | 533.3hPa | 2.7V | 08:00:28 | 01:45:28 | 00:00:00 | |
| DB0DAN | 2026-09-04 08:18:25 | 52.58706 | 9.93068 | 97° | 120km/h | 5225m | -7.5m/s | -8.4°C | 75.3% | 535.88hPa | 2.7V | 00:00:00 | 00:00:00 | 00:00:00 | |
| DJ2DS-15 | 2026-09-04 08:18:25 | 52.58706 | 9.93068 | 97° | 131km/h | 5225m | -7.4m/s | -8.4°C | 78.1% | 535.8hPa | 2.7V | 08:00:00 | 01:45:33 | 00:00:00 | |
| DL1XH-15 | 2026-09-04 08:18:24 | 52.58730 | 9.92749 | 98° | 131km/h | 5268m | -7.2m/s | -8.7°C | 81.9% | 532.9hPa | 2.7V | 08:00:29 | 01:45:27 | 00:00:00 | |
| BIOWL1-15 | 2026-09-04 08:18:23 | 52.58714 | 9.92963 | 97° | 128km/h | 5240m | -7.1m/s | -8.5°C | 80.7% | 534.8hPa | 2.6V | 08:00:32 | 01:45:31 | 00:00:00 | |
| AA1-15 | 2026-09-04 08:18:20 | 52.58726 | 9.92803 | 98° | 130km/h | 5261m | -7.1m/s | -8.6°C | 84.6% | 533.3hPa | 2.7V | 08:00:32 | 01:45:28 | 00:00:00 | |
| DL1XH-west | 2026-09-04 08:18:16 | 52.58745 | 9.92588 | 98° | 131km/h | 5290m | -7.5m/s | -8.8°C | 83.3% | 531.4hPa | 2.7V | 08:00:32 | 01:45:24 | 00:00:00 | |
| GOEST3-10 | 2026-09-04 08:18:15 | 52.58749 | 9.92534 | 98° | 131km/h | 5298m | -6.9m/s | -8.8°C | 82.6% | 530.8hPa | 2.7V | 00:00:00 | 00:00:00 | 00:00:00 | |
| DL1XH-15 | 2026-09-04 08:18:14 | 52.58779 | 9.92209 | 98° | 130km/h | 5340m | -7.1m/s | -9°C | 79.5% | 527.9hPa | 2.7V | 08:00:39 | 01:45:17 | 00:00:00 | |
| BIOWL1-15 | 2026-09-04 08:18:12 | 52.58764 | 9.92371 | 98° | 131km/h | 5318m | -7.2m/s | -9°C | 83.3% | 529.4hPa | 2.6V | 08:01:23 | 01:45:20 | 00:00:00 | |
| DB0DAN | 2026-09-04 08:18:10 | 52.58774 | 9.92263 | 99° | 126km/h | 5333m | -7.1m/s | -9°C | 77.5% | 528.37hPa | 2.7V | 00:00:00 | 00:00:00 | 00:00:00 | |
| AA1-15 | 2026-09-04 08:18:09 | 52.58779 | 9.92209 | 98° | 130km/h | 5340m | -7.1m/s | -9°C | 81.1% | 527.9hPa | 2.7V | 08:01:23 | 01:45:17 | 00:00:00 | |
| BUE01 | 2026-09-04 08:18:09 | 52.58784 | 9.92155 | 98° | 131km/h | 5347m | -7.2m/s | -9.1°C | 75.7% | 527.4hPa | 2.6V | 00:00:00 | 00:00:00 | 00:00:00 | |
| DO2SHX-10 | 2026-09-04 08:18:07 | 52.58788 | 9.92101 | 98° | 131km/h | 5354m | -6.8m/s | -9.0°C | 77.3% | 526.9hPa | 2.6V | 08:00:00 | 01:45:15 | 00:00:00 | |
| DM0DOS-11 | 2026-09-04 08:18:05 | 52.58819 | 9.91718 | 97° | 133km/h | 5403m | -7.2m/s | -9.3°C | 71.2% | 523.5hPa | 2.6V | 08:00:48 | 01:45:08 | 00:00:00 | |
| DL1XH-west | 2026-09-04 08:18:05 | 52.58797 | 9.91993 | 98° | 131km/h | 5368m | -7.1m/s | -9.2°C | 76.2% | 525.9hPa | 2.7V | 08:01:23 | 01:45:13 | 00:00:00 | |
| BIOWL1-15 | 2026-09-04 08:18:02 | 52.58811 | 9.91828 | 97° | 133km/h | 5389m | -7.2m/s | -9.2°C | 75.1% | 524.4hPa | 2.7V | 08:01:23 | 01:45:10 | 00:00:00 | |
| DF8AY | 2026-09-04 08:17:59 | 52.58824 | 9.91663 | 98° | 133km/h | 5411m | -7.2m/s | -9.3°C | 73.1% | 523.1hPa | 2.7V | 08:01:23 | 01:45:07 | 00:00:00 | |
| AA1-15 | 2026-09-04 08:17:58 | 52.58829 | 9.91608 | 98° | 133km/h | 5418m | -7m/s | -9.3°C | 68.1% | 522.6hPa | 2.7V | 08:01:23 | 01:45:06 | 00:00:00 | |
| SMARD9-15 | 2026-09-04 08:17:57 | 52.58868 | 9.91168 | 98° | 133km/h | 5475m | -6.9m/s | -9.6°C | 52.9% | 518.8hPa | 2.6V | 00:00:00 | 00:00:00 | 00:00:00 | |
| BIOWL7-15 | 2026-09-04 08:17:56 | 52.58833 | 9.91553 | 99° | 131km/h | 5425m | -7.4m/s | -9.4°C | 58.5% | 522.1hPa | 2.6V | 08:01:00 | 00:00:00 | 00:00:00 | |
| DM0DOS-11 | 2026-09-04 08:17:55 | 52.58868 | 9.91168 | 98° | 135km/h | 5475m | -6.9m/s | -9.6°C | 55% | 518.8hPa | 2.6V | 08:00:58 | 01:44:58 | 00:00:00 | |
| DO2SHX-10 | 2026-09-04 08:17:55 | 52.58843 | 9.91443 | 99° | 133km/h | 5440m | -7.0m/s | -9.4°C | 59.1% | 521.1hPa | 2.6V | 00:00:00 | 01:45:03 | 00:00:00 | |
| DL1XH-15 | 2026-09-04 08:17:54 | 52.58873 | 9.91113 | 98° | 135km/h | 5482m | -7.2m/s | -9.7°C | 55% | 518.3hPa | 2.6V | 08:00:59 | 01:44:57 | 00:00:00 | |
| DL1XH-west | 2026-09-04 08:17:54 | 52.58848 | 9.91389 | 98° | 133km/h | 5447m | -7.4m/s | -9.5°C | 62.5% | 520.6hPa | 2.7V | 08:01:23 | 01:45:02 | 00:00:00 | |
| BIOWL1-15 | 2026-09-04 08:17:54 | 52.58858 | 9.91279 | 99° | 135km/h | 5461m | -7.3m/s | -9.6°C | 60.6% | 519.7hPa | 2.7V | 08:01:23 | 01:45:00 | 00:00:00 | |
| D01LWL | 2026-09-04 08:17:53 | 52.58878 | 9.91057 | 98° | 135km/h | 5489m | -7.0m/s | -9.7°C | 52.3% | 517.7hPa | 2.6V | 00:00:00 | 00:00:00 | 00:00:00 | |
| DF8AY-15 | 2026-09-04 08:17:52 | 52.58858 | 9.91279 | 99° | 137km/h | 5461m | -7.2m/s | -9.5°C | 56.7% | 519.7hPa | 2.6V | 00:00:00 | 01:45:00 | 00:00:00 | |
| DL1CLM-18 | 2026-09-04 08:17:51 | 52.58858 | 9.91279 | 100° | 135km/h | 5461m | -7.3m/s | -9.6°C | 54.5% | 519.7hPa | 2.6V | 00:00:00 | 00:00:00 | 00:00:00 | |
| GOEST3-10 | 2026-09-04 08:17:50 | 52.58868 | 9.91168 | 99° | 137km/h | 5475m | -6.8m/s | -9.6°C | 55.0% | 518.8hPa | 2.6V | 00:00:00 | 01:44:58 | 00:00:00 | |
| DL1XH1-15 | 2026-09-04 08:17:49 | 52.58899 | 9.90832 | 98° | 137km/h | 5517m | -7m/s | -10°C | 56.8% | 515.9hPa | 2.6V | 08:01:04 | 01:44:52 | 00:00:00 | |
| AA1-15 | 2026-09-04 08:17:48 | 52.58878 | 9.91057 | 98° | 135km/h | 5489m | -7m/s | -9.7°C | 58.9% | 517.7hPa | 2.7V | 08:01:23 | 01:44:56 | 00:00:00 | |
| DF2AP-13 | 2026-09-04 08:17:48 | 52.58878 | 9.91057 | 99° | 139km/h | 5489m | -6.9m/s | -9.7°C | 54.4% | 517.7hPa | 2.7V | 00:00:00 | 01:44:56 | 00:00:00 | |
| DO2SHX-10 | 2026-09-04 08:17:46 | 52.58889 | 9.90945 | 99° | 137km/h | 5503m | -7.0m/s | -9.8°C | 56.7% | 516.8hPa | 2.7V | 00:00:00 | 01:44:54 | 00:00:00 | |
| DM0DOS-11 | 2026-09-04 08:17:45 | 52.58920 | 9.90606 | 98° | 139km/h | 5544m | -6.5m/s | -10.2°C | 56.2% | 514hPa | 2.7V | 08:01:08 | 01:44:48 | 00:00:00 | |
| DJ2DS-15 | 2026-09-04 08:17:45 | 52.58894 | 9.90888 | 99° | 139km/h | 5510m | -7.0m/s | -9.9°C | 56.1% | 516.4hPa | 2.6V | 00:00:00 | 01:44:53 | 00:00:00 | |
| DL1XH-15 | 2026-09-04 08:17:44 | 52.58925 | 9.90549 | 98° | 139km/h | 5550m | -5.9m/s | -10.2°C | 56.5% | 513.6hPa | 2.6V | 08:01:09 | 01:44:47 | 00:00:00 | |
| DL1XH-west | 2026-09-04 08:17:43 | 52.58904 | 9.90776 | 98° | 137km/h | 5525m | -7.3m/s | -10°C | 60.4% | 515.4hPa | 2.7V | 08:01:23 | 01:44:51 | 00:00:00 | |
| BIOWL1-15 | 2026-09-04 08:17:43 | 52.58915 | 9.90663 | 98° | 137km/h | 5538m | -6.6m/s | -10.1°C | 59.8% | 514.5hPa | 2.7V | 08:01:23 | 01:44:49 | 00:00:00 | |
| SONDE2-11 | 2026-09-04 08:17:43 | 52.58909 | 9.90719 | 98° | 137km/h | 5531m | -6.5m/s | -10.1°C | 53.5% | 514.9hPa | 2.7V | 00:00:00 | 00:00:00 | 00:00:00 | |
| DD1CC3-15 | 2026-09-04 08:17:41 | 52.58910 | 9.90719 | 100° | 137km/h | 5532m | -6.5m/s | -10.1°C | 53.5% | 514.9hPa | 2.7V | 00:00:00 | 00:00:00 | 00:00:00 | |
| DB0DAN | 2026-09-04 08:17:40 | 52.58920 | 9.90606 | 99° | 131km/h | 5544m | -6.5m/s | -10.2°C | 54% | 513.97hPa | 2.7V | 00:00:00 | 00:00:00 | 00:00:00 | |
| DF8AY | 2026-09-04 08:17:38 | 52.58931 | 9.90491 | 99° | 141km/h | 5556m | -5.6m/s | -10.3°C | 60% | 513.1hPa | 2.6V | 08:01:23 | 01:44:46 | 00:00:00 | |
| DL4XJ-10 | 2026-09-04 08:17:38 | 52.58930 | 9.90491 | 100° | 141km/h | 5557m | -5.6m/s | -10.8°C | 0% | 0hPa | 2.6V | 00:00:00 | 00:00:00 | 00:00:00 | |
| DL1XH1-15 | 2026-09-04 08:17:37 | 52.58953 | 9.90263 | 99° | 139km/h | 5580m | -5.8m/s | -10.5°C | 58.6% | 511.6hPa | 2.6V | 08:01:14 | 01:44:42 | 00:00:00 | |
| AA1-15 | 2026-09-04 08:17:37 | 52.58936 | 9.90434 | 99° | 141km/h | 5562m | -6.2m/s | -10.3°C | 60.2% | 512.9hPa | 2.7V | 08:01:23 | 01:44:45 | 00:00:00 | |
| DO2SHX-10 | 2026-09-04 08:17:37 | 52.58936 | 9.90434 | 100° | 139km/h | 5562m | -6.1m/s | -10.3°C | 57.2% | 512.8hPa | 2.7V | 00:00:00 | 01:44:45 | 00:00:00 | |
| DL4BBY-15 | 2026-09-04 08:17:36 | 52.58942 | 9.90377 | 100° | 139km/h | 5569m | -6.2m/s | -10.9°C | 0% | 0hPa | 2.7V | 00:00:00 | 00:00:00 | 00:00:00 | |
| DM0DOS-11 | 2026-09-04 08:17:35 | 52.58976 | 9.90036 | 98° | 141km/h | 5605m | -6.1m/s | -10.7°C | 60.7% | 510hPa | 2.7V | 08:01:18 | 01:44:38 | 00:00:00 | |
| GOEST3-10 | 2026-09-04 08:17:35 | 52.58948 | 9.90320 | 100° | 139km/h | 5574m | -5.9m/s | -10.4°C | 58.1% | 512.0hPa | 2.7V | 00:00:00 | 00:00:00 | 00:00:00 | |
| DL1XH-15 | 2026-09-04 08:17:34 | 52.58981 | 9.89979 | 98° | 139km/h | 5611m | -6.3m/s | -10.8°C | 61.5% | 509.5hPa | 2.7V | 08:01:19 | 01:44:37 | 00:00:00 | |
| DL1XH-west | 2026-09-04 08:17:32 | 52.58965 | 9.90150 | 99° | 139km/h | 5592m | -6.6m/s | -10.6°C | 62.2% | 510.8hPa | 2.7V | 08:01:23 | 01:44:40 | 00:00:00 | |
| BIOWL1-15 | 2026-09-04 08:17:30 | 52.58975 | 9.90036 | 99° | 141km/h | 5605m | -6.1m/s | -10.7°C | 63.4% | 510hPa | 2.7V | 08:01:23 | 01:44:38 | 00:00:00 | |
| DO2SHX-10 | 2026-09-04 08:17:28 | 52.58986 | 9.89922 | 100° | 141km/h | 5618m | -7.4m/s | -10.8°C | 61.6% | 509.1hPa | 2.7V | 00:00:00 | 01:44:36 | 00:00:00 | |
| DL1XH1-15 | 2026-09-04 08:17:27 | 52.59010 | 9.89691 | 99° | 141km/h | 5648m | -7.9m/s | -11°C | 61.5% | 507.2hPa | 2.7V | 08:01:24 | 01:44:32 | 00:00:00 | |
| DF8AY | 2026-09-04 08:17:27 | 52.58992 | 9.89864 | 99° | 142km/h | 5625m | -7.2m/s | -10.9°C | 64.8% | 508.7hPa | 2.6V | 08:01:23 | 01:44:35 | 00:00:00 | |
| AA1-15 | 2026-09-04 08:17:26 | 52.58998 | 9.89806 | 100° | 141km/h | 5633m | -7.6m/s | -10.9°C | 64.2% | 508.3hPa | 2.7V | 08:01:23 | 01:44:34 | 00:00:00 | |
| DB0DAN | 2026-09-04 08:17:25 | 52.59004 | 9.89749 | 100° | 133km/h | 5641m | -7.7m/s | -11°C | 58.2% | 507.75hPa | 2.7V | 00:00:00 | 00:00:00 | 00:00:00 | |
| DM0DOS-11 | 2026-09-04 08:17:25 | 52.59034 | 9.89460 | 99° | 141km/h | 5678m | -7.1m/s | -11.2°C | 64.2% | 505.2hPa | 2.7V | 08:01:28 | 01:44:28 | 00:00:00 | |
| DJ2DS-15 | 2026-09-04 08:17:25 | 52.59004 | 9.89749 | 101° | 139km/h | 5641m | -7.7m/s | -10.9°C | 60.6% | 507.7hPa | 2.7V | 00:00:00 | 01:44:33 | 00:00:00 | |
| DL1XH-15 | 2026-09-04 08:17:24 | 52.59039 | 9.89402 | 99° | 141km/h | 5685m | -7.6m/s | -11.3°C | 63.9% | 504.6hPa | 2.7V | 08:01:29 | 01:44:27 | 00:00:00 | |
| DF8AY | 2026-09-04 08:17:22 | 52.59051 | 9.89287 | 99° | 141km/h | 5700m | -7.2m/s | -11.4°C | 64.9% | 503.7hPa | 2.6V | 08:02:14 | 01:44:25 | 00:00:00 | |
| DL1XH-west | 2026-09-04 08:17:22 | 52.59022 | 9.89576 | 99° | 141km/h | 5664m | -7.7m/s | -11.1°C | 66.8% | 506.2hPa | 2.6V | 08:02:14 | 01:44:30 | 00:00:00 | |
| BIOWL1-15 | 2026-09-04 08:17:20 | 52.59034 | 9.89460 | 99° | 141km/h | 5678m | -7.1m/s | -11.3°C | 67% | 505.2hPa | 2.7V | 08:02:14 | 01:44:28 | 00:00:00 | |
| DO2SHX-10 | 2026-09-04 08:17:19 | 52.59039 | 9.89403 | 100° | 141km/h | 5686m | -7.5m/s | -11.3°C | 63.9% | 504.6hPa | 2.7V | 00:00:00 | 01:44:27 | 00:00:00 | |
| DF2AP-13 | 2026-09-04 08:17:18 | 52.59045 | 9.89345 | 99° | 137km/h | 5693m | -7.6m/s | -11.3°C | 63.8% | 504.1hPa | 2.7V | 00:00:00 | 01:44:26 | 00:00:00 | |
| DL1XH1-15 | 2026-09-04 08:17:17 | 52.59067 | 9.89116 | 98° | 139km/h | 5720m | -6.7m/s | -11.6°C | 62.6% | 502.4hPa | 2.7V | 08:01:34 | 01:44:22 | 00:00:00 | |
| AA1-15 | 2026-09-04 08:17:16 | 52.59056 | 9.89230 | 99° | 139km/h | 5707m | -6.3m/s | -11.5°C | 64.7% | 503.3hPa | 2.6V | 08:02:14 | 01:44:24 | 00:00:00 | |
| DO2SHX-10 | 2026-09-04 08:17:16 | 52.59056 | 9.89230 | 100° | 139km/h | 5707m | -6.2m/s | -11.4°C | 62.5% | 503.3hPa | 2.7V | 00:00:00 | 01:44:24 | 00:00:00 | |
| EDDB2-12 | 2026-09-04 08:17:15 | 52.59062 | 9.89173 | 98° | 137km/h | 5713m | -6.8m/s | -11.5°C | 60.1% | 502.9hPa | 2.7V | 00:00:00 | 00:00:00 | 00:00:00 | |
| DL1XH-15 | 2026-09-04 08:17:14 | 52.59093 | 9.88833 | 98° | 137km/h | 5754m | -6.5m/s | -11.8°C | 61% | 500.2hPa | 2.7V | 08:01:39 | 01:44:17 | 00:00:00 | |
| BIOWL1-15 | 2026-09-04 08:17:12 | 52.59087 | 9.88889 | 99° | 137km/h | 5747m | -6.9m/s | -11.8°C | 64.3% | 500.6hPa | 2.7V | 08:02:14 | 01:44:18 | 00:00:00 | |
| DL1XH-west | 2026-09-04 08:17:11 | 52.59082 | 9.88946 | 98° | 139km/h | 5740m | -7m/s | -11.7°C | 64.8% | 501.1hPa | 2.6V | 08:02:14 | 01:44:19 | 00:00:00 | |
| DB0DAN | 2026-09-04 08:17:10 | 52.59087 | 9.88889 | 99° | 131km/h | 5747m | -6.9m/s | -11.8°C | 60% | 500.64hPa | 2.7V | 00:00:00 | 00:00:00 | 00:00:00 | |
| DO2SHX-10 | 2026-09-04 08:17:10 | 52.59087 | 9.88889 | 99° | 137km/h | 5747m | -6.8m/s | -11.7°C | 62.6% | 500.6hPa | 2.7V | 00:00:00 | 01:44:18 | 00:00:00 | |
| DL1XH1-15 | 2026-09-04 08:17:07 | 52.59121 | 9.88554 | 99° | 137km/h | 5786m | -7.4m/s | -11.9°C | 52.3% | 498.1hPa | 2.7V | 08:01:44 | 01:44:12 | 00:00:00 | |
| DF8AY | 2026-09-04 08:17:06 | 52.59109 | 9.88665 | 100° | 135km/h | 5773m | -6.3m/s | -11.9°C | 58.3% | 498.9hPa | 2.6V | 08:02:14 | 01:44:14 | 00:00:00 | |
| DL4BBY-15 | 2026-09-04 08:17:06 | 52.59109 | 9.88665 | 100° | 135km/h | 5774m | -6.3m/s | -12.4°C | 0% | 0hPa | 2.6V | 00:00:00 | 00:00:00 | 00:00:00 | |
| DM0DOS-11 | 2026-09-04 08:17:05 | 52.59143 | 9.88329 | 98° | 137km/h | 5812m | -6.4m/s | -12°C | 44.6% | 496.6hPa | 2.6V | 08:01:48 | 01:44:08 | 00:00:00 | |
| AA1-15 | 2026-09-04 08:17:05 | 52.59115 | 9.88610 | 100° | 137km/h | 5780m | -6.2m/s | -11.9°C | 56.3% | 498.5hPa | 2.7V | 08:02:14 | 01:44:13 | 00:00:00 | |
| DL1XH-west | 2026-09-04 08:17:00 | 52.59143 | 9.88329 | 99° | 137km/h | 5812m | -6.4m/s | -12°C | 47.1% | 496.6hPa | 2.6V | 08:02:14 | 01:44:08 | 00:00:00 | |
| BIOWL1-15 | 2026-09-04 08:16:59 | 52.59148 | 9.88273 | 98° | 137km/h | 5818m | -5.8m/s | -12°C | 45% | 496hPa | 2.7V | 08:02:14 | 01:44:07 | 00:00:00 | |
| DF8AY | 2026-09-04 08:16:56 | 52.59162 | 9.88104 | 98° | 135km/h | 5836m | -6.2m/s | -12°C | 39.1% | 494.9hPa | 2.7V | 08:02:14 | 01:44:04 | 00:00:00 | |
| DL3AQ-11 | 2026-09-04 08:16:56 | 52.59167 | 9.88048 | 97° | 133km/h | 5843m | -7.5m/s | -12.0°C | 33.2% | 494.4hPa | 2.6V | 00:00:00 | 00:00:00 | 00:00:00 | |
| DB0DAN | 2026-09-04 08:16:55 | 52.59167 | 9.88048 | 97° | 128km/h | 5843m | -7.5m/s | -12°C | 33.2% | 494.4hPa | 2.6V | 00:00:00 | 00:00:00 | 00:00:00 | |
| DM0DOS-11 | 2026-09-04 08:16:55 | 52.59188 | 9.87774 | 96° | 133km/h | 5875m | -5.3m/s | -12.1°C | 31.6% | 492.3hPa | 2.7V | 08:01:58 | 01:43:58 | 00:00:00 | |
| DO2SHX-10 | 2026-09-04 08:16:55 | 52.59167 | 9.88048 | 98° | 133km/h | 5843m | -7.4m/s | -11.9°C | 34.8% | 494.3hPa | 2.6V | 00:00:00 | 01:44:03 | 00:00:00 | |
| DL1XH-15 | 2026-09-04 08:16:54 | 52.59192 | 9.87719 | 96° | 133km/h | 5881m | -5.9m/s | -12.1°C | 29.8% | 492hPa | 2.7V | 08:01:59 | 01:43:57 | 00:00:00 | |
| AA1-15 | 2026-09-04 08:16:54 | 52.59171 | 9.87993 | 98° | 133km/h | 5850m | -6.8m/s | -12°C | 37.8% | 494hPa | 2.6V | 08:02:14 | 01:44:02 | 00:00:00 | |
| DL1XH-west | 2026-09-04 08:16:50 | 52.59188 | 9.87774 | 96° | 133km/h | 5875m | -5.3m/s | -12.1°C | 34.7% | 492.3hPa | 2.7V | 08:02:14 | 01:43:58 | 00:00:00 | |
| BIOWL1-15 | 2026-09-04 08:16:49 | 52.59192 | 9.87719 | 97° | 133km/h | 5881m | -5.9m/s | -12.1°C | 32.9% | 492hPa | 2.7V | 08:02:14 | 01:43:57 | 00:00:00 | |
| DF8AY | 2026-09-04 08:16:46 | 52.59204 | 9.87553 | 96° | 133km/h | 5898m | -5.8m/s | -12.1°C | 29.7% | 490.9hPa | 2.7V | 08:02:14 | 01:43:54 | 00:00:00 | |
| DO2SHX-10 | 2026-09-04 08:16:46 | 52.59204 | 9.87553 | 97° | 135km/h | 5898m | -5.8m/s | -12.0°C | 26.9% | 490.8hPa | 2.7V | 08:02:00 | 01:43:54 | 00:00:00 | |
| DM0DOS-11 | 2026-09-04 08:16:45 | 52.59227 | 9.87219 | 95° | 133km/h | 5934m | -5.3m/s | -12.3°C | 25.9% | 488.6hPa | 2.7V | 08:02:08 | 01:43:48 | 00:00:00 | |
| DJ2DS-15 | 2026-09-04 08:16:45 | 52.59208 | 9.87497 | 97° | 133km/h | 5904m | -6.1m/s | -12.1°C | 26.6% | 490.5hPa | 2.7V | 00:00:00 | 01:43:53 | 00:00:00 | |
| DL1XH-15 | 2026-09-04 08:16:44 | 52.59230 | 9.87164 | 95° | 133km/h | 5940m | -7.2m/s | -12.3°C | 25.3% | 488.1hPa | 2.7V | 08:02:09 | 01:43:47 | 00:00:00 | |
| EDDB2-12 | 2026-09-04 08:16:44 | 52.59212 | 9.87441 | 96° | 135km/h | 5910m | -6.3m/s | -12.2°C | 25.2% | 490.1hPa | 2.6V | 00:00:00 | 00:00:00 | 00:00:00 | |
| AA1-15 | 2026-09-04 08:16:43 | 52.59216 | 9.87386 | 97° | 135km/h | 5916m | -6m/s | -12.2°C | 29.2% | 489.7hPa | 2.6V | 08:02:14 | 01:43:51 | 00:00:00 | |
| DL3AQ-11 | 2026-09-04 08:16:43 | 52.59220 | 9.87330 | 96° | 133km/h | 5922m | -6.1m/s | -12.2°C | 25.1% | 489.4hPa | 2.7V | 00:00:00 | 00:00:00 | 00:00:00 | |
| DB0DAN | 2026-09-04 08:16:40 | 52.59227 | 9.87219 | 96° | 128km/h | 5934m | -5.3m/s | -12.3°C | 24.6% | 488.59hPa | 2.7V | 00:00:00 | 00:00:00 | 00:00:00 | |
| DL1XH-west | 2026-09-04 08:16:39 | 52.59230 | 9.87164 | 96° | 133km/h | 5940m | -7.2m/s | -12.3°C | 28.2% | 488.1hPa | 2.7V | 08:02:14 | 01:43:47 | 00:00:00 | |
| BIOWL1-15 | 2026-09-04 08:16:38 | 52.59234 | 9.87109 | 95° | 133km/h | 5947m | -6.7m/s | -12.3°C | 27.4% | 487.7hPa | 2.7V | 08:02:14 | 01:43:46 | 00:00:00 | |
| DF8AY | 2026-09-04 08:16:35 | 52.59244 | 9.86944 | 96° | 133km/h | 5967m | -6.6m/s | -12.4°C | 26.2% | 486.4hPa | 2.6V | 08:02:14 | 01:43:43 | 00:00:00 | |
| DL1XH-15 | 2026-09-04 08:16:34 | 52.59265 | 9.86613 | 95° | 133km/h | 6009m | -7.3m/s | -12.7°C | 22.5% | 483.8hPa | 2.6V | 08:02:19 | 01:43:37 | 00:00:00 | |
| AA1-15 | 2026-09-04 08:16:32 | 52.59254 | 9.86779 | 96° | 133km/h | 5987m | -6.8m/s | -12.5°C | 26.1% | 485.1hPa | 2.7V | 08:03:05 | 01:43:40 | 00:00:00 | |
| DL1XH-west | 2026-09-04 08:16:29 | 52.59265 | 9.86613 | 96° | 133km/h | 6009m | -7.3m/s | -12.7°C | 25.1% | 483.8hPa | 2.6V | 08:03:05 | 01:43:37 | 00:00:00 | |
| BIOWL1-15 | 2026-09-04 08:16:28 | 52.59268 | 9.86558 | 96° | 133km/h | 6016m | -7.4m/s | -12.7°C | 23.2% | 483.4hPa | 2.7V | 08:03:05 | 01:43:36 | 00:00:00 | |
| DO2SHX-10 | 2026-09-04 08:16:28 | 52.59268 | 9.86558 | 96° | 131km/h | 6017m | -7.3m/s | -12.6°C | 20.7% | 483.3hPa | 2.7V | 00:00:00 | 01:43:36 | 00:00:00 | |
| DL1XH1-15 | 2026-09-04 08:16:27 | 52.59282 | 9.86341 | 95° | 130km/h | 6044m | -7.1m/s | -12.8°C | 23.6% | 481.7hPa | 2.6V | 08:02:24 | 01:43:32 | 00:00:00 | |
| DF8AY | 2026-09-04 08:16:25 | 52.59278 | 9.86395 | 96° | 130km/h | 6037m | -7.3m/s | -12.7°C | 22.9% | 482.1hPa | 2.6V | 08:03:05 | 01:43:33 | 00:00:00 | |
| DB0DAN | 2026-09-04 08:16:25 | 52.59278 | 9.86395 | 96° | 124km/h | 6037m | -7.3m/s | -12.7°C | 19.3% | 482.05hPa | 2.6V | 00:00:00 | 00:00:00 | 00:00:00 | |
| DJ2DS-15 | 2026-09-04 08:16:25 | 52.59278 | 9.86395 | 96° | 131km/h | 6037m | -7.3m/s | -12.7°C | 20.4% | 482.0hPa | 2.6V | 00:00:00 | 01:43:33 | 00:00:00 | |
| DB0NH | 2026-09-04 08:16:24 | 52.59282 | 9.86341 | 96° | 133km/h | 6044m | -7.1m/s | -12.7°C | 23.6% | 481.7hPa | 2.6V | 00:00:00 | 01:43:32 | 00:00:00 | |
| DL1XH-15 | 2026-09-04 08:16:22 | 52.59298 | 9.86076 | 96° | 128km/h | 6077m | -6.3m/s | -12.8°C | 23.2% | 479.6hPa | 2.6V | 08:02:29 | 01:43:27 | 00:00:00 | |
| AA1-15 | 2026-09-04 08:16:22 | 52.59288 | 9.86234 | 96° | 128km/h | 6058m | -7.1m/s | -12.8°C | 33.5% | 480.7hPa | 2.7V | 08:03:05 | 01:43:30 | 00:00:00 | |
| DL1XH-west | 2026-09-04 08:16:19 | 52.59298 | 9.86076 | 96° | 128km/h | 6077m | -6.3m/s | -12.8°C | 26.1% | 479.6hPa | 2.6V | 08:03:05 | 01:43:27 | 00:00:00 | |
| BIOWL1-15 | 2026-09-04 08:16:18 | 52.59302 | 9.86023 | 96° | 128km/h | 6084m | -7m/s | -12.8°C | 23.9% | 479.1hPa | 2.7V | 08:03:05 | 01:43:26 | 00:00:00 | |
| DL4XJ-10 | 2026-09-04 08:16:18 | 52.59301 | 9.86023 | 96° | 133km/h | 6084m | -7.0m/s | -13.3°C | 0% | 0hPa | 2.6V | 00:00:00 | 00:00:00 | 00:00:00 | |
| DL1XH1-15 | 2026-09-04 08:16:17 | 52.59316 | 9.85806 | 96° | 133km/h | 6112m | -6.3m/s | -12.7°C | 12.9% | 477.3hPa | 2.6V | 08:02:34 | 01:43:22 | 00:00:00 | |
| DL3AQ-11 | 2026-09-04 08:16:16 | 52.59312 | 9.85861 | 96° | 131km/h | 6105m | -6.8m/s | -12.7°C | 13.4% | 477.9hPa | 2.6V | 00:00:00 | 00:00:00 | 00:00:00 | |
| DM0DOS-11 | 2026-09-04 08:16:15 | 52.59330 | 9.85584 | 96° | 135km/h | 6138m | -6.3m/s | -12.9°C | 11.9% | 475.8hPa | 2.6V | 08:02:38 | 01:43:18 | 00:00:00 | |
| DF8AY | 2026-09-04 08:16:14 | 52.59316 | 9.85806 | 97° | 133km/h | 6112m | -6.4m/s | -12.7°C | 14.5% | 477.4hPa | 2.6V | 08:03:05 | 01:43:22 | 00:00:00 | |
| AA1-15 | 2026-09-04 08:16:11 | 52.59326 | 9.85639 | 96° | 135km/h | 6131m | -6.7m/s | -12.8°C | 13.6% | 476.2hPa | 2.7V | 08:03:05 | 01:43:19 | 00:00:00 | |
| DB0DAN | 2026-09-04 08:16:10 | 52.59330 | 9.85584 | 96° | 128km/h | 6138m | -6.3m/s | -12.9°C | 11.1% | 475.79hPa | 2.6V | 00:00:00 | 00:00:00 | 00:00:00 | |
| BIOWL1-15 | 2026-09-04 08:16:09 | 52.59341 | 9.85418 | 96° | 133km/h | 6158m | -6.3m/s | -13°C | 12.9% | 474.6hPa | 2.7V | 08:03:05 | 01:43:15 | 00:00:00 | |
| DL1XH-west | 2026-09-04 08:16:09 | 52.59334 | 9.85528 | 96° | 133km/h | 6144m | -6.9m/s | -12.9°C | 13% | 475.4hPa | 2.6V | 08:03:05 | 01:43:17 | 00:00:00 | |
| DO2SHX-10 | 2026-09-04 08:16:09 | 52.59334 | 9.85528 | 97° | 133km/h | 6145m | -6.9m/s | -12.9°C | 11.7% | 475.3hPa | 2.6V | 00:00:00 | 01:43:17 | 00:00:00 | |
| DJ2DS-15 | 2026-09-04 08:16:07 | 52.59341 | 9.85418 | 96° | 131km/h | 6158m | -6.3m/s | -13.0°C | 10.9% | 474.6hPa | 2.6V | 00:00:00 | 00:00:00 | 00:00:00 | |
| DL4BBY-15 | 2026-09-04 08:16:06 | 52.59345 | 9.85363 | 97° | 135km/h | 6164m | -5.7m/s | -13.6°C | 0% | 0hPa | 2.6V | 00:00:00 | 00:00:00 | 00:00:00 | |
| DM0DOS-11 | 2026-09-04 08:16:05 | 52.59368 | 9.85033 | 97° | 135km/h | 6204m | -6.6m/s | -13.3°C | 10.8% | 471.7hPa | 2.6V | 08:02:48 | 01:43:08 | 00:00:00 | |
| DF8AY | 2026-09-04 08:16:04 | 52.59352 | 9.85254 | 96° | 133km/h | 6177m | -7.2m/s | -13.2°C | 12.6% | 473.3hPa | 2.6V | 08:03:05 | 01:43:12 | 00:00:00 | |
| DD8BA-10 | 2026-09-04 08:16:04 | 52.59352 | 9.85254 | 97° | 135km/h | 6177m | -7.2m/s | -13.1°C | 11.4% | 473.3hPa | 2.6V | 00:00:00 | 00:00:00 | 00:00:00 | |
| DO2SHX-10 | 2026-09-04 08:16:03 | 52.59356 | 9.85199 | 97° | 133km/h | 6184m | -6.5m/s | -13.2°C | 11.3% | 472.8hPa | 2.6V | 00:00:00 | 01:43:11 | 00:00:00 | |
| DL1XH-15 | 2026-09-04 08:16:02 | 52.59372 | 9.84977 | 97° | 135km/h | 6211m | -7m/s | -13.3°C | 10.8% | 471.2hPa | 2.6V | 08:02:49 | 01:43:07 | 00:00:00 | |
| AA1-15 | 2026-09-04 08:16:01 | 52.59363 | 9.85089 | 97° | 135km/h | 6198m | -6.5m/s | -13.3°C | 12.1% | 472.1hPa | 2.7V | 08:03:05 | 01:43:09 | 00:00:00 | |
| DL1XH-west | 2026-09-04 08:15:59 | 52.59372 | 9.84977 | 97° | 135km/h | 6211m | -7m/s | -13.3°C | 11.9% | 471.2hPa | 2.6V | 08:03:05 | 01:43:07 | 00:00:00 | |
| DL4XJ-10 | 2026-09-04 08:15:58 | 52.59376 | 9.84921 | 98° | 135km/h | 6218m | -5.7m/s | -13.8°C | 0% | 0hPa | 2.6V | 00:00:00 | 00:00:00 | 00:00:00 | |
| DL1XH1-15 | 2026-09-04 08:15:57 | 52.59395 | 9.84698 | 98° | 135km/h | 6244m | -6.9m/s | -13.5°C | 11% | 469.2hPa | 2.6V | 08:02:54 | 01:43:02 | 00:00:00 | |
| BIOWL1-15 | 2026-09-04 08:15:57 | 52.59381 | 9.84865 | 98° | 135km/h | 6224m | -6.9m/s | -13.4°C | 11.9% | 470.6hPa | 2.7V | 08:03:05 | 01:43:05 | 00:00:00 | |
| DO2SHX-10 | 2026-09-04 08:15:57 | 52.59381 | 9.84865 | 98° | 135km/h | 6224m | -6.8m/s | -13.3°C | 10.8% | 470.5hPa | 2.6V | 00:00:00 | 01:43:05 | 00:00:00 | |
| DL8OAI-8 | 2026-09-04 08:15:56 | 52.59381 | 9.84865 | 99° | 135km/h | 6224m | -6.9m/s | -13.3°C | 10.1% | 470.6hPa | 2.6V | 08:03:00 | 00:00:00 | 00:00:00 | |
| DB0DAN | 2026-09-04 08:15:55 | 52.59390 | 9.84754 | 98° | 128km/h | 6237m | -6.5m/s | -13.4°C | 10.3% | 469.72hPa | 2.6V | 00:00:00 | 00:00:00 | 00:00:00 | |
| DM0DOS-11 | 2026-09-04 08:15:55 | 52.59415 | 9.84477 | 98° | 135km/h | 6270m | -6.6m/s | -13.6°C | 11.3% | 467.6hPa | 2.6V | 08:02:58 | 01:42:58 | 00:00:00 | |
| DF8AY | 2026-09-04 08:15:53 | 52.59400 | 9.84643 | 99° | 135km/h | 6250m | -6.3m/s | -13.5°C | 12.4% | 468.9hPa | 2.7V | 08:03:05 | 01:43:01 | 00:00:00 | |
| DL1XH-15 | 2026-09-04 08:15:52 | 52.59420 | 9.84422 | 98° | 135km/h | 6276m | -6m/s | -13.6°C | 11.2% | 467.2hPa | 2.6V | 08:02:59 | 01:42:57 | 00:00:00 | |
| AA1-15 | 2026-09-04 08:15:50 | 52.59415 | 9.84477 | 98° | 135km/h | 6270m | -6.6m/s | -13.6°C | 12.4% | 467.6hPa | 2.6V | 08:03:05 | 01:42:58 | 00:00:00 | |
| DL1XH-west | 2026-09-04 08:15:48 | 52.59426 | 9.84366 | 99° | 137km/h | 6283m | -6.7m/s | -13.7°C | 12% | 466.9hPa | 2.7V | 08:03:05 | 01:42:56 | 00:00:00 | |
| DO2SHX-10 | 2026-09-04 08:15:48 | 52.59425 | 9.84366 | 99° | 137km/h | 6283m | -6.7m/s | -13.6°C | 10.9% | 466.9hPa | 2.6V | 00:00:00 | 01:42:56 | 00:00:00 | |
| DL1XH1-15 | 2026-09-04 08:15:47 | 52.59448 | 9.84141 | 100° | 135km/h | 6308m | -6m/s | -13.8°C | 10.4% | 465.4hPa | 2.6V | 08:03:04 | 01:42:52 | 00:00:00 | |
| BIOWL1-15 | 2026-09-04 08:15:46 | 52.59437 | 9.84253 | 100° | 137km/h | 6295m | -6.3m/s | -13.8°C | 11.8% | 466.1hPa | 2.7V | 08:03:05 | 01:42:54 | 00:00:00 | |
| DM0DOS-11 | 2026-09-04 08:15:45 | 52.59473 | 9.83921 | 100° | 133km/h | 6333m | -6.5m/s | -14°C | 9.9% | 463.7hPa | 2.7V | 08:03:08 | 01:42:48 | 00:00:00 | |
| DO2SHX-10 | 2026-09-04 08:15:45 | 52.59442 | 9.84197 | 100° | 135km/h | 6302m | -6.4m/s | -13.7°C | 10.6% | 465.6hPa | 2.6V | 00:00:00 | 01:42:53 | 00:00:00 | |
| GOEST3-10 | 2026-09-04 08:15:44 | 52.59448 | 9.84141 | 101° | 135km/h | 6308m | -6.0m/s | -13.8°C | 10.4% | 465.3hPa | 2.6V | 00:00:00 | 01:42:52 | 00:00:00 | |
| DK9SH | 2026-09-04 08:15:43 | 52.59448 | 9.84141 | 101° | 137km/h | 6308m | -6.0m/s | -13.8°C | 9.7% | 465.4hPa | 2.6V | 00:00:00 | 00:00:00 | 00:00:00 | |
| DL1XH-15 | 2026-09-04 08:15:42 | 52.59479 | 9.83867 | 100° | 133km/h | 6340m | -6.1m/s | -14°C | 9.8% | 463.3hPa | 2.6V | 08:03:09 | 01:42:47 | 00:00:00 | |
| DF8AY | 2026-09-04 08:15:42 | 52.59460 | 9.84031 | 101° | 135km/h | 6320m | -6.9m/s | -13.9°C | 11% | 464.5hPa | 2.7V | 08:03:56 | 01:42:50 | 00:00:00 | |
| DO2SHX-10 | 2026-09-04 08:15:42 | 52.59460 | 9.84031 | 101° | 135km/h | 6320m | -6.9m/s | -13.8°C | 10.1% | 464.4hPa | 2.7V | 00:00:00 | 01:42:50 | 00:00:00 | |
| DD1CC3-15 | 2026-09-04 08:15:41 | 52.59460 | 9.84031 | 102° | 135km/h | 6320m | -6.9m/s | -13.9°C | 9.4% | 464.5hPa | 2.7V | 08:03:00 | 00:00:00 | 00:00:00 | |
| DB0DAN | 2026-09-04 08:15:40 | 52.59473 | 9.83921 | 101° | 128km/h | 6333m | -6.5m/s | -14°C | 9.2% | 463.75hPa | 2.7V | 00:00:00 | 00:00:00 | 00:00:00 | |
| AA1-15 | 2026-09-04 08:15:40 | 52.59473 | 9.83921 | 101° | 133km/h | 6333m | -6.5m/s | -14°C | 10.7% | 463.8hPa | 2.7V | 08:03:56 | 01:42:48 | 00:00:00 | |
| DL1XH-west | 2026-09-04 08:15:37 | 52.59491 | 9.83756 | 101° | 137km/h | 6352m | -6.3m/s | -14.1°C | 10.3% | 462.6hPa | 2.6V | 08:03:56 | 01:42:45 | 00:00:00 | |
| BIOWL1-15 | 2026-09-04 08:15:36 | 52.59498 | 9.83700 | 102° | 137km/h | 6358m | -5.7m/s | -14.1°C | 10.3% | 462.2hPa | 2.7V | 08:03:56 | 01:42:44 | 00:00:00 | |
| DO2SHX-10 | 2026-09-04 08:15:36 | 52.59498 | 9.83700 | 102° | 139km/h | 6358m | -5.7m/s | -14.1°C | 9.5% | 462.2hPa | 2.6V | 00:00:00 | 01:42:44 | 00:00:00 | |
| DL8OAI-8 | 2026-09-04 08:15:35 | 52.59498 | 9.83700 | 102° | 137km/h | 6358m | -5.7m/s | -14.1°C | 8.8% | 462.3hPa | 2.6V | 08:03:00 | 00:00:00 | 00:00:00 | |
| SONCRA | 2026-09-04 08:15:34 | 52.59519 | 9.83531 | 102° | 139km/h | 6378m | -7.0m/s | -14.3°C | 8.8% | 461.0hPa | 2.6V | 00:00:00 | 00:00:00 | 00:00:00 | |
| DO2SHX-10 | 2026-09-04 08:15:33 | 52.59519 | 9.83531 | 103° | 139km/h | 6378m | -7.0m/s | -14.2°C | 9.5% | 460.9hPa | 2.6V | 00:00:00 | 01:42:41 | 00:00:00 | |
| DL1XH-15 | 2026-09-04 08:15:32 | 52.59551 | 9.83306 | 103° | 137km/h | 6404m | -6.5m/s | -14.4°C | 9.4% | 459.3hPa | 2.7V | 08:03:19 | 01:42:37 | 00:00:00 | |
| DF8AY | 2026-09-04 08:15:31 | 52.59535 | 9.83418 | 103° | 139km/h | 6391m | -7m/s | -14.3°C | 10.1% | 460.1hPa | 2.7V | 08:03:56 | 01:42:39 | 00:00:00 | |
| AA1-15 | 2026-09-04 08:15:29 | 52.59551 | 9.83306 | 104° | 137km/h | 6404m | -6.5m/s | -14.4°C | 10% | 459.3hPa | 2.7V | 08:03:56 | 01:42:37 | 00:00:00 | |
| GOEST3-10 | 2026-09-04 08:15:29 | 52.59551 | 9.83306 | 104° | 137km/h | 6405m | -6.4m/s | -14.4°C | 9.4% | 459.3hPa | 2.7V | 00:00:00 | 00:00:00 | 00:00:00 | |
| DL1XH1-15 | 2026-09-04 08:15:27 | 52.59590 | 9.83031 | 103° | 137km/h | 6436m | -6.6m/s | -14.6°C | 9.5% | 457.4hPa | 2.7V | 08:03:24 | 01:42:32 | 00:00:00 | |
| BIOWL1-15 | 2026-09-04 08:15:27 | 52.59582 | 9.83086 | 103° | 137km/h | 6430m | -6.1m/s | -14.6°C | 9.9% | 457.8hPa | 2.7V | 08:03:56 | 01:42:33 | 00:00:00 | |
| DL1XH-west | 2026-09-04 08:15:26 | 52.59574 | 9.83141 | 103° | 137km/h | 6424m | -6.6m/s | -14.6°C | 9.9% | 458.1hPa | 2.7V | 08:03:56 | 01:42:34 | 00:00:00 | |
| DB0DAN | 2026-09-04 08:15:25 | 52.59582 | 9.83086 | 103° | 130km/h | 6430m | -6.1m/s | -14.6°C | 8.7% | 457.8hPa | 2.7V | 00:00:00 | 00:00:00 | 00:00:00 | |
| DF8AY | 2026-09-04 08:15:20 | 52.59621 | 9.82807 | 104° | 139km/h | 6463m | -7.3m/s | -14.7°C | 9.8% | 455.8hPa | 2.7V | 08:03:56 | 01:42:28 | 00:00:00 | |
| AA1-15 | 2026-09-04 08:15:18 | 52.59637 | 9.82694 | 103° | 141km/h | 6478m | -7.2m/s | -14.8°C | 10.3% | 454.8hPa | 2.7V | 08:03:56 | 01:42:26 | 00:00:00 | |
| DL4XJ-10 | 2026-09-04 08:15:18 | 52.59637 | 9.82694 | 104° | 141km/h | 6478m | -7.2m/s | -15.3°C | 0% | 0hPa | 2.7V | 00:00:00 | 00:00:00 | 00:00:00 | |
| DL1XH1-15 | 2026-09-04 08:15:17 | 52.59672 | 9.82467 | 104° | 141km/h | 6508m | -7.3m/s | -15.1°C | 10.2% | 453hPa | 2.7V | 08:03:34 | 01:42:22 | 00:00:00 | |
| BIOWL1-15 | 2026-09-04 08:15:16 | 52.59672 | 9.82467 | 104° | 141km/h | 6508m | -7.3m/s | -15.1°C | 11% | 453hPa | 2.7V | 08:03:56 | 01:42:22 | 00:00:00 | |
| DL1XH-west | 2026-09-04 08:15:15 | 52.59663 | 9.82524 | 104° | 142km/h | 6500m | -7.6m/s | -15°C | 11% | 453.6hPa | 2.6V | 08:03:56 | 01:42:23 | 00:00:00 | |
| DO2SHX-10 | 2026-09-04 08:15:14 | 52.59672 | 9.82467 | 105° | 142km/h | 6508m | -7.2m/s | -15.1°C | 10.2% | 452.9hPa | 2.7V | 00:00:00 | 01:42:22 | 00:00:00 | |
| DF8AY-15 | 2026-09-04 08:15:12 | 52.59689 | 9.82352 | 104° | 142km/h | 6523m | -7.8m/s | -15.2°C | 10.3% | 452.1hPa | 2.7V | 00:00:00 | 01:42:20 | 00:00:00 | |
| DL1XH-15 | 2026-09-04 08:15:11 | 52.59713 | 9.82181 | 101° | 139km/h | 6546m | -7.5m/s | -15.4°C | 11.1% | 450.8hPa | 2.7V | 08:03:39 | 01:42:17 | 00:00:00 | |
| DB0DAN | 2026-09-04 08:15:10 | 52.59705 | 9.82238 | 103° | 133km/h | 6539m | -7.8m/s | -15.4°C | 10% | 451.21hPa | 2.6V | 00:00:00 | 00:00:00 | 00:00:00 | |
| DF8AY | 2026-09-04 08:15:10 | 52.59705 | 9.82238 | 103° | 141km/h | 6539m | -7.8m/s | -15.4°C | 11.7% | 451.2hPa | 2.6V | 08:03:56 | 01:42:18 | 00:00:00 | |
| GOEST3-10 | 2026-09-04 08:15:09 | 52.59713 | 9.82181 | 102° | 141km/h | 6546m | -7.5m/s | -15.4°C | 11.1% | 450.7hPa | 2.7V | 00:00:00 | 00:00:00 | 00:00:00 | |
| DO2SHX-10 | 2026-09-04 08:15:08 | 52.59720 | 9.82125 | 102° | 141km/h | 6554m | -7.2m/s | -15.5°C | 11.4% | 450.2hPa | 2.7V | 00:00:00 | 01:42:16 | 00:00:00 | |
| DL1XH1-15 | 2026-09-04 08:15:07 | 52.59747 | 9.81895 | 100° | 141km/h | 6581m | -6.7m/s | -15.5°C | 22.5% | 448.7hPa | 2.6V | 08:03:44 | 01:42:12 | 00:00:00 | |
| AA1-15 | 2026-09-04 08:15:07 | 52.59727 | 9.82068 | 101° | 141km/h | 6560m | -6.2m/s | -15.5°C | 13.4% | 450hPa | 2.7V | 08:03:56 | 01:42:15 | 00:00:00 | |
| BIOWL1-15 | 2026-09-04 08:15:05 | 52.59753 | 9.81838 | 100° | 141km/h | 6587m | -5.9m/s | -15.5°C | 25.8% | 448.2hPa | 2.6V | 08:03:56 | 01:42:11 | 00:00:00 | |
| DM0DOS-11 | 2026-09-04 08:15:05 | 52.59773 | 9.81664 | 100° | 142km/h | 6606m | -5.8m/s | -15.6°C | 26.3% | 447.2hPa | 2.7V | 08:03:48 | 01:42:08 | 00:00:00 | |
| DF8AY | 2026-09-04 08:15:04 | 52.59780 | 9.81606 | 101° | 142km/h | 6612m | -6.7m/s | -15.6°C | 30.2% | 446.7hPa | 2.6V | 08:03:56 | 01:42:07 | 00:00:00 | |
| DL1XH-west | 2026-09-04 08:15:04 | 52.59747 | 9.81895 | 101° | 141km/h | 6581m | -6.7m/s | -15.5°C | 24.8% | 448.7hPa | 2.6V | 08:03:56 | 01:42:12 | 00:00:00 | |
| AA1-15 | 2026-09-04 08:14:57 | 52.59794 | 9.81490 | 101° | 142km/h | 6625m | -6.8m/s | -15.6°C | 32.6% | 446hPa | 2.7V | 08:03:56 | 01:42:05 | 00:00:00 | |
| DL3AQ-11 | 2026-09-04 08:14:56 | 52.59807 | 9.81374 | 99° | 142km/h | 6639m | -6.6m/s | -15.7°C | 29.9% | 445.1hPa | 2.7V | 00:00:00 | 00:00:00 | 00:00:00 | |
| DM0DOS-11 | 2026-09-04 08:14:55 | 52.59839 | 9.81079 | 99° | 144km/h | 6672m | -6.8m/s | -15.6°C | 16.8% | 443.2hPa | 2.7V | 08:03:58 | 01:41:58 | 00:00:00 | |
| DB0DAN | 2026-09-04 08:14:55 | 52.59807 | 9.81374 | 100° | 137km/h | 6639m | -6.6m/s | -15.7°C | 29.9% | 445.12hPa | 2.7V | 00:00:00 | 00:00:00 | 00:00:00 | |
| DL1XH-west | 2026-09-04 08:14:54 | 52.59814 | 9.81315 | 100° | 144km/h | 6646m | -6.8m/s | -15.6°C | 34.4% | 444.8hPa | 2.7V | 08:03:56 | 01:42:02 | 00:00:00 | |
| BIOWL1-15 | 2026-09-04 08:14:54 | 52.59826 | 9.81197 | 100° | 144km/h | 6659m | -6.4m/s | -15.6°C | 31.9% | 444hPa | 2.6V | 08:03:56 | 01:42:00 | 00:00:00 | |
| DB0NH | 2026-09-04 08:14:54 | 52.59814 | 9.81315 | 100° | 146km/h | 6646m | -6.7m/s | -15.6°C | 31.7% | 444.7hPa | 2.7V | 00:00:00 | 01:42:02 | 00:00:00 | |
| DO2SHX-10 | 2026-09-04 08:14:53 | 52.59820 | 9.81256 | 100° | 144km/h | 6653m | -6.6m/s | -15.5°C | 30.9% | 444.3hPa | 2.7V | 00:00:00 | 01:42:01 | 00:00:00 | |
| DF8AY-15 | 2026-09-04 08:14:52 | 52.59826 | 9.81197 | 101° | 146km/h | 6659m | -6.4m/s | -15.5°C | 29.0% | 444.0hPa | 2.7V | 00:00:00 | 01:42:00 | 00:00:00 | |
| DL1XH-15 | 2026-09-04 08:14:51 | 52.59845 | 9.81020 | 99° | 144km/h | 6678m | -6.5m/s | -15.6°C | 12.7% | 443hPa | 2.7V | 08:03:59 | 01:41:57 | 00:00:00 | |
| DF8AY | 2026-09-04 08:14:49 | 52.59845 | 9.81020 | 99° | 144km/h | 6678m | -6.5m/s | -15.6°C | 14.1% | 443hPa | 2.7V | 08:04:47 | 01:41:57 | 00:00:00 | |
| GOEST3-10 | 2026-09-04 08:14:49 | 52.59845 | 9.81020 | 100° | 146km/h | 6679m | -6.4m/s | -15.6°C | 12.7% | 442.9hPa | 2.7V | 08:03:00 | 00:00:00 | 00:00:00 | |
| DF2AP-13 | 2026-09-04 08:14:48 | 52.59850 | 9.80960 | 99° | 146km/h | 6685m | -6.7m/s | -15.6°C | 11.1% | 442.5hPa | 2.6V | 00:00:00 | 01:41:56 | 00:00:00 | |
| DL1XH1-15 | 2026-09-04 08:14:47 | 52.59874 | 9.80723 | 99° | 144km/h | 6710m | -6.6m/s | -15.7°C | 12.2% | 440.9hPa | 2.6V | 08:04:04 | 01:41:52 | 00:00:00 | |
| AA1-15 | 2026-09-04 08:14:47 | 52.59856 | 9.80901 | 99° | 146km/h | 6692m | -6.4m/s | -15.7°C | 13.3% | 442.1hPa | 2.6V | 08:04:47 | 01:41:55 | 00:00:00 | |
| DO2SHX-10 | 2026-09-04 08:14:47 | 52.59856 | 9.80901 | 99° | 146km/h | 6692m | -6.3m/s | -15.6°C | 11.9% | 442.1hPa | 2.6V | 00:00:00 | 01:41:55 | 00:00:00 | |
| DO2LYB-13 | 2026-09-04 08:14:46 | 52.59856 | 9.80901 | 100° | 146km/h | 6692m | -6.4m/s | -15.7°C | 11.1% | 442.1hPa | 2.6V | 00:00:00 | 00:00:00 | 00:00:00 | |
| DM0DOS-11 | 2026-09-04 08:14:45 | 52.59900 | 9.80483 | 100° | 148km/h | 6736m | -6.8m/s | -15.9°C | 12.6% | 439.5hPa | 2.6V | 08:04:08 | 01:41:48 | 00:00:00 | |
| DL1XH-west | 2026-09-04 08:14:43 | 52.59880 | 9.80663 | 100° | 146km/h | 6717m | -6.6m/s | -15.8°C | 13.7% | 440.6hPa | 2.7V | 08:04:47 | 01:41:51 | 00:00:00 | |
| BIOWL1-15 | 2026-09-04 08:14:42 | 52.59886 | 9.80603 | 100° | 148km/h | 6723m | -6.1m/s | -15.8°C | 12.5% | 440.2hPa | 2.7V | 08:04:47 | 01:41:50 | 00:00:00 | |
| DL1XH-15 | 2026-09-04 08:14:41 | 52.59907 | 9.80423 | 100° | 146km/h | 6743m | -7m/s | -16°C | 12.3% | 439.1hPa | 2.6V | 08:04:09 | 01:41:47 | 00:00:00 | |
| DB0DAN | 2026-09-04 08:14:40 | 52.59900 | 9.80483 | 101° | 141km/h | 6736m | -6.8m/s | -15.9°C | 11.7% | 439.47hPa | 2.6V | 00:00:00 | 00:00:00 | 00:00:00 | |
| DF8AY | 2026-09-04 08:14:38 | 52.59914 | 9.80363 | 100° | 146km/h | 6749m | -6.5m/s | -16°C | 13.5% | 438.7hPa | 2.6V | 08:04:47 | 01:41:46 | 00:00:00 | |
| DL4XJ-10 | 2026-09-04 08:14:38 | 52.59914 | 9.80363 | 101° | 146km/h | 6749m | -6.5m/s | -16.5°C | 0% | 0hPa | 2.7V | 00:00:00 | 00:00:00 | 00:00:00 | |
| DL1XH1-15 | 2026-09-04 08:14:37 | 52.59937 | 9.80125 | 98° | 144km/h | 6776m | -6.9m/s | -16.2°C | 11% | 437.2hPa | 2.7V | 08:04:14 | 01:41:42 | 00:00:00 | |
| AA1-15 | 2026-09-04 08:14:36 | 52.59925 | 9.80244 | 99° | 146km/h | 6763m | -6.2m/s | -16.1°C | 13.2% | 437.9hPa | 2.7V | 08:04:47 | 01:41:44 | 00:00:00 | |
| DL4BBY-15 | 2026-09-04 08:14:36 | 52.59925 | 9.80244 | 99° | 146km/h | 6762m | -6.2m/s | -16.6°C | 0% | 0hPa | 2.6V | 00:00:00 | 00:00:00 | 00:00:00 | |
| DM0DOS-11 | 2026-09-04 08:14:35 | 52.59956 | 9.79888 | 97° | 146km/h | 6803m | -7m/s | -16.4°C | 10.2% | 435.6hPa | 2.6V | 08:04:18 | 01:41:38 | 00:00:00 | |
| DL1XH-west | 2026-09-04 08:14:32 | 52.59947 | 9.80007 | 97° | 144km/h | 6789m | -7.3m/s | -16.3°C | 11.7% | 436.3hPa | 2.6V | 08:04:47 | 01:41:40 | 00:00:00 | |
| DL3AQ-11 | 2026-09-04 08:14:32 | 52.59951 | 9.79947 | 97° | 144km/h | 6796m | -6.8m/s | -16.4°C | 9.7% | 436.0hPa | 2.7V | 00:00:00 | 00:00:00 | 00:00:00 | |
| DL1XH-15 | 2026-09-04 08:14:31 | 52.59961 | 9.79827 | 97° | 146km/h | 6809m | -6.4m/s | -16.5°C | 10.1% | 435.2hPa | 2.7V | 08:04:19 | 01:41:37 | 00:00:00 | |
| BIOWL1-15 | 2026-09-04 08:14:31 | 52.59951 | 9.79947 | 97° | 144km/h | 6796m | -6.8m/s | -16.4°C | 11.4% | 436hPa | 2.6V | 08:04:47 | 01:41:39 | 00:00:00 | |
| DF8AY | 2026-09-04 08:14:27 | 52.59970 | 9.79708 | 98° | 144km/h | 6822m | -6.4m/s | -16.5°C | 10.4% | 434.4hPa | 2.7V | 08:04:47 | 01:41:35 | 00:00:00 | |
| DL1XH1-15 | 2026-09-04 08:14:27 | 52.59985 | 9.79527 | 98° | 146km/h | 6842m | -7.1m/s | -16.6°C | 10.5% | 433.2hPa | 2.7V | 08:04:24 | 01:41:32 | 00:00:00 | |
| AA1-15 | 2026-09-04 08:14:26 | 52.59975 | 9.79648 | 98° | 146km/h | 6829m | -6.8m/s | -16.6°C | 10.4% | 434.1hPa | 2.6V | 08:04:47 | 01:41:34 | 00:00:00 | |
| DB0DAN | 2026-09-04 08:14:25 | 52.59980 | 9.79588 | 98° | 141km/h | 6835m | -7.2m/s | -16.6°C | 9.3% | 433.67hPa | 2.6V | 00:00:00 | 00:00:00 | 00:00:00 | |
| DL1XH-west | 2026-09-04 08:14:22 | 52.59996 | 9.79408 | 98° | 144km/h | 6856m | -5.9m/s | -16.7°C | 12.1% | 432.4hPa | 2.6V | 08:04:47 | 01:41:30 | 00:00:00 | |
| DB0UT-7 | 2026-09-04 08:14:22 | 52.59996 | 9.79408 | 99° | 146km/h | 6857m | -5.8m/s | -16.6°C | 11.1% | 432.4hPa | 2.7V | 00:00:00 | 00:00:00 | 00:00:00 | |
| DL1XH-15 | 2026-09-04 08:14:21 | 52.60009 | 9.79228 | 95° | 146km/h | 6878m | -7.5m/s | -16.8°C | 15.8% | 431.3hPa | 2.7V | 08:04:29 | 01:41:27 | 00:00:00 | |
| BIOWL1-15 | 2026-09-04 08:14:21 | 52.60001 | 9.79348 | 98° | 144km/h | 6863m | -7.3m/s | -16.7°C | 13.3% | 432.1hPa | 2.6V | 08:04:47 | 01:41:29 | 00:00:00 | |
| SMARD9-15 | 2026-09-04 08:14:20 | 52.60009 | 9.79228 | 95° | 144km/h | 6878m | -7.5m/s | -16.8°C | 14.7% | 431.3hPa | 2.6V | 00:00:00 | 00:00:00 | 00:00:00 | |
| DJ2DS-15 | 2026-09-04 08:14:19 | 52.60013 | 9.79168 | 96° | 146km/h | 6885m | -6.6m/s | -16.8°C | 16.8% | 430.9hPa | 2.6V | 00:00:00 | 00:00:00 | 00:00:00 | |
| DL4XJ-10 | 2026-09-04 08:14:18 | 52.60013 | 9.79168 | 97° | 148km/h | 6885m | -6.5m/s | -17.4°C | 0% | 0hPa | 2.6V | 00:00:00 | 00:00:00 | 00:00:00 | |
| DL1XH1-15 | 2026-09-04 08:14:17 | 52.60027 | 9.78927 | 94° | 146km/h | 6914m | -6.8m/s | -17.1°C | 24.6% | 429.3hPa | 2.6V | 08:04:34 | 01:41:22 | 00:00:00 | |
| DF8AY | 2026-09-04 08:14:17 | 52.60017 | 9.79108 | 96° | 146km/h | 6892m | -6.9m/s | -16.9°C | 23.1% | 430.6hPa | 2.6V | 08:04:47 | 01:41:25 | 00:00:00 | |
| DD1CC3-15 | 2026-09-04 08:14:16 | 52.60017 | 9.79108 | 97° | 146km/h | 6892m | -6.9m/s | -16.9°C | 19.3% | 430.6hPa | 2.6V | 00:00:00 | 00:00:00 | 00:00:00 | |
| DM0DOS-11 | 2026-09-04 08:14:15 | 52.60037 | 9.78682 | 93° | 148km/h | 6944m | -7.5m/s | -17.3°C | 32.3% | 427.7hPa | 2.6V | 08:04:38 | 01:41:18 | 00:00:00 | |
| AA1-15 | 2026-09-04 08:14:15 | 52.60024 | 9.78988 | 95° | 146km/h | 6907m | -7.4m/s | -17°C | 26.3% | 429.7hPa | 2.6V | 08:04:47 | 01:41:23 | 00:00:00 | |
| BIOWL1-15 | 2026-09-04 08:14:12 | 52.60037 | 9.78682 | 94° | 148km/h | 6944m | -7.5m/s | -17.3°C | 35.5% | 427.7hPa | 2.6V | 08:04:47 | 01:41:18 | 00:00:00 | |
| DL1XH-west | 2026-09-04 08:14:12 | 52.60032 | 9.78805 | 94° | 148km/h | 6929m | -8m/s | -17.2°C | 30% | 428.5hPa | 2.7V | 08:04:47 | 01:41:20 | 00:00:00 | |
| DF8AY-15 | 2026-09-04 08:14:12 | 52.60032 | 9.78805 | 94° | 148km/h | 6929m | -7.9m/s | -17.2°C | 26.9% | 428.5hPa | 2.7V | 00:00:00 | 01:41:20 | 00:00:00 | |
| DB0DAN | 2026-09-04 08:14:10 | 52.60037 | 9.78682 | 93° | 141km/h | 6944m | -7.5m/s | -17.3°C | 30.5% | 427.68hPa | 2.6V | 00:00:00 | 00:00:00 | 00:00:00 | |
| DF8AY | 2026-09-04 08:14:07 | 52.60044 | 9.78498 | 94° | 148km/h | 6965m | -6.7m/s | -17.5°C | 37.6% | 426.4hPa | 2.6V | 08:04:47 | 01:41:15 | 00:00:00 | |
| DL4BBY-15 | 2026-09-04 08:14:06 | 52.60046 | 9.78436 | 94° | 146km/h | 6971m | -6.4m/s | -18.1°C | 0% | 0hPa | 2.6V | 00:00:00 | 00:00:00 | 00:00:00 | |
| DM0DOS-11 | 2026-09-04 08:14:05 | 52.60065 | 9.78066 | 96° | 148km/h | 7011m | -6.9m/s | -17.7°C | 41.7% | 423.8hPa | 2.6V | 08:04:48 | 01:41:08 | 00:00:00 | |
| AA1-15 | 2026-09-04 08:14:04 | 52.60052 | 9.78313 | 95° | 150km/h | 6983m | -6.4m/s | -17.6°C | 41.7% | 425.3hPa | 2.7V | 08:04:47 | 01:41:12 | 00:00:00 | |
| DD8BA-10 | 2026-09-04 08:14:04 | 52.60051 | 9.78313 | 95° | 146km/h | 6984m | -6.4m/s | -17.5°C | 39.0% | 425.3hPa | 2.7V | 08:04:00 | 00:00:00 | 00:00:00 | |
| DL3AQ-11 | 2026-09-04 08:14:03 | 52.60058 | 9.78189 | 94° | 148km/h | 6997m | -6.8m/s | -17.6°C | 38.5% | 424.6hPa | 2.6V | 00:00:00 | 00:00:00 | 00:00:00 | |
| DO2SHX-10 | 2026-09-04 08:14:02 | 52.60058 | 9.78189 | 95° | 148km/h | 6997m | -6.8m/s | -17.6°C | 40.7% | 424.6hPa | 2.6V | 00:00:00 | 01:41:10 | 00:00:00 | |
| DL1XH-15 | 2026-09-04 08:14:01 | 52.60069 | 9.78005 | 96° | 148km/h | 7018m | -7m/s | -17.8°C | 41.3% | 423.4hPa | 2.7V | 08:04:49 | 01:41:07 | 00:00:00 | |
| BIOWL1-15 | 2026-09-04 08:14:01 | 52.60069 | 9.78005 | 97° | 148km/h | 7018m | -7m/s | -17.8°C | 44.5% | 423.4hPa | 2.7V | 08:05:38 | 01:41:07 | 00:00:00 | |
| DL1XH-west | 2026-09-04 08:14:01 | 52.60061 | 9.78128 | 96° | 150km/h | 7004m | -7.5m/s | -17.7°C | 44% | 424.2hPa | 2.6V | 08:04:47 | 01:41:09 | 00:00:00 | |
| DF8AY | 2026-09-04 08:13:57 | 52.60078 | 9.77885 | 96° | 144km/h | 7032m | -7.4m/s | -17.9°C | 43.4% | 422.6hPa | 2.6V | 08:05:38 | 01:41:05 | 00:00:00 | |
| DB0ND-19 | 2026-09-04 08:13:57 | 52.60078 | 9.77885 | 96° | 142km/h | 7032m | -7.4m/s | -17.9°C | 38.1% | 422.6hPa | 2.6V | 00:00:00 | 00:00:00 | 00:00:00 | |
| DB0DAN | 2026-09-04 08:13:55 | 52.60084 | 9.77766 | 95° | 137km/h | 7046m | -6.8m/s | -18°C | 38.7% | 421.85hPa | 2.6V | 00:00:00 | 00:00:00 | 00:00:00 | |
| DM0DOS-11 | 2026-09-04 08:13:55 | 52.60100 | 9.77466 | 95° | 144km/h | 7078m | -6.2m/s | -18.3°C | 41.4% | 420hPa | 2.6V | 08:04:58 | 01:40:58 | 00:00:00 | |
| AA1-15 | 2026-09-04 08:13:53 | 52.60090 | 9.77646 | 94° | 146km/h | 7059m | -6.3m/s | -18.1°C | 43.9% | 421hPa | 2.7V | 08:05:38 | 01:41:01 | 00:00:00 | |
| DL3AQ-11 | 2026-09-04 08:13:52 | 52.60096 | 9.77526 | 95° | 144km/h | 7072m | -6.2m/s | -18.2°C | 39.2% | 420.3hPa | 2.6V | 00:00:00 | 00:00:00 | 00:00:00 | |
| DL1XH-15 | 2026-09-04 08:13:51 | 52.60103 | 9.77406 | 95° | 144km/h | 7084m | -6.6m/s | -18.3°C | 41.6% | 419.6hPa | 2.6V | 08:04:59 | 01:40:57 | 00:00:00 | |
| DL1XH-west | 2026-09-04 08:13:51 | 52.60096 | 9.77526 | 95° | 146km/h | 7072m | -6.2m/s | -18.2°C | 44.4% | 420.3hPa | 2.6V | 08:05:38 | 01:40:59 | 00:00:00 | |
| BIOWL1-15 | 2026-09-04 08:13:48 | 52.60106 | 9.77346 | 94° | 142km/h | 7091m | -7.1m/s | -18.4°C | 45.1% | 419.3hPa | 2.7V | 08:05:38 | 01:40:56 | 00:00:00 | |
| DF2AP-13 | 2026-09-04 08:13:48 | 52.60106 | 9.77346 | 95° | 142km/h | 7091m | -7.1m/s | -18.3°C | 42.1% | 419.2hPa | 2.6V | 00:00:00 | 01:40:56 | 00:00:00 | |
| DL1XH1-15 | 2026-09-04 08:13:47 | 52.60117 | 9.77108 | 95° | 144km/h | 7115m | -6.1m/s | -18.5°C | 43.1% | 417.9hPa | 2.6V | 08:05:04 | 01:40:52 | 00:00:00 | |
| DF8AY | 2026-09-04 08:13:46 | 52.60111 | 9.77227 | 94° | 144km/h | 7104m | -6.1m/s | -18.5°C | 45.1% | 418.6hPa | 2.7V | 08:05:38 | 01:40:54 | 00:00:00 | |
| D01LWL | 2026-09-04 08:13:45 | 52.60117 | 9.77108 | 95° | 144km/h | 7115m | -6.1m/s | -18.5°C | 40.7% | 417.9hPa | 2.6V | 00:00:00 | 00:00:00 | 00:00:00 | |
| DM0DOS-11 | 2026-09-04 08:13:45 | 52.60131 | 9.76867 | 95° | 146km/h | 7139m | -5.5m/s | -18.8°C | 43.8% | 416.5hPa | 2.7V | 08:05:08 | 01:40:48 | 00:00:00 | |
| AA1-15 | 2026-09-04 08:13:42 | 52.60124 | 9.76988 | 95° | 146km/h | 7127m | -5.8m/s | -18.7°C | 46.4% | 417.2hPa | 2.6V | 08:05:38 | 01:40:50 | 00:00:00 | |
| DL1XH-15 | 2026-09-04 08:13:41 | 52.60135 | 9.76807 | 94° | 146km/h | 7145m | -7.4m/s | -18.8°C | 44% | 416.1hPa | 2.6V | 08:05:09 | 01:40:47 | 00:00:00 | |
| DB0DAN | 2026-09-04 08:13:40 | 52.60132 | 9.76867 | 96° | 139km/h | 7139m | -5.5m/s | -18.8°C | 41.4% | 416.48hPa | 2.7V | 00:00:00 | 00:00:00 | 00:00:00 | |
| DL1XH-west | 2026-09-04 08:13:40 | 52.60132 | 9.76867 | 96° | 146km/h | 7139m | -5.5m/s | -18.8°C | 46.9% | 416.5hPa | 2.7V | 08:05:38 | 01:40:48 | 00:00:00 | |
| BIOWL1-15 | 2026-09-04 08:13:40 | 52.60138 | 9.76746 | 94° | 148km/h | 7152m | -5.8m/s | -18.9°C | 47.4% | 415.8hPa | 2.6V | 08:05:38 | 01:40:46 | 00:00:00 | |
| GOEST3-10 | 2026-09-04 08:13:39 | 52.60135 | 9.76806 | 95° | 148km/h | 7145m | -7.3m/s | -18.8°C | 44.0% | 416.1hPa | 2.6V | 00:00:00 | 00:00:00 | 00:00:00 | |
| DL4XJ-10 | 2026-09-04 08:13:38 | 52.60138 | 9.76745 | 95° | 142km/h | 7152m | -5.8m/s | -19.4°C | 0% | 0hPa | 2.7V | 00:00:00 | 00:00:00 | 00:00:00 | |
| DL1XH1-15 | 2026-09-04 08:13:37 | 52.60152 | 9.76503 | 96° | 144km/h | 7177m | -4.8m/s | -19.1°C | 45.4% | 414.4hPa | 2.7V | 08:05:14 | 01:40:42 | 00:00:00 | |
| DM0DOS-11 | 2026-09-04 08:13:35 | 52.60167 | 9.76272 | 95° | 137km/h | 7198m | -6.2m/s | -19.4°C | 46.5% | 413.2hPa | 2.7V | 08:05:18 | 01:40:38 | 00:00:00 | |
| DF8AY | 2026-09-04 08:13:35 | 52.60147 | 9.76563 | 96° | 146km/h | 7171m | -7.2m/s | -19.1°C | 48.4% | 414.9hPa | 2.7V | 08:05:38 | 01:40:43 | 00:00:00 | |
| AA1-15 | 2026-09-04 08:13:32 | 52.60160 | 9.76386 | 97° | 139km/h | 7188m | -6m/s | -19.3°C | 49.7% | 413.8hPa | 2.6V | 08:05:38 | 01:40:40 | 00:00:00 | |
| DF8AY-15 | 2026-09-04 08:13:32 | 52.60160 | 9.76386 | 97° | 142km/h | 7188m | -6.0m/s | -19.2°C | 45.9% | 413.8hPa | 2.7V | 00:00:00 | 01:40:40 | 00:00:00 | |
| DL1XH-15 | 2026-09-04 08:13:31 | 52.60170 | 9.76216 | 94° | 137km/h | 7205m | -6.6m/s | -19.5°C | 46.7% | 413hPa | 2.7V | 08:05:19 | 01:40:37 | 00:00:00 | |
| DL1XH-west | 2026-09-04 08:13:30 | 52.60167 | 9.76272 | 96° | 137km/h | 7199m | -6.2m/s | -19.4°C | 50.3% | 413.2hPa | 2.7V | 08:05:38 | 01:40:38 | 00:00:00 | |
| BIOWL1-15 | 2026-09-04 08:13:27 | 52.60176 | 9.76102 | 94° | 139km/h | 7217m | -6.4m/s | -19.7°C | 50.9% | 412.2hPa | 2.6V | 08:05:38 | 01:40:35 | 00:00:00 | |
| DB0DAN | 2026-09-04 08:13:25 | 52.60179 | 9.75986 | 92° | 135km/h | 7229m | -6m/s | -19.9°C | 45.9% | 411.52hPa | 2.7V | 00:00:00 | 00:00:00 | 00:00:00 | |
| DF8AY | 2026-09-04 08:13:25 | 52.60179 | 9.75986 | 92° | 141km/h | 7230m | -6m/s | -19.9°C | 51.6% | 411.5hPa | 2.7V | 08:05:38 | 01:40:33 | 00:00:00 | |
| AA1-15 | 2026-09-04 08:13:22 | 52.60185 | 9.75807 | 94° | 144km/h | 7249m | -6.5m/s | -20.2°C | 52.4% | 410.4hPa | 2.6V | 08:05:38 | 01:40:30 | 00:00:00 | |
| DB0UT-7 | 2026-09-04 08:13:22 | 52.60185 | 9.75807 | 94° | 142km/h | 7249m | -6.4m/s | -20.2°C | 49.8% | 410.4hPa | 2.6V | 00:00:00 | 00:00:00 | 00:00:00 | |
| DL1XH-15 | 2026-09-04 08:13:21 | 52.60194 | 9.75628 | 95° | 142km/h | 7269m | -6.4m/s | -20.5°C | 51.6% | 409.3hPa | 2.7V | 08:05:29 | 01:40:27 | 00:00:00 | |
| DL1XH-west | 2026-09-04 08:13:19 | 52.60195 | 9.75628 | 95° | 142km/h | 7269m | -6.4m/s | -20.5°C | 53.6% | 409.3hPa | 2.7V | 08:05:38 | 01:40:27 | 00:00:00 | |
| BIOWL1-15 | 2026-09-04 08:13:17 | 52.60201 | 9.75510 | 95° | 144km/h | 7281m | -6.2m/s | -20.7°C | 54.2% | 408.6hPa | 2.7V | 08:05:38 | 01:40:25 | 00:00:00 | |
| DF8AY | 2026-09-04 08:13:15 | 52.60207 | 9.75390 | 94° | 144km/h | 7293m | -6m/s | -20.9°C | 54.3% | 407.9hPa | 2.6V | 08:05:38 | 01:40:23 | 00:00:00 | |
| DD8BA-10 | 2026-09-04 08:13:14 | 52.60209 | 9.75330 | 94° | 146km/h | 7299m | -5.7m/s | -20.9°C | 52.9% | 407.5hPa | 2.6V | 00:00:00 | 00:00:00 | 00:00:00 | |
| DO2SHX-10 | 2026-09-04 08:13:13 | 52.60211 | 9.75269 | 94° | 148km/h | 7305m | -6.2m/s | -21.0°C | 52.6% | 407.2hPa | 2.6V | 00:00:00 | 01:40:21 | 00:00:00 | |
| DL3AQ-11 | 2026-09-04 08:13:12 | 52.60216 | 9.75146 | 94° | 148km/h | 7318m | -7.1m/s | -21.3°C | 50.0% | 406.6hPa | 2.6V | 00:00:00 | 00:00:00 | 00:00:00 | |
| DL1XH-15 | 2026-09-04 08:13:11 | 52.60223 | 9.75024 | 94° | 146km/h | 7331m | -6.2m/s | -21.4°C | 54.5% | 405.9hPa | 2.6V | 08:05:39 | 01:40:17 | 00:00:00 | |
| AA1-15 | 2026-09-04 08:13:11 | 52.60216 | 9.75146 | 95° | 148km/h | 7318m | -7.1m/s | -21.3°C | 53.2% | 406.6hPa | 2.6V | 08:05:38 | 01:40:19 | 00:00:00 | |
| DB0DAN | 2026-09-04 08:13:10 | 52.60220 | 9.75085 | 95° | 141km/h | 7324m | -6.5m/s | -21.3°C | 50.7% | 406.16hPa | 2.6V | 00:00:00 | 00:00:00 | 00:00:00 | |
| DL1XH-west | 2026-09-04 08:13:08 | 52.60226 | 9.74964 | 95° | 146km/h | 7337m | -6.5m/s | -21.5°C | 54.1% | 405.5hPa | 2.7V | 08:06:29 | 01:40:16 | 00:00:00 | |
| DF5WG-10 | 2026-09-04 08:13:08 | 52.60226 | 9.74964 | 96° | 141km/h | 7337m | -6.5m/s | -21.4°C | 55.2% | 405.4hPa | 2.7V | 00:00:00 | 01:40:16 | 00:00:00 | |
| DL1XH1-15 | 2026-09-04 08:13:07 | 52.60236 | 9.74731 | 93° | 139km/h | 7365m | -8.2m/s | -21.8°C | 55% | 404.1hPa | 2.6V | 08:05:44 | 01:40:12 | 00:00:00 | |
| BIOWL1-15 | 2026-09-04 08:13:06 | 52.60232 | 9.74846 | 94° | 141km/h | 7350m | -6.8m/s | -21.6°C | 54.2% | 404.9hPa | 2.6V | 08:06:29 | 01:40:14 | 00:00:00 | |
| DM0DOS-11 | 2026-09-04 08:13:05 | 52.60244 | 9.74502 | 93° | 137km/h | 7399m | -9.2m/s | -22.2°C | 58% | 402.2hPa | 2.5V | 08:05:48 | 01:40:08 | 00:00:00 | |
| DF8AY | 2026-09-04 08:13:04 | 52.60236 | 9.74731 | 93° | 139km/h | 7365m | -8.2m/s | -21.8°C | 53.3% | 404.1hPa | 2.6V | 08:06:29 | 01:40:12 | 00:00:00 | |
| AA1-15 | 2026-09-04 08:13:01 | 52.60242 | 9.74558 | 94° | 137km/h | 7390m | -8.6m/s | -22.1°C | 54.8% | 402.8hPa | 2.6V | 08:06:29 | 01:40:09 | 00:00:00 | |
| DL1XH-west | 2026-09-04 08:12:58 | 52.60248 | 9.74388 | 94° | 137km/h | 7417m | -8.5m/s | -22.3°C | 56.6% | 401.3hPa | 2.6V | 08:06:29 | 01:40:06 | 00:00:00 | |
| DL1XH1-15 | 2026-09-04 08:12:57 | 52.60260 | 9.74163 | 94° | 135km/h | 7452m | -8.8m/s | -21.2°C | 80.8% | 399.4hPa | 2.5V | 08:05:54 | 01:40:02 | 00:00:00 | |
| DL3AQ-11 | 2026-09-04 08:12:56 | 52.60257 | 9.74219 | 94° | 135km/h | 7444m | -9.2m/s | -21.4°C | 75.2% | 399.9hPa | 2.6V | 00:00:00 | 00:00:00 | 00:00:00 | |
| DB0DAN | 2026-09-04 08:12:55 | 52.60257 | 9.74219 | 95° | 130km/h | 7444m | -9.2m/s | -21.4°C | 75.2% | 399.87hPa | 2.6V | 00:00:00 | 00:00:00 | 00:00:00 | |
| BIOWL1-15 | 2026-09-04 08:12:55 | 52.60257 | 9.74219 | 95° | 135km/h | 7444m | -9.2m/s | -21.4°C | 75.7% | 399.9hPa | 2.6V | 08:06:29 | 01:40:03 | 00:00:00 | |
| DF8AY | 2026-09-04 08:12:54 | 52.60260 | 9.74163 | 95° | 135km/h | 7452m | -8.8m/s | -21.2°C | 78.4% | 399.4hPa | 2.5V | 08:06:29 | 01:40:02 | 00:00:00 | |
| AA1-15 | 2026-09-04 08:12:50 | 52.60272 | 9.73943 | 96° | 131km/h | 7488m | -8.6m/s | -21.4°C | 78.7% | 397.4hPa | 2.5V | 08:06:29 | 01:39:58 | 00:00:00 | |
| DO2SHX-10 | 2026-09-04 08:12:49 | 52.60275 | 9.73889 | 96° | 130km/h | 7497m | -8.8m/s | -21.4°C | 81.8% | 397.0hPa | 2.6V | 00:00:00 | 01:39:57 | 00:00:00 | |
| GOEST3-10 | 2026-09-04 08:12:48 | 52.60278 | 9.73836 | 96° | 131km/h | 7505m | -8.7m/s | -21.4°C | 82.8% | 396.4hPa | 2.6V | 00:00:00 | 00:00:00 | 00:00:00 | |
| DL1XH1-15 | 2026-09-04 08:12:47 | 52.60287 | 9.73619 | 93° | 133km/h | 7539m | -8m/s | -21.3°C | 85.7% | 394.7hPa | 2.6V | 08:06:04 | 01:39:52 | 00:00:00 | |
| DL1XH-west | 2026-09-04 08:12:47 | 52.60281 | 9.73782 | 94° | 130km/h | 7514m | -8.9m/s | -21.4°C | 80.3% | 396hPa | 2.6V | 08:06:29 | 01:39:55 | 00:00:00 | |
| DF2AP-13 | 2026-09-04 08:12:46 | 52.60283 | 9.73728 | 94° | 130km/h | 7522m | -7.8m/s | -21.4°C | 84.1% | 395.5hPa | 2.6V | 00:00:00 | 01:39:54 | 00:00:00 | |
| DM0DOS-11 | 2026-09-04 08:12:45 | 52.60297 | 9.73399 | 95° | 130km/h | 7569m | -7.4m/s | -21.4°C | 87.5% | 393.1hPa | 2.6V | 08:06:08 | 01:39:48 | 00:00:00 | |
| BIOWL1-15 | 2026-09-04 08:12:45 | 52.60285 | 9.73674 | 93° | 131km/h | 7531m | -8.3m/s | -21.4°C | 81.2% | 395.1hPa | 2.5V | 08:06:29 | 01:39:53 | 00:00:00 | |
| DF8AY | 2026-09-04 08:12:43 | 52.60289 | 9.73564 | 94° | 133km/h | 7547m | -8.1m/s | -21.3°C | 83% | 394.3hPa | 2.6V | 08:06:29 | 01:39:51 | 00:00:00 | |
| DL3AQ-11 | 2026-09-04 08:12:43 | 52.60292 | 9.73509 | 93° | 133km/h | 7554m | -7.9m/s | -21.3°C | 82.5% | 393.9hPa | 2.7V | 00:00:00 | 00:00:00 | 00:00:00 | |
| DO2SHX-10 | 2026-09-04 08:12:42 | 52.60292 | 9.73508 | 94° | 131km/h | 7555m | -7.8m/s | -21.3°C | 86.9% | 393.8hPa | 2.7V | 00:00:00 | 01:39:50 | 00:00:00 | |
| DB0DAN | 2026-09-04 08:12:40 | 52.60297 | 9.73399 | 95° | 124km/h | 7569m | -7.4m/s | -21.4°C | 83.1% | 393.1hPa | 2.6V | 00:00:00 | 00:00:00 | 00:00:00 | |
| AA1-15 | 2026-09-04 08:12:39 | 52.60300 | 9.73346 | 96° | 130km/h | 7576m | -7.2m/s | -21.4°C | 83.9% | 392.7hPa | 2.5V | 08:06:29 | 01:39:47 | 00:00:00 | |
| DO2SHX-10 | 2026-09-04 08:12:39 | 52.60300 | 9.73345 | 96° | 130km/h | 7576m | -7.1m/s | -21.4°C | 87.9% | 392.6hPa | 2.5V | 00:00:00 | 01:39:47 | 00:00:00 | |
| DL4XJ-10 | 2026-09-04 08:12:38 | 52.60303 | 9.73292 | 97° | 130km/h | 7583m | -7.2m/s | -21.9°C | 0% | 0hPa | 2.5V | 00:00:00 | 00:00:00 | 00:00:00 | |
| DL1XH1-15 | 2026-09-04 08:12:37 | 52.60316 | 9.73076 | 95° | 133km/h | 7614m | -7.9m/s | -21.6°C | 88.5% | 390.7hPa | 2.5V | 08:06:14 | 01:39:42 | 00:00:00 | |
| DL1XH-west | 2026-09-04 08:12:37 | 52.60307 | 9.73239 | 96° | 128km/h | 7591m | -7.7m/s | -21.5°C | 84.9% | 391.9hPa | 2.7V | 08:06:29 | 01:39:45 | 00:00:00 | |
| DO2SHX-10 | 2026-09-04 08:12:36 | 52.60310 | 9.73185 | 96° | 131km/h | 7599m | -7.5m/s | -21.5°C | 88.7% | 391.5hPa | 2.6V | 00:00:00 | 01:39:44 | 00:00:00 | |
| DM0DOS-11 | 2026-09-04 08:12:35 | 52.60335 | 9.72853 | 99° | 135km/h | 7643m | -7.2m/s | -21.8°C | 88.6% | 389.2hPa | 2.6V | 08:06:18 | 01:39:38 | 00:00:00 | |
| BIOWL1-15 | 2026-09-04 08:12:34 | 52.60316 | 9.73076 | 96° | 133km/h | 7614m | -7.9m/s | -21.6°C | 85.7% | 390.7hPa | 2.5V | 08:06:29 | 01:39:42 | 00:00:00 | |
| DF8AY | 2026-09-04 08:12:33 | 52.60320 | 9.73020 | 97° | 137km/h | 7621m | -7.7m/s | -21.6°C | 86% | 390.3hPa | 2.5V | 08:06:29 | 01:39:41 | 00:00:00 | |
| AA1-15 | 2026-09-04 08:12:29 | 52.60341 | 9.72799 | 101° | 131km/h | 7650m | -7.2m/s | -21.8°C | 86.1% | 388.7hPa | 2.6V | 08:06:29 | 01:39:37 | 00:00:00 | |
| BIOWL9-15 | 2026-09-04 08:12:28 | 52.60354 | 9.72692 | 101° | 128km/h | 7665m | -6.8m/s | -21.9°C | 83.3% | 388.0hPa | 2.6V | 00:00:00 | 00:00:00 | 00:00:00 | |
| DL1XH1-15 | 2026-09-04 08:12:27 | 52.60371 | 9.72536 | 98° | 124km/h | 7686m | -6.4m/s | -22°C | 88.1% | 386.8hPa | 2.6V | 08:06:24 | 01:39:32 | 00:00:00 | |
| DL1XH-west | 2026-09-04 08:12:26 | 52.60360 | 9.72640 | 100° | 128km/h | 7672m | -7.3m/s | -22°C | 85.3% | 387.6hPa | 2.6V | 08:06:29 | 01:39:34 | 00:00:00 | |
| BIOWL1-15 | 2026-09-04 08:12:23 | 52.60375 | 9.72485 | 98° | 124km/h | 7692m | -7.2m/s | -22°C | 86% | 386.6hPa | 2.6V | 08:06:29 | 01:39:31 | 00:00:00 | |
| DF8AY | 2026-09-04 08:12:22 | 52.60379 | 9.72434 | 97° | 124km/h | 7699m | -6.5m/s | -22°C | 86.1% | 386.2hPa | 2.5V | 08:06:29 | 01:39:30 | 00:00:00 | |
| AA1-15 | 2026-09-04 08:12:19 | 52.60388 | 9.72278 | 96° | 126km/h | 7719m | -6.4m/s | -22.1°C | 86.4% | 385.1hPa | 2.6V | 08:06:29 | 01:39:27 | 00:00:00 | |
| DL1XH-west | 2026-09-04 08:12:15 | 52.60405 | 9.72064 | 100° | 133km/h | 7747m | -6.6m/s | -22.3°C | 87% | 383.7hPa | 2.6V | 08:07:20 | 01:39:23 | 00:00:00 | |
| DL1XH-15 | 2026-09-04 08:12:15 | 52.60441 | 9.71732 | 99° | 135km/h | 7790m | -6.6m/s | -22.6°C | 88.2% | 381.4hPa | 2.6V | 08:06:39 | 01:39:17 | 00:00:00 | |
| BIOWL1-15 | 2026-09-04 08:12:13 | 52.60417 | 9.71954 | 101° | 133km/h | 7761m | -7.1m/s | -22.4°C | 86.9% | 383hPa | 2.5V | 08:07:20 | 01:39:21 | 00:00:00 | |
| DF8AY | 2026-09-04 08:12:11 | 52.60429 | 9.71844 | 100° | 135km/h | 7776m | -7.6m/s | -22.5°C | 86.3% | 382.3hPa | 2.6V | 08:07:20 | 01:39:19 | 00:00:00 | |
| DB0DAN | 2026-09-04 08:12:10 | 52.60435 | 9.71788 | 100° | 130km/h | 7783m | -7.2m/s | -22.5°C | 83.6% | 381.81hPa | 2.7V | 00:00:00 | 00:00:00 | 00:00:00 | |
| AA1-15 | 2026-09-04 08:12:09 | 52.60441 | 9.71732 | 99° | 135km/h | 7790m | -6.6m/s | -22.6°C | 85.9% | 381.4hPa | 2.6V | 08:07:20 | 01:39:17 | 00:00:00 | |
| DO2SHX-10 | 2026-09-04 08:12:09 | 52.60441 | 9.71732 | 100° | 135km/h | 7790m | -6.5m/s | -22.5°C | 88.2% | 381.3hPa | 2.6V | 00:00:00 | 01:39:17 | 00:00:00 | |
| GOEST3-10 | 2026-09-04 08:12:08 | 52.60446 | 9.71677 | 99° | 131km/h | 7797m | -6.7m/s | -22.6°C | 88.2% | 381.0hPa | 2.6V | 00:00:00 | 00:00:00 | 00:00:00 | |
| DL1XH1-15 | 2026-09-04 08:12:07 | 52.60463 | 9.71459 | 97° | 126km/h | 7823m | -7.1m/s | -22.8°C | 88.3% | 379.7hPa | 2.7V | 08:06:44 | 01:39:12 | 00:00:00 | |
| BIOWL1-15 | 2026-09-04 08:12:05 | 52.60467 | 9.71407 | 98° | 124km/h | 7830m | -7m/s | -22.9°C | 86.1% | 379.4hPa | 2.6V | 08:07:20 | 01:39:11 | 00:00:00 | |
| DJ2DS-15 | 2026-09-04 08:12:05 | 52.60459 | 9.71512 | 97° | 128km/h | 7816m | -6.3m/s | -22.7°C | 88.2% | 380.1hPa | 2.6V | 00:00:00 | 01:39:13 | 00:00:00 | |
| DL1XH-15 | 2026-09-04 08:12:04 | 52.60488 | 9.71203 | 100° | 128km/h | 7857m | -7.5m/s | -23.1°C | 88.4% | 378hPa | 2.6V | 08:06:49 | 01:39:07 | 00:00:00 | |
| DL1XH-west | 2026-09-04 08:12:04 | 52.60463 | 9.71459 | 97° | 126km/h | 7823m | -7.1m/s | -22.8°C | 86.2% | 379.7hPa | 2.7V | 08:07:20 | 01:39:12 | 00:00:00 | |
| DF8AY | 2026-09-04 08:12:01 | 52.60477 | 9.71305 | 99° | 122km/h | 7844m | -6.5m/s | -22.9°C | 86.6% | 378.7hPa | 2.5V | 08:07:20 | 01:39:09 | 00:00:00 | |
| AA1-15 | 2026-09-04 08:11:58 | 52.60494 | 9.71150 | 101° | 130km/h | 7865m | -7.3m/s | -23.1°C | 86.6% | 377.6hPa | 2.6V | 08:07:20 | 01:39:06 | 00:00:00 | |
| GOEST3-10 | 2026-09-04 08:11:58 | 52.60494 | 9.71150 | 101° | 130km/h | 7865m | -7.3m/s | -23.1°C | 88.4% | 377.5hPa | 2.6V | 00:00:00 | 00:00:00 | 00:00:00 | |
| DL1XH1-15 | 2026-09-04 08:11:57 | 52.60518 | 9.70936 | 99° | 130km/h | 7893m | -7.6m/s | -23.3°C | 88% | 376.1hPa | 2.6V | 08:06:54 | 01:39:02 | 00:00:00 | |
| BIOWL9-15 | 2026-09-04 08:11:57 | 52.60507 | 9.71043 | 100° | 130km/h | 7879m | -6.5m/s | -23.2°C | 83.3% | 376.9hPa | 2.7V | 00:00:00 | 00:00:00 | 00:00:00 | |
| BUE01 | 2026-09-04 08:11:56 | 52.60513 | 9.70990 | 99° | 130km/h | 7886m | -7.7m/s | -23.3°C | 83.3% | 376.6hPa | 2.7V | 00:00:00 | 00:00:00 | 00:00:00 | |
| DB0DAN | 2026-09-04 08:11:55 | 52.60513 | 9.70990 | 100° | 124km/h | 7886m | -7.7m/s | -23.3°C | 83.3% | 376.6hPa | 2.7V | 00:00:00 | 00:00:00 | 00:00:00 | |
| DM0DOS-11 | 2026-09-04 08:11:55 | 52.60538 | 9.70723 | 97° | 130km/h | 7924m | -8m/s | -23.5°C | 88.4% | 374.6hPa | 2.5V | 08:06:58 | 01:38:58 | 00:00:00 | |
| DL1XH-west | 2026-09-04 08:11:54 | 52.60518 | 9.70936 | 100° | 130km/h | 7893m | -7.6m/s | -23.3°C | 86.3% | 376.1hPa | 2.6V | 08:07:20 | 01:39:02 | 00:00:00 | |
| BIOWL1-15 | 2026-09-04 08:11:52 | 52.60529 | 9.70830 | 99° | 130km/h | 7908m | -7.6m/s | -23.4°C | 86.7% | 375.4hPa | 2.5V | 08:07:20 | 01:39:00 | 00:00:00 | |
| DF8AY | 2026-09-04 08:11:51 | 52.60533 | 9.70777 | 98° | 130km/h | 7916m | -8.3m/s | -23.5°C | 86.8% | 375hPa | 2.5V | 08:07:20 | 01:38:59 | 00:00:00 | |
| DO2SHX-10 | 2026-09-04 08:11:49 | 52.60542 | 9.70670 | 98° | 130km/h | 7932m | -7.2m/s | -23.5°C | 88.6% | 374.2hPa | 2.5V | 00:00:00 | 01:38:57 | 00:00:00 | |
| GOEST3-10 | 2026-09-04 08:11:48 | 52.60547 | 9.70616 | 100° | 131km/h | 7939m | -7.8m/s | -23.6°C | 88.7% | 373.8hPa | 2.5V | 00:00:00 | 00:00:00 | 00:00:00 | |
| DL1XH1-15 | 2026-09-04 08:11:47 | 52.60568 | 9.70400 | 99° | 130km/h | 7969m | -8.2m/s | -23.9°C | 88.6% | 372.3hPa | 2.5V | 08:07:04 | 01:38:52 | 00:00:00 | |
| AA1-15 | 2026-09-04 08:11:47 | 52.60552 | 9.70563 | 99° | 131km/h | 7947m | -7.7m/s | -23.7°C | 87.3% | 373.4hPa | 2.6V | 08:07:20 | 01:38:55 | 00:00:00 | |
| DL1XH-west | 2026-09-04 08:11:44 | 52.60568 | 9.70400 | 99° | 130km/h | 7969m | -8.2m/s | -23.9°C | 87.5% | 372.3hPa | 2.5V | 08:07:20 | 01:38:52 | 00:00:00 | |
| BIOWL1-15 | 2026-09-04 08:11:41 | 52.60584 | 9.70240 | 99° | 130km/h | 7993m | -7m/s | -24°C | 87.6% | 371.2hPa | 2.6V | 08:07:20 | 01:38:49 | 00:00:00 | |
| DB0DAN | 2026-09-04 08:11:40 | 52.60589 | 9.70187 | 98° | 122km/h | 8000m | -7.8m/s | -24.1°C | 83.3% | 370.77hPa | 2.5V | 00:00:00 | 00:00:00 | 00:00:00 | |
| DM0DOS-11 | 2026-09-04 08:11:40 | 52.60588 | 9.70187 | 98° | 130km/h | 8000m | -7.8m/s | -24.1°C | 88% | 370.8hPa | 2.5V | 08:07:08 | 01:38:48 | 00:00:00 | |
| DO2SHX-10 | 2026-09-04 08:11:40 | 52.60588 | 9.70187 | 99° | 130km/h | 8000m | -7.7m/s | -24.0°C | 88.0% | 370.7hPa | 2.5V | 00:00:00 | 01:38:48 | 00:00:00 | |
| DL4XJ-10 | 2026-09-04 08:11:38 | 52.60597 | 9.70080 | 98° | 131km/h | 8017m | -8.9m/s | -24.7°C | 0% | 0hPa | 2.5V | 00:00:00 | 00:00:00 | 00:00:00 | |
| DL1XH1-15 | 2026-09-04 08:11:37 | 52.60615 | 9.69861 | 98° | 133km/h | 8052m | -8.3m/s | -24.4°C | 86.6% | 368.3hPa | 2.5V | 08:07:14 | 01:38:42 | 00:00:00 | |
| AA1-15 | 2026-09-04 08:11:37 | 52.60601 | 9.70026 | 97° | 131km/h | 8027m | -9.3m/s | -24.3°C | 86.3% | 369.6hPa | 2.6V | 08:07:20 | 01:38:45 | 00:00:00 | |
| DL1XH-west | 2026-09-04 08:11:33 | 52.60620 | 9.69807 | 99° | 131km/h | 8060m | -8.8m/s | -24.5°C | 85.7% | 367.8hPa | 2.5V | 08:07:20 | 01:38:41 | 00:00:00 | |
| DF8AY | 2026-09-04 08:11:31 | 52.60629 | 9.69699 | 98° | 130km/h | 8076m | -8.2m/s | -24.6°C | 85.7% | 367hPa | 2.6V | 08:07:20 | 01:38:39 | 00:00:00 | |
| DM0DOS-11 | 2026-09-04 08:11:30 | 52.60634 | 9.69646 | 98° | 130km/h | 8084m | -7.5m/s | -24.7°C | 85.9% | 366.7hPa | 2.6V | 08:07:18 | 01:38:38 | 00:00:00 | |
| DO2SHX-10 | 2026-09-04 08:11:30 | 52.60634 | 9.69646 | 99° | 130km/h | 8085m | -7.5m/s | -24.6°C | 85.9% | 366.6hPa | 2.5V | 00:00:00 | 01:38:38 | 00:00:00 | |
| GOEST3-10 | 2026-09-04 08:11:28 | 52.60644 | 9.69540 | 99° | 131km/h | 8100m | -7.2m/s | -24.8°C | 86.1% | 365.8hPa | 2.5V | 00:00:00 | 00:00:00 | 00:00:00 | |
| DL1XH1-15 | 2026-09-04 08:11:27 | 52.60664 | 9.69324 | 98° | 133km/h | 8134m | -8.3m/s | -25.1°C | 86.6% | 364hPa | 2.5V | 08:07:24 | 01:38:32 | 00:00:00 | |
| AA1-15 | 2026-09-04 08:11:27 | 52.60649 | 9.69487 | 99° | 130km/h | 8108m | -8m/s | -24.9°C | 85.4% | 365.4hPa | 2.5V | 08:08:11 | 01:38:35 | 00:00:00 | |
| DO2SHX-10 | 2026-09-04 08:11:27 | 52.60649 | 9.69487 | 99° | 131km/h | 8108m | -7.9m/s | -24.8°C | 85.8% | 365.4hPa | 2.5V | 08:07:00 | 01:38:35 | 00:00:00 | |
| DL1CLM-18 | 2026-09-04 08:11:26 | 52.60649 | 9.69487 | 100° | 130km/h | 8108m | -8.0m/s | -24.9°C | 81.1% | 365.4hPa | 2.6V | 00:00:00 | 00:00:00 | 00:00:00 | |
| DB0DAN | 2026-09-04 08:11:25 | 52.60659 | 9.69379 | 98° | 128km/h | 8126m | -7.8m/s | -25°C | 81.4% | 364.4hPa | 2.6V | 00:00:00 | 00:00:00 | 00:00:00 | |
| DM0DOS-11 | 2026-09-04 08:11:25 | 52.60683 | 9.69101 | 97° | 135km/h | 8169m | -8.1m/s | -25.3°C | 87.6% | 362.3hPa | 2.5V | 08:07:28 | 01:38:28 | 00:00:00 | |
| DF5WG-10 | 2026-09-04 08:11:25 | 52.60659 | 9.69379 | 99° | 135km/h | 8126m | -7.8m/s | -25.0°C | 86.2% | 364.3hPa | 2.5V | 00:00:00 | 01:38:33 | 00:00:00 | |
| DL1XH-15 | 2026-09-04 08:11:24 | 52.60687 | 9.69045 | 97° | 135km/h | 8177m | -7.8m/s | -25.4°C | 87.7% | 361.8hPa | 2.5V | 08:07:29 | 01:38:27 | 00:00:00 | |
| DL1XH-west | 2026-09-04 08:11:23 | 52.60669 | 9.69269 | 98° | 135km/h | 8142m | -8.6m/s | -25.1°C | 86.2% | 363.6hPa | 2.5V | 08:08:11 | 01:38:31 | 00:00:00 | |
| BIOWL1-15 | 2026-09-04 08:11:22 | 52.60683 | 9.69101 | 97° | 135km/h | 8169m | -8.1m/s | -25.3°C | 86.7% | 362.3hPa | 2.5V | 08:08:11 | 01:38:28 | 00:00:00 | |
| DF8AY | 2026-09-04 08:11:21 | 52.60678 | 9.69157 | 98° | 135km/h | 8160m | -10.1m/s | -25.3°C | 86.5% | 362.8hPa | 2.6V | 08:08:11 | 01:38:29 | 00:00:00 | |
| AA1-15 | 2026-09-04 08:11:16 | 52.60701 | 9.68879 | 98° | 133km/h | 8204m | -10.7m/s | -25.6°C | 87% | 360.6hPa | 2.5V | 08:08:11 | 01:38:24 | 00:00:00 | |
| DF2AP-13 | 2026-09-04 08:11:16 | 52.60701 | 9.68879 | 98° | 133km/h | 8205m | -10.6m/s | -25.5°C | 88.0% | 360.5hPa | 2.5V | 08:07:00 | 01:38:24 | 00:00:00 | |
| DM0DOS-11 | 2026-09-04 08:11:15 | 52.60729 | 9.68557 | 97° | 130km/h | 8259m | -8.8m/s | -26°C | 89.1% | 357.8hPa | 2.6V | 08:07:38 | 01:38:18 | 00:00:00 | |
| DF5WG-10 | 2026-09-04 08:11:15 | 52.60706 | 9.68824 | 98° | 130km/h | 8214m | -8.1m/s | -25.6°C | 88.4% | 360.0hPa | 2.6V | 00:00:00 | 01:38:23 | 00:00:00 | |
| DL1XH-15 | 2026-09-04 08:11:14 | 52.60733 | 9.68503 | 98° | 130km/h | 8267m | -8.8m/s | -26.1°C | 88.9% | 357.3hPa | 2.6V | 08:07:39 | 01:38:17 | 00:00:00 | |
| DL1XH-west | 2026-09-04 08:11:13 | 52.60715 | 9.68716 | 98° | 130km/h | 8232m | -9.4m/s | -25.8°C | 87.8% | 359.2hPa | 2.6V | 08:08:11 | 01:38:21 | 00:00:00 | |
| DF8AY | 2026-09-04 08:11:11 | 52.60725 | 9.68610 | 98° | 128km/h | 8251m | -7.9m/s | -25.9°C | 88.2% | 358.2hPa | 2.5V | 08:08:11 | 01:38:19 | 00:00:00 | |
| BIOWL1-15 | 2026-09-04 08:11:11 | 52.60733 | 9.68503 | 99° | 130km/h | 8268m | -8.9m/s | -26.1°C | 88.7% | 357.3hPa | 2.6V | 08:08:11 | 01:38:17 | 00:00:00 | |
| DB0DAN | 2026-09-04 08:11:10 | 52.60729 | 9.68557 | 98° | 122km/h | 8259m | -8.8m/s | -26°C | 84% | 357.81hPa | 2.6V | 00:00:00 | 00:00:00 | 00:00:00 | |
| AA1-15 | 2026-09-04 08:11:06 | 52.60748 | 9.68341 | 98° | 131km/h | 8297m | -10.8m/s | -26.3°C | 89% | 356hPa | 2.6V | 08:08:11 | 01:38:14 | 00:00:00 | |
| DO2SHX-10 | 2026-09-04 08:11:06 | 52.60748 | 9.68341 | 98° | 133km/h | 8297m | -10.7m/s | -26.2°C | 88.1% | 355.9hPa | 2.5V | 00:00:00 | 01:38:14 | 00:00:00 | |
| DM0DOS-11 | 2026-09-04 08:11:05 | 52.60774 | 9.68010 | 97° | 137km/h | 8350m | -8.4m/s | -26.7°C | 86.8% | 353.3hPa | 2.5V | 08:07:48 | 01:38:08 | 00:00:00 | |
| DJ2DS-15 | 2026-09-04 08:11:05 | 52.60752 | 9.68286 | 98° | 135km/h | 8307m | -8.5m/s | -26.3°C | 88.2% | 355.5hPa | 2.5V | 00:00:00 | 01:38:13 | 00:00:00 | |
| DL1XH-15 | 2026-09-04 08:11:04 | 52.60778 | 9.67954 | 96° | 135km/h | 8359m | -9.5m/s | -26.8°C | 86.4% | 352.9hPa | 2.5V | 08:07:49 | 01:38:07 | 00:00:00 | |
| DL1XH-west | 2026-09-04 08:11:02 | 52.60765 | 9.68121 | 97° | 137km/h | 8333m | -7.9m/s | -26.6°C | 89.3% | 354.1hPa | 2.6V | 08:08:11 | 01:38:10 | 00:00:00 | |
| DF8AY | 2026-09-04 08:11:00 | 52.60774 | 9.68010 | 98° | 137km/h | 8350m | -8.4m/s | -26.7°C | 87.7% | 353.3hPa | 2.5V | 08:08:11 | 01:38:08 | 00:00:00 | |
| BIOWL1-15 | 2026-09-04 08:10:58 | 52.60782 | 9.67898 | 98° | 137km/h | 8368m | -9.4m/s | -26.9°C | 86.6% | 352.4hPa | 2.6V | 08:08:11 | 01:38:06 | 00:00:00 | |
| S3001 | 2026-09-04 08:10:57 | 52.60791 | 9.67785 | 97° | 137km/h | 8386m | -8.2m/s | -27.0°C | 81.2% | 351.6hPa | 2.5V | 00:00:00 | 00:00:00 | 00:00:00 | |
| DL3AQ-11 | 2026-09-04 08:10:56 | 52.60796 | 9.67729 | 98° | 133km/h | 8394m | -7.6m/s | -27.0°C | 81.1% | 351.2hPa | 2.5V | 00:00:00 | 00:00:00 | 00:00:00 | |
| DB0DAN | 2026-09-04 08:10:55 | 52.60796 | 9.67729 | 98° | 128km/h | 8394m | -7.6m/s | -27°C | 81.1% | 351.21hPa | 2.5V | 00:00:00 | 00:00:00 | 00:00:00 | |
| AA1-15 | 2026-09-04 08:10:55 | 52.60796 | 9.67729 | 98° | 135km/h | 8394m | -7.6m/s | -27°C | 85.3% | 351.2hPa | 2.5V | 08:08:11 | 01:38:03 | 00:00:00 | |
| BIOWL9-15 | 2026-09-04 08:10:55 | 52.60800 | 9.67674 | 97° | 133km/h | 8402m | -7.9m/s | -27.1°C | 81.3% | 350.7hPa | 2.6V | 00:00:00 | 00:00:00 | 00:00:00 | |
| BUE01 | 2026-09-04 08:10:54 | 52.60805 | 9.67618 | 97° | 135km/h | 8409m | -8.4m/s | -27.1°C | 81.4% | 350.5hPa | 2.6V | 00:00:00 | 00:00:00 | 00:00:00 | |
| DL1XH-15 | 2026-09-04 08:10:53 | 52.60823 | 9.67394 | 98° | 135km/h | 8442m | -6.8m/s | -27.4°C | 87.4% | 348.8hPa | 2.6V | 08:07:59 | 01:37:57 | 00:00:00 | |
| DL1XH-west | 2026-09-04 08:10:51 | 52.60814 | 9.67506 | 98° | 137km/h | 8426m | -8m/s | -27.3°C | 85.9% | 349.7hPa | 2.5V | 08:08:11 | 01:37:59 | 00:00:00 | |
| DF8AY | 2026-09-04 08:10:50 | 52.60819 | 9.67450 | 99° | 135km/h | 8435m | -8.2m/s | -27.4°C | 86.1% | 349.3hPa | 2.6V | 08:08:11 | 01:37:58 | 00:00:00 | |
| BIOWL1-15 | 2026-09-04 08:10:50 | 52.60829 | 9.67339 | 98° | 135km/h | 8449m | -7.1m/s | -27.5°C | 87.3% | 348.4hPa | 2.5V | 08:08:11 | 01:37:56 | 00:00:00 | |
| DD1CC8 | 2026-09-04 08:10:47 | 52.60833 | 9.67283 | 96° | 137km/h | 8458m | -10.2m/s | -27.5°C | 81.0% | 348.1hPa | 2.5V | 00:00:00 | 00:00:00 | 00:00:00 | |
| DF2AP-13 | 2026-09-04 08:10:46 | 52.60837 | 9.67226 | 97° | 135km/h | 8468m | -9.8m/s | -27.6°C | 85.3% | 347.6hPa | 2.5V | 00:00:00 | 01:37:54 | 00:00:00 | |
| DM0DOS-11 | 2026-09-04 08:10:45 | 52.60863 | 9.66892 | 97° | 135km/h | 8525m | -8.8m/s | -28.1°C | 84.4% | 344.8hPa | 2.5V | 08:08:08 | 01:37:48 | 00:00:00 | |
| AA1-15 | 2026-09-04 08:10:45 | 52.60841 | 9.67171 | 97° | 133km/h | 8478m | -10m/s | -27.7°C | 86.2% | 347.1hPa | 2.6V | 08:08:11 | 01:37:53 | 00:00:00 | |
| BIOWL1-15 | 2026-09-04 08:10:40 | 52.60872 | 9.66779 | 98° | 139km/h | 8543m | -8.4m/s | -28.2°C | 85.8% | 344hPa | 2.6V | 08:08:11 | 01:37:46 | 00:00:00 | |
| DB0DAN | 2026-09-04 08:10:40 | 52.60863 | 9.66892 | 98° | 128km/h | 8525m | -8.8m/s | -28.1°C | 79.3% | 344.83hPa | 2.5V | 00:00:00 | 00:00:00 | 00:00:00 | |
| DL1XH-west | 2026-09-04 08:10:40 | 52.60863 | 9.66892 | 98° | 135km/h | 8525m | -8.8m/s | -28.1°C | 86% | 344.8hPa | 2.5V | 08:08:11 | 01:37:48 | 00:00:00 | |
| D01LWL | 2026-09-04 08:10:39 | 52.60872 | 9.66779 | 97° | 137km/h | 8543m | -8.4m/s | -28.2°C | 79.6% | 344.0hPa | 2.5V | 00:00:00 | 00:00:00 | 00:00:00 | |
| DL4XJ-10 | 2026-09-04 08:10:38 | 52.60871 | 9.66779 | 98° | 135km/h | 8543m | -8.3m/s | -28.7°C | 0% | 0hPa | 2.5V | 00:00:00 | 00:00:00 | 00:00:00 | |
| DL1CLM-18 | 2026-09-04 08:10:37 | 52.60871 | 9.66779 | 99° | 139km/h | 8543m | -8.4m/s | -28.2°C | 79.6% | 344.0hPa | 2.5V | 00:00:00 | 00:00:00 | 00:00:00 | |
| DO2SHX-10 | 2026-09-04 08:10:36 | 52.60880 | 9.66666 | 98° | 139km/h | 8561m | -8.1m/s | -28.3°C | 85.1% | 343.1hPa | 2.5V | 00:00:00 | 01:37:44 | 00:00:00 | |
| DM0DOS-11 | 2026-09-04 08:10:35 | 52.60907 | 9.66329 | 97° | 135km/h | 8606m | -6.5m/s | -28.7°C | 86.5% | 340.9hPa | 2.5V | 08:08:18 | 01:37:38 | 00:00:00 | |
| AA1-15 | 2026-09-04 08:10:34 | 52.60890 | 9.66553 | 97° | 139km/h | 8576m | -6.8m/s | -28.5°C | 85.4% | 342.3hPa | 2.6V | 08:09:02 | 01:37:42 | 00:00:00 | |
| DL1XH-west | 2026-09-04 08:10:30 | 52.60906 | 9.66329 | 97° | 135km/h | 8606m | -6.5m/s | -28.7°C | 85.4% | 340.9hPa | 2.5V | 08:09:02 | 01:37:38 | 00:00:00 | |
| DF8AY | 2026-09-04 08:10:29 | 52.60911 | 9.66273 | 97° | 135km/h | 8613m | -7.4m/s | -28.8°C | 85.6% | 340.5hPa | 2.5V | 08:09:02 | 01:37:37 | 00:00:00 | |
| BIOWL1-15 | 2026-09-04 08:10:28 | 52.60915 | 9.66218 | 97° | 133km/h | 8620m | -7.1m/s | -28.8°C | 85.5% | 340.2hPa | 2.5V | 08:09:02 | 01:37:36 | 00:00:00 | |
| SONDE2-11 | 2026-09-04 08:10:28 | 52.60915 | 9.66218 | 96° | 133km/h | 8620m | -7.1m/s | -28.8°C | 80.9% | 340.2hPa | 2.6V | 00:00:00 | 00:00:00 | 00:00:00 | |
| DO2SHX-10 | 2026-09-04 08:10:27 | 52.60919 | 9.66163 | 98° | 135km/h | 8627m | -7.0m/s | -28.9°C | 85.7% | 339.8hPa | 2.6V | 00:00:00 | 01:37:35 | 00:00:00 | |
| DB0DAN | 2026-09-04 08:10:25 | 52.60927 | 9.66052 | 97° | 130km/h | 8644m | -9.8m/s | -29°C | 80% | 339.05hPa | 2.6V | 00:00:00 | 00:00:00 | 00:00:00 | |
| DM0DOS-11 | 2026-09-04 08:10:25 | 52.60950 | 9.65772 | 96° | 137km/h | 8684m | -8.4m/s | -29.4°C | 86% | 337.2hPa | 2.6V | 08:08:28 | 01:37:28 | 00:00:00 | |
| DJ2DS-15 | 2026-09-04 08:10:25 | 52.60927 | 9.66052 | 98° | 135km/h | 8644m | -9.8m/s | -29.0°C | 85.3% | 339.0hPa | 2.6V | 00:00:00 | 01:37:33 | 00:00:00 | |
| DL1XH-15 | 2026-09-04 08:10:24 | 52.60954 | 9.65716 | 97° | 137km/h | 8694m | -10.6m/s | -29.4°C | 86.1% | 336.8hPa | 2.6V | 08:08:29 | 01:37:27 | 00:00:00 | |
| AA1-15 | 2026-09-04 08:10:23 | 52.60936 | 9.65940 | 98° | 137km/h | 8661m | -9m/s | -29.2°C | 85.9% | 338.3hPa | 2.5V | 08:09:02 | 01:37:31 | 00:00:00 | |
| DL1XH-west | 2026-09-04 08:10:19 | 52.60954 | 9.65716 | 98° | 137km/h | 8694m | -10.6m/s | -29.4°C | 87.5% | 336.8hPa | 2.6V | 08:09:02 | 01:37:27 | 00:00:00 | |
| DF8AY | 2026-09-04 08:10:18 | 52.60959 | 9.65660 | 97° | 137km/h | 8703m | -9.3m/s | -29.5°C | 87.2% | 336.3hPa | 2.5V | 08:09:02 | 01:37:26 | 00:00:00 | |
| BIOWL1-15 | 2026-09-04 08:10:17 | 52.60963 | 9.65604 | 98° | 135km/h | 8712m | -7.4m/s | -29.6°C | 87.2% | 335.8hPa | 2.5V | 08:09:02 | 01:37:25 | 00:00:00 | |
| DL3AQ-11 | 2026-09-04 08:10:16 | 52.60972 | 9.65493 | 97° | 133km/h | 8728m | -8.0m/s | -29.7°C | 80.5% | 335.2hPa | 2.5V | 00:00:00 | 00:00:00 | 00:00:00 | |
| DM0DOS-11 | 2026-09-04 08:10:15 | 52.60997 | 9.65217 | 99° | 135km/h | 8768m | -8.2m/s | -30°C | 85.6% | 333.2hPa | 2.5V | 08:08:38 | 01:37:18 | 00:00:00 | |
| DO2SHX-10 | 2026-09-04 08:10:15 | 52.60972 | 9.65493 | 98° | 135km/h | 8728m | -8.0m/s | -29.6°C | 85.9% | 335.1hPa | 2.6V | 00:00:00 | 01:37:23 | 00:00:00 | |
| DL1XH-15 | 2026-09-04 08:10:14 | 52.61003 | 9.65161 | 99° | 135km/h | 8776m | -9.3m/s | -30.1°C | 85.6% | 332.9hPa | 2.6V | 08:08:39 | 01:37:17 | 00:00:00 | |
| AA1-15 | 2026-09-04 08:10:13 | 52.60981 | 9.65383 | 98° | 135km/h | 8744m | -7m/s | -29.8°C | 86.8% | 334.4hPa | 2.6V | 08:09:02 | 01:37:21 | 00:00:00 | |
| DD8BA-10 | 2026-09-04 08:10:13 | 52.60981 | 9.65383 | 99° | 135km/h | 8744m | -6.9m/s | -29.8°C | 86.0% | 334.3hPa | 2.5V | 00:00:00 | 00:00:00 | 00:00:00 | |
| DO2SHX-10 | 2026-09-04 08:10:12 | 52.60986 | 9.65327 | 99° | 135km/h | 8751m | -7.9m/s | -29.8°C | 85.6% | 334.0hPa | 2.5V | 00:00:00 | 01:37:20 | 00:00:00 | |
| DB0DAN | 2026-09-04 08:10:10 | 52.60997 | 9.65217 | 99° | 130km/h | 8768m | -8.2m/s | -30°C | 80.3% | 333.23hPa | 2.5V | 00:00:00 | 00:00:00 | 00:00:00 | |
| DL1XH-west | 2026-09-04 08:10:08 | 52.61008 | 9.65106 | 100° | 133km/h | 8785m | -7.2m/s | -30.1°C | 85.6% | 332.4hPa | 2.6V | 08:09:02 | 01:37:16 | 00:00:00 | |
| BIOWL1-15 | 2026-09-04 08:10:06 | 52.61020 | 9.64996 | 99° | 135km/h | 8799m | -6.8m/s | -30.3°C | 85.6% | 331.8hPa | 2.5V | 08:09:02 | 01:37:14 | 00:00:00 | |
| DO2SHX-10 | 2026-09-04 08:10:06 | 52.61020 | 9.64996 | 100° | 137km/h | 8799m | -6.8m/s | -30.2°C | 86.7% | 331.7hPa | 2.5V | 08:08:00 | 01:37:14 | 00:00:00 | |
| DF5WG-10 | 2026-09-04 08:10:05 | 52.61025 | 9.64940 | 100° | 139km/h | 8806m | -6.7m/s | -30.3°C | 87.0% | 331.4hPa | 2.5V | 00:00:00 | 01:37:13 | 00:00:00 | |
| DL1XH-15 | 2026-09-04 08:10:04 | 52.61058 | 9.64602 | 99° | 141km/h | 8847m | -6.7m/s | -30.6°C | 89.1% | 329.4hPa | 2.6V | 08:08:49 | 01:37:07 | 00:00:00 | |
| AA1-15 | 2026-09-04 08:10:02 | 52.61042 | 9.64772 | 99° | 137km/h | 8825m | -7.3m/s | -30.5°C | 87.1% | 330.5hPa | 2.6V | 08:09:02 | 01:37:10 | 00:00:00 | |
| DL1XH-west | 2026-09-04 08:09:58 | 52.61063 | 9.64544 | 100° | 141km/h | 8854m | -7.6m/s | -30.7°C | 88.9% | 329.1hPa | 2.6V | 08:09:02 | 01:37:06 | 00:00:00 | |
| DL4XJ-10 | 2026-09-04 08:09:58 | 52.61064 | 9.64544 | 100° | 142km/h | 8854m | -7.5m/s | -31.2°C | 0% | 0hPa | 2.5V | 00:00:00 | 00:00:00 | 00:00:00 | |
| DO2SHX-10 | 2026-09-04 08:09:57 | 52.61069 | 9.64487 | 101° | 141km/h | 8862m | -7.2m/s | -30.7°C | 88.0% | 328.8hPa | 2.5V | 00:00:00 | 01:37:05 | 00:00:00 | |
| DB0DAN | 2026-09-04 08:09:55 | 52.61082 | 9.64373 | 101° | 133km/h | 8878m | -8.3m/s | -30.9°C | 82.3% | 328.03hPa | 2.6V | 00:00:00 | 00:00:00 | 00:00:00 | |
| BIOWL1-15 | 2026-09-04 08:09:55 | 52.61082 | 9.64373 | 101° | 141km/h | 8878m | -8.3m/s | -30.9°C | 88.7% | 328hPa | 2.6V | 08:09:02 | 01:37:03 | 00:00:00 | |
| DF5WG-10 | 2026-09-04 08:09:55 | 52.61082 | 9.64373 | 101° | 142km/h | 8878m | -8.2m/s | -30.8°C | 87.8% | 328.0hPa | 2.6V | 00:00:00 | 01:37:03 | 00:00:00 | |
| DL1XH-15 | 2026-09-04 08:09:54 | 52.61124 | 9.64024 | 101° | 144km/h | 8921m | -6.3m/s | -31.3°C | 87.6% | 326.1hPa | 2.6V | 08:08:59 | 01:36:57 | 00:00:00 | |
| DF8AY | 2026-09-04 08:09:52 | 52.61137 | 9.63906 | 101° | 144km/h | 8936m | -7.4m/s | -31.4°C | 87.1% | 325.4hPa | 2.5V | 08:09:02 | 01:36:55 | 00:00:00 | |
| AA1-15 | 2026-09-04 08:09:52 | 52.61102 | 9.64199 | 102° | 142km/h | 8902m | -7.6m/s | -31.1°C | 87.8% | 327hPa | 2.5V | 08:09:02 | 01:37:00 | 00:00:00 | |
| DL1XH-west | 2026-09-04 08:09:48 | 52.61130 | 9.63965 | 101° | 144km/h | 8928m | -8.7m/s | -31.4°C | 87.5% | 325.7hPa | 2.6V | 08:09:02 | 01:36:56 | 00:00:00 | |
| DL1XH1-15 | 2026-09-04 08:09:47 | 52.61157 | 9.63730 | 100° | 146km/h | 8958m | -6.7m/s | -31.5°C | 84.9% | 324.4hPa | 2.6V | 08:09:04 | 01:36:52 | 00:00:00 | |
| DO2SHX-10 | 2026-09-04 08:09:47 | 52.61137 | 9.63906 | 101° | 144km/h | 8936m | -7.3m/s | -31.4°C | 87.5% | 325.4hPa | 2.5V | 00:00:00 | 01:36:55 | 00:00:00 | |
| DF2AP-13 | 2026-09-04 08:09:46 | 52.61144 | 9.63847 | 101° | 142km/h | 8944m | -7.4m/s | -31.4°C | 87.2% | 325.0hPa | 2.5V | 00:00:00 | 01:36:54 | 00:00:00 | |
| DM0DOS-11 | 2026-09-04 08:09:45 | 52.61186 | 9.63494 | 101° | 146km/h | 8987m | -7.7m/s | -31.8°C | 84% | 323.1hPa | 2.5V | 08:09:08 | 01:36:48 | 00:00:00 | |
| BIOWL1-15 | 2026-09-04 08:09:44 | 52.61157 | 9.63730 | 101° | 146km/h | 8958m | -6.7m/s | -31.5°C | 84.5% | 324.4hPa | 2.6V | 08:09:53 | 01:36:52 | 00:00:00 | |
| AA1-15 | 2026-09-04 08:09:42 | 52.61171 | 9.63612 | 101° | 146km/h | 8971m | -7.7m/s | -31.6°C | 83.8% | 323.8hPa | 2.6V | 08:09:53 | 01:36:50 | 00:00:00 | |
| DB0DAN | 2026-09-04 08:09:40 | 52.61186 | 9.63494 | 102° | 139km/h | 8987m | -7.7m/s | -31.8°C | 78.5% | 323.05hPa | 2.5V | 00:00:00 | 00:00:00 | 00:00:00 | |
| DF8AY | 2026-09-04 08:09:38 | 52.61209 | 9.63319 | 103° | 144km/h | 9009m | -8.6m/s | -31.9°C | 84.1% | 322.1hPa | 2.6V | 08:09:53 | 01:36:45 | 00:00:00 | |
| DL1XH-west | 2026-09-04 08:09:38 | 52.61201 | 9.63377 | 102° | 144km/h | 9001m | -7.8m/s | -31.9°C | 84% | 322.3hPa | 2.6V | 08:09:53 | 01:36:46 | 00:00:00 | |
| DL4XJ-10 | 2026-09-04 08:09:38 | 52.61201 | 9.63377 | 102° | 142km/h | 9001m | -7.8m/s | -32.4°C | 0% | 0hPa | 2.6V | 00:00:00 | 00:00:00 | 00:00:00 | |
| DL1XH1-15 | 2026-09-04 08:09:37 | 52.61232 | 9.63144 | 101° | 144km/h | 9030m | -6.4m/s | -32.1°C | 83.3% | 321hPa | 2.6V | 08:09:14 | 01:36:42 | 00:00:00 | |
| D01LWL | 2026-09-04 08:09:36 | 52.61217 | 9.63260 | 101° | 144km/h | 9017m | -7.8m/s | -32.0°C | 78.6% | 321.6hPa | 2.5V | 00:00:00 | 00:00:00 | 00:00:00 | |
| DM0DOS-11 | 2026-09-04 08:09:35 | 52.61261 | 9.62912 | 101° | 142km/h | 9062m | -8.4m/s | -32.4°C | 81.2% | 319.6hPa | 2.5V | 08:09:18 | 01:36:38 | 00:00:00 | |
| DO2SHX-10 | 2026-09-04 08:09:35 | 52.61224 | 9.63202 | 102° | 142km/h | 9025m | -6.2m/s | -32.0°C | 84.4% | 321.2hPa | 2.6V | 00:00:00 | 01:36:43 | 00:00:00 | |
| DL1XH-15 | 2026-09-04 08:09:34 | 52.61269 | 9.62854 | 101° | 142km/h | 9071m | -8.4m/s | -32.4°C | 81% | 319.2hPa | 2.6V | 08:09:19 | 01:36:37 | 00:00:00 | |
| BIOWL1-15 | 2026-09-04 08:09:34 | 52.61232 | 9.63144 | 102° | 144km/h | 9031m | -6.4m/s | -32.1°C | 84.8% | 321hPa | 2.6V | 08:09:53 | 01:36:42 | 00:00:00 | |
| AA1-15 | 2026-09-04 08:09:32 | 52.61247 | 9.63028 | 102° | 142km/h | 9046m | -8.5m/s | -32.2°C | 83.9% | 320.4hPa | 2.5V | 08:09:53 | 01:36:40 | 00:00:00 | |
| DO2SHX-10 | 2026-09-04 08:09:32 | 52.61247 | 9.63028 | 102° | 142km/h | 9046m | -8.5m/s | -32.2°C | 82.2% | 320.3hPa | 2.6V | 00:00:00 | 01:36:40 | 00:00:00 | |
| EDDB2-12 | 2026-09-04 08:09:30 | 52.61261 | 9.62912 | 101° | 142km/h | 9062m | -8.4m/s | -32.4°C | 75.7% | 319.6hPa | 2.6V | 00:00:00 | 00:00:00 | 00:00:00 | |
| DO2SHX-10 | 2026-09-04 08:09:29 | 52.61269 | 9.62854 | 102° | 142km/h | 9071m | -8.4m/s | -32.4°C | 81.0% | 319.1hPa | 2.6V | 00:00:00 | 01:36:37 | 00:00:00 | |
| GOEST3-10 | 2026-09-04 08:09:28 | 52.61276 | 9.62795 | 102° | 142km/h | 9078m | -6.9m/s | -32.5°C | 81.1% | 318.8hPa | 2.5V | 00:00:00 | 00:00:00 | 00:00:00 | |
| DL1XH1-15 | 2026-09-04 08:09:27 | 52.61305 | 9.62564 | 101° | 144km/h | 9107m | -6.8m/s | -32.8°C | 79.8% | 317.6hPa | 2.5V | 08:09:24 | 01:36:32 | 00:00:00 | |
| DL1XH-west | 2026-09-04 08:09:27 | 52.61283 | 9.62738 | 102° | 141km/h | 9085m | -7.9m/s | -32.6°C | 81.2% | 318.5hPa | 2.6V | 08:09:53 | 01:36:35 | 00:00:00 | |
| DF8AY | 2026-09-04 08:09:26 | 52.61291 | 9.62680 | 102° | 142km/h | 9093m | -7.5m/s | -32.6°C | 80.8% | 318.1hPa | 2.5V | 08:09:53 | 01:36:34 | 00:00:00 | |
| DO2SHX-10 | 2026-09-04 08:09:26 | 52.61291 | 9.62680 | 102° | 142km/h | 9093m | -7.5m/s | -32.6°C | 80.8% | 318.1hPa | 2.5V | 00:00:00 | 01:36:34 | 00:00:00 | |
| DM0DOS-11 | 2026-09-04 08:09:25 | 52.61334 | 9.62332 | 101° | 142km/h | 9131m | -6.7m/s | -32.9°C | 80% | 316.5hPa | 2.5V | 08:09:28 | 01:36:28 | 00:00:00 | |
| DJ2DS-15 | 2026-09-04 08:09:25 | 52.61298 | 9.62622 | 102° | 142km/h | 9100m | -6.5m/s | -32.6°C | 80.4% | 317.8hPa | 2.5V | 08:09:00 | 01:36:33 | 00:00:00 | |
| DL1XH-15 | 2026-09-04 08:09:24 | 52.61341 | 9.62274 | 100° | 142km/h | 9138m | -6.4m/s | -33°C | 80.4% | 316.1hPa | 2.5V | 08:09:29 | 01:36:27 | 00:00:00 | |
| BIOWL1-15 | 2026-09-04 08:09:23 | 52.61312 | 9.62506 | 101° | 142km/h | 9113m | -6.6m/s | -32.8°C | 79.4% | 317.2hPa | 2.6V | 08:09:53 | 01:36:31 | 00:00:00 | |
| AA1-15 | 2026-09-04 08:09:21 | 52.61327 | 9.62390 | 102° | 142km/h | 9125m | -6m/s | -32.9°C | 79.7% | 316.7hPa | 2.6V | 08:09:53 | 01:36:29 | 00:00:00 | |
| BUE01 | 2026-09-04 08:09:21 | 52.61334 | 9.62332 | 101° | 141km/h | 9131m | -6.7m/s | -32.9°C | 74.5% | 316.5hPa | 2.5V | 00:00:00 | 00:00:00 | 00:00:00 | |
| DO2SHX-10 | 2026-09-04 08:09:20 | 52.61334 | 9.62332 | 102° | 142km/h | 9132m | -6.6m/s | -32.9°C | 80.0% | 316.4hPa | 2.5V | 00:00:00 | 01:36:28 | 00:00:00 | |
| DL4XJ-10 | 2026-09-04 08:09:18 | 52.61348 | 9.62217 | 102° | 146km/h | 9144m | -5.8m/s | -33.5°C | 0% | 0hPa | 2.5V | 00:00:00 | 00:00:00 | 00:00:00 | |
| DL1XH1-15 | 2026-09-04 08:09:17 | 52.61375 | 9.61986 | 100° | 142km/h | 9167m | -5.7m/s | -33.2°C | 81.6% | 314.8hPa | 2.5V | 08:09:34 | 01:36:22 | 00:00:00 | |
| DL1XH-west | 2026-09-04 08:09:17 | 52.61355 | 9.62159 | 101° | 142km/h | 9150m | -6.4m/s | -33.1°C | 80.4% | 315.6hPa | 2.6V | 08:09:53 | 01:36:25 | 00:00:00 | |
| DF8AY | 2026-09-04 08:09:16 | 52.61362 | 9.62102 | 101° | 141km/h | 9156m | -5.8m/s | -33.1°C | 80.7% | 315.4hPa | 2.6V | 08:09:53 | 01:36:24 | 00:00:00 | |
| DF2AP-13 | 2026-09-04 08:09:16 | 52.61362 | 9.62101 | 101° | 146km/h | 9156m | -5.8m/s | -33.1°C | 81.3% | 315.3hPa | 2.5V | 00:00:00 | 01:36:24 | 00:00:00 | |
| DF5WG-10 | 2026-09-04 08:09:15 | 52.61368 | 9.62044 | 101° | 144km/h | 9162m | -5.5m/s | -33.1°C | 81.6% | 315.0hPa | 2.5V | 00:00:00 | 01:36:23 | 00:00:00 | |
| DL1XH-15 | 2026-09-04 08:09:14 | 52.61408 | 9.61691 | 100° | 146km/h | 9199m | -6.5m/s | -33.5°C | 80.9% | 313.4hPa | 2.5V | 08:09:39 | 01:36:17 | 00:00:00 | |
| BIOWL1-15 | 2026-09-04 08:09:14 | 52.61388 | 9.61870 | 101° | 144km/h | 9180m | -5.7m/s | -33.3°C | 81.2% | 314.3hPa | 2.6V | 08:09:53 | 01:36:20 | 00:00:00 | |
| AA1-15 | 2026-09-04 08:09:11 | 52.61395 | 9.61811 | 100° | 144km/h | 9186m | -6.4m/s | -33.4°C | 80.9% | 314hPa | 2.5V | 08:09:53 | 01:36:19 | 00:00:00 | |
| DO2SHX-10 | 2026-09-04 08:09:11 | 52.61395 | 9.61811 | 101° | 146km/h | 9186m | -6.4m/s | -33.3°C | 80.8% | 314.0hPa | 2.5V | 08:09:00 | 01:36:19 | 00:00:00 | |
| DO3DL | 2026-09-04 08:09:10 | 52.61395 | 9.61811 | 101° | 144km/h | 9186m | -6.4m/s | -33.4°C | 75.2% | 314.0hPa | 2.5V | 08:09:00 | 00:00:00 | 00:00:00 | |
| SMARD9-15 | 2026-09-04 08:09:09 | 52.61408 | 9.61691 | 100° | 146km/h | 9199m | -6.5m/s | -33.5°C | 75.3% | 313.4hPa | 2.5V | 00:00:00 | 00:00:00 | 00:00:00 | |
| DO2SHX-10 | 2026-09-04 08:09:08 | 52.61415 | 9.61631 | 100° | 146km/h | 9205m | -5.9m/s | -33.5°C | 80.7% | 313.2hPa | 2.5V | 00:00:00 | 01:36:16 | 00:00:00 | |
| DL1XH1-15 | 2026-09-04 08:09:07 | 52.61440 | 9.61392 | 98° | 146km/h | 9232m | -5.9m/s | -33.6°C | 83% | 312hPa | 2.5V | 08:09:44 | 01:36:12 | 00:00:00 | |
| DL1XH-west | 2026-09-04 08:09:06 | 52.61427 | 9.61511 | 99° | 146km/h | 9219m | -7.2m/s | -33.6°C | 81.2% | 312.6hPa | 2.6V | 08:09:53 | 01:36:14 | 00:00:00 | |
| DM0DOS-11 | 2026-09-04 08:09:06 | 52.61462 | 9.61150 | 98° | 148km/h | 9257m | -6.6m/s | -33.8°C | 83.3% | 310.9hPa | 2.5V | 08:09:48 | 01:36:08 | 00:00:00 | |
| DO2JMG | 2026-09-04 08:09:05 | 52.61434 | 9.61452 | 100° | 146km/h | 9226m | -6.4m/s | -33.6°C | 82.1% | 312.2hPa | 2.5V | 08:12:26 | 01:36:13 | 00:00:00 | |
| AA1-15 | 2026-09-04 08:09:01 | 52.61456 | 9.61211 | 98° | 148km/h | 9250m | -7m/s | -33.8°C | 82.7% | 311.2hPa | 2.6V | 08:09:53 | 01:36:09 | 00:00:00 | |
| DL1CLM-18 | 2026-09-04 08:09:00 | 52.61456 | 9.61211 | 99° | 148km/h | 9250m | -7.0m/s | -33.8°C | 77.6% | 311.2hPa | 2.5V | 00:00:00 | 00:00:00 | 00:00:00 | |
| DO2SHX-10 | 2026-09-04 08:08:59 | 52.61467 | 9.61089 | 99° | 148km/h | 9263m | -5.5m/s | -33.8°C | 83.8% | 310.5hPa | 2.5V | 00:00:00 | 01:36:07 | 00:00:00 | |
| GOEST3-10 | 2026-09-04 08:08:58 | 52.61473 | 9.61028 | 99° | 148km/h | 9270m | -7.6m/s | -33.9°C | 83.8% | 310.3hPa | 2.5V | 00:00:00 | 00:00:00 | 00:00:00 | |
| DL1XH1-15 | 2026-09-04 08:08:57 | 52.61496 | 9.60786 | 99° | 148km/h | 9300m | -7.8m/s | -34.2°C | 84.3% | 309hPa | 2.5V | 08:09:54 | 01:36:02 | 00:00:00 | |
| DL1XH-west | 2026-09-04 08:08:56 | 52.61483 | 9.60907 | 99° | 146km/h | 9285m | -7.2m/s | -34.1°C | 84.1% | 309.7hPa | 2.5V | 08:09:53 | 01:36:04 | 00:00:00 | |
| DB0DAN | 2026-09-04 08:08:55 | 52.61489 | 9.60847 | 100° | 141km/h | 9292m | -7.8m/s | -34.1°C | 78.3% | 309.4hPa | 2.5V | 00:00:00 | 00:00:00 | 00:00:00 | |
| DM0DOS-11 | 2026-09-04 08:08:55 | 52.61520 | 9.60545 | 99° | 148km/h | 9331m | -7.8m/s | -34.4°C | 85.7% | 307.6hPa | 2.5V | 08:09:58 | 01:35:58 | 00:00:00 | |
| DF8AY | 2026-09-04 08:08:54 | 52.61495 | 9.60786 | 99° | 148km/h | 9300m | -7.8m/s | -34.2°C | 84.1% | 309hPa | 2.5V | 08:10:44 | 01:36:02 | 00:00:00 | |
| BIOWL1-15 | 2026-09-04 08:08:52 | 52.61520 | 9.60545 | 99° | 148km/h | 9331m | -7.8m/s | -34.4°C | 84.8% | 307.6hPa | 2.5V | 08:10:44 | 01:35:58 | 00:00:00 | |
| AA1-15 | 2026-09-04 08:08:51 | 52.61514 | 9.60605 | 100° | 148km/h | 9323m | -7.2m/s | -34.4°C | 84.5% | 308hPa | 2.6V | 08:10:44 | 01:35:59 | 00:00:00 | |
| BUE01 | 2026-09-04 08:08:50 | 52.61526 | 9.60485 | 98° | 146km/h | 9338m | -7.7m/s | -34.5°C | 80.4% | 307.3hPa | 2.5V | 00:00:00 | 00:00:00 | 00:00:00 | |
| DB0NH | 2026-09-04 08:08:49 | 52.61525 | 9.60485 | 99° | 148km/h | 9338m | -7.6m/s | -34.4°C | 86.4% | 307.3hPa | 2.5V | 00:00:00 | 01:35:57 | 00:00:00 | |
| GOEST3-10 | 2026-09-04 08:08:48 | 52.61531 | 9.60424 | 99° | 148km/h | 9346m | -7.3m/s | -34.5°C | 86.3% | 306.9hPa | 2.5V | 00:00:00 | 00:00:00 | 00:00:00 | |
| DL1XH1-15 | 2026-09-04 08:08:47 | 52.61551 | 9.60179 | 96° | 150km/h | 9376m | -6.8m/s | -34.8°C | 87.5% | 305.6hPa | 2.5V | 08:10:04 | 01:35:52 | 00:00:00 | |
| DL1XH-west | 2026-09-04 08:08:45 | 52.61546 | 9.60241 | 97° | 148km/h | 9369m | -7.3m/s | -34.8°C | 86.1% | 305.9hPa | 2.5V | 08:10:44 | 01:35:53 | 00:00:00 | |
| DF8AY | 2026-09-04 08:08:43 | 52.61555 | 9.60118 | 97° | 150km/h | 9383m | -7.3m/s | -34.9°C | 87.4% | 305.3hPa | 2.6V | 08:10:44 | 01:35:51 | 00:00:00 | |
| DD8BA-10 | 2026-09-04 08:08:43 | 52.61555 | 9.60118 | 97° | 148km/h | 9383m | -7.3m/s | -34.8°C | 88.0% | 305.3hPa | 2.5V | 00:00:00 | 00:00:00 | 00:00:00 | |
| HSKMA3-T | 2026-09-04 08:08:43 | 52.61559 | 9.60056 | 97° | 150km/h | 9390m | -7.5m/s | -34.9°C | 87.9% | 305hPa | 2.6V | 08:11:35 | 01:35:50 | 00:00:00 | |
| DL8OAI-8 | 2026-09-04 08:08:42 | 52.61555 | 9.60118 | 98° | 150km/h | 9383m | -7.3m/s | -34.9°C | 81.9% | 305.3hPa | 2.5V | 08:10:00 | 00:00:00 | 00:00:00 | |
| DB0DAN | 2026-09-04 08:08:40 | 52.61568 | 9.59934 | 97° | 142km/h | 9406m | -7.8m/s | -35°C | 82.4% | 304.47hPa | 2.5V | 00:00:00 | 00:00:00 | 00:00:00 | |
| AA1-15 | 2026-09-04 08:08:40 | 52.61568 | 9.59934 | 97° | 150km/h | 9406m | -7.8m/s | -35°C | 89.1% | 304.5hPa | 2.5V | 08:10:44 | 01:35:48 | 00:00:00 | |
| BIOWL1-15 | 2026-09-04 08:08:39 | 52.61573 | 9.59872 | 97° | 150km/h | 9415m | -9.8m/s | -35.1°C | 89.3% | 304.1hPa | 2.5V | 08:10:44 | 01:35:47 | 00:00:00 | |
| DO2SHX-10 | 2026-09-04 08:08:38 | 52.61577 | 9.59811 | 98° | 148km/h | 9424m | -8.3m/s | -35.1°C | 90.3% | 303.6hPa | 2.5V | 00:00:00 | 01:35:46 | 00:00:00 | |
| DL1XH1-15 | 2026-09-04 08:08:37 | 52.61597 | 9.59567 | 98° | 148km/h | 9452m | -7.2m/s | -35.3°C | 91.1% | 302.4hPa | 2.5V | 08:10:14 | 01:35:42 | 00:00:00 | |
| DM0DOS-11 | 2026-09-04 08:08:35 | 52.61619 | 9.59323 | 97° | 150km/h | 9477m | -6.6m/s | -35.5°C | 90.7% | 301.2hPa | 2.5V | 08:10:18 | 01:35:38 | 00:00:00 | |
| DL1XH-west | 2026-09-04 08:08:35 | 52.61592 | 9.59628 | 98° | 148km/h | 9444m | -7.9m/s | -35.3°C | 90.2% | 302.7hPa | 2.5V | 08:10:44 | 01:35:43 | 00:00:00 | |
| DO2JMG | 2026-09-04 08:08:33 | 52.61603 | 9.59506 | 98° | 150km/h | 9459m | -6.5m/s | -35.4°C | 89.7% | 302.1hPa | 2.5V | 08:12:26 | 01:35:41 | 00:00:00 | |
| BIOWL1-15 | 2026-09-04 08:08:29 | 52.61624 | 9.59262 | 97° | 150km/h | 9484m | -7.5m/s | -35.6°C | 90% | 301hPa | 2.5V | 08:10:44 | 01:35:37 | 00:00:00 | |
| DO2SHX-10 | 2026-09-04 08:08:29 | 52.61623 | 9.59262 | 98° | 148km/h | 9484m | -7.4m/s | -35.5°C | 90.2% | 300.9hPa | 2.6V | 00:00:00 | 01:35:37 | 00:00:00 | |
| GOEST3-10 | 2026-09-04 08:08:28 | 52.61628 | 9.59201 | 98° | 146km/h | 9492m | -7.9m/s | -35.6°C | 90.3% | 300.6hPa | 2.6V | 00:00:00 | 00:00:00 | 00:00:00 | |
| BIOWL7-15 | 2026-09-04 08:08:27 | 52.61628 | 9.59201 | 98° | 148km/h | 9492m | -8.0m/s | -35.6°C | 83.9% | 300.7hPa | 2.6V | 08:10:00 | 00:00:00 | 00:00:00 | |
| DO2SHX-10 | 2026-09-04 08:08:26 | 52.61637 | 9.59080 | 98° | 146km/h | 9506m | -6.5m/s | -35.7°C | 91.3% | 300.0hPa | 2.6V | 00:00:00 | 01:35:34 | 00:00:00 | |
| DM0DOS-11 | 2026-09-04 08:08:25 | 52.61662 | 9.58718 | 95° | 150km/h | 9552m | -6.5m/s | -36.1°C | 87.8% | 298hPa | 2.6V | 08:10:28 | 01:35:28 | 00:00:00 | |
| DJ2DS-15 | 2026-09-04 08:08:25 | 52.61642 | 9.59020 | 97° | 148km/h | 9513m | -6.8m/s | -35.7°C | 90.7% | 299.7hPa | 2.6V | 00:00:00 | 01:35:33 | 00:00:00 | |
| DL1XH-15 | 2026-09-04 08:08:24 | 52.61665 | 9.58656 | 94° | 150km/h | 9559m | -6.5m/s | -36.2°C | 88% | 297.8hPa | 2.5V | 08:10:29 | 01:35:27 | 00:00:00 | |
| DL1XH-west | 2026-09-04 08:08:24 | 52.61646 | 9.58960 | 96° | 146km/h | 9520m | -8m/s | -35.8°C | 90.5% | 299.5hPa | 2.5V | 08:10:44 | 01:35:32 | 00:00:00 | |
| DO2JMG | 2026-09-04 08:08:23 | 52.61650 | 9.58900 | 96° | 146km/h | 9528m | -7.9m/s | -35.9°C | 89.7% | 299.1hPa | 2.5V | 08:12:26 | 01:35:31 | 00:00:00 | |
| DF8AY | 2026-09-04 08:08:22 | 52.61654 | 9.58840 | 96° | 146km/h | 9537m | -9.7m/s | -36°C | 88.3% | 298.7hPa | 2.5V | 08:10:44 | 01:35:30 | 00:00:00 | |
| BIOWL1-15 | 2026-09-04 08:08:19 | 52.61665 | 9.58656 | 95° | 150km/h | 9559m | -6.5m/s | -36.2°C | 87.4% | 297.8hPa | 2.5V | 08:10:44 | 01:35:27 | 00:00:00 | |
| DB0NH | 2026-09-04 08:08:19 | 52.61665 | 9.58656 | 95° | 146km/h | 9559m | -6.5m/s | -36.1°C | 88.0% | 297.8hPa | 2.5V | 08:10:00 | 01:35:27 | 00:00:00 | |
| GOEST3-10 | 2026-09-04 08:08:18 | 52.61668 | 9.58593 | 95° | 150km/h | 9566m | -6.4m/s | -36.2°C | 88.1% | 297.4hPa | 2.5V | 00:00:00 | 00:00:00 | 00:00:00 | |
| DO2SHX-10 | 2026-09-04 08:08:17 | 52.61671 | 9.58531 | 95° | 150km/h | 9572m | -6.3m/s | -36.3°C | 88.4% | 297.1hPa | 2.5V | 08:10:00 | 01:35:25 | 00:00:00 | |
| DL3AQ-11 | 2026-09-04 08:08:16 | 52.61677 | 9.58408 | 94° | 148km/h | 9585m | -6.8m/s | -36.4°C | 82.2% | 296.6hPa | 2.6V | 00:00:00 | 00:00:00 | 00:00:00 | |
| DM0DOS-11 | 2026-09-04 08:08:15 | 52.61695 | 9.58104 | 97° | 146km/h | 9619m | -7.3m/s | -36.6°C | 89.4% | 295.1hPa | 2.6V | 08:10:38 | 01:35:18 | 00:00:00 | |
| DF5WG-10 | 2026-09-04 08:08:15 | 52.61677 | 9.58408 | 95° | 146km/h | 9585m | -6.8m/s | -36.3°C | 88.6% | 296.6hPa | 2.6V | 00:00:00 | 01:35:23 | 00:00:00 | |
| DL1XH-15 | 2026-09-04 08:08:14 | 52.61699 | 9.58044 | 96° | 144km/h | 9626m | -6.9m/s | -36.7°C | 89.5% | 294.8hPa | 2.6V | 08:10:39 | 01:35:17 | 00:00:00 | |
| DL1XH-west | 2026-09-04 08:08:13 | 52.61683 | 9.58285 | 96° | 148km/h | 9598m | -6.9m/s | -36.5°C | 88.5% | 296hPa | 2.5V | 08:10:44 | 01:35:21 | 00:00:00 | |
| DF8AY | 2026-09-04 08:08:12 | 52.61687 | 9.58225 | 96° | 146km/h | 9605m | -6.7m/s | -36.5°C | 88.4% | 295.7hPa | 2.5V | 08:10:44 | 01:35:20 | 00:00:00 | |
| BIOWL1-15 | 2026-09-04 08:08:08 | 52.61704 | 9.57984 | 97° | 144km/h | 9633m | -6.5m/s | -36.8°C | 88.8% | 294.6hPa | 2.5V | 08:10:44 | 01:35:16 | 00:00:00 | |
| DO2SHX-10 | 2026-09-04 08:08:08 | 52.61704 | 9.57984 | 97° | 146km/h | 9633m | -6.5m/s | -36.7°C | 89.8% | 294.5hPa | 2.5V | 00:00:00 | 01:35:16 | 00:00:00 | |
| SMARD9-15 | 2026-09-04 08:08:07 | 52.61713 | 9.57865 | 96° | 146km/h | 9646m | -7.5m/s | -36.9°C | 83.6% | 293.9hPa | 2.5V | 00:00:00 | 00:00:00 | 00:00:00 | |
| DM0DOS-11 | 2026-09-04 08:08:05 | 52.61737 | 9.57501 | 95° | 148km/h | 9688m | -8.3m/s | -37.2°C | 89.6% | 292.1hPa | 2.5V | 08:10:48 | 01:35:08 | 00:00:00 | |
| DO2SHX-10 | 2026-09-04 08:08:05 | 52.61717 | 9.57804 | 97° | 146km/h | 9654m | -7.6m/s | -36.9°C | 90.6% | 293.7hPa | 2.6V | 00:00:00 | 01:35:13 | 00:00:00 | |
| DL1XH-15 | 2026-09-04 08:08:04 | 52.61741 | 9.57439 | 95° | 150km/h | 9697m | -8.5m/s | -37.3°C | 89.6% | 291.8hPa | 2.6V | 08:10:49 | 01:35:07 | 00:00:00 | |
| DL1XH-west | 2026-09-04 08:08:02 | 52.61729 | 9.57623 | 96° | 148km/h | 9674m | -7.2m/s | -37.1°C | 89.7% | 292.7hPa | 2.5V | 08:11:35 | 01:35:10 | 00:00:00 | |
| DF8AY | 2026-09-04 08:08:01 | 52.61733 | 9.57562 | 97° | 148km/h | 9681m | -6.5m/s | -37.1°C | 89.6% | 292.4hPa | 2.5V | 08:11:35 | 01:35:09 | 00:00:00 | |
| AA1-15 | 2026-09-04 08:07:58 | 52.61745 | 9.57378 | 96° | 146km/h | 9705m | -7.8m/s | -37.3°C | 89.9% | 291.5hPa | 2.6V | 08:11:35 | 01:35:06 | 00:00:00 | |
| GOEST3-10 | 2026-09-04 08:07:58 | 52.61745 | 9.57378 | 97° | 148km/h | 9705m | -7.8m/s | -37.3°C | 89.7% | 291.4hPa | 2.6V | 00:00:00 | 00:00:00 | 00:00:00 | |
| DL1XH1-15 | 2026-09-04 08:07:57 | 52.61761 | 9.57134 | 97° | 146km/h | 9737m | -8.4m/s | -37.6°C | 90.2% | 290.1hPa | 2.6V | 08:10:54 | 01:35:02 | 00:00:00 | |
| BIOWL1-15 | 2026-09-04 08:07:57 | 52.61749 | 9.57317 | 95° | 148km/h | 9713m | -8.5m/s | -37.4°C | 90.2% | 291.2hPa | 2.5V | 08:11:35 | 01:35:05 | 00:00:00 | |
| EDDB2-12 | 2026-09-04 08:07:57 | 52.61749 | 9.57317 | 95° | 146km/h | 9713m | -8.5m/s | -37.4°C | 83.3% | 291.2hPa | 2.5V | 00:00:00 | 00:00:00 | 00:00:00 | |
| DO2SHX-10 | 2026-09-04 08:07:56 | 52.61752 | 9.57256 | 96° | 148km/h | 9721m | -8.1m/s | -37.4°C | 90.3% | 290.8hPa | 2.5V | 00:00:00 | 01:35:04 | 00:00:00 | |
| DM0DOS-11 | 2026-09-04 08:07:55 | 52.61777 | 9.56895 | 95° | 144km/h | 9770m | -9m/s | -37.9°C | 90.4% | 288.7hPa | 2.5V | 08:10:58 | 01:34:58 | 00:00:00 | |
| DF5WG-10 | 2026-09-04 08:07:55 | 52.61756 | 9.57195 | 97° | 144km/h | 9729m | -7.3m/s | -37.5°C | 90.5% | 290.4hPa | 2.5V | 00:00:00 | 01:35:03 | 00:00:00 | |
| DL1XH-15 | 2026-09-04 08:07:54 | 52.61781 | 9.56835 | 96° | 144km/h | 9779m | -8.8m/s | -38°C | 90.5% | 288.4hPa | 2.5V | 08:10:59 | 01:34:57 | 00:00:00 | |
| DL1XH-west | 2026-09-04 08:07:52 | 52.61769 | 9.57014 | 96° | 144km/h | 9753m | -7.7m/s | -37.8°C | 90.5% | 289.4hPa | 2.6V | 08:11:35 | 01:35:00 | 00:00:00 | |
| DF8AY | 2026-09-04 08:07:50 | 52.61777 | 9.56895 | 96° | 144km/h | 9770m | -9m/s | -37.9°C | 90.6% | 288.8hPa | 2.5V | 08:11:35 | 01:34:58 | 00:00:00 | |
| AA1-15 | 2026-09-04 08:07:48 | 52.61785 | 9.56775 | 96° | 146km/h | 9787m | -8.2m/s | -38°C | 90.9% | 288.1hPa | 2.6V | 08:11:35 | 01:34:56 | 00:00:00 | |
| BIOWL1-15 | 2026-09-04 08:07:48 | 52.61792 | 9.56656 | 97° | 144km/h | 9804m | -8.8m/s | -38.2°C | 91.1% | 287.3hPa | 2.5V | 08:11:35 | 01:34:54 | 00:00:00 | |
| SONCRA | 2026-09-04 08:07:48 | 52.61788 | 9.56715 | 96° | 144km/h | 9795m | -8.5m/s | -38.1°C | 83.8% | 287.8hPa | 2.5V | 00:00:00 | 00:00:00 | 00:00:00 | |
| DL1XH1-15 | 2026-09-04 08:07:47 | 52.61801 | 9.56535 | 96° | 148km/h | 9820m | -8.7m/s | -38.3°C | 91.2% | 286.7hPa | 2.5V | 08:11:04 | 01:34:52 | 00:00:00 | |
| DB0ND-19 | 2026-09-04 08:07:45 | 52.61801 | 9.56535 | 96° | 148km/h | 9820m | -8.7m/s | -38.3°C | 84.4% | 286.7hPa | 2.5V | 00:00:00 | 00:00:00 | 00:00:00 | |
| DL1XH-15 | 2026-09-04 08:07:44 | 52.61822 | 9.56233 | 96° | 148km/h | 9863m | -8.1m/s | -38.7°C | 91.4% | 284.9hPa | 2.5V | 08:11:09 | 01:34:47 | 00:00:00 | |
| DL1XH-west | 2026-09-04 08:07:42 | 52.61809 | 9.56413 | 96° | 148km/h | 9837m | -8.4m/s | -38.5°C | 91.5% | 286hPa | 2.6V | 08:11:35 | 01:34:50 | 00:00:00 | |
| DF8AY | 2026-09-04 08:07:39 | 52.61822 | 9.56233 | 97° | 148km/h | 9864m | -8.1m/s | -38.7°C | 91.2% | 284.9hPa | 2.5V | 08:11:35 | 01:34:47 | 00:00:00 | |
| AA1-15 | 2026-09-04 08:07:37 | 52.61830 | 9.56112 | 96° | 142km/h | 9879m | -8.3m/s | -38.9°C | 91% | 284.2hPa | 2.5V | 08:11:35 | 01:34:45 | 00:00:00 | |
| DL1XH1-15 | 2026-09-04 08:07:37 | 52.61842 | 9.55932 | 96° | 144km/h | 9905m | -9m/s | -39°C | 90.3% | 283.2hPa | 2.6V | 08:11:14 | 01:34:42 | 00:00:00 | |
| DL3AQ-11 | 2026-09-04 08:07:36 | 52.61838 | 9.55992 | 95° | 146km/h | 9896m | -8.4m/s | -39.0°C | 84.1% | 283.6hPa | 2.6V | 00:00:00 | 00:00:00 | 00:00:00 | |
| DM0DOS-11 | 2026-09-04 08:07:35 | 52.61858 | 9.55691 | 95° | 146km/h | 9943m | -9.6m/s | -39.4°C | 91.2% | 281.6hPa | 2.6V | 08:11:18 | 01:34:38 | 00:00:00 | |
| BIOWL1-15 | 2026-09-04 08:07:35 | 52.61838 | 9.55992 | 96° | 146km/h | 9896m | -8.4m/s | -39°C | 91.4% | 283.6hPa | 2.6V | 08:11:35 | 01:34:43 | 00:00:00 | |
| DL1XH-west | 2026-09-04 08:07:31 | 52.61854 | 9.55751 | 96° | 146km/h | 9934m | -9.3m/s | -39.3°C | 90.6% | 282hPa | 2.5V | 08:11:35 | 01:34:39 | 00:00:00 | |
| DF8AY | 2026-09-04 08:07:29 | 52.61861 | 9.55631 | 95° | 142km/h | 9952m | -8.5m/s | -39.4°C | 90.8% | 281.2hPa | 2.6V | 08:11:35 | 01:34:37 | 00:00:00 | |
| AA1-15 | 2026-09-04 08:07:26 | 52.61872 | 9.55452 | 97° | 144km/h | 9981m | -9.2m/s | -39.7°C | 90.4% | 280.1hPa | 2.5V | 08:11:35 | 01:34:34 | 00:00:00 | |
| BIOWL1-15 | 2026-09-04 08:07:26 | 52.61879 | 9.55332 | 95° | 141km/h | 9999m | -9m/s | -39.9°C | 90% | 279.3hPa | 2.6V | 08:11:35 | 01:34:32 | 00:00:00 | |
| EDDB2-12 | 2026-09-04 08:07:26 | 52.61876 | 9.55392 | 95° | 144km/h | 9990m | -9.6m/s | -39.8°C | 84.4% | 279.7hPa | 2.5V | 00:00:00 | 00:00:00 | 00:00:00 | |
| DM0DOS-11 | 2026-09-04 08:07:25 | 52.61893 | 9.55096 | 95° | 141km/h | 10036m | -9.7m/s | -40.2°C | 88.1% | 277.8hPa | 2.5V | 08:11:28 | 01:34:28 | 00:00:00 | |
| DJ2DS-15 | 2026-09-04 08:07:25 | 52.61876 | 9.55392 | 96° | 144km/h | 9990m | -9.5m/s | -39.7°C | 91.4% | 279.7hPa | 2.6V | 00:00:00 | 01:34:33 | 00:00:00 | |
| DL1XH-15 | 2026-09-04 08:07:24 | 52.61897 | 9.55037 | 95° | 146km/h | 10047m | -12.2m/s | -40.3°C | 87.1% | 277.5hPa | 2.5V | 08:11:29 | 01:34:27 | 00:00:00 | |
| DL1XH-west | 2026-09-04 08:07:20 | 52.61893 | 9.55096 | 95° | 141km/h | 10036m | -9.7m/s | -40.2°C | 87.9% | 277.8hPa | 2.5V | 08:11:35 | 01:34:28 | 00:00:00 | |
| DF8AY | 2026-09-04 08:07:19 | 52.61897 | 9.55037 | 96° | 146km/h | 10047m | -12.2m/s | -40.3°C | 87.3% | 277.5hPa | 2.5V | 08:11:35 | 01:34:27 | 00:00:00 | |
| DB0NH | 2026-09-04 08:07:19 | 52.61897 | 9.55036 | 96° | 148km/h | 10048m | -12.2m/s | -40.3°C | 87.1% | 277.5hPa | 2.5V | 00:00:00 | 01:34:27 | 00:00:00 | |
| GOEST3-10 | 2026-09-04 08:07:18 | 52.61900 | 9.54977 | 96° | 144km/h | 10059m | -11.0m/s | -40.4°C | 87.6% | 276.9hPa | 2.5V | 00:00:00 | 00:00:00 | 00:00:00 | |
| DL1XH1-15 | 2026-09-04 08:07:17 | 52.61917 | 9.54740 | 96° | 148km/h | 10100m | -12.8m/s | -40.8°C | 81.1% | 275.4hPa | 2.5V | 08:11:34 | 01:34:22 | 00:00:00 | |
| AA1-15 | 2026-09-04 08:07:16 | 52.61909 | 9.54860 | 97° | 142km/h | 10079m | -9.1m/s | -40.6°C | 86.8% | 276.1hPa | 2.6V | 08:11:35 | 01:34:24 | 00:00:00 | |
| DM0DOS-11 | 2026-09-04 08:07:15 | 52.61936 | 9.54499 | 96° | 148km/h | 10143m | -7.4m/s | -41.1°C | 81.4% | 273.5hPa | 2.5V | 08:11:38 | 01:34:18 | 00:00:00 | |
| DF2AP-13 | 2026-09-04 08:07:15 | 52.61913 | 9.54801 | 98° | 150km/h | 10088m | -10.6m/s | -40.6°C | 83.5% | 275.7hPa | 2.5V | 00:00:00 | 01:34:23 | 00:00:00 | |
| DL1XH-15 | 2026-09-04 08:07:14 | 52.61940 | 9.54437 | 97° | 148km/h | 10150m | -7.9m/s | -41.2°C | 81.6% | 273.1hPa | 2.5V | 08:11:39 | 01:34:17 | 00:00:00 | |
| BIOWL1-15 | 2026-09-04 08:07:13 | 52.61922 | 9.54680 | 97° | 146km/h | 10112m | -11.8m/s | -40.9°C | 82.6% | 274.9hPa | 2.5V | 08:11:35 | 01:34:21 | 00:00:00 | |
| GOEST3-10 | 2026-09-04 08:07:13 | 52.61922 | 9.54680 | 97° | 148km/h | 10112m | -11.8m/s | -40.8°C | 80.4% | 274.9hPa | 2.5V | 00:00:00 | 01:34:21 | 00:00:00 | |
| DL4XJ-10 | 2026-09-04 08:07:12 | 52.61927 | 9.54619 | 97° | 150km/h | 10123m | -10.7m/s | -41.5°C | 0% | 0hPa | 2.5V | 00:00:00 | 00:00:00 | 00:00:00 | |
| DB0DAN | 2026-09-04 08:07:10 | 52.61936 | 9.54499 | 97° | 141km/h | 10143m | -7.4m/s | -41.2°C | 74.7% | 273.51hPa | 2.5V | 00:00:00 | 00:00:00 | 00:00:00 | |
| DL1NUX | 2026-09-04 08:07:10 | 52.61958 | 9.54193 | 95° | 148km/h | 10183m | -7.9m/s | -41.4°C | 82.8% | 271.9hPa | 2.6V | 08:11:43 | 01:34:13 | 00:00:00 | |
| DL1XH-west | 2026-09-04 08:07:09 | 52.61940 | 9.54437 | 97° | 148km/h | 10150m | -7.9m/s | -41.2°C | 81.5% | 273.1hPa | 2.5V | 08:12:26 | 01:34:17 | 00:00:00 | |
| DF8AY | 2026-09-04 08:07:08 | 52.61945 | 9.54376 | 97° | 148km/h | 10159m | -9m/s | -41.2°C | 81.5% | 272.9hPa | 2.5V | 08:12:26 | 01:34:16 | 00:00:00 | |
| BIOWL1-15 | 2026-09-04 08:07:06 | 52.61970 | 9.54009 | 96° | 150km/h | 10203m | -6m/s | -41.6°C | 81.6% | 271hPa | 2.5V | 08:12:26 | 01:34:10 | 00:00:00 | |
| AA1-15 | 2026-09-04 08:07:05 | 52.61958 | 9.54193 | 96° | 148km/h | 10183m | -7.9m/s | -41.4°C | 82% | 271.9hPa | 2.6V | 08:12:26 | 01:34:13 | 00:00:00 | |
| SMARD9-15 | 2026-09-04 08:07:05 | 52.61962 | 9.54132 | 95° | 148km/h | 10190m | -6.1m/s | -41.4°C | 76.1% | 271.6hPa | 2.5V | 00:00:00 | 00:00:00 | 00:00:00 | |
| DL1XH-15 | 2026-09-04 08:07:04 | 52.61982 | 9.53822 | 96° | 153km/h | 10222m | -5.5m/s | -41.7°C | 80.4% | 270.3hPa | 2.5V | 08:11:49 | 01:34:07 | 00:00:00 | |
| HSKMA3-T | 2026-09-04 08:07:03 | 52.61973 | 9.53947 | 96° | 151km/h | 10210m | -6.5m/s | -41.6°C | 80.9% | 270.7hPa | 2.6V | 08:12:26 | 01:34:09 | 00:00:00 | |
| DL1XH-west | 2026-09-04 08:06:59 | 52.61982 | 9.53822 | 97° | 153km/h | 10222m | -5.5m/s | -41.7°C | 80.7% | 270.3hPa | 2.5V | 08:12:26 | 01:34:07 | 00:00:00 | |
| DO2SHX-10 | 2026-09-04 08:06:59 | 52.61982 | 9.53822 | 97° | 153km/h | 10222m | -5.4m/s | -41.6°C | 80.4% | 270.2hPa | 2.5V | 00:00:00 | 01:34:07 | 00:00:00 | |
| GOEST3-10 | 2026-09-04 08:06:58 | 52.61986 | 9.53759 | 98° | 151km/h | 10228m | -6.4m/s | -41.7°C | 79.8% | 270.0hPa | 2.5V | 00:00:00 | 00:00:00 | 00:00:00 | |
| DL1XH1-15 | 2026-09-04 08:06:57 | 52.62008 | 9.53509 | 98° | 151km/h | 10260m | -6.1m/s | -42°C | 77.5% | 268.8hPa | 2.5V | 08:11:54 | 01:34:02 | 00:00:00 | |
| DF8AY | 2026-09-04 08:06:57 | 52.61991 | 9.53696 | 98° | 151km/h | 10234m | -6.4m/s | -41.8°C | 81% | 269.7hPa | 2.5V | 08:12:26 | 01:34:05 | 00:00:00 | |
| DL1ZP-14 | 2026-09-04 08:06:57 | 52.61997 | 9.53634 | 98° | 150km/h | 10242m | -9.1m/s | -41.9°C | 71.4% | 269.6hPa | 2.7V | 00:00:00 | 00:00:00 | 00:00:00 | |
| DL1NUX | 2026-09-04 08:06:56 | 52.62026 | 9.53324 | 98° | 150km/h | 10280m | -5.8m/s | -42.2°C | 78.6% | 267.9hPa | 2.6V | 08:11:57 | 01:33:59 | 00:00:00 | |
| AA1-15 | 2026-09-04 08:06:55 | 52.62003 | 9.53571 | 99° | 151km/h | 10252m | -10.2m/s | -42°C | 79.3% | 269.3hPa | 2.6V | 08:12:26 | 01:34:03 | 00:00:00 | |
| BIOWL1-15 | 2026-09-04 08:06:52 | 52.62020 | 9.53386 | 99° | 150km/h | 10273m | -8.8m/s | -42.2°C | 78.5% | 268.3hPa | 2.5V | 08:12:26 | 01:34:00 | 00:00:00 | |
| DL1XH-west | 2026-09-04 08:06:48 | 52.62042 | 9.53138 | 98° | 151km/h | 10297m | -5.4m/s | -42.4°C | 78.8% | 267.2hPa | 2.5V | 08:12:26 | 01:33:56 | 00:00:00 | |
| DL1XH1-15 | 2026-09-04 08:06:47 | 52.62064 | 9.52888 | 97° | 151km/h | 10321m | -6.4m/s | -42.6°C | 79.6% | 266.3hPa | 2.6V | 08:12:04 | 01:33:52 | 00:00:00 | |
| DF8AY | 2026-09-04 08:06:46 | 52.62053 | 9.53013 | 98° | 151km/h | 10309m | -5.2m/s | -42.5°C | 79.2% | 266.7hPa | 2.5V | 08:12:26 | 01:33:54 | 00:00:00 | |
| DL1NUX | 2026-09-04 08:06:46 | 52.62079 | 9.52700 | 97° | 151km/h | 10342m | -7.4m/s | -42.8°C | 80.4% | 265.5hPa | 2.5V | 08:12:07 | 01:33:49 | 00:00:00 | |
| DO9LL-15 | 2026-09-04 08:06:46 | 52.62053 | 9.53013 | 98° | 153km/h | 10309m | -5.2m/s | -42.4°C | 80.0% | 266.7hPa | 2.5V | 00:00:00 | 01:33:54 | 00:00:00 | |
| DM0DOS-11 | 2026-09-04 08:06:45 | 52.62084 | 9.52637 | 97° | 151km/h | 10349m | -6.2m/s | -42.9°C | 80.7% | 265.2hPa | 2.5V | 08:12:08 | 01:33:48 | 00:00:00 | |
| AA1-15 | 2026-09-04 08:06:44 | 52.62064 | 9.52888 | 98° | 153km/h | 10321m | -6.4m/s | -42.6°C | 79.8% | 266.3hPa | 2.6V | 08:12:26 | 01:33:52 | 00:00:00 | |
| BIOWL1-15 | 2026-09-04 08:06:41 | 52.62079 | 9.52700 | 97° | 151km/h | 10342m | -7.4m/s | -42.8°C | 80.6% | 265.5hPa | 2.5V | 08:12:26 | 01:33:49 | 00:00:00 | |
| DO2SHX-10 | 2026-09-04 08:06:41 | 52.62079 | 9.52700 | 98° | 151km/h | 10342m | -7.4m/s | -42.8°C | 80.4% | 265.4hPa | 2.6V | 00:00:00 | 01:33:49 | 00:00:00 | |
| SMARD9-10 | 2026-09-04 08:06:40 | 52.62084 | 9.52637 | 98° | 151km/h | 10349m | -6.2m/s | -42.9°C | 73.7% | 265.2hPa | 2.6V | 00:00:00 | 00:00:00 | 00:00:00 | |
| DL8OAI-8 | 2026-09-04 08:06:39 | 52.62084 | 9.52637 | 98° | 151km/h | 10349m | -6.2m/s | -42.9°C | 73.7% | 265.2hPa | 2.6V | 08:12:00 | 00:00:00 | 00:00:00 | |
| DO2SHX-10 | 2026-09-04 08:06:38 | 52.62093 | 9.52513 | 97° | 151km/h | 10362m | -7.4m/s | -42.9°C | 80.3% | 264.7hPa | 2.6V | 00:00:00 | 01:33:46 | 00:00:00 | |
| DL1XH1-15 | 2026-09-04 08:06:37 | 52.62112 | 9.52260 | 97° | 157km/h | 10392m | -7m/s | -43.3°C | 81.7% | 263.6hPa | 2.5V | 08:12:14 | 01:33:42 | 00:00:00 | |
| DL1XH-west | 2026-09-04 08:06:37 | 52.62098 | 9.52451 | 97° | 151km/h | 10369m | -6.8m/s | -43°C | 81.5% | 264.4hPa | 2.6V | 08:12:26 | 01:33:45 | 00:00:00 | |
| DF8AY | 2026-09-04 08:06:36 | 52.62102 | 9.52388 | 97° | 153km/h | 10376m | -8.2m/s | -43.1°C | 81.8% | 264.1hPa | 2.5V | 08:12:26 | 01:33:44 | 00:00:00 | |
| DL1NUX | 2026-09-04 08:06:36 | 52.62128 | 9.52067 | 97° | 155km/h | 10413m | -6.9m/s | -43.5°C | 81.6% | 262.7hPa | 2.5V | 08:12:17 | 01:33:39 | 00:00:00 | |
| DM0DOS-11 | 2026-09-04 08:06:35 | 52.62133 | 9.52003 | 97° | 155km/h | 10420m | -7.1m/s | -43.6°C | 81.1% | 262.4hPa | 2.5V | 08:12:18 | 01:33:38 | 00:00:00 | |
| DO2JMG | 2026-09-04 08:06:34 | 52.62112 | 9.52260 | 97° | 157km/h | 10392m | -7m/s | -43.3°C | 82.5% | 263.6hPa | 2.5V | 08:12:26 | 01:33:42 | 00:00:00 | |
| AA1-15 | 2026-09-04 08:06:33 | 52.62117 | 9.52195 | 98° | 157km/h | 10399m | -7.3m/s | -43.3°C | 82.8% | 263.3hPa | 2.7V | 08:12:26 | 01:33:41 | 00:00:00 | |
| BIOWL1-15 | 2026-09-04 08:06:30 | 52.62133 | 9.52003 | 97° | 155km/h | 10421m | -7.1m/s | -43.6°C | 82.7% | 262.4hPa | 2.5V | 08:12:26 | 01:33:38 | 00:00:00 | |
| DD8BA-10 | 2026-09-04 08:06:30 | 52.62132 | 9.52003 | 98° | 155km/h | 10421m | -7.0m/s | -43.5°C | 81.1% | 262.4hPa | 2.5V | 08:12:00 | 00:00:00 | 00:00:00 | |
| DO2SHX-10 | 2026-09-04 08:06:29 | 52.62137 | 9.51939 | 98° | 153km/h | 10428m | -7.4m/s | -43.6°C | 80.5% | 262.2hPa | 2.5V | 08:12:00 | 01:33:37 | 00:00:00 | |
| GOEST3-10 | 2026-09-04 08:06:28 | 52.62142 | 9.51876 | 97° | 153km/h | 10435m | -8.4m/s | -43.6°C | 80.1% | 261.9hPa | 2.5V | 00:00:00 | 00:00:00 | 00:00:00 | |
| DL1XH1-15 | 2026-09-04 08:06:27 | 52.62161 | 9.51624 | 96° | 155km/h | 10466m | -7.2m/s | -44°C | 78.6% | 260.7hPa | 2.5V | 08:12:24 | 01:33:32 | 00:00:00 | |
| DL1XH-west | 2026-09-04 08:06:26 | 52.62152 | 9.51750 | 97° | 153km/h | 10452m | -8.1m/s | -43.8°C | 81.6% | 261.3hPa | 2.6V | 08:12:26 | 01:33:34 | 00:00:00 | |
| DL1ZP-14 | 2026-09-04 08:06:26 | 52.62156 | 9.51687 | 96° | 151km/h | 10459m | -6.8m/s | -43.9°C | 72.2% | 260.9hPa | 2.5V | 00:00:00 | 00:00:00 | 00:00:00 | |
| DM0DOS-11 | 2026-09-04 08:06:25 | 52.62179 | 9.51367 | 95° | 155km/h | 10495m | -6.5m/s | -44.2°C | 76.2% | 259.5hPa | 2.6V | 08:12:28 | 01:33:28 | 00:00:00 | |
| DJ2DS-15 | 2026-09-04 08:06:25 | 52.62156 | 9.51687 | 97° | 153km/h | 10459m | -6.7m/s | -43.8°C | 79.3% | 260.9hPa | 2.5V | 08:12:00 | 01:33:33 | 00:00:00 | |
| DL1NUX | 2026-09-04 08:06:24 | 52.62183 | 9.51303 | 95° | 155km/h | 10502m | -8.1m/s | -44.3°C | 76% | 259.3hPa | 2.6V | 08:12:29 | 01:33:27 | 00:00:00 | |
| DO2JMG | 2026-09-04 08:06:23 | 52.62166 | 9.51560 | 97° | 155km/h | 10473m | -7.3m/s | -44°C | 79% | 260.4hPa | 2.5V | 08:12:26 | 01:33:31 | 00:00:00 | |
| AA1-15 | 2026-09-04 08:06:22 | 52.62170 | 9.51496 | 97° | 155km/h | 10481m | -7.4m/s | -44.1°C | 78% | 260.1hPa | 2.5V | 08:12:26 | 01:33:30 | 00:00:00 | |
| BIOWL1-15 | 2026-09-04 08:06:19 | 52.62183 | 9.51303 | 95° | 155km/h | 10502m | -8.1m/s | -44.3°C | 77.6% | 259.3hPa | 2.6V | 08:13:17 | 01:33:27 | 00:00:00 | |
| DL1XH-west | 2026-09-04 08:06:16 | 52.62195 | 9.51113 | 96° | 151km/h | 10524m | -7.4m/s | -44.5°C | 78.6% | 258.3hPa | 2.5V | 08:13:17 | 01:33:24 | 00:00:00 | |
| DO9LL-15 | 2026-09-04 08:06:16 | 52.62195 | 9.51113 | 96° | 155km/h | 10524m | -7.4m/s | -44.4°C | 77.5% | 258.3hPa | 2.5V | 00:00:00 | 01:33:24 | 00:00:00 | |
| DF2AP-13 | 2026-09-04 08:06:15 | 52.62199 | 9.51050 | 97° | 153km/h | 10532m | -7.5m/s | -44.5°C | 78.4% | 258.0hPa | 2.5V | 00:00:00 | 01:33:23 | 00:00:00 | |
| DL1NUX | 2026-09-04 08:06:14 | 52.62228 | 9.50673 | 97° | 151km/h | 10577m | -7.7m/s | -45°C | 81.2% | 256.4hPa | 2.5V | 08:12:39 | 01:33:17 | 00:00:00 | |
| DO2JMG | 2026-09-04 08:06:13 | 52.62208 | 9.50924 | 97° | 153km/h | 10547m | -7.6m/s | -44.7°C | 79.5% | 257.5hPa | 2.6V | 08:13:17 | 01:33:21 | 00:00:00 | |
| AA1-15 | 2026-09-04 08:06:11 | 52.62218 | 9.50799 | 97° | 151km/h | 10563m | -7.5m/s | -44.8°C | 80.5% | 257hPa | 2.5V | 08:13:17 | 01:33:19 | 00:00:00 | |
| BIOWL1-15 | 2026-09-04 08:06:11 | 52.62228 | 9.50673 | 97° | 151km/h | 10577m | -7.7m/s | -45°C | 81.7% | 256.4hPa | 2.5V | 08:13:17 | 01:33:17 | 00:00:00 | |
| HSKMA3-T | 2026-09-04 08:06:10 | 52.62223 | 9.50736 | 97° | 151km/h | 10570m | -7.5m/s | -44.9°C | 81.3% | 256.6hPa | 2.5V | 08:14:08 | 01:33:18 | 00:00:00 | |
| DB0DAN | 2026-09-04 08:06:10 | 52.62223 | 9.50736 | 97° | 144km/h | 10570m | -7.5m/s | -44.9°C | 73.6% | 256.62hPa | 2.5V | 00:00:00 | 00:00:00 | 00:00:00 | |
| DL1XH-west | 2026-09-04 08:06:06 | 52.62242 | 9.50484 | 97° | 153km/h | 10601m | -8.3m/s | -45.2°C | 82.7% | 255.5hPa | 2.6V | 08:13:17 | 01:33:14 | 00:00:00 | |
| DF8AY | 2026-09-04 08:06:05 | 52.62246 | 9.50421 | 97° | 153km/h | 10609m | -8m/s | -45.3°C | 82.8% | 255.2hPa | 2.6V | 08:13:17 | 01:33:13 | 00:00:00 | |
| AA1-15 | 2026-09-04 08:06:01 | 52.62260 | 9.50164 | 94° | 157km/h | 10641m | -8.6m/s | -45.6°C | 83.6% | 254hPa | 2.5V | 08:13:17 | 01:33:09 | 00:00:00 | |
| BIOWL1-15 | 2026-09-04 08:06:00 | 52.62269 | 9.49971 | 95° | 155km/h | 10668m | -8.9m/s | -45.8°C | 83% | 253hPa | 2.6V | 08:13:17 | 01:33:06 | 00:00:00 | |
| DO2JMG | 2026-09-04 08:05:59 | 52.62266 | 9.50035 | 94° | 155km/h | 10659m | -8.4m/s | -45.7°C | 83.1% | 253.2hPa | 2.6V | 08:13:17 | 01:33:07 | 00:00:00 | |
| DL1XH-west | 2026-09-04 08:05:55 | 52.62279 | 9.49779 | 95° | 155km/h | 10694m | -8.3m/s | -46°C | 82.3% | 252hPa | 2.5V | 08:13:17 | 01:33:03 | 00:00:00 | |
| DF8AY | 2026-09-04 08:05:54 | 52.62282 | 9.49715 | 96° | 155km/h | 10702m | -7m/s | -46.1°C | 82.4% | 251.7hPa | 2.5V | 08:13:17 | 01:33:02 | 00:00:00 | |
| AA1-15 | 2026-09-04 08:05:50 | 52.62297 | 9.49454 | 96° | 159km/h | 10729m | -6.4m/s | -46.3°C | 81.9% | 250.6hPa | 2.5V | 08:13:17 | 01:32:58 | 00:00:00 | |
| DF8AY | 2026-09-04 08:05:48 | 52.62327 | 9.48995 | 95° | 157km/h | 10777m | -6.6m/s | -46.8°C | 81.9% | 248.8hPa | 2.5V | 08:13:17 | 01:32:51 | 00:00:00 | |
| DO2JMG | 2026-09-04 08:05:48 | 52.62306 | 9.49322 | 96° | 161km/h | 10742m | -6.7m/s | -46.5°C | 81.7% | 250.1hPa | 2.5V | 08:13:17 | 01:32:56 | 00:00:00 | |
| GOEST3-10 | 2026-09-04 08:05:48 | 52.62306 | 9.49322 | 97° | 159km/h | 10742m | -6.7m/s | -46.4°C | 80.8% | 250.0hPa | 2.6V | 00:00:00 | 00:00:00 | 00:00:00 | |
| DL1XH1-15 | 2026-09-04 08:05:47 | 52.62324 | 9.49060 | 95° | 157km/h | 10769m | -7m/s | -46.7°C | 80.7% | 249.1hPa | 2.6V | 08:13:04 | 01:32:52 | 00:00:00 | |
| BIOWL1-15 | 2026-09-04 08:05:47 | 52.62310 | 9.49256 | 97° | 161km/h | 10748m | -6.9m/s | -46.5°C | 81.6% | 249.8hPa | 2.5V | 08:13:17 | 01:32:55 | 00:00:00 | |
| DO2SHX-10 | 2026-09-04 08:05:47 | 52.62310 | 9.49256 | 97° | 159km/h | 10748m | -6.8m/s | -46.5°C | 80.8% | 249.8hPa | 2.5V | 00:00:00 | 01:32:55 | 00:00:00 | |
| DM0DOS-11 | 2026-09-04 08:05:45 | 52.62337 | 9.48800 | 94° | 157km/h | 10797m | -7.5m/s | -47°C | 80.2% | 248hPa | 2.5V | 08:13:08 | 01:32:48 | 00:00:00 | |
| DL1XH-west | 2026-09-04 08:05:44 | 52.62324 | 9.49060 | 95° | 159km/h | 10769m | -7m/s | -46.7°C | 81.9% | 249.1hPa | 2.6V | 08:13:17 | 01:32:52 | 00:00:00 | |
| AA1-15 | 2026-09-04 08:05:40 | 52.62338 | 9.48800 | 94° | 157km/h | 10797m | -7.5m/s | -47°C | 82.3% | 248hPa | 2.5V | 08:13:17 | 01:32:48 | 00:00:00 | |
| BIOWL1-15 | 2026-09-04 08:05:39 | 52.62347 | 9.48604 | 94° | 161km/h | 10820m | -8.8m/s | -47.1°C | 82.4% | 247.1hPa | 2.6V | 08:13:17 | 01:32:45 | 00:00:00 | |
| DO2JMG | 2026-09-04 08:05:38 | 52.62344 | 9.48670 | 95° | 159km/h | 10812m | -7.2m/s | -47.1°C | 82.5% | 247.4hPa | 2.7V | 08:13:17 | 01:32:46 | 00:00:00 | |
| DO2SHX-10 | 2026-09-04 08:05:38 | 52.62344 | 9.48669 | 95° | 159km/h | 10812m | -7.1m/s | -47.0°C | 79.8% | 247.4hPa | 2.5V | 00:00:00 | 01:32:46 | 00:00:00 | |
| DL1XH1-15 | 2026-09-04 08:05:37 | 52.62357 | 9.48405 | 94° | 159km/h | 10844m | -7.4m/s | -47.4°C | 80.4% | 246.2hPa | 2.5V | 08:13:14 | 01:32:42 | 00:00:00 | |
| HTAHTA | 2026-09-04 08:05:37 | 52.62350 | 9.48537 | 94° | 159km/h | 10828m | -8.0m/s | -47.2°C | 72.4% | 246.8hPa | 2.6V | 00:00:00 | 00:00:00 | 00:00:00 | |
| DL3AQ-11 | 2026-09-04 08:05:36 | 52.62353 | 9.48471 | 94° | 159km/h | 10837m | -8.7m/s | -47.3°C | 72.5% | 246.5hPa | 2.6V | 00:00:00 | 00:00:00 | 00:00:00 | |
| DM0DOS-11 | 2026-09-04 08:05:35 | 52.62370 | 9.48144 | 94° | 157km/h | 10877m | -8.8m/s | -47.7°C | 81.1% | 245hPa | 2.6V | 08:13:18 | 01:32:38 | 00:00:00 | |
| DL1XH-west | 2026-09-04 08:05:34 | 52.62357 | 9.48405 | 95° | 159km/h | 10844m | -7.4m/s | -47.4°C | 82.4% | 246.3hPa | 2.5V | 08:13:17 | 01:32:42 | 00:00:00 | |
| DF8AY | 2026-09-04 08:05:33 | 52.62360 | 9.48340 | 95° | 157km/h | 10852m | -7.6m/s | -47.4°C | 82.3% | 246hPa | 2.5V | 08:13:17 | 01:32:41 | 00:00:00 | |
| AA1-15 | 2026-09-04 08:05:30 | 52.62370 | 9.48144 | 95° | 157km/h | 10877m | -8.8m/s | -47.7°C | 82.2% | 245hPa | 2.6V | 08:14:08 | 01:32:38 | 00:00:00 | |
| DO2JMG | 2026-09-04 08:05:27 | 52.62381 | 9.47948 | 95° | 159km/h | 10900m | -7.4m/s | -47.8°C | 82.1% | 244.2hPa | 2.5V | 08:14:08 | 01:32:35 | 00:00:00 | |
| BIOWL1-15 | 2026-09-04 08:05:26 | 52.62384 | 9.47882 | 95° | 161km/h | 10907m | -7.4m/s | -47.9°C | 81.9% | 243.9hPa | 2.5V | 08:14:08 | 01:32:34 | 00:00:00 | |
| DB0DAN | 2026-09-04 08:05:25 | 52.62388 | 9.47815 | 95° | 153km/h | 10915m | -7.3m/s | -47.9°C | 72.6% | 243.62hPa | 2.7V | 00:00:00 | 00:00:00 | 00:00:00 | |
| DM0DOS-11 | 2026-09-04 08:05:25 | 52.62403 | 9.47481 | 94° | 159km/h | 10953m | -9.6m/s | -48.3°C | 80% | 242.3hPa | 2.5V | 08:13:28 | 01:32:28 | 00:00:00 | |
| DJ2DS-15 | 2026-09-04 08:05:25 | 52.62388 | 9.47815 | 96° | 157km/h | 10915m | -7.2m/s | -47.9°C | 80.5% | 243.6hPa | 2.7V | 00:00:00 | 01:32:33 | 00:00:00 | |
| DL1NUX | 2026-09-04 08:05:24 | 52.62407 | 9.47415 | 94° | 159km/h | 10962m | -9.7m/s | -48.4°C | 80.1% | 242hPa | 2.5V | 08:13:29 | 01:32:27 | 00:00:00 | |
| DL1XH-west | 2026-09-04 08:05:23 | 52.62394 | 9.47681 | 94° | 162km/h | 10929m | -7.5m/s | -48.1°C | 81.6% | 243.1hPa | 2.6V | 08:14:08 | 01:32:31 | 00:00:00 | |
| AA1-15 | 2026-09-04 08:05:19 | 52.62407 | 9.47415 | 95° | 159km/h | 10962m | -9.7m/s | -48.4°C | 81.3% | 242hPa | 2.5V | 08:14:08 | 01:32:27 | 00:00:00 | |
| DO2JMG | 2026-09-04 08:05:17 | 52.62414 | 9.47284 | 95° | 155km/h | 10977m | -6.6m/s | -48.5°C | 81.2% | 241.3hPa | 2.6V | 08:14:08 | 01:32:25 | 00:00:00 | |
| BIOWL1-15 | 2026-09-04 08:05:16 | 52.62417 | 9.47220 | 95° | 155km/h | 10984m | -7.8m/s | -48.6°C | 81.1% | 241hPa | 2.6V | 08:14:08 | 01:32:24 | 00:00:00 | |
| DM0DOS-11 | 2026-09-04 08:05:15 | 52.62434 | 9.46844 | 92° | 153km/h | 11034m | -7.5m/s | -49°C | 79.1% | 239.2hPa | 2.6V | 08:13:38 | 01:32:18 | 00:00:00 | |
| SO1NDE-10 | 2026-09-04 08:05:15 | 52.62421 | 9.47156 | 96° | 159km/h | 10992m | -9.1m/s | -48.6°C | 78.4% | 240.7hPa | 2.6V | 00:00:00 | 01:32:23 | 00:00:00 | |
| DL1NUX | 2026-09-04 08:05:14 | 52.62436 | 9.46780 | 92° | 155km/h | 11042m | -7.8m/s | -49.1°C | 79.3% | 239hPa | 2.6V | 08:13:39 | 01:32:17 | 00:00:00 | |
| DF8AY | 2026-09-04 08:05:13 | 52.62427 | 9.47031 | 94° | 151km/h | 11010m | -9.2m/s | -48.8°C | 80.8% | 240hPa | 2.5V | 08:14:08 | 01:32:21 | 00:00:00 | |
| DO9LL-15 | 2026-09-04 08:05:13 | 52.62427 | 9.47031 | 95° | 161km/h | 11011m | -9.1m/s | -48.8°C | 78.2% | 240.0hPa | 2.6V | 00:00:00 | 01:32:21 | 00:00:00 | |
| DL4XJ-10 | 2026-09-04 08:05:12 | 52.62430 | 9.46969 | 94° | 161km/h | 11019m | -7.8m/s | -49.4°C | 0% | 0hPa | 2.6V | 00:00:00 | 00:00:00 | 00:00:00 | |
| DB0DAN | 2026-09-04 08:05:10 | 52.62434 | 9.46844 | 92° | 146km/h | 11034m | -7.5m/s | -49°C | 71.1% | 239.2hPa | 2.6V | 00:00:00 | 00:00:00 | 00:00:00 | |
| AA1-15 | 2026-09-04 08:05:08 | 52.62437 | 9.46715 | 93° | 159km/h | 11049m | -6.7m/s | -49.2°C | 81.9% | 238.7hPa | 2.5V | 08:14:08 | 01:32:16 | 00:00:00 | |
| DO2JMG | 2026-09-04 08:05:06 | 52.62442 | 9.46580 | 94° | 164km/h | 11064m | -7.8m/s | -49.3°C | 82% | 238.2hPa | 2.5V | 08:14:08 | 01:32:14 | 00:00:00 | |
| BIOWL1-15 | 2026-09-04 08:05:05 | 52.62445 | 9.46511 | 94° | 166km/h | 11071m | -7.3m/s | -49.4°C | 82.1% | 237.9hPa | 2.5V | 08:14:08 | 01:32:13 | 00:00:00 | |
| DJ2DS-15 | 2026-09-04 08:05:05 | 52.62445 | 9.46511 | 95° | 161km/h | 11071m | -7.2m/s | -49.3°C | 79.8% | 237.9hPa | 2.5V | 00:00:00 | 01:32:13 | 00:00:00 | |
| DL1NUX | 2026-09-04 08:05:04 | 52.62471 | 9.46098 | 97° | 162km/h | 11118m | -8.1m/s | -49.8°C | 78.7% | 236.2hPa | 2.5V | 08:13:49 | 01:32:07 | 00:00:00 | |
| DL1XH-west | 2026-09-04 08:05:02 | 52.62457 | 9.46304 | 96° | 168km/h | 11095m | -8.1m/s | -49.6°C | 82% | 237hPa | 2.6V | 08:14:08 | 01:32:10 | 00:00:00 | |
| AA1-15 | 2026-09-04 08:04:58 | 52.62476 | 9.46031 | 97° | 161km/h | 11127m | -8m/s | -49.9°C | 80.7% | 235.9hPa | 2.5V | 08:14:08 | 01:32:06 | 00:00:00 | |
| DL1XH1-15 | 2026-09-04 08:04:57 | 52.62495 | 9.45773 | 95° | 153km/h | 11158m | -8.7m/s | -50.1°C | 77% | 234.8hPa | 2.5V | 08:13:54 | 01:32:02 | 00:00:00 | |
| BIOWL1-15 | 2026-09-04 08:04:57 | 52.62491 | 9.45837 | 96° | 155km/h | 11150m | -7.8m/s | -50.1°C | 80% | 235hPa | 2.6V | 08:14:08 | 01:32:03 | 00:00:00 | |
| DO2JMG | 2026-09-04 08:04:56 | 52.62487 | 9.45901 | 97° | 155km/h | 11142m | -7m/s | -50°C | 80.2% | 235.3hPa | 2.7V | 08:14:08 | 01:32:04 | 00:00:00 | |
| DB0DAN | 2026-09-04 08:04:55 | 52.62491 | 9.45837 | 96° | 148km/h | 11150m | -7.8m/s | -50.1°C | 69.2% | 235.04hPa | 2.6V | 00:00:00 | 00:00:00 | 00:00:00 | |
| DL1NUX | 2026-09-04 08:04:54 | 52.62514 | 9.45449 | 95° | 161km/h | 11200m | -8.4m/s | -50.5°C | 76% | 233.3hPa | 2.5V | 08:13:59 | 01:31:57 | 00:00:00 | |
| DL1XH-west | 2026-09-04 08:04:51 | 52.62507 | 9.45580 | 95° | 157km/h | 11183m | -8.4m/s | -50.4°C | 78.8% | 233.9hPa | 2.6V | 08:14:08 | 01:31:59 | 00:00:00 | |
| HSKMA3-T | 2026-09-04 08:04:50 | 52.62518 | 9.45382 | 95° | 162km/h | 11208m | -8.3m/s | -50.6°C | 77.3% | 233hPa | 2.5V | 08:14:08 | 01:31:56 | 00:00:00 | |
| DO2SHX-10 | 2026-09-04 08:04:50 | 52.62511 | 9.45515 | 96° | 161km/h | 11192m | -8.1m/s | -50.4°C | 76.2% | 233.6hPa | 2.6V | 00:00:00 | 01:31:58 | 00:00:00 | |
| DB0NH | 2026-09-04 08:04:49 | 52.62514 | 9.45449 | 96° | 162km/h | 11200m | -8.3m/s | -50.5°C | 76.0% | 233.3hPa | 2.6V | 00:00:00 | 01:31:57 | 00:00:00 | |
| GOEST3-10 | 2026-09-04 08:04:48 | 52.62518 | 9.45382 | 96° | 162km/h | 11208m | -8.2m/s | -50.6°C | 75.5% | 233.0hPa | 2.6V | 00:00:00 | 00:00:00 | 00:00:00 | |
| DL1XH1-15 | 2026-09-04 08:04:47 | 52.62530 | 9.45112 | 93° | 164km/h | 11241m | -7.7m/s | -50.9°C | 73.2% | 231.8hPa | 2.6V | 08:14:04 | 01:31:52 | 00:00:00 | |
| AA1-15 | 2026-09-04 08:04:47 | 52.62522 | 9.45315 | 94° | 162km/h | 11216m | -8.2m/s | -50.7°C | 76.8% | 232.7hPa | 2.5V | 08:14:08 | 01:31:55 | 00:00:00 | |
| DO2JMG | 2026-09-04 08:04:45 | 52.62528 | 9.45180 | 94° | 162km/h | 11233m | -8.7m/s | -50.8°C | 75.5% | 232.1hPa | 2.7V | 08:14:08 | 01:31:53 | 00:00:00 | |
| SO1NDE-10 | 2026-09-04 08:04:45 | 52.62527 | 9.45180 | 94° | 162km/h | 11233m | -8.7m/s | -50.8°C | 73.6% | 232.0hPa | 2.5V | 00:00:00 | 01:31:53 | 00:00:00 | |
| DL1NUX | 2026-09-04 08:04:44 | 52.62543 | 9.44779 | 93° | 159km/h | 11281m | -7.8m/s | -51.2°C | 70.1% | 230.4hPa | 2.5V | 08:14:09 | 01:31:47 | 00:00:00 | |
| BIOWL1-15 | 2026-09-04 08:04:44 | 52.62530 | 9.45112 | 94° | 164km/h | 11241m | -7.7m/s | -50.9°C | 74.9% | 231.8hPa | 2.6V | 08:14:08 | 01:31:52 | 00:00:00 | |
| DO2SHX-10 | 2026-09-04 08:04:44 | 52.62530 | 9.45112 | 94° | 162km/h | 11241m | -7.6m/s | -50.8°C | 73.2% | 231.8hPa | 2.5V | 00:00:00 | 01:31:52 | 00:00:00 | |
| DL3AQ-11 | 2026-09-04 08:04:43 | 52.62536 | 9.44978 | 93° | 161km/h | 11257m | -8.3m/s | -51.0°C | 63.9% | 231.3hPa | 2.5V | 00:00:00 | 00:00:00 | 00:00:00 | |
| BIOWL9-15 | 2026-09-04 08:04:42 | 52.62536 | 9.44978 | 93° | 161km/h | 11257m | -8.3m/s | -51.0°C | 63.9% | 231.3hPa | 2.5V | 00:00:00 | 00:00:00 | 00:00:00 | |
| DB0DAN | 2026-09-04 08:04:40 | 52.62540 | 9.44845 | 93° | 151km/h | 11273m | -8.5m/s | -51.2°C | 62.7% | 230.69hPa | 2.5V | 00:00:00 | 00:00:00 | 00:00:00 | |
| DL1XH-15 | 2026-09-04 08:04:40 | 52.62550 | 9.44515 | 92° | 162km/h | 11317m | -8.8m/s | -51.5°C | 69.9% | 229.1hPa | 2.5V | 08:14:13 | 01:31:43 | 00:00:00 | |
| DL1XH-west | 2026-09-04 08:04:40 | 52.62540 | 9.44845 | 93° | 161km/h | 11273m | -8.5m/s | -51.2°C | 73.2% | 230.7hPa | 2.5V | 08:14:08 | 01:31:48 | 00:00:00 | |
| HSKMA3-T | 2026-09-04 08:04:37 | 52.62547 | 9.44648 | 93° | 159km/h | 11299m | -9.1m/s | -51.4°C | 72.5% | 229.8hPa | 2.6V | 08:14:59 | 01:31:45 | 00:00:00 | |
| AA1-15 | 2026-09-04 08:04:36 | 52.62549 | 9.44582 | 92° | 161km/h | 11308m | -9m/s | -51.4°C | 72.6% | 229.5hPa | 2.6V | 08:14:59 | 01:31:44 | 00:00:00 | |
| DM0DOS-11 | 2026-09-04 08:04:35 | 52.62560 | 9.44175 | 92° | 166km/h | 11361m | -9.3m/s | -51.9°C | 70.6% | 227.5hPa | 2.5V | 08:14:18 | 01:31:38 | 00:00:00 | |
| BIOWL1-15 | 2026-09-04 08:04:34 | 52.62552 | 9.44448 | 93° | 162km/h | 11325m | -8.8m/s | -51.6°C | 72.9% | 228.8hPa | 2.5V | 08:14:59 | 01:31:42 | 00:00:00 | |
| DF5WG-10 | 2026-09-04 08:04:34 | 52.62552 | 9.44448 | 94° | 164km/h | 11325m | -8.7m/s | -51.6°C | 70.0% | 228.7hPa | 2.5V | 00:00:00 | 01:31:42 | 00:00:00 | |
| GOEST3-10 | 2026-09-04 08:04:33 | 52.62554 | 9.44380 | 93° | 166km/h | 11334m | -9.4m/s | -51.6°C | 69.9% | 228.4hPa | 2.7V | 00:00:00 | 01:31:41 | 00:00:00 | |
| DF8AY-15 | 2026-09-04 08:04:32 | 52.62556 | 9.44312 | 93° | 164km/h | 11344m | -9.1m/s | -51.7°C | 70.3% | 228.2hPa | 2.7V | 00:00:00 | 01:31:40 | 00:00:00 | |
| DO2LYB-13 | 2026-09-04 08:04:31 | 52.62556 | 9.44312 | 93° | 166km/h | 11344m | -9.2m/s | -51.8°C | 62.3% | 228.2hPa | 2.7V | 08:14:00 | 00:00:00 | 00:00:00 | |
| DL1XH-15 | 2026-09-04 08:04:30 | 52.62569 | 9.43832 | 92° | 161km/h | 11407m | -8.8m/s | -52.3°C | 71% | 226hPa | 2.7V | 08:14:23 | 01:31:33 | 00:00:00 | |
| DL1XH-west | 2026-09-04 08:04:29 | 52.62562 | 9.44105 | 93° | 168km/h | 11371m | -9.3m/s | -52°C | 73.2% | 227.3hPa | 2.5V | 08:14:59 | 01:31:37 | 00:00:00 | |
| HSKMA3-T | 2026-09-04 08:04:26 | 52.62567 | 9.43900 | 93° | 164km/h | 11398m | -8.8m/s | -52.2°C | 73.2% | 226.3hPa | 2.7V | 08:14:59 | 01:31:34 | 00:00:00 | |
| DO2SHX-10 | 2026-09-04 08:04:26 | 52.62567 | 9.43899 | 93° | 162km/h | 11398m | -8.7m/s | -52.2°C | 71.1% | 226.2hPa | 2.5V | 00:00:00 | 01:31:34 | 00:00:00 | |
| DM0DOS-11 | 2026-09-04 08:04:25 | 52.62580 | 9.43497 | 93° | 162km/h | 11449m | -8.3m/s | -52.7°C | 70.3% | 224.5hPa | 2.5V | 08:14:28 | 01:31:28 | 00:00:00 | |
| AA1-15 | 2026-09-04 08:04:25 | 52.62569 | 9.43832 | 93° | 161km/h | 11407m | -8.8m/s | -52.3°C | 73.3% | 226hPa | 2.7V | 08:14:59 | 01:31:33 | 00:00:00 | |
| DO2JMG | 2026-09-04 08:04:24 | 52.62571 | 9.43765 | 93° | 161km/h | 11415m | -8.2m/s | -52.4°C | 73.2% | 225.7hPa | 2.6V | 08:14:59 | 01:31:32 | 00:00:00 | |
| BIOWL1-15 | 2026-09-04 08:04:23 | 52.62575 | 9.43631 | 93° | 161km/h | 11432m | -8.7m/s | -52.5°C | 72.9% | 225.1hPa | 2.5V | 08:14:59 | 01:31:30 | 00:00:00 | |
| DL1XH-west | 2026-09-04 08:04:18 | 52.62585 | 9.43362 | 94° | 162km/h | 11466m | -8.7m/s | -52.9°C | 72.9% | 223.9hPa | 2.7V | 08:14:59 | 01:31:26 | 00:00:00 | |
| AA1-15 | 2026-09-04 08:04:15 | 52.62592 | 9.43158 | 93° | 164km/h | 11488m | -6.8m/s | -53°C | 73.4% | 223.1hPa | 2.5V | 08:14:59 | 01:31:23 | 00:00:00 | |
| DO2JMG | 2026-09-04 08:04:13 | 52.62596 | 9.43022 | 92° | 164km/h | 11503m | -7.3m/s | -53.2°C | 73.6% | 222.6hPa | 2.7V | 08:14:59 | 01:31:21 | 00:00:00 | |
| BIOWL1-15 | 2026-09-04 08:04:12 | 52.62598 | 9.42954 | 92° | 164km/h | 11510m | -7.5m/s | -53.2°C | 73.8% | 222.3hPa | 2.6V | 08:14:59 | 01:31:20 | 00:00:00 | |
| DL4XJ-10 | 2026-09-04 08:04:12 | 52.62597 | 9.42954 | 93° | 162km/h | 11510m | -7.4m/s | -53.7°C | 0% | 0hPa | 2.5V | 00:00:00 | 00:00:00 | 00:00:00 | |
| DL1LOL-11 | 2026-09-04 08:04:11 | 52.62597 | 9.42954 | 93° | 164km/h | 11510m | -7.5m/s | -53.2°C | 63.9% | 222.3hPa | 2.5V | 08:14:00 | 00:00:00 | 00:00:00 | |
| DB0DAN | 2026-09-04 08:04:10 | 52.62601 | 9.42819 | 93° | 155km/h | 11524m | -6.7m/s | -53.4°C | 64.2% | 221.88hPa | 2.5V | 00:00:00 | 00:00:00 | 00:00:00 | |
| DL1XH-15 | 2026-09-04 08:04:10 | 52.62613 | 9.42480 | 93° | 164km/h | 11560m | -7.3m/s | -53.7°C | 73% | 220.6hPa | 2.6V | 08:14:43 | 01:31:13 | 00:00:00 | |
| DL1XH-west | 2026-09-04 08:04:08 | 52.62606 | 9.42684 | 93° | 162km/h | 11538m | -7.6m/s | -53.5°C | 74.3% | 221.3hPa | 2.5V | 08:14:59 | 01:31:16 | 00:00:00 | |
| AA1-15 | 2026-09-04 08:04:05 | 52.62613 | 9.42480 | 93° | 164km/h | 11560m | -7.3m/s | -53.7°C | 74.4% | 220.6hPa | 2.6V | 08:14:59 | 01:31:13 | 00:00:00 | |
| DO2SHX-10 | 2026-09-04 08:04:05 | 52.62613 | 9.42480 | 94° | 164km/h | 11560m | -7.3m/s | -53.6°C | 73.0% | 220.5hPa | 2.6V | 00:00:00 | 01:31:13 | 00:00:00 | |
| DL1NUX | 2026-09-04 08:04:04 | 52.62626 | 9.42074 | 93° | 162km/h | 11604m | -7.5m/s | -54.1°C | 72.4% | 219.1hPa | 2.7V | 08:14:49 | 01:31:07 | 00:00:00 | |
| DO2JMG | 2026-09-04 08:04:03 | 52.62617 | 9.42344 | 93° | 162km/h | 11574m | -7.2m/s | -53.8°C | 74.2% | 220.1hPa | 2.5V | 08:14:59 | 01:31:11 | 00:00:00 | |
| BIOWL1-15 | 2026-09-04 08:04:01 | 52.62626 | 9.42074 | 94° | 162km/h | 11604m | -7.5m/s | -54.1°C | 74.1% | 219.1hPa | 2.7V | 08:14:59 | 01:31:07 | 00:00:00 | |
| DD1CC3-15 | 2026-09-04 08:04:00 | 52.62622 | 9.42209 | 94° | 162km/h | 11590m | -7.3m/s | -54.0°C | 63.8% | 219.6hPa | 2.7V | 08:14:00 | 00:00:00 | 00:00:00 | |
| DL1XH1-15 | 2026-09-04 08:03:59 | 52.62640 | 9.41739 | 94° | 162km/h | 11642m | -7.7m/s | -54.5°C | 72% | 217.8hPa | 2.7V | 08:14:54 | 01:31:02 | 00:00:00 | |
| DF8AY | 2026-09-04 08:03:58 | 52.62629 | 9.42007 | 94° | 161km/h | 11612m | -7.6m/s | -54.2°C | 74.1% | 218.8hPa | 2.6V | 08:14:59 | 01:31:06 | 00:00:00 | |
| DL1XH-west | 2026-09-04 08:03:57 | 52.62631 | 9.41940 | 94° | 162km/h | 11619m | -7.6m/s | -54.2°C | 73.9% | 218.6hPa | 2.5V | 08:14:59 | 01:31:05 | 00:00:00 | |
| DO3DL | 2026-09-04 08:03:57 | 52.62631 | 9.41940 | 95° | 162km/h | 11620m | -7.6m/s | -54.2°C | 63.4% | 218.6hPa | 2.5V | 00:00:00 | 00:00:00 | 00:00:00 | |
| DB0DAN | 2026-09-04 08:03:55 | 52.62637 | 9.41806 | 94° | 153km/h | 11635m | -7.7m/s | -54.4°C | 63.5% | 218.11hPa | 2.5V | 00:00:00 | 00:00:00 | 00:00:00 | |
| DM0DOS-11 | 2026-09-04 08:03:55 | 52.62653 | 9.41467 | 94° | 166km/h | 11671m | -7m/s | -54.7°C | 71.5% | 216.8hPa | 2.5V | 08:14:58 | 01:30:58 | 00:00:00 | |
| HSKMA3-T | 2026-09-04 08:03:55 | 52.62637 | 9.41806 | 94° | 162km/h | 11635m | -7.7m/s | -54.4°C | 73.7% | 218.1hPa | 2.5V | 08:14:59 | 01:31:03 | 00:00:00 | |
| AA1-15 | 2026-09-04 08:03:54 | 52.62640 | 9.41739 | 94° | 162km/h | 11642m | -7.7m/s | -54.5°C | 73.4% | 217.8hPa | 2.7V | 08:14:59 | 01:31:02 | 00:00:00 | |
| DO2JMG | 2026-09-04 08:03:53 | 52.62643 | 9.41671 | 95° | 162km/h | 11649m | -7.2m/s | -54.5°C | 73.3% | 217.6hPa | 2.7V | 08:14:59 | 01:31:01 | 00:00:00 | |
| DL3AQ-11 | 2026-09-04 08:03:52 | 52.62650 | 9.41535 | 94° | 164km/h | 11664m | -7.0m/s | -54.6°C | 63.0% | 217.1hPa | 2.5V | 00:00:00 | 00:00:00 | 00:00:00 | |
| BIOWL7-15 | 2026-09-04 08:03:51 | 52.62646 | 9.41603 | 96° | 164km/h | 11657m | -7.4m/s | -54.6°C | 63.2% | 217.3hPa | 2.5V | 00:00:00 | 00:00:00 | 00:00:00 | |
| DB0UT-7 | 2026-09-04 08:03:50 | 52.62653 | 9.41467 | 95° | 166km/h | 11671m | -7.0m/s | -54.6°C | 71.5% | 216.8hPa | 2.5V | 00:00:00 | 01:30:58 | 00:00:00 | |
| DL1XH1-15 | 2026-09-04 08:03:49 | 52.62666 | 9.41054 | 92° | 164km/h | 11715m | -7.5m/s | -55.1°C | 70.5% | 215.3hPa | 2.5V | 08:15:04 | 01:30:52 | 00:00:00 | |
| DF8AY | 2026-09-04 08:03:48 | 52.62658 | 9.41329 | 93° | 166km/h | 11686m | -7.2m/s | -54.8°C | 72.4% | 216.3hPa | 2.7V | 08:15:50 | 01:30:56 | 00:00:00 | |
| DL1XH-west | 2026-09-04 08:03:47 | 52.62660 | 9.41260 | 93° | 166km/h | 11693m | -7.3m/s | -54.9°C | 72.5% | 216.1hPa | 2.7V | 08:15:50 | 01:30:55 | 00:00:00 | |
| DO2SHX-10 | 2026-09-04 08:03:47 | 52.62660 | 9.41260 | 93° | 166km/h | 11693m | -7.3m/s | -54.9°C | 71.0% | 216.0hPa | 2.7V | 08:15:00 | 01:30:55 | 00:00:00 | |
| DM0DOS-11 | 2026-09-04 08:03:45 | 52.62675 | 9.40785 | 93° | 162km/h | 11745m | -7.1m/s | -55.4°C | 69.1% | 214.3hPa | 2.5V | 08:15:08 | 01:30:48 | 00:00:00 | |
| AA1-15 | 2026-09-04 08:03:44 | 52.62666 | 9.41054 | 93° | 164km/h | 11715m | -7.5m/s | -55.1°C | 72.4% | 215.3hPa | 2.5V | 08:15:50 | 01:30:52 | 00:00:00 | |
| DO2JMG | 2026-09-04 08:03:42 | 52.62670 | 9.40919 | 93° | 162km/h | 11730m | -7.4m/s | -55.2°C | 72% | 214.8hPa | 2.7V | 08:15:50 | 01:30:50 | 00:00:00 | |
| BIOWL1-15 | 2026-09-04 08:03:40 | 52.62678 | 9.40718 | 94° | 162km/h | 11752m | -7.7m/s | -55.5°C | 71% | 214.1hPa | 2.5V | 08:15:50 | 01:30:47 | 00:00:00 | |
| DL1XH-15 | 2026-09-04 08:03:40 | 52.62692 | 9.40444 | 94° | 168km/h | 11783m | -7.3m/s | -55.7°C | 68.4% | 213hPa | 2.7V | 08:15:13 | 01:30:43 | 00:00:00 | |
| DF8AY | 2026-09-04 08:03:37 | 52.62685 | 9.40582 | 95° | 166km/h | 11768m | -7.7m/s | -55.6°C | 70.5% | 213.6hPa | 2.5V | 08:15:50 | 01:30:45 | 00:00:00 | |
| DL1XH-west | 2026-09-04 08:03:36 | 52.62688 | 9.40513 | 95° | 166km/h | 11775m | -7.5m/s | -55.7°C | 70.2% | 213.3hPa | 2.7V | 08:15:50 | 01:30:44 | 00:00:00 | |
| DL3AQ-11 | 2026-09-04 08:03:36 | 52.62692 | 9.40444 | 94° | 166km/h | 11783m | -7.3m/s | -55.7°C | 59.6% | 213.0hPa | 2.7V | 00:00:00 | 00:00:00 | 00:00:00 | |
| DO2SHX-10 | 2026-09-04 08:03:35 | 52.62692 | 9.40444 | 95° | 168km/h | 11783m | -7.2m/s | -55.7°C | 68.4% | 213.0hPa | 2.7V | 00:00:00 | 01:30:43 | 00:00:00 | |
| DL1NUX | 2026-09-04 08:03:34 | 52.62712 | 9.40027 | 94° | 170km/h | 11826m | -6.7m/s | -56.1°C | 67.1% | 211.6hPa | 2.7V | 08:15:19 | 01:30:37 | 00:00:00 | |
| AA1-15 | 2026-09-04 08:03:33 | 52.62699 | 9.40306 | 95° | 168km/h | 11797m | -7.5m/s | -55.8°C | 69.1% | 212.6hPa | 2.5V | 08:15:50 | 01:30:41 | 00:00:00 | |
| DO2JMG | 2026-09-04 08:03:31 | 52.62705 | 9.40166 | 95° | 168km/h | 11812m | -6.3m/s | -56°C | 68.6% | 212.1hPa | 2.5V | 08:15:50 | 01:30:39 | 00:00:00 | |
| HSKMA3-T | 2026-09-04 08:03:29 | 52.62712 | 9.40027 | 95° | 170km/h | 11826m | -6.7m/s | -56.1°C | 68.2% | 211.6hPa | 2.7V | 08:15:50 | 01:30:37 | 00:00:00 | |
| DF8AY | 2026-09-04 08:03:29 | 52.62718 | 9.39887 | 94° | 168km/h | 11841m | -7.3m/s | -56.3°C | 67.7% | 211.1hPa | 2.7V | 08:15:50 | 01:30:35 | 00:00:00 | |
| DO2SHX-10 | 2026-09-04 08:03:29 | 52.62712 | 9.40027 | 95° | 168km/h | 11826m | -6.6m/s | -56.0°C | 67.1% | 211.6hPa | 2.7V | 00:00:00 | 01:30:37 | 00:00:00 | |
| EDDB2-11 | 2026-09-04 08:03:28 | 52.62721 | 9.39817 | 93° | 168km/h | 11848m | -6.6m/s | -56.3°C | 57.7% | 210.9hPa | 2.5V | 00:00:00 | 00:00:00 | 00:00:00 | |
| DL1XH1-15 | 2026-09-04 08:03:27 | 52.62727 | 9.39678 | 93° | 166km/h | 11861m | -6.8m/s | -56.4°C | 65.8% | 210.5hPa | 2.5V | 08:15:24 | 01:30:32 | 00:00:00 | |
| DL1XH-west | 2026-09-04 08:03:25 | 52.62724 | 9.39748 | 94° | 168km/h | 11854m | -6.9m/s | -56.4°C | 67.2% | 210.7hPa | 2.5V | 08:15:50 | 01:30:33 | 00:00:00 | |
| DJ2DS-15 | 2026-09-04 08:03:25 | 52.62724 | 9.39748 | 94° | 166km/h | 11854m | -6.8m/s | -56.3°C | 66.3% | 210.6hPa | 2.5V | 08:15:00 | 01:30:33 | 00:00:00 | |
| DL1NUX | 2026-09-04 08:03:24 | 52.62741 | 9.39338 | 94° | 162km/h | 11896m | -7.2m/s | -56.8°C | 63.5% | 209.3hPa | 2.5V | 08:15:29 | 01:30:27 | 00:00:00 | |
| AA1-15 | 2026-09-04 08:03:23 | 52.62729 | 9.39609 | 94° | 166km/h | 11868m | -7m/s | -56.5°C | 66.6% | 210.3hPa | 2.7V | 08:15:50 | 01:30:31 | 00:00:00 | |
| BIOWL1-15 | 2026-09-04 08:03:20 | 52.62738 | 9.39405 | 94° | 162km/h | 11889m | -7m/s | -56.7°C | 65.6% | 209.5hPa | 2.5V | 08:15:50 | 01:30:28 | 00:00:00 | |
| HSKMA3-T | 2026-09-04 08:03:18 | 52.62744 | 9.39270 | 94° | 162km/h | 11904m | -7.9m/s | -56.9°C | 65.2% | 209.1hPa | 2.5V | 08:15:50 | 01:30:26 | 00:00:00 | |
| DF8AY | 2026-09-04 08:03:16 | 52.62749 | 9.39135 | 94° | 164km/h | 11919m | -7m/s | -57°C | 65.2% | 208.5hPa | 2.7V | 08:15:50 | 01:30:24 | 00:00:00 | |
| DL1XH-west | 2026-09-04 08:03:14 | 52.62755 | 9.38999 | 94° | 166km/h | 11934m | -8.2m/s | -57.1°C | 65.2% | 208.1hPa | 2.5V | 08:15:50 | 01:30:22 | 00:00:00 | |
| DL1NUX | 2026-09-04 08:03:14 | 52.62769 | 9.38647 | 94° | 170km/h | 11973m | -7.8m/s | -57.5°C | 63.6% | 206.8hPa | 2.7V | 08:15:39 | 01:30:17 | 00:00:00 | |
| AA1-15 | 2026-09-04 08:03:12 | 52.62760 | 9.38859 | 94° | 170km/h | 11950m | -7.8m/s | -57.3°C | 64.9% | 207.6hPa | 2.5V | 08:15:50 | 01:30:20 | 00:00:00 | |
| DO3DL | 2026-09-04 08:03:12 | 52.62760 | 9.38859 | 95° | 170km/h | 11950m | -7.8m/s | -57.3°C | 54.5% | 207.6hPa | 2.7V | 00:00:00 | 00:00:00 | 00:00:00 | |
| DL8OAI-8 | 2026-09-04 08:03:11 | 52.62760 | 9.38859 | 95° | 170km/h | 11950m | -7.8m/s | -57.3°C | 54.5% | 207.6hPa | 2.7V | 08:15:00 | 00:00:00 | 00:00:00 | |
| DB0DAN | 2026-09-04 08:03:10 | 52.62766 | 9.38718 | 94° | 162km/h | 11965m | -8.2m/s | -57.4°C | 54.5% | 207.04hPa | 2.7V | 00:00:00 | 00:00:00 | 00:00:00 | |
| DL1XH1-15 | 2026-09-04 08:03:09 | 52.62786 | 9.38304 | 95° | 164km/h | 12013m | -8.1m/s | -57.8°C | 64.9% | 205.5hPa | 2.7V | 08:15:44 | 01:30:12 | 00:00:00 | |
| DO2JMG | 2026-09-04 08:03:09 | 52.62769 | 9.38647 | 94° | 170km/h | 11973m | -7.8m/s | -57.5°C | 64.9% | 206.8hPa | 2.7V | 08:15:50 | 01:30:17 | 00:00:00 | |
| HSKMA3-T | 2026-09-04 08:03:07 | 52.62775 | 9.38508 | 95° | 166km/h | 11990m | -8.1m/s | -57.6°C | 65% | 206.3hPa | 2.5V | 08:15:50 | 01:30:15 | 00:00:00 | |
| DF8AY | 2026-09-04 08:03:06 | 52.62779 | 9.38440 | 95° | 166km/h | 11998m | -7.8m/s | -57.7°C | 65.1% | 206hPa | 2.5V | 08:15:50 | 01:30:14 | 00:00:00 | |
| DJ2DS-15 | 2026-09-04 08:03:05 | 52.62782 | 9.38372 | 96° | 168km/h | 12005m | -7.5m/s | -57.7°C | 64.6% | 205.7hPa | 2.5V | 00:00:00 | 01:30:13 | 00:00:00 | |
| DL1NUX | 2026-09-04 08:03:04 | 52.62807 | 9.37963 | 95° | 170km/h | 12056m | -10.2m/s | -58.2°C | 63.1% | 204.1hPa | 2.5V | 08:15:49 | 01:30:07 | 00:00:00 | |
| DL1XH-west | 2026-09-04 08:03:04 | 52.62786 | 9.38304 | 96° | 164km/h | 12013m | -8.1m/s | -57.8°C | 65.2% | 205.5hPa | 2.7V | 08:15:50 | 01:30:12 | 00:00:00 | |
| AA1-15 | 2026-09-04 08:03:01 | 52.62799 | 9.38102 | 96° | 164km/h | 12037m | -9.3m/s | -58°C | 64.8% | 204.8hPa | 2.5V | 08:15:50 | 01:30:09 | 00:00:00 | |
| DL1XH-15 | 2026-09-04 08:03:00 | 52.62824 | 9.37685 | 95° | 170km/h | 12097m | -10.6m/s | -58.5°C | 62.9% | 202.8hPa | 2.5V | 08:15:53 | 01:30:03 | 00:00:00 | |
| DF8AY | 2026-09-04 08:03:00 | 52.62824 | 9.37685 | 95° | 170km/h | 12097m | -10.6m/s | -58.5°C | 63.9% | 202.8hPa | 2.5V | 08:16:41 | 01:30:03 | 00:00:00 | |
| BIOWL1-15 | 2026-09-04 08:02:59 | 52.62808 | 9.37964 | 95° | 170km/h | 12056m | -10.2m/s | -58.2°C | 64.4% | 204.1hPa | 2.5V | 08:15:50 | 01:30:07 | 00:00:00 | |
| DO2JMG | 2026-09-04 08:02:58 | 52.62811 | 9.37894 | 95° | 168km/h | 12066m | -11.1m/s | -58.3°C | 64.3% | 203.8hPa | 2.7V | 08:15:50 | 01:30:06 | 00:00:00 | |
| HSKMA3-T | 2026-09-04 08:02:56 | 52.62820 | 9.37755 | 96° | 170km/h | 12087m | -9.4m/s | -58.4°C | 64% | 203.1hPa | 2.6V | 08:16:41 | 01:30:04 | 00:00:00 | |
| DL1XH-west | 2026-09-04 08:02:54 | 52.62828 | 9.37614 | 95° | 170km/h | 12107m | -10m/s | -58.6°C | 63.8% | 202.4hPa | 2.5V | 08:16:41 | 01:30:02 | 00:00:00 | |
| AA1-15 | 2026-09-04 08:02:50 | 52.62843 | 9.37335 | 95° | 166km/h | 12148m | -8.6m/s | -58.9°C | 63.5% | 201.1hPa | 2.7V | 08:16:41 | 01:29:58 | 00:00:00 | |
| BIOWL1-15 | 2026-09-04 08:02:49 | 52.62847 | 9.37266 | 96° | 168km/h | 12158m | -11.1m/s | -59°C | 63.3% | 200.8hPa | 2.6V | 08:16:41 | 01:29:57 | 00:00:00 | |
| DO2JMG | 2026-09-04 08:02:47 | 52.62856 | 9.37127 | 96° | 170km/h | 12178m | -10.7m/s | -59.2°C | 62.9% | 200.2hPa | 2.5V | 08:16:41 | 01:29:55 | 00:00:00 | |
| HSKMA3-T | 2026-09-04 08:02:46 | 52.62860 | 9.37057 | 95° | 170km/h | 12188m | -10.7m/s | -59.3°C | 62.8% | 199.8hPa | 2.5V | 08:16:41 | 01:29:54 | 00:00:00 | |
| DF8AY | 2026-09-04 08:02:45 | 52.62864 | 9.36986 | 95° | 170km/h | 12199m | -10.9m/s | -59.4°C | 62.6% | 199.5hPa | 2.5V | 08:16:41 | 01:29:53 | 00:00:00 | |
| DL1XH-west | 2026-09-04 08:02:44 | 52.62867 | 9.36916 | 95° | 170km/h | 12209m | -10.5m/s | -59.5°C | 62.3% | 199.2hPa | 2.7V | 08:16:41 | 01:29:52 | 00:00:00 | |
| DO2SHX-10 | 2026-09-04 08:02:44 | 52.62867 | 9.36916 | 96° | 170km/h | 12210m | -10.4m/s | -59.4°C | 60.6% | 199.1hPa | 2.7V | 00:00:00 | 01:29:52 | 00:00:00 | |
| DO9LL-15 | 2026-09-04 08:02:43 | 52.62871 | 9.36846 | 95° | 168km/h | 12221m | -11.7m/s | -59.5°C | 60.7% | 198.8hPa | 2.7V | 00:00:00 | 01:29:51 | 00:00:00 | |
| SONDE2-11 | 2026-09-04 08:02:42 | 52.62875 | 9.36777 | 95° | 168km/h | 12232m | -10.7m/s | -59.6°C | 51.9% | 198.4hPa | 2.5V | 00:00:00 | 00:00:00 | 00:00:00 | |
| DB0DAN | 2026-09-04 08:02:40 | 52.62883 | 9.36638 | 96° | 159km/h | 12251m | -9.7m/s | -59.8°C | 52.4% | 197.85hPa | 2.5V | 00:00:00 | 00:00:00 | 00:00:00 | |
| AA1-15 | 2026-09-04 08:02:40 | 52.62883 | 9.36638 | 96° | 166km/h | 12251m | -9.7m/s | -59.8°C | 62.2% | 197.8hPa | 2.5V | 08:16:41 | 01:29:48 | 00:00:00 | |
| BIOWL1-15 | 2026-09-04 08:02:38 | 52.62892 | 9.36501 | 96° | 166km/h | 12268m | -7.7m/s | -59.9°C | 62.1% | 197.3hPa | 2.5V | 08:16:41 | 01:29:46 | 00:00:00 | |
| DO2JMG | 2026-09-04 08:02:37 | 52.62897 | 9.36432 | 96° | 164km/h | 12276m | -7.2m/s | -60°C | 62% | 197hPa | 2.7V | 08:16:41 | 01:29:45 | 00:00:00 | |
| HSKMA3-T | 2026-09-04 08:02:35 | 52.62906 | 9.36296 | 96° | 164km/h | 12291m | -8.1m/s | -60.1°C | 61.7% | 196.5hPa | 2.7V | 08:16:41 | 01:29:43 | 00:00:00 | |
| DM0DOS-11 | 2026-09-04 08:02:35 | 52.62928 | 9.35952 | 96° | 168km/h | 12327m | -7.3m/s | -60.4°C | 61% | 195.3hPa | 2.7V | 08:16:18 | 01:29:38 | 00:00:00 | |
| DF8AY | 2026-09-04 08:02:34 | 52.62910 | 9.36227 | 96° | 166km/h | 12299m | -7.8m/s | -60.2°C | 61.7% | 196.2hPa | 2.5V | 08:16:41 | 01:29:42 | 00:00:00 | |
| DL1XH-west | 2026-09-04 08:02:33 | 52.62914 | 9.36158 | 96° | 166km/h | 12306m | -7m/s | -60.2°C | 61.7% | 196hPa | 2.5V | 08:16:41 | 01:29:41 | 00:00:00 | |
| GOEST3-10 | 2026-09-04 08:02:33 | 52.62914 | 9.36158 | 97° | 168km/h | 12306m | -7.0m/s | -60.1°C | 61.4% | 196.0hPa | 2.5V | 00:00:00 | 01:29:41 | 00:00:00 | |
| DL4XJ-10 | 2026-09-04 08:02:32 | 52.62919 | 9.36089 | 97° | 168km/h | 12313m | -7.4m/s | -60.8°C | 0% | 0hPa | 2.5V | 00:00:00 | 00:00:00 | 00:00:00 | |
| DL1XH-15 | 2026-09-04 08:02:30 | 52.62950 | 9.35604 | 95° | 168km/h | 12363m | -7m/s | -60.8°C | 61.3% | 194.2hPa | 2.5V | 08:16:23 | 01:29:33 | 00:00:00 | |
| AA1-15 | 2026-09-04 08:02:29 | 52.62932 | 9.35882 | 96° | 168km/h | 12335m | -7.4m/s | -60.5°C | 61.5% | 195.1hPa | 2.7V | 08:16:41 | 01:29:37 | 00:00:00 | |
| BIOWL1-15 | 2026-09-04 08:02:28 | 52.62937 | 9.35813 | 96° | 168km/h | 12342m | -6.8m/s | -60.5°C | 61.5% | 194.9hPa | 2.7V | 08:16:41 | 01:29:36 | 00:00:00 | |
| DO2JMG | 2026-09-04 08:02:26 | 52.62945 | 9.35673 | 96° | 168km/h | 12356m | -7.4m/s | -60.6°C | 61.2% | 194.4hPa | 2.5V | 08:16:41 | 01:29:34 | 00:00:00 | |
| HSKMA3-T | 2026-09-04 08:02:25 | 52.62950 | 9.35604 | 96° | 168km/h | 12363m | -7m/s | -60.8°C | 61.1% | 194.2hPa | 2.5V | 08:16:41 | 01:29:33 | 00:00:00 | |
| DM0DOS-11 | 2026-09-04 08:02:25 | 52.62971 | 9.35257 | 95° | 168km/h | 12399m | -6.9m/s | -61°C | 62.1% | 193.1hPa | 2.5V | 08:16:28 | 01:29:28 | 00:00:00 | |
| DB0DAN | 2026-09-04 08:02:25 | 52.62950 | 9.35604 | 96° | 159km/h | 12364m | -7m/s | -60.8°C | 51.7% | 194.21hPa | 2.5V | 00:00:00 | 00:00:00 | 00:00:00 | |
| DF8AY | 2026-09-04 08:02:24 | 52.62954 | 9.35534 | 96° | 168km/h | 12371m | -7.8m/s | -60.8°C | 61.1% | 194hPa | 2.5V | 08:16:41 | 01:29:32 | 00:00:00 | |
| DL1NUX | 2026-09-04 08:02:24 | 52.62975 | 9.35187 | 95° | 170km/h | 12406m | -6.9m/s | -61.1°C | 63.4% | 192.9hPa | 2.5V | 08:16:29 | 01:29:27 | 00:00:00 | |
| DL1XH-west | 2026-09-04 08:02:23 | 52.62958 | 9.35465 | 96° | 168km/h | 12379m | -7.5m/s | -60.8°C | 61.1% | 193.7hPa | 2.7V | 08:16:41 | 01:29:31 | 00:00:00 | |
| DO2SHX-10 | 2026-09-04 08:02:23 | 52.62958 | 9.35465 | 96° | 168km/h | 12379m | -7.5m/s | -60.8°C | 62.4% | 193.7hPa | 2.7V | 00:00:00 | 01:29:31 | 00:00:00 | |
| DC6BW-12 | 2026-09-04 08:02:22 | 52.62958 | 9.35465 | 97° | 168km/h | 12379m | -7.5m/s | -60.8°C | 52.7% | 193.7hPa | 2.7V | 08:16:00 | 00:00:00 | 00:00:00 | |
| DN9WHV | 2026-09-04 08:02:21 | 52.62962 | 9.35395 | 97° | 168km/h | 12386m | -6.5m/s | -60.9°C | 52.5% | 193.5hPa | 2.7V | 08:16:00 | 00:00:00 | 00:00:00 | |
| DL1XH-15 | 2026-09-04 08:02:20 | 52.62992 | 9.34907 | 95° | 170km/h | 12433m | -6.6m/s | -61.2°C | 64.3% | 192.1hPa | 2.7V | 08:16:33 | 01:29:23 | 00:00:00 | |
| AA1-15 | 2026-09-04 08:02:19 | 52.62975 | 9.35187 | 96° | 170km/h | 12406m | -6.9m/s | -61.1°C | 61.1% | 192.9hPa | 2.5V | 08:16:41 | 01:29:27 | 00:00:00 | |
| BIOWL1-15 | 2026-09-04 08:02:18 | 52.62980 | 9.35117 | 96° | 168km/h | 12413m | -6.8m/s | -61.1°C | 61.2% | 192.7hPa | 2.5V | 08:16:41 | 01:29:26 | 00:00:00 | |
| HSKMA3-T | 2026-09-04 08:02:17 | 52.62992 | 9.34907 | 95° | 170km/h | 12433m | -6.6m/s | -61.2°C | 61.5% | 192.1hPa | 2.7V | 08:16:41 | 01:29:23 | 00:00:00 | |
| DO2JMG | 2026-09-04 08:02:16 | 52.62988 | 9.34977 | 96° | 170km/h | 12427m | -6.8m/s | -61.1°C | 61.4% | 192.2hPa | 2.7V | 08:16:41 | 01:29:24 | 00:00:00 | |
| DL3AQ-11 | 2026-09-04 08:02:16 | 52.62992 | 9.34907 | 95° | 170km/h | 12433m | -6.6m/s | -61.2°C | 54.2% | 192.1hPa | 2.5V | 00:00:00 | 00:00:00 | 00:00:00 | |
| DM0DOS-11 | 2026-09-04 08:02:15 | 52.63012 | 9.34551 | 95° | 173km/h | 12467m | -6.7m/s | -61.5°C | 61.4% | 191hPa | 2.5V | 08:16:38 | 01:29:18 | 00:00:00 | |
| SO1NDE-10 | 2026-09-04 08:02:15 | 52.62992 | 9.34907 | 96° | 175km/h | 12433m | -6.6m/s | -61.1°C | 64.3% | 192.0hPa | 2.7V | 00:00:00 | 01:29:23 | 00:00:00 | |
| DL1NUX | 2026-09-04 08:02:14 | 52.63017 | 9.34479 | 95° | 175km/h | 12474m | -6.8m/s | -61.6°C | 61.4% | 190.8hPa | 2.7V | 08:16:39 | 01:29:17 | 00:00:00 | |
| DF8AY | 2026-09-04 08:02:13 | 52.63000 | 9.34766 | 95° | 172km/h | 12447m | -6.7m/s | -61.4°C | 61.4% | 191.6hPa | 2.5V | 08:16:41 | 01:29:21 | 00:00:00 | |
| DL1XH-west | 2026-09-04 08:02:12 | 52.63004 | 9.34695 | 95° | 172km/h | 12453m | -6.8m/s | -61.4°C | 61.4% | 191.4hPa | 2.5V | 08:16:41 | 01:29:20 | 00:00:00 | |
| DL4XJ-10 | 2026-09-04 08:02:12 | 52.63004 | 9.34695 | 96° | 175km/h | 12454m | -6.8m/s | -61.9°C | 0% | 0hPa | 2.5V | 00:00:00 | 00:00:00 | 00:00:00 | |
| DO2SHX-10 | 2026-09-04 08:02:11 | 52.63008 | 9.34623 | 96° | 173km/h | 12460m | -6.8m/s | -61.3°C | 61.8% | 191.2hPa | 2.5V | 00:00:00 | 01:29:19 | 00:00:00 | |
| DL1XH-15 | 2026-09-04 08:02:10 | 52.63037 | 9.34189 | 97° | 175km/h | 12500m | -6.5m/s | -61.7°C | 64.4% | 189.9hPa | 2.5V | 08:16:43 | 01:29:13 | 00:00:00 | |
| DL1XH1-15 | 2026-09-04 08:02:09 | 52.63043 | 9.34117 | 97° | 173km/h | 12507m | -6.6m/s | -61.8°C | 65.7% | 189.7hPa | 2.5V | 08:16:44 | 01:29:12 | 00:00:00 | |
| AA1-15 | 2026-09-04 08:02:08 | 52.63021 | 9.34407 | 96° | 175km/h | 12480m | -6.7m/s | -61.6°C | 61.1% | 190.6hPa | 2.7V | 08:16:41 | 01:29:16 | 00:00:00 | |
| BIOWL1-15 | 2026-09-04 08:02:07 | 52.63026 | 9.34334 | 97° | 175km/h | 12487m | -6.8m/s | -61.7°C | 61.2% | 190.4hPa | 2.7V | 08:16:41 | 01:29:15 | 00:00:00 | |
| DO2JMG | 2026-09-04 08:02:06 | 52.63032 | 9.34262 | 97° | 175km/h | 12494m | -6.8m/s | -61.7°C | 61.4% | 190.2hPa | 2.5V | 08:17:32 | 01:29:14 | 00:00:00 | |
| HSKMA3-T | 2026-09-04 08:02:05 | 52.63037 | 9.34189 | 97° | 175km/h | 12500m | -6.6m/s | -61.7°C | 61.5% | 189.9hPa | 2.5V | 08:17:32 | 01:29:13 | 00:00:00 | |
| DJ2DS-15 | 2026-09-04 08:02:05 | 52.63037 | 9.34189 | 98° | 177km/h | 12500m | -6.5m/s | -61.7°C | 64.4% | 189.9hPa | 2.5V | 00:00:00 | 01:29:13 | 00:00:00 | |
| DL1NUX | 2026-09-04 08:02:04 | 52.63069 | 9.33763 | 96° | 172km/h | 12543m | -7.4m/s | -61.7°C | 66.9% | 188.7hPa | 2.5V | 08:16:49 | 01:29:07 | 00:00:00 | |
| DF8AY | 2026-09-04 08:02:02 | 52.63054 | 9.33975 | 97° | 170km/h | 12521m | -8.8m/s | -61.6°C | 62.4% | 189.3hPa | 2.7V | 08:17:32 | 01:29:10 | 00:00:00 | |
| DL1XH-west | 2026-09-04 08:02:01 | 52.63059 | 9.33905 | 97° | 172km/h | 12529m | -7m/s | -61.6°C | 62.6% | 189.1hPa | 2.7V | 08:17:32 | 01:29:09 | 00:00:00 | |
| DL1XH-15 | 2026-09-04 08:01:59 | 52.63087 | 9.33471 | 95° | 181km/h | 12576m | -8.8m/s | -62°C | 63.7% | 187.8hPa | 2.7V | 08:16:53 | 01:29:03 | 00:00:00 | |
| DL1XH1-15 | 2026-09-04 08:01:59 | 52.63092 | 9.33397 | 95° | 183km/h | 12585m | -8.6m/s | -61.9°C | 62.6% | 187.4hPa | 2.7V | 08:16:54 | 01:29:02 | 00:00:00 | |
| BIOWL1-15 | 2026-09-04 08:01:58 | 52.63083 | 9.33545 | 96° | 179km/h | 12567m | -8.8m/s | -61.9°C | 63.2% | 188hPa | 2.5V | 08:17:32 | 01:29:04 | 00:00:00 | |
| AA1-15 | 2026-09-04 08:01:58 | 52.63073 | 9.33691 | 96° | 173km/h | 12551m | -7.2m/s | -61.7°C | 63.2% | 188.5hPa | 2.5V | 08:17:32 | 01:29:06 | 00:00:00 | |
| DO2JMG | 2026-09-04 08:01:55 | 52.63087 | 9.33471 | 96° | 181km/h | 12576m | -8.8m/s | -62°C | 63.3% | 187.8hPa | 2.7V | 08:17:32 | 01:29:03 | 00:00:00 | |
| DL1NUX | 2026-09-04 08:01:54 | 52.63116 | 9.33020 | 95° | 179km/h | 12627m | -8.3m/s | -62.2°C | 63.5% | 186.2hPa | 2.5V | 08:16:59 | 01:28:57 | 00:00:00 | |
| DF8AY | 2026-09-04 08:01:52 | 52.63101 | 9.33245 | 96° | 183km/h | 12601m | -8.6m/s | -62°C | 63.2% | 187hPa | 2.5V | 08:17:32 | 01:29:00 | 00:00:00 | |
| DL1XH-west | 2026-09-04 08:01:51 | 52.63106 | 9.33170 | 96° | 183km/h | 12610m | -8.5m/s | -62.1°C | 63.2% | 186.7hPa | 2.5V | 08:17:32 | 01:28:59 | 00:00:00 | |
| D01LWL | 2026-09-04 08:01:51 | 52.63111 | 9.33095 | 95° | 181km/h | 12618m | -8.4m/s | -62.2°C | 52.6% | 186.5hPa | 2.5V | 00:00:00 | 00:00:00 | 00:00:00 | |
| DO2SHX-10 | 2026-09-04 08:01:50 | 52.63111 | 9.33095 | 96° | 179km/h | 12619m | -8.4m/s | -62.1°C | 62.7% | 186.5hPa | 2.5V | 00:00:00 | 01:28:58 | 00:00:00 | |
| DL1XH1-15 | 2026-09-04 08:01:49 | 52.63136 | 9.32656 | 95° | 175km/h | 12665m | -6.4m/s | -62.4°C | 67.6% | 185hPa | 2.5V | 08:17:04 | 01:28:52 | 00:00:00 | |
| BIOWL1-15 | 2026-09-04 08:01:49 | 52.63132 | 9.32728 | 96° | 175km/h | 12658m | -7.1m/s | -62.3°C | 63.2% | 185.3hPa | 2.5V | 08:17:32 | 01:28:53 | 00:00:00 | |
| AA1-15 | 2026-09-04 08:01:47 | 52.63124 | 9.32873 | 95° | 175km/h | 12643m | -8.2m/s | -62.3°C | 63.3% | 185.8hPa | 2.7V | 08:17:32 | 01:28:55 | 00:00:00 | |
| DO2JMG | 2026-09-04 08:01:44 | 52.63136 | 9.32656 | 96° | 175km/h | 12665m | -6.4m/s | -62.4°C | 63.1% | 185hPa | 2.5V | 08:17:32 | 01:28:52 | 00:00:00 | |
| DF8AY | 2026-09-04 08:01:41 | 52.63150 | 9.32438 | 97° | 177km/h | 12685m | -6.6m/s | -62.6°C | 62.8% | 184.4hPa | 2.7V | 08:17:32 | 01:28:49 | 00:00:00 | |
| DB0DAN | 2026-09-04 08:01:40 | 52.63155 | 9.32364 | 97° | 170km/h | 12692m | -6.8m/s | -62.7°C | 56.7% | 184.25hPa | 2.7V | 00:00:00 | 00:00:00 | 00:00:00 | |
| DL1XH-west | 2026-09-04 08:01:40 | 52.63155 | 9.32364 | 97° | 177km/h | 12692m | -6.8m/s | -62.7°C | 62.7% | 184.2hPa | 2.7V | 08:17:32 | 01:28:48 | 00:00:00 | |
| DL1XH1-15 | 2026-09-04 08:01:39 | 52.63192 | 9.31927 | 98° | 177km/h | 12732m | -7.2m/s | -62.9°C | 62.9% | 183hPa | 2.7V | 08:17:14 | 01:28:42 | 00:00:00 | |
| AA1-15 | 2026-09-04 08:01:36 | 52.63179 | 9.32072 | 98° | 177km/h | 12718m | -6.8m/s | -62.8°C | 61.2% | 183.4hPa | 2.5V | 08:17:32 | 01:28:44 | 00:00:00 | |
| DL3AQ-11 | 2026-09-04 08:01:36 | 52.63185 | 9.31999 | 97° | 175km/h | 12725m | -7.3m/s | -62.9°C | 53.1% | 183.2hPa | 2.5V | 00:00:00 | 00:00:00 | 00:00:00 | |
| DM0DOS-11 | 2026-09-04 08:01:35 | 52.63218 | 9.31635 | 98° | 179km/h | 12761m | -7.2m/s | -62.9°C | 58% | 182.1hPa | 2.5V | 08:17:18 | 01:28:38 | 00:00:00 | |
| DO2JMG | 2026-09-04 08:01:34 | 52.63192 | 9.31927 | 98° | 177km/h | 12732m | -7.2m/s | -62.9°C | 59.7% | 183hPa | 2.7V | 08:17:32 | 01:28:42 | 00:00:00 | |
| DF8AY | 2026-09-04 08:01:31 | 52.63211 | 9.31708 | 98° | 179km/h | 12754m | -7.2m/s | -62.9°C | 57% | 182.4hPa | 2.5V | 08:17:32 | 01:28:39 | 00:00:00 | |
| DL1XH-west | 2026-09-04 08:01:29 | 52.63224 | 9.31561 | 99° | 179km/h | 12768m | -7.3m/s | -62.9°C | 56.3% | 181.9hPa | 2.5V | 08:17:32 | 01:28:37 | 00:00:00 | |
| AA1-15 | 2026-09-04 08:01:26 | 52.63246 | 9.31341 | 99° | 179km/h | 12790m | -7.2m/s | -62.8°C | 55.6% | 181.3hPa | 2.5V | 08:17:32 | 01:28:34 | 00:00:00 | |
| BIOWL1-15 | 2026-09-04 08:01:26 | 52.63260 | 9.31195 | 100° | 177km/h | 12804m | -7m/s | -62.7°C | 55.5% | 180.8hPa | 2.5V | 08:17:32 | 01:28:32 | 00:00:00 | |
| DB0DAN | 2026-09-04 08:01:25 | 52.63253 | 9.31268 | 100° | 170km/h | 12797m | -7.1m/s | -62.7°C | 46.4% | 181.06hPa | 2.5V | 00:00:00 | 00:00:00 | 00:00:00 | |
| DM0DOS-11 | 2026-09-04 08:01:25 | 52.63291 | 9.30905 | 100° | 177km/h | 12832m | -7.4m/s | -62.9°C | 56.4% | 180.1hPa | 2.5V | 08:17:28 | 01:28:28 | 00:00:00 | |
| DJ2DS-15 | 2026-09-04 08:01:25 | 52.63253 | 9.31268 | 100° | 179km/h | 12797m | -7.0m/s | -62.6°C | 56.1% | 181.0hPa | 2.5V | 00:00:00 | 01:28:33 | 00:00:00 | |
| DL1NUX | 2026-09-04 08:01:24 | 52.63299 | 9.30833 | 99° | 175km/h | 12839m | -6.8m/s | -63°C | 56.4% | 179.8hPa | 2.7V | 08:17:29 | 01:28:27 | 00:00:00 | |
| DO2JMG | 2026-09-04 08:01:23 | 52.63268 | 9.31122 | 100° | 177km/h | 12811m | -6.8m/s | -62.8°C | 55.5% | 180.7hPa | 2.7V | 08:17:32 | 01:28:31 | 00:00:00 | |
| GOEST3-10 | 2026-09-04 08:01:23 | 52.63268 | 9.31122 | 100° | 177km/h | 12811m | -6.8m/s | -62.7°C | 55.8% | 180.6hPa | 2.7V | 00:00:00 | 01:28:31 | 00:00:00 | |
| BIOWL7-15 | 2026-09-04 08:01:22 | 52.63268 | 9.31122 | 101° | 177km/h | 12811m | -6.8m/s | -62.8°C | 46.1% | 180.7hPa | 2.5V | 08:17:00 | 00:00:00 | 00:00:00 | |
| DC6BW-12 | 2026-09-04 08:01:21 | 52.63276 | 9.31049 | 101° | 177km/h | 12818m | -7.2m/s | -62.9°C | 46.6% | 180.5hPa | 2.5V | 08:17:00 | 00:00:00 | 00:00:00 | |
| DL1XH-15 | 2026-09-04 08:01:20 | 52.63330 | 9.30544 | 99° | 179km/h | 12868m | -6.9m/s | -63.3°C | 57.2% | 179hPa | 2.5V | 08:17:33 | 01:28:23 | 00:00:00 | |
| DF8AY | 2026-09-04 08:01:20 | 52.63291 | 9.30905 | 100° | 177km/h | 12832m | -7.4m/s | -62.9°C | 55.6% | 180.1hPa | 2.5V | 08:17:32 | 01:28:28 | 00:00:00 | |
| DL1XH-west | 2026-09-04 08:01:19 | 52.63299 | 9.30833 | 100° | 175km/h | 12839m | -6.8m/s | -63°C | 55.7% | 179.8hPa | 2.7V | 08:17:32 | 01:28:27 | 00:00:00 | |
| AA1-15 | 2026-09-04 08:01:16 | 52.63322 | 9.30617 | 100° | 177km/h | 12861m | -7.1m/s | -63.2°C | 55.6% | 179.2hPa | 2.5V | 08:17:32 | 01:28:24 | 00:00:00 | |
| DO2SHX-10 | 2026-09-04 08:01:16 | 52.63322 | 9.30617 | 100° | 179km/h | 12861m | -7.0m/s | -63.2°C | 56.5% | 179.1hPa | 2.5V | 00:00:00 | 01:28:24 | 00:00:00 | |
| SO1NDE-10 | 2026-09-04 08:01:15 | 52.63330 | 9.30544 | 100° | 177km/h | 12868m | -6.8m/s | -63.3°C | 57.2% | 178.9hPa | 2.5V | 00:00:00 | 01:28:23 | 00:00:00 | |
| DL1NUX | 2026-09-04 08:01:14 | 52.63377 | 9.30104 | 100° | 181km/h | 12910m | -6.9m/s | -63.6°C | 57.6% | 177.8hPa | 2.7V | 08:17:39 | 01:28:17 | 00:00:00 | |
| DO2JMG | 2026-09-04 08:01:13 | 52.63346 | 9.30398 | 100° | 179km/h | 12882m | -7m/s | -63.4°C | 55.4% | 178.6hPa | 2.7V | 08:18:23 | 01:28:21 | 00:00:00 | |
| DO9LL-15 | 2026-09-04 08:01:13 | 52.63345 | 9.30398 | 100° | 177km/h | 12882m | -7.0m/s | -63.4°C | 57.0% | 178.6hPa | 2.7V | 08:17:00 | 01:28:21 | 00:00:00 | |
| DL4XJ-10 | 2026-09-04 08:01:12 | 52.63353 | 9.30324 | 101° | 179km/h | 12889m | -7.3m/s | -64.0°C | 0% | 0hPa | 2.5V | 00:00:00 | 00:00:00 | 00:00:00 | |
| DB0DAN | 2026-09-04 08:01:10 | 52.63369 | 9.30177 | 100° | 172km/h | 12903m | -7.2m/s | -63.6°C | 47.3% | 177.98hPa | 2.5V | 00:00:00 | 00:00:00 | 00:00:00 | |
| DF8AY | 2026-09-04 08:01:09 | 52.63378 | 9.30104 | 100° | 181km/h | 12910m | -6.9m/s | -63.7°C | 55% | 177.8hPa | 2.7V | 08:18:23 | 01:28:17 | 00:00:00 | |
| DL1XH-west | 2026-09-04 08:01:08 | 52.63386 | 9.30030 | 101° | 179km/h | 12917m | -7.1m/s | -63.7°C | 54.9% | 177.6hPa | 2.7V | 08:18:23 | 01:28:16 | 00:00:00 | |
| AA1-15 | 2026-09-04 08:01:05 | 52.63412 | 9.29811 | 101° | 179km/h | 12939m | -7.2m/s | -63.9°C | 54.1% | 177hPa | 2.5V | 08:18:23 | 01:28:13 | 00:00:00 | |
| BIOWL9-15 | 2026-09-04 08:01:05 | 52.63421 | 9.29737 | 101° | 179km/h | 12946m | -7.2m/s | -63.9°C | 45.9% | 176.8hPa | 2.5V | 00:00:00 | 00:00:00 | 00:00:00 | |
| DL1NUX | 2026-09-04 08:01:04 | 52.63467 | 9.29374 | 102° | 179km/h | 12983m | -7.4m/s | -64.1°C | 55.7% | 175.7hPa | 2.5V | 08:17:49 | 01:28:07 | 00:00:00 | |
| DO2JMG | 2026-09-04 08:01:02 | 52.63439 | 9.29592 | 102° | 179km/h | 12960m | -7.3m/s | -63.9°C | 53.4% | 176.3hPa | 2.7V | 08:18:23 | 01:28:10 | 00:00:00 | |
| BIOWL1-15 | 2026-09-04 08:01:02 | 52.63458 | 9.29446 | 102° | 179km/h | 12975m | -7.6m/s | -64°C | 53.1% | 175.9hPa | 2.7V | 08:18:23 | 01:28:08 | 00:00:00 | |
| DO2SHX-10 | 2026-09-04 08:01:01 | 52.63449 | 9.29519 | 102° | 179km/h | 12968m | -7.1m/s | -64.0°C | 55.9% | 176.1hPa | 2.7V | 00:00:00 | 01:28:09 | 00:00:00 | |
| DL1XH-15 | 2026-09-04 08:01:00 | 52.63504 | 9.29085 | 101° | 177km/h | 13013m | -7.7m/s | -64.3°C | 55.4% | 174.8hPa | 2.7V | 08:17:53 | 01:28:03 | 00:00:00 | |
| DL1XH1-15 | 2026-09-04 08:00:59 | 52.63514 | 9.29013 | 101° | 177km/h | 13021m | -7.5m/s | -64.3°C | 55.3% | 174.6hPa | 2.7V | 08:17:54 | 01:28:02 | 00:00:00 | |
| DF8AY | 2026-09-04 08:00:58 | 52.63477 | 9.29301 | 102° | 177km/h | 12990m | -7.7m/s | -64.2°C | 52.8% | 175.5hPa | 2.5V | 08:18:23 | 01:28:06 | 00:00:00 | |
| DL1XH-west | 2026-09-04 08:00:57 | 52.63486 | 9.29229 | 102° | 177km/h | 12998m | -7.5m/s | -64.2°C | 52.6% | 175.3hPa | 2.5V | 08:18:23 | 01:28:05 | 00:00:00 | |
| DD8BA-10 | 2026-09-04 08:00:57 | 52.63486 | 9.29229 | 102° | 175km/h | 12998m | -7.5m/s | -64.1°C | 55.7% | 175.2hPa | 2.5V | 00:00:00 | 00:00:00 | 00:00:00 | |
| SMARD9-10 | 2026-09-04 08:00:56 | 52.63486 | 9.29229 | 103° | 177km/h | 12998m | -7.5m/s | -64.2°C | 45.4% | 175.3hPa | 2.7V | 08:18:00 | 00:00:00 | 00:00:00 | |
| DB0DAN | 2026-09-04 08:00:55 | 52.63504 | 9.29085 | 102° | 168km/h | 13013m | -7.7m/s | -64.3°C | 45.1% | 174.84hPa | 2.7V | 00:00:00 | 00:00:00 | 00:00:00 | |
| DO2SHX-10 | 2026-09-04 08:00:55 | 52.63504 | 9.29085 | 102° | 177km/h | 13013m | -7.6m/s | -64.2°C | 55.4% | 174.8hPa | 2.7V | 00:00:00 | 01:28:03 | 00:00:00 | |
| DL1NUX | 2026-09-04 08:00:54 | 52.63560 | 9.28656 | 102° | 173km/h | 13059m | -7.6m/s | -64.6°C | 54.2% | 173.6hPa | 2.7V | 08:17:59 | 01:27:57 | 00:00:00 | |
| AA1-15 | 2026-09-04 08:00:54 | 52.63514 | 9.29013 | 102° | 177km/h | 13021m | -7.5m/s | -64.3°C | 52% | 174.6hPa | 2.7V | 08:18:23 | 01:28:02 | 00:00:00 | |
| DO2JMG | 2026-09-04 08:00:51 | 52.63541 | 9.28798 | 102° | 175km/h | 13044m | -7.8m/s | -64.5°C | 51.2% | 173.9hPa | 2.5V | 08:18:23 | 01:27:59 | 00:00:00 | |
| DL1XH-15 | 2026-09-04 08:00:50 | 52.63602 | 9.28375 | 104° | 175km/h | 13089m | -7.4m/s | -64.6°C | 54.1% | 172.7hPa | 2.5V | 08:18:03 | 01:27:53 | 00:00:00 | |
| DL4BBY-15 | 2026-09-04 08:00:50 | 52.63550 | 9.28727 | 103° | 172km/h | 13052m | -7.5m/s | -65.0°C | 0% | 0hPa | 2.7V | 00:00:00 | 00:00:00 | 00:00:00 | |
| DL1XH1-15 | 2026-09-04 08:00:49 | 52.63613 | 9.28305 | 104° | 175km/h | 13097m | -7.6m/s | -64.6°C | 54.1% | 172.5hPa | 2.7V | 08:18:04 | 01:27:52 | 00:00:00 | |
| BIOWL1-15 | 2026-09-04 08:00:49 | 52.63560 | 9.28656 | 103° | 173km/h | 13059m | -7.6m/s | -64.6°C | 50.7% | 173.6hPa | 2.7V | 08:18:23 | 01:27:57 | 00:00:00 | |
| DF8AY | 2026-09-04 08:00:48 | 52.63570 | 9.28586 | 103° | 173km/h | 13067m | -7.8m/s | -64.6°C | 50.4% | 173.3hPa | 2.7V | 08:18:23 | 01:27:56 | 00:00:00 | |
| DL1XH-west | 2026-09-04 08:00:47 | 52.63580 | 9.28516 | 104° | 173km/h | 13074m | -7.5m/s | -64.6°C | 50.2% | 173.1hPa | 2.5V | 08:18:23 | 01:27:55 | 00:00:00 | |
| DD8BA-10 | 2026-09-04 08:00:47 | 52.63580 | 9.28516 | 104° | 175km/h | 13075m | -7.4m/s | -64.5°C | 53.9% | 173.0hPa | 2.5V | 00:00:00 | 00:00:00 | 00:00:00 | |
| DO2SHX-10 | 2026-09-04 08:00:46 | 52.63591 | 9.28445 | 105° | 175km/h | 13082m | -7.3m/s | -64.5°C | 53.9% | 172.8hPa | 2.5V | 00:00:00 | 01:27:54 | 00:00:00 | |
| DM0DOS-11 | 2026-09-04 08:00:45 | 52.63656 | 9.28020 | 103° | 177km/h | 13127m | -7.6m/s | -64.8°C | 53% | 171.6hPa | 2.5V | 08:18:08 | 01:27:48 | 00:00:00 | |
| AA1-15 | 2026-09-04 08:00:44 | 52.63613 | 9.28305 | 105° | 175km/h | 13097m | -7.6m/s | -64.6°C | 49.4% | 172.5hPa | 2.7V | 08:18:23 | 01:27:52 | 00:00:00 | |
| DO2JMG | 2026-09-04 08:00:41 | 52.63646 | 9.28092 | 104° | 177km/h | 13119m | -7.7m/s | -64.8°C | 48.1% | 171.8hPa | 2.5V | 08:18:23 | 01:27:49 | 00:00:00 | |
| HSKMA3-T | 2026-09-04 08:00:40 | 52.63656 | 9.28020 | 103° | 177km/h | 13127m | -7.6m/s | -64.9°C | 47.5% | 171.6hPa | 2.5V | 08:18:23 | 01:27:48 | 00:00:00 | |
| DO2SHX-10 | 2026-09-04 08:00:40 | 52.63656 | 9.28020 | 104° | 175km/h | 13127m | -7.6m/s | -64.8°C | 53.0% | 171.5hPa | 2.5V | 00:00:00 | 01:27:48 | 00:00:00 | |
| DL1XH1-15 | 2026-09-04 08:00:39 | 52.63715 | 9.27600 | 103° | 168km/h | 13179m | -9.3m/s | -64.7°C | 45.7% | 170.2hPa | 2.5V | 08:18:14 | 01:27:42 | 00:00:00 | |
| BIOWL1-15 | 2026-09-04 08:00:38 | 52.63695 | 9.27737 | 103° | 172km/h | 13161m | -8.9m/s | -65.1°C | 44.1% | 170.7hPa | 2.7V | 08:18:23 | 01:27:44 | 00:00:00 | |
| DL1XH-west | 2026-09-04 08:00:37 | 52.63685 | 9.27807 | 102° | 173km/h | 13152m | -9.1m/s | -65°C | 45.1% | 170.9hPa | 2.7V | 08:18:23 | 01:27:45 | 00:00:00 | |
| AA1-15 | 2026-09-04 08:00:34 | 52.63714 | 9.27600 | 104° | 168km/h | 13179m | -9.3m/s | -64.7°C | 41.5% | 170.2hPa | 2.5V | 08:18:23 | 01:27:42 | 00:00:00 | |
| BIOWL1-15 | 2026-09-04 08:00:32 | 52.63808 | 9.26991 | 103° | 170km/h | 13259m | -8.6m/s | -64.6°C | 34.4% | 167.9hPa | 2.7V | 08:18:23 | 01:27:33 | 00:00:00 | |
| DL1XH-15 | 2026-09-04 08:00:31 | 52.63798 | 9.27060 | 103° | 170km/h | 13250m | -8.6m/s | -64.6°C | 41% | 168.2hPa | 2.7V | 08:18:22 | 01:27:34 | 00:00:00 | |
| DO2JMG | 2026-09-04 08:00:31 | 52.63746 | 9.27399 | 105° | 166km/h | 13206m | -9m/s | -64.6°C | 38.7% | 169.4hPa | 2.7V | 08:18:23 | 01:27:39 | 00:00:00 | |
| DO2SHX-10 | 2026-09-04 08:00:31 | 52.63745 | 9.27399 | 105° | 168km/h | 13206m | -9.0m/s | -64.5°C | 42.6% | 169.4hPa | 2.6V | 00:00:00 | 01:27:39 | 00:00:00 | |
| DB0ND-19 | 2026-09-04 08:00:30 | 52.63756 | 9.27332 | 104° | 166km/h | 13215m | -8.7m/s | -64.6°C | 33.2% | 169.2hPa | 2.6V | 00:00:00 | 00:00:00 | 00:00:00 | |
| HSKMA3-T | 2026-09-04 08:00:30 | 52.63756 | 9.27332 | 105° | 168km/h | 13215m | -8.7m/s | -64.6°C | 38.1% | 169.2hPa | 2.7V | 08:18:23 | 01:27:38 | 00:00:00 | |
| DL1XH1-15 | 2026-09-04 08:00:29 | 52.63817 | 9.26923 | 102° | 168km/h | 13268m | -9.8m/s | -64.6°C | 38.8% | 167.7hPa | 2.6V | 08:18:24 | 01:27:32 | 00:00:00 | |
| DL1XH-west | 2026-09-04 08:00:27 | 52.63788 | 9.27129 | 104° | 170km/h | 13241m | -9.3m/s | -64.6°C | 35.9% | 168.4hPa | 2.5V | 08:18:23 | 01:27:35 | 00:00:00 | |
| DF8AY | 2026-09-04 08:00:26 | 52.63798 | 9.27060 | 103° | 170km/h | 13251m | -8.6m/s | -64.6°C | 35.2% | 168.2hPa | 2.7V | 08:18:23 | 01:27:34 | 00:00:00 | |
| DJ2DS-15 | 2026-09-04 08:00:25 | 52.63808 | 9.26991 | 103° | 157km/h | 13259m | -8.5m/s | -64.6°C | 39.9% | 167.9hPa | 2.7V | 08:18:00 | 01:27:33 | 00:00:00 | |
| DL1NUX | 2026-09-04 08:00:24 | 52.63852 | 9.26593 | 98° | 155km/h | 13312m | -8.6m/s | -64.4°C | 32% | 166.5hPa | 2.7V | 08:18:29 | 01:27:27 | 00:00:00 | |
| AA1-15 | 2026-09-04 08:00:23 | 52.63825 | 9.26855 | 101° | 166km/h | 13277m | -7.9m/s | -64.6°C | 32.7% | 167.5hPa | 2.5V | 08:19:14 | 01:27:31 | 00:00:00 | |
| DL1XH-15 | 2026-09-04 08:00:21 | 52.63871 | 9.26403 | 99° | 155km/h | 13337m | -8m/s | -64.2°C | 30.1% | 165.8hPa | 2.5V | 08:18:32 | 01:27:24 | 00:00:00 | |
| DO2JMG | 2026-09-04 08:00:20 | 52.63846 | 9.26657 | 99° | 157km/h | 13303m | -8.7m/s | -64.4°C | 29.9% | 166.8hPa | 2.5V | 08:19:14 | 01:27:28 | 00:00:00 | |
| DL1XH-west | 2026-09-04 08:00:16 | 52.63871 | 9.26403 | 100° | 155km/h | 13338m | -8m/s | -64.2°C | 26.6% | 165.8hPa | 2.5V | 08:19:14 | 01:27:24 | 00:00:00 | |
| DF8AY | 2026-09-04 08:00:15 | 52.63878 | 9.26339 | 100° | 157km/h | 13346m | -8.3m/s | -64.2°C | 25.8% | 165.6hPa | 2.5V | 08:19:14 | 01:27:23 | 00:00:00 | |
| BIOWL1-15 | 2026-09-04 08:00:14 | 52.63885 | 9.26275 | 101° | 157km/h | 13354m | -8.5m/s | -64.1°C | 25.1% | 165.4hPa | 2.5V | 08:19:14 | 01:27:22 | 00:00:00 | |
| AA1-15 | 2026-09-04 08:00:13 | 52.63892 | 9.26211 | 101° | 155km/h | 13362m | -8.2m/s | -64°C | 24.4% | 165.2hPa | 2.7V | 08:19:14 | 01:27:21 | 00:00:00 | |
| DF8AY-15 | 2026-09-04 08:00:12 | 52.63899 | 9.26147 | 100° | 159km/h | 13372m | -9.4m/s | -63.8°C | 27.4% | 164.9hPa | 2.7V | 00:00:00 | 01:27:20 | 00:00:00 | |
| DL1XH-15 | 2026-09-04 08:00:11 | 52.63926 | 9.25769 | 93° | 153km/h | 13419m | -6.9m/s | -63.3°C | 23.1% | 163.6hPa | 2.6V | 08:18:42 | 01:27:14 | 00:00:00 | |
| DB0DAN | 2026-09-04 08:00:10 | 52.63911 | 9.26021 | 98° | 144km/h | 13388m | -7.4m/s | -63.6°C | 18.4% | 164.41hPa | 2.5V | 00:00:00 | 00:00:00 | 00:00:00 | |
| DO2JMG | 2026-09-04 08:00:09 | 52.63916 | 9.25959 | 96° | 153km/h | 13395m | -7.6m/s | -63.5°C | 21.6% | 164.3hPa | 2.5V | 08:19:14 | 01:27:17 | 00:00:00 | |
| BIOWL1-15 | 2026-09-04 08:00:06 | 52.63931 | 9.25641 | 93° | 157km/h | 13433m | -7.2m/s | -63.4°C | 19.1% | 163.3hPa | 2.5V | 08:19:14 | 01:27:12 | 00:00:00 | |
| DL1XH-west | 2026-09-04 08:00:05 | 52.63928 | 9.25705 | 93° | 155km/h | 13426m | -7.5m/s | -63.4°C | 19.6% | 163.4hPa | 2.5V | 08:19:14 | 01:27:13 | 00:00:00 | |
| DJ2DS-15 | 2026-09-04 08:00:05 | 52.63928 | 9.25705 | 94° | 161km/h | 13426m | -7.5m/s | -63.3°C | 22.9% | 163.4hPa | 2.6V | 00:00:00 | 01:27:13 | 00:00:00 | |
| DL1NUX | 2026-09-04 08:00:04 | 52.63943 | 9.25304 | 93° | 166km/h | 13468m | -7.3m/s | -63.6°C | 21.4% | 162.3hPa | 2.6V | 08:18:49 | 01:27:07 | 00:00:00 | |
| AA1-15 | 2026-09-04 08:00:02 | 52.63935 | 9.25508 | 93° | 162km/h | 13448m | -7m/s | -63.5°C | 18.1% | 162.8hPa | 2.5V | 08:19:14 | 01:27:10 | 00:00:00 | |
| SONCRA | 2026-09-04 08:00:02 | 52.63937 | 9.25441 | 93° | 162km/h | 13454m | -5.9m/s | -63.5°C | 15.1% | 162.7hPa | 2.7V | 00:00:00 | 00:00:00 | 00:00:00 | |
| BUE01 | 2026-09-04 08:00:01 | 52.63937 | 9.25441 | 93° | 162km/h | 13454m | -5.9m/s | -63.5°C | 15.1% | 162.7hPa | 2.7V | 00:00:00 | 00:00:00 | 00:00:00 | |
| DO2SHX-10 | 2026-09-04 08:00:00 | 52.63940 | 9.25373 | 95° | 166km/h | 13461m | -7.3m/s | -63.5°C | 21.6% | 162.4hPa | 2.7V | 00:00:00 | 01:27:08 | 00:00:00 | |
| DL1XH1-15 | 2026-09-04 07:59:59 | 52.63961 | 9.24963 | 97° | 162km/h | 13504m | -6.3m/s | -63.1°C | 18.8% | 161.3hPa | 2.6V | 08:18:54 | 01:27:02 | 00:00:00 | |
| DO2JMG | 2026-09-04 07:59:59 | 52.63943 | 9.25304 | 94° | 166km/h | 13468m | -7.3m/s | -63.6°C | 16.6% | 162.3hPa | 2.6V | 08:19:14 | 01:27:07 | 00:00:00 | |
| HSKMA3-T | 2026-09-04 07:59:58 | 52.63945 | 9.25236 | 94° | 166km/h | 13475m | -7.2m/s | -63.6°C | 16.1% | 162.1hPa | 2.5V | 08:19:14 | 01:27:06 | 00:00:00 | |
| GOEST3-10 | 2026-09-04 07:59:58 | 52.63945 | 9.25236 | 95° | 164km/h | 13476m | -7.1m/s | -63.5°C | 21.1% | 162.1hPa | 2.5V | 00:00:00 | 00:00:00 | 00:00:00 | |
| DD8BA-10 | 2026-09-04 07:59:57 | 52.63949 | 9.25167 | 95° | 162km/h | 13483m | -7.6m/s | -63.5°C | 20.8% | 161.9hPa | 2.5V | 00:00:00 | 00:00:00 | 00:00:00 | |
| DN9WHV | 2026-09-04 07:59:56 | 52.63949 | 9.25167 | 96° | 166km/h | 13483m | -7.6m/s | -63.6°C | 13.9% | 161.9hPa | 2.7V | 08:19:00 | 00:00:00 | 00:00:00 | |
| DM0DOS-11 | 2026-09-04 07:59:55 | 52.63986 | 9.24699 | 99° | 161km/h | 13532m | -7.5m/s | -62.1°C | 15.4% | 160.6hPa | 2.7V | 08:18:58 | 01:26:58 | 00:00:00 | |
| DB0DAN | 2026-09-04 07:59:55 | 52.63957 | 9.25031 | 96° | 157km/h | 13497m | -6.5m/s | -63.3°C | 12.9% | 161.5hPa | 2.7V | 00:00:00 | 00:00:00 | 00:00:00 | |
| DL1XH-west | 2026-09-04 07:59:55 | 52.63957 | 9.25031 | 96° | 164km/h | 13497m | -6.5m/s | -63.3°C | 14.4% | 161.5hPa | 2.7V | 08:19:14 | 01:27:03 | 00:00:00 | |
| DF8AY | 2026-09-04 07:59:54 | 52.63961 | 9.24963 | 97° | 162km/h | 13504m | -6.3m/s | -63.1°C | 13.8% | 161.3hPa | 2.6V | 08:19:14 | 01:27:02 | 00:00:00 | |
| BIOWL1-15 | 2026-09-04 07:59:53 | 52.63967 | 9.24896 | 98° | 161km/h | 13510m | -7.1m/s | -62.9°C | 13.1% | 161.2hPa | 2.5V | 08:19:14 | 01:27:01 | 00:00:00 | |
| AA1-15 | 2026-09-04 07:59:51 | 52.63980 | 9.24764 | 99° | 161km/h | 13525m | -6.6m/s | -62.4°C | 11.8% | 160.8hPa | 2.5V | 08:19:14 | 01:26:59 | 00:00:00 | |
| DO2SHX-10 | 2026-09-04 07:59:51 | 52.63980 | 9.24764 | 100° | 161km/h | 13525m | -6.5m/s | -62.4°C | 16.2% | 160.8hPa | 2.5V | 00:00:00 | 01:26:59 | 00:00:00 | |
| DL4BBY-15 | 2026-09-04 07:59:50 | 52.63986 | 9.24699 | 100° | 139km/h | 13532m | -7.5m/s | -62.6°C | 0% | 0hPa | 2.7V | 00:00:00 | 00:00:00 | 00:00:00 | |
| DL1XH1-15 | 2026-09-04 07:59:49 | 52.64035 | 9.24318 | 103° | 148km/h | 13575m | -6.7m/s | -61°C | 12.5% | 159.5hPa | 2.7V | 08:19:04 | 01:26:52 | 00:00:00 | |
| DO2JMG | 2026-09-04 07:59:48 | 52.64001 | 9.24568 | 101° | 159km/h | 13546m | -8.1m/s | -61.7°C | 10.3% | 160.3hPa | 2.7V | 08:19:14 | 01:26:56 | 00:00:00 | |
| HSKMA3-T | 2026-09-04 07:59:47 | 52.64009 | 9.24503 | 102° | 157km/h | 13554m | -7.1m/s | -61.5°C | 9.9% | 160.1hPa | 2.5V | 08:19:14 | 01:26:55 | 00:00:00 | |
| DD8BA-10 | 2026-09-04 07:59:47 | 52.64009 | 9.24503 | 103° | 146km/h | 13554m | -7.0m/s | -61.4°C | 13.6% | 160.0hPa | 2.5V | 00:00:00 | 00:00:00 | 00:00:00 | |
| DN9WHV | 2026-09-04 07:59:46 | 52.64009 | 9.24503 | 103° | 157km/h | 13554m | -7.1m/s | -61.5°C | 8.4% | 160.1hPa | 2.5V | 08:19:00 | 00:00:00 | 00:00:00 | |
| DM0DOS-11 | 2026-09-04 07:59:45 | 52.64071 | 9.24085 | 104° | 142km/h | 13605m | -8.4m/s | -60.4°C | 10.8% | 158.8hPa | 2.5V | 08:19:08 | 01:26:48 | 00:00:00 | |
| BIOWL1-15 | 2026-09-04 07:59:44 | 52.64053 | 9.24200 | 104° | 144km/h | 13589m | -7.1m/s | -60.7°C | 8.3% | 159.2hPa | 2.5V | 08:19:14 | 01:26:50 | 00:00:00 | |
| DL1XH-west | 2026-09-04 07:59:44 | 52.64036 | 9.24318 | 103° | 148km/h | 13575m | -6.7m/s | -61°C | 9% | 159.5hPa | 2.7V | 08:19:14 | 01:26:52 | 00:00:00 | |
| AA1-15 | 2026-09-04 07:59:40 | 52.64070 | 9.24085 | 104° | 142km/h | 13605m | -8.4m/s | -60.4°C | 7.8% | 158.8hPa | 2.5V | 08:19:14 | 01:26:48 | 00:00:00 | |
| DL1XH1-15 | 2026-09-04 07:59:39 | 52.64127 | 9.23752 | 106° | 139km/h | 13653m | -8m/s | -59.1°C | 9.5% | 157.6hPa | 2.5V | 08:19:14 | 01:26:42 | 00:00:00 | |
| DO2JMG | 2026-09-04 07:59:37 | 52.64098 | 9.23917 | 106° | 139km/h | 13629m | -7.8m/s | -59.9°C | 7.2% | 158.2hPa | 2.7V | 08:19:14 | 01:26:45 | 00:00:00 | |
| HSKMA3-T | 2026-09-04 07:59:36 | 52.64107 | 9.23861 | 106° | 139km/h | 13636m | -7.7m/s | -59.6°C | 7.1% | 158hPa | 2.5V | 08:19:14 | 01:26:44 | 00:00:00 | |
| DO2SHX-10 | 2026-09-04 07:59:36 | 52.64107 | 9.23861 | 107° | 139km/h | 13636m | -7.7m/s | -59.6°C | 9.8% | 157.9hPa | 2.7V | 00:00:00 | 01:26:44 | 00:00:00 | |
| DM0DOS-11 | 2026-09-04 07:59:35 | 52.64168 | 9.23532 | 107° | 137km/h | 13686m | -8.9m/s | -58.6°C | 9.1% | 156.7hPa | 2.7V | 08:19:18 | 01:26:38 | 00:00:00 | |
| DO9LL-15 | 2026-09-04 07:59:35 | 52.64117 | 9.23806 | 107° | 120km/h | 13645m | -8.5m/s | -59.4°C | 9.7% | 157.8hPa | 2.5V | 00:00:00 | 01:26:43 | 00:00:00 | |
| DL1NUX | 2026-09-04 07:59:34 | 52.64178 | 9.23479 | 108° | 135km/h | 13694m | -7.1m/s | -58.6°C | 9% | 156.5hPa | 2.5V | 08:19:19 | 01:26:37 | 00:00:00 | |
| DL1XH-west | 2026-09-04 07:59:33 | 52.64137 | 9.23697 | 106° | 139km/h | 13661m | -8.3m/s | -58.9°C | 6.7% | 157.3hPa | 2.5V | 08:20:05 | 01:26:41 | 00:00:00 | |
| BIOWL1-15 | 2026-09-04 07:59:32 | 52.64147 | 9.23642 | 107° | 139km/h | 13669m | -8.6m/s | -58.7°C | 6.7% | 157.2hPa | 2.7V | 08:20:05 | 01:26:40 | 00:00:00 | |
| DF8AY-15 | 2026-09-04 07:59:32 | 52.64147 | 9.23642 | 107° | 124km/h | 13670m | -8.5m/s | -58.6°C | 9.2% | 157.1hPa | 2.7V | 00:00:00 | 01:26:40 | 00:00:00 | |
| DL1XH-15 | 2026-09-04 07:59:31 | 52.64211 | 9.23325 | 110° | 128km/h | 13719m | -8.3m/s | -58.7°C | 8.7% | 155.9hPa | 2.7V | 08:19:22 | 01:26:34 | 00:00:00 | |
| AA1-15 | 2026-09-04 07:59:30 | 52.64168 | 9.23532 | 108° | 137km/h | 13686m | -8.9m/s | -58.6°C | 6.5% | 156.7hPa | 2.7V | 08:20:05 | 01:26:38 | 00:00:00 | |
| DO2SHX-10 | 2026-09-04 07:59:30 | 52.64168 | 9.23532 | 108° | 135km/h | 13686m | -8.8m/s | -58.6°C | 9.1% | 156.7hPa | 2.5V | 00:00:00 | 01:26:38 | 00:00:00 | |
| DL1XH1-15 | 2026-09-04 07:59:29 | 52.64233 | 9.23227 | 109° | 122km/h | 13737m | -9.6m/s | -58.9°C | 8.6% | 155.5hPa | 2.5V | 08:19:24 | 01:26:32 | 00:00:00 | |
| DO2JMG | 2026-09-04 07:59:26 | 52.64211 | 9.23325 | 111° | 128km/h | 13719m | -8.3m/s | -58.7°C | 6.3% | 155.9hPa | 2.7V | 08:20:05 | 01:26:34 | 00:00:00 | |
| DJ2DS-15 | 2026-09-04 07:59:25 | 52.64222 | 9.23275 | 111° | 117km/h | 13728m | -8.9m/s | -58.7°C | 8.6% | 155.6hPa | 2.7V | 00:00:00 | 01:26:33 | 00:00:00 | |
| DL1NUX | 2026-09-04 07:59:24 | 52.64284 | 9.22990 | 109° | 120km/h | 13780m | -6.6m/s | -58.9°C | 8.4% | 154.4hPa | 2.7V | 08:19:29 | 01:26:27 | 00:00:00 | |
| DL1XH-west | 2026-09-04 07:59:23 | 52.64243 | 9.23179 | 110° | 122km/h | 13746m | -9.5m/s | -59°C | 6.2% | 155.2hPa | 2.5V | 08:20:05 | 01:26:31 | 00:00:00 | |
| BIOWL1-15 | 2026-09-04 07:59:22 | 52.64253 | 9.23132 | 110° | 120km/h | 13756m | -9.5m/s | -59°C | 6.1% | 155.1hPa | 2.5V | 08:20:05 | 01:26:30 | 00:00:00 | |
| DL1XH-15 | 2026-09-04 07:59:21 | 52.64315 | 9.22850 | 110° | 119km/h | 13804m | -8.1m/s | -58.9°C | 8.2% | 153.8hPa | 2.5V | 08:19:32 | 01:26:24 | 00:00:00 | |
| AA1-15 | 2026-09-04 07:59:20 | 52.64274 | 9.23038 | 109° | 120km/h | 13773m | -8.2m/s | -59°C | 5.9% | 154.6hPa | 2.7V | 08:20:05 | 01:26:28 | 00:00:00 | |
| DB0UT-7 | 2026-09-04 07:59:20 | 52.64273 | 9.23038 | 110° | 111km/h | 13773m | -8.2m/s | -58.9°C | 8.6% | 154.5hPa | 2.7V | 00:00:00 | 00:00:00 | 00:00:00 | |
| DL1XH1-15 | 2026-09-04 07:59:19 | 52.64336 | 9.22759 | 110° | 115km/h | 13822m | -9m/s | -58.9°C | 8% | 153.4hPa | 2.7V | 08:19:34 | 01:26:22 | 00:00:00 | |
| DO2JMG | 2026-09-04 07:59:16 | 52.64315 | 9.22850 | 110° | 119km/h | 13804m | -8.1m/s | -58.9°C | 5.6% | 153.8hPa | 2.5V | 08:20:05 | 01:26:24 | 00:00:00 | |
| HSKMA3-T | 2026-09-04 07:59:15 | 52.64325 | 9.22804 | 111° | 117km/h | 13813m | -9m/s | -58.8°C | 5.6% | 153.6hPa | 2.7V | 08:20:05 | 01:26:23 | 00:00:00 | |
| DM0DOS-11 | 2026-09-04 07:59:15 | 52.64376 | 9.22582 | 110° | 111km/h | 13857m | -8.5m/s | -58.8°C | 7.8% | 152.5hPa | 2.7V | 08:19:38 | 01:26:18 | 00:00:00 | |
| DL1XH-west | 2026-09-04 07:59:12 | 52.64356 | 9.22670 | 111° | 113km/h | 13839m | -8.4m/s | -58.8°C | 5.3% | 152.9hPa | 2.5V | 08:20:05 | 01:26:20 | 00:00:00 | |
| DL4XJ-10 | 2026-09-04 07:59:12 | 52.64356 | 9.22669 | 111° | 108km/h | 13839m | -8.4m/s | -59.3°C | 0% | 0hPa | 2.7V | 00:00:00 | 00:00:00 | 00:00:00 | |
| DN9WHV | 2026-09-04 07:59:11 | 52.64356 | 9.22669 | 111° | 113km/h | 13839m | -8.4m/s | -58.8°C | 4.3% | 153.0hPa | 2.7V | 08:20:00 | 00:00:00 | 00:00:00 | |
| DB0DAN | 2026-09-04 07:59:10 | 52.64376 | 9.22582 | 110° | 106km/h | 13857m | -8.5m/s | -58.8°C | 4.2% | 152.51hPa | 2.7V | 00:00:00 | 00:00:00 | 00:00:00 | |
| DL1XH1-15 | 2026-09-04 07:59:09 | 52.64430 | 9.22324 | 106° | 110km/h | 13909m | -9.2m/s | -59.2°C | 7.9% | 151.3hPa | 2.7V | 08:19:44 | 01:26:12 | 00:00:00 | |
| AA1-15 | 2026-09-04 07:59:09 | 52.64385 | 9.22539 | 111° | 110km/h | 13865m | -8.6m/s | -58.9°C | 5.2% | 152.3hPa | 2.7V | 08:20:05 | 01:26:17 | 00:00:00 | |
| DO2JMG | 2026-09-04 07:59:06 | 52.64413 | 9.22411 | 109° | 110km/h | 13891m | -8.2m/s | -59.1°C | 5% | 151.7hPa | 2.5V | 08:20:05 | 01:26:14 | 00:00:00 | |
| HSKMA3-T | 2026-09-04 07:59:05 | 52.64430 | 9.22324 | 107° | 110km/h | 13909m | -9.2m/s | -59.2°C | 5% | 151.3hPa | 2.7V | 08:20:05 | 01:26:12 | 00:00:00 | |
| DL1XH-west | 2026-09-04 07:59:01 | 52.64451 | 9.22193 | 105° | 108km/h | 13935m | -8.4m/s | -59.2°C | 4.8% | 150.7hPa | 2.5V | 08:20:05 | 01:26:09 | 00:00:00 | |
| SONCRA | 2026-09-04 07:59:00 | 52.64465 | 9.22107 | 104° | 106km/h | 13951m | -8.8m/s | -59.2°C | 4.0% | 150.3hPa | 2.5V | 00:00:00 | 00:00:00 | 00:00:00 | |
| DL1XH1-15 | 2026-09-04 07:58:59 | 52.64497 | 9.21894 | 101° | 106km/h | 13996m | -9.2m/s | -59.3°C | 7.5% | 149.2hPa | 2.5V | 08:19:54 | 01:26:02 | 00:00:00 | |
| AA1-15 | 2026-09-04 07:58:59 | 52.64465 | 9.22107 | 104° | 108km/h | 13951m | -8.8m/s | -59.2°C | 4.7% | 150.3hPa | 2.7V | 08:20:05 | 01:26:07 | 00:00:00 | |
| DL3AQ-11 | 2026-09-04 07:58:56 | 52.64485 | 9.21979 | 103° | 104km/h | 13977m | -8.7m/s | -59.2°C | 3.9% | 149.6hPa | 2.5V | 00:00:00 | 00:00:00 | 00:00:00 | |
| DB0DAN | 2026-09-04 07:58:55 | 52.64491 | 9.21937 | 103° | 100km/h | 13986m | -9.5m/s | -59.2°C | 3.9% | 149.43hPa | 2.5V | 00:00:00 | 00:00:00 | 00:00:00 | |
| DO2JMG | 2026-09-04 07:58:55 | 52.64491 | 9.21937 | 103° | 106km/h | 13986m | -9.5m/s | -59.2°C | 4.5% | 149.4hPa | 2.5V | 08:20:05 | 01:26:03 | 00:00:00 | |
| HSKMA3-T | 2026-09-04 07:58:55 | 52.64502 | 9.21851 | 100° | 104km/h | 14006m | -11.5m/s | -59.3°C | 4.4% | 149hPa | 2.7V | 08:20:05 | 01:26:01 | 00:00:00 | |
| DL1NUX | 2026-09-04 07:58:54 | 52.64516 | 9.21682 | 95° | 102km/h | 14055m | -10.8m/s | -59.3°C | 7.4% | 147.8hPa | 2.5V | 08:19:59 | 01:25:57 | 00:00:00 | |
| DL1XH-west | 2026-09-04 07:58:51 | 52.64510 | 9.21766 | 99° | 102km/h | 14033m | -11.9m/s | -59.3°C | 4.3% | 148.3hPa | 2.5V | 08:20:05 | 01:25:59 | 00:00:00 | |
| DF8AY | 2026-09-04 07:58:50 | 52.64514 | 9.21724 | 97° | 102km/h | 14044m | -10.2m/s | -59.3°C | 4.2% | 148hPa | 2.5V | 08:20:05 | 01:25:58 | 00:00:00 | |
| AA1-15 | 2026-09-04 07:58:49 | 52.64517 | 9.21682 | 95° | 102km/h | 14055m | -10.8m/s | -59.3°C | 4.2% | 147.8hPa | 2.5V | 08:20:05 | 01:25:57 | 00:00:00 | |
| DB0NH | 2026-09-04 07:58:49 | 52.64517 | 9.21682 | 96° | 110km/h | 14055m | -10.7m/s | -59.3°C | 7.4% | 147.7hPa | 2.7V | 00:00:00 | 01:25:57 | 00:00:00 | |
| DO2SHX-10 | 2026-09-04 07:58:48 | 52.64519 | 9.21640 | 95° | 100km/h | 14065m | -9.5m/s | -59.3°C | 7.4% | 147.5hPa | 2.7V | 08:20:00 | 01:25:56 | 00:00:00 | |
| DD8BA-10 | 2026-09-04 07:58:47 | 52.64521 | 9.21598 | 95° | 106km/h | 14075m | -9.3m/s | -59.4°C | 7.5% | 147.3hPa | 2.5V | 00:00:00 | 00:00:00 | 00:00:00 | |
| DN9WHV | 2026-09-04 07:58:46 | 52.64521 | 9.21598 | 96° | 100km/h | 14075m | -9.4m/s | -59.4°C | 3.7% | 147.4hPa | 2.5V | 08:20:00 | 00:00:00 | 00:00:00 | |
| SO1NDE-10 | 2026-09-04 07:58:45 | 52.64525 | 9.21514 | 95° | 111km/h | 14092m | -7.7m/s | -59.4°C | 7.5% | 146.9hPa | 2.5V | 00:00:00 | 01:25:53 | 00:00:00 | |
| DL1NUX | 2026-09-04 07:58:44 | 52.64544 | 9.21248 | 96° | 111km/h | 14145m | -9.2m/s | -59.2°C | 7.1% | 145.7hPa | 2.5V | 08:20:09 | 01:25:47 | 00:00:00 | |
| DO2JMG | 2026-09-04 07:58:44 | 52.64527 | 9.21472 | 95° | 102km/h | 14100m | -7.6m/s | -59.5°C | 4% | 146.7hPa | 2.5V | 08:20:05 | 01:25:52 | 00:00:00 | |
| HSKMA3-T | 2026-09-04 07:58:43 | 52.64530 | 9.21429 | 97° | 106km/h | 14108m | -7.3m/s | -59.5°C | 3.9% | 146.6hPa | 2.5V | 08:20:05 | 01:25:51 | 00:00:00 | |
| DL3AQ-11 | 2026-09-04 07:58:43 | 52.64533 | 9.21385 | 98° | 108km/h | 14116m | -9.1m/s | -59.4°C | 3.5% | 146.3hPa | 2.7V | 00:00:00 | 00:00:00 | 00:00:00 | |
| DO2SHX-10 | 2026-09-04 07:58:42 | 52.64533 | 9.21385 | 99° | 110km/h | 14116m | -9.1m/s | -59.4°C | 7.2% | 146.3hPa | 2.7V | 00:00:00 | 01:25:50 | 00:00:00 | |
| DL1XH-15 | 2026-09-04 07:58:41 | 52.64549 | 9.21114 | 90° | 104km/h | 14175m | -11.1m/s | -58.8°C | 6.6% | 145.1hPa | 2.7V | 08:20:12 | 01:25:44 | 00:00:00 | |
| DB0DAN | 2026-09-04 07:58:40 | 52.64540 | 9.21294 | 98° | 106km/h | 14136m | -7.8m/s | -59.3°C | 3.4% | 145.87hPa | 2.5V | 00:00:00 | 00:00:00 | 00:00:00 | |
| DL1XH-west | 2026-09-04 07:58:40 | 52.64540 | 9.21294 | 98° | 111km/h | 14136m | -7.8m/s | -59.3°C | 3.7% | 145.9hPa | 2.5V | 08:20:56 | 01:25:48 | 00:00:00 | |
| AA1-15 | 2026-09-04 07:58:39 | 52.64544 | 9.21248 | 97° | 111km/h | 14145m | -9.2m/s | -59.2°C | 3.7% | 145.7hPa | 2.5V | 08:20:56 | 01:25:47 | 00:00:00 | |
| DO2SHX-10 | 2026-09-04 07:58:39 | 52.64544 | 9.21248 | 97° | 110km/h | 14145m | -9.2m/s | -59.2°C | 7.1% | 145.6hPa | 2.5V | 00:00:00 | 01:25:47 | 00:00:00 | |
| DJ2KF-10 | 2026-09-04 07:58:38 | 52.64547 | 9.21203 | 95° | 111km/h | 14155m | -10.7m/s | -59.1°C | 7.0% | 145.5hPa | 2.7V | 00:00:00 | 01:25:46 | 00:00:00 | |
| DD8BA-10 | 2026-09-04 07:58:37 | 52.64548 | 9.21158 | 93° | 108km/h | 14165m | -8.9m/s | -59.0°C | 6.8% | 145.2hPa | 2.7V | 00:00:00 | 00:00:00 | 00:00:00 | |
| DO2SHX-10 | 2026-09-04 07:58:36 | 52.64549 | 9.21114 | 91° | 104km/h | 14175m | -11.0m/s | -58.8°C | 6.6% | 145.0hPa | 2.7V | 00:00:00 | 01:25:44 | 00:00:00 | |
| DM0DOS-11 | 2026-09-04 07:58:35 | 52.64547 | 9.20850 | 91° | 111km/h | 14226m | -8.1m/s | -58.8°C | 6.6% | 143.8hPa | 2.7V | 08:20:18 | 01:25:38 | 00:00:00 | |
| DO2JMG | 2026-09-04 07:58:34 | 52.64548 | 9.21028 | 88° | 104km/h | 14195m | -7.9m/s | -58.7°C | 3.3% | 144.5hPa | 2.5V | 08:20:56 | 01:25:42 | 00:00:00 | |
| HSKMA3-T | 2026-09-04 07:58:32 | 52.64547 | 9.20941 | 89° | 108km/h | 14211m | -7.9m/s | -58.7°C | 3.1% | 144.2hPa | 2.5V | 08:20:56 | 01:25:40 | 00:00:00 | |
| BIOWL1-15 | 2026-09-04 07:58:30 | 52.64547 | 9.20850 | 92° | 111km/h | 14226m | -8.1m/s | -58.8°C | 3.2% | 143.8hPa | 2.7V | 08:20:56 | 01:25:38 | 00:00:00 | |
| DL1XH-west | 2026-09-04 07:58:29 | 52.64548 | 9.20803 | 93° | 115km/h | 14234m | -7.8m/s | -58.8°C | 3.2% | 143.6hPa | 2.5V | 08:20:56 | 01:25:37 | 00:00:00 | |
| GOEST3-10 | 2026-09-04 07:58:28 | 52.64550 | 9.20755 | 94° | 113km/h | 14242m | -7.6m/s | -58.8°C | 6.6% | 143.4hPa | 2.5V | 00:00:00 | 00:00:00 | 00:00:00 | |
| AA1-15 | 2026-09-04 07:58:28 | 52.64550 | 9.20755 | 94° | 115km/h | 14242m | -7.7m/s | -58.8°C | 3.1% | 143.5hPa | 2.5V | 08:20:56 | 01:25:36 | 00:00:00 | |
| DD8BA-10 | 2026-09-04 07:58:27 | 52.64552 | 9.20708 | 95° | 117km/h | 14250m | -7.8m/s | -58.8°C | 6.5% | 143.2hPa | 2.5V | 00:00:00 | 00:00:00 | 00:00:00 | |
| DL3OBA | 2026-09-04 07:58:26 | 52.64552 | 9.20708 | 96° | 115km/h | 14250m | -7.8m/s | -58.8°C | 3.0% | 143.3hPa | 2.7V | 08:20:00 | 00:00:00 | 00:00:00 | |
| DB0DAN | 2026-09-04 07:58:25 | 52.64557 | 9.20613 | 96° | 108km/h | 14266m | -7.6m/s | -58.8°C | 2.9% | 142.89hPa | 2.7V | 00:00:00 | 00:00:00 | 00:00:00 | |
| DM0DOS-11 | 2026-09-04 07:58:25 | 52.64572 | 9.20375 | 95° | 120km/h | 14307m | -8.2m/s | -58.6°C | 6.3% | 142hPa | 2.7V | 08:20:28 | 01:25:28 | 00:00:00 | |
| DJ2DS-15 | 2026-09-04 07:58:25 | 52.64557 | 9.20613 | 96° | 111km/h | 14266m | -7.6m/s | -58.7°C | 6.4% | 142.8hPa | 2.7V | 00:00:00 | 01:25:33 | 00:00:00 | |
| DL1NUX | 2026-09-04 07:58:24 | 52.64575 | 9.20326 | 95° | 120km/h | 14315m | -7.5m/s | -58.5°C | 6.3% | 141.8hPa | 2.7V | 08:20:29 | 01:25:27 | 00:00:00 | |
| DO2JMG | 2026-09-04 07:58:24 | 52.64560 | 9.20567 | 96° | 113km/h | 14274m | -8.1m/s | -58.7°C | 2.9% | 142.8hPa | 2.7V | 08:20:56 | 01:25:32 | 00:00:00 | |
| HSKMA3-T | 2026-09-04 07:58:21 | 52.64569 | 9.20425 | 96° | 119km/h | 14298m | -8.4m/s | -58.6°C | 2.8% | 142.2hPa | 2.5V | 08:20:56 | 01:25:29 | 00:00:00 | |
| DL1XH-15 | 2026-09-04 07:58:21 | 52.64584 | 9.20178 | 95° | 119km/h | 14340m | -10m/s | -58.4°C | 6.2% | 141.3hPa | 2.5V | 08:20:32 | 01:25:24 | 00:00:00 | |
| DF8AY | 2026-09-04 07:58:19 | 52.64575 | 9.20326 | 95° | 120km/h | 14315m | -7.5m/s | -58.6°C | 2.8% | 141.8hPa | 2.7V | 08:20:56 | 01:25:27 | 00:00:00 | |
| AA1-15 | 2026-09-04 07:58:18 | 52.64578 | 9.20276 | 96° | 119km/h | 14323m | -8.3m/s | -58.5°C | 2.8% | 141.7hPa | 2.5V | 08:20:56 | 01:25:26 | 00:00:00 | |
| DD8BA-10 | 2026-09-04 07:58:17 | 52.64581 | 9.20227 | 96° | 111km/h | 14331m | -7.8m/s | -58.4°C | 6.3% | 141.4hPa | 2.5V | 00:00:00 | 00:00:00 | 00:00:00 | |
| DL3AQ-11 | 2026-09-04 07:58:16 | 52.64587 | 9.20130 | 95° | 113km/h | 14350m | -9.9m/s | -58.4°C | 2.7% | 141.1hPa | 2.5V | 00:00:00 | 00:00:00 | 00:00:00 | |
| DM0DOS-11 | 2026-09-04 07:58:15 | 52.64600 | 9.19903 | 96° | 106km/h | 14395m | -8.5m/s | -58.2°C | 6.4% | 140.1hPa | 2.5V | 08:20:38 | 01:25:18 | 00:00:00 | |
| SO1NDE-10 | 2026-09-04 07:58:15 | 52.64586 | 9.20130 | 96° | 100km/h | 14350m | -9.8m/s | -58.3°C | 6.3% | 141.0hPa | 2.7V | 08:20:00 | 01:25:23 | 00:00:00 | |
| DL1NUX | 2026-09-04 07:58:14 | 52.64603 | 9.19859 | 96° | 104km/h | 14404m | -7.4m/s | -58.3°C | 6.4% | 139.8hPa | 2.7V | 08:20:39 | 01:25:17 | 00:00:00 | |
| DO2JMG | 2026-09-04 07:58:13 | 52.64592 | 9.20036 | 95° | 110km/h | 14368m | -8.2m/s | -58.4°C | 2.7% | 140.7hPa | 2.7V | 08:20:56 | 01:25:21 | 00:00:00 | |
| HSKMA3-T | 2026-09-04 07:58:12 | 52.64600 | 9.19902 | 96° | 106km/h | 14395m | -8.5m/s | -58.3°C | 2.8% | 140.1hPa | 2.5V | 08:20:56 | 01:25:18 | 00:00:00 | |
| DF8AY-15 | 2026-09-04 07:58:12 | 52.64595 | 9.19991 | 97° | 99km/h | 14377m | -9.3m/s | -58.3°C | 6.5% | 140.4hPa | 2.5V | 08:20:00 | 01:25:20 | 00:00:00 | |
| DL1XH-15 | 2026-09-04 07:58:11 | 52.64610 | 9.19732 | 94° | 100km/h | 14432m | -8.7m/s | -58.4°C | 6.4% | 139.2hPa | 2.5V | 08:20:42 | 01:25:14 | 00:00:00 | |
| DO2SHX-10 | 2026-09-04 07:58:11 | 52.64597 | 9.19946 | 96° | 106km/h | 14387m | -8.9m/s | -58.3°C | 6.5% | 140.2hPa | 2.5V | 00:00:00 | 01:25:19 | 00:00:00 | |
| DD1CC3-15 | 2026-09-04 07:58:10 | 52.64598 | 9.19946 | 97° | 106km/h | 14387m | -9.0m/s | -58.3°C | 2.9% | 140.3hPa | 2.7V | 08:20:00 | 00:00:00 | 00:00:00 | |
| DL1XH1-15 | 2026-09-04 07:58:09 | 52.64614 | 9.19650 | 93° | 97km/h | 14450m | -7.2m/s | -58.2°C | 6.3% | 138.8hPa | 2.7V | 08:20:44 | 01:25:12 | 00:00:00 | |
| AA1-15 | 2026-09-04 07:58:08 | 52.64606 | 9.19816 | 95° | 102km/h | 14412m | -9.3m/s | -58.4°C | 2.8% | 139.6hPa | 2.7V | 08:20:56 | 01:25:16 | 00:00:00 | |
| DL1XH-west | 2026-09-04 07:58:07 | 52.64608 | 9.19774 | 95° | 100km/h | 14422m | -10.3m/s | -58.5°C | 2.8% | 139.5hPa | 2.5V | 08:20:56 | 01:25:15 | 00:00:00 | |
| DD8BA-10 | 2026-09-04 07:58:07 | 52.64608 | 9.19773 | 96° | 97km/h | 14423m | -10.3m/s | -58.4°C | 6.4% | 139.5hPa | 2.5V | 00:00:00 | 00:00:00 | 00:00:00 | |
| DL3OBA | 2026-09-04 07:58:06 | 52.64608 | 9.19774 | 96° | 100km/h | 14423m | -10.3m/s | -58.5°C | 2.8% | 139.5hPa | 2.5V | 08:20:00 | 00:00:00 | 00:00:00 | |
| DM0DOS-11 | 2026-09-04 07:58:05 | 52.64619 | 9.19494 | 92° | 93km/h | 14486m | -10.3m/s | -57.8°C | 5.9% | 138.1hPa | 2.5V | 08:20:48 | 01:25:08 | 00:00:00 | |
| DO9LL-15 | 2026-09-04 07:58:05 | 52.64612 | 9.19691 | 94° | 99km/h | 14442m | -10.4m/s | -58.3°C | 6.2% | 139.0hPa | 2.5V | 00:00:00 | 01:25:13 | 00:00:00 | |
| DL1NUX | 2026-09-04 07:58:04 | 52.64620 | 9.19455 | 92° | 93km/h | 14496m | -8.6m/s | -57.6°C | 5.8% | 137.8hPa | 2.5V | 08:20:49 | 01:25:07 | 00:00:00 | |
| DO2JMG | 2026-09-04 07:58:02 | 52.64616 | 9.19572 | 93° | 93km/h | 14467m | -8.6m/s | -58°C | 2.5% | 138.4hPa | 2.7V | 08:20:56 | 01:25:10 | 00:00:00 | |
| DO2SHX-10 | 2026-09-04 07:58:02 | 52.64616 | 9.19571 | 94° | 93km/h | 14467m | -8.6m/s | -57.9°C | 6.0% | 138.3hPa | 2.7V | 00:00:00 | 01:25:10 | 00:00:00 | |
| DL1XH-15 | 2026-09-04 07:58:01 | 52.64623 | 9.19337 | 92° | 95km/h | 14521m | -8.2m/s | -57.3°C | 5.7% | 137.2hPa | 2.5V | 08:20:52 | 01:25:04 | 00:00:00 | |
| HSKMA3-T | 2026-09-04 07:57:59 | 52.64620 | 9.19455 | 93° | 93km/h | 14496m | -8.6m/s | -57.6°C | 2.4% | 137.8hPa | 2.5V | 08:20:56 | 01:25:07 | 00:00:00 | |
| DL1XH1-15 | 2026-09-04 07:57:59 | 52.64626 | 9.19257 | 93° | 99km/h | 14538m | -8.9m/s | -57.1°C | 5.6% | 136.9hPa | 2.6V | 08:20:54 | 01:25:02 | 00:00:00 | |
| DF8AY | 2026-09-04 07:57:58 | 52.64621 | 9.19416 | 93° | 93km/h | 14504m | -8.1m/s | -57.4°C | 2.4% | 137.6hPa | 2.7V | 08:20:56 | 01:25:06 | 00:00:00 | |
| BIOWL1-15 | 2026-09-04 07:57:57 | 52.64622 | 9.19377 | 93° | 95km/h | 14512m | -8.1m/s | -57.4°C | 2.4% | 137.4hPa | 2.7V | 08:20:56 | 01:25:05 | 00:00:00 | |
| DL1XH-west | 2026-09-04 07:57:56 | 52.64623 | 9.19337 | 93° | 95km/h | 14521m | -8.2m/s | -57.3°C | 2.4% | 137.2hPa | 2.5V | 08:20:56 | 01:25:04 | 00:00:00 | |
| DO2SHX-10 | 2026-09-04 07:57:56 | 52.64623 | 9.19337 | 93° | 97km/h | 14521m | -8.1m/s | -57.3°C | 5.7% | 137.2hPa | 2.5V | 00:00:00 | 01:25:04 | 00:00:00 | |
| DM0DOS-11 | 2026-09-04 07:57:55 | 52.64631 | 9.19089 | 93° | 104km/h | 14573m | -8.7m/s | -57°C | 5.5% | 136.1hPa | 2.5V | 08:20:58 | 01:24:58 | 00:00:00 | |
| DL1NUX | 2026-09-04 07:57:54 | 52.64632 | 9.19046 | 93° | 104km/h | 14581m | -8.3m/s | -57.1°C | 5.5% | 135.9hPa | 2.5V | 08:20:59 | 01:24:57 | 00:00:00 | |
| DO2JMG | 2026-09-04 07:57:52 | 52.64628 | 9.19175 | 93° | 102km/h | 14555m | -8.6m/s | -56.9°C | 2.2% | 136.5hPa | 2.7V | 08:20:56 | 01:25:00 | 00:00:00 | |
| DL4XJ-10 | 2026-09-04 07:57:52 | 52.64629 | 9.19175 | 93° | 102km/h | 14555m | -8.6m/s | -57.4°C | 0% | 0hPa | 2.7V | 00:00:00 | 00:00:00 | 00:00:00 | |
| DL1XH-15 | 2026-09-04 07:57:51 | 52.64637 | 9.18919 | 93° | 99km/h | 14609m | -10.9m/s | -57.2°C | 5.6% | 135.4hPa | 2.7V | 08:21:02 | 01:24:54 | 00:00:00 | |
| HSKMA3-T | 2026-09-04 07:57:50 | 52.64632 | 9.19046 | 93° | 104km/h | 14582m | -8.3m/s | -57.1°C | 2.3% | 135.9hPa | 2.5V | 08:21:47 | 01:24:57 | 00:00:00 | |
| BIOWL1-15 | 2026-09-04 07:57:47 | 52.64635 | 9.18960 | 94° | 102km/h | 14599m | -8.3m/s | -57.2°C | 2.3% | 135.6hPa | 2.7V | 08:21:47 | 01:24:55 | 00:00:00 | |
| DL1XH-west | 2026-09-04 07:57:46 | 52.64637 | 9.18919 | 94° | 99km/h | 14609m | -10.9m/s | -57.2°C | 2.3% | 135.4hPa | 2.7V | 08:21:47 | 01:24:54 | 00:00:00 | |
| SMARD9-15 | 2026-09-04 07:57:46 | 52.64639 | 9.18878 | 93° | 97km/h | 14619m | -7.9m/s | -57.3°C | 2.4% | 135.1hPa | 2.5V | 00:00:00 | 00:00:00 | 00:00:00 | |
| DJ2DS-15 | 2026-09-04 07:57:45 | 52.64639 | 9.18878 | 94° | 104km/h | 14619m | -7.9m/s | -57.2°C | 5.6% | 135.1hPa | 2.5V | 00:00:00 | 01:24:53 | 00:00:00 | |
| DL1NUX | 2026-09-04 07:57:44 | 52.64644 | 9.18630 | 92° | 104km/h | 14669m | -8.4m/s | -57.4°C | 5.7% | 134.1hPa | 2.5V | 08:21:09 | 01:24:47 | 00:00:00 | |
| DO2SHX-10 | 2026-09-04 07:57:44 | 52.64640 | 9.18837 | 94° | 97km/h | 14627m | -7.2m/s | -57.3°C | 5.6% | 134.9hPa | 2.6V | 00:00:00 | 01:24:52 | 00:00:00 | |
| GOEST3-10 | 2026-09-04 07:57:43 | 52.64642 | 9.18797 | 93° | 100km/h | 14635m | -8.7m/s | -57.3°C | 5.7% | 134.8hPa | 2.5V | 00:00:00 | 01:24:51 | 00:00:00 | |
| D01LWL | 2026-09-04 07:57:42 | 52.64642 | 9.18757 | 91° | 97km/h | 14643m | -7.8m/s | -57.4°C | 2.5% | 134.6hPa | 2.5V | 00:00:00 | 00:00:00 | 00:00:00 | |
| DN9WHV | 2026-09-04 07:57:41 | 52.64642 | 9.18757 | 92° | 99km/h | 14644m | -7.8m/s | -57.4°C | 2.5% | 134.6hPa | 2.5V | 08:21:00 | 00:00:00 | 00:00:00 | |
| DO2JMG | 2026-09-04 07:57:41 | 52.64643 | 9.18715 | 91° | 100km/h | 14651m | -8.4m/s | -57.4°C | 2.3% | 134.4hPa | 2.5V | 08:21:47 | 01:24:49 | 00:00:00 | |
| DB0DAN | 2026-09-04 07:57:40 | 52.64643 | 9.18673 | 91° | 99km/h | 14660m | -8.4m/s | -57.4°C | 2.4% | 134.32hPa | 2.5V | 00:00:00 | 00:00:00 | 00:00:00 | |
| HSKMA3-T | 2026-09-04 07:57:39 | 52.64644 | 9.18630 | 92° | 104km/h | 14669m | -8.4m/s | -57.4°C | 2.3% | 134.1hPa | 2.5V | 08:21:47 | 01:24:47 | 00:00:00 | |
| DF8AY | 2026-09-04 07:57:37 | 52.64647 | 9.18544 | 95° | 102km/h | 14686m | -9.1m/s | -57.4°C | 2.2% | 133.7hPa | 2.7V | 08:21:47 | 01:24:45 | 00:00:00 | |
| BIOWL1-15 | 2026-09-04 07:57:36 | 52.64649 | 9.18502 | 94° | 104km/h | 14697m | -9.7m/s | -57.3°C | 2.2% | 133.5hPa | 2.7V | 08:21:47 | 01:24:44 | 00:00:00 | |
| DL1XH-west | 2026-09-04 07:57:35 | 52.64651 | 9.18458 | 95° | 106km/h | 14706m | -8.7m/s | -57.3°C | 2.2% | 133.3hPa | 2.5V | 08:21:47 | 01:24:43 | 00:00:00 | |
| DO2SHX-10 | 2026-09-04 07:57:35 | 52.64651 | 9.18458 | 95° | 106km/h | 14706m | -8.7m/s | -57.3°C | 5.6% | 133.2hPa | 2.5V | 00:00:00 | 01:24:43 | 00:00:00 | |
| DL1NUX | 2026-09-04 07:57:34 | 52.64663 | 9.18188 | 93° | 110km/h | 14765m | -13.9m/s | -57.6°C | 5.8% | 132.1hPa | 2.5V | 08:21:19 | 01:24:37 | 00:00:00 | |
| DO2JMG | 2026-09-04 07:57:31 | 52.64659 | 9.18280 | 93° | 110km/h | 14743m | -10.6m/s | -57.6°C | 2.2% | 132.5hPa | 2.7V | 08:21:47 | 01:24:39 | 00:00:00 | |
| SMARD9-10 | 2026-09-04 07:57:30 | 52.64659 | 9.18280 | 94° | 110km/h | 14744m | -10.6m/s | -57.6°C | 2.3% | 132.5hPa | 2.5V | 08:21:00 | 00:00:00 | 00:00:00 | |
| DL1XH1-15 | 2026-09-04 07:57:29 | 52.64673 | 9.17965 | 95° | 102km/h | 14815m | -8.4m/s | -57.7°C | 5.7% | 130.9hPa | 2.5V | 08:21:24 | 01:24:32 | 00:00:00 | |
| HSKMA3-T | 2026-09-04 07:57:28 | 52.64664 | 9.18142 | 93° | 111km/h | 14776m | -9.6m/s | -57.7°C | 2.2% | 131.8hPa | 2.5V | 08:21:47 | 01:24:36 | 00:00:00 | |
| DF8AY | 2026-09-04 07:57:27 | 52.64666 | 9.18096 | 94° | 110km/h | 14786m | -9.2m/s | -57.7°C | 2.2% | 131.6hPa | 2.7V | 08:21:47 | 01:24:35 | 00:00:00 | |
| AP2371 | 2026-09-04 07:57:27 | 52.64666 | 9.18096 | 95° | 110km/h | 14786m | -9.2m/s | -57.7°C | 2.4% | 131.6hPa | 2.7V | 00:00:00 | 00:00:00 | 00:00:00 | |
| DN9WHV | 2026-09-04 07:57:26 | 52.64666 | 9.18096 | 95° | 110km/h | 14786m | -9.2m/s | -57.7°C | 2.4% | 131.6hPa | 2.7V | 08:21:00 | 00:00:00 | 00:00:00 | |
| DB0DAN | 2026-09-04 07:57:25 | 52.64671 | 9.18008 | 95° | 102km/h | 14807m | -7.5m/s | -57.7°C | 2.4% | 131.12hPa | 2.7V | 00:00:00 | 00:00:00 | 00:00:00 | |
| AA1-15 | 2026-09-04 07:57:25 | 52.64671 | 9.18008 | 95° | 106km/h | 14807m | -7.5m/s | -57.7°C | 2.2% | 131.1hPa | 2.7V | 08:21:47 | 01:24:33 | 00:00:00 | |
| DL1XH-west | 2026-09-04 07:57:24 | 52.64673 | 9.17965 | 95° | 102km/h | 14815m | -8.4m/s | -57.7°C | 2.1% | 130.9hPa | 2.5V | 08:21:47 | 01:24:32 | 00:00:00 | |
| DO2JMG | 2026-09-04 07:57:20 | 52.64687 | 9.17799 | 99° | 100km/h | 14870m | -12.6m/s | -57.6°C | 2% | 129.8hPa | 2.7V | 08:21:47 | 01:24:28 | 00:00:00 | |
| HSKMA3-T | 2026-09-04 07:57:19 | 52.64695 | 9.17717 | 100° | 99km/h | 14894m | -12.2m/s | -57.6°C | 2% | 129.4hPa | 2.5V | 08:21:47 | 01:24:26 | 00:00:00 | |
| DF8AY | 2026-09-04 07:57:17 | 52.64700 | 9.17677 | 101° | 99km/h | 14907m | -14m/s | -57.7°C | 2% | 129.2hPa | 2.7V | 08:21:47 | 01:24:25 | 00:00:00 | |
| DD8BA-10 | 2026-09-04 07:57:17 | 52.64700 | 9.17677 | 102° | 93km/h | 14908m | -14.0m/s | -57.6°C | 5.6% | 129.1hPa | 2.7V | 00:00:00 | 00:00:00 | 00:00:00 | |
| DL1XH-15 | 2026-09-04 07:57:15 | 52.64739 | 9.17412 | 106° | 91km/h | 14995m | -11.8m/s | -57.4°C | 5.4% | 127.3hPa | 2.7V | 08:21:38 | 01:24:18 | 00:00:00 | |
| DL1XH-west | 2026-09-04 07:57:14 | 52.64715 | 9.17559 | 103° | 95km/h | 14946m | -12.3m/s | -57.6°C | 2% | 128.3hPa | 2.5V | 08:21:47 | 01:24:22 | 00:00:00 | |
| DO2JMG | 2026-09-04 07:57:09 | 52.64745 | 9.17376 | 107° | 89km/h | 15007m | -12.7m/s | -57.2°C | 1.8% | 127.1hPa | 2.5V | 08:21:47 | 01:24:17 | 00:00:00 | |
| HSKMA3-T | 2026-09-04 07:57:07 | 52.64758 | 9.17306 | 107° | 86km/h | 15031m | -12.2m/s | -57.1°C | 1.7% | 126.6hPa | 2.5V | 08:21:47 | 01:24:15 | 00:00:00 | |
| DF8AY | 2026-09-04 07:57:06 | 52.64764 | 9.17272 | 106° | 84km/h | 15043m | -11.5m/s | -57°C | 1.6% | 126.4hPa | 2.7V | 08:21:47 | 01:24:14 | 00:00:00 | |
| DM0DOS-11 | 2026-09-04 07:57:05 | 52.64793 | 9.17078 | 103° | 75km/h | 15106m | -7.9m/s | -56.8°C | 5.2% | 125hPa | 2.7V | 08:21:48 | 01:24:08 | 00:00:00 | |
| DL1XH-west | 2026-09-04 07:57:04 | 52.64775 | 9.17205 | 105° | 82km/h | 15067m | -11.9m/s | -56.8°C | 1.5% | 126hPa | 2.5V | 08:21:47 | 01:24:12 | 00:00:00 | |
| AA1-15 | 2026-09-04 07:57:03 | 52.64780 | 9.17172 | 104° | 80km/h | 15078m | -10.7m/s | -56.8°C | 1.5% | 125.7hPa | 2.5V | 08:21:47 | 01:24:11 | 00:00:00 | |
| DO2JMG | 2026-09-04 07:56:58 | 52.64802 | 9.17017 | 103° | 73km/h | 15120m | -7.1m/s | -56.8°C | 1.6% | 124.7hPa | 2.5V | 08:22:38 | 01:24:06 | 00:00:00 | |
| HSKMA3-T | 2026-09-04 07:56:57 | 52.64807 | 9.16988 | 105° | 73km/h | 15127m | -6.9m/s | -56.8°C | 1.6% | 124.6hPa | 2.5V | 08:22:38 | 01:24:05 | 00:00:00 | |
| DF8AY | 2026-09-04 07:56:56 | 52.64811 | 9.16958 | 103° | 73km/h | 15134m | -6.6m/s | -56.8°C | 1.6% | 124.5hPa | 2.6V | 08:22:38 | 01:24:04 | 00:00:00 | |
| DM0DOS-11 | 2026-09-04 07:56:55 | 52.64832 | 9.16772 | 96° | 77km/h | 15175m | -8m/s | -56.4°C | 4.8% | 123.7hPa | 2.7V | 08:21:58 | 01:23:58 | 00:00:00 | |
| BIOWL1-15 | 2026-09-04 07:56:53 | 52.64823 | 9.16868 | 101° | 77km/h | 15154m | -6.2m/s | -56.4°C | 1.5% | 124hPa | 2.5V | 08:22:38 | 01:24:01 | 00:00:00 | |
| DL4XJ-10 | 2026-09-04 07:56:52 | 52.64827 | 9.16836 | 101° | 80km/h | 15161m | -6.5m/s | -56.9°C | 0% | 0hPa | 2.7V | 00:00:00 | 00:00:00 | 00:00:00 | |
| DN9WHV | 2026-09-04 07:56:51 | 52.64827 | 9.16836 | 101° | 78km/h | 15161m | -6.5m/s | -56.4°C | 1.9% | 124.0hPa | 2.7V | 08:22:00 | 00:00:00 | 00:00:00 | |
| DB0UT-7 | 2026-09-04 07:56:50 | 52.64832 | 9.16771 | 97° | 80km/h | 15175m | -8.0m/s | -56.4°C | 4.8% | 123.6hPa | 2.7V | 00:00:00 | 01:23:58 | 00:00:00 | |
| DL1XH1-15 | 2026-09-04 07:56:49 | 52.64840 | 9.16581 | 91° | 77km/h | 15228m | -7.6m/s | -56.4°C | 4.8% | 122.7hPa | 2.7V | 08:22:04 | 01:23:52 | 00:00:00 | |
| DO2JMG | 2026-09-04 07:56:48 | 52.64835 | 9.16708 | 95° | 78km/h | 15195m | -8.4m/s | -56.4°C | 1.5% | 123.3hPa | 2.5V | 08:22:38 | 01:23:56 | 00:00:00 | |
| HSKMA3-T | 2026-09-04 07:56:46 | 52.64838 | 9.16644 | 93° | 77km/h | 15211m | -7.7m/s | -56.4°C | 1.4% | 123hPa | 2.7V | 08:22:38 | 01:23:54 | 00:00:00 | |
| DF8AY | 2026-09-04 07:56:45 | 52.64839 | 9.16612 | 93° | 75km/h | 15219m | -9.3m/s | -56.5°C | 1.4% | 122.8hPa | 2.7V | 08:22:38 | 01:23:53 | 00:00:00 | |
| SO1NDE-10 | 2026-09-04 07:56:45 | 52.64839 | 9.16612 | 93° | 84km/h | 15219m | -9.2m/s | -56.4°C | 4.9% | 122.7hPa | 2.7V | 00:00:00 | 01:23:53 | 00:00:00 | |
| DL1NUX | 2026-09-04 07:56:44 | 52.64844 | 9.16418 | 97° | 84km/h | 15264m | -7.4m/s | -56.5°C | 4.8% | 121.9hPa | 2.7V | 08:22:09 | 01:23:47 | 00:00:00 | |
| DL1XH-west | 2026-09-04 07:56:43 | 52.64840 | 9.16549 | 91° | 75km/h | 15235m | -7.2m/s | -56.4°C | 1.4% | 122.5hPa | 2.5V | 08:22:38 | 01:23:51 | 00:00:00 | |
| AA1-15 | 2026-09-04 07:56:42 | 52.64840 | 9.16517 | 91° | 77km/h | 15242m | -7.4m/s | -56.4°C | 1.4% | 122.3hPa | 2.5V | 08:22:38 | 01:23:50 | 00:00:00 | |
| DO3DL | 2026-09-04 07:56:41 | 52.64840 | 9.16517 | 92° | 77km/h | 15242m | -7.4m/s | -56.4°C | 1.8% | 122.3hPa | 2.7V | 08:22:00 | 00:00:00 | 00:00:00 | |
| DB0DAN | 2026-09-04 07:56:40 | 52.64842 | 9.16452 | 94° | 77km/h | 15257m | -7.5m/s | -56.5°C | 1.8% | 122.04hPa | 2.7V | 00:00:00 | 00:00:00 | 00:00:00 | |
| D01LWL | 2026-09-04 07:56:40 | 52.64842 | 9.16452 | 94° | 78km/h | 15257m | -7.5m/s | -56.5°C | 1.8% | 122.0hPa | 2.7V | 00:00:00 | 00:00:00 | 00:00:00 | |
| DL1XH1-15 | 2026-09-04 07:56:39 | 52.64863 | 9.16244 | 102° | 84km/h | 15302m | -8.1m/s | -56.6°C | 4.8% | 121.2hPa | 2.7V | 08:22:14 | 01:23:42 | 00:00:00 | |
| DO2JMG | 2026-09-04 07:56:38 | 52.64847 | 9.16384 | 100° | 84km/h | 15272m | -7.2m/s | -56.5°C | 1.4% | 121.8hPa | 2.5V | 08:22:38 | 01:23:46 | 00:00:00 | |
| HSKMA3-T | 2026-09-04 07:56:36 | 52.64855 | 9.16313 | 101° | 86km/h | 15287m | -7.6m/s | -56.6°C | 1.3% | 121.5hPa | 2.6V | 08:22:38 | 01:23:44 | 00:00:00 | |
| DL1XH-15 | 2026-09-04 07:56:35 | 52.64878 | 9.16112 | 99° | 77km/h | 15332m | -7.5m/s | -56.8°C | 4.9% | 120.7hPa | 2.6V | 08:22:18 | 01:23:38 | 00:00:00 | |
| DF8AY | 2026-09-04 07:56:35 | 52.64859 | 9.16279 | 101° | 84km/h | 15294m | -7.5m/s | -56.6°C | 1.4% | 121.3hPa | 2.7V | 08:22:38 | 01:23:43 | 00:00:00 | |
| DL1XH-west | 2026-09-04 07:56:33 | 52.64867 | 9.16210 | 101° | 84km/h | 15310m | -7.8m/s | -56.7°C | 1.4% | 121.1hPa | 2.7V | 08:22:38 | 01:23:41 | 00:00:00 | |
| AA1-15 | 2026-09-04 07:56:32 | 52.64871 | 9.16176 | 100° | 80km/h | 15318m | -7.6m/s | -56.7°C | 1.4% | 120.9hPa | 2.5V | 08:22:38 | 01:23:40 | 00:00:00 | |
| DF8AY-15 | 2026-09-04 07:56:32 | 52.64871 | 9.16176 | 101° | 86km/h | 15318m | -7.5m/s | -56.7°C | 4.9% | 120.9hPa | 2.7V | 00:00:00 | 01:23:40 | 00:00:00 | |
| DO2LYB-13 | 2026-09-04 07:56:31 | 52.64871 | 9.16176 | 101° | 80km/h | 15318m | -7.6m/s | -56.7°C | 1.9% | 120.9hPa | 2.7V | 00:00:00 | 00:00:00 | 00:00:00 | |
| DN9WHV | 2026-09-04 07:56:30 | 52.64878 | 9.16112 | 101° | 77km/h | 15332m | -7.5m/s | -56.8°C | 1.8% | 120.7hPa | 2.7V | 08:22:00 | 00:00:00 | 00:00:00 | |
| DL1XH1-15 | 2026-09-04 07:56:29 | 52.64896 | 9.15917 | 97° | 86km/h | 15376m | -5.3m/s | -57.1°C | 5% | 119.8hPa | 2.7V | 08:22:24 | 01:23:32 | 00:00:00 | |
| DO2JMG | 2026-09-04 07:56:27 | 52.64888 | 9.16018 | 98° | 77km/h | 15354m | -8.1m/s | -57°C | 1.4% | 120.2hPa | 2.5V | 08:22:38 | 01:23:35 | 00:00:00 | |
| HSKMA3-T | 2026-09-04 07:56:26 | 52.64893 | 9.15952 | 98° | 82km/h | 15370m | -6.5m/s | -57.1°C | 1.5% | 119.9hPa | 2.7V | 08:22:38 | 01:23:33 | 00:00:00 | |
| DM0DOS-11 | 2026-09-04 07:56:25 | 52.64911 | 9.15772 | 101° | 89km/h | 15404m | -7m/s | -57.3°C | 5.1% | 119.2hPa | 2.7V | 08:22:28 | 01:23:28 | 00:00:00 | |
| DF8AY | 2026-09-04 07:56:24 | 52.64896 | 9.15917 | 98° | 86km/h | 15376m | -5.3m/s | -57.1°C | 1.4% | 119.8hPa | 2.7V | 08:22:38 | 01:23:32 | 00:00:00 | |
| DL1XH-west | 2026-09-04 07:56:22 | 52.64903 | 9.15845 | 99° | 88km/h | 15390m | -7.3m/s | -57.2°C | 1.4% | 119.5hPa | 2.6V | 08:22:38 | 01:23:30 | 00:00:00 | |
| AA1-15 | 2026-09-04 07:56:21 | 52.64906 | 9.15808 | 100° | 91km/h | 15397m | -6.6m/s | -57.3°C | 1.4% | 119.4hPa | 2.6V | 08:22:38 | 01:23:29 | 00:00:00 | |
| DO2SHX-10 | 2026-09-04 07:56:21 | 52.64906 | 9.15808 | 101° | 91km/h | 15397m | -6.5m/s | -57.2°C | 5.0% | 119.4hPa | 2.7V | 00:00:00 | 01:23:29 | 00:00:00 | |
| DF5WG-10 | 2026-09-04 07:56:20 | 52.64910 | 9.15771 | 102° | 78km/h | 15404m | -7.0m/s | -57.3°C | 5.1% | 119.2hPa | 2.7V | 00:00:00 | 01:23:28 | 00:00:00 | |
| DL1XH1-15 | 2026-09-04 07:56:19 | 52.64942 | 9.15552 | 103° | 89km/h | 15446m | -7.5m/s | -57.7°C | 5.4% | 118.5hPa | 2.7V | 08:22:34 | 01:23:22 | 00:00:00 | |
| DO2JMG | 2026-09-04 07:56:17 | 52.64926 | 9.15662 | 103° | 91km/h | 15425m | -8.1m/s | -57.5°C | 1.5% | 118.9hPa | 2.5V | 08:22:38 | 01:23:25 | 00:00:00 | |
| HSKMA3-T | 2026-09-04 07:56:16 | 52.64937 | 9.15588 | 104° | 89km/h | 15439m | -6.9m/s | -57.6°C | 1.6% | 118.6hPa | 2.6V | 08:22:38 | 01:23:23 | 00:00:00 | |
| DO2SHX-10 | 2026-09-04 07:56:15 | 52.64936 | 9.15588 | 104° | 89km/h | 15439m | -6.8m/s | -57.6°C | 5.4% | 118.6hPa | 2.6V | 08:22:00 | 01:23:23 | 00:00:00 | |
| DL1NUX | 2026-09-04 07:56:14 | 52.64966 | 9.15375 | 103° | 84km/h | 15484m | -8.3m/s | -57.4°C | 5.3% | 117.8hPa | 2.7V | 08:22:39 | 01:23:17 | 00:00:00 | |
| DF8AY | 2026-09-04 07:56:13 | 52.64947 | 9.15516 | 104° | 88km/h | 15453m | -7.6m/s | -57.7°C | 1.6% | 118.3hPa | 2.7V | 08:22:38 | 01:23:21 | 00:00:00 | |
| DL1XH-west | 2026-09-04 07:56:12 | 52.64952 | 9.15480 | 103° | 88km/h | 15461m | -8.4m/s | -57.7°C | 1.6% | 118.2hPa | 2.5V | 08:22:38 | 01:23:20 | 00:00:00 | |
| DO2SHX-10 | 2026-09-04 07:56:12 | 52.64952 | 9.15480 | 103° | 88km/h | 15462m | -8.3m/s | -57.6°C | 5.4% | 118.1hPa | 2.7V | 00:00:00 | 01:23:20 | 00:00:00 | |
| DC6BW-12 | 2026-09-04 07:56:11 | 52.64952 | 9.15480 | 104° | 88km/h | 15462m | -8.4m/s | -57.7°C | 2.0% | 118.2hPa | 2.7V | 08:22:00 | 00:00:00 | 00:00:00 | |
| DB0DAN | 2026-09-04 07:56:10 | 52.64961 | 9.15409 | 102° | 82km/h | 15477m | -6.6m/s | -57.6°C | 2% | 117.87hPa | 2.7V | 00:00:00 | 00:00:00 | 00:00:00 | |
| BIOWL1-15 | 2026-09-04 07:56:10 | 52.64961 | 9.15409 | 102° | 86km/h | 15477m | -6.6m/s | -57.6°C | 1.6% | 117.9hPa | 2.7V | 08:22:38 | 01:23:18 | 00:00:00 | |
| DO2JMG | 2026-09-04 07:56:06 | 52.64982 | 9.15277 | 106° | 78km/h | 15507m | -7.5m/s | -57.1°C | 1.4% | 117.3hPa | 2.5V | 08:23:29 | 01:23:14 | 00:00:00 | |
| HSKMA3-T | 2026-09-04 07:56:05 | 52.64987 | 9.15247 | 106° | 77km/h | 15515m | -7.8m/s | -57°C | 1.3% | 117.2hPa | 2.7V | 08:23:29 | 01:23:13 | 00:00:00 | |
| DJ2DS-15 | 2026-09-04 07:56:05 | 52.64987 | 9.15247 | 107° | 69km/h | 15515m | -7.8m/s | -56.9°C | 5.0% | 117.1hPa | 2.7V | 00:00:00 | 01:23:13 | 00:00:00 | |
| DL1NUX | 2026-09-04 07:56:04 | 52.65016 | 9.15070 | 101° | 69km/h | 15561m | -8.2m/s | -56.8°C | 4.8% | 116.4hPa | 2.7V | 08:22:49 | 01:23:07 | 00:00:00 | |
| DF8AY | 2026-09-04 07:56:03 | 52.64998 | 9.15187 | 107° | 75km/h | 15530m | -7.7m/s | -56.9°C | 1.3% | 116.9hPa | 2.7V | 08:23:29 | 01:23:11 | 00:00:00 | |
| DL1XH-west | 2026-09-04 07:56:01 | 52.65008 | 9.15128 | 104° | 71km/h | 15546m | -7.8m/s | -56.9°C | 1.3% | 116.6hPa | 2.5V | 08:23:29 | 01:23:09 | 00:00:00 | |
| AA1-15 | 2026-09-04 07:55:59 | 52.65016 | 9.15070 | 101° | 69km/h | 15561m | -8.3m/s | -56.8°C | 1.2% | 116.4hPa | 2.7V | 08:23:29 | 01:23:07 | 00:00:00 | |
| DO2JMG | 2026-09-04 07:55:56 | 52.65025 | 9.14986 | 98° | 68km/h | 15585m | -8.2m/s | -56.7°C | 1.2% | 115.9hPa | 2.5V | 08:23:29 | 01:23:04 | 00:00:00 | |
| DB0DAN | 2026-09-04 07:55:55 | 52.65027 | 9.14958 | 97° | 64km/h | 15593m | -8.3m/s | -56.6°C | 1.7% | 115.74hPa | 2.6V | 00:00:00 | 00:00:00 | 00:00:00 | |
| DM0DOS-11 | 2026-09-04 07:55:55 | 52.65041 | 9.14824 | 103° | 68km/h | 15631m | -7.8m/s | -56.7°C | 4.9% | 115.1hPa | 2.6V | 08:22:58 | 01:22:58 | 00:00:00 | |
| HSKMA3-T | 2026-09-04 07:55:54 | 52.65029 | 9.14931 | 97° | 66km/h | 15601m | -7m/s | -56.7°C | 1.3% | 115.6hPa | 2.7V | 08:23:29 | 01:23:02 | 00:00:00 | |
| DF8AY | 2026-09-04 07:55:52 | 52.65034 | 9.14878 | 101° | 66km/h | 15616m | -6.7m/s | -56.6°C | 1.2% | 115.3hPa | 2.7V | 08:23:29 | 01:23:00 | 00:00:00 | |
| BIOWL1-15 | 2026-09-04 07:55:50 | 52.65050 | 9.14771 | 105° | 66km/h | 15646m | -6.8m/s | -56.8°C | 1.3% | 114.8hPa | 2.7V | 08:23:29 | 01:22:56 | 00:00:00 | |
| DL1XH-west | 2026-09-04 07:55:50 | 52.65041 | 9.14824 | 104° | 68km/h | 15631m | -7.8m/s | -56.7°C | 1.2% | 115.1hPa | 2.6V | 08:23:29 | 01:22:58 | 00:00:00 | |
| AA1-15 | 2026-09-04 07:55:49 | 52.65045 | 9.14798 | 105° | 66km/h | 15639m | -8m/s | -56.7°C | 1.3% | 114.9hPa | 2.6V | 08:23:29 | 01:22:57 | 00:00:00 | |
| DO2JMG | 2026-09-04 07:55:45 | 52.65063 | 9.14695 | 106° | 62km/h | 15668m | -7.1m/s | -57°C | 1.3% | 114.4hPa | 2.5V | 08:23:29 | 01:22:53 | 00:00:00 | |
| HSKMA3-T | 2026-09-04 07:55:45 | 52.65067 | 9.14670 | 105° | 62km/h | 15676m | -7.8m/s | -56.9°C | 1.4% | 114.2hPa | 2.5V | 08:23:29 | 01:22:52 | 00:00:00 | |
| DF8AY | 2026-09-04 07:55:41 | 52.65080 | 9.14595 | 107° | 62km/h | 15698m | -7.7m/s | -56.3°C | 1.2% | 113.8hPa | 2.7V | 08:23:29 | 01:22:49 | 00:00:00 | |
| DL1XH-west | 2026-09-04 07:55:39 | 52.65089 | 9.14545 | 107° | 64km/h | 15714m | -7.8m/s | -56.2°C | 1.2% | 113.6hPa | 2.5V | 08:23:29 | 01:22:47 | 00:00:00 | |
| BIOWL1-15 | 2026-09-04 07:55:38 | 52.65093 | 9.14520 | 108° | 64km/h | 15721m | -7.2m/s | -56.2°C | 1.2% | 113.4hPa | 2.6V | 08:23:29 | 01:22:46 | 00:00:00 | |
| DO2JMG | 2026-09-04 07:55:35 | 52.65107 | 9.14446 | 105° | 60km/h | 15745m | -7.9m/s | -56.2°C | 1.1% | 113hPa | 2.7V | 08:23:29 | 01:22:43 | 00:00:00 | |
| HSKMA3-T | 2026-09-04 07:55:33 | 52.65114 | 9.14398 | 103° | 60km/h | 15762m | -8.3m/s | -55.9°C | 1% | 112.8hPa | 2.6V | 08:23:29 | 01:22:41 | 00:00:00 | |
| DF8AY | 2026-09-04 07:55:31 | 52.65120 | 9.14350 | 102° | 60km/h | 15777m | -7.6m/s | -55.7°C | 0.9% | 112.4hPa | 2.7V | 08:23:29 | 01:22:39 | 00:00:00 | |
| DL1XH-west | 2026-09-04 07:55:28 | 52.65127 | 9.14274 | 99° | 62km/h | 15802m | -8.1m/s | -55.6°C | 0.9% | 112hPa | 2.5V | 08:23:29 | 01:22:36 | 00:00:00 | |
| BIOWL1-15 | 2026-09-04 07:55:27 | 52.65130 | 9.14248 | 97° | 64km/h | 15810m | -8.4m/s | -55.6°C | 0.9% | 111.9hPa | 2.5V | 08:23:29 | 01:22:35 | 00:00:00 | |
| DD8BA-10 | 2026-09-04 07:55:27 | 52.65130 | 9.14248 | 98° | 64km/h | 15810m | -8.3m/s | -55.6°C | 4.4% | 111.8hPa | 2.5V | 00:00:00 | 00:00:00 | 00:00:00 | |
| DN9WHV | 2026-09-04 07:55:26 | 52.65129 | 9.14248 | 98° | 64km/h | 15810m | -8.4m/s | -55.6°C | 1.5% | 111.9hPa | 2.6V | 08:23:00 | 00:00:00 | 00:00:00 | |
| DB0DAN | 2026-09-04 07:55:25 | 52.65133 | 9.14195 | 96° | 60km/h | 15826m | -7.3m/s | -55.6°C | 1.5% | 111.61hPa | 2.6V | 00:00:00 | 00:00:00 | 00:00:00 | |
| DJ2DS-15 | 2026-09-04 07:55:25 | 52.65133 | 9.14195 | 97° | 62km/h | 15826m | -7.2m/s | -55.6°C | 4.5% | 111.6hPa | 2.6V | 00:00:00 | 01:22:33 | 00:00:00 | |
| DL1NUX | 2026-09-04 07:55:24 | 52.65142 | 9.14039 | 94° | 62km/h | 15871m | -7.2m/s | -55.8°C | 4.5% | 110.8hPa | 2.6V | 08:23:29 | 01:22:27 | 00:00:00 | |
| DO2JMG | 2026-09-04 07:55:24 | 52.65135 | 9.14169 | 96° | 64km/h | 15833m | -8.5m/s | -55.6°C | 0.9% | 111.4hPa | 2.7V | 08:23:29 | 01:22:32 | 00:00:00 | |
| HSKMA3-T | 2026-09-04 07:55:23 | 52.65137 | 9.14142 | 96° | 64km/h | 15842m | -7.9m/s | -55.6°C | 0.9% | 111.3hPa | 2.7V | 08:23:29 | 01:22:31 | 00:00:00 | |
| DF8AY | 2026-09-04 07:55:21 | 52.65140 | 9.14090 | 96° | 62km/h | 15857m | -7m/s | -55.8°C | 0.9% | 111hPa | 2.5V | 08:23:29 | 01:22:29 | 00:00:00 | |
| BIOWL1-15 | 2026-09-04 07:55:18 | 52.65146 | 9.13962 | 94° | 62km/h | 15892m | -8.2m/s | -55.9°C | 0.9% | 110.4hPa | 2.7V | 08:24:20 | 01:22:24 | 00:00:00 | |
| DL1XH-west | 2026-09-04 07:55:18 | 52.65144 | 9.14013 | 95° | 62km/h | 15878m | -7.6m/s | -55.8°C | 0.9% | 110.7hPa | 2.7V | 08:24:20 | 01:22:26 | 00:00:00 | |
| GOEST3-10 | 2026-09-04 07:55:18 | 52.65144 | 9.14013 | 95° | 62km/h | 15878m | -7.6m/s | -55.8°C | 4.5% | 110.6hPa | 2.6V | 00:00:00 | 00:00:00 | 00:00:00 | |
| DL1XH1-15 | 2026-09-04 07:55:17 | 52.65149 | 9.13911 | 94° | 62km/h | 15907m | -7.2m/s | -55.8°C | 4.5% | 110.1hPa | 2.6V | 08:23:34 | 01:22:22 | 00:00:00 | |
| DD8BA-10 | 2026-09-04 07:55:17 | 52.65145 | 9.13988 | 95° | 60km/h | 15885m | -5.7m/s | -55.8°C | 4.4% | 110.5hPa | 2.5V | 00:00:00 | 00:00:00 | 00:00:00 | |
| HTAHTA | 2026-09-04 07:55:16 | 52.65147 | 9.13936 | 94° | 60km/h | 15900m | -7.1m/s | -55.9°C | 1.5% | 110.2hPa | 2.5V | 00:00:00 | 00:00:00 | 00:00:00 | |
| DM0DOS-11 | 2026-09-04 07:55:15 | 52.65155 | 9.13811 | 96° | 60km/h | 15934m | -5.3m/s | -55.9°C | 4.5% | 109.7hPa | 2.5V | 08:23:38 | 01:22:18 | 00:00:00 | |
| DO2JMG | 2026-09-04 07:55:14 | 52.65149 | 9.13911 | 95° | 62km/h | 15907m | -7.2m/s | -55.8°C | 0.9% | 110.1hPa | 2.6V | 08:24:20 | 01:22:22 | 00:00:00 | |
| HSKMA3-T | 2026-09-04 07:55:13 | 52.65150 | 9.13886 | 95° | 60km/h | 15914m | -7.3m/s | -55.9°C | 0.9% | 110hPa | 2.6V | 08:24:20 | 01:22:21 | 00:00:00 | |
| DF8AY | 2026-09-04 07:55:11 | 52.65153 | 9.13835 | 96° | 60km/h | 15929m | -6.2m/s | -56°C | 1% | 109.7hPa | 2.7V | 08:24:20 | 01:22:19 | 00:00:00 | |
| DL1XH-west | 2026-09-04 07:55:08 | 52.65157 | 9.13761 | 93° | 58km/h | 15945m | -6.8m/s | -56°C | 0.8% | 109.5hPa | 2.6V | 08:24:20 | 01:22:16 | 00:00:00 | |
| GOEST3-10 | 2026-09-04 07:55:08 | 52.65157 | 9.13761 | 94° | 58km/h | 15945m | -6.8m/s | -55.9°C | 4.4% | 109.4hPa | 2.6V | 08:23:00 | 00:00:00 | 00:00:00 | |
| DL1XH1-15 | 2026-09-04 07:55:07 | 52.65156 | 9.13665 | 84° | 58km/h | 15976m | -6.4m/s | -55.7°C | 4.4% | 108.9hPa | 2.6V | 08:23:44 | 01:22:12 | 00:00:00 | |
| DD8BA-10 | 2026-09-04 07:55:07 | 52.65158 | 9.13737 | 92° | 60km/h | 15952m | -6.7m/s | -55.9°C | 4.4% | 109.3hPa | 2.7V | 00:00:00 | 00:00:00 | 00:00:00 | |
| DO2SHX-10 | 2026-09-04 07:55:06 | 52.65158 | 9.13713 | 89° | 58km/h | 15960m | -8.4m/s | -55.8°C | 4.3% | 109.2hPa | 2.7V | 00:00:00 | 01:22:14 | 00:00:00 | |
| DM0DOS-11 | 2026-09-04 07:55:05 | 52.65152 | 9.13565 | 89° | 62km/h | 15998m | -6.2m/s | -55.7°C | 4.5% | 108.5hPa | 2.7V | 08:23:48 | 01:22:08 | 00:00:00 | |
| BIOWL1-15 | 2026-09-04 07:55:05 | 52.65157 | 9.13689 | 86° | 58km/h | 15968m | -8.6m/s | -55.6°C | 0.8% | 109.1hPa | 2.7V | 08:24:20 | 01:22:13 | 00:00:00 | |
| DJ2DS-15 | 2026-09-04 07:55:05 | 52.65157 | 9.13689 | 86° | 58km/h | 15968m | -8.5m/s | -55.6°C | 4.3% | 109.1hPa | 2.7V | 00:00:00 | 01:22:13 | 00:00:00 | |
| DL1NUX | 2026-09-04 07:55:04 | 52.65152 | 9.13539 | 91° | 64km/h | 16004m | -6.9m/s | -55.8°C | 4.5% | 108.5hPa | 2.7V | 08:23:49 | 01:22:07 | 00:00:00 | |
| DO2JMG | 2026-09-04 07:55:04 | 52.65156 | 9.13665 | 85° | 58km/h | 15976m | -6.4m/s | -55.7°C | 0.8% | 108.9hPa | 2.6V | 08:24:20 | 01:22:12 | 00:00:00 | |
| HSKMA3-T | 2026-09-04 07:55:03 | 52.65153 | 9.13616 | 86° | 60km/h | 15987m | -4.8m/s | -55.6°C | 0.8% | 108.7hPa | 2.6V | 08:24:20 | 01:22:10 | 00:00:00 | |
| DF8AY | 2026-09-04 07:55:01 | 52.65153 | 9.13591 | 88° | 62km/h | 15992m | -5.5m/s | -55.6°C | 0.8% | 108.7hPa | 2.7V | 08:24:20 | 01:22:09 | 00:00:00 | |
| EDDB2-12 | 2026-09-04 07:55:01 | 52.65152 | 9.13565 | 89° | 62km/h | 15998m | -6.2m/s | -55.7°C | 1.5% | 108.5hPa | 2.7V | 00:00:00 | 00:00:00 | 00:00:00 | |
| DO3DL | 2026-09-04 07:54:59 | 52.65152 | 9.13565 | 90° | 62km/h | 15998m | -6.2m/s | -55.7°C | 1.5% | 108.6hPa | 2.7V | 08:24:00 | 00:00:00 | 00:00:00 | |
| DO2SHX-10 | 2026-09-04 07:54:58 | 52.65153 | 9.13512 | 93° | 64km/h | 16011m | -6.2m/s | -55.7°C | 4.5% | 108.3hPa | 2.7V | 00:00:00 | 01:22:06 | 00:00:00 | |
| DL1XH1-15 | 2026-09-04 07:54:57 | 52.65157 | 9.13408 | 94° | 60km/h | 16038m | -7.9m/s | -56°C | 4.5% | 107.9hPa | 2.7V | 08:23:54 | 01:22:02 | 00:00:00 | |
| DL1XH-west | 2026-09-04 07:54:57 | 52.65154 | 9.13486 | 93° | 64km/h | 16017m | -6.1m/s | -55.9°C | 0.9% | 108.2hPa | 2.6V | 08:24:20 | 01:22:05 | 00:00:00 | |
| SONDE2-11 | 2026-09-04 07:54:57 | 52.65154 | 9.13459 | 93° | 62km/h | 16023m | -6.3m/s | -55.9°C | 1.5% | 108.1hPa | 2.7V | 00:00:00 | 00:00:00 | 00:00:00 | |
| DL3AQ-11 | 2026-09-04 07:54:56 | 52.65155 | 9.13433 | 93° | 62km/h | 16031m | -7.9m/s | -56.0°C | 1.5% | 108.0hPa | 2.7V | 00:00:00 | 00:00:00 | 00:00:00 | |
| DB0DAN | 2026-09-04 07:54:55 | 52.65155 | 9.13433 | 93° | 60km/h | 16030m | -7.9m/s | -56°C | 1.5% | 108.05hPa | 2.7V | 00:00:00 | 00:00:00 | 00:00:00 | |
| BIOWL1-15 | 2026-09-04 07:54:55 | 52.65155 | 9.13433 | 93° | 62km/h | 16031m | -7.9m/s | -56°C | 0.8% | 108hPa | 2.7V | 08:24:20 | 01:22:03 | 00:00:00 | |
| DO2SHX-10 | 2026-09-04 07:54:55 | 52.65155 | 9.13433 | 94° | 60km/h | 16031m | -7.8m/s | -55.9°C | 4.5% | 108.0hPa | 2.7V | 00:00:00 | 01:22:03 | 00:00:00 | |
| DL1NUX | 2026-09-04 07:54:54 | 52.65162 | 9.13293 | 94° | 53km/h | 16075m | -8.6m/s | -55.8°C | 4.4% | 107.3hPa | 2.7V | 08:23:59 | 01:21:57 | 00:00:00 | |
| DO2JMG | 2026-09-04 07:54:53 | 52.65157 | 9.13383 | 94° | 58km/h | 16046m | -7.5m/s | -56°C | 0.9% | 107.8hPa | 2.5V | 08:24:20 | 01:22:01 | 00:00:00 | |
| HSKMA3-T | 2026-09-04 07:54:51 | 52.65160 | 9.13337 | 95° | 55km/h | 16060m | -6m/s | -55.8°C | 0.8% | 107.5hPa | 2.6V | 08:24:20 | 01:21:59 | 00:00:00 | |
| DF8AY | 2026-09-04 07:54:50 | 52.65161 | 9.13315 | 95° | 53km/h | 16067m | -7m/s | -55.9°C | 0.7% | 107.4hPa | 2.7V | 08:24:20 | 01:21:58 | 00:00:00 | |
| DL1XH-west | 2026-09-04 07:54:47 | 52.65165 | 9.13227 | 95° | 57km/h | 16099m | -8m/s | -55.9°C | 0.8% | 106.9hPa | 2.6V | 08:24:20 | 01:21:54 | 00:00:00 | |
| BIOWL1-15 | 2026-09-04 07:54:45 | 52.65166 | 9.13202 | 94° | 60km/h | 16107m | -7.9m/s | -55.9°C | 0.8% | 106.7hPa | 2.6V | 08:24:20 | 01:21:53 | 00:00:00 | |
| HTAHTA | 2026-09-04 07:54:45 | 52.65167 | 9.13177 | 93° | 62km/h | 16114m | -6.4m/s | -55.9°C | 1.5% | 106.6hPa | 2.6V | 00:00:00 | 00:00:00 | 00:00:00 | |
| DL1NUX | 2026-09-04 07:54:44 | 52.65169 | 9.13045 | 87° | 64km/h | 16147m | -5.6m/s | -55.6°C | 4.6% | 106hPa | 2.6V | 08:24:09 | 01:21:47 | 00:00:00 | |
| DO2JMG | 2026-09-04 07:54:42 | 52.65169 | 9.13125 | 92° | 64km/h | 16127m | -7.3m/s | -55.9°C | 0.9% | 106.4hPa | 2.7V | 08:24:20 | 01:21:50 | 00:00:00 | |
| DO2SHX-10 | 2026-09-04 07:54:42 | 52.65169 | 9.13125 | 92° | 64km/h | 16127m | -7.2m/s | -55.8°C | 4.6% | 106.4hPa | 2.5V | 00:00:00 | 01:21:50 | 00:00:00 | |
| DL1XH-15 | 2026-09-04 07:54:41 | 52.65166 | 9.12969 | 84° | 60km/h | 16171m | -8.3m/s | -55.4°C | 4.4% | 105.7hPa | 2.5V | 08:24:12 | 01:21:44 | 00:00:00 | |
| HSKMA3-T | 2026-09-04 07:54:41 | 52.65170 | 9.13072 | 90° | 64km/h | 16142m | -5.8m/s | -55.7°C | 0.9% | 106.1hPa | 2.5V | 08:24:20 | 01:21:48 | 00:00:00 | |
| DB0DAN | 2026-09-04 07:54:40 | 52.65170 | 9.13072 | 89° | 60km/h | 16142m | -5.8m/s | -55.7°C | 1.5% | 106.13hPa | 2.5V | 00:00:00 | 00:00:00 | 00:00:00 | |
| DB0DAN | 2026-09-04 07:54:40 | 52.65169 | 9.13045 | 88° | 60km/h | 16147m | -5.6m/s | -55.6°C | 1.5% | 106.04hPa | 2.6V | 00:00:00 | 00:00:00 | 00:00:00 | |
| DF8AY | 2026-09-04 07:54:39 | 52.65169 | 9.13045 | 88° | 64km/h | 16147m | -5.6m/s | -55.6°C | 0.9% | 106hPa | 2.6V | 08:24:20 | 01:21:47 | 00:00:00 | |
| BIOWL1-15 | 2026-09-04 07:54:38 | 52.65164 | 9.12921 | 88° | 58km/h | 16187m | -8m/s | -55.4°C | 0.7% | 105.4hPa | 2.6V | 08:24:20 | 01:21:42 | 00:00:00 | |
| AA1-15 | 2026-09-04 07:54:36 | 52.65166 | 9.12969 | 85° | 60km/h | 16171m | -8.3m/s | -55.4°C | 0.8% | 105.7hPa | 2.5V | 08:24:20 | 01:21:44 | 00:00:00 | |
| DL1XH-west | 2026-09-04 07:54:35 | 52.65165 | 9.12945 | 86° | 58km/h | 16179m | -7.5m/s | -55.4°C | 0.8% | 105.5hPa | 2.6V | 08:24:20 | 01:21:43 | 00:00:00 | |
| DL1NUX | 2026-09-04 07:54:34 | 52.65163 | 9.12788 | 93° | 71km/h | 16228m | -8.3m/s | -55.5°C | 4.5% | 104.7hPa | 2.5V | 08:24:19 | 01:21:37 | 00:00:00 | |
| DO2JMG | 2026-09-04 07:54:32 | 52.65163 | 9.12871 | 89° | 62km/h | 16203m | -8.4m/s | -55.5°C | 0.8% | 105.1hPa | 2.7V | 08:24:20 | 01:21:40 | 00:00:00 | |
| DL3AQ-11 | 2026-09-04 07:54:32 | 52.65163 | 9.12845 | 89° | 64km/h | 16212m | -8.2m/s | -55.5°C | 1.4% | 105.0hPa | 2.7V | 00:00:00 | 00:00:00 | 00:00:00 | |
| DL1XH-15 | 2026-09-04 07:54:31 | 52.65169 | 9.12696 | 97° | 77km/h | 16251m | -7.5m/s | -55.2°C | 4.5% | 104.3hPa | 2.7V | 08:24:22 | 01:21:34 | 00:00:00 | |
| HSKMA3-T | 2026-09-04 07:54:30 | 52.65163 | 9.12817 | 91° | 68km/h | 16220m | -8.2m/s | -55.5°C | 0.8% | 104.9hPa | 2.5V | 08:24:20 | 01:21:38 | 00:00:00 | |
| DN9WHV | 2026-09-04 07:54:30 | 52.65162 | 9.12817 | 92° | 68km/h | 16220m | -8.2m/s | -55.5°C | 1.4% | 104.9hPa | 2.5V | 08:24:00 | 00:00:00 | 00:00:00 | |
| DL1XH1-15 | 2026-09-04 07:54:29 | 52.65173 | 9.12631 | 96° | 78km/h | 16267m | -8.2m/s | -54.9°C | 4.3% | 104.1hPa | 2.5V | 08:24:24 | 01:21:32 | 00:00:00 | |
| DF8AY | 2026-09-04 07:54:28 | 52.65165 | 9.12758 | 95° | 73km/h | 16236m | -8m/s | -55.4°C | 0.8% | 104.6hPa | 2.6V | 08:24:20 | 01:21:36 | 00:00:00 | |
| DL1XH-west | 2026-09-04 07:54:25 | 52.65171 | 9.12663 | 97° | 78km/h | 16259m | -8.4m/s | -55°C | 0.7% | 104.2hPa | 2.7V | 08:25:11 | 01:21:33 | 00:00:00 | |
| BIOWL1-15 | 2026-09-04 07:54:24 | 52.65174 | 9.12631 | 97° | 78km/h | 16267m | -8.2m/s | -54.9°C | 0.7% | 104.1hPa | 2.5V | 08:25:11 | 01:21:32 | 00:00:00 | |
| DO2JMG | 2026-09-04 07:54:22 | 52.65178 | 9.12567 | 96° | 75km/h | 16284m | -8.1m/s | -54.8°C | 0.7% | 103.8hPa | 2.6V | 08:25:11 | 01:21:30 | 00:00:00 | |
| DL1XH-15 | 2026-09-04 07:54:21 | 52.65194 | 9.12392 | 101° | 71km/h | 16335m | -8.5m/s | -54.5°C | 4.2% | 103hPa | 2.7V | 08:24:32 | 01:21:24 | 00:00:00 | |
| HSKMA3-T | 2026-09-04 07:54:19 | 52.65184 | 9.12478 | 98° | 69km/h | 16309m | -8.4m/s | -54.8°C | 0.7% | 103.4hPa | 2.5V | 08:25:11 | 01:21:27 | 00:00:00 | |
| DF8AY | 2026-09-04 07:54:19 | 52.65187 | 9.12449 | 100° | 71km/h | 16317m | -8.3m/s | -54.7°C | 0.7% | 103.2hPa | 2.5V | 08:25:11 | 01:21:26 | 00:00:00 | |
| BIOWL1-15 | 2026-09-04 07:54:14 | 52.65201 | 9.12333 | 102° | 73km/h | 16352m | -9.2m/s | -54.5°C | 0.6% | 102.7hPa | 2.7V | 08:25:11 | 01:21:22 | 00:00:00 | |
| DO2JMG | 2026-09-04 07:54:12 | 52.65209 | 9.12275 | 102° | 71km/h | 16369m | -8.3m/s | -54.3°C | 0.5% | 102.4hPa | 2.6V | 08:25:11 | 01:21:20 | 00:00:00 | |
| DL4XJ-10 | 2026-09-04 07:54:12 | 52.65209 | 9.12275 | 102° | 66km/h | 16369m | -8.2m/s | -54.8°C | 0% | 0hPa | 2.6V | 00:00:00 | 00:00:00 | 00:00:00 | |
| DL1XH-15 | 2026-09-04 07:54:11 | 52.65231 | 9.12108 | 102° | 66km/h | 16417m | -8m/s | -54.3°C | 4.1% | 101.6hPa | 2.6V | 08:24:42 | 01:21:14 | 00:00:00 | |
| DB0DAN | 2026-09-04 07:54:10 | 52.65216 | 9.12218 | 102° | 68km/h | 16386m | -7.7m/s | -54.3°C | 1.3% | 102.11hPa | 2.7V | 00:00:00 | 00:00:00 | 00:00:00 | |
| HSKMA3-T | 2026-09-04 07:54:10 | 52.65220 | 9.12190 | 103° | 69km/h | 16393m | -6.5m/s | -54.3°C | 0.6% | 102hPa | 2.7V | 08:25:11 | 01:21:17 | 00:00:00 | |
| DL1XH1-15 | 2026-09-04 07:54:09 | 52.65238 | 9.12054 | 102° | 66km/h | 16433m | -7.6m/s | -54.3°C | 4.2% | 101.4hPa | 2.7V | 08:24:44 | 01:21:12 | 00:00:00 | |
| DF8AY | 2026-09-04 07:54:07 | 52.65227 | 9.12135 | 103° | 66km/h | 16409m | -8.1m/s | -54.3°C | 0.6% | 101.8hPa | 2.6V | 08:25:11 | 01:21:15 | 00:00:00 | |
| DD8BA-10 | 2026-09-04 07:54:07 | 52.65227 | 9.12135 | 104° | 66km/h | 16409m | -8.0m/s | -54.2°C | 4.1% | 101.7hPa | 2.6V | 00:00:00 | 00:00:00 | 00:00:00 | |
| DO3DL | 2026-09-04 07:54:06 | 52.65227 | 9.12135 | 104° | 66km/h | 16409m | -8.1m/s | -54.3°C | 1.3% | 101.8hPa | 2.6V | 08:25:00 | 00:00:00 | 00:00:00 | |
| DM0DOS-11 | 2026-09-04 07:54:05 | 52.65252 | 9.11948 | 100° | 64km/h | 16457m | -7.6m/s | -54.4°C | 4.2% | 101hPa | 2.6V | 08:24:48 | 01:21:08 | 00:00:00 | |
| DL1XH-west | 2026-09-04 07:54:04 | 52.65238 | 9.12054 | 103° | 66km/h | 16433m | -7.6m/s | -54.3°C | 0.7% | 101.4hPa | 2.7V | 08:25:11 | 01:21:12 | 00:00:00 | |
| AA1-15 | 2026-09-04 07:54:03 | 52.65242 | 9.12027 | 102° | 66km/h | 16439m | -4.5m/s | -54.3°C | 0.7% | 101.3hPa | 2.7V | 08:25:11 | 01:21:11 | 00:00:00 | |
| DO2JMG | 2026-09-04 07:54:01 | 52.65248 | 9.11974 | 101° | 64km/h | 16450m | -6.4m/s | -54.4°C | 0.6% | 101.1hPa | 2.6V | 08:25:11 | 01:21:09 | 00:00:00 | |
| HSKMA3-T | 2026-09-04 07:53:59 | 52.65258 | 9.11897 | 102° | 62km/h | 16472m | -8.6m/s | -54.3°C | 0.6% | 100.8hPa | 2.7V | 08:25:11 | 01:21:06 | 00:00:00 | |
| DL1XH1-15 | 2026-09-04 07:53:59 | 52.65276 | 9.11794 | 108° | 68km/h | 16503m | -7.3m/s | -54.2°C | 4.1% | 100.3hPa | 2.6V | 08:24:54 | 01:21:02 | 00:00:00 | |
| DF8AY | 2026-09-04 07:53:57 | 52.65262 | 9.11871 | 104° | 62km/h | 16481m | -7.5m/s | -54.3°C | 0.6% | 100.6hPa | 2.7V | 08:25:11 | 01:21:05 | 00:00:00 | |
| AU51GT2 | 2026-09-04 07:53:56 | 52.65266 | 9.11846 | 105° | 62km/h | 16488m | -7.7m/s | -54.3°C | 1.3% | 100.5hPa | 2.5V | 00:00:00 | 00:00:00 | 00:00:00 | |
| DM0DOS-11 | 2026-09-04 07:53:55 | 52.65300 | 9.11680 | 108° | 75km/h | 16534m | -9.1m/s | -54.1°C | 4.2% | 99.8hPa | 2.5V | 08:24:58 | 01:20:58 | 00:00:00 | |
| DL1NUX | 2026-09-04 07:53:54 | 52.65306 | 9.11650 | 108° | 75km/h | 16543m | -8m/s | -54.2°C | 4.2% | 99.7hPa | 2.6V | 08:24:59 | 01:20:57 | 00:00:00 | |
| DL1XH-west | 2026-09-04 07:53:54 | 52.65276 | 9.11794 | 109° | 68km/h | 16503m | -7.3m/s | -54.2°C | 0.6% | 100.3hPa | 2.6V | 08:25:11 | 01:21:02 | 00:00:00 | |
| AA1-15 | 2026-09-04 07:53:53 | 52.65281 | 9.11767 | 108° | 71km/h | 16510m | -6.7m/s | -54.2°C | 0.5% | 100.2hPa | 2.7V | 08:25:11 | 01:21:01 | 00:00:00 | |
| DL3AQ-11 | 2026-09-04 07:53:52 | 52.65293 | 9.11710 | 109° | 75km/h | 16526m | -8.0m/s | -54.1°C | 1.2% | 100.0hPa | 2.7V | 00:00:00 | 00:00:00 | 00:00:00 | |
| DL1XH-15 | 2026-09-04 07:53:51 | 52.65320 | 9.11563 | 103° | 69km/h | 16568m | -8.9m/s | -54.2°C | 4.1% | 99.3hPa | 2.7V | 08:25:02 | 01:20:54 | 00:00:00 | |
| DO2JMG | 2026-09-04 07:53:51 | 52.65293 | 9.11710 | 109° | 77km/h | 16526m | -8m/s | -54.1°C | 0.5% | 100hPa | 2.7V | 08:25:11 | 01:20:59 | 00:00:00 | |
| DF5WG-10 | 2026-09-04 07:53:51 | 52.65293 | 9.11710 | 110° | 64km/h | 16526m | -8.0m/s | -54.1°C | 4.1% | 100.0hPa | 2.5V | 00:00:00 | 01:20:59 | 00:00:00 | |
| DB0UT-7 | 2026-09-04 07:53:50 | 52.65299 | 9.11680 | 109° | 58km/h | 16534m | -9.0m/s | -54.1°C | 4.2% | 99.8hPa | 2.5V | 08:24:00 | 01:20:58 | 00:00:00 | |
| DL1XH1-15 | 2026-09-04 07:53:49 | 52.65327 | 9.11510 | 100° | 64km/h | 16584m | -8.7m/s | -54.2°C | 4.1% | 99.1hPa | 2.6V | 08:25:04 | 01:20:52 | 00:00:00 | |
| HSKMA3-T | 2026-09-04 07:53:47 | 52.65316 | 9.11591 | 104° | 71km/h | 16559m | -8.4m/s | -54.2°C | 0.6% | 99.4hPa | 2.7V | 08:25:11 | 01:20:55 | 00:00:00 | |
| DF8AY | 2026-09-04 07:53:46 | 52.65320 | 9.11563 | 103° | 69km/h | 16568m | -8.9m/s | -54.2°C | 0.6% | 99.3hPa | 2.7V | 08:25:11 | 01:20:54 | 00:00:00 | |
| DO9LL-15 | 2026-09-04 07:53:45 | 52.65324 | 9.11536 | 100° | 55km/h | 16576m | -7.6m/s | -54.1°C | 4.1% | 99.1hPa | 2.6V | 00:00:00 | 01:20:53 | 00:00:00 | |
| DL1NUX | 2026-09-04 07:53:44 | 52.65339 | 9.11384 | 100° | 62km/h | 16626m | -8.8m/s | -54.1°C | 4% | 98.4hPa | 2.6V | 08:25:09 | 01:20:47 | 00:00:00 | |
| DL1XH-west | 2026-09-04 07:53:43 | 52.65329 | 9.11484 | 99° | 62km/h | 16593m | -8.7m/s | -54.2°C | 0.5% | 98.9hPa | 2.6V | 08:25:11 | 01:20:51 | 00:00:00 | |
| BIOWL1-15 | 2026-09-04 07:53:42 | 52.65332 | 9.11459 | 98° | 60km/h | 16602m | -8m/s | -54.1°C | 0.5% | 98.8hPa | 2.7V | 08:25:11 | 01:20:50 | 00:00:00 | |
| DO2SHX-10 | 2026-09-04 07:53:42 | 52.65332 | 9.11459 | 98° | 60km/h | 16602m | -8.0m/s | -54.1°C | 4.0% | 98.7hPa | 2.7V | 00:00:00 | 01:20:50 | 00:00:00 | |
| DL1XH-15 | 2026-09-04 07:53:41 | 52.65347 | 9.11310 | 101° | 60km/h | 16652m | -7.7m/s | -54°C | 4.1% | 98hPa | 2.7V | 08:25:12 | 01:20:44 | 00:00:00 | |
| DO2JMG | 2026-09-04 07:53:40 | 52.65336 | 9.11409 | 98° | 60km/h | 16618m | -8.5m/s | -54.1°C | 0.5% | 98.6hPa | 2.7V | 08:25:11 | 01:20:48 | 00:00:00 | |
| DL1XH1-15 | 2026-09-04 07:53:39 | 52.65353 | 9.11261 | 101° | 58km/h | 16668m | -8.1m/s | -53.7°C | 4% | 97.8hPa | 2.7V | 08:25:14 | 01:20:42 | 00:00:00 | |
| HSKMA3-T | 2026-09-04 07:53:37 | 52.65344 | 9.11334 | 101° | 60km/h | 16644m | -7.9m/s | -54.1°C | 0.5% | 98.2hPa | 2.6V | 08:25:11 | 01:20:45 | 00:00:00 | |
| DO2SHX-10 | 2026-09-04 07:53:37 | 52.65344 | 9.11334 | 101° | 58km/h | 16644m | -7.8m/s | -54.1°C | 4.0% | 98.1hPa | 2.7V | 00:00:00 | 01:20:45 | 00:00:00 | |
| DL8OAI-8 | 2026-09-04 07:53:36 | 52.65344 | 9.11334 | 102° | 60km/h | 16644m | -7.9m/s | -54.1°C | 1.3% | 98.2hPa | 2.7V | 08:25:00 | 00:00:00 | 00:00:00 | |
| DM0DOS-11 | 2026-09-04 07:53:35 | 52.65364 | 9.11170 | 98° | 53km/h | 16695m | -6.4m/s | -53.5°C | 3.8% | 97.3hPa | 2.7V | 08:25:18 | 01:20:38 | 00:00:00 | |
| DF8AY | 2026-09-04 07:53:35 | 52.65350 | 9.11285 | 102° | 58km/h | 16660m | -9m/s | -53.9°C | 0.6% | 97.9hPa | 2.7V | 08:26:02 | 01:20:43 | 00:00:00 | |
| AA1-15 | 2026-09-04 07:53:32 | 52.65359 | 9.11215 | 101° | 57km/h | 16682m | -7m/s | -53.5°C | 0.5% | 97.6hPa | 2.6V | 08:26:02 | 01:20:40 | 00:00:00 | |
| BIOWL1-15 | 2026-09-04 07:53:31 | 52.65362 | 9.11192 | 102° | 55km/h | 16689m | -6.3m/s | -53.5°C | 0.4% | 97.4hPa | 2.6V | 08:26:02 | 01:20:39 | 00:00:00 | |
| DO2JMG | 2026-09-04 07:53:29 | 52.65365 | 9.11148 | 95° | 53km/h | 16703m | -8m/s | -53.5°C | 0.5% | 97.2hPa | 2.7V | 08:26:02 | 01:20:37 | 00:00:00 | |
| HSKMA3-T | 2026-09-04 07:53:26 | 52.65369 | 9.11085 | 97° | 47km/h | 16728m | -12m/s | -53.5°C | 0.4% | 96.9hPa | 2.7V | 08:26:02 | 01:20:34 | 00:00:00 | |
| DB0DAN | 2026-09-04 07:53:25 | 52.65370 | 9.11065 | 96° | 46km/h | 16741m | -12.6m/s | -53.6°C | 1.2% | 96.7hPa | 2.7V | 00:00:00 | 00:00:00 | 00:00:00 | |
| DM0DOS-11 | 2026-09-04 07:53:25 | 52.65382 | 9.10969 | 105° | 46km/h | 16798m | -8.7m/s | -53.8°C | 4% | 95.8hPa | 2.7V | 08:25:28 | 01:20:28 | 00:00:00 | |
| DF8AY | 2026-09-04 07:53:24 | 52.65372 | 9.11045 | 97° | 49km/h | 16753m | -11.8m/s | -53.7°C | 0.4% | 96.5hPa | 2.5V | 08:26:02 | 01:20:32 | 00:00:00 | |
| DL1NUX | 2026-09-04 07:53:24 | 52.65385 | 9.10950 | 102° | 47km/h | 16808m | -11.3m/s | -53.9°C | 4% | 95.7hPa | 2.7V | 08:25:29 | 01:20:27 | 00:00:00 | |
| DL1XH-west | 2026-09-04 07:53:21 | 52.65379 | 9.10988 | 107° | 47km/h | 16788m | -11m/s | -53.8°C | 0.5% | 96hPa | 2.7V | 08:26:02 | 01:20:29 | 00:00:00 | |
| DO2JMG | 2026-09-04 07:53:19 | 52.65385 | 9.10950 | 103° | 47km/h | 16808m | -11.3m/s | -53.9°C | 0.5% | 95.7hPa | 2.7V | 08:26:02 | 01:20:27 | 00:00:00 | |
| HSKMA3-T | 2026-09-04 07:53:16 | 52.65392 | 9.10893 | 97° | 47km/h | 16838m | -10m/s | -54.1°C | 0.5% | 95.2hPa | 2.6V | 08:26:02 | 01:20:24 | 00:00:00 | |
| DB0ND-19 | 2026-09-04 07:53:16 | 52.65392 | 9.10893 | 97° | 46km/h | 16838m | -10.0m/s | -54.1°C | 1.2% | 95.2hPa | 2.6V | 00:00:00 | 00:00:00 | 00:00:00 | |
| DM0DOS-11 | 2026-09-04 07:53:15 | 52.65392 | 9.10768 | 86° | 53km/h | 16892m | -9.4m/s | -54.4°C | 3.9% | 94.4hPa | 2.6V | 08:25:38 | 01:20:18 | 00:00:00 | |
| SO1NDE-10 | 2026-09-04 07:53:15 | 52.65393 | 9.10873 | 95° | 57km/h | 16847m | -8.3m/s | -54.1°C | 4.0% | 95.0hPa | 2.7V | 00:00:00 | 01:20:23 | 00:00:00 | |
| DL1NUX | 2026-09-04 07:53:14 | 52.65392 | 9.10746 | 88° | 51km/h | 16901m | -8.3m/s | -54.4°C | 3.9% | 94.3hPa | 2.7V | 08:25:39 | 01:20:17 | 00:00:00 | |
| DF8AY | 2026-09-04 07:53:13 | 52.65394 | 9.10832 | 88° | 51km/h | 16864m | -9.1m/s | -54.2°C | 0.5% | 94.8hPa | 2.7V | 08:26:02 | 01:20:21 | 00:00:00 | |
| BIOWL1-15 | 2026-09-04 07:53:12 | 52.65392 | 9.10768 | 86° | 53km/h | 16892m | -9.4m/s | -54.4°C | 0.4% | 94.5hPa | 2.6V | 08:26:02 | 01:20:18 | 00:00:00 | |
| DL1XH-west | 2026-09-04 07:53:11 | 52.65393 | 9.10790 | 86° | 51km/h | 16883m | -8.9m/s | -54.4°C | 0.5% | 94.6hPa | 2.6V | 08:26:02 | 01:20:19 | 00:00:00 | |
| DO2SHX-10 | 2026-09-04 07:53:10 | 52.65392 | 9.10768 | 87° | 53km/h | 16892m | -9.3m/s | -54.3°C | 3.9% | 94.4hPa | 2.7V | 00:00:00 | 01:20:18 | 00:00:00 | |
| DL1XH1-15 | 2026-09-04 07:53:09 | 52.65388 | 9.10636 | 89° | 53km/h | 16939m | -5.8m/s | -54.3°C | 4% | 93.7hPa | 2.7V | 08:25:44 | 01:20:12 | 00:00:00 | |
| DO2JMG | 2026-09-04 07:53:08 | 52.65391 | 9.10725 | 88° | 53km/h | 16909m | -8.7m/s | -54.5°C | 0.5% | 94.2hPa | 2.7V | 08:26:02 | 01:20:16 | 00:00:00 | |
| HSKMA3-T | 2026-09-04 07:53:06 | 52.65390 | 9.10680 | 87° | 55km/h | 16924m | -7.3m/s | -54.3°C | 0.5% | 93.9hPa | 2.6V | 08:26:02 | 01:20:14 | 00:00:00 | |
| DO3DL | 2026-09-04 07:53:06 | 52.65390 | 9.10680 | 88° | 55km/h | 16925m | -7.3m/s | -54.3°C | 1.2% | 93.9hPa | 2.7V | 08:26:00 | 00:00:00 | 00:00:00 | |
| DL1CLM-18 | 2026-09-04 07:53:05 | 52.65390 | 9.10680 | 88° | 55km/h | 16925m | -7.3m/s | -54.3°C | 1.2% | 93.9hPa | 2.7V | 00:00:00 | 00:00:00 | 00:00:00 | |
| DL1NUX | 2026-09-04 07:53:04 | 52.65385 | 9.10524 | 83° | 57km/h | 16976m | -9.4m/s | -54.5°C | 4.1% | 93.2hPa | 2.7V | 08:25:49 | 01:20:07 | 00:00:00 | |
| DF8AY | 2026-09-04 07:53:02 | 52.65388 | 9.10591 | 87° | 53km/h | 16953m | -7.3m/s | -54.3°C | 0.5% | 93.5hPa | 2.6V | 08:26:02 | 01:20:10 | 00:00:00 | |
| DJ2KF-10 | 2026-09-04 07:53:02 | 52.65388 | 9.10591 | 88° | 58km/h | 16953m | -7.2m/s | -54.3°C | 4.0% | 93.5hPa | 2.6V | 08:25:00 | 01:20:10 | 00:00:00 | |
| DL1XH-15 | 2026-09-04 07:53:01 | 52.65379 | 9.10454 | 79° | 58km/h | 16997m | -7.3m/s | -54.6°C | 4.2% | 92.8hPa | 2.6V | 08:25:52 | 01:20:04 | 00:00:00 | |
| DL1XH-west | 2026-09-04 07:53:00 | 52.65386 | 9.10547 | 84° | 53km/h | 16967m | -8.6m/s | -54.4°C | 0.5% | 93.3hPa | 2.7V | 08:26:02 | 01:20:08 | 00:00:00 | |
| DL1XH1-15 | 2026-09-04 07:52:59 | 52.65373 | 9.10405 | 80° | 60km/h | 17013m | -8.7m/s | -54.8°C | 4.2% | 92.6hPa | 2.7V | 08:25:54 | 01:20:02 | 00:00:00 | |
| DO2JMG | 2026-09-04 07:52:58 | 52.65383 | 9.10501 | 83° | 55km/h | 16984m | -7.2m/s | -54.5°C | 0.6% | 93hPa | 2.7V | 08:26:02 | 01:20:06 | 00:00:00 | |
| HSKMA3-T | 2026-09-04 07:52:55 | 52.65376 | 9.10430 | 79° | 60km/h | 17005m | -7.7m/s | -54.7°C | 0.6% | 92.8hPa | 2.6V | 08:26:02 | 01:20:03 | 00:00:00 | |
| DB0DAN | 2026-09-04 07:52:55 | 52.65376 | 9.10430 | 79° | 57km/h | 17005m | -7.7m/s | -54.7°C | 1.3% | 92.76hPa | 2.6V | 00:00:00 | 00:00:00 | 00:00:00 | |
| DM0DOS-11 | 2026-09-04 07:52:55 | 52.65366 | 9.10302 | 88° | 64km/h | 17048m | -8.6m/s | -55°C | 4.3% | 92.2hPa | 2.6V | 08:25:58 | 01:19:58 | 00:00:00 | |
| DF8AY | 2026-09-04 07:52:52 | 52.65369 | 9.10355 | 84° | 62km/h | 17031m | -8.7m/s | -54.9°C | 0.6% | 92.4hPa | 2.7V | 08:26:02 | 01:20:00 | 00:00:00 | |
| DL1XH-15 | 2026-09-04 07:52:51 | 52.65368 | 9.10200 | 94° | 60km/h | 17088m | -13.5m/s | -55°C | 4.2% | 91.6hPa | 2.6V | 08:26:02 | 01:19:54 | 00:00:00 | |
| BIOWL1-15 | 2026-09-04 07:52:50 | 52.65366 | 9.10302 | 88° | 64km/h | 17048m | -8.6m/s | -55°C | 0.7% | 92.2hPa | 2.6V | 08:26:02 | 01:19:58 | 00:00:00 | |
| DL1XH-west | 2026-09-04 07:52:49 | 52.65366 | 9.10276 | 89° | 64km/h | 17057m | -8.9m/s | -55°C | 0.5% | 92hPa | 2.6V | 08:26:02 | 01:19:57 | 00:00:00 | |
| DO2JMG | 2026-09-04 07:52:47 | 52.65367 | 9.10225 | 92° | 58km/h | 17076m | -11m/s | -55°C | 0.6% | 91.8hPa | 2.7V | 08:26:02 | 01:19:55 | 00:00:00 | |
| DF5WG-10 | 2026-09-04 07:52:47 | 52.65367 | 9.10225 | 93° | 57km/h | 17076m | -11.0m/s | -54.9°C | 4.2% | 91.8hPa | 2.6V | 00:00:00 | 01:19:55 | 00:00:00 | |
| DO2SHX-10 | 2026-09-04 07:52:46 | 52.65368 | 9.10200 | 95° | 60km/h | 17089m | -13.5m/s | -54.9°C | 4.2% | 91.6hPa | 2.6V | 00:00:00 | 01:19:54 | 00:00:00 | |
| DM0DOS-11 | 2026-09-04 07:52:45 | 52.65374 | 9.10057 | 91° | 55km/h | 17141m | -9.1m/s | -54.5°C | 3.9% | 90.8hPa | 2.6V | 08:26:08 | 01:19:48 | 00:00:00 | |
| SO1NDE-10 | 2026-09-04 07:52:45 | 52.65369 | 9.10175 | 96° | 55km/h | 17100m | -8.8m/s | -54.8°C | 4.2% | 91.3hPa | 2.7V | 00:00:00 | 01:19:53 | 00:00:00 | |
| DL1NUX | 2026-09-04 07:52:44 | 52.65375 | 9.10034 | 91° | 55km/h | 17150m | -8.4m/s | -54.5°C | 4% | 90.7hPa | 2.7V | 08:26:09 | 01:19:47 | 00:00:00 | |
| HSKMA3-T | 2026-09-04 07:52:44 | 52.65371 | 9.10150 | 95° | 58km/h | 17108m | -8.4m/s | -54.7°C | 0.6% | 91.3hPa | 2.7V | 08:26:53 | 01:19:52 | 00:00:00 | |
| DF8AY | 2026-09-04 07:52:42 | 52.65373 | 9.10103 | 95° | 57km/h | 17124m | -7.1m/s | -54.5°C | 0.5% | 91hPa | 2.6V | 08:26:53 | 01:19:50 | 00:00:00 | |
| DJ2DS-15 | 2026-09-04 07:52:41 | 52.65374 | 9.10080 | 92° | 53km/h | 17132m | -8.5m/s | -54.5°C | 1.2% | 90.9hPa | 2.6V | 00:00:00 | 00:00:00 | 00:00:00 | |
| DL1XH-15 | 2026-09-04 07:52:40 | 52.65379 | 9.09941 | 98° | 60km/h | 17188m | -9.1m/s | -54.7°C | 4.1% | 90.2hPa | 2.6V | 08:26:13 | 01:19:43 | 00:00:00 | |
| DL1XH-west | 2026-09-04 07:52:39 | 52.65375 | 9.10034 | 92° | 55km/h | 17150m | -8.4m/s | -54.5°C | 0.5% | 90.7hPa | 2.7V | 08:26:53 | 01:19:47 | 00:00:00 | |
| DO2JMG | 2026-09-04 07:52:36 | 52.65377 | 9.09965 | 95° | 58km/h | 17178m | -10.2m/s | -54.7°C | 0.5% | 90.3hPa | 2.6V | 08:26:53 | 01:19:44 | 00:00:00 | |
| EDDB2-11 | 2026-09-04 07:52:36 | 52.65379 | 9.09941 | 98° | 58km/h | 17188m | -9.1m/s | -54.7°C | 1.3% | 90.2hPa | 2.6V | 00:00:00 | 00:00:00 | 00:00:00 | |
| SMARD9-15 | 2026-09-04 07:52:35 | 52.65379 | 9.09941 | 98° | 58km/h | 17188m | -9.1m/s | -54.7°C | 1.3% | 90.2hPa | 2.6V | 00:00:00 | 00:00:00 | 00:00:00 | |
| DL1NUX | 2026-09-04 07:52:34 | 52.65399 | 9.09795 | 105° | 58km/h | 17231m | -6.3m/s | -54.9°C | 4.3% | 89.5hPa | 2.6V | 08:26:19 | 01:19:37 | 00:00:00 | |
| HSKMA3-T | 2026-09-04 07:52:34 | 52.65385 | 9.09892 | 101° | 60km/h | 17204m | -7.3m/s | -54.8°C | 0.5% | 89.9hPa | 2.7V | 08:26:53 | 01:19:41 | 00:00:00 | |
| DF8AY | 2026-09-04 07:52:31 | 52.65391 | 9.09843 | 103° | 60km/h | 17218m | -8.2m/s | -54.8°C | 0.6% | 89.7hPa | 2.7V | 08:26:53 | 01:19:39 | 00:00:00 | |
| AA1-15 | 2026-09-04 07:52:29 | 52.65399 | 9.09795 | 106° | 58km/h | 17231m | -6.3m/s | -54.9°C | 0.7% | 89.5hPa | 2.6V | 08:26:53 | 01:19:37 | 00:00:00 | |
| BIOWL1-15 | 2026-09-04 07:52:28 | 52.65403 | 9.09772 | 106° | 57km/h | 17239m | -10.1m/s | -54.9°C | 0.7% | 89.4hPa | 2.6V | 08:26:53 | 01:19:36 | 00:00:00 | |
| DO2JMG | 2026-09-04 07:52:25 | 52.65416 | 9.09708 | 109° | 49km/h | 17265m | -8.2m/s | -54.9°C | 0.7% | 89hPa | 2.6V | 08:26:53 | 01:19:33 | 00:00:00 | |
| DL1NUX | 2026-09-04 07:52:24 | 52.65438 | 9.09594 | 106° | 47km/h | 17320m | -9.2m/s | -54.7°C | 4% | 88.3hPa | 2.6V | 08:26:29 | 01:19:27 | 00:00:00 | |
| HSKMA3-T | 2026-09-04 07:52:23 | 52.65428 | 9.09650 | 108° | 47km/h | 17289m | -7.9m/s | -54.7°C | 0.5% | 88.7hPa | 2.7V | 08:26:53 | 01:19:30 | 00:00:00 | |
| DF8AY | 2026-09-04 07:52:20 | 52.65434 | 9.09612 | 105° | 46km/h | 17309m | -12.8m/s | -54.7°C | 0.5% | 88.5hPa | 2.6V | 08:26:53 | 01:19:28 | 00:00:00 | |
| DO2SHX-10 | 2026-09-04 07:52:20 | 52.65434 | 9.09612 | 105° | 47km/h | 17309m | -12.7m/s | -54.6°C | 4.0% | 88.4hPa | 2.6V | 00:00:00 | 01:19:28 | 00:00:00 | |
| DL1XH1-15 | 2026-09-04 07:52:19 | 52.65458 | 9.09500 | 110° | 49km/h | 17363m | -8.8m/s | -54.4°C | 4% | 87.6hPa | 2.6V | 08:26:34 | 01:19:22 | 00:00:00 | |
| AA1-15 | 2026-09-04 07:52:18 | 52.65441 | 9.09575 | 110° | 46km/h | 17329m | -9.5m/s | -54.7°C | 0.5% | 88.1hPa | 2.7V | 08:26:53 | 01:19:26 | 00:00:00 | |
| DL1XH-west | 2026-09-04 07:52:17 | 52.65445 | 9.09557 | 109° | 47km/h | 17338m | -8.8m/s | -54.7°C | 0.5% | 88hPa | 2.7V | 08:26:53 | 01:19:25 | 00:00:00 | |
| DO2JMG | 2026-09-04 07:52:14 | 52.65458 | 9.09500 | 110° | 49km/h | 17363m | -8.8m/s | -54.4°C | 0.4% | 87.7hPa | 2.6V | 08:26:53 | 01:19:22 | 00:00:00 | |
| DL1NUX | 2026-09-04 07:52:14 | 52.65475 | 9.09410 | 100° | 38km/h | 17407m | -7.9m/s | -54.3°C | 4% | 87.1hPa | 2.6V | 08:26:39 | 01:19:17 | 00:00:00 | |
| HSKMA3-T | 2026-09-04 07:52:11 | 52.65470 | 9.09443 | 109° | 42km/h | 17389m | -9.2m/s | -54.3°C | 0.5% | 87.3hPa | 2.7V | 08:26:53 | 01:19:19 | 00:00:00 | |
| DO2SHX-10 | 2026-09-04 07:52:11 | 52.65470 | 9.09443 | 109° | 40km/h | 17390m | -9.2m/s | -54.2°C | 4.0% | 87.3hPa | 2.7V | 00:00:00 | 01:19:19 | 00:00:00 | |
| DL1XH-15 | 2026-09-04 07:52:10 | 52.65482 | 9.09340 | 98° | 46km/h | 17441m | -7.6m/s | -54.5°C | 4% | 86.6hPa | 2.7V | 08:26:43 | 01:19:13 | 00:00:00 | |
| DF8AY | 2026-09-04 07:52:09 | 52.65475 | 9.09410 | 101° | 38km/h | 17407m | -7.9m/s | -54.3°C | 0.5% | 87.1hPa | 2.6V | 08:26:53 | 01:19:17 | 00:00:00 | |
| AA1-15 | 2026-09-04 07:52:08 | 52.65477 | 9.09394 | 98° | 40km/h | 17416m | -9.3m/s | -54.3°C | 0.5% | 87hPa | 2.6V | 08:26:53 | 01:19:16 | 00:00:00 | |
| BIOWL1-15 | 2026-09-04 07:52:06 | 52.65480 | 9.09359 | 99° | 44km/h | 17433m | -8.5m/s | -54.4°C | 0.5% | 86.7hPa | 2.7V | 08:26:53 | 01:19:14 | 00:00:00 | |
| DM0DOS-11 | 2026-09-04 07:52:05 | 52.65488 | 9.09244 | 90° | 47km/h | 17484m | -9.6m/s | -54.8°C | 4% | 86hPa | 2.6V | 08:26:48 | 01:19:08 | 00:00:00 | |
| DO2JMG | 2026-09-04 07:52:04 | 52.65484 | 9.09322 | 100° | 46km/h | 17449m | -8.6m/s | -54.5°C | 0.5% | 86.5hPa | 2.6V | 08:26:53 | 01:19:12 | 00:00:00 | |
| HSKMA3-T | 2026-09-04 07:52:01 | 52.65488 | 9.09264 | 92° | 46km/h | 17475m | -9.7m/s | -54.7°C | 0.5% | 86.2hPa | 2.7V | 08:26:53 | 01:19:09 | 00:00:00 | |
| DF8AY | 2026-09-04 07:51:59 | 52.65488 | 9.09225 | 89° | 46km/h | 17494m | -9.5m/s | -54.8°C | 0.5% | 85.9hPa | 2.6V | 08:26:53 | 01:19:07 | 00:00:00 | |
| AA1-15 | 2026-09-04 07:51:57 | 52.65487 | 9.09186 | 87° | 44km/h | 17512m | -9.1m/s | -54.9°C | 0.5% | 85.7hPa | 2.7V | 08:26:53 | 01:19:05 | 00:00:00 | |
| DD8BA-10 | 2026-09-04 07:51:57 | 52.65487 | 9.09186 | 88° | 42km/h | 17512m | -9.0m/s | -54.8°C | 4.1% | 85.6hPa | 2.7V | 00:00:00 | 00:00:00 | 00:00:00 | |
| DO2SHX-10 | 2026-09-04 07:51:56 | 52.65486 | 9.09168 | 86° | 42km/h | 17520m | -7.1m/s | -54.9°C | 4.1% | 85.5hPa | 2.7V | 00:00:00 | 01:19:04 | 00:00:00 | |
| DM0DOS-11 | 2026-09-04 07:51:55 | 52.65481 | 9.09063 | 86° | 44km/h | 17572m | -8.9m/s | -55°C | 4.3% | 84.9hPa | 2.7V | 08:26:58 | 01:18:58 | 00:00:00 | |
| DB0DAN | 2026-09-04 07:51:55 | 52.65486 | 9.09150 | 87° | 40km/h | 17527m | -7.9m/s | -55°C | 1.2% | 85.39hPa | 2.7V | 00:00:00 | 00:00:00 | 00:00:00 | |
| DL1XH-west | 2026-09-04 07:51:55 | 52.65486 | 9.09150 | 87° | 42km/h | 17527m | -7.9m/s | -55°C | 0.5% | 85.4hPa | 2.7V | 08:26:53 | 01:19:03 | 00:00:00 | |
| DO2JMG | 2026-09-04 07:51:54 | 52.65485 | 9.09133 | 85° | 40km/h | 17535m | -9.1m/s | -55°C | 0.6% | 85.3hPa | 2.6V | 08:27:44 | 01:19:02 | 00:00:00 | |
| HSKMA3-T | 2026-09-04 07:51:50 | 52.65481 | 9.09063 | 87° | 44km/h | 17572m | -8.9m/s | -55°C | 0.7% | 84.9hPa | 2.7V | 08:27:44 | 01:18:58 | 00:00:00 | |
| DF8AY | 2026-09-04 07:51:48 | 52.65480 | 9.09027 | 83° | 44km/h | 17588m | -6.6m/s | -54.6°C | 0.6% | 84.6hPa | 2.6V | 08:27:44 | 01:18:56 | 00:00:00 | |
| AA1-15 | 2026-09-04 07:51:47 | 52.65478 | 9.09009 | 80° | 44km/h | 17595m | -8m/s | -54.6°C | 0.6% | 84.6hPa | 2.6V | 08:27:44 | 01:18:55 | 00:00:00 | |
| BIOWL9-15 | 2026-09-04 07:51:46 | 52.65476 | 9.08992 | 79° | 42km/h | 17603m | -8.8m/s | -54.6°C | 1.2% | 84.5hPa | 2.7V | 00:00:00 | 00:00:00 | 00:00:00 | |
| DM0DOS-11 | 2026-09-04 07:51:45 | 52.65462 | 9.08909 | 70° | 27km/h | 17660m | -8.9m/s | -54.8°C | 4.1% | 83.7hPa | 2.7V | 08:27:08 | 01:18:48 | 00:00:00 | |
| DL1XH-west | 2026-09-04 07:51:45 | 52.65474 | 9.08975 | 77° | 40km/h | 17612m | -9.1m/s | -54.6°C | 0.5% | 84.4hPa | 2.7V | 08:27:44 | 01:18:53 | 00:00:00 | |
| SO1NDE-10 | 2026-09-04 07:51:45 | 52.65474 | 9.08975 | 78° | 37km/h | 17613m | -9.0m/s | -54.5°C | 4.0% | 84.3hPa | 2.6V | 00:00:00 | 01:18:53 | 00:00:00 | |
| DL1NUX | 2026-09-04 07:51:44 | 52.65459 | 9.08898 | 70° | 27km/h | 17668m | -8.6m/s | -54.9°C | 4.1% | 83.6hPa | 2.6V | 08:27:09 | 01:18:47 | 00:00:00 | |
| DO2JMG | 2026-09-04 07:51:43 | 52.65469 | 9.08945 | 74° | 33km/h | 17631m | -10.3m/s | -54.7°C | 0.5% | 84.2hPa | 2.6V | 08:27:44 | 01:18:51 | 00:00:00 | |
| DB0ND-19 | 2026-09-04 07:51:43 | 52.65467 | 9.08933 | 72° | 29km/h | 17641m | -10.1m/s | -54.7°C | -1.0% | 84.0hPa | 2.6V | 00:00:00 | 00:00:00 | 00:00:00 | |
| DK5PH-5 | 2026-09-04 07:51:42 | 52.65467 | 9.08932 | 73° | 35km/h | 17641m | -10.1m/s | -54.7°C | 4.0% | 83.9hPa | 2.6V | 08:27:00 | 01:18:50 | 00:00:00 | |
| DN9WHV | 2026-09-04 07:51:41 | 52.65467 | 9.08932 | 74° | 31km/h | 17641m | -10.1m/s | -54.7°C | 1.2% | 84.0hPa | 2.7V | 08:27:00 | 00:00:00 | 00:00:00 | |
| DB0DAN | 2026-09-04 07:51:40 | 52.65462 | 9.08909 | 71° | 27km/h | 17660m | -8.9m/s | -54.8°C | 1.2% | 83.71hPa | 2.7V | 00:00:00 | 00:00:00 | 00:00:00 | |
| DL1XH-15 | 2026-09-04 07:51:40 | 52.65453 | 9.08851 | 77° | 29km/h | 17703m | -7.3m/s | -55.1°C | 4.2% | 83.1hPa | 2.7V | 08:27:13 | 01:18:43 | 00:00:00 | |
| HSKMA3-T | 2026-09-04 07:51:39 | 52.65460 | 9.08898 | 70° | 27km/h | 17669m | -8.6m/s | -54.9°C | 0.5% | 83.6hPa | 2.6V | 08:27:44 | 01:18:47 | 00:00:00 | |
| DF8AY | 2026-09-04 07:51:38 | 52.65457 | 9.08887 | 74° | 29km/h | 17677m | -8.4m/s | -54.9°C | 0.5% | 83.5hPa | 2.6V | 08:27:44 | 01:18:46 | 00:00:00 | |
| AA1-15 | 2026-09-04 07:51:36 | 52.65454 | 9.08863 | 79° | 29km/h | 17695m | -8.5m/s | -55.1°C | 0.5% | 83.3hPa | 2.7V | 08:27:44 | 01:18:44 | 00:00:00 | |
| DL1XH-west | 2026-09-04 07:51:35 | 52.65453 | 9.08851 | 78° | 29km/h | 17703m | -7.3m/s | -55.1°C | 0.6% | 83.2hPa | 2.7V | 08:27:44 | 01:18:43 | 00:00:00 | |
| DL1NUX | 2026-09-04 07:51:34 | 52.65438 | 9.08775 | 67° | 35km/h | 17756m | -9.3m/s | -54.6°C | 4% | 82.5hPa | 2.7V | 08:27:19 | 01:18:37 | 00:00:00 | |
| DO2JMG | 2026-09-04 07:51:33 | 52.65450 | 9.08826 | 74° | 31km/h | 17718m | -10m/s | -55°C | 0.6% | 83hPa | 2.6V | 08:27:44 | 01:18:41 | 00:00:00 | |
| GOEST3-10 | 2026-09-04 07:51:33 | 52.65449 | 9.08826 | 74° | 33km/h | 17719m | -10.0m/s | -55.0°C | 4.2% | 82.9hPa | 2.6V | 00:00:00 | 01:18:41 | 00:00:00 | |
| DL4XJ-10 | 2026-09-04 07:51:32 | 52.65447 | 9.08813 | 70° | 38km/h | 17729m | -10.0m/s | -55.4°C | 0% | 0hPa | 2.6V | 00:00:00 | 00:00:00 | 00:00:00 | |
| AP2371 | 2026-09-04 07:51:31 | 52.65447 | 9.08813 | 71° | 31km/h | 17729m | -10.0m/s | -54.9°C | 1.2% | 82.8hPa | 2.6V | 00:00:00 | 00:00:00 | 00:00:00 | |
| DL1XH-15 | 2026-09-04 07:51:30 | 52.65425 | 9.08718 | 73° | 38km/h | 17794m | -8.4m/s | -54.7°C | 4% | 82hPa | 2.6V | 08:27:23 | 01:18:33 | 00:00:00 | |
| HSKMA3-T | 2026-09-04 07:51:29 | 52.65438 | 9.08775 | 67° | 35km/h | 17756m | -9.3m/s | -54.6°C | 0.4% | 82.5hPa | 2.7V | 08:27:44 | 01:18:37 | 00:00:00 | |
| DF8AY | 2026-09-04 07:51:28 | 52.65435 | 9.08762 | 66° | 35km/h | 17765m | -9.4m/s | -54.5°C | 0.4% | 82.4hPa | 2.7V | 08:27:44 | 01:18:36 | 00:00:00 | |
| AA1-15 | 2026-09-04 07:51:26 | 52.65428 | 9.08733 | 71° | 38km/h | 17785m | -10.1m/s | -54.6°C | 0.5% | 82.1hPa | 2.6V | 08:27:44 | 01:18:34 | 00:00:00 | |
| DB0DAN | 2026-09-04 07:51:25 | 52.65425 | 9.08718 | 73° | 37km/h | 17794m | -8.4m/s | -54.7°C | 1.1% | 81.97hPa | 2.6V | 00:00:00 | 00:00:00 | 00:00:00 | |
| DL1XH-west | 2026-09-04 07:51:25 | 52.65425 | 9.08718 | 73° | 38km/h | 17794m | -8.4m/s | -54.7°C | 0.4% | 82hPa | 2.6V | 08:27:44 | 01:18:33 | 00:00:00 | |
| DO2JMG | 2026-09-04 07:51:22 | 52.65417 | 9.08668 | 78° | 42km/h | 17819m | -8.9m/s | -54.8°C | 0.5% | 81.7hPa | 2.6V | 08:27:44 | 01:18:30 | 00:00:00 | |
| AU51GT2 | 2026-09-04 07:51:21 | 52.65414 | 9.08634 | 83° | 40km/h | 17837m | -8.2m/s | -54.8°C | -1.0% | 81.4hPa | 2.7V | 00:00:00 | 00:00:00 | 00:00:00 | |
| DB0UT-7 | 2026-09-04 07:51:20 | 52.65414 | 9.08634 | 84° | 44km/h | 17837m | -8.2m/s | -54.7°C | 4.1% | 81.4hPa | 2.7V | 00:00:00 | 00:00:00 | 00:00:00 | |
| DL1XH1-15 | 2026-09-04 07:51:19 | 52.65409 | 9.08534 | 84° | 42km/h | 17893m | -10.3m/s | -54.9°C | 4.1% | 80.8hPa | 2.7V | 08:27:34 | 01:18:22 | 00:00:00 | |
| DF8AY | 2026-09-04 07:51:18 | 52.65413 | 9.08601 | 87° | 40km/h | 17854m | -9.5m/s | -54.8°C | 0.5% | 81.3hPa | 2.6V | 08:27:44 | 01:18:26 | 00:00:00 | |
| AA1-15 | 2026-09-04 07:51:15 | 52.65410 | 9.08551 | 83° | 40km/h | 17883m | -9.6m/s | -54.9°C | 0.5% | 80.9hPa | 2.7V | 08:27:44 | 01:18:23 | 00:00:00 | |
| DL1XH-west | 2026-09-04 07:51:14 | 52.65409 | 9.08534 | 85° | 42km/h | 17893m | -10.3m/s | -54.9°C | 0.5% | 80.8hPa | 2.7V | 08:27:44 | 01:18:22 | 00:00:00 | |
| DO2JMG | 2026-09-04 07:51:12 | 52.65406 | 9.08497 | 81° | 49km/h | 17912m | -10.1m/s | -55°C | 0.5% | 80.5hPa | 2.6V | 08:27:44 | 01:18:20 | 00:00:00 | |
| DL3AQ-11 | 2026-09-04 07:51:12 | 52.65404 | 9.08477 | 81° | 47km/h | 17922m | -10.4m/s | -55.1°C | 1.2% | 80.5hPa | 2.6V | 00:00:00 | 00:00:00 | 00:00:00 | |
| DF5WG-10 | 2026-09-04 07:51:11 | 52.65404 | 9.08477 | 82° | 49km/h | 17922m | -10.3m/s | -55.0°C | 4.2% | 80.4hPa | 2.6V | 00:00:00 | 01:18:19 | 00:00:00 | |
| DO2SHX-10 | 2026-09-04 07:51:10 | 52.65403 | 9.08457 | 85° | 53km/h | 17932m | -8.6m/s | -55.1°C | 4.3% | 80.2hPa | 2.6V | 00:00:00 | 01:18:18 | 00:00:00 | |
| DL1XH1-15 | 2026-09-04 07:51:09 | 52.65403 | 9.08328 | 98° | 49km/h | 17983m | -7.7m/s | -55°C | 4.3% | 79.6hPa | 2.6V | 08:27:44 | 01:18:12 | 00:00:00 | |
| HSKMA3-T | 2026-09-04 07:51:08 | 52.65400 | 9.08414 | 86° | 55km/h | 17950m | -10.1m/s | -55.2°C | 0.7% | 80hPa | 2.7V | 08:27:44 | 01:18:16 | 00:00:00 | |
| DF8AY | 2026-09-04 07:51:07 | 52.65399 | 9.08392 | 88° | 51km/h | 17960m | -8.5m/s | -55.1°C | 0.6% | 79.9hPa | 2.7V | 08:27:44 | 01:18:15 | 00:00:00 | |
| DD8BA-10 | 2026-09-04 07:51:07 | 52.65399 | 9.08392 | 89° | 47km/h | 17960m | -8.5m/s | -55.1°C | 4.3% | 79.8hPa | 2.6V | 00:00:00 | 00:00:00 | 00:00:00 | |
| DD1CC8 | 2026-09-04 07:51:06 | 52.65400 | 9.08370 | 94° | 51km/h | 17968m | -8.0m/s | -55.1°C | 1.2% | 79.8hPa | 2.6V | 00:00:00 | 00:00:00 | 00:00:00 | |
| DM0DOS-11 | 2026-09-04 07:51:05 | 52.65416 | 9.08253 | 111° | 44km/h | 18019m | -8.3m/s | -55°C | 4.3% | 79.1hPa | 2.6V | 08:27:48 | 01:18:08 | 00:00:00 | |
| AA1-15 | 2026-09-04 07:51:04 | 52.65403 | 9.08328 | 99° | 49km/h | 17983m | -7.7m/s | -55°C | 0.6% | 79.6hPa | 2.6V | 08:27:44 | 01:18:12 | 00:00:00 | |
| DJ2DS-15 | 2026-09-04 07:51:04 | 52.65403 | 9.08327 | 99° | 40km/h | 17983m | -7.6m/s | -55.0°C | 4.3% | 79.6hPa | 2.7V | 00:00:00 | 01:18:12 | 00:00:00 | |
| DL1NUX | 2026-09-04 07:51:03 | 52.65423 | 9.08219 | 108° | 40km/h | 18036m | -9.5m/s | -54.9°C | 4.3% | 78.9hPa | 2.7V | 08:27:50 | 01:18:06 | 00:00:00 | |
| DL1XH-west | 2026-09-04 07:51:03 | 52.65405 | 9.08308 | 105° | 47km/h | 17992m | -10.5m/s | -55°C | 0.6% | 79.5hPa | 2.7V | 08:28:35 | 01:18:11 | 00:00:00 | |
| DO2JMG | 2026-09-04 07:51:01 | 52.65412 | 9.08270 | 108° | 46km/h | 18011m | -8.9m/s | -55°C | 0.6% | 79.2hPa | 2.6V | 08:28:35 | 01:18:09 | 00:00:00 | |
| DO2SHX-10 | 2026-09-04 07:51:01 | 52.65412 | 9.08270 | 109° | 44km/h | 18011m | -8.8m/s | -55.0°C | 4.3% | 79.2hPa | 2.7V | 00:00:00 | 01:18:09 | 00:00:00 | |
| DN9WHV | 2026-09-04 07:51:00 | 52.65416 | 9.08253 | 113° | 44km/h | 18019m | -8.3m/s | -55.0°C | 1.2% | 79.1hPa | 2.7V | 08:28:00 | 00:00:00 | 00:00:00 | |
| DL1XH1-15 | 2026-09-04 07:50:59 | 52.65434 | 9.08154 | 104° | 40km/h | 18074m | -9.6m/s | -54.5°C | 4.2% | 78.5hPa | 2.7V | 08:27:54 | 01:18:02 | 00:00:00 | |
| HSKMA3-T | 2026-09-04 07:50:57 | 52.65426 | 9.08203 | 106° | 42km/h | 18046m | -10.2m/s | -54.8°C | 0.6% | 78.9hPa | 2.6V | 08:28:35 | 01:18:05 | 00:00:00 | |
| DF8AY | 2026-09-04 07:50:56 | 52.65429 | 9.08186 | 104° | 40km/h | 18056m | -9.9m/s | -54.7°C | 0.6% | 78.7hPa | 2.6V | 08:28:35 | 01:18:04 | 00:00:00 | |
| DL3AQ-11 | 2026-09-04 07:50:56 | 52.65432 | 9.08170 | 104° | 38km/h | 18065m | -8.1m/s | -54.6°C | 1.2% | 78.6hPa | 2.7V | 00:00:00 | 00:00:00 | 00:00:00 | |
| DB0DAN | 2026-09-04 07:50:55 | 52.65432 | 9.08170 | 104° | 37km/h | 18065m | -8.1m/s | -54.6°C | 1.2% | 78.59hPa | 2.7V | 00:00:00 | 00:00:00 | 00:00:00 | |
| DM0DOS-11 | 2026-09-04 07:50:55 | 52.65448 | 9.08093 | 117° | 38km/h | 18114m | -10.7m/s | -53.7°C | 3.9% | 78hPa | 2.7V | 08:27:58 | 01:17:58 | 00:00:00 | |
| AA1-15 | 2026-09-04 07:50:54 | 52.65434 | 9.08154 | 105° | 40km/h | 18074m | -9.6m/s | -54.5°C | 0.6% | 78.5hPa | 2.7V | 08:28:35 | 01:18:02 | 00:00:00 | |
| BIOWL1-15 | 2026-09-04 07:50:53 | 52.65437 | 9.08138 | 104° | 40km/h | 18084m | -9.9m/s | -54.3°C | 0.6% | 78.3hPa | 2.5V | 08:28:35 | 01:18:01 | 00:00:00 | |
| DL1XH-west | 2026-09-04 07:50:52 | 52.65440 | 9.08122 | 109° | 38km/h | 18094m | -10.1m/s | -54°C | 0.4% | 78.2hPa | 2.6V | 08:28:35 | 01:18:00 | 00:00:00 | |
| DF8AY-15 | 2026-09-04 07:50:52 | 52.65440 | 9.08122 | 109° | 37km/h | 18094m | -10.1m/s | -54.0°C | 4.0% | 78.2hPa | 2.6V | 00:00:00 | 01:18:00 | 00:00:00 | |
| DL1XH-15 | 2026-09-04 07:50:51 | 52.65466 | 9.08042 | 121° | 33km/h | 18148m | -9.7m/s | -53.6°C | 3.8% | 77.5hPa | 2.6V | 08:28:02 | 01:17:54 | 00:00:00 | |
| DO2JMG | 2026-09-04 07:50:50 | 52.65448 | 9.08093 | 118° | 38km/h | 18114m | -10.7m/s | -53.7°C | 0.4% | 78hPa | 2.7V | 08:28:35 | 01:17:58 | 00:00:00 | |
| AU51GT2 | 2026-09-04 07:50:50 | 52.65452 | 9.08079 | 120° | 37km/h | 18124m | -8.6m/s | 0°C | -1.0% | -1.0hPa | 2.7V | 00:00:00 | 00:00:00 | 00:00:00 | |
| DL1XH1-15 | 2026-09-04 07:50:49 | 52.65474 | 9.08017 | 116° | 33km/h | 18169m | -10.5m/s | -53.4°C | 3.7% | 77.3hPa | 2.7V | 08:28:04 | 01:17:52 | 00:00:00 | |
| HSKMA3-T | 2026-09-04 07:50:47 | 52.65466 | 9.08042 | 121° | 33km/h | 18148m | -9.7m/s | -53.7°C | 0.4% | 77.5hPa | 2.6V | 08:28:35 | 01:17:54 | 00:00:00 | |
| BIOWL1-15 | 2026-09-04 07:50:43 | 52.65477 | 9.08004 | 112° | 31km/h | 18178m | -8.2m/s | -53.3°C | 0.3% | 77.2hPa | 2.7V | 08:28:35 | 01:17:51 | 00:00:00 | |
| SONCRA | 2026-09-04 07:50:43 | 52.65480 | 9.07992 | 113° | 33km/h | 18187m | -10.5m/s | -53.3°C | 1.0% | 77.1hPa | 2.6V | 00:00:00 | 00:00:00 | 00:00:00 | |
| DK5PH-5 | 2026-09-04 07:50:42 | 52.65480 | 9.07992 | 114° | 35km/h | 18187m | -10.5m/s | -53.3°C | 3.7% | 77.1hPa | 2.6V | 00:00:00 | 01:17:50 | 00:00:00 | |
| DL1XH-15 | 2026-09-04 07:50:41 | 52.65504 | 9.07910 | 119° | 38km/h | 18247m | -10.1m/s | -53.7°C | 3.8% | 76.4hPa | 2.6V | 08:28:12 | 01:17:44 | 00:00:00 | |
| DL1XH-west | 2026-09-04 07:50:41 | 52.65483 | 9.07979 | 113° | 33km/h | 18197m | -10.1m/s | -53.3°C | 0.3% | 77hPa | 2.5V | 08:28:35 | 01:17:49 | 00:00:00 | |
| DB0DAN | 2026-09-04 07:50:40 | 52.65487 | 9.07966 | 112° | 33km/h | 18208m | -10m/s | -53.4°C | 1% | 76.86hPa | 2.6V | 00:00:00 | 00:00:00 | 00:00:00 | |
| DO2JMG | 2026-09-04 07:50:40 | 52.65487 | 9.07966 | 112° | 35km/h | 18208m | -10m/s | -53.4°C | 0.3% | 76.9hPa | 2.6V | 08:28:35 | 01:17:48 | 00:00:00 | |
| DL1XH1-15 | 2026-09-04 07:50:39 | 52.65514 | 9.07883 | 125° | 38km/h | 18265m | -9.1m/s | -53.8°C | 3.9% | 76.2hPa | 2.7V | 08:28:14 | 01:17:42 | 00:00:00 | |
| HSKMA3-T | 2026-09-04 07:50:36 | 52.65504 | 9.07910 | 119° | 38km/h | 18247m | -10.1m/s | -53.7°C | 0.4% | 76.4hPa | 2.6V | 08:28:35 | 01:17:44 | 00:00:00 | |
| DF8AY | 2026-09-04 07:50:35 | 52.65509 | 9.07896 | 121° | 40km/h | 18257m | -8.5m/s | -53.7°C | 0.4% | 76.3hPa | 2.6V | 08:28:35 | 01:17:43 | 00:00:00 | |
| AA1-15 | 2026-09-04 07:50:33 | 52.65520 | 9.07870 | 129° | 37km/h | 18275m | -9.7m/s | -53.9°C | 0.4% | 76hPa | 2.7V | 08:28:35 | 01:17:41 | 00:00:00 | |
| DL1NUX | 2026-09-04 07:50:33 | 52.65548 | 9.07820 | 133° | 29km/h | 18322m | -10.4m/s | -54.2°C | 4% | 75.5hPa | 2.7V | 08:28:20 | 01:17:36 | 00:00:00 | |
| BIOWL1-15 | 2026-09-04 07:50:32 | 52.65526 | 9.07858 | 132° | 35km/h | 18284m | -7.7m/s | -53.9°C | 0.4% | 75.9hPa | 2.5V | 08:28:35 | 01:17:40 | 00:00:00 | |
| DL1XH-west | 2026-09-04 07:50:31 | 52.65532 | 9.07848 | 131° | 31km/h | 18292m | -9.7m/s | -54°C | 0.4% | 75.8hPa | 2.6V | 08:28:35 | 01:17:39 | 00:00:00 | |
| DO2JMG | 2026-09-04 07:50:29 | 52.65542 | 9.07829 | 133° | 29km/h | 18312m | -9.9m/s | -54.2°C | 0.4% | 75.6hPa | 2.7V | 08:28:35 | 01:17:37 | 00:00:00 | |
| HSKMA3-T | 2026-09-04 07:50:26 | 52.65563 | 9.07793 | 132° | 31km/h | 18352m | -10.3m/s | -54.5°C | 0.5% | 75.1hPa | 2.6V | 08:28:35 | 01:17:33 | 00:00:00 | |
| DF8AY | 2026-09-04 07:50:24 | 52.65568 | 9.07783 | 130° | 33km/h | 18361m | -9m/s | -54.5°C | 0.4% | 75hPa | 2.6V | 08:28:35 | 01:17:32 | 00:00:00 | |
| DJ2DS-15 | 2026-09-04 07:50:24 | 52.65568 | 9.07783 | 131° | 35km/h | 18362m | -8.9m/s | -54.4°C | 4.0% | 75.0hPa | 2.6V | 00:00:00 | 01:17:32 | 00:00:00 | |
| DL1NUX | 2026-09-04 07:50:23 | 52.65596 | 9.07710 | 119° | 37km/h | 18420m | -10m/s | -54.3°C | 4% | 74.3hPa | 2.6V | 08:28:30 | 01:17:26 | 00:00:00 | |
| AA1-15 | 2026-09-04 07:50:22 | 52.65578 | 9.07760 | 123° | 35km/h | 18381m | -9.6m/s | -54.4°C | 0.5% | 74.8hPa | 2.7V | 08:28:35 | 01:17:30 | 00:00:00 | |
| DL1XH-west | 2026-09-04 07:50:21 | 52.65583 | 9.07748 | 122° | 35km/h | 18390m | -9.6m/s | -54.2°C | 0.4% | 74.7hPa | 2.7V | 08:28:35 | 01:17:29 | 00:00:00 | |
| DB0UT-7 | 2026-09-04 07:50:20 | 52.65587 | 9.07736 | 120° | 38km/h | 18400m | -10.0m/s | -54.2°C | 3.9% | 74.5hPa | 2.6V | 00:00:00 | 00:00:00 | 00:00:00 | |
| DL1XH1-15 | 2026-09-04 07:50:19 | 52.65612 | 9.07656 | 112° | 31km/h | 18459m | -9.8m/s | -54.3°C | 4.1% | 73.9hPa | 2.6V | 08:28:34 | 01:17:22 | 00:00:00 | |
| DO2JMG | 2026-09-04 07:50:19 | 52.65592 | 9.07723 | 121° | 37km/h | 18410m | -10.4m/s | -54.3°C | 0.4% | 74.5hPa | 2.6V | 08:28:35 | 01:17:27 | 00:00:00 | |
| DF8AY | 2026-09-04 07:50:15 | 52.65612 | 9.07656 | 113° | 31km/h | 18459m | -9.8m/s | -54.3°C | 0.5% | 73.9hPa | 2.6V | 08:28:35 | 01:17:22 | 00:00:00 | |
| HSKMA3-T | 2026-09-04 07:50:15 | 52.65609 | 9.07669 | 114° | 35km/h | 18449m | -10.4m/s | -54.3°C | 0.5% | 74hPa | 2.7V | 08:28:35 | 01:17:23 | 00:00:00 | |
| SO1NDE-10 | 2026-09-04 07:50:15 | 52.65608 | 9.07669 | 114° | 37km/h | 18449m | -10.3m/s | -54.2°C | 4.1% | 74.0hPa | 2.6V | 00:00:00 | 01:17:23 | 00:00:00 | |
| DO2LYB-13 | 2026-09-04 07:50:14 | 52.65608 | 9.07669 | 115° | 35km/h | 18449m | -10.4m/s | -54.3°C | 1.2% | 74.0hPa | 2.6V | 00:00:00 | 00:00:00 | 00:00:00 | |
| DL1NUX | 2026-09-04 07:50:13 | 52.65631 | 9.07586 | 111° | 37km/h | 18519m | -9.1m/s | -54.5°C | 4.2% | 73.2hPa | 2.6V | 08:28:40 | 01:17:16 | 00:00:00 | |
| DL1XH-west | 2026-09-04 07:50:11 | 52.65621 | 9.07622 | 117° | 29km/h | 18489m | -10.5m/s | -54.5°C | 0.6% | 73.6hPa | 2.7V | 08:29:26 | 01:17:19 | 00:00:00 | |
| BIOWL1-15 | 2026-09-04 07:50:10 | 52.65625 | 9.07611 | 117° | 31km/h | 18500m | -10.3m/s | -54.5°C | 0.5% | 73.4hPa | 2.7V | 08:29:26 | 01:17:18 | 00:00:00 | |
| DO2JMG | 2026-09-04 07:50:08 | 52.65632 | 9.07586 | 112° | 37km/h | 18519m | -9.1m/s | -54.5°C | 0.5% | 73.2hPa | 2.6V | 08:29:26 | 01:17:16 | 00:00:00 | |
| GOEST3-10 | 2026-09-04 07:50:08 | 52.65632 | 9.07586 | 112° | 38km/h | 18519m | -9.0m/s | -54.4°C | 4.2% | 73.1hPa | 2.6V | 00:00:00 | 00:00:00 | 00:00:00 | |
| DN9WHV | 2026-09-04 07:50:07 | 52.65631 | 9.07586 | 113° | 37km/h | 18519m | -9.1m/s | -54.5°C | 1.1% | 73.2hPa | 2.7V | 08:29:00 | 00:00:00 | 00:00:00 | |
| DO3DL | 2026-09-04 07:50:06 | 52.65634 | 9.07571 | 105° | 40km/h | 18529m | -10.8m/s | -54.4°C | 1.1% | 73.1hPa | 2.7V | 08:29:00 | 00:00:00 | 00:00:00 | |
| DM0DOS-11 | 2026-09-04 07:50:05 | 52.65643 | 9.07453 | 93° | 46km/h | 18606m | -10.3m/s | -54.3°C | 4.2% | 72.2hPa | 2.7V | 08:28:48 | 01:17:08 | 00:00:00 | |
| HSKMA3-T | 2026-09-04 07:50:04 | 52.65639 | 9.07523 | 97° | 38km/h | 18562m | -11.8m/s | -54.6°C | 0.6% | 72.7hPa | 2.5V | 08:29:26 | 01:17:12 | 00:00:00 | |
| DJ2DS-15 | 2026-09-04 07:50:04 | 52.65639 | 9.07523 | 98° | 38km/h | 18562m | -11.7m/s | -54.6°C | 4.3% | 72.7hPa | 2.6V | 00:00:00 | 01:17:12 | 00:00:00 | |
| DL1NUX | 2026-09-04 07:50:03 | 52.65645 | 9.07417 | 97° | 42km/h | 18626m | -10.3m/s | -54.2°C | 4.1% | 72hPa | 2.6V | 08:28:50 | 01:17:06 | 00:00:00 | |
| DL1XH-west | 2026-09-04 07:50:00 | 52.65643 | 9.07453 | 94° | 46km/h | 18606m | -10.3m/s | -54.3°C | 0.6% | 72.2hPa | 2.7V | 08:29:26 | 01:17:08 | 00:00:00 | |
| BIOWL1-15 | 2026-09-04 07:49:59 | 52.65644 | 9.07434 | 95° | 44km/h | 18616m | -10.4m/s | -54.2°C | 0.5% | 72.1hPa | 2.6V | 08:29:26 | 01:17:07 | 00:00:00 | |
| DL1XH-15 | 2026-09-04 07:49:58 | 52.65652 | 9.07332 | 95° | 40km/h | 18677m | -10.4m/s | -53.3°C | 3.8% | 71.4hPa | 2.6V | 08:28:55 | 01:17:01 | 00:00:00 | |
| DO2JMG | 2026-09-04 07:49:57 | 52.65647 | 9.07399 | 99° | 42km/h | 18637m | -10.6m/s | -54.1°C | 0.5% | 71.9hPa | 2.6V | 08:29:26 | 01:17:05 | 00:00:00 | |
| DD8BA-10 | 2026-09-04 07:49:57 | 52.65647 | 9.07399 | 100° | 38km/h | 18637m | -10.5m/s | -54.0°C | 4.1% | 71.8hPa | 2.6V | 08:28:00 | 00:00:00 | 00:00:00 | |
| DN9WHV | 2026-09-04 07:49:56 | 52.65647 | 9.07399 | 100° | 42km/h | 18637m | -10.6m/s | -54.1°C | 1.1% | 71.9hPa | 2.7V | 08:29:00 | 00:00:00 | 00:00:00 | |
| DM0DOS-11 | 2026-09-04 07:49:55 | 52.65655 | 9.07285 | 91° | 35km/h | 18704m | -9m/s | -53.1°C | 3.8% | 71.1hPa | 2.7V | 08:28:58 | 01:16:58 | 00:00:00 | |
| DB0DAN | 2026-09-04 07:49:55 | 52.65650 | 9.07365 | 98° | 40km/h | 18656m | -10.9m/s | -53.6°C | 1.1% | 71.63hPa | 2.7V | 00:00:00 | 00:00:00 | 00:00:00 | |
| DF8AY | 2026-09-04 07:49:54 | 52.65652 | 9.07348 | 97° | 42km/h | 18667m | -10.4m/s | -53.4°C | 0.4% | 71.5hPa | 2.7V | 08:29:26 | 01:17:02 | 00:00:00 | |
| HSKMA3-T | 2026-09-04 07:49:54 | 52.65653 | 9.07332 | 95° | 40km/h | 18677m | -10.4m/s | -53.3°C | 0.3% | 71.4hPa | 2.6V | 08:29:26 | 01:17:01 | 00:00:00 | |
| AA1-15 | 2026-09-04 07:49:50 | 52.65655 | 9.07285 | 92° | 35km/h | 18704m | -9m/s | -53.1°C | 0.4% | 71.1hPa | 2.7V | 08:29:26 | 01:16:58 | 00:00:00 | |
| BIOWL1-15 | 2026-09-04 07:49:50 | 52.65656 | 9.07257 | 95° | 31km/h | 18721m | -8m/s | -52.9°C | 0.3% | 70.9hPa | 2.7V | 08:29:26 | 01:16:56 | 00:00:00 | |
| DL1XH-west | 2026-09-04 07:49:49 | 52.65655 | 9.07271 | 93° | 33km/h | 18713m | -8.2m/s | -53°C | 0.4% | 71hPa | 2.7V | 08:29:26 | 01:16:57 | 00:00:00 | |
| DB0NH | 2026-09-04 07:49:49 | 52.65655 | 9.07271 | 93° | 27km/h | 18714m | -8.1m/s | -52.9°C | 3.8% | 71.0hPa | 2.7V | 00:00:00 | 01:16:57 | 00:00:00 | |
| DL1XH-15 | 2026-09-04 07:49:48 | 52.65667 | 9.07198 | 110° | 29km/h | 18770m | -9.8m/s | -52.9°C | 3.7% | 70.4hPa | 2.7V | 08:29:05 | 01:16:51 | 00:00:00 | |
| DO2JMG | 2026-09-04 07:49:46 | 52.65659 | 9.07233 | 108° | 31km/h | 18742m | -10.2m/s | -52.8°C | 0.3% | 70.7hPa | 2.6V | 08:29:26 | 01:16:54 | 00:00:00 | |
| DM0DOS-11 | 2026-09-04 07:49:45 | 52.65673 | 9.07167 | 103° | 24km/h | 18803m | -9.5m/s | -53.1°C | 3.8% | 70hPa | 2.7V | 08:29:08 | 01:16:48 | 00:00:00 | |
| HSKMA3-T | 2026-09-04 07:49:43 | 52.65667 | 9.07198 | 111° | 29km/h | 18770m | -9.8m/s | -52.9°C | 0.3% | 70.4hPa | 2.7V | 08:29:26 | 01:16:51 | 00:00:00 | |
| GOEST3-10 | 2026-09-04 07:49:43 | 52.65667 | 9.07198 | 111° | 26km/h | 18771m | -9.7m/s | -52.8°C | 3.7% | 70.3hPa | 2.7V | 00:00:00 | 01:16:51 | 00:00:00 | |
| DN9WHV | 2026-09-04 07:49:42 | 52.65667 | 9.07198 | 112° | 29km/h | 18771m | -9.8m/s | -52.9°C | 1.0% | 70.4hPa | 2.7V | 08:29:00 | 00:00:00 | 00:00:00 | |
| DN9WHV | 2026-09-04 07:49:41 | 52.65669 | 9.07187 | 109° | 27km/h | 18781m | -10.8m/s | -53.0°C | 1.0% | 70.3hPa | 2.7V | 08:29:00 | 00:00:00 | 00:00:00 | |
| DB0DAN | 2026-09-04 07:49:40 | 52.65673 | 9.07167 | 104° | 22km/h | 18803m | -9.5m/s | -53.1°C | 1% | 70.04hPa | 2.7V | 00:00:00 | 00:00:00 | 00:00:00 | |
| DL1XH-west | 2026-09-04 07:49:39 | 52.65674 | 9.07157 | 99° | 24km/h | 18812m | -10m/s | -53.2°C | 0.3% | 69.9hPa | 2.7V | 08:29:26 | 01:16:47 | 00:00:00 | |
| BIOWL1-15 | 2026-09-04 07:49:38 | 52.65675 | 9.07148 | 98° | 24km/h | 18822m | -9.1m/s | -53.2°C | 0.3% | 69.8hPa | 2.6V | 08:29:26 | 01:16:46 | 00:00:00 | |
| DO2JMG | 2026-09-04 07:49:36 | 52.65676 | 9.07126 | 89° | 29km/h | 18842m | -9.7m/s | -53.3°C | 0.3% | 69.7hPa | 2.6V | 08:29:26 | 01:16:44 | 00:00:00 | |
| DM0DOS-11 | 2026-09-04 07:49:35 | 52.65673 | 9.07051 | 91° | 27km/h | 18902m | -8.1m/s | -53.3°C | 3.9% | 68.9hPa | 2.6V | 08:29:18 | 01:16:38 | 00:00:00 | |
| HSKMA3-T | 2026-09-04 07:49:33 | 52.65674 | 9.07088 | 82° | 31km/h | 18871m | -10.2m/s | -53.4°C | 0.4% | 69.3hPa | 2.7V | 08:29:26 | 01:16:41 | 00:00:00 | |
| DF8AY | 2026-09-04 07:49:32 | 52.65673 | 9.07076 | 85° | 29km/h | 18882m | -11.8m/s | -53.4°C | 0.3% | 69.2hPa | 2.6V | 08:29:26 | 01:16:40 | 00:00:00 | |
| DL1XH-west | 2026-09-04 07:49:29 | 52.65673 | 9.07039 | 95° | 27km/h | 18910m | -7.1m/s | -53.3°C | 0.4% | 68.8hPa | 2.7V | 08:29:26 | 01:16:37 | 00:00:00 | |
| SMARD9-15 | 2026-09-04 07:49:29 | 52.65674 | 9.07029 | 102° | 22km/h | 18919m | -10.4m/s | -53.4°C | 1.1% | 68.8hPa | 2.7V | 00:00:00 | 00:00:00 | 00:00:00 | |
| DL1XH-15 | 2026-09-04 07:49:28 | 52.65677 | 9.06979 | 82° | 24km/h | 18962m | -6.9m/s | -53.2°C | 3.8% | 68.3hPa | 2.7V | 08:29:25 | 01:16:31 | 00:00:00 | |
| BIOWL1-15 | 2026-09-04 07:49:28 | 52.65674 | 9.07029 | 102° | 24km/h | 18918m | -10.4m/s | -53.4°C | 0.4% | 68.8hPa | 2.7V | 08:29:26 | 01:16:36 | 00:00:00 | |
| DO2JMG | 2026-09-04 07:49:26 | 52.65677 | 9.07010 | 105° | 24km/h | 18937m | -7.6m/s | -53.3°C | 0.4% | 68.6hPa | 2.5V | 08:29:26 | 01:16:34 | 00:00:00 | |
| DB0DAN | 2026-09-04 07:49:25 | 52.65678 | 9.07000 | 94° | 26km/h | 18945m | -9m/s | -53.3°C | 1.1% | 68.51hPa | 2.6V | 00:00:00 | 00:00:00 | 00:00:00 | |
| DM0DOS-11 | 2026-09-04 07:49:25 | 52.65673 | 9.06946 | 70° | 27km/h | 18990m | -10.9m/s | -53°C | 3.7% | 68hPa | 2.6V | 08:30:00 | 01:16:28 | 00:00:00 | |
| HSKMA3-T | 2026-09-04 07:49:23 | 52.65677 | 9.06979 | 83° | 24km/h | 18962m | -6.9m/s | -53.2°C | 0.4% | 68.3hPa | 2.7V | 08:29:26 | 01:16:31 | 00:00:00 | |
| DF8AY | 2026-09-04 07:49:22 | 52.65676 | 9.06969 | 81° | 27km/h | 18970m | -9.6m/s | -53.2°C | 0.4% | 68.3hPa | 2.7V | 08:29:26 | 01:16:30 | 00:00:00 | |
| DL1XH-west | 2026-09-04 07:49:19 | 52.65671 | 9.06935 | 74° | 27km/h | 19000m | -9.9m/s | -53°C | 0.3% | 67.9hPa | 2.6V | 18:12:15 | 01:16:27 | 00:00:00 | |
| AA1-15 | 2026-09-04 07:49:18 | 52.65669 | 9.06924 | 73° | 27km/h | 19009m | -9.7m/s | -53°C | 0.3% | 67.8hPa | 2.6V | 18:12:15 | 01:16:26 | 00:00:00 | |
| BIOWL1-15 | 2026-09-04 07:49:17 | 52.65667 | 9.06913 | 69° | 26km/h | 19020m | -11.2m/s | -53.1°C | 0.3% | 67.7hPa | 2.7V | 18:12:15 | 01:16:25 | 00:00:00 | |
| DO2JMG | 2026-09-04 07:49:16 | 52.65665 | 9.06904 | 70° | 22km/h | 19031m | -10.3m/s | -53.1°C | 0.3% | 67.6hPa | 2.7V | 18:12:15 | 01:16:24 | 00:00:00 | |
| DM0DOS-11 | 2026-09-04 07:49:15 | 52.65659 | 9.06857 | 77° | 22km/h | 19085m | -11.2m/s | -53.2°C | 3.8% | 67hPa | 2.6V | 08:30:00 | 01:16:18 | 00:00:00 | |
| SO1NDE-10 | 2026-09-04 07:49:15 | 52.65663 | 9.06895 | 80° | 26km/h | 19040m | -8.0m/s | -53.1°C | 3.8% | 67.4hPa | 2.6V | 00:00:00 | 01:16:23 | 08:30:00 | |
| DN9WHV | 2026-09-04 07:49:14 | 52.65663 | 9.06895 | 81° | 22km/h | 19040m | -8.1m/s | -53.1°C | 1.0% | 67.5hPa | 2.7V | 00:00:00 | 00:00:00 | 00:00:00 | |
| DL1NUX | 2026-09-04 07:49:13 | 52.65656 | 9.06840 | 70° | 22km/h | 19107m | -12m/s | -53.3°C | 3.8% | 66.8hPa | 2.7V | 08:30:00 | 01:16:16 | 00:00:00 | |
| DF8AY | 2026-09-04 07:49:12 | 52.65660 | 9.06872 | 78° | 16km/h | 19066m | -10.5m/s | -53.3°C | 0.3% | 67.2hPa | 2.7V | 18:12:15 | 01:16:20 | 00:00:00 | |
| DL4XJ-10 | 2026-09-04 07:49:12 | 52.65660 | 9.06871 | 79° | 26km/h | 19066m | -10.4m/s | -53.8°C | 0% | 0hPa | 2.6V | 00:00:00 | 00:00:00 | 00:00:00 | |
| BIOWL9-15 | 2026-09-04 07:49:11 | 52.65658 | 9.06857 | 77° | 20km/h | 19085m | -11.2m/s | -53.2°C | 1.0% | 67.0hPa | 2.6V | 00:00:00 | 00:00:00 | 00:00:00 | |
| DL1XH1-15 | 2026-09-04 07:49:09 | 52.65648 | 9.06802 | 79° | 27km/h | 19148m | -11.4m/s | -53.6°C | 3.9% | 66.3hPa | 2.6V | 08:30:00 | 01:16:12 | 00:00:00 | |
| DL1XH-west | 2026-09-04 07:49:09 | 52.65657 | 9.06848 | 72° | 22km/h | 19096m | -11.2m/s | -53.3°C | 0.3% | 66.9hPa | 2.6V | 18:12:15 | 01:16:17 | 00:00:00 | |
| AA1-15 | 2026-09-04 07:49:08 | 52.65655 | 9.06840 | 70° | 22km/h | 19107m | -12m/s | -53.3°C | 0.3% | 66.8hPa | 2.7V | 18:12:15 | 01:16:16 | 00:00:00 | |
| BIOWL1-15 | 2026-09-04 07:49:08 | 52.65651 | 9.06822 | 70° | 24km/h | 19129m | -11m/s | -53.4°C | 0.3% | 66.5hPa | 2.7V | 18:12:15 | 01:16:14 | 00:00:00 | |
| DO2JMG | 2026-09-04 07:49:05 | 52.65650 | 9.06812 | 72° | 24km/h | 19139m | -8.2m/s | -53.5°C | 0.4% | 66.4hPa | 2.6V | 18:12:15 | 01:16:13 | 00:00:00 | |
| DJ2DS-15 | 2026-09-04 07:49:05 | 52.65648 | 9.06802 | 79° | 26km/h | 19148m | -11.5m/s | -53.6°C | 1.1% | 66.3hPa | 2.6V | 00:00:00 | 00:00:00 | 00:00:00 | |
| DJ2DS-15 | 2026-09-04 07:49:04 | 52.65648 | 9.06802 | 80° | 29km/h | 19149m | -11.4m/s | -53.5°C | 3.9% | 66.3hPa | 2.6V | 00:00:00 | 01:16:12 | 00:00:00 | |
| DL1NUX | 2026-09-04 07:49:03 | 52.65647 | 9.06734 | 93° | 29km/h | 19209m | -12.1m/s | -53.6°C | 3.9% | 65.7hPa | 2.6V | 08:30:00 | 01:16:06 | 00:00:00 | |
| HSKMA3-T | 2026-09-04 07:49:02 | 52.65646 | 9.06780 | 81° | 26km/h | 19170m | -10.3m/s | -53.7°C | 0.5% | 66.1hPa | 2.7V | 18:12:15 | 01:16:10 | 00:00:00 | |
| DF8AY | 2026-09-04 07:49:01 | 52.65645 | 9.06769 | 88° | 26km/h | 19179m | -7.3m/s | -53.7°C | 0.5% | 66hPa | 2.7V | 18:12:15 | 01:16:09 | 00:00:00 | |
| DO9LL-15 | 2026-09-04 07:49:00 | 52.65645 | 9.06758 | 97° | 27km/h | 19188m | -10.2m/s | -53.7°C | 4.0% | 65.9hPa | 2.7V | 00:00:00 | 01:16:08 | 00:00:00 | |
| DL1XH1-15 | 2026-09-04 07:48:59 | 52.65648 | 9.06688 | 89° | 29km/h | 19254m | -10.8m/s | -53.6°C | 3.9% | 65.2hPa | 2.7V | 08:30:00 | 01:16:02 | 00:00:00 | |
| BIOWL1-15 | 2026-09-04 07:48:58 | 52.65648 | 9.06711 | 95° | 27km/h | 19232m | -10.5m/s | -53.6°C | 0.4% | 65.5hPa | 2.7V | 18:12:15 | 01:16:04 | 00:00:00 | |
| DL1XH-west | 2026-09-04 07:48:58 | 52.65647 | 9.06734 | 94° | 29km/h | 19209m | -12.1m/s | -53.6°C | 0.4% | 65.7hPa | 2.6V | 18:12:15 | 01:16:06 | 00:00:00 | |
| AA1-15 | 2026-09-04 07:48:57 | 52.65647 | 9.06722 | 94° | 27km/h | 19221m | -11.8m/s | -53.6°C | 0.5% | 65.6hPa | 2.6V | 18:12:15 | 01:16:05 | 00:00:00 | |
| DL3AQ-11 | 2026-09-04 07:48:56 | 52.65648 | 9.06663 | 84° | 31km/h | 19275m | -11.0m/s | -53.5°C | 1.0% | 65.0hPa | 2.7V | 00:00:00 | 00:00:00 | 00:00:00 | |
| DB0DAN | 2026-09-04 07:48:55 | 52.65648 | 9.06700 | 91° | 26km/h | 19243m | -11.3m/s | -53.6°C | 1.1% | 65.4hPa | 2.7V | 00:00:00 | 00:00:00 | 00:00:00 | |
| DO2JMG | 2026-09-04 07:48:55 | 52.65648 | 9.06700 | 91° | 27km/h | 19243m | -11.3m/s | -53.6°C | 0.4% | 65.4hPa | 2.7V | 18:12:15 | 01:16:03 | 00:00:00 | |
| DN9WHV | 2026-09-04 07:48:54 | 52.65648 | 9.06699 | 92° | 27km/h | 19243m | -11.3m/s | -53.6°C | 1.1% | 65.4hPa | 2.6V | 00:00:00 | 00:00:00 | 00:00:00 | |
| DL1NUX | 2026-09-04 07:48:53 | 52.65647 | 9.06610 | 91° | 31km/h | 19320m | -10.1m/s | -53.2°C | 3.8% | 64.6hPa | 2.6V | 08:30:00 | 01:15:56 | 00:00:00 | |
| DF8AY | 2026-09-04 07:48:51 | 52.65647 | 9.06650 | 87° | 33km/h | 19286m | -11.3m/s | -53.4°C | 0.4% | 64.9hPa | 2.6V | 18:12:15 | 01:15:59 | 00:00:00 | |
| DL1ZP-14 | 2026-09-04 07:48:50 | 52.65647 | 9.06623 | 94° | 29km/h | 19309m | -11.9m/s | -53.3°C | 1.0% | 64.7hPa | 2.7V | 00:00:00 | 00:00:00 | 00:00:00 | |
| DL1XH1-15 | 2026-09-04 07:48:49 | 52.65651 | 9.06562 | 101° | 26km/h | 19361m | -10.2m/s | -53.1°C | 3.7% | 64.2hPa | 2.6V | 08:30:00 | 01:15:52 | 00:00:00 | |
| DL1XH-west | 2026-09-04 07:48:47 | 52.65648 | 9.06598 | 97° | 31km/h | 19330m | -10.1m/s | -53.1°C | 0.3% | 64.5hPa | 2.6V | 18:12:15 | 01:15:55 | 00:00:00 | |
| BIOWL1-15 | 2026-09-04 07:48:45 | 52.65650 | 9.06574 | 98° | 29km/h | 19350m | -10.9m/s | -53°C | 0.3% | 64.3hPa | 2.7V | 18:12:15 | 01:15:53 | 00:00:00 | |
| DO2JMG | 2026-09-04 07:48:44 | 52.65651 | 9.06562 | 101° | 27km/h | 19361m | -10.2m/s | -53.1°C | 0.3% | 64.2hPa | 2.6V | 18:12:15 | 01:15:52 | 00:00:00 | |
| DJ2DS-15 | 2026-09-04 07:48:44 | 52.65651 | 9.06562 | 102° | 22km/h | 19361m | -10.2m/s | -53.0°C | 3.7% | 64.1hPa | 2.6V | 00:00:00 | 01:15:52 | 00:00:00 | |
| DL1NUX | 2026-09-04 07:48:43 | 52.65654 | 9.06506 | 96° | 18km/h | 19422m | -7.2m/s | -53.4°C | 3.8% | 63.5hPa | 2.6V | 08:30:00 | 01:15:46 | 00:00:00 | |
| DF8AY | 2026-09-04 07:48:41 | 52.65653 | 9.06522 | 92° | 20km/h | 19404m | -11.9m/s | -53.3°C | 0.4% | 63.8hPa | 2.7V | 18:12:15 | 01:15:48 | 00:00:00 | |
| HSKMA3-T | 2026-09-04 07:48:41 | 52.65653 | 9.06531 | 92° | 24km/h | 19391m | -12.4m/s | -53.3°C | 0.3% | 63.9hPa | 2.7V | 18:12:15 | 01:15:49 | 00:00:00 | |
| BIOWL9-15 | 2026-09-04 07:48:40 | 52.65654 | 9.06514 | 95° | 18km/h | 19414m | -9.3m/s | -53.4°C | 1.0% | 63.7hPa | 2.7V | 00:00:00 | 00:00:00 | 00:00:00 | |
| DL1XH1-15 | 2026-09-04 07:48:39 | 52.65657 | 9.06473 | 101° | 22km/h | 19457m | -9.7m/s | -53.6°C | 3.8% | 63.2hPa | 2.7V | 08:30:00 | 01:15:42 | 00:00:00 | |
| DL1XH-15 | 2026-09-04 07:48:38 | 52.65658 | 9.06464 | 108° | 24km/h | 19467m | -10.8m/s | -53.7°C | 3.9% | 63.1hPa | 2.7V | 08:30:00 | 01:15:41 | 00:00:00 | |
| DL1XH-west | 2026-09-04 07:48:37 | 52.65655 | 9.06498 | 96° | 18km/h | 19429m | -6.4m/s | -53.5°C | 0.3% | 63.5hPa | 2.6V | 18:12:15 | 01:15:45 | 00:00:00 | |
| DO2JMG | 2026-09-04 07:48:34 | 52.65657 | 9.06473 | 102° | 22km/h | 19457m | -9.7m/s | -53.6°C | 0.4% | 63.2hPa | 2.7V | 18:12:15 | 01:15:42 | 00:00:00 | |
| HSKMA3-T | 2026-09-04 07:48:30 | 52.65666 | 9.06436 | 120° | 26km/h | 19500m | -9.8m/s | -53.7°C | 0.3% | 62.8hPa | 2.6V | 18:12:15 | 01:15:38 | 00:00:00 | |
| DF8AY | 2026-09-04 07:48:29 | 52.65669 | 9.06427 | 125° | 26km/h | 19509m | -9.5m/s | -53.8°C | 0.3% | 62.7hPa | 2.7V | 18:12:15 | 01:15:37 | 00:00:00 | |
| DJ2DS-15 | 2026-09-04 07:48:29 | 52.65673 | 9.06419 | 127° | 22km/h | 19519m | -9.9m/s | -53.8°C | 1.0% | 62.6hPa | 2.7V | 00:00:00 | 00:00:00 | 00:00:00 | |
| DL1XH-15 | 2026-09-04 07:48:28 | 52.65683 | 9.06391 | 90° | 11km/h | 19571m | -8.8m/s | -54°C | 3.9% | 62.1hPa | 2.7V | 08:30:00 | 01:15:31 | 00:00:00 | |
| DL1XH-west | 2026-09-04 07:48:27 | 52.65676 | 9.06412 | 131° | 20km/h | 19529m | -11.1m/s | -53.9°C | 0.4% | 62.5hPa | 2.7V | 18:12:15 | 01:15:35 | 00:00:00 | |
| BIOWL1-15 | 2026-09-04 07:48:26 | 52.65682 | 9.06396 | 102° | 11km/h | 19561m | -10.3m/s | -53.9°C | 0.4% | 62.2hPa | 2.6V | 18:12:15 | 01:15:32 | 00:00:00 | |
| DB0DAN | 2026-09-04 07:48:25 | 52.65681 | 9.06401 | 116° | 13km/h | 19550m | -11.1m/s | -53.9°C | 1.1% | 62.31hPa | 2.6V | 00:00:00 | 00:00:00 | 00:00:00 | |
| DM0DOS-11 | 2026-09-04 07:48:25 | 52.65681 | 9.06376 | 84° | 11km/h | 19599m | -7.5m/s | -54°C | 4% | 61.8hPa | 2.6V | 08:30:00 | 01:15:28 | 00:00:00 | |
| DJ2DS-15 | 2026-09-04 07:48:24 | 52.65682 | 9.06396 | 103° | 15km/h | 19561m | -10.2m/s | -53.8°C | 3.9% | 62.2hPa | 2.6V | 00:00:00 | 01:15:32 | 08:30:00 | |
| DL1NUX | 2026-09-04 07:48:23 | 52.65681 | 9.06366 | 79° | 15km/h | 19612m | -0.4m/s | -53.9°C | 4% | 61.6hPa | 2.7V | 08:30:00 | 01:15:26 | 00:00:00 | |
| DO2JMG | 2026-09-04 07:48:23 | 52.65682 | 9.06391 | 90° | 11km/h | 19571m | -8.8m/s | -54°C | 0.4% | 62.1hPa | 2.7V | 18:12:15 | 01:15:31 | 00:00:00 | |
| DF8AY | 2026-09-04 07:48:19 | 52.65681 | 9.06371 | 88° | 13km/h | 19607m | -9.2m/s | -53.9°C | 0.5% | 61.8hPa | 2.7V | 18:12:15 | 01:15:27 | 00:00:00 | |
| DL1ZP-14 | 2026-09-04 07:48:19 | 52.65681 | 9.06366 | 79° | 13km/h | 19612m | -0.4m/s | -53.9°C | 1.1% | 61.6hPa | 2.7V | 00:00:00 | 00:00:00 | 00:00:00 | |
| DL1XH-15 | 2026-09-04 07:48:18 | 52.65684 | 9.06332 | 112° | 15km/h | 19584m | 5.5m/s | -54°C | 3.9% | 61.9hPa | 2.7V | 08:30:00 | 01:15:21 | 00:00:00 | |
| DL1XH-west | 2026-09-04 07:48:16 | 52.65680 | 9.06353 | 101° | 18km/h | 19600m | 6m/s | -53.9°C | 0.5% | 61.7hPa | 2.6V | 18:12:15 | 01:15:24 | 00:00:00 | |
| BIOWL1-15 | 2026-09-04 07:48:14 | 52.65683 | 9.06338 | 109° | 18km/h | 19590m | 6m/s | -54°C | 0.4% | 61.9hPa | 2.7V | 18:12:15 | 01:15:22 | 00:00:00 | |
| DO2JMG | 2026-09-04 07:48:12 | 52.65686 | 9.06326 | 124° | 15km/h | 19578m | 6.2m/s | -54°C | 0.5% | 62hPa | 2.7V | 18:12:15 | 01:15:20 | 00:00:00 | |
| DL4XJ-10 | 2026-09-04 07:48:12 | 52.65686 | 9.06326 | 124° | 18km/h | 19579m | 6.1m/s | -54.5°C | 0% | 0hPa | 2.6V | 00:00:00 | 00:00:00 | 00:00:00 | |
| DN9WHV | 2026-09-04 07:48:11 | 52.65686 | 9.06326 | 125° | 15km/h | 19579m | 6.2m/s | -54.0°C | 1.1% | 62.0hPa | 2.6V | 00:00:00 | 00:00:00 | 00:00:00 | |
| DB0DAN | 2026-09-04 07:48:10 | 52.65691 | 9.06317 | 133° | 13km/h | 19567m | 4m/s | -53.8°C | 1.1% | 62.07hPa | 2.6V | 00:00:00 | 00:00:00 | 00:00:00 | |
| HSKMA3-T | 2026-09-04 07:48:09 | 52.65693 | 9.06313 | 125° | 13km/h | 19561m | 6.5m/s | -53.9°C | 0.4% | 62.1hPa | 2.6V | 18:12:15 | 01:15:17 | 00:00:00 | |
| BIOWL9-15 | 2026-09-04 07:48:09 | 52.65694 | 9.06308 | 111° | 11km/h | 19556m | 4.8m/s | -53.9°C | 1.1% | 62.2hPa | 2.6V | 00:00:00 | 00:00:00 | 00:00:00 | |
| DL1XH-15 | 2026-09-04 07:48:08 | 52.65702 | 9.06276 | 108° | 18km/h | 19529m | 5.1m/s | -53.9°C | 4% | 62.4hPa | 2.6V | 08:30:00 | 01:15:11 | 00:00:00 | |
| DF8AY | 2026-09-04 07:48:08 | 52.65694 | 9.06308 | 111° | 11km/h | 19556m | 4.8m/s | -53.9°C | 0.4% | 62.2hPa | 2.7V | 18:12:15 | 01:15:16 | 00:00:00 | |
| DL1XH-west | 2026-09-04 07:48:05 | 52.65698 | 9.06291 | 114° | 18km/h | 19540m | 4.8m/s | -53.8°C | 0.5% | 62.3hPa | 2.6V | 18:12:15 | 01:15:13 | 00:00:00 | |
| DO2SHX-10 | 2026-09-04 07:48:05 | 52.65698 | 9.06291 | 114° | 20km/h | 19541m | 4.7m/s | -53.8°C | 4.0% | 62.3hPa | 2.6V | 00:00:00 | 01:15:13 | 00:00:00 | |
| DJ2DS-15 | 2026-09-04 07:48:04 | 52.65700 | 9.06284 | 112° | 22km/h | 19536m | 6.1m/s | -53.8°C | 4.0% | 62.3hPa | 2.6V | 00:00:00 | 01:15:12 | 00:00:00 | |
| DL1NUX | 2026-09-04 07:48:03 | 52.65712 | 9.06232 | 109° | 20km/h | 19502m | 5.9m/s | -53.7°C | 4.1% | 62.7hPa | 2.6V | 08:30:00 | 01:15:06 | 00:00:00 | |
| BIOWL1-15 | 2026-09-04 07:48:03 | 52.65702 | 9.06276 | 108° | 18km/h | 19529m | 5.1m/s | -53.9°C | 0.5% | 62.4hPa | 2.6V | 18:12:15 | 01:15:11 | 00:00:00 | |
| DO2JMG | 2026-09-04 07:48:01 | 52.65705 | 9.06260 | 113° | 24km/h | 19518m | 6.4m/s | -53.7°C | 0.5% | 62.6hPa | 2.7V | 18:12:15 | 01:15:09 | 00:00:00 | |
| HSKMA3-T | 2026-09-04 07:47:59 | 52.65710 | 9.06241 | 111° | 24km/h | 19508m | 5.7m/s | -53.7°C | 0.5% | 62.7hPa | 2.6V | 18:12:15 | 01:15:07 | 00:00:00 | |
| DF8AY | 2026-09-04 07:47:58 | 52.65712 | 9.06232 | 110° | 20km/h | 19502m | 5.9m/s | -53.7°C | 0.5% | 62.7hPa | 2.6V | 18:12:15 | 01:15:06 | 00:00:00 | |
| BIOWL1-15 | 2026-09-04 07:47:56 | 52.65722 | 9.06187 | 104° | 18km/h | 19469m | 4m/s | -53.6°C | 0.4% | 63hPa | 2.7V | 18:12:15 | 01:15:00 | 00:00:00 | |
| SMARD9-15 | 2026-09-04 07:47:56 | 52.65717 | 9.06208 | 111° | 20km/h | 19486m | 4.9m/s | -53.6°C | 1.1% | 62.9hPa | 2.7V | 00:00:00 | 00:00:00 | 00:00:00 | |
| DB0DAN | 2026-09-04 07:47:55 | 52.65717 | 9.06208 | 111° | 20km/h | 19486m | 4.9m/s | -53.6°C | 1.1% | 62.88hPa | 2.7V | 00:00:00 | 00:00:00 | 00:00:00 | |
| DM0DOS-11 | 2026-09-04 07:47:55 | 52.65725 | 9.06171 | 105° | 24km/h | 19458m | 5.2m/s | -53.5°C | 4% | 63.1hPa | 2.6V | 08:30:00 | 01:14:58 | 00:00:00 | |
| DL1XH-west | 2026-09-04 07:47:54 | 52.65719 | 9.06201 | 110° | 18km/h | 19480m | 6.3m/s | -53.5°C | 0.5% | 62.9hPa | 2.6V | 18:12:15 | 01:15:02 | 00:00:00 | |
| DO2JMG | 2026-09-04 07:47:50 | 52.65725 | 9.06171 | 106° | 24km/h | 19458m | 5.2m/s | -53.5°C | 0.5% | 63.2hPa | 2.6V | 18:12:15 | 01:14:58 | 00:00:00 | |
| DB0UT-7 | 2026-09-04 07:47:50 | 52.65725 | 9.06171 | 106° | 26km/h | 19458m | 5.1m/s | -53.5°C | 4.0% | 63.1hPa | 2.6V | 00:00:00 | 01:14:58 | 00:00:00 | |
| DL1XH1-15 | 2026-09-04 07:47:49 | 52.65727 | 9.06111 | 93° | 27km/h | 19425m | 4.9m/s | -53.2°C | 3.8% | 63.5hPa | 2.6V | 08:30:00 | 01:14:52 | 00:00:00 | |
| DF8AY | 2026-09-04 07:47:48 | 52.65727 | 9.06151 | 98° | 24km/h | 19447m | 6.5m/s | -53.5°C | 0.4% | 63.2hPa | 2.6V | 18:12:15 | 01:14:56 | 00:00:00 | |
| DL1ZP-14 | 2026-09-04 07:47:48 | 52.65728 | 9.06142 | 89° | 22km/h | 19441m | 5.1m/s | -53.4°C | 1.0% | 63.3hPa | 2.7V | 00:00:00 | 00:00:00 | 00:00:00 | |
| DD8BA-10 | 2026-09-04 07:47:47 | 52.65727 | 9.06142 | 90° | 24km/h | 19441m | 5.1m/s | -53.4°C | 3.8% | 63.2hPa | 2.7V | 00:00:00 | 00:00:00 | 00:00:00 | |
| DF2AP-13 | 2026-09-04 07:47:46 | 52.65727 | 9.06132 | 87° | 27km/h | 19436m | 4.8m/s | -53.4°C | 3.9% | 63.3hPa | 2.7V | 00:00:00 | 01:14:54 | 00:00:00 | |
| DM0DOS-11 | 2026-09-04 07:47:45 | 52.65732 | 9.06072 | 111° | 26km/h | 19402m | 6.3m/s | -53.1°C | 3.8% | 63.7hPa | 2.7V | 08:30:00 | 01:14:48 | 00:00:00 | |
| DL1XH-west | 2026-09-04 07:47:44 | 52.65727 | 9.06111 | 93° | 27km/h | 19425m | 4.9m/s | -53.3°C | 0.4% | 63.5hPa | 2.6V | 18:12:15 | 01:14:52 | 00:00:00 | |
| AA1-15 | 2026-09-04 07:47:43 | 52.65728 | 9.06101 | 96° | 24km/h | 19419m | 6.4m/s | -53.3°C | 0.4% | 63.5hPa | 2.6V | 18:12:15 | 01:14:51 | 00:00:00 | |
| BIOWL1-15 | 2026-09-04 07:47:43 | 52.65730 | 9.06082 | 108° | 24km/h | 19408m | 4.8m/s | -53.2°C | 0.4% | 63.6hPa | 2.7V | 18:12:15 | 01:14:49 | 00:00:00 | |
| DO2JMG | 2026-09-04 07:47:40 | 52.65732 | 9.06072 | 111° | 26km/h | 19402m | 6.3m/s | -53.1°C | 0.4% | 63.7hPa | 2.7V | 18:12:15 | 01:14:48 | 00:00:00 | |
| HSKMA3-T | 2026-09-04 07:47:39 | 52.65737 | 9.06054 | 114° | 24km/h | 19391m | 6.5m/s | -53°C | 0.4% | 63.8hPa | 2.6V | 18:12:15 | 01:14:46 | 00:00:00 | |
| DL1XH1-15 | 2026-09-04 07:47:39 | 52.65742 | 9.06013 | 86° | 29km/h | 19369m | 5.3m/s | -52.9°C | 3.8% | 64hPa | 2.7V | 08:30:00 | 01:14:42 | 00:00:00 | |
| DF8AY | 2026-09-04 07:47:37 | 52.65739 | 9.06045 | 108° | 22km/h | 19386m | 4.4m/s | -53°C | 0.3% | 63.9hPa | 2.6V | 18:12:15 | 01:14:45 | 00:00:00 | |
| DL3AQ-11 | 2026-09-04 07:47:36 | 52.65742 | 9.06025 | 94° | 27km/h | 19375m | 5.9m/s | -53.0°C | 1.0% | 64.0hPa | 2.6V | 00:00:00 | 00:00:00 | 00:00:00 | |
| DM0DOS-11 | 2026-09-04 07:47:35 | 52.65738 | 9.05965 | 84° | 31km/h | 19347m | 5.3m/s | -52.9°C | 3.7% | 64.2hPa | 2.6V | 08:30:00 | 01:14:38 | 00:00:00 | |
| DL1XH-west | 2026-09-04 07:47:33 | 52.65741 | 9.06002 | 81° | 27km/h | 19363m | 6.3m/s | -52.9°C | 0.3% | 64.1hPa | 2.7V | 18:12:15 | 01:14:41 | 00:00:00 | |
| BIOWL1-15 | 2026-09-04 07:47:33 | 52.65738 | 9.05978 | 81° | 31km/h | 19353m | 6.1m/s | -52.9°C | 0.3% | 64.2hPa | 2.6V | 18:12:15 | 01:14:39 | 00:00:00 | |
| AA1-15 | 2026-09-04 07:47:32 | 52.65740 | 9.05990 | 78° | 29km/h | 19358m | 4.2m/s | -52.9°C | 0.3% | 64.1hPa | 2.6V | 18:12:15 | 01:14:40 | 00:00:00 | |
| DO2JMG | 2026-09-04 07:47:30 | 52.65737 | 9.05965 | 85° | 31km/h | 19347m | 5.3m/s | -52.9°C | 0.3% | 64.2hPa | 2.6V | 18:12:15 | 01:14:38 | 00:00:00 | |
| DN9WHV | 2026-09-04 07:47:30 | 52.65738 | 9.05965 | 86° | 31km/h | 19347m | 5.3m/s | -52.9°C | 1.0% | 64.2hPa | 2.7V | 00:00:00 | 00:00:00 | 00:00:00 | |
| DL1XH1-15 | 2026-09-04 07:47:29 | 52.65742 | 9.05901 | 110° | 26km/h | 19315m | 4.1m/s | -53.2°C | 3.8% | 64.6hPa | 2.7V | 08:30:00 | 01:14:32 | 00:00:00 | |
| DF8AY | 2026-09-04 07:47:27 | 52.65738 | 9.05930 | 95° | 24km/h | 19330m | 4.6m/s | -53.1°C | 0.3% | 64.4hPa | 2.6V | 18:12:15 | 01:14:35 | 00:00:00 | |
| DD8BA-10 | 2026-09-04 07:47:27 | 52.65738 | 9.05930 | 96° | 27km/h | 19331m | 4.5m/s | -53.1°C | 3.7% | 64.3hPa | 2.6V | 00:00:00 | 00:00:00 | 00:00:00 | |
| DM0DOS-11 | 2026-09-04 07:47:26 | 52.65748 | 9.05860 | 96° | 31km/h | 19293m | 5.6m/s | -53.3°C | 3.8% | 64.8hPa | 2.7V | 08:30:00 | 01:14:28 | 00:00:00 | |
| DO2SHX-10 | 2026-09-04 07:47:26 | 52.65738 | 9.05920 | 103° | 26km/h | 19326m | 4.3m/s | -53.2°C | 3.7% | 64.4hPa | 2.6V | 00:00:00 | 01:14:34 | 00:00:00 | |
| DL8OAI-8 | 2026-09-04 07:47:25 | 52.65739 | 9.05921 | 103° | 24km/h | 19326m | 4.4m/s | -53.3°C | 1.0% | 64.4hPa | 2.7V | 00:00:00 | 00:00:00 | 00:00:00 | |
| DB0DAN | 2026-09-04 07:47:25 | 52.65740 | 9.05911 | 108° | 24km/h | 19321m | 6.2m/s | -53.2°C | 1% | 64.48hPa | 2.7V | 00:00:00 | 00:00:00 | 00:00:00 | |
| DJ2DS-15 | 2026-09-04 07:47:24 | 52.65742 | 9.05901 | 111° | 29km/h | 19315m | 4.1m/s | -53.2°C | 3.8% | 64.5hPa | 2.7V | 00:00:00 | 01:14:32 | 00:00:00 | |
| DL1NUX | 2026-09-04 07:47:23 | 52.65748 | 9.05834 | 84° | 33km/h | 19282m | 6.5m/s | -53.4°C | 3.8% | 64.9hPa | 2.7V | 08:30:00 | 01:14:26 | 00:00:00 | |
| DL1XH-west | 2026-09-04 07:47:23 | 52.65744 | 9.05892 | 108° | 24km/h | 19310m | 6.5m/s | -53.3°C | 0.3% | 64.6hPa | 2.6V | 18:12:15 | 01:14:31 | 00:00:00 | |
| BIOWL1-15 | 2026-09-04 07:47:22 | 52.65748 | 9.05860 | 96° | 31km/h | 19293m | 5.6m/s | -53.3°C | 0.4% | 64.8hPa | 2.7V | 18:12:15 | 01:14:28 | 00:00:00 | |
| AA1-15 | 2026-09-04 07:47:22 | 52.65746 | 9.05882 | 102° | 24km/h | 19305m | 4.8m/s | -53.3°C | 0.4% | 64.6hPa | 2.6V | 18:12:15 | 01:14:30 | 00:00:00 | |
| DO2JMG | 2026-09-04 07:47:19 | 52.65748 | 9.05847 | 90° | 33km/h | 19288m | 5m/s | -53.3°C | 0.4% | 64.8hPa | 2.7V | 18:12:15 | 01:14:27 | 00:00:00 | |
| DB0NH | 2026-09-04 07:47:19 | 52.65748 | 9.05847 | 91° | 27km/h | 19288m | 5.0m/s | -53.2°C | 3.8% | 64.8hPa | 2.7V | 00:00:00 | 01:14:27 | 00:00:00 | |
| DL1XH-15 | 2026-09-04 07:47:18 | 52.65743 | 9.05760 | 89° | 35km/h | 19256m | 5.4m/s | -53.5°C | 3.9% | 65.1hPa | 2.7V | 08:30:00 | 01:14:21 | 00:00:00 | |
| DF8AY | 2026-09-04 07:47:17 | 52.65747 | 9.05820 | 80° | 33km/h | 19276m | 4.8m/s | -53.4°C | 0.4% | 65hPa | 2.6V | 18:12:15 | 01:14:25 | 00:00:00 | |
| HSKMA3-T | 2026-09-04 07:47:16 | 52.65745 | 9.05806 | 81° | 37km/h | 19272m | 5.2m/s | -53.4°C | 0.4% | 65hPa | 2.6V | 18:12:15 | 01:14:24 | 00:00:00 | |
| DF2AP-13 | 2026-09-04 07:47:16 | 52.65745 | 9.05806 | 81° | 27km/h | 19272m | 5.2m/s | -53.4°C | 3.8% | 65.0hPa | 2.6V | 00:00:00 | 01:14:24 | 00:00:00 | |
| DM0DOS-11 | 2026-09-04 07:47:15 | 52.65744 | 9.05722 | 94° | 29km/h | 19241m | 5.5m/s | -53.4°C | 3.8% | 65.3hPa | 2.6V | 08:30:00 | 01:14:18 | 00:00:00 | |
| DL1XH-west | 2026-09-04 07:47:13 | 52.65743 | 9.05760 | 90° | 35km/h | 19256m | 5.4m/s | -53.5°C | 0.4% | 65.2hPa | 2.7V | 18:12:15 | 01:14:21 | 00:00:00 | |
| GOEST3-10 | 2026-09-04 07:47:13 | 52.65743 | 9.05760 | 90° | 31km/h | 19257m | 5.4m/s | -53.5°C | 3.9% | 65.1hPa | 2.6V | 00:00:00 | 01:14:21 | 00:00:00 | |
| DL4XJ-10 | 2026-09-04 07:47:12 | 52.65743 | 9.05746 | 91° | 27km/h | 19252m | 5.4m/s | -54.0°C | 0% | 0hPa | 2.6V | 00:00:00 | 00:00:00 | 00:00:00 | |
| AA1-15 | 2026-09-04 07:47:12 | 52.65743 | 9.05746 | 90° | 31km/h | 19251m | 5.4m/s | -53.5°C | 0.4% | 65.2hPa | 2.7V | 18:12:15 | 01:14:20 | 00:00:00 | |
| DD1CC3-15 | 2026-09-04 07:47:11 | 52.65743 | 9.05746 | 91° | 31km/h | 19251m | 5.4m/s | -53.5°C | 1.1% | 65.2hPa | 2.6V | 00:00:00 | 00:00:00 | 00:00:00 | |
| DB0DAN | 2026-09-04 07:47:10 | 52.65744 | 9.05722 | 95° | 27km/h | 19241m | 5.5m/s | -53.4°C | 1% | 65.31hPa | 2.6V | 00:00:00 | 00:00:00 | 00:00:00 | |
| DO2JMG | 2026-09-04 07:47:09 | 52.65745 | 9.05710 | 99° | 29km/h | 19236m | 5.4m/s | -53.4°C | 0.3% | 65.4hPa | 2.6V | 18:12:15 | 01:14:17 | 00:00:00 | |
| S3001 | 2026-09-04 07:47:09 | 52.65748 | 9.05677 | 97° | 26km/h | 19220m | 4.6m/s | -53.6°C | 1.1% | 65.5hPa | 2.6V | 00:00:00 | 00:00:00 | 00:00:00 | |
| DL1XH-15 | 2026-09-04 07:47:08 | 52.65747 | 9.05641 | 72° | 31km/h | 19204m | 5.5m/s | -53.6°C | 4% | 65.7hPa | 2.6V | 08:30:00 | 01:14:11 | 00:00:00 | |
| DF8AY | 2026-09-04 07:47:08 | 52.65747 | 9.05687 | 102° | 26km/h | 19226m | 6.2m/s | -53.6°C | 0.4% | 65.5hPa | 2.7V | 18:12:15 | 01:14:15 | 00:00:00 | |
| HSKMA3-T | 2026-09-04 07:47:06 | 52.65749 | 9.05666 | 91° | 29km/h | 19215m | 6.6m/s | -53.6°C | 0.4% | 65.6hPa | 2.6V | 18:12:15 | 01:14:13 | 00:00:00 | |
| DM0DOS-11 | 2026-09-04 07:47:05 | 52.65738 | 9.05606 | 66° | 31km/h | 19188m | 6.2m/s | -53.6°C | 4% | 65.8hPa | 2.6V | 08:30:00 | 01:14:08 | 00:00:00 | |
| DL1XH-west | 2026-09-04 07:47:03 | 52.65747 | 9.05641 | 73° | 31km/h | 19204m | 5.5m/s | -53.6°C | 0.5% | 65.7hPa | 2.6V | 18:12:15 | 01:14:11 | 00:00:00 | |
| AA1-15 | 2026-09-04 07:47:01 | 52.65741 | 9.05618 | 64° | 31km/h | 19194m | 4.2m/s | -53.6°C | 0.6% | 65.8hPa | 2.7V | 18:12:15 | 01:14:09 | 00:00:00 | |
| BIOWL1-15 | 2026-09-04 07:46:59 | 52.65734 | 9.05594 | 70° | 31km/h | 19183m | 4.9m/s | -53.6°C | 0.5% | 65.9hPa | 2.6V | 18:12:15 | 01:14:07 | 00:00:00 | |
| DO2JMG | 2026-09-04 07:46:58 | 52.65732 | 9.05582 | 73° | 26km/h | 19177m | 5.9m/s | -53.7°C | 0.5% | 66hPa | 2.7V | 18:12:15 | 01:14:06 | 00:00:00 | |
| DF8AY | 2026-09-04 07:46:56 | 52.65730 | 9.05564 | 86° | 20km/h | 19166m | 4.7m/s | -53.5°C | 0.5% | 66.1hPa | 2.6V | 18:12:15 | 01:14:04 | 00:00:00 | |
| HSKMA3-T | 2026-09-04 07:46:55 | 52.65730 | 9.05555 | 90° | 22km/h | 19161m | 6.5m/s | -53.5°C | 0.4% | 66.2hPa | 2.6V | 18:12:15 | 01:14:03 | 00:00:00 | |
| DL1XH-west | 2026-09-04 07:46:52 | 52.65731 | 9.05532 | 94° | 16km/h | 19144m | 5m/s | -53.4°C | 0.3% | 66.3hPa | 2.7V | 18:12:15 | 01:14:00 | 00:00:00 | |
| AA1-15 | 2026-09-04 07:46:51 | 52.65731 | 9.05525 | 94° | 16km/h | 19139m | 5.2m/s | -53.4°C | 0.4% | 66.4hPa | 2.7V | 18:12:15 | 01:13:59 | 00:00:00 | |
| BIOWL1-15 | 2026-09-04 07:46:51 | 52.65731 | 9.05508 | 88° | 24km/h | 19127m | 5.1m/s | -53.3°C | 0.4% | 66.5hPa | 2.6V | 18:12:15 | 01:13:57 | 00:00:00 | |
| DO2JMG | 2026-09-04 07:46:48 | 52.65731 | 9.05498 | 84° | 26km/h | 19122m | 4.7m/s | -53.2°C | 0.4% | 66.6hPa | 2.6V | 18:12:15 | 01:13:56 | 00:00:00 | |
| DF8AY | 2026-09-04 07:46:46 | 52.65728 | 9.05477 | 78° | 26km/h | 19112m | 4m/s | -53.1°C | 0.4% | 66.6hPa | 2.7V | 18:12:15 | 01:13:54 | 00:00:00 | |
| DF2AP-13 | 2026-09-04 07:46:46 | 52.65728 | 9.05477 | 78° | 24km/h | 19112m | 4.0m/s | -53.1°C | 3.9% | 66.6hPa | 2.7V | 00:00:00 | 01:13:54 | 08:30:00 | |
| DM0DOS-11 | 2026-09-04 07:46:45 | 52.65720 | 9.05421 | 77° | 18km/h | 19080m | 6.1m/s | -53.2°C | 3.7% | 67hPa | 2.7V | 08:30:00 | 01:13:48 | 00:00:00 | |
| HSKMA3-T | 2026-09-04 07:46:45 | 52.65727 | 9.05467 | 80° | 27km/h | 19107m | 6.4m/s | -53.1°C | 0.5% | 66.7hPa | 2.7V | 18:12:15 | 01:13:53 | 00:00:00 | |
| EDDB2-12 | 2026-09-04 07:46:44 | 52.65726 | 9.05456 | 80° | 26km/h | 19101m | 5.3m/s | -53.1°C | 1.1% | 66.8hPa | 2.6V | 00:00:00 | 00:00:00 | 00:00:00 | |
| DL1XH-west | 2026-09-04 07:46:42 | 52.65723 | 9.05437 | 70° | 20km/h | 19089m | 4.9m/s | -53.1°C | 0.5% | 66.9hPa | 2.6V | 18:12:15 | 01:13:50 | 00:00:00 | |
| AA1-15 | 2026-09-04 07:46:41 | 52.65721 | 9.05429 | 73° | 18km/h | 19085m | 4m/s | -53.1°C | 0.3% | 67hPa | 2.7V | 18:12:15 | 01:13:49 | 00:00:00 | |
| BIOWL1-15 | 2026-09-04 07:46:40 | 52.65719 | 9.05406 | 88° | 20km/h | 19069m | 4.7m/s | -53.2°C | 0.4% | 67.1hPa | 2.6V | 18:12:15 | 01:13:46 | 00:00:00 | |
| SONDE2-11 | 2026-09-04 07:46:40 | 52.65720 | 9.05421 | 77° | 18km/h | 19080m | 6.1m/s | -53.2°C | 1.0% | 67.0hPa | 2.7V | 00:00:00 | 00:00:00 | 00:00:00 | |
| DL1XH1-15 | 2026-09-04 07:46:39 | 52.65712 | 9.05373 | 63° | 24km/h | 19048m | 6.4m/s | -53°C | 3.9% | 67.3hPa | 2.7V | 08:30:00 | 01:13:42 | 00:00:00 | |
| DO2JMG | 2026-09-04 07:46:37 | 52.65719 | 9.05397 | 79° | 20km/h | 19064m | 5.4m/s | -53.2°C | 0.4% | 67.2hPa | 2.6V | 18:12:15 | 01:13:45 | 00:00:00 | |
| DF8AY | 2026-09-04 07:46:35 | 52.65715 | 9.05382 | 62° | 22km/h | 19053m | 4.8m/s | -53.2°C | 0.4% | 67.2hPa | 2.7V | 18:12:15 | 01:13:43 | 00:00:00 | |
| HSKMA3-T | 2026-09-04 07:46:34 | 52.65712 | 9.05373 | 64° | 24km/h | 19048m | 6.4m/s | -53°C | 0.4% | 67.3hPa | 2.7V | 18:12:15 | 01:13:42 | 00:00:00 | |
| DL1XH-west | 2026-09-04 07:46:32 | 52.65707 | 9.05354 | 66° | 27km/h | 19038m | 3.5m/s | -53°C | 0.4% | 67.4hPa | 2.6V | 18:12:15 | 01:13:40 | 00:00:00 | |
| AA1-15 | 2026-09-04 07:46:30 | 52.65700 | 9.05334 | 57° | 27km/h | 19027m | 5.1m/s | -53°C | 0.4% | 67.5hPa | 2.7V | 18:12:15 | 01:13:38 | 00:00:00 | |
| BIOWL1-15 | 2026-09-04 07:46:28 | 52.65694 | 9.05315 | 69° | 26km/h | 19016m | 6.8m/s | -53°C | 0.3% | 67.7hPa | 2.6V | 18:12:15 | 01:13:36 | 00:00:00 | |
| DO2JMG | 2026-09-04 07:46:27 | 52.65692 | 9.05305 | 79° | 24km/h | 19011m | 5m/s | -53°C | 0.3% | 67.7hPa | 2.7V | 18:12:15 | 01:13:35 | 00:00:00 | |
| DB0DAN | 2026-09-04 07:46:25 | 52.65691 | 9.05286 | 85° | 18km/h | 18998m | 5.4m/s | -52.9°C | 1% | 67.88hPa | 2.6V | 00:00:00 | 00:00:00 | 00:00:00 | |
| DM0DOS-11 | 2026-09-04 07:46:25 | 52.65697 | 9.05244 | 104° | 20km/h | 18972m | 6.1m/s | -53.1°C | 3.8% | 68.1hPa | 2.7V | 08:30:00 | 01:13:28 | 00:00:00 | |
| DF8AY | 2026-09-04 07:46:25 | 52.65691 | 9.05286 | 85° | 20km/h | 18998m | 5.4m/s | -52.9°C | 0.3% | 67.9hPa | 2.6V | 18:12:15 | 01:13:33 | 00:00:00 | |
| HSKMA3-T | 2026-09-04 07:46:23 | 52.65692 | 9.05270 | 106° | 22km/h | 18988m | 6.5m/s | -53.1°C | 0.3% | 67.9hPa | 2.6V | 18:12:15 | 01:13:31 | 00:00:00 | |
| DL1NUX | 2026-09-04 07:46:23 | 52.65698 | 9.05227 | 86° | 22km/h | 18961m | 6.2m/s | -53.2°C | 3.8% | 68.2hPa | 2.6V | 08:30:00 | 01:13:26 | 00:00:00 | |
| DL1XH-west | 2026-09-04 07:46:22 | 52.65694 | 9.05261 | 113° | 24km/h | 18982m | 4.7m/s | -53.1°C | 0.3% | 68hPa | 2.7V | 18:12:15 | 01:13:30 | 00:00:00 | |
| DL4BBY-15 | 2026-09-04 07:46:20 | 52.65697 | 9.05244 | 105° | 27km/h | 18972m | 6.1m/s | -53.7°C | 0% | 0hPa | 2.7V | 00:00:00 | 00:00:00 | 00:00:00 | |
| DL1XH1-15 | 2026-09-04 07:46:19 | 52.65692 | 9.05180 | 72° | 31km/h | 18938m | 4.8m/s | -53.3°C | 3.8% | 68.5hPa | 2.7V | 08:30:00 | 01:13:22 | 00:00:00 | |
| AA1-15 | 2026-09-04 07:46:19 | 52.65698 | 9.05236 | 92° | 20km/h | 18967m | 4.5m/s | -53.2°C | 0.3% | 68.2hPa | 2.6V | 18:12:15 | 01:13:27 | 00:00:00 | |
| BIOWL1-15 | 2026-09-04 07:46:17 | 52.65697 | 9.05217 | 83° | 27km/h | 18956m | 5.6m/s | -53.2°C | 0.3% | 68.3hPa | 2.6V | 18:12:15 | 01:13:25 | 00:00:00 | |
| DO2JMG | 2026-09-04 07:46:16 | 52.65696 | 9.05205 | 79° | 31km/h | 18950m | 5.6m/s | -53.2°C | 0.3% | 68.3hPa | 2.7V | 18:12:15 | 01:13:24 | 00:00:00 | |
| DF8AY | 2026-09-04 07:46:14 | 52.65692 | 9.05180 | 72° | 31km/h | 18938m | 4.8m/s | -53.3°C | 0.4% | 68.5hPa | 2.7V | 18:12:15 | 01:13:22 | 00:00:00 | |
| DO2SHX-10 | 2026-09-04 07:46:14 | 52.65692 | 9.05180 | 73° | 33km/h | 18938m | 4.8m/s | -53.2°C | 3.8% | 68.4hPa | 2.6V | 00:00:00 | 01:13:22 | 00:00:00 | |
| DL1NUX | 2026-09-04 07:46:13 | 52.65691 | 9.05103 | 107° | 29km/h | 18906m | 6.4m/s | -53.3°C | 3.9% | 68.8hPa | 2.6V | 08:30:00 | 01:13:16 | 00:00:00 | |
| HSKMA3-T | 2026-09-04 07:46:12 | 52.65688 | 9.05153 | 83° | 33km/h | 18928m | 6.2m/s | -53.3°C | 0.4% | 68.6hPa | 2.6V | 18:12:15 | 01:13:20 | 00:00:00 | |
| DL1XH-west | 2026-09-04 07:46:11 | 52.65688 | 9.05140 | 91° | 33km/h | 18923m | 4m/s | -53.3°C | 0.4% | 68.7hPa | 2.6V | 18:12:15 | 01:13:19 | 00:00:00 | |
| DO2SHX-10 | 2026-09-04 07:46:10 | 52.65688 | 9.05127 | 96° | 29km/h | 18918m | 6.5m/s | -53.2°C | 3.8% | 68.7hPa | 2.7V | 00:00:00 | 01:13:18 | 08:30:00 | |
| DL1XH1-15 | 2026-09-04 07:46:09 | 52.65699 | 9.05064 | 91° | 20km/h | 18884m | 4.6m/s | -53.4°C | 3.9% | 69hPa | 2.6V | 08:30:00 | 01:13:12 | 00:00:00 | |
| SONDE2-11 | 2026-09-04 07:46:09 | 52.65691 | 9.05103 | 107° | 27km/h | 18906m | 6.4m/s | -53.3°C | 1.1% | 68.8hPa | 2.6V | 00:00:00 | 00:00:00 | 00:00:00 | |
| DL1XH-15 | 2026-09-04 07:46:08 | 52.65698 | 9.05055 | 84° | 24km/h | 18879m | 6.5m/s | -53.4°C | 3.9% | 69.1hPa | 2.6V | 08:30:00 | 01:13:11 | 00:00:00 | |
| AA1-15 | 2026-09-04 07:46:08 | 52.65691 | 9.05103 | 108° | 29km/h | 18906m | 6.4m/s | -53.3°C | 0.4% | 68.8hPa | 2.6V | 18:12:15 | 01:13:16 | 00:00:00 | |
| BIOWL1-15 | 2026-09-04 07:46:07 | 52.65694 | 9.05092 | 111° | 27km/h | 18900m | 4.9m/s | -53.3°C | 0.4% | 68.9hPa | 2.6V | 18:12:15 | 01:13:15 | 00:00:00 | |
| DO2JMG | 2026-09-04 07:46:05 | 52.65698 | 9.05073 | 104° | 22km/h | 18890m | 6m/s | -53.3°C | 0.4% | 69hPa | 2.7V | 18:12:15 | 01:13:13 | 00:00:00 | |
| DF8AY | 2026-09-04 07:46:03 | 52.65698 | 9.05055 | 85° | 24km/h | 18879m | 6.5m/s | -53.4°C | 0.4% | 69.1hPa | 2.6V | 18:12:15 | 01:13:11 | 00:00:00 | |
| HSKMA3-T | 2026-09-04 07:46:01 | 52.65696 | 9.05033 | 81° | 29km/h | 18869m | 3.9m/s | -53.3°C | 0.5% | 69.2hPa | 2.7V | 18:12:15 | 01:13:09 | 00:00:00 | |
| DL1XH-west | 2026-09-04 07:46:00 | 52.65695 | 9.05022 | 82° | 27km/h | 18865m | 5.6m/s | -53.2°C | 0.4% | 69.2hPa | 2.7V | 18:12:15 | 01:13:08 | 00:00:00 | |
| DO9LL-15 | 2026-09-04 07:46:00 | 52.65695 | 9.05022 | 82° | 29km/h | 18865m | 5.6m/s | -53.2°C | 3.9% | 69.2hPa | 2.7V | 00:00:00 | 01:13:08 | 00:00:00 | |
| DL1XH1-15 | 2026-09-04 07:45:59 | 52.65702 | 9.04955 | 116° | 26km/h | 18832m | 5m/s | -53.2°C | 3.8% | 69.6hPa | 2.7V | 08:30:00 | 01:13:02 | 00:00:00 | |
| DL1XH-15 | 2026-09-04 07:45:58 | 52.65705 | 9.04945 | 116° | 26km/h | 18827m | 6.3m/s | -53.2°C | 3.8% | 69.7hPa | 2.7V | 08:30:00 | 01:13:01 | 00:00:00 | |
| BIOWL1-15 | 2026-09-04 07:45:58 | 52.65697 | 9.04976 | 106° | 29km/h | 18844m | 4m/s | -53.2°C | 0.4% | 69.5hPa | 2.6V | 18:12:15 | 01:13:04 | 00:00:00 | |
| AA1-15 | 2026-09-04 07:45:57 | 52.65696 | 9.04988 | 100° | 29km/h | 18849m | 6m/s | -53.3°C | 0.4% | 69.5hPa | 2.6V | 18:12:15 | 01:13:05 | 00:00:00 | |
| DD8BA-10 | 2026-09-04 07:45:57 | 52.65695 | 9.04988 | 100° | 26km/h | 18849m | 5.9m/s | -53.2°C | 3.9% | 69.4hPa | 2.6V | 00:00:00 | 00:00:00 | 00:00:00 | |
| AP2371 | 2026-09-04 07:45:56 | 52.65695 | 9.04988 | 101° | 29km/h | 18849m | 6.0m/s | -53.3°C | 1.1% | 69.4hPa | 2.7V | 00:00:00 | 00:00:00 | 00:00:00 | |
| DB0DAN | 2026-09-04 07:45:55 | 52.65699 | 9.04965 | 111° | 26km/h | 18838m | 6.7m/s | -53.2°C | 1.1% | 69.56hPa | 2.7V | 00:00:00 | 00:00:00 | 00:00:00 | |
| DF8AY | 2026-09-04 07:45:54 | 52.65705 | 9.04945 | 117° | 26km/h | 18827m | 6.3m/s | -53.2°C | 0.4% | 69.7hPa | 2.7V | 18:12:15 | 01:13:01 | 00:00:00 | |
| DO2JMG | 2026-09-04 07:45:54 | 52.65702 | 9.04955 | 116° | 26km/h | 18832m | 5m/s | -53.2°C | 0.4% | 69.7hPa | 2.7V | 18:12:15 | 01:13:02 | 00:00:00 | |
| HSKMA3-T | 2026-09-04 07:45:51 | 52.65711 | 9.04926 | 114° | 24km/h | 18816m | 4.8m/s | -53.2°C | 0.3% | 69.8hPa | 2.6V | 18:12:15 | 01:12:59 | 00:00:00 | |
| DB0UT-7 | 2026-09-04 07:45:50 | 52.65713 | 9.04917 | 111° | 35km/h | 18811m | 6.0m/s | -53.2°C | 3.7% | 69.8hPa | 2.6V | 00:00:00 | 01:12:58 | 00:00:00 | |
| DL1XH1-15 | 2026-09-04 07:45:49 | 52.65714 | 9.04850 | 91° | 31km/h | 18778m | 4.4m/s | -52.8°C | 3.9% | 70.2hPa | 2.6V | 08:30:00 | 01:12:52 | 00:00:00 | |
| DL1XH-west | 2026-09-04 07:45:49 | 52.65714 | 9.04909 | 101° | 20km/h | 18805m | 5.6m/s | -53.1°C | 0.4% | 69.9hPa | 2.7V | 18:12:15 | 01:12:57 | 00:00:00 | |
| DB0NH | 2026-09-04 07:45:49 | 52.65714 | 9.04908 | 102° | 35km/h | 18805m | 5.5m/s | -53.1°C | 3.8% | 69.9hPa | 2.7V | 00:00:00 | 01:12:57 | 08:30:00 | |
| DL1XH-15 | 2026-09-04 07:45:48 | 52.65715 | 9.04836 | 98° | 35km/h | 18774m | 3.6m/s | -52.7°C | 3.8% | 70.2hPa | 2.7V | 08:30:00 | 01:12:51 | 00:00:00 | |
| DF8AY | 2026-09-04 07:45:47 | 52.65717 | 9.04822 | 103° | 37km/h | 18769m | 6.5m/s | -52.7°C | 0.4% | 70.3hPa | 2.7V | 18:12:15 | 01:12:50 | 00:00:00 | |
| AA1-15 | 2026-09-04 07:45:46 | 52.65715 | 9.04876 | 88° | 31km/h | 18788m | 3.9m/s | -52.8°C | 0.5% | 70.1hPa | 2.6V | 18:12:15 | 01:12:54 | 00:00:00 | |
| DF2AP-13 | 2026-09-04 07:45:46 | 52.65715 | 9.04876 | 88° | 37km/h | 18788m | 3.9m/s | -52.8°C | 3.9% | 70.1hPa | 2.6V | 00:00:00 | 01:12:54 | 00:00:00 | |
| DM0DOS-11 | 2026-09-04 07:45:45 | 52.65723 | 9.04792 | 113° | 37km/h | 18759m | 4.3m/s | -52.7°C | 3.7% | 70.4hPa | 2.6V | 08:30:00 | 01:12:48 | 00:00:00 | |
| DO2JMG | 2026-09-04 07:45:44 | 52.65714 | 9.04850 | 92° | 31km/h | 18778m | 4.4m/s | -52.8°C | 0.5% | 70.2hPa | 2.6V | 18:12:15 | 01:12:52 | 00:00:00 | |
| DJ2DS-15 | 2026-09-04 07:45:44 | 52.65714 | 9.04850 | 92° | 35km/h | 18778m | 4.3m/s | -52.7°C | 3.9% | 70.2hPa | 2.7V | 00:00:00 | 01:12:52 | 00:00:00 | |
| DL1NUX | 2026-09-04 07:45:43 | 52.65730 | 9.04767 | 112° | 27km/h | 18747m | 4.9m/s | -52.8°C | 3.5% | 70.5hPa | 2.7V | 08:30:00 | 01:12:46 | 00:00:00 | |
| HSKMA3-T | 2026-09-04 07:45:41 | 52.65720 | 9.04807 | 109° | 38km/h | 18763m | 4.8m/s | -52.7°C | 0.3% | 70.4hPa | 2.6V | 18:12:15 | 01:12:49 | 00:00:00 | |
| DB0DAN | 2026-09-04 07:45:40 | 52.65723 | 9.04792 | 113° | 35km/h | 18759m | 4.3m/s | -52.7°C | 1% | 70.42hPa | 2.6V | 00:00:00 | 00:00:00 | 00:00:00 | |
| DL1XH-west | 2026-09-04 07:45:39 | 52.65727 | 9.04778 | 115° | 33km/h | 18753m | 6.7m/s | -52.8°C | 0.3% | 70.5hPa | 2.7V | 18:12:15 | 01:12:47 | 00:00:00 | |
| DL1XH-15 | 2026-09-04 07:45:38 | 52.65736 | 9.04716 | 96° | 26km/h | 18720m | 6.8m/s | -53.2°C | 3.6% | 70.8hPa | 2.7V | 08:30:00 | 01:12:41 | 00:00:00 | |
| BIOWL1-15 | 2026-09-04 07:45:36 | 52.65734 | 9.04747 | 103° | 24km/h | 18738m | 5.5m/s | -53°C | 0.2% | 70.7hPa | 2.6V | 18:12:15 | 01:12:44 | 00:00:00 | |
| DM0DOS-11 | 2026-09-04 07:45:35 | 52.65738 | 9.04676 | 94° | 42km/h | 18703m | 4.8m/s | -53.2°C | 3.6% | 71hPa | 2.6V | 08:30:00 | 01:12:38 | 00:00:00 | |
| AA1-15 | 2026-09-04 07:45:35 | 52.65735 | 9.04737 | 98° | 26km/h | 18731m | 6.5m/s | -53.1°C | 0.1% | 70.7hPa | 2.6V | 18:12:15 | 01:12:43 | 00:00:00 | |
| DO2JMG | 2026-09-04 07:45:34 | 52.65736 | 9.04727 | 97° | 26km/h | 18726m | 5.1m/s | -53.2°C | 0.2% | 70.8hPa | 2.7V | 18:12:15 | 01:12:42 | 00:00:00 | |
| DF8AY | 2026-09-04 07:45:32 | 52.65737 | 9.04705 | 96° | 29km/h | 18715m | 4m/s | -53.2°C | 0.2% | 70.9hPa | 2.7V | 18:12:15 | 01:12:40 | 00:00:00 | |
| HSKMA3-T | 2026-09-04 07:45:30 | 52.65738 | 9.04676 | 94° | 42km/h | 18703m | 4.9m/s | -53.2°C | 0.3% | 71hPa | 2.6V | 18:12:15 | 01:12:38 | 00:00:00 | |
| DL1XH-west | 2026-09-04 07:45:29 | 52.65739 | 9.04657 | 96° | 46km/h | 18698m | 5.5m/s | -53.2°C | 0.2% | 71.1hPa | 2.6V | 18:12:15 | 01:12:37 | 00:00:00 | |
| DF5WG-10 | 2026-09-04 07:45:29 | 52.65739 | 9.04657 | 97° | 42km/h | 18698m | 5.4m/s | -53.2°C | 3.6% | 71.1hPa | 2.6V | 00:00:00 | 01:12:37 | 00:00:00 | |
| DL1XH-15 | 2026-09-04 07:45:28 | 52.65751 | 9.04547 | 96° | 42km/h | 18664m | 4.9m/s | -54°C | 3.9% | 71.5hPa | 2.6V | 08:30:00 | 01:12:31 | 00:00:00 | |
| BIOWL1-15 | 2026-09-04 07:45:25 | 52.65748 | 9.04583 | 101° | 46km/h | 18675m | 6.7m/s | -53.7°C | 0.4% | 71.3hPa | 2.6V | 18:12:15 | 01:12:33 | 00:00:00 | |
| DO2JMG | 2026-09-04 07:45:23 | 52.65751 | 9.04547 | 97° | 42km/h | 18664m | 4.9m/s | -54°C | 0.4% | 71.5hPa | 2.6V | 18:12:15 | 01:12:31 | 00:00:00 | |
| DF8AY | 2026-09-04 07:45:21 | 52.65753 | 9.04515 | 94° | 37km/h | 18653m | 4.7m/s | -54.3°C | 0.5% | 71.6hPa | 2.7V | 18:12:15 | 01:12:29 | 00:00:00 | |
| HSKMA3-T | 2026-09-04 07:45:21 | 52.65754 | 9.04499 | 91° | 37km/h | 18648m | 6.4m/s | -54.2°C | 0.5% | 71.7hPa | 2.7V | 18:12:15 | 01:12:28 | 00:00:00 | |
| DL1XH-west | 2026-09-04 07:45:18 | 52.65753 | 9.04468 | 88° | 38km/h | 18637m | 5.3m/s | -54.3°C | 0.5% | 71.8hPa | 2.6V | 18:12:15 | 01:12:26 | 00:00:00 | |
| BIOWL1-15 | 2026-09-04 07:45:15 | 52.65753 | 9.04419 | 92° | 42km/h | 18621m | 6.2m/s | -54.4°C | 0.5% | 71.9hPa | 2.7V | 18:12:15 | 01:12:23 | 00:00:00 | |
| DO2JMG | 2026-09-04 07:45:12 | 52.65756 | 9.04365 | 100° | 42km/h | 18606m | 6m/s | -54.6°C | 0.5% | 72.1hPa | 2.7V | 18:12:15 | 01:12:20 | 00:00:00 | |
| DF8AY | 2026-09-04 07:45:11 | 52.65758 | 9.04348 | 107° | 40km/h | 18601m | 4.7m/s | -54.7°C | 0.5% | 72.2hPa | 2.7V | 18:12:15 | 01:12:19 | 00:00:00 | |
| HSKMA3-T | 2026-09-04 07:45:09 | 52.65765 | 9.04317 | 109° | 42km/h | 18590m | 5.3m/s | -54.6°C | 0.5% | 72.3hPa | 2.6V | 18:12:15 | 01:12:17 | 00:00:00 | |
| DN9WHV | 2026-09-04 07:45:09 | 52.65762 | 9.04332 | 111° | 40km/h | 18596m | 5.3m/s | -54.7°C | 1.2% | 72.2hPa | 2.6V | 00:00:00 | 00:00:00 | 00:00:00 | |
| DL1XH-15 | 2026-09-04 07:45:08 | 52.65773 | 9.04231 | 96° | 37km/h | 18559m | 4.8m/s | -54.6°C | 4.1% | 72.7hPa | 2.6V | 08:30:00 | 01:12:11 | 00:00:00 | |
| DL1XH-west | 2026-09-04 07:45:08 | 52.65768 | 9.04301 | 105° | 38km/h | 18586m | 4.4m/s | -54.6°C | 0.5% | 72.3hPa | 2.6V | 18:12:15 | 01:12:16 | 00:00:00 | |
| AA1-15 | 2026-09-04 07:45:04 | 52.65772 | 9.04245 | 93° | 33km/h | 18565m | 6.2m/s | -54.6°C | 0.5% | 72.6hPa | 2.6V | 18:12:15 | 01:12:12 | 00:00:00 | |
| DO2JMG | 2026-09-04 07:45:02 | 52.65774 | 9.04216 | 101° | 37km/h | 18555m | 4.5m/s | -54.5°C | 0.5% | 72.7hPa | 2.6V | 18:12:15 | 01:12:10 | 00:00:00 | |
| DF8AY | 2026-09-04 07:45:00 | 52.65779 | 9.04187 | 112° | 35km/h | 18543m | 4.8m/s | -54.5°C | 0.6% | 72.8hPa | 2.7V | 18:12:15 | 01:12:08 | 00:00:00 | |
| DO9LL-15 | 2026-09-04 07:45:00 | 52.65779 | 9.04187 | 112° | 33km/h | 18544m | 4.7m/s | -54.4°C | 4.1% | 72.8hPa | 2.7V | 00:00:00 | 01:12:08 | 00:00:00 | |
| DL1XH-15 | 2026-09-04 07:44:58 | 52.65810 | 9.04090 | 112° | 35km/h | 18503m | 4.4m/s | -54.5°C | 4.1% | 73.3hPa | 2.6V | 08:30:00 | 01:12:01 | 00:00:00 | |
| HSKMA3-T | 2026-09-04 07:44:58 | 52.65787 | 9.04159 | 118° | 40km/h | 18532m | 6.7m/s | -54.6°C | 0.6% | 73hPa | 2.6V | 18:12:15 | 01:12:06 | 00:00:00 | |
| DL1XH-west | 2026-09-04 07:44:57 | 52.65792 | 9.04144 | 120° | 40km/h | 18527m | 4.8m/s | -54.6°C | 0.6% | 73hPa | 2.6V | 18:12:15 | 01:12:05 | 00:00:00 | |
| DD8BA-10 | 2026-09-04 07:44:57 | 52.65792 | 9.04144 | 121° | 35km/h | 18527m | 4.7m/s | -54.6°C | 4.2% | 73.0hPa | 2.6V | 00:00:00 | 00:00:00 | 00:00:00 | |
| DN9WHV | 2026-09-04 07:44:56 | 52.65792 | 9.04144 | 121° | 40km/h | 18527m | 4.8m/s | -54.6°C | 1.2% | 73.0hPa | 2.7V | 00:00:00 | 00:00:00 | 00:00:00 | |
| DB0DAN | 2026-09-04 07:44:55 | 52.65802 | 9.04117 | 121° | 35km/h | 18515m | 5.4m/s | -54.6°C | 1.2% | 73.17hPa | 2.7V | 00:00:00 | 00:00:00 | 00:00:00 | |
| DM0DOS-11 | 2026-09-04 07:44:55 | 52.65818 | 9.04053 | 104° | 29km/h | 18486m | 5.9m/s | -54.5°C | 4.1% | 73.5hPa | 2.7V | 08:30:00 | 01:11:58 | 00:00:00 | |
| AA1-15 | 2026-09-04 07:44:54 | 52.65806 | 9.04103 | 118° | 37km/h | 18509m | 6.6m/s | -54.5°C | 0.6% | 73.3hPa | 2.7V | 18:12:15 | 01:12:02 | 00:00:00 | |
| BIOWL1-15 | 2026-09-04 07:44:53 | 52.65810 | 9.04090 | 112° | 35km/h | 18503m | 4.4m/s | -54.5°C | 0.5% | 73.3hPa | 2.6V | 18:12:15 | 01:12:01 | 00:00:00 | |
| DO2JMG | 2026-09-04 07:44:52 | 52.65813 | 9.04077 | 110° | 31km/h | 18498m | 5.8m/s | -54.5°C | 0.5% | 73.3hPa | 2.6V | 18:12:15 | 01:12:00 | 00:00:00 | |
| DF8AY | 2026-09-04 07:44:50 | 52.65818 | 9.04053 | 105° | 29km/h | 18486m | 5.9m/s | -54.6°C | 0.5% | 73.5hPa | 2.7V | 18:12:15 | 01:11:58 | 00:00:00 | |
| DL4BBY-15 | 2026-09-04 07:44:50 | 52.65818 | 9.04053 | 105° | 33km/h | 18486m | 5.8m/s | -55.1°C | 0% | 0hPa | 2.6V | 00:00:00 | 00:00:00 | 00:00:00 | |
| DL1XH1-15 | 2026-09-04 07:44:49 | 52.65833 | 9.03979 | 114° | 38km/h | 18452m | 4.8m/s | -54.5°C | 4.1% | 73.9hPa | 2.6V | 08:30:00 | 01:11:52 | 00:00:00 | |
| HSKMA3-T | 2026-09-04 07:44:48 | 52.65822 | 9.04029 | 105° | 31km/h | 18475m | 4.9m/s | -54.3°C | 0.5% | 73.6hPa | 2.6V | 18:12:15 | 01:11:56 | 00:00:00 | |
| DL1XH-west | 2026-09-04 07:44:46 | 52.65826 | 9.04005 | 111° | 31km/h | 18464m | 4.5m/s | -54.4°C | 0.5% | 73.8hPa | 2.7V | 18:12:15 | 01:11:54 | 00:00:00 | |
| AA1-15 | 2026-09-04 07:44:44 | 52.65833 | 9.03979 | 114° | 38km/h | 18452m | 4.8m/s | -54.6°C | 0.5% | 73.9hPa | 2.6V | 18:12:15 | 01:11:52 | 00:00:00 | |
| BIOWL1-15 | 2026-09-04 07:44:42 | 52.65842 | 9.03952 | 125° | 37km/h | 18440m | 6.2m/s | -54.5°C | 0.6% | 74hPa | 2.7V | 18:12:15 | 01:11:50 | 00:00:00 | |
| DO2JMG | 2026-09-04 07:44:41 | 52.65847 | 9.03940 | 130° | 35km/h | 18435m | 4.4m/s | -54.4°C | 0.6% | 74.1hPa | 2.7V | 18:12:15 | 01:11:49 | 00:00:00 | |
| DF8AY | 2026-09-04 07:44:40 | 52.65859 | 9.03918 | 128° | 35km/h | 18423m | 5.3m/s | -54.3°C | 0.6% | 74.2hPa | 2.6V | 18:12:15 | 01:11:47 | 00:00:00 | |
| EDDB2-12 | 2026-09-04 07:44:40 | 52.65853 | 9.03929 | 130° | 35km/h | 18429m | 6.7m/s | -54.4°C | 1.2% | 74.1hPa | 2.6V | 00:00:00 | 00:00:00 | 00:00:00 | |
| DO2LYB-13 | 2026-09-04 07:44:39 | 52.65853 | 9.03929 | 131° | 35km/h | 18430m | 6.7m/s | -54.4°C | 1.2% | 74.1hPa | 2.6V | 00:00:00 | 00:00:00 | 00:00:00 | |
| DL1XH-15 | 2026-09-04 07:44:38 | 52.65887 | 9.03859 | 126° | 29km/h | 18389m | 5.3m/s | -54.7°C | 4.2% | 74.6hPa | 2.6V | 08:30:00 | 01:11:41 | 00:00:00 | |
| HSKMA3-T | 2026-09-04 07:44:38 | 52.65864 | 9.03906 | 127° | 35km/h | 18418m | 4.5m/s | -54.4°C | 0.6% | 74.3hPa | 2.6V | 18:12:15 | 01:11:46 | 00:00:00 | |
| DL1XH-west | 2026-09-04 07:44:35 | 52.65878 | 9.03877 | 130° | 26km/h | 18401m | 5.4m/s | -54.6°C | 0.5% | 74.5hPa | 2.7V | 18:12:15 | 01:11:43 | 00:00:00 | |
| BIOWL1-15 | 2026-09-04 07:44:34 | 52.65891 | 9.03850 | 132° | 27km/h | 18383m | 6.5m/s | -54.7°C | 0.6% | 74.7hPa | 2.6V | 18:12:15 | 01:11:40 | 00:00:00 | |
| AA1-15 | 2026-09-04 07:44:33 | 52.65887 | 9.03859 | 127° | 29km/h | 18389m | 5.3m/s | -54.7°C | 0.6% | 74.6hPa | 2.6V | 18:12:15 | 01:11:41 | 00:00:00 | |
| DO2JMG | 2026-09-04 07:44:30 | 52.65902 | 9.03833 | 136° | 33km/h | 18372m | 5m/s | -54.5°C | 0.5% | 74.8hPa | 2.7V | 18:12:15 | 01:11:38 | 00:00:00 | |
| DF8AY | 2026-09-04 07:44:29 | 52.65908 | 9.03823 | 133° | 35km/h | 18367m | 6.5m/s | -54.5°C | 0.5% | 74.9hPa | 2.7V | 18:12:15 | 01:11:37 | 00:00:00 | |
| DL1XH-15 | 2026-09-04 07:44:28 | 52.65942 | 9.03754 | 122° | 38km/h | 18333m | 4.8m/s | -54.1°C | 4.2% | 75.3hPa | 2.6V | 08:30:00 | 01:11:31 | 00:00:00 | |
| HSKMA3-T | 2026-09-04 07:44:27 | 52.65920 | 9.03800 | 131° | 35km/h | 18355m | 6.9m/s | -54.5°C | 0.6% | 75hPa | 2.6V | 18:12:15 | 01:11:35 | 00:00:00 | |
| DD8BA-10 | 2026-09-04 07:44:27 | 52.65920 | 9.03800 | 132° | 37km/h | 18356m | 6.8m/s | -54.4°C | 4.2% | 74.9hPa | 2.6V | 00:00:00 | 00:00:00 | 00:00:00 | |
| DB0DAN | 2026-09-04 07:44:25 | 52.65931 | 9.03779 | 129° | 33km/h | 18345m | 5.4m/s | -54.3°C | 1.2% | 75.1hPa | 2.7V | 00:00:00 | 00:00:00 | 00:00:00 | |
| DL1XH-west | 2026-09-04 07:44:24 | 52.65937 | 9.03767 | 126° | 37km/h | 18339m | 6.5m/s | -54.2°C | 0.6% | 75.2hPa | 2.6V | 18:12:15 | 01:11:32 | 00:00:00 | |
| DN9WHV | 2026-09-04 07:44:24 | 52.65936 | 9.03767 | 127° | 37km/h | 18339m | 6.5m/s | -54.2°C | 1.2% | 75.2hPa | 2.6V | 00:00:00 | 00:00:00 | 00:00:00 | |
| DL1NUX | 2026-09-04 07:44:23 | 52.65967 | 9.03692 | 126° | 37km/h | 18305m | 4.8m/s | -54.1°C | 4% | 75.6hPa | 2.6V | 08:30:00 | 01:11:26 | 00:00:00 | |
| AA1-15 | 2026-09-04 07:44:22 | 52.65947 | 9.03741 | 123° | 37km/h | 18328m | 5.3m/s | -54.1°C | 0.6% | 75.3hPa | 2.7V | 18:12:15 | 01:11:30 | 00:00:00 | |
| DO2JMG | 2026-09-04 07:44:20 | 52.65957 | 9.03716 | 124° | 35km/h | 18317m | 5.4m/s | -54.1°C | 0.5% | 75.5hPa | 2.6V | 18:12:15 | 01:11:28 | 00:00:00 | |
| DF8AY | 2026-09-04 07:44:19 | 52.65967 | 9.03692 | 126° | 37km/h | 18305m | 4.8m/s | -54.1°C | 0.5% | 75.6hPa | 2.6V | 18:12:15 | 01:11:26 | 00:00:00 | |
| HSKMA3-T | 2026-09-04 07:44:16 | 52.65978 | 9.03669 | 131° | 35km/h | 18293m | 5.2m/s | -53.9°C | 0.5% | 75.7hPa | 2.7V | 18:12:15 | 01:11:24 | 00:00:00 | |
| DK5PH-5 | 2026-09-04 07:44:16 | 52.65978 | 9.03669 | 131° | 37km/h | 18293m | 5.1m/s | -53.8°C | 4.0% | 75.7hPa | 2.7V | 00:00:00 | 01:11:24 | 00:00:00 | |
| DM0DOS-11 | 2026-09-04 07:44:15 | 52.66010 | 9.03599 | 117° | 33km/h | 18261m | 4.7m/s | -53.6°C | 4% | 76.1hPa | 2.7V | 08:30:00 | 01:11:18 | 00:00:00 | |
| BIOWL1-15 | 2026-09-04 07:44:14 | 52.66001 | 9.03622 | 126° | 35km/h | 18272m | 6.3m/s | -53.8°C | 0.5% | 76hPa | 2.6V | 18:12:15 | 01:11:20 | 00:00:00 | |
| DL1XH-west | 2026-09-04 07:44:14 | 52.65990 | 9.03646 | 130° | 38km/h | 18281m | 4.9m/s | -53.8°C | 0.5% | 75.9hPa | 2.6V | 18:12:15 | 01:11:22 | 00:00:00 | |
| DL1NUX | 2026-09-04 07:44:13 | 52.66018 | 9.03573 | 117° | 38km/h | 18251m | 5.2m/s | -53.5°C | 4% | 76.2hPa | 2.6V | 08:30:00 | 01:11:16 | 00:00:00 | |
| AA1-15 | 2026-09-04 07:44:11 | 52.66006 | 9.03611 | 121° | 31km/h | 18266m | 4.9m/s | -53.7°C | 0.5% | 76hPa | 2.7V | 18:12:15 | 01:11:19 | 00:00:00 | |
| DB0DAN | 2026-09-04 07:44:10 | 52.66010 | 9.03599 | 118° | 31km/h | 18261m | 4.7m/s | -53.6°C | 1.2% | 76.12hPa | 2.7V | 00:00:00 | 00:00:00 | 00:00:00 | |
| DO2JMG | 2026-09-04 07:44:09 | 52.66014 | 9.03586 | 117° | 37km/h | 18256m | 5.7m/s | -53.6°C | 0.5% | 76.2hPa | 2.7V | 18:12:15 | 01:11:17 | 00:00:00 | |
| DF8AY | 2026-09-04 07:44:08 | 52.66018 | 9.03573 | 118° | 38km/h | 18251m | 5.2m/s | -53.5°C | 0.5% | 76.2hPa | 2.6V | 18:12:15 | 01:11:16 | 00:00:00 | |
| HSKMA3-T | 2026-09-04 07:44:06 | 52.66027 | 9.03546 | 121° | 35km/h | 18240m | 6.3m/s | -53.5°C | 0.5% | 76.4hPa | 2.6V | 18:12:15 | 01:11:14 | 00:00:00 | |
| DM0DOS-11 | 2026-09-04 07:44:05 | 52.66055 | 9.03472 | 122° | 35km/h | 18205m | 4.4m/s | -53.3°C | 3.7% | 76.8hPa | 2.6V | 08:30:00 | 01:11:08 | 00:00:00 | |
| DL1XH-west | 2026-09-04 07:44:04 | 52.66037 | 9.03522 | 122° | 37km/h | 18227m | 7.1m/s | -53.4°C | 0.4% | 76.5hPa | 2.7V | 18:12:15 | 01:11:12 | 00:00:00 | |
| BIOWL1-15 | 2026-09-04 07:44:01 | 52.66050 | 9.03484 | 121° | 33km/h | 18211m | 5.6m/s | -53.3°C | 0.3% | 76.7hPa | 2.6V | 18:12:15 | 01:11:09 | 00:00:00 | |
| AA1-15 | 2026-09-04 07:44:00 | 52.66055 | 9.03472 | 122° | 35km/h | 18206m | 4.4m/s | -53.3°C | 0.3% | 76.8hPa | 2.6V | 18:12:15 | 01:11:08 | 00:00:00 | |
| DO9LL-15 | 2026-09-04 07:44:00 | 52.66055 | 9.03472 | 123° | 38km/h | 18206m | 4.3m/s | -53.2°C | 3.7% | 76.7hPa | 2.7V | 00:00:00 | 01:11:08 | 00:00:00 | |
| DL1XH1-15 | 2026-09-04 07:43:59 | 52.66086 | 9.03393 | 118° | 37km/h | 18174m | 4.5m/s | -53.6°C | 3.9% | 77.2hPa | 2.7V | 08:30:00 | 01:11:02 | 00:00:00 | |
| DO2JMG | 2026-09-04 07:43:58 | 52.66065 | 9.03446 | 124° | 40km/h | 18195m | 5.5m/s | -53.4°C | 0.3% | 76.9hPa | 2.7V | 18:12:15 | 01:11:06 | 00:00:00 | |
| DF8AY | 2026-09-04 07:43:57 | 52.66071 | 9.03432 | 124° | 40km/h | 18190m | 4.5m/s | -53.5°C | 0.4% | 76.9hPa | 2.6V | 18:12:15 | 01:11:05 | 00:00:00 | |
| DD8BA-10 | 2026-09-04 07:43:57 | 52.66071 | 9.03432 | 124° | 37km/h | 18190m | 4.5m/s | -53.4°C | 3.8% | 76.9hPa | 2.6V | 00:00:00 | 00:00:00 | 08:30:00 | |
| DN9WHV | 2026-09-04 07:43:56 | 52.66071 | 9.03432 | 125° | 40km/h | 18190m | 4.5m/s | -53.5°C | 1.1% | 76.9hPa | 2.7V | 00:00:00 | 00:00:00 | 00:00:00 | |
| DM0DOS-11 | 2026-09-04 07:43:55 | 52.66101 | 9.03335 | 110° | 35km/h | 18152m | 6.2m/s | -53.8°C | 3.9% | 77.4hPa | 2.7V | 08:30:00 | 01:10:58 | 00:00:00 | |
| HSKMA3-T | 2026-09-04 07:43:55 | 52.66081 | 9.03406 | 122° | 37km/h | 18179m | 4.5m/s | -53.6°C | 0.5% | 77.1hPa | 2.7V | 18:12:15 | 01:11:03 | 00:00:00 | |
| DL1NUX | 2026-09-04 07:43:53 | 52.66108 | 9.03309 | 114° | 35km/h | 18141m | 6.7m/s | -53.8°C | 3.9% | 77.5hPa | 2.6V | 08:30:00 | 01:10:56 | 00:00:00 | |
| DL1XH-west | 2026-09-04 07:43:53 | 52.66090 | 9.03379 | 115° | 38km/h | 18169m | 6.2m/s | -53.7°C | 0.5% | 77.2hPa | 2.6V | 18:12:15 | 01:11:01 | 00:00:00 | |
| BIOWL1-15 | 2026-09-04 07:43:51 | 52.66098 | 9.03349 | 110° | 38km/h | 18158m | 5m/s | -53.8°C | 0.5% | 77.4hPa | 2.7V | 18:12:15 | 01:10:59 | 00:00:00 | |
| AA1-15 | 2026-09-04 07:43:50 | 52.66101 | 9.03335 | 110° | 35km/h | 18152m | 6.2m/s | -53.8°C | 0.5% | 77.4hPa | 2.7V | 18:12:15 | 01:10:58 | 00:00:00 | |
| DO2JMG | 2026-09-04 07:43:48 | 52.66107 | 9.03309 | 114° | 35km/h | 18141m | 6.7m/s | -53.8°C | 0.5% | 77.5hPa | 2.6V | 18:12:15 | 01:10:56 | 00:00:00 | |
| DF8AY | 2026-09-04 07:43:47 | 52.66111 | 9.03295 | 115° | 37km/h | 18136m | 5m/s | -53.8°C | 0.4% | 77.6hPa | 2.6V | 18:12:15 | 01:10:55 | 00:00:00 | |
| HSKMA3-T | 2026-09-04 07:43:45 | 52.66119 | 9.03269 | 115° | 35km/h | 18124m | 5.3m/s | -54°C | 0.4% | 77.8hPa | 2.7V | 18:12:15 | 01:10:53 | 00:00:00 | |
| SO1NDE-10 | 2026-09-04 07:43:45 | 52.66119 | 9.03269 | 115° | 46km/h | 18124m | 5.2m/s | -53.9°C | 3.8% | 77.7hPa | 2.7V | 00:00:00 | 01:10:53 | 00:00:00 | |
| DJ2DS-15 | 2026-09-04 07:43:44 | 52.66122 | 9.03255 | 113° | 42km/h | 18119m | 5.7m/s | -54.1°C | 3.9% | 77.8hPa | 2.7V | 00:00:00 | 01:10:52 | 00:00:00 | |
| DL1NUX | 2026-09-04 07:43:43 | 52.66140 | 9.03174 | 114° | 37km/h | 18085m | 6.5m/s | -54.8°C | 4.2% | 78.2hPa | 2.7V | 08:30:00 | 01:10:46 | 00:00:00 | |
| DL1XH-west | 2026-09-04 07:43:42 | 52.66128 | 9.03227 | 108° | 37km/h | 18107m | 5.5m/s | -54.4°C | 0.4% | 78hPa | 2.6V | 18:12:15 | 01:10:50 | 00:00:00 | |
| BIOWL1-15 | 2026-09-04 07:43:40 | 52.66134 | 9.03200 | 110° | 31km/h | 18095m | 4.8m/s | -54.6°C | 0.5% | 78.2hPa | 2.7V | 18:12:15 | 01:10:48 | 00:00:00 | |
| DJ2DS-15 | 2026-09-04 07:43:40 | 52.66134 | 9.03200 | 110° | 31km/h | 18095m | 4.8m/s | -54.6°C | 1.2% | 78.2hPa | 2.7V | 00:00:00 | 00:00:00 | 00:00:00 | |
| DB0DAN | 2026-09-04 07:43:40 | 52.66134 | 9.03200 | 110° | 29km/h | 18095m | 4.8m/s | -54.6°C | 1.2% | 78.16hPa | 2.7V | 00:00:00 | 00:00:00 | 00:00:00 | |
| DL1XH1-15 | 2026-09-04 07:43:39 | 52.66159 | 9.03111 | 114° | 44km/h | 18064m | 4.7m/s | -54.9°C | 4.1% | 78.5hPa | 2.7V | 08:30:00 | 01:10:42 | 00:00:00 | |
| AA1-15 | 2026-09-04 07:43:39 | 52.66137 | 9.03188 | 114° | 33km/h | 18090m | 3.8m/s | -54.7°C | 0.5% | 78.2hPa | 2.7V | 18:12:15 | 01:10:47 | 00:00:00 | |
| DO2JMG | 2026-09-04 07:43:37 | 52.66145 | 9.03160 | 115° | 42km/h | 18080m | 5.3m/s | -54.8°C | 0.6% | 78.3hPa | 2.6V | 18:12:15 | 01:10:45 | 00:00:00 | |
| HSKMA3-T | 2026-09-04 07:43:35 | 52.66154 | 9.03127 | 116° | 46km/h | 18069m | 6.2m/s | -54.8°C | 0.5% | 78.4hPa | 2.6V | 18:12:15 | 01:10:43 | 00:00:00 | |
| DM0DOS-11 | 2026-09-04 07:43:35 | 52.66176 | 9.03036 | 107° | 49km/h | 18042m | 6.6m/s | -55°C | 4.2% | 78.8hPa | 2.7V | 08:30:00 | 01:10:38 | 00:00:00 | |
| SONDE2-11 | 2026-09-04 07:43:34 | 52.66164 | 9.03093 | 112° | 46km/h | 18059m | 4.6m/s | -55.0°C | 1.2% | 78.5hPa | 2.6V | 00:00:00 | 00:00:00 | 00:00:00 | |
| DL1NUX | 2026-09-04 07:43:33 | 52.66183 | 9.02998 | 105° | 46km/h | 18031m | 5m/s | -55.1°C | 4.2% | 78.9hPa | 2.6V | 08:30:00 | 01:10:36 | 00:00:00 | |
| BIOWL1-15 | 2026-09-04 07:43:32 | 52.66176 | 9.03036 | 108° | 49km/h | 18042m | 6.6m/s | -55°C | 0.7% | 78.8hPa | 2.7V | 18:12:15 | 01:10:38 | 00:00:00 | |
| DL1XH-west | 2026-09-04 07:43:31 | 52.66172 | 9.03055 | 108° | 51km/h | 18048m | 5.5m/s | -55°C | 0.6% | 78.7hPa | 2.6V | 18:12:15 | 01:10:39 | 00:00:00 | |
| DJ2KF-10 | 2026-09-04 07:43:31 | 52.66172 | 9.03055 | 109° | 47km/h | 18048m | 5.4m/s | -54.9°C | 4.2% | 78.7hPa | 2.6V | 00:00:00 | 01:10:39 | 00:00:00 | |
| DL8DAS-14 | 2026-09-04 07:43:30 | 52.66179 | 9.03017 | 106° | 46km/h | 18036m | 5.0m/s | -55.1°C | 1.2% | 78.8hPa | 2.6V | 00:00:00 | 00:00:00 | 00:00:00 | |
| DL1XH1-15 | 2026-09-04 07:43:29 | 52.66194 | 9.02920 | 100° | 47km/h | 18008m | 5.3m/s | -55.1°C | 4.2% | 79.2hPa | 2.6V | 08:30:00 | 01:10:32 | 00:00:00 | |
| AA1-15 | 2026-09-04 07:43:28 | 52.66183 | 9.02998 | 106° | 46km/h | 18031m | 5m/s | -55.1°C | 0.6% | 78.9hPa | 2.6V | 18:12:15 | 01:10:36 | 00:00:00 | |
| GOEST3-10 | 2026-09-04 07:43:28 | 52.66182 | 9.02998 | 106° | 47km/h | 18031m | 5.0m/s | -55.1°C | 4.2% | 78.9hPa | 2.6V | 00:00:00 | 00:00:00 | 00:00:00 | |
| DL1XH-15 | 2026-09-04 07:43:27 | 52.66198 | 9.02879 | 99° | 53km/h | 17997m | 6m/s | -55.1°C | 4.2% | 79.3hPa | 2.6V | 08:30:00 | 01:10:30 | 00:00:00 | |
| DO2JMG | 2026-09-04 07:43:27 | 52.66186 | 9.02980 | 105° | 47km/h | 18025m | 6.8m/s | -55.1°C | 0.6% | 79hPa | 2.6V | 18:12:15 | 01:10:35 | 00:00:00 | |
| DF8AY | 2026-09-04 07:43:26 | 52.66189 | 9.02960 | 103° | 49km/h | 18019m | 5m/s | -55.1°C | 0.6% | 79.1hPa | 2.7V | 18:12:15 | 01:10:34 | 00:00:00 | |
| DM0DOS-11 | 2026-09-04 07:43:25 | 52.66202 | 9.02836 | 97° | 51km/h | 17987m | 5.5m/s | -55.2°C | 4.2% | 79.5hPa | 2.7V | 08:30:00 | 01:10:28 | 00:00:00 | |
| DB0DAN | 2026-09-04 07:43:25 | 52.66192 | 9.02940 | 103° | 46km/h | 18013m | 6.2m/s | -55.1°C | 1.2% | 79.1hPa | 2.7V | 00:00:00 | 00:00:00 | 00:00:00 | |
| HSKMA3-T | 2026-09-04 07:43:24 | 52.66194 | 9.02920 | 101° | 47km/h | 18008m | 5.3m/s | -55.1°C | 0.7% | 79.2hPa | 2.6V | 18:12:15 | 01:10:32 | 00:00:00 | |
| DJ2DS-15 | 2026-09-04 07:43:24 | 52.66194 | 9.02920 | 101° | 47km/h | 18008m | 5.3m/s | -55.0°C | 4.2% | 79.1hPa | 2.6V | 00:00:00 | 01:10:32 | 00:00:00 | |
| DL1NUX | 2026-09-04 07:43:23 | 52.66206 | 9.02794 | 99° | 49km/h | 17976m | 4.8m/s | -55.2°C | 4.3% | 79.6hPa | 2.6V | 08:30:00 | 01:10:26 | 00:00:00 | |
| DL1XH-west | 2026-09-04 07:43:20 | 52.66202 | 9.02836 | 97° | 51km/h | 17987m | 5.5m/s | -55.2°C | 0.6% | 79.5hPa | 2.7V | 18:12:15 | 01:10:28 | 00:00:00 | |
| DF8AY | 2026-09-04 07:43:20 | 52.66210 | 9.02732 | 94° | 49km/h | 17960m | 4.4m/s | -55.2°C | 0.7% | 79.8hPa | 2.7V | 18:12:15 | 01:10:23 | 00:00:00 | |
| DB0UT-7 | 2026-09-04 07:43:20 | 52.66202 | 9.02836 | 98° | 44km/h | 17987m | 5.5m/s | -55.1°C | 4.2% | 79.4hPa | 2.7V | 00:00:00 | 00:00:00 | 00:00:00 | |
| DL1XH1-15 | 2026-09-04 07:43:19 | 52.66211 | 9.02712 | 95° | 47km/h | 17955m | 6.3m/s | -55.2°C | 4.3% | 79.9hPa | 2.7V | 08:30:00 | 01:10:22 | 00:00:00 | |
| BIOWL1-15 | 2026-09-04 07:43:19 | 52.66204 | 9.02815 | 99° | 49km/h | 17981m | 5.4m/s | -55.2°C | 0.6% | 79.5hPa | 2.7V | 18:12:15 | 01:10:27 | 00:00:00 | |
| DO2JMG | 2026-09-04 07:43:16 | 52.66209 | 9.02753 | 95° | 51km/h | 17965m | 5m/s | -55.2°C | 0.7% | 79.8hPa | 2.6V | 18:12:15 | 01:10:24 | 00:00:00 | |
| HSKMA3-T | 2026-09-04 07:43:13 | 52.66212 | 9.02693 | 94° | 46km/h | 17949m | 4.9m/s | -55.2°C | 0.7% | 79.9hPa | 2.7V | 18:12:15 | 01:10:21 | 00:00:00 | |
| DL1XH-west | 2026-09-04 07:43:10 | 52.66211 | 9.02637 | 84° | 46km/h | 17933m | 4.7m/s | -55°C | 0.7% | 80.1hPa | 2.6V | 18:12:15 | 01:10:18 | 00:00:00 | |
| BIOWL1-15 | 2026-09-04 07:43:09 | 52.66210 | 9.02619 | 84° | 42km/h | 17927m | 6.4m/s | -54.9°C | 0.7% | 80.2hPa | 2.7V | 18:12:15 | 01:10:17 | 00:00:00 | |
| AA1-15 | 2026-09-04 07:43:07 | 52.66209 | 9.02585 | 87° | 42km/h | 17916m | 5.3m/s | -54.9°C | 0.6% | 80.3hPa | 2.7V | 18:12:15 | 01:10:15 | 00:00:00 | |
| DO2JMG | 2026-09-04 07:43:05 | 52.66208 | 9.02549 | 90° | 44km/h | 17905m | 4.9m/s | -54.9°C | 0.6% | 80.5hPa | 2.6V | 18:12:15 | 01:10:13 | 00:00:00 | |
| HSKMA3-T | 2026-09-04 07:43:03 | 52.66209 | 9.02513 | 94° | 42km/h | 17893m | 4.8m/s | -54.9°C | 0.7% | 80.6hPa | 2.7V | 18:12:15 | 01:10:11 | 00:00:00 | |
| DL1NUX | 2026-09-04 07:43:03 | 52.66207 | 9.02424 | 83° | 40km/h | 17866m | 4.5m/s | -54.7°C | 4.2% | 80.9hPa | 2.7V | 08:30:00 | 01:10:06 | 00:00:00 | |
| DL1XH-west | 2026-09-04 07:42:59 | 52.66208 | 9.02441 | 85° | 42km/h | 17872m | 5.9m/s | -54.8°C | 0.7% | 80.9hPa | 2.7V | 18:12:15 | 01:10:07 | 00:00:00 | |
| DO2SHX-10 | 2026-09-04 07:42:59 | 52.66208 | 9.02441 | 85° | 42km/h | 17872m | 5.9m/s | -54.7°C | 4.2% | 80.8hPa | 2.6V | 00:00:00 | 01:10:07 | 00:00:00 | |
| DO9LL-15 | 2026-09-04 07:42:58 | 52.66207 | 9.02424 | 84° | 33km/h | 17867m | 4.5m/s | -54.7°C | 4.2% | 80.9hPa | 2.6V | 00:00:00 | 01:10:06 | 00:00:00 | |
| DL1XH-15 | 2026-09-04 07:42:57 | 52.66203 | 9.02322 | 91° | 42km/h | 17834m | 6.7m/s | -54.8°C | 4.1% | 81.4hPa | 2.6V | 08:30:00 | 01:10:00 | 00:00:00 | |
| AA1-15 | 2026-09-04 07:42:56 | 52.66205 | 9.02390 | 84° | 44km/h | 17856m | 4.6m/s | -54.8°C | 0.7% | 81.1hPa | 2.6V | 18:12:15 | 01:10:04 | 00:00:00 | |
| DO2SHX-10 | 2026-09-04 07:42:56 | 52.66205 | 9.02390 | 84° | 42km/h | 17856m | 4.6m/s | -54.7°C | 4.2% | 81.1hPa | 2.7V | 00:00:00 | 01:10:04 | 00:00:00 | |
| DM0DOS-11 | 2026-09-04 07:42:55 | 52.66203 | 9.02287 | 84° | 40km/h | 17823m | 5.1m/s | -54.7°C | 4.1% | 81.5hPa | 2.7V | 08:30:00 | 01:09:58 | 00:00:00 | |
| DF8AY | 2026-09-04 07:42:55 | 52.66203 | 9.02355 | 89° | 40km/h | 17846m | 6m/s | -54.7°C | 0.6% | 81.2hPa | 2.7V | 18:12:15 | 01:10:02 | 00:00:00 | |
| DO2JMG | 2026-09-04 07:42:55 | 52.66204 | 9.02372 | 86° | 42km/h | 17851m | 4.7m/s | -54.8°C | 0.7% | 81.2hPa | 2.7V | 18:12:15 | 01:10:03 | 00:00:00 | |
| BIOWL7-15 | 2026-09-04 07:42:54 | 52.66204 | 9.02372 | 87° | 42km/h | 17851m | 4.7m/s | -54.8°C | 1.3% | 81.2hPa | 2.7V | 00:00:00 | 00:00:00 | 00:00:00 | |
| DL1NUX | 2026-09-04 07:42:53 | 52.66199 | 9.02256 | 75° | 35km/h | 17812m | 4.9m/s | -54.6°C | 4.1% | 81.7hPa | 2.7V | 08:30:00 | 01:09:56 | 00:00:00 | |
| HSKMA3-T | 2026-09-04 07:42:52 | 52.66203 | 9.02322 | 91° | 42km/h | 17834m | 6.7m/s | -54.8°C | 0.6% | 81.4hPa | 2.6V | 18:12:15 | 01:10:00 | 00:00:00 | |
| HTAHTA | 2026-09-04 07:42:51 | 52.66203 | 9.02287 | 84° | 40km/h | 17824m | 5.1m/s | -54.7°C | 1.2% | 81.5hPa | 2.7V | 00:00:00 | 00:00:00 | 00:00:00 | |
| DO2SHX-10 | 2026-09-04 07:42:50 | 52.66203 | 9.02287 | 85° | 38km/h | 17824m | 5.0m/s | -54.7°C | 4.1% | 81.5hPa | 2.7V | 00:00:00 | 01:09:58 | 00:00:00 | |
| DL1XH1-15 | 2026-09-04 07:42:49 | 52.66188 | 9.02200 | 73° | 33km/h | 17791m | 6.6m/s | -54.6°C | 4.1% | 81.9hPa | 2.7V | 08:30:00 | 01:09:52 | 00:00:00 | |
| DL1XH-west | 2026-09-04 07:42:49 | 52.66201 | 9.02271 | 82° | 38km/h | 17818m | 6.7m/s | -54.7°C | 0.5% | 81.6hPa | 2.7V | 18:12:15 | 01:09:57 | 00:00:00 | |
| BIOWL1-15 | 2026-09-04 07:42:48 | 52.66200 | 9.02256 | 75° | 35km/h | 17812m | 4.9m/s | -54.6°C | 0.6% | 81.7hPa | 2.7V | 18:12:15 | 01:09:56 | 00:00:00 | |
| AA1-15 | 2026-09-04 07:42:46 | 52.66194 | 9.02228 | 70° | 37km/h | 17801m | 5.4m/s | -54.7°C | 0.6% | 81.8hPa | 2.6V | 18:12:15 | 01:09:54 | 00:00:00 | |
| DO2JMG | 2026-09-04 07:42:44 | 52.66188 | 9.02200 | 73° | 33km/h | 17791m | 6.6m/s | -54.6°C | 0.6% | 81.9hPa | 2.7V | 18:12:15 | 01:09:52 | 00:00:00 | |
| HSKMA3-T | 2026-09-04 07:42:41 | 52.66184 | 9.02159 | 84° | 35km/h | 17774m | 5.2m/s | -54.5°C | 0.6% | 82.2hPa | 2.6V | 18:12:15 | 01:09:49 | 00:00:00 | |
| DB0DAN | 2026-09-04 07:42:40 | 52.66183 | 9.02145 | 86° | 33km/h | 17769m | 6.1m/s | -54.6°C | 1.2% | 82.18hPa | 2.6V | 00:00:00 | 00:00:00 | 00:00:00 | |
| DO2SHX-10 | 2026-09-04 07:42:40 | 52.66183 | 9.02145 | 87° | 33km/h | 17769m | 6.1m/s | -54.6°C | 4.1% | 82.1hPa | 2.6V | 00:00:00 | 01:09:48 | 00:00:00 | |
| DL1XH1-15 | 2026-09-04 07:42:39 | 52.66176 | 9.02071 | 71° | 24km/h | 17737m | 6.3m/s | -55.1°C | 4.2% | 82.6hPa | 2.6V | 08:30:00 | 01:09:42 | 00:00:00 | |
| DL1XH-west | 2026-09-04 07:42:38 | 52.66182 | 9.02118 | 85° | 31km/h | 17758m | 4.1m/s | -54.7°C | 0.7% | 82.4hPa | 2.7V | 18:12:15 | 01:09:46 | 00:00:00 | |
| BIOWL1-15 | 2026-09-04 07:42:37 | 52.66181 | 9.02105 | 82° | 31km/h | 17752m | 6.6m/s | -54.8°C | 0.6% | 82.5hPa | 2.7V | 18:12:15 | 01:09:45 | 00:00:00 | |
| DD8BA-10 | 2026-09-04 07:42:37 | 52.66181 | 9.02105 | 83° | 24km/h | 17753m | 6.5m/s | -54.7°C | 4.1% | 82.4hPa | 2.6V | 00:00:00 | 00:00:00 | 00:00:00 | |
| EDDB2-12 | 2026-09-04 07:42:36 | 52.66180 | 9.02092 | 77° | 29km/h | 17747m | 4.3m/s | -54.9°C | 1.2% | 82.5hPa | 2.6V | 00:00:00 | 00:00:00 | 00:00:00 | |
| DM0DOS-11 | 2026-09-04 07:42:35 | 52.66168 | 9.02039 | 70° | 22km/h | 17715m | 4.5m/s | -54.9°C | 4.2% | 82.9hPa | 2.6V | 08:30:00 | 01:09:38 | 00:00:00 | |
| AA1-15 | 2026-09-04 07:42:35 | 52.66178 | 9.02081 | 74° | 27km/h | 17742m | 5.1m/s | -55°C | 0.6% | 82.6hPa | 2.6V | 18:12:15 | 01:09:43 | 00:00:00 | |
| DO2JMG | 2026-09-04 07:42:33 | 52.66174 | 9.02063 | 68° | 18km/h | 17731m | 4.8m/s | -55°C | 0.6% | 82.7hPa | 2.6V | 18:12:15 | 01:09:41 | 00:00:00 | |
| HSKMA3-T | 2026-09-04 07:42:31 | 52.66170 | 9.02047 | 66° | 22km/h | 17720m | 5m/s | -54.9°C | 0.7% | 82.8hPa | 2.7V | 18:12:15 | 01:09:39 | 00:00:00 | |
| DO2SHX-10 | 2026-09-04 07:42:31 | 52.66170 | 9.02047 | 67° | 22km/h | 17720m | 5.0m/s | -54.9°C | 4.3% | 82.8hPa | 2.6V | 00:00:00 | 01:09:39 | 00:00:00 | |
| DJ2KF-10 | 2026-09-04 07:42:30 | 52.66168 | 9.02039 | 71° | 33km/h | 17715m | 4.4m/s | -54.9°C | 4.2% | 82.9hPa | 2.6V | 00:00:00 | 01:09:38 | 00:00:00 | |
| DL1XH1-15 | 2026-09-04 07:42:29 | 52.66157 | 9.01975 | 72° | 29km/h | 17683m | 6.4m/s | -54.8°C | 4.4% | 83.4hPa | 2.7V | 08:30:00 | 01:09:32 | 00:00:00 | |
| DL1XH-west | 2026-09-04 07:42:27 | 52.66164 | 9.02011 | 77° | 27km/h | 17700m | 5.6m/s | -55°C | 0.7% | 83.1hPa | 2.7V | 18:12:15 | 01:09:35 | 00:00:00 | |
| DD8BA-10 | 2026-09-04 07:42:27 | 52.66164 | 9.02011 | 77° | 29km/h | 17700m | 5.6m/s | -55.0°C | 4.4% | 83.1hPa | 2.7V | 00:00:00 | 00:00:00 | 08:30:00 | |
| SONCRA | 2026-09-04 07:42:26 | 52.66159 | 9.01987 | 71° | 31km/h | 17689m | 5.1m/s | -54.8°C | 1.3% | 83.2hPa | 2.6V | 00:00:00 | 00:00:00 | 00:00:00 | |
| BIOWL1-15 | 2026-09-04 07:42:26 | 52.66162 | 9.02000 | 73° | 29km/h | 17694m | 5.4m/s | -54.9°C | 0.8% | 83.2hPa | 2.6V | 18:12:15 | 01:09:34 | 00:00:00 | |
| DM0DOS-11 | 2026-09-04 07:42:25 | 52.66148 | 9.01928 | 72° | 31km/h | 17662m | 4.8m/s | -54.8°C | 4.2% | 83.6hPa | 2.6V | 08:30:00 | 01:09:28 | 00:00:00 | |
| AA1-15 | 2026-09-04 07:42:24 | 52.66157 | 9.01975 | 72° | 29km/h | 17683m | 6.4m/s | -54.8°C | 0.8% | 83.4hPa | 2.7V | 18:12:15 | 01:09:32 | 00:00:00 | |
| DJ2DS-15 | 2026-09-04 07:42:24 | 52.66157 | 9.01975 | 73° | 35km/h | 17684m | 6.3m/s | -54.8°C | 4.4% | 83.3hPa | 2.7V | 00:00:00 | 01:09:32 | 08:30:00 | |
| DL1NUX | 2026-09-04 07:42:23 | 52.66144 | 9.01905 | 76° | 29km/h | 17652m | 4.1m/s | -54.6°C | 4.1% | 83.7hPa | 2.7V | 08:30:00 | 01:09:26 | 00:00:00 | |
| DO2JMG | 2026-09-04 07:42:23 | 52.66155 | 9.01964 | 74° | 29km/h | 17678m | 4.2m/s | -54.8°C | 0.7% | 83.4hPa | 2.7V | 18:12:15 | 01:09:31 | 00:00:00 | |
| DF8AY | 2026-09-04 07:42:22 | 52.66153 | 9.01952 | 71° | 29km/h | 17673m | 5.5m/s | -54.8°C | 0.7% | 83.4hPa | 2.6V | 18:12:15 | 01:09:30 | 00:00:00 | |
| HSKMA3-T | 2026-09-04 07:42:20 | 52.66148 | 9.01928 | 73° | 31km/h | 17662m | 4.8m/s | -54.8°C | 0.6% | 83.6hPa | 2.6V | 18:12:15 | 01:09:28 | 00:00:00 | |
| HTAHTA | 2026-09-04 07:42:20 | 52.66146 | 9.01916 | 75° | 27km/h | 17657m | 5.5m/s | -54.7°C | 1.3% | 83.7hPa | 2.6V | 00:00:00 | 00:00:00 | 00:00:00 | |
| DL1XH1-15 | 2026-09-04 07:42:19 | 52.66137 | 9.01852 | 84° | 33km/h | 17630m | 5.5m/s | -54.5°C | 4.1% | 84hPa | 2.6V | 08:30:00 | 01:09:22 | 00:00:00 | |
| DL1XH-west | 2026-09-04 07:42:16 | 52.66140 | 9.01880 | 77° | 33km/h | 17641m | 4.9m/s | -54.7°C | 0.6% | 83.9hPa | 2.6V | 18:12:15 | 01:09:24 | 00:00:00 | |
| DO2SHX-10 | 2026-09-04 07:42:16 | 52.66140 | 9.01880 | 77° | 33km/h | 17641m | 4.8m/s | -54.6°C | 4.1% | 83.8hPa | 2.6V | 00:00:00 | 01:09:24 | 00:00:00 | |
| DM0DOS-11 | 2026-09-04 07:42:15 | 52.66134 | 9.01789 | 87° | 38km/h | 17608m | 6.6m/s | -54.4°C | 4.2% | 84.3hPa | 2.6V | 08:30:00 | 01:09:18 | 00:00:00 | |
| AA1-15 | 2026-09-04 07:42:13 | 52.66136 | 9.01838 | 85° | 37km/h | 17624m | 5.6m/s | -54.5°C | 0.6% | 84.1hPa | 2.7V | 18:12:15 | 01:09:21 | 00:00:00 | |
| DF8AY | 2026-09-04 07:42:12 | 52.66135 | 9.01822 | 84° | 38km/h | 17618m | 6.4m/s | -54.5°C | 0.6% | 84.2hPa | 2.7V | 18:12:15 | 01:09:20 | 00:00:00 | |
| HSKMA3-T | 2026-09-04 07:42:09 | 52.66133 | 9.01773 | 87° | 38km/h | 17603m | 4.2m/s | -54.3°C | 0.7% | 84.4hPa | 2.6V | 18:12:15 | 01:09:17 | 00:00:00 | |
| DL1XH-west | 2026-09-04 07:42:06 | 52.66130 | 9.01726 | 82° | 37km/h | 17586m | 5.8m/s | -54.4°C | 0.6% | 84.6hPa | 2.7V | 18:12:15 | 01:09:14 | 00:00:00 | |
| EDDB2-12 | 2026-09-04 07:42:05 | 52.66128 | 9.01697 | 82° | 35km/h | 17576m | 3.9m/s | -54.6°C | 1.2% | 84.7hPa | 2.6V | 00:00:00 | 00:00:00 | 00:00:00 | |
| DO2SHX-10 | 2026-09-04 07:42:04 | 52.66127 | 9.01697 | 83° | 38km/h | 17576m | 3.8m/s | -54.5°C | 4.0% | 84.7hPa | 2.6V | 00:00:00 | 01:09:12 | 00:00:00 | |
| DL1NUX | 2026-09-04 07:42:03 | 52.66116 | 9.01597 | 82° | 46km/h | 17545m | 5.9m/s | -54.9°C | 4.3% | 85.2hPa | 2.6V | 08:30:00 | 01:09:06 | 00:00:00 | |
| AA1-15 | 2026-09-04 07:42:03 | 52.66126 | 9.01682 | 79° | 37km/h | 17571m | 5.9m/s | -54.8°C | 0.6% | 84.8hPa | 2.6V | 18:12:15 | 01:09:11 | 00:00:00 | |
| DO2JMG | 2026-09-04 07:42:01 | 52.66121 | 9.01649 | 76° | 42km/h | 17560m | 4.5m/s | -55°C | 0.7% | 84.9hPa | 2.7V | 18:12:15 | 01:09:09 | 00:00:00 | |
| DO2SHX-10 | 2026-09-04 07:42:01 | 52.66121 | 9.01649 | 77° | 42km/h | 17561m | 4.5m/s | -55.0°C | 4.2% | 84.9hPa | 2.6V | 00:00:00 | 01:09:09 | 00:00:00 | |
| DJ2KF-10 | 2026-09-04 07:42:00 | 52.66119 | 9.01632 | 80° | 44km/h | 17556m | 5.5m/s | -55.0°C | 4.3% | 85.0hPa | 2.6V | 00:00:00 | 01:09:08 | 00:00:00 | |
| DL1XH1-15 | 2026-09-04 07:41:59 | 52.66114 | 9.01521 | 95° | 46km/h | 17524m | 4.6m/s | -54.7°C | 4.3% | 85.4hPa | 2.6V | 08:30:00 | 01:09:02 | 00:00:00 | |
| HSKMA3-T | 2026-09-04 07:41:59 | 52.66117 | 9.01615 | 83° | 42km/h | 17550m | 4.7m/s | -55°C | 0.8% | 85.1hPa | 2.6V | 18:12:15 | 01:09:07 | 00:00:00 | |
| BIOWL1-15 | 2026-09-04 07:41:58 | 52.66113 | 9.01559 | 87° | 47km/h | 17535m | 4.5m/s | -54.8°C | 0.7% | 85.3hPa | 2.7V | 18:12:15 | 01:09:04 | 00:00:00 | |
| DL1XH-west | 2026-09-04 07:41:55 | 52.66113 | 9.01540 | 91° | 46km/h | 17529m | 6.1m/s | -54.8°C | 0.7% | 85.3hPa | 2.6V | 18:12:15 | 01:09:03 | 00:00:00 | |
| SONCRA | 2026-09-04 07:41:55 | 52.66114 | 9.01521 | 95° | 44km/h | 17524m | 4.6m/s | -54.7°C | 1.3% | 85.4hPa | 2.7V | 00:00:00 | 00:00:00 | 00:00:00 | |
| BUE01 | 2026-09-04 07:41:54 | 52.66118 | 9.01425 | 95° | 44km/h | 17497m | 4.0m/s | -54.6°C | 1.3% | 85.8hPa | 2.7V | 00:00:00 | 00:00:00 | 00:00:00 | |
| DL1NUX | 2026-09-04 07:41:53 | 52.66119 | 9.01406 | 91° | 46km/h | 17492m | 6.2m/s | -54.6°C | 4.2% | 85.8hPa | 2.7V | 08:30:00 | 01:08:56 | 00:00:00 | |
| AA1-15 | 2026-09-04 07:41:52 | 52.66115 | 9.01483 | 93° | 47km/h | 17513m | 5.6m/s | -54.7°C | 0.7% | 85.6hPa | 2.7V | 18:12:15 | 01:09:00 | 00:00:00 | |
| DO2JMG | 2026-09-04 07:41:51 | 52.66116 | 9.01464 | 93° | 47km/h | 17508m | 5m/s | -54.7°C | 0.7% | 85.7hPa | 2.6V | 18:12:15 | 01:08:59 | 00:00:00 | |
| DF8AY | 2026-09-04 07:41:50 | 52.66117 | 9.01444 | 95° | 46km/h | 17502m | 6.1m/s | -54.7°C | 0.7% | 85.8hPa | 2.6V | 18:12:15 | 01:08:58 | 00:00:00 | |
| DB0UT-7 | 2026-09-04 07:41:50 | 52.66117 | 9.01444 | 95° | 44km/h | 17502m | 6.0m/s | -54.6°C | 4.2% | 85.7hPa | 2.6V | 00:00:00 | 01:08:58 | 00:00:00 | |
| DL1XH1-15 | 2026-09-04 07:41:49 | 52.66119 | 9.01333 | 95° | 44km/h | 17471m | 4.9m/s | -54.5°C | 4.3% | 86.2hPa | 2.6V | 08:30:00 | 01:08:52 | 00:00:00 | |
| HSKMA3-T | 2026-09-04 07:41:48 | 52.66118 | 9.01407 | 92° | 46km/h | 17492m | 6.2m/s | -54.6°C | 0.7% | 85.8hPa | 2.7V | 18:12:15 | 01:08:56 | 00:00:00 | |
| BIOWL1-15 | 2026-09-04 07:41:45 | 52.66119 | 9.01351 | 93° | 44km/h | 17476m | 6.2m/s | -54.5°C | 0.7% | 86.1hPa | 2.6V | 18:12:15 | 01:08:53 | 00:00:00 | |
| DL1XH-west | 2026-09-04 07:41:44 | 52.66120 | 9.01333 | 96° | 44km/h | 17471m | 4.9m/s | -54.5°C | 0.7% | 86.2hPa | 2.6V | 18:12:15 | 01:08:52 | 00:00:00 | |
| DJ2DS-15 | 2026-09-04 07:41:44 | 52.66119 | 9.01333 | 96° | 42km/h | 17471m | 4.9m/s | -54.5°C | 4.3% | 86.1hPa | 2.6V | 00:00:00 | 01:08:52 | 00:00:00 | |
| DL1NUX | 2026-09-04 07:41:43 | 52.66129 | 9.01229 | 106° | 42km/h | 17438m | 6.5m/s | -54.4°C | 4.1% | 86.6hPa | 2.6V | 08:30:00 | 01:08:46 | 00:00:00 | |
| AA1-15 | 2026-09-04 07:41:41 | 52.66122 | 9.01279 | 96° | 42km/h | 17455m | 3.5m/s | -54.4°C | 0.7% | 86.4hPa | 2.7V | 18:12:15 | 01:08:49 | 00:00:00 | |
| DO2JMG | 2026-09-04 07:41:40 | 52.66123 | 9.01262 | 100° | 40km/h | 17449m | 6.8m/s | -54.4°C | 0.6% | 86.4hPa | 2.7V | 18:12:15 | 01:08:48 | 00:00:00 | |
| D01LWL | 2026-09-04 07:41:40 | 52.66126 | 9.01246 | 106° | 40km/h | 17444m | 4.8m/s | -54.4°C | 1.3% | 86.5hPa | 2.7V | 00:00:00 | 00:00:00 | 00:00:00 | |
| DL1XH1-15 | 2026-09-04 07:41:39 | 52.66141 | 9.01160 | 103° | 40km/h | 17416m | 4.4m/s | -54.3°C | 4.2% | 86.9hPa | 2.7V | 08:30:00 | 01:08:42 | 00:00:00 | |
| HSKMA3-T | 2026-09-04 07:41:38 | 52.66132 | 9.01212 | 105° | 44km/h | 17432m | 5.4m/s | -54.4°C | 0.6% | 86.7hPa | 2.6V | 18:12:15 | 01:08:45 | 00:00:00 | |
| BIOWL1-15 | 2026-09-04 07:41:34 | 52.66141 | 9.01160 | 103° | 40km/h | 17416m | 4.4m/s | -54.3°C | 0.7% | 86.9hPa | 2.7V | 18:12:15 | 01:08:42 | 00:00:00 | |
| DL1XH-west | 2026-09-04 07:41:33 | 52.66143 | 9.01144 | 99° | 42km/h | 17410m | 6.6m/s | -54.2°C | 0.7% | 87hPa | 2.6V | 18:12:15 | 01:08:41 | 00:00:00 | |
| AA1-15 | 2026-09-04 07:41:31 | 52.66145 | 9.01109 | 95° | 42km/h | 17400m | 4m/s | -54.2°C | 0.7% | 87.1hPa | 2.6V | 18:12:15 | 01:08:39 | 00:00:00 | |
| DF8AY | 2026-09-04 07:41:30 | 52.66146 | 9.01092 | 99° | 40km/h | 17395m | 6.1m/s | -54.3°C | 0.7% | 87.2hPa | 2.7V | 18:12:15 | 01:08:38 | 00:00:00 | |
| BIOWL1-15 | 2026-09-04 07:41:28 | 52.66168 | 9.00994 | 118° | 44km/h | 17361m | 6.1m/s | -54.2°C | 0.6% | 87.6hPa | 2.6V | 18:12:15 | 01:08:32 | 00:00:00 | |
| HSKMA3-T | 2026-09-04 07:41:26 | 52.66158 | 9.01026 | 114° | 42km/h | 17373m | 6.2m/s | -54.1°C | 0.7% | 87.5hPa | 2.7V | 18:12:15 | 01:08:34 | 00:00:00 | |
| DB0DAN | 2026-09-04 07:41:25 | 52.66163 | 9.01010 | 119° | 42km/h | 17367m | 5.6m/s | -54.1°C | 1.3% | 87.59hPa | 2.7V | 00:00:00 | 00:00:00 | 00:00:00 | |
| DN9WHV | 2026-09-04 07:41:24 | 52.66168 | 9.00994 | 119° | 44km/h | 17361m | 6.1m/s | -54.2°C | 1.3% | 87.6hPa | 2.6V | 00:00:00 | 00:00:00 | 00:00:00 | |
| DL1NUX | 2026-09-04 07:41:23 | 52.66192 | 9.00896 | 103° | 42km/h | 17328m | 4.6m/s | -54.5°C | 4.1% | 88.1hPa | 2.6V | 08:30:00 | 01:08:26 | 00:00:00 | |
| DL1XH-west | 2026-09-04 07:41:23 | 52.66173 | 9.00978 | 115° | 44km/h | 17355m | 5.4m/s | -54.3°C | 0.7% | 87.7hPa | 2.6V | 18:12:15 | 01:08:31 | 00:00:00 | |
| AA1-15 | 2026-09-04 07:41:21 | 52.66182 | 9.00945 | 115° | 42km/h | 17345m | 6.5m/s | -54.5°C | 0.6% | 87.8hPa | 2.7V | 18:12:15 | 01:08:29 | 00:00:00 | |
| DO2JMG | 2026-09-04 07:41:19 | 52.66189 | 9.00913 | 106° | 40km/h | 17333m | 6.5m/s | -54.6°C | 0.6% | 88hPa | 2.6V | 18:12:15 | 01:08:27 | 00:00:00 | |
| HSKMA3-T | 2026-09-04 07:41:16 | 52.66198 | 9.00862 | 111° | 46km/h | 17317m | 5m/s | -54.5°C | 0.7% | 88.2hPa | 2.7V | 18:12:15 | 01:08:24 | 00:00:00 | |
| BIOWL1-15 | 2026-09-04 07:41:16 | 52.66208 | 9.00823 | 112° | 53km/h | 17307m | 5.7m/s | -54.4°C | 0.7% | 88.4hPa | 2.6V | 18:12:15 | 01:08:22 | 00:00:00 | |
| SO1NDE-10 | 2026-09-04 07:41:15 | 52.66203 | 9.00843 | 113° | 55km/h | 17312m | 4.4m/s | -54.4°C | 4.2% | 88.2hPa | 2.6V | 00:00:00 | 01:08:23 | 00:00:00 | |
| DO2SHX-10 | 2026-09-04 07:41:14 | 52.66208 | 9.00823 | 112° | 55km/h | 17307m | 5.7m/s | -54.3°C | 4.2% | 88.3hPa | 2.6V | 00:00:00 | 01:08:22 | 00:00:00 | |
| DL1NUX | 2026-09-04 07:41:13 | 52.66241 | 9.00701 | 114° | 51km/h | 17275m | 5.3m/s | -54.5°C | 4.1% | 88.8hPa | 2.6V | 08:30:00 | 01:08:16 | 00:00:00 | |
| DL1XH-west | 2026-09-04 07:41:12 | 52.66218 | 9.00781 | 112° | 55km/h | 17296m | 4.2m/s | -54.3°C | 0.7% | 88.5hPa | 2.6V | 18:12:15 | 01:08:20 | 00:00:00 | |
| AA1-15 | 2026-09-04 07:41:11 | 52.66224 | 9.00760 | 115° | 55km/h | 17291m | 5.9m/s | -54.4°C | 0.7% | 88.6hPa | 2.7V | 18:12:15 | 01:08:19 | 00:00:00 | |
| DO2JMG | 2026-09-04 07:41:09 | 52.66236 | 9.00720 | 116° | 53km/h | 17281m | 5.7m/s | -54.5°C | 0.7% | 88.7hPa | 2.7V | 18:12:15 | 01:08:17 | 00:00:00 | |
| DF8AY | 2026-09-04 07:41:08 | 52.66241 | 9.00701 | 114° | 51km/h | 17275m | 5.3m/s | -54.5°C | 0.6% | 88.8hPa | 2.6V | 18:12:15 | 01:08:16 | 00:00:00 | |
| HSKMA3-T | 2026-09-04 07:41:05 | 52.66256 | 9.00644 | 111° | 49km/h | 17259m | 5.7m/s | -54.6°C | 0.7% | 89hPa | 2.7V | 18:12:15 | 01:08:13 | 00:00:00 | |
| BIOWL1-15 | 2026-09-04 07:41:04 | 52.66260 | 9.00624 | 107° | 51km/h | 17254m | 5.3m/s | -54.7°C | 0.7% | 89.1hPa | 2.7V | 18:12:15 | 01:08:12 | 00:00:00 | |
| AA1-15 | 2026-09-04 07:41:01 | 52.66273 | 9.00558 | 111° | 60km/h | 17238m | 4.8m/s | -54.7°C | 0.7% | 89.3hPa | 2.6V | 18:12:15 | 01:08:09 | 00:00:00 | |
| DF5WG-10 | 2026-09-04 07:41:00 | 52.66279 | 9.00534 | 110° | 57km/h | 17234m | 5.0m/s | -54.6°C | 4.2% | 89.4hPa | 2.7V | 00:00:00 | 01:08:08 | 00:00:00 | |
| DL1XH1-15 | 2026-09-04 07:40:59 | 52.66302 | 9.00395 | 98° | 53km/h | 17200m | 4.6m/s | -54.5°C | 4.3% | 89.9hPa | 2.7V | 08:30:00 | 01:08:02 | 00:00:00 | |
| DO2JMG | 2026-09-04 07:40:58 | 52.66288 | 9.00485 | 107° | 60km/h | 17222m | 5.4m/s | -54.6°C | 0.8% | 89.5hPa | 2.7V | 18:12:15 | 01:08:06 | 00:00:00 | |
| HSKMA3-T | 2026-09-04 07:40:54 | 52.66302 | 9.00395 | 99° | 53km/h | 17200m | 4.6m/s | -54.5°C | 0.8% | 89.9hPa | 2.7V | 18:12:15 | 01:08:02 | 00:00:00 | |
| DO3DL | 2026-09-04 07:40:54 | 52.66302 | 9.00395 | 100° | 53km/h | 17201m | 4.6m/s | -54.5°C | 1.4% | 89.9hPa | 2.6V | 00:00:00 | 00:00:00 | 00:00:00 | |
| DL1NUX | 2026-09-04 07:40:53 | 52.66318 | 9.00259 | 101° | 57km/h | 17170m | 5.8m/s | -54.4°C | 4.1% | 90.3hPa | 2.6V | 08:30:00 | 01:07:56 | 00:00:00 | |
| BIOWL1-15 | 2026-09-04 07:40:53 | 52.66304 | 9.00373 | 100° | 53km/h | 17195m | 5.7m/s | -54.5°C | 0.8% | 89.9hPa | 2.6V | 18:12:15 | 01:08:01 | 00:00:00 | |
| DL1XH-west | 2026-09-04 07:40:50 | 52.66313 | 9.00306 | 101° | 57km/h | 17180m | 5.7m/s | -54.4°C | 0.6% | 90.2hPa | 2.7V | 18:12:15 | 01:07:58 | 00:00:00 | |
| DB0UT-7 | 2026-09-04 07:40:50 | 52.66312 | 9.00306 | 101° | 60km/h | 17180m | 5.6m/s | -54.3°C | 4.1% | 90.1hPa | 2.7V | 00:00:00 | 01:07:58 | 00:00:00 | |
| DL1XH1-15 | 2026-09-04 07:40:49 | 52.66329 | 9.00169 | 99° | 55km/h | 17149m | 5.1m/s | -54.3°C | 4.1% | 90.5hPa | 2.7V | 08:30:00 | 01:07:52 | 00:00:00 | |
| DF8AY | 2026-09-04 07:40:48 | 52.66318 | 9.00259 | 102° | 57km/h | 17170m | 5.8m/s | -54.4°C | 0.7% | 90.3hPa | 2.6V | 18:12:15 | 01:07:56 | 00:00:00 | |
| DO2JMG | 2026-09-04 07:40:47 | 52.66321 | 9.00236 | 103° | 55km/h | 17165m | 4.7m/s | -54.4°C | 0.6% | 90.4hPa | 2.6V | 18:12:15 | 01:07:55 | 00:00:00 | |
| DD8BA-10 | 2026-09-04 07:40:47 | 52.66321 | 9.00236 | 104° | 57km/h | 17165m | 4.7m/s | -54.4°C | 4.1% | 90.3hPa | 2.7V | 00:00:00 | 00:00:00 | 00:00:00 | |
| DL1CLM-18 | 2026-09-04 07:40:46 | 52.66321 | 9.00236 | 104° | 55km/h | 17165m | 4.7m/s | -54.4°C | 1.3% | 90.4hPa | 2.7V | 00:00:00 | 00:00:00 | 00:00:00 | |
| DM0DOS-11 | 2026-09-04 07:40:45 | 52.66338 | 9.00074 | 96° | 58km/h | 17129m | 3.8m/s | -54.2°C | 4.1% | 90.9hPa | 2.7V | 08:30:00 | 01:07:48 | 00:00:00 | |
| HSKMA3-T | 2026-09-04 07:40:44 | 52.66329 | 9.00169 | 100° | 57km/h | 17149m | 5.1m/s | -54.3°C | 0.7% | 90.5hPa | 2.7V | 18:12:15 | 01:07:52 | 00:00:00 | |
| DJ2DS-15 | 2026-09-04 07:40:44 | 52.66329 | 9.00169 | 100° | 60km/h | 17150m | 5.1m/s | -54.3°C | 4.1% | 90.5hPa | 2.7V | 00:00:00 | 01:07:52 | 00:00:00 | |
| DL1NUX | 2026-09-04 07:40:43 | 52.66342 | 9.00027 | 99° | 57km/h | 17119m | 4.3m/s | -54.3°C | 4.1% | 91hPa | 2.7V | 08:30:00 | 01:07:46 | 00:00:00 | |
| BIOWL1-15 | 2026-09-04 07:40:42 | 52.66334 | 9.00122 | 99° | 58km/h | 17139m | 4.1m/s | -54.3°C | 0.7% | 90.7hPa | 2.6V | 18:12:15 | 01:07:50 | 00:00:00 | |
| DL1XH-west | 2026-09-04 07:40:40 | 52.66338 | 9.00074 | 97° | 58km/h | 17129m | 3.8m/s | -54.2°C | 0.7% | 90.9hPa | 2.7V | 18:12:15 | 01:07:48 | 00:00:00 | |
| AA1-15 | 2026-09-04 07:40:39 | 52.66340 | 9.00050 | 98° | 58km/h | 17124m | 6m/s | -54.3°C | 0.7% | 90.9hPa | 2.7V | 18:12:15 | 01:07:47 | 00:00:00 | |
| DF8AY | 2026-09-04 07:40:37 | 52.66344 | 9.00004 | 97° | 57km/h | 17114m | 5.7m/s | -54.3°C | 0.7% | 91.1hPa | 2.6V | 18:12:15 | 01:07:45 | 00:00:00 | |
| DO2JMG | 2026-09-04 07:40:36 | 52.66345 | 8.99981 | 95° | 57km/h | 17108m | 5.6m/s | -54.4°C | 0.6% | 91.2hPa | 2.6V | 18:12:15 | 01:07:44 | 00:00:00 | |
| DM0DOS-11 | 2026-09-04 07:40:35 | 52.66352 | 8.99832 | 88° | 68km/h | 17076m | 5.7m/s | -54.8°C | 4.3% | 91.7hPa | 2.6V | 08:30:00 | 01:07:38 | 00:00:00 | |
| HSKMA3-T | 2026-09-04 07:40:34 | 52.66348 | 8.99934 | 96° | 57km/h | 17097m | 6.3m/s | -54.7°C | 0.7% | 91.3hPa | 2.7V | 18:12:15 | 01:07:42 | 00:00:00 | |
| DL1NUX | 2026-09-04 07:40:33 | 52.66351 | 8.99775 | 89° | 68km/h | 17064m | 5.7m/s | -54.8°C | 4.3% | 91.8hPa | 2.7V | 08:30:00 | 01:07:36 | 00:00:00 | |
| BIOWL1-15 | 2026-09-04 07:40:31 | 52.66352 | 8.99860 | 93° | 64km/h | 17082m | 7.6m/s | -54.8°C | 0.7% | 91.5hPa | 2.6V | 18:12:15 | 01:07:39 | 00:00:00 | |
| DL1XH-west | 2026-09-04 07:40:29 | 52.66352 | 8.99803 | 89° | 69km/h | 17070m | 5.8m/s | -54.8°C | 0.7% | 91.7hPa | 2.6V | 18:12:15 | 01:07:37 | 00:00:00 | |
| DF8AY | 2026-09-04 07:40:27 | 52.66351 | 8.99747 | 89° | 66km/h | 17059m | 4.6m/s | -54.8°C | 0.7% | 91.9hPa | 2.7V | 18:12:15 | 01:07:35 | 00:00:00 | |
| DO2JMG | 2026-09-04 07:40:26 | 52.66351 | 8.99719 | 87° | 66km/h | 17053m | 7.1m/s | -54.9°C | 0.8% | 92hPa | 2.6V | 18:12:15 | 01:07:34 | 00:00:00 | |
| DB0DAN | 2026-09-04 07:40:25 | 52.66350 | 8.99693 | 85° | 60km/h | 17047m | 4.9m/s | -54.8°C | 1.4% | 92.07hPa | 2.6V | 00:00:00 | 00:00:00 | 00:00:00 | |
| HSKMA3-T | 2026-09-04 07:40:23 | 52.66348 | 8.99643 | 87° | 58km/h | 17036m | 5.2m/s | -54.8°C | 0.9% | 92.2hPa | 2.7V | 18:12:15 | 01:07:31 | 00:00:00 | |
| BIOWL1-15 | 2026-09-04 07:40:21 | 52.66345 | 8.99594 | 84° | 60km/h | 17027m | 5.9m/s | -54.7°C | 0.9% | 92.3hPa | 2.6V | 18:12:15 | 01:07:29 | 00:00:00 | |
| DL1XH-west | 2026-09-04 07:40:18 | 52.66340 | 8.99517 | 85° | 62km/h | 17012m | 5.4m/s | -54.7°C | 0.9% | 92.5hPa | 2.6V | 18:12:15 | 01:07:26 | 00:00:00 | |
| DF8AY | 2026-09-04 07:40:16 | 52.66337 | 8.99467 | 84° | 60km/h | 17002m | 4.3m/s | -54.6°C | 0.7% | 92.7hPa | 2.6V | 18:12:15 | 01:07:24 | 00:00:00 | |
| DO2JMG | 2026-09-04 07:40:15 | 52.66335 | 8.99441 | 82° | 62km/h | 16997m | 6.1m/s | -54.5°C | 0.8% | 92.8hPa | 2.7V | 18:12:15 | 01:07:23 | 00:00:00 | |
| DO2SHX-10 | 2026-09-04 07:40:15 | 52.66335 | 8.99441 | 83° | 62km/h | 16997m | 6.1m/s | -54.5°C | 4.3% | 92.8hPa | 2.7V | 00:00:00 | 01:07:23 | 00:00:00 | |
| DD1CC8 | 2026-09-04 07:40:14 | 52.66333 | 8.99415 | 83° | 62km/h | 16991m | 4.3m/s | -54.5°C | 1.3% | 92.9hPa | 2.7V | 00:00:00 | 00:00:00 | 00:00:00 | |
| DL1NUX | 2026-09-04 07:40:13 | 52.66325 | 8.99268 | 86° | 51km/h | 16959m | 4.1m/s | -54.3°C | 4.2% | 93.3hPa | 2.7V | 08:30:00 | 01:07:16 | 00:00:00 | |
| GOEST3-10 | 2026-09-04 07:40:13 | 52.66332 | 8.99390 | 86° | 60km/h | 16986m | 6.4m/s | -54.5°C | 4.2% | 92.9hPa | 2.6V | 00:00:00 | 01:07:21 | 00:00:00 | |
| HSKMA3-T | 2026-09-04 07:40:13 | 52.66332 | 8.99390 | 85° | 62km/h | 16986m | 6.4m/s | -54.5°C | 0.8% | 92.9hPa | 2.7V | 18:12:15 | 01:07:21 | 00:00:00 | |
| DL4XJ-10 | 2026-09-04 07:40:12 | 52.66330 | 8.99364 | 85° | 53km/h | 16981m | 4.8m/s | -55.0°C | 0% | 0hPa | 2.6V | 00:00:00 | 00:00:00 | 00:00:00 | |
| DN9WHV | 2026-09-04 07:40:11 | 52.66330 | 8.99364 | 86° | 62km/h | 16981m | 4.9m/s | -54.5°C | 1.4% | 93.0hPa | 2.6V | 00:00:00 | 00:00:00 | 00:00:00 | |
| DB0DAN | 2026-09-04 07:40:10 | 52.66327 | 8.99314 | 85° | 57km/h | 16970m | 4.8m/s | -54.4°C | 1.3% | 93.19hPa | 2.6V | 00:00:00 | 00:00:00 | 00:00:00 | |
| BIOWL1-15 | 2026-09-04 07:40:10 | 52.66327 | 8.99314 | 85° | 58km/h | 16970m | 4.8m/s | -54.4°C | 0.7% | 93.2hPa | 2.6V | 18:12:15 | 01:07:18 | 00:00:00 | |
| DF5WG-10 | 2026-09-04 07:40:10 | 52.66327 | 8.99314 | 86° | 53km/h | 16970m | 4.7m/s | -54.4°C | 4.2% | 93.1hPa | 2.6V | 00:00:00 | 01:07:18 | 00:00:00 | |
| DL1XH1-15 | 2026-09-04 07:40:09 | 52.66321 | 8.99186 | 87° | 51km/h | 16939m | 5.9m/s | -54.3°C | 4.2% | 93.6hPa | 2.6V | 08:30:00 | 01:07:12 | 00:00:00 | |
| DL1XH-west | 2026-09-04 07:40:08 | 52.66325 | 8.99268 | 87° | 51km/h | 16959m | 4.1m/s | -54.3°C | 0.7% | 93.3hPa | 2.7V | 18:12:15 | 01:07:16 | 00:00:00 | |
| DF8AY | 2026-09-04 07:40:06 | 52.66323 | 8.99227 | 83° | 49km/h | 16948m | 4.3m/s | -54.3°C | 0.7% | 93.5hPa | 2.6V | 18:12:15 | 01:07:14 | 00:00:00 | |
| DO2JMG | 2026-09-04 07:40:04 | 52.66321 | 8.99186 | 88° | 51km/h | 16939m | 5.9m/s | -54.3°C | 0.7% | 93.6hPa | 2.6V | 18:12:15 | 01:07:12 | 00:00:00 | |
| DJ2DS-15 | 2026-09-04 07:40:04 | 52.66321 | 8.99186 | 88° | 51km/h | 16939m | 5.9m/s | -54.3°C | 4.2% | 93.6hPa | 2.6V | 00:00:00 | 01:07:12 | 00:00:00 | |
| DL1NUX | 2026-09-04 07:40:03 | 52.66319 | 8.99045 | 89° | 53km/h | 16909m | 5.3m/s | -54.3°C | 4.3% | 94.1hPa | 2.6V | 08:30:00 | 01:07:06 | 00:00:00 | |
| HSKMA3-T | 2026-09-04 07:40:02 | 52.66321 | 8.99141 | 90° | 57km/h | 16929m | 5.3m/s | -54.4°C | 0.7% | 93.8hPa | 2.7V | 18:12:15 | 01:07:10 | 00:00:00 | |
| BIOWL1-15 | 2026-09-04 07:40:01 | 52.66319 | 8.99068 | 88° | 57km/h | 16915m | 6m/s | -54.5°C | 0.8% | 94hPa | 2.6V | 18:12:15 | 01:07:07 | 00:00:00 | |
| DL1XH-west | 2026-09-04 07:39:58 | 52.66319 | 8.99045 | 90° | 55km/h | 16909m | 5.3m/s | -54.3°C | 0.8% | 94.1hPa | 2.6V | 18:12:15 | 01:07:06 | 00:00:00 | |
| DO9LL-15 | 2026-09-04 07:39:58 | 52.66319 | 8.99045 | 90° | 49km/h | 16909m | 5.2m/s | -54.3°C | 4.3% | 94.0hPa | 2.6V | 00:00:00 | 01:07:06 | 00:00:00 | |
| DO2SHX-10 | 2026-09-04 07:39:57 | 52.66319 | 8.99023 | 89° | 49km/h | 16904m | 5.3m/s | -54.2°C | 4.2% | 94.1hPa | 2.6V | 00:00:00 | 01:07:05 | 00:00:00 | |
| DM0DOS-11 | 2026-09-04 07:39:56 | 52.66318 | 8.98889 | 93° | 51km/h | 16868m | 4.5m/s | -54.2°C | 4.2% | 94.7hPa | 2.6V | 08:30:00 | 01:06:58 | 00:00:00 | |
| DF8AY | 2026-09-04 07:39:55 | 52.66317 | 8.98982 | 85° | 46km/h | 16893m | 4.3m/s | -54.2°C | 0.7% | 94.3hPa | 2.6V | 18:12:15 | 01:07:03 | 00:00:00 | |
| DO2JMG | 2026-09-04 07:39:54 | 52.66317 | 8.98964 | 87° | 44km/h | 16888m | 6.2m/s | -54.2°C | 0.7% | 94.4hPa | 2.6V | 18:12:15 | 01:07:02 | 00:00:00 | |
| DO3DL | 2026-09-04 07:39:54 | 52.66317 | 8.98964 | 88° | 44km/h | 16888m | 6.2m/s | -54.2°C | 1.3% | 94.4hPa | 2.7V | 00:00:00 | 00:00:00 | 00:00:00 | |
| DL1NUX | 2026-09-04 07:39:53 | 52.66321 | 8.98845 | 98° | 55km/h | 16858m | 5.5m/s | -54.1°C | 4.3% | 94.8hPa | 2.7V | 08:30:00 | 01:06:56 | 00:00:00 | |
| HSKMA3-T | 2026-09-04 07:39:51 | 52.66317 | 8.98909 | 92° | 47km/h | 16873m | 5.5m/s | -54.2°C | 0.8% | 94.6hPa | 2.6V | 18:12:15 | 01:06:59 | 00:00:00 | |
| BIOWL1-15 | 2026-09-04 07:39:51 | 52.66319 | 8.98867 | 97° | 53km/h | 16863m | 5.3m/s | -54.2°C | 0.8% | 94.7hPa | 2.7V | 18:12:15 | 01:06:57 | 00:00:00 | |
| SONCRA | 2026-09-04 07:39:51 | 52.66318 | 8.98889 | 93° | 51km/h | 16868m | 4.5m/s | -54.2°C | 1.3% | 94.7hPa | 2.7V | 00:00:00 | 00:00:00 | 00:00:00 | |
| DB0UT-7 | 2026-09-04 07:39:50 | 52.66318 | 8.98889 | 94° | 51km/h | 16868m | 4.4m/s | -54.1°C | 4.2% | 94.6hPa | 2.7V | 00:00:00 | 01:06:58 | 00:00:00 | |
| DL1XH1-15 | 2026-09-04 07:39:49 | 52.66327 | 8.98756 | 96° | 51km/h | 16837m | 6m/s | -54.1°C | 4.3% | 95.1hPa | 2.7V | 08:30:00 | 01:06:52 | 00:00:00 | |
| DL1XH-west | 2026-09-04 07:39:47 | 52.66323 | 8.98822 | 98° | 55km/h | 16853m | 4.2m/s | -54.1°C | 0.9% | 94.9hPa | 2.6V | 18:12:15 | 01:06:55 | 00:00:00 | |
| DN9WHV | 2026-09-04 07:39:46 | 52.66323 | 8.98822 | 99° | 55km/h | 16853m | 4.2m/s | -54.1°C | 1.4% | 94.9hPa | 2.6V | 00:00:00 | 00:00:00 | 00:00:00 | |
| DM0DOS-11 | 2026-09-04 07:39:45 | 52.66332 | 8.98674 | 94° | 51km/h | 16817m | 5.3m/s | -53.9°C | 4.2% | 95.4hPa | 2.6V | 08:30:00 | 01:06:48 | 00:00:00 | |
| DO2JMG | 2026-09-04 07:39:44 | 52.66327 | 8.98756 | 97° | 51km/h | 16837m | 6m/s | -54.1°C | 0.8% | 95.1hPa | 2.7V | 18:12:15 | 01:06:52 | 00:00:00 | |
| DJ2DS-15 | 2026-09-04 07:39:44 | 52.66327 | 8.98756 | 97° | 49km/h | 16838m | 6.0m/s | -54.0°C | 4.3% | 95.1hPa | 2.7V | 00:00:00 | 01:06:52 | 00:00:00 | |
| DL1NUX | 2026-09-04 07:39:43 | 52.66335 | 8.98632 | 99° | 53km/h | 16806m | 4.5m/s | -53.9°C | 4.2% | 95.6hPa | 2.7V | 08:30:00 | 01:06:46 | 00:00:00 | |
| DD1CC8 | 2026-09-04 07:39:43 | 52.66330 | 8.98715 | 95° | 49km/h | 16827m | 5.9m/s | -54.0°C | 1.4% | 95.3hPa | 2.7V | 00:00:00 | 00:00:00 | 00:00:00 | |
| DO2SHX-10 | 2026-09-04 07:39:42 | 52.66330 | 8.98715 | 96° | 49km/h | 16827m | 5.8m/s | -53.9°C | 4.3% | 95.3hPa | 2.7V | 00:00:00 | 01:06:50 | 00:00:00 | |
| DC6BW-12 | 2026-09-04 07:39:41 | 52.66330 | 8.98715 | 97° | 49km/h | 16827m | 5.9m/s | -54.0°C | 1.4% | 95.3hPa | 2.6V | 00:00:00 | 00:00:00 | 00:00:00 | |
| DB0DAN | 2026-09-04 07:39:40 | 52.66332 | 8.98674 | 95° | 47km/h | 16817m | 5.3m/s | -53.9°C | 1.4% | 95.44hPa | 2.6V | 00:00:00 | 00:00:00 | 00:00:00 | |
| HSKMA3-T | 2026-09-04 07:39:40 | 52.66332 | 8.98674 | 95° | 51km/h | 16817m | 5.3m/s | -53.9°C | 0.8% | 95.4hPa | 2.6V | 18:12:15 | 01:06:48 | 00:00:00 | |
| BIOWL1-15 | 2026-09-04 07:39:38 | 52.66335 | 8.98632 | 100° | 53km/h | 16806m | 4.5m/s | -53.9°C | 0.7% | 95.6hPa | 2.7V | 18:12:15 | 01:06:46 | 00:00:00 | |
| DL1XH-west | 2026-09-04 07:39:37 | 52.66338 | 8.98610 | 99° | 53km/h | 16801m | 5.7m/s | -53.8°C | 0.8% | 95.7hPa | 2.7V | 18:12:15 | 01:06:45 | 00:00:00 | |
| AA1-15 | 2026-09-04 07:39:36 | 52.66340 | 8.98588 | 99° | 53km/h | 16796m | 4.5m/s | -53.7°C | 0.7% | 95.8hPa | 2.7V | 18:12:15 | 01:06:44 | 00:00:00 | |
| DL3AQ-11 | 2026-09-04 07:39:36 | 52.66342 | 8.98567 | 100° | 49km/h | 16791m | 5.4m/s | -53.7°C | 1.3% | 95.8hPa | 2.7V | 00:00:00 | 00:00:00 | 00:00:00 | |
| DM0DOS-11 | 2026-09-04 07:39:35 | 52.66354 | 8.98470 | 100° | 46km/h | 16764m | 6.4m/s | -53.6°C | 4% | 96.2hPa | 2.7V | 08:30:00 | 01:06:38 | 00:00:00 | |
| DO2JMG | 2026-09-04 07:39:33 | 52.66347 | 8.98527 | 103° | 47km/h | 16780m | 5m/s | -53.6°C | 0.7% | 96hPa | 2.6V | 18:12:15 | 01:06:41 | 00:00:00 | |
| HSKMA3-T | 2026-09-04 07:39:29 | 52.66356 | 8.98451 | 99° | 46km/h | 16759m | 4.6m/s | -53.6°C | 0.7% | 96.3hPa | 2.6V | 18:12:15 | 01:06:37 | 00:00:00 | |
| BIOWL1-15 | 2026-09-04 07:39:27 | 52.66359 | 8.98411 | 94° | 53km/h | 16748m | 4.3m/s | -53.5°C | 0.8% | 96.5hPa | 2.6V | 18:12:15 | 01:06:35 | 00:00:00 | |
| DL1XH-west | 2026-09-04 07:39:26 | 52.66360 | 8.98389 | 96° | 55km/h | 16743m | 4.6m/s | -53.5°C | 0.7% | 96.5hPa | 2.7V | 18:12:15 | 01:06:34 | 00:00:00 | |
| DB0DAN | 2026-09-04 07:39:25 | 52.66361 | 8.98366 | 99° | 53km/h | 16738m | 5.6m/s | -53.5°C | 1.4% | 96.63hPa | 2.7V | 00:00:00 | 00:00:00 | 00:00:00 | |
| DM0DOS-11 | 2026-09-04 07:39:25 | 52.66376 | 8.98249 | 103° | 57km/h | 16711m | 5.5m/s | -53.5°C | 4.1% | 97hPa | 2.6V | 08:30:00 | 01:06:28 | 00:00:00 | |
| AA1-15 | 2026-09-04 07:39:25 | 52.66361 | 8.98366 | 99° | 55km/h | 16738m | 5.6m/s | -53.5°C | 0.8% | 96.6hPa | 2.7V | 18:12:15 | 01:06:33 | 00:00:00 | |
| DD8BA-10 | 2026-09-04 07:39:25 | 52.66361 | 8.98366 | 99° | 57km/h | 16738m | 5.6m/s | -53.4°C | 4.1% | 96.6hPa | 2.7V | 00:00:00 | 00:00:00 | 08:30:00 | |
| DO2SHX-10 | 2026-09-04 07:39:24 | 52.66364 | 8.98343 | 102° | 58km/h | 16733m | 4.6m/s | -53.4°C | 4.0% | 96.6hPa | 2.6V | 00:00:00 | 01:06:32 | 08:30:00 | |
| DL1NUX | 2026-09-04 07:39:23 | 52.66382 | 8.98204 | 100° | 55km/h | 16701m | 6.2m/s | -53.6°C | 4.1% | 97.2hPa | 2.7V | 08:30:00 | 01:06:26 | 00:00:00 | |
| DO2JMG | 2026-09-04 07:39:23 | 52.66367 | 8.98320 | 102° | 58km/h | 16728m | 5.4m/s | -53.5°C | 0.7% | 96.8hPa | 2.6V | 18:12:15 | 01:06:31 | 00:00:00 | |
| HSKMA3-T | 2026-09-04 07:39:19 | 52.66382 | 8.98204 | 100° | 55km/h | 16701m | 6.2m/s | -53.6°C | 0.8% | 97.2hPa | 2.7V | 18:12:15 | 01:06:26 | 00:00:00 | |
| BIOWL1-15 | 2026-09-04 07:39:16 | 52.66386 | 8.98160 | 99° | 53km/h | 16690m | 6.4m/s | -53.6°C | 0.8% | 97.4hPa | 2.6V | 18:12:15 | 01:06:24 | 00:00:00 | |
| DL1XH-west | 2026-09-04 07:39:15 | 52.66388 | 8.98138 | 97° | 53km/h | 16684m | 4.3m/s | -53.5°C | 0.7% | 97.4hPa | 2.6V | 18:12:15 | 01:06:23 | 00:00:00 | |
| DO2JMG | 2026-09-04 07:39:13 | 52.66390 | 8.98092 | 90° | 57km/h | 16674m | 5.7m/s | -53.6°C | 0.7% | 97.6hPa | 2.7V | 18:12:15 | 01:06:21 | 00:00:00 | |
| DF8AY | 2026-09-04 07:39:12 | 52.66389 | 8.98068 | 88° | 58km/h | 16670m | 3.9m/s | -53.6°C | 0.6% | 97.7hPa | 2.7V | 18:12:15 | 01:06:20 | 00:00:00 | |
| DD1CC8 | 2026-09-04 07:39:12 | 52.66389 | 8.98043 | 88° | 58km/h | 16665m | 4.8m/s | -53.7°C | 1.3% | 97.7hPa | 2.7V | 00:00:00 | 00:00:00 | 00:00:00 | |
| DF2AP-13 | 2026-09-04 07:39:11 | 52.66389 | 8.98043 | 89° | 66km/h | 16666m | 4.8m/s | -53.7°C | 4.0% | 97.7hPa | 2.7V | 00:00:00 | 01:06:19 | 00:00:00 | |
| DF5WG-10 | 2026-09-04 07:39:10 | 52.66389 | 8.98019 | 91° | 60km/h | 16661m | 5.0m/s | -53.8°C | 4.0% | 97.8hPa | 2.6V | 00:00:00 | 01:06:18 | 00:00:00 | |
| DL1XH1-15 | 2026-09-04 07:39:09 | 52.66399 | 8.97876 | 100° | 62km/h | 16630m | 4.6m/s | -54.1°C | 4.3% | 98.2hPa | 2.6V | 08:30:00 | 01:06:12 | 00:00:00 | |
| HSKMA3-T | 2026-09-04 07:39:08 | 52.66391 | 8.97974 | 97° | 55km/h | 16651m | 4.5m/s | -53.9°C | 0.7% | 98hPa | 2.6V | 18:12:15 | 01:06:16 | 00:00:00 | |
| BIOWL1-15 | 2026-09-04 07:39:06 | 52.66394 | 8.97926 | 97° | 60km/h | 16641m | 4.5m/s | -54.2°C | 0.9% | 98.1hPa | 2.7V | 18:12:15 | 01:06:14 | 00:00:00 | |
| DO2SHX-10 | 2026-09-04 07:39:06 | 52.66394 | 8.97926 | 98° | 60km/h | 16641m | 4.5m/s | -54.1°C | 4.3% | 98.0hPa | 2.7V | 00:00:00 | 01:06:14 | 00:00:00 | |
| DD8BA-10 | 2026-09-04 07:39:05 | 52.66396 | 8.97901 | 100° | 66km/h | 16636m | 5.9m/s | -54.0°C | 4.3% | 98.2hPa | 2.6V | 00:00:00 | 00:00:00 | 00:00:00 | |
| DL1XH-west | 2026-09-04 07:39:05 | 52.66396 | 8.97901 | 99° | 60km/h | 16635m | 5.9m/s | -54.1°C | 0.9% | 98.2hPa | 2.7V | 18:12:15 | 01:06:13 | 00:00:00 | |
| DJ2DS-15 | 2026-09-04 07:39:04 | 52.66399 | 8.97876 | 101° | 69km/h | 16630m | 4.6m/s | -54.1°C | 4.3% | 98.2hPa | 2.6V | 00:00:00 | 01:06:12 | 00:00:00 | |
| DL1NUX | 2026-09-04 07:39:03 | 52.66415 | 8.97711 | 102° | 66km/h | 16599m | 4.6m/s | -54.3°C | 4.3% | 98.7hPa | 2.6V | 08:30:00 | 01:06:06 | 00:00:00 | |
| DO2JMG | 2026-09-04 07:39:03 | 52.66402 | 8.97850 | 99° | 66km/h | 16625m | 5.5m/s | -54.2°C | 0.8% | 98.3hPa | 2.6V | 18:12:15 | 01:06:11 | 00:00:00 | |
| DF8AY | 2026-09-04 07:39:01 | 52.66407 | 8.97794 | 98° | 69km/h | 16615m | 4.2m/s | -54.2°C | 0.9% | 98.5hPa | 2.7V | 18:12:15 | 01:06:09 | 00:00:00 | |
| DO2SHX-10 | 2026-09-04 07:39:00 | 52.66409 | 8.97765 | 99° | 69km/h | 16610m | 6.1m/s | -54.1°C | 4.3% | 98.5hPa | 2.7V | 00:00:00 | 01:06:08 | 00:00:00 | |
| DL1XH1-15 | 2026-09-04 07:38:59 | 52.66430 | 8.97601 | 103° | 68km/h | 16578m | 4.9m/s | -54.2°C | 4.3% | 99.1hPa | 2.7V | 08:30:00 | 01:06:02 | 00:00:00 | |
| HSKMA3-T | 2026-09-04 07:38:58 | 52.66415 | 8.97711 | 102° | 66km/h | 16599m | 4.6m/s | -54.3°C | 0.9% | 98.7hPa | 2.6V | 18:12:15 | 01:06:06 | 00:00:00 | |
| AU51GT2 | 2026-09-04 07:38:56 | 52.66422 | 8.97656 | 101° | 68km/h | 16589m | 4.9m/s | -54.4°C | 1.4% | 98.9hPa | 2.7V | 00:00:00 | 00:00:00 | 00:00:00 | |
| DB0DAN | 2026-09-04 07:38:55 | 52.66426 | 8.97629 | 103° | 64km/h | 16583m | 6m/s | -54.3°C | 1.4% | 98.99hPa | 2.7V | 00:00:00 | 00:00:00 | 00:00:00 | |
| DL1XH-west | 2026-09-04 07:38:55 | 52.66426 | 8.97629 | 103° | 68km/h | 16583m | 6m/s | -54.3°C | 0.9% | 99hPa | 2.7V | 18:12:15 | 01:06:03 | 00:00:00 | |
| AA1-15 | 2026-09-04 07:38:54 | 52.66430 | 8.97601 | 104° | 68km/h | 16578m | 4.9m/s | -54.3°C | 0.9% | 99.1hPa | 2.7V | 18:12:15 | 01:06:02 | 00:00:00 | |
| DD1CC3-15 | 2026-09-04 07:38:54 | 52.66434 | 8.97573 | 105° | 69km/h | 16573m | 5.4m/s | -54.2°C | 1.5% | 99.2hPa | 2.6V | 00:00:00 | 00:00:00 | 00:00:00 | |
| DL1NUX | 2026-09-04 07:38:53 | 52.66459 | 8.97429 | 106° | 73km/h | 16547m | 5.7m/s | -54.1°C | 4.3% | 99.6hPa | 2.6V | 08:30:00 | 01:05:56 | 00:00:00 | |
| DO2JMG | 2026-09-04 07:38:52 | 52.66438 | 8.97545 | 104° | 73km/h | 16568m | 5.1m/s | -54.2°C | 0.9% | 99.2hPa | 2.6V | 18:12:15 | 01:06:00 | 00:00:00 | |
| DF8AY | 2026-09-04 07:38:51 | 52.66443 | 8.97515 | 105° | 73km/h | 16563m | 4.9m/s | -54.2°C | 0.9% | 99.3hPa | 2.7V | 18:12:15 | 01:05:59 | 00:00:00 | |
| DL8DAS-14 | 2026-09-04 07:38:51 | 52.66448 | 8.97486 | 106° | 71km/h | 16557m | 6.0m/s | -54.2°C | 1.5% | 99.4hPa | 2.7V | 00:00:00 | 00:00:00 | 00:00:00 | |
| DB0UT-7 | 2026-09-04 07:38:50 | 52.66448 | 8.97486 | 107° | 69km/h | 16557m | 6.0m/s | -54.2°C | 4.3% | 99.4hPa | 2.7V | 00:00:00 | 01:05:58 | 00:00:00 | |
| DL1XH1-15 | 2026-09-04 07:38:49 | 52.66477 | 8.97313 | 104° | 69km/h | 16526m | 4.5m/s | -54.1°C | 4.3% | 99.9hPa | 2.6V | 08:30:00 | 01:05:52 | 00:00:00 | |
| HSKMA3-T | 2026-09-04 07:38:47 | 52.66464 | 8.97400 | 105° | 75km/h | 16542m | 5.1m/s | -54.1°C | 0.9% | 99.7hPa | 2.7V | 18:12:15 | 01:05:55 | 00:00:00 | |
| BIOWL1-15 | 2026-09-04 07:38:47 | 52.66473 | 8.97341 | 105° | 71km/h | 16531m | 6.4m/s | -54.2°C | 1% | 99.8hPa | 2.6V | 18:12:15 | 01:05:53 | 00:00:00 | |
| DL1XH-west | 2026-09-04 07:38:44 | 52.66477 | 8.97313 | 105° | 69km/h | 16526m | 4.5m/s | -54.1°C | 0.9% | 99.9hPa | 2.6V | 18:12:15 | 01:05:52 | 00:00:00 | |
| DO2JMG | 2026-09-04 07:38:41 | 52.66491 | 8.97227 | 105° | 71km/h | 16511m | 5.3m/s | -54.2°C | 0.9% | 100.2hPa | 2.7V | 18:12:15 | 01:05:49 | 00:00:00 | |
| DF8AY | 2026-09-04 07:38:40 | 52.66496 | 8.97199 | 106° | 69km/h | 16505m | 6.1m/s | -54.1°C | 0.9% | 100.2hPa | 2.7V | 18:12:15 | 01:05:48 | 00:00:00 | |
| DF5WG-10 | 2026-09-04 07:38:40 | 52.66495 | 8.97199 | 106° | 68km/h | 16505m | 6.1m/s | -54.1°C | 4.2% | 100.2hPa | 2.7V | 00:00:00 | 01:05:48 | 00:00:00 | |
| DL1XH1-15 | 2026-09-04 07:38:39 | 52.66522 | 8.97033 | 104° | 69km/h | 16473m | 6.3m/s | -54.2°C | 4.3% | 100.7hPa | 2.7V | 08:30:00 | 01:05:42 | 00:00:00 | |
| HSKMA3-T | 2026-09-04 07:38:37 | 52.66509 | 8.97115 | 105° | 69km/h | 16490m | 5m/s | -54.3°C | 0.9% | 100.4hPa | 2.6V | 18:12:15 | 01:05:45 | 00:00:00 | |
| DN9WHV | 2026-09-04 07:38:37 | 52.66509 | 8.97115 | 106° | 69km/h | 16490m | 5.0m/s | -54.3°C | 1.4% | 100.4hPa | 2.7V | 00:00:00 | 00:00:00 | 00:00:00 | |
| DO2LYB-13 | 2026-09-04 07:38:36 | 52.66509 | 8.97115 | 106° | 69km/h | 16490m | 5.0m/s | -54.3°C | 1.5% | 100.4hPa | 2.7V | 00:00:00 | 00:00:00 | 00:00:00 | |
| DM0DOS-11 | 2026-09-04 07:38:35 | 52.66536 | 8.96924 | 98° | 64km/h | 16453m | 3.5m/s | -54.3°C | 4.4% | 101hPa | 2.7V | 08:30:00 | 01:05:38 | 00:00:00 | |
| BIOWL1-15 | 2026-09-04 07:38:34 | 52.66522 | 8.97033 | 104° | 69km/h | 16473m | 6.3m/s | -54.3°C | 1% | 100.8hPa | 2.7V | 18:12:15 | 01:05:42 | 00:00:00 | |
| DL1XH-west | 2026-09-04 07:38:33 | 52.66526 | 8.97005 | 103° | 69km/h | 16468m | 4.3m/s | -54.3°C | 1% | 100.8hPa | 2.6V | 18:12:15 | 01:05:41 | 00:00:00 | |
| DO2JMG | 2026-09-04 07:38:31 | 52.66533 | 8.96951 | 101° | 64km/h | 16457m | 5.3m/s | -54.3°C | 1% | 101hPa | 2.6V | 18:12:15 | 01:05:39 | 00:00:00 | |
| DF8AY | 2026-09-04 07:38:30 | 52.66536 | 8.96924 | 98° | 64km/h | 16453m | 3.5m/s | -54.3°C | 1% | 101hPa | 2.7V | 18:12:15 | 01:05:38 | 00:00:00 | |
| DN9WHV | 2026-09-04 07:38:30 | 52.66536 | 8.96924 | 99° | 64km/h | 16453m | 3.5m/s | -54.3°C | 1.5% | 101.0hPa | 2.7V | 00:00:00 | 00:00:00 | 00:00:00 | |
| DL1XH1-15 | 2026-09-04 07:38:29 | 52.66549 | 8.96763 | 102° | 68km/h | 16423m | 5.5m/s | -54.4°C | 4.3% | 101.5hPa | 2.7V | 08:30:00 | 01:05:32 | 00:00:00 | |
| HSKMA3-T | 2026-09-04 07:38:26 | 52.66543 | 8.96817 | 97° | 64km/h | 16433m | 5.3m/s | -54.3°C | 1.1% | 101.4hPa | 2.6V | 18:12:15 | 01:05:34 | 00:00:00 | |
| BIOWL1-15 | 2026-09-04 07:38:24 | 52.66549 | 8.96763 | 103° | 68km/h | 16423m | 5.5m/s | -54.4°C | 1% | 101.5hPa | 2.7V | 18:12:15 | 01:05:32 | 00:00:00 | |
| AA1-15 | 2026-09-04 07:38:23 | 52.66553 | 8.96735 | 104° | 71km/h | 16418m | 5.4m/s | -54.4°C | 1% | 101.6hPa | 2.7V | 18:12:15 | 01:05:31 | 00:00:00 | |
| DL1XH-west | 2026-09-04 07:38:22 | 52.66558 | 8.96706 | 106° | 71km/h | 16412m | 5m/s | -54.5°C | 1% | 101.7hPa | 2.6V | 18:12:15 | 01:05:30 | 00:00:00 | |
| DO2JMG | 2026-09-04 07:38:21 | 52.66563 | 8.96678 | 107° | 69km/h | 16407m | 5.2m/s | -54.5°C | 1% | 101.8hPa | 2.6V | 18:12:15 | 01:05:29 | 00:00:00 | |
| DF8AY | 2026-09-04 07:38:19 | 52.66573 | 8.96621 | 105° | 73km/h | 16398m | 6.3m/s | -54.7°C | 1.1% | 101.9hPa | 2.7V | 18:12:15 | 01:05:27 | 00:00:00 | |
| GOEST3-10 | 2026-09-04 07:38:18 | 52.66577 | 8.96592 | 103° | 71km/h | 16392m | 4.6m/s | -54.6°C | 4.5% | 102.0hPa | 2.7V | 00:00:00 | 00:00:00 | 00:00:00 | |
| BUE01 | 2026-09-04 07:38:17 | 52.66584 | 8.96534 | 100° | 69km/h | 16381m | 5.3m/s | -54.7°C | 1.6% | 102.2hPa | 2.7V | 00:00:00 | 00:00:00 | 00:00:00 | |
| DJ2DS-15 | 2026-09-04 07:38:16 | 52.66587 | 8.96504 | 97° | 71km/h | 16375m | 6.5m/s | -54.8°C | 1.6% | 102.2hPa | 2.7V | 00:00:00 | 00:00:00 | 00:00:00 | |
| DM0DOS-11 | 2026-09-04 07:38:15 | 52.66596 | 8.96356 | 95° | 73km/h | 16349m | 5.9m/s | -54.8°C | 4.4% | 102.7hPa | 2.7V | 08:30:00 | 01:05:18 | 00:00:00 | |
| HSKMA3-T | 2026-09-04 07:38:15 | 52.66587 | 8.96504 | 98° | 71km/h | 16375m | 6.5m/s | -54.8°C | 1.2% | 102.2hPa | 2.7V | 18:12:15 | 01:05:23 | 00:00:00 | |
| BIOWL1-15 | 2026-09-04 07:38:15 | 52.66591 | 8.96445 | 96° | 71km/h | 16364m | 5.5m/s | -54.7°C | 1.2% | 102.5hPa | 2.6V | 18:12:15 | 01:05:21 | 00:00:00 | |
| AA1-15 | 2026-09-04 07:38:12 | 52.66593 | 8.96415 | 96° | 71km/h | 16359m | 5.2m/s | -54.7°C | 1% | 102.5hPa | 2.6V | 18:12:15 | 01:05:20 | 00:00:00 | |
| DL1XH-west | 2026-09-04 07:38:11 | 52.66595 | 8.96386 | 95° | 71km/h | 16354m | 3.6m/s | -54.7°C | 1% | 102.6hPa | 2.7V | 18:12:15 | 01:05:19 | 00:00:00 | |
| DB0DAN | 2026-09-04 07:38:10 | 52.66596 | 8.96356 | 95° | 69km/h | 16349m | 5.9m/s | -54.8°C | 1.5% | 102.7hPa | 2.7V | 00:00:00 | 00:00:00 | 00:00:00 | |
| DO2JMG | 2026-09-04 07:38:10 | 52.66596 | 8.96356 | 95° | 73km/h | 16349m | 5.9m/s | -54.8°C | 1% | 102.7hPa | 2.7V | 18:12:15 | 01:05:18 | 00:00:00 | |
| DF5WG-10 | 2026-09-04 07:38:10 | 52.66596 | 8.96356 | 96° | 75km/h | 16350m | 5.8m/s | -54.7°C | 4.4% | 102.6hPa | 2.7V | 00:00:00 | 01:05:18 | 08:30:00 | |
| DL1XH1-15 | 2026-09-04 07:38:09 | 52.66612 | 8.96174 | 97° | 77km/h | 16320m | 5m/s | -54.9°C | 4.5% | 103.2hPa | 2.7V | 08:30:00 | 01:05:12 | 00:00:00 | |
| DF8AY | 2026-09-04 07:38:09 | 52.66598 | 8.96326 | 96° | 73km/h | 16345m | 3.9m/s | -54.7°C | 1% | 102.7hPa | 2.7V | 18:12:15 | 01:05:17 | 00:00:00 | |
| DO2SHX-10 | 2026-09-04 07:38:09 | 52.66598 | 8.96326 | 97° | 73km/h | 16345m | 3.9m/s | -54.7°C | 4.3% | 102.7hPa | 2.6V | 00:00:00 | 01:05:17 | 00:00:00 | |
| DJ2KF-10 | 2026-09-04 07:38:08 | 52.66600 | 8.96296 | 99° | 71km/h | 16340m | 5.6m/s | -54.6°C | 4.3% | 102.8hPa | 2.6V | 00:00:00 | 01:05:16 | 00:00:00 | |
| DN9WHV | 2026-09-04 07:38:07 | 52.66603 | 8.96266 | 101° | 73km/h | 16335m | 5.1m/s | -54.7°C | 1.5% | 102.9hPa | 2.6V | 00:00:00 | 00:00:00 | 00:00:00 | |
| AP2371 | 2026-09-04 07:38:06 | 52.66606 | 8.96236 | 101° | 75km/h | 16330m | 4.1m/s | -54.9°C | 1.5% | 103.0hPa | 2.6V | 00:00:00 | 00:00:00 | 00:00:00 | |
| DM0DOS-11 | 2026-09-04 07:38:05 | 52.66619 | 8.96050 | 91° | 75km/h | 16299m | 5.9m/s | -54.9°C | 4.4% | 103.5hPa | 2.6V | 08:30:00 | 01:05:08 | 00:00:00 | |
| HSKMA3-T | 2026-09-04 07:38:04 | 52.66612 | 8.96174 | 98° | 77km/h | 16320m | 5m/s | -54.9°C | 1.2% | 103.2hPa | 2.7V | 18:12:15 | 01:05:12 | 00:00:00 | |
| BIOWL1-15 | 2026-09-04 07:38:03 | 52.66615 | 8.96142 | 97° | 75km/h | 16314m | 6.2m/s | -54.9°C | 1.1% | 103.3hPa | 2.7V | 18:12:15 | 01:05:11 | 00:00:00 | |
| AA1-15 | 2026-09-04 07:38:02 | 52.66617 | 8.96111 | 96° | 73km/h | 16309m | 4.5m/s | -54.8°C | 1.1% | 103.3hPa | 2.6V | 18:12:15 | 01:05:10 | 00:00:00 | |
| DL1XH-west | 2026-09-04 07:38:00 | 52.66620 | 8.96050 | 92° | 75km/h | 16299m | 5.9m/s | -54.9°C | 1.1% | 103.5hPa | 2.6V | 18:12:15 | 01:05:08 | 00:00:00 | |
| DO2JMG | 2026-09-04 07:37:59 | 52.66620 | 8.96019 | 90° | 77km/h | 16294m | 4.3m/s | -54.8°C | 1.1% | 103.6hPa | 2.8V | 18:12:15 | 01:05:07 | 00:00:00 | |
| DF8AY | 2026-09-04 07:37:58 | 52.66620 | 8.95987 | 89° | 75km/h | 16289m | 5.8m/s | -54.8°C | 1.1% | 103.6hPa | 2.7V | 18:12:15 | 01:05:06 | 00:00:00 | |
| EDDB2-12 | 2026-09-04 07:37:57 | 52.66619 | 8.95927 | 89° | 71km/h | 16278m | 5.7m/s | -55.1°C | 1.6% | 103.8hPa | 2.6V | 00:00:00 | 00:00:00 | 00:00:00 | |
| DN9WHV | 2026-09-04 07:37:56 | 52.66619 | 8.95957 | 90° | 71km/h | 16284m | 5.3m/s | -54.9°C | 1.5% | 103.7hPa | 2.6V | 00:00:00 | 00:00:00 | 00:00:00 | |
| DB0DAN | 2026-09-04 07:37:55 | 52.66619 | 8.95897 | 91° | 71km/h | 16273m | 5.9m/s | -55.3°C | 1.7% | 103.92hPa | 2.6V | 00:00:00 | 00:00:00 | 00:00:00 | |
| DM0DOS-11 | 2026-09-04 07:37:55 | 52.66622 | 8.95750 | 89° | 69km/h | 16247m | 5.6m/s | -55.5°C | 4.7% | 104.3hPa | 2.6V | 08:30:00 | 01:04:58 | 00:00:00 | |
| BIOWL1-15 | 2026-09-04 07:37:54 | 52.66621 | 8.95806 | 92° | 69km/h | 16257m | 5.8m/s | -55.5°C | 1.3% | 104.2hPa | 2.7V | 18:12:15 | 01:05:00 | 00:00:00 | |
| HSKMA3-T | 2026-09-04 07:37:53 | 52.66621 | 8.95836 | 93° | 71km/h | 16263m | 5.9m/s | -55.4°C | 1.3% | 104.1hPa | 2.8V | 18:12:15 | 01:05:01 | 00:00:00 | |
| DL1NUX | 2026-09-04 07:37:53 | 52.66621 | 8.95692 | 88° | 71km/h | 16236m | 4.8m/s | -55.5°C | 4.7% | 104.5hPa | 2.7V | 08:30:00 | 01:04:56 | 00:00:00 | |
| AA1-15 | 2026-09-04 07:37:51 | 52.66622 | 8.95778 | 91° | 68km/h | 16252m | 4.7m/s | -55.5°C | 1.2% | 104.3hPa | 2.6V | 18:12:15 | 01:04:59 | 00:00:00 | |
| DL1XH-west | 2026-09-04 07:37:49 | 52.66622 | 8.95721 | 89° | 71km/h | 16241m | 5.7m/s | -55.5°C | 1.2% | 104.4hPa | 2.8V | 18:12:15 | 01:04:57 | 00:00:00 | |
| DF8AY | 2026-09-04 07:37:47 | 52.66620 | 8.95663 | 88° | 69km/h | 16230m | 6.2m/s | -55.6°C | 1.3% | 104.6hPa | 2.6V | 18:12:15 | 01:04:55 | 00:00:00 | |
| BUE01 | 2026-09-04 07:37:46 | 52.66620 | 8.95607 | 90° | 66km/h | 16220m | 4.7m/s | -55.5°C | 1.7% | 104.8hPa | 2.8V | 00:00:00 | 00:00:00 | 00:00:00 | |
| DM0DOS-11 | 2026-09-04 07:37:45 | 52.66617 | 8.95472 | 84° | 64km/h | 16195m | 6.1m/s | -55.4°C | 4.5% | 105.2hPa | 2.8V | 08:30:00 | 01:04:48 | 00:00:00 | |
| SO1NDE-10 | 2026-09-04 07:37:45 | 52.66620 | 8.95607 | 91° | 60km/h | 16220m | 4.6m/s | -55.5°C | 4.7% | 104.7hPa | 2.7V | 00:00:00 | 01:04:53 | 00:00:00 | |
| DJ2DS-15 | 2026-09-04 07:37:44 | 52.66620 | 8.95579 | 91° | 60km/h | 16215m | 5.1m/s | -55.5°C | 4.8% | 104.8hPa | 2.7V | 00:00:00 | 01:04:52 | 00:00:00 | |
| DL1NUX | 2026-09-04 07:37:43 | 52.66613 | 8.95420 | 82° | 60km/h | 16183m | 6.3m/s | -55.4°C | 4.6% | 105.4hPa | 2.7V | 08:30:00 | 01:04:46 | 00:00:00 | |
| HSKMA3-T | 2026-09-04 07:37:42 | 52.66620 | 8.95524 | 88° | 64km/h | 16204m | 6m/s | -55.4°C | 1.2% | 105hPa | 2.6V | 18:12:15 | 01:04:50 | 00:00:00 | |
| AA1-15 | 2026-09-04 07:37:40 | 52.66617 | 8.95472 | 84° | 64km/h | 16195m | 6.1m/s | -55.4°C | 1.1% | 105.2hPa | 2.8V | 18:12:15 | 01:04:48 | 00:00:00 | |
| DL1XH-west | 2026-09-04 07:37:39 | 52.66615 | 8.95446 | 83° | 64km/h | 16189m | 5.4m/s | -55.4°C | 1.2% | 105.3hPa | 2.7V | 18:12:15 | 01:04:47 | 00:00:00 | |
| DO2JMG | 2026-09-04 07:37:38 | 52.66614 | 8.95420 | 83° | 60km/h | 16183m | 6.3m/s | -55.4°C | 1.2% | 105.4hPa | 2.7V | 18:12:15 | 01:04:46 | 00:00:00 | |
| DF8AY | 2026-09-04 07:37:36 | 52.66610 | 8.95371 | 83° | 60km/h | 16172m | 5.5m/s | -55.3°C | 1.3% | 105.6hPa | 2.6V | 18:12:15 | 01:04:44 | 00:00:00 | |
| DL3AQ-11 | 2026-09-04 07:37:36 | 52.66608 | 8.95346 | 83° | 62km/h | 16167m | 5.8m/s | -55.4°C | 1.7% | 105.7hPa | 2.6V | 00:00:00 | 00:00:00 | 00:00:00 | |
| DM0DOS-11 | 2026-09-04 07:37:35 | 52.66602 | 8.95221 | 88° | 60km/h | 16139m | 4.8m/s | -55.5°C | 4.7% | 106.1hPa | 2.6V | 08:30:00 | 01:04:38 | 00:00:00 | |
| DD8BA-10 | 2026-09-04 07:37:35 | 52.66608 | 8.95346 | 84° | 58km/h | 16167m | 5.8m/s | -55.3°C | 4.8% | 105.6hPa | 2.7V | 00:00:00 | 00:00:00 | 00:00:00 | |
| SMARD9-15 | 2026-09-04 07:37:34 | 52.66606 | 8.95320 | 83° | 60km/h | 16161m | 4.6m/s | -55.4°C | 1.8% | 105.8hPa | 2.7V | 00:00:00 | 00:00:00 | 00:00:00 | |
| DL1NUX | 2026-09-04 07:37:33 | 52.66601 | 8.95173 | 87° | 55km/h | 16129m | 5.3m/s | -55.7°C | 4.7% | 106.3hPa | 2.7V | 08:30:00 | 01:04:36 | 00:00:00 | |
| HSKMA3-T | 2026-09-04 07:37:31 | 52.66602 | 8.95246 | 87° | 60km/h | 16145m | 6.4m/s | -55.5°C | 1.4% | 106hPa | 2.6V | 18:12:15 | 01:04:39 | 00:00:00 | |
| AA1-15 | 2026-09-04 07:37:30 | 52.66602 | 8.95221 | 88° | 60km/h | 16139m | 4.8m/s | -55.5°C | 1.4% | 106.1hPa | 2.6V | 18:12:15 | 01:04:38 | 00:00:00 | |
| DL1XH-west | 2026-09-04 07:37:28 | 52.66601 | 8.95173 | 88° | 55km/h | 16129m | 5.3m/s | -55.7°C | 1.3% | 106.3hPa | 2.7V | 18:12:15 | 01:04:36 | 00:00:00 | |
| DF8AY | 2026-09-04 07:37:26 | 52.66600 | 8.95127 | 91° | 57km/h | 16118m | 6m/s | -55.7°C | 1.3% | 106.5hPa | 2.7V | 18:12:15 | 01:04:34 | 00:00:00 | |
| DB0DAN | 2026-09-04 07:37:25 | 52.66600 | 8.95103 | 90° | 53km/h | 16113m | 5.2m/s | -55.7°C | 1.7% | 106.58hPa | 2.6V | 00:00:00 | 00:00:00 | 00:00:00 | |
| DM0DOS-11 | 2026-09-04 07:37:25 | 52.66599 | 8.94985 | 89° | 57km/h | 16085m | 6.2m/s | -55.6°C | 4.8% | 107hPa | 2.6V | 08:30:00 | 01:04:28 | 00:00:00 | |
| DD8BA-10 | 2026-09-04 07:37:25 | 52.66600 | 8.95103 | 90° | 58km/h | 16113m | 5.1m/s | -55.7°C | 4.7% | 106.5hPa | 2.6V | 00:00:00 | 00:00:00 | 00:00:00 | |
| DO2SHX-10 | 2026-09-04 07:37:24 | 52.66600 | 8.95080 | 89° | 57km/h | 16107m | 5.7m/s | -55.7°C | 4.8% | 106.7hPa | 2.7V | 00:00:00 | 01:04:32 | 00:00:00 | |
| DL1NUX | 2026-09-04 07:37:23 | 52.66599 | 8.94938 | 92° | 58km/h | 16075m | 4.2m/s | -55.7°C | 4.9% | 107.2hPa | 2.7V | 08:30:00 | 01:04:26 | 00:00:00 | |
| HSKMA3-T | 2026-09-04 07:37:20 | 52.66599 | 8.94985 | 89° | 57km/h | 16085m | 6.2m/s | -55.6°C | 1.4% | 107hPa | 2.6V | 18:12:15 | 01:04:28 | 00:00:00 | |
| BIOWL1-15 | 2026-09-04 07:37:19 | 52.66599 | 8.94961 | 90° | 57km/h | 16080m | 4.4m/s | -55.6°C | 1.4% | 107.1hPa | 2.6V | 18:12:15 | 01:04:27 | 00:00:00 | |
| DL1XH-west | 2026-09-04 07:37:18 | 52.66599 | 8.94938 | 92° | 58km/h | 16075m | 4.3m/s | -55.7°C | 1.4% | 107.2hPa | 2.7V | 18:12:15 | 01:04:26 | 00:00:00 | |
| DF8AY | 2026-09-04 07:37:15 | 52.66603 | 8.94862 | 94° | 62km/h | 16061m | 4m/s | -55.6°C | 1.4% | 107.4hPa | 2.6V | 18:12:15 | 01:04:23 | 00:00:00 | |
| DO3DL | 2026-09-04 07:37:15 | 52.66603 | 8.94862 | 95° | 62km/h | 16061m | 4.0m/s | -55.6°C | 1.8% | 107.4hPa | 2.8V | 00:00:00 | 00:00:00 | 00:00:00 | |
| DN9WHV | 2026-09-04 07:37:14 | 52.66603 | 8.94862 | 95° | 62km/h | 16061m | 4.0m/s | -55.6°C | 1.8% | 107.4hPa | 2.8V | 00:00:00 | 00:00:00 | 00:00:00 | |
| DL1NUX | 2026-09-04 07:37:13 | 52.66603 | 8.94692 | 92° | 57km/h | 16023m | 5.2m/s | -55.6°C | 4.8% | 108.1hPa | 2.8V | 08:30:00 | 01:04:16 | 00:00:00 | |
| GOEST3-10 | 2026-09-04 07:37:13 | 52.66603 | 8.94811 | 90° | 58km/h | 16050m | 5.0m/s | -55.5°C | 4.8% | 107.6hPa | 2.6V | 00:00:00 | 01:04:21 | 00:00:00 | |
| DL4XJ-10 | 2026-09-04 07:37:12 | 52.66603 | 8.94787 | 90° | 58km/h | 16045m | 6.1m/s | -56.0°C | 0% | 0hPa | 2.6V | 00:00:00 | 00:00:00 | 00:00:00 | |
| DN9WHV | 2026-09-04 07:37:11 | 52.66603 | 8.94787 | 90° | 58km/h | 16045m | 6.1m/s | -55.5°C | 1.8% | 107.7hPa | 2.6V | 00:00:00 | 00:00:00 | 00:00:00 | |
| DB0DAN | 2026-09-04 07:37:10 | 52.66603 | 8.94738 | 89° | 55km/h | 16034m | 6.1m/s | -55.5°C | 1.8% | 107.9hPa | 2.6V | 00:00:00 | 00:00:00 | 00:00:00 | |
| AA1-15 | 2026-09-04 07:37:09 | 52.66603 | 8.94715 | 90° | 55km/h | 16028m | 4.9m/s | -55.6°C | 1.5% | 108hPa | 2.8V | 18:12:15 | 01:04:17 | 00:00:00 | |
| DO2JMG | 2026-09-04 07:37:08 | 52.66603 | 8.94692 | 92° | 57km/h | 16023m | 5.2m/s | -55.6°C | 1.4% | 108.1hPa | 2.8V | 18:12:15 | 01:04:16 | 00:00:00 | |
| DL1XH-west | 2026-09-04 07:37:07 | 52.66604 | 8.94668 | 95° | 58km/h | 16018m | 5.4m/s | -55.5°C | 1.5% | 108.1hPa | 2.7V | 18:12:15 | 01:04:15 | 00:00:00 | |
| DF8AY | 2026-09-04 07:37:05 | 52.66607 | 8.94620 | 96° | 58km/h | 16007m | 5.6m/s | -55.8°C | 1.4% | 108.3hPa | 2.6V | 18:12:15 | 01:04:13 | 00:00:00 | |
| DD8BA-10 | 2026-09-04 07:37:05 | 52.66606 | 8.94620 | 97° | 60km/h | 16007m | 5.5m/s | -55.7°C | 4.9% | 108.3hPa | 2.6V | 00:00:00 | 00:00:00 | 00:00:00 | |
| DJ2DS-15 | 2026-09-04 07:37:04 | 52.66609 | 8.94570 | 92° | 62km/h | 15997m | 6.4m/s | -55.6°C | 1.8% | 108.5hPa | 2.6V | 00:00:00 | 00:00:00 | 00:00:00 | |
| DL1NUX | 2026-09-04 07:37:03 | 52.66603 | 8.94440 | 81° | 62km/h | 15970m | 4.5m/s | -55.4°C | 4.8% | 109hPa | 2.6V | 08:30:00 | 01:04:06 | 00:00:00 | |
| GOEST3-10 | 2026-09-04 07:37:03 | 52.66609 | 8.94570 | 93° | 62km/h | 15997m | 6.3m/s | -55.5°C | 4.8% | 108.5hPa | 2.7V | 00:00:00 | 01:04:11 | 00:00:00 | |
| DO2SHX-10 | 2026-09-04 07:37:02 | 52.66609 | 8.94544 | 90° | 62km/h | 15991m | 4.4m/s | -55.5°C | 4.8% | 108.6hPa | 2.7V | 00:00:00 | 01:04:10 | 00:00:00 | |
| DF5WG-10 | 2026-09-04 07:37:00 | 52.66607 | 8.94492 | 84° | 58km/h | 15981m | 4.4m/s | -55.4°C | 4.8% | 108.8hPa | 2.6V | 00:00:00 | 01:04:08 | 00:00:00 | |
| DL1XH1-15 | 2026-09-04 07:36:59 | 52.66594 | 8.94345 | 84° | 57km/h | 15949m | 5.7m/s | -55.3°C | 4.9% | 109.3hPa | 2.6V | 08:30:00 | 01:04:02 | 00:00:00 | |
| DO2JMG | 2026-09-04 07:36:58 | 52.66603 | 8.94440 | 81° | 62km/h | 15970m | 4.5m/s | -55.4°C | 1.5% | 109hPa | 2.6V | 18:12:15 | 01:04:06 | 00:00:00 | |
| DL1XH-west | 2026-09-04 07:36:56 | 52.66598 | 8.94392 | 80° | 57km/h | 15959m | 4.5m/s | -55.3°C | 1.5% | 109.2hPa | 2.8V | 18:12:15 | 01:04:04 | 00:00:00 | |
| DM0DOS-11 | 2026-09-04 07:36:55 | 52.66592 | 8.94252 | 91° | 58km/h | 15929m | 6m/s | -55.1°C | 4.9% | 109.7hPa | 2.7V | 08:30:00 | 01:03:58 | 00:00:00 | |
| DF8AY | 2026-09-04 07:36:54 | 52.66594 | 8.94345 | 85° | 57km/h | 15949m | 5.7m/s | -55.3°C | 1.5% | 109.3hPa | 2.6V | 18:12:15 | 01:04:02 | 00:00:00 | |
| DL1NUX | 2026-09-04 07:36:53 | 52.66592 | 8.94202 | 88° | 60km/h | 15918m | 5.4m/s | -55.2°C | 4.8% | 109.8hPa | 2.6V | 08:30:00 | 01:03:56 | 00:00:00 | |
| GOEST3-10 | 2026-09-04 07:36:53 | 52.66593 | 8.94322 | 86° | 58km/h | 15944m | 5.3m/s | -55.2°C | 4.8% | 109.4hPa | 2.6V | 00:00:00 | 01:04:01 | 00:00:00 | |
| DO2SHX-10 | 2026-09-04 07:36:52 | 52.66592 | 8.94299 | 88° | 57km/h | 15939m | 5.5m/s | -55.1°C | 4.8% | 109.5hPa | 2.6V | 00:00:00 | 01:04:00 | 08:30:00 | |
| DB0UT-7 | 2026-09-04 07:36:50 | 52.66592 | 8.94252 | 92° | 62km/h | 15929m | 6.0m/s | -55.1°C | 4.9% | 109.6hPa | 2.6V | 00:00:00 | 01:03:58 | 00:00:00 | |
| DL1XH1-15 | 2026-09-04 07:36:49 | 52.66584 | 8.94102 | 80° | 58km/h | 15898m | 3.9m/s | -55.5°C | 4.7% | 110.2hPa | 2.6V | 08:30:00 | 01:03:52 | 00:00:00 | |
| AA1-15 | 2026-09-04 07:36:48 | 52.66592 | 8.94202 | 89° | 60km/h | 15918m | 5.4m/s | -55.2°C | 1.5% | 109.8hPa | 2.6V | 18:12:15 | 01:03:56 | 00:00:00 | |
| HSKMA3-T | 2026-09-04 07:36:47 | 52.66591 | 8.94177 | 85° | 60km/h | 15913m | 5.2m/s | -55.3°C | 1.4% | 109.9hPa | 2.8V | 18:12:15 | 01:03:55 | 00:00:00 | |
| DL1XH-west | 2026-09-04 07:36:45 | 52.66587 | 8.94127 | 81° | 62km/h | 15903m | 5.9m/s | -55.3°C | 1.5% | 110.1hPa | 2.6V | 18:12:15 | 01:03:53 | 00:00:00 | |
| DF8AY | 2026-09-04 07:36:44 | 52.66584 | 8.94102 | 80° | 58km/h | 15898m | 3.9m/s | -55.5°C | 1.4% | 110.2hPa | 2.6V | 18:12:15 | 01:03:52 | 00:00:00 | |
| BUE01 | 2026-09-04 07:36:44 | 52.66582 | 8.94078 | 79° | 55km/h | 15893m | 6.2m/s | -55.6°C | 1.8% | 110.3hPa | 2.7V | 00:00:00 | 00:00:00 | 00:00:00 | |
| GOEST3-10 | 2026-09-04 07:36:43 | 52.66582 | 8.94078 | 80° | 53km/h | 15893m | 6.2m/s | -55.6°C | 4.8% | 110.3hPa | 2.7V | 00:00:00 | 01:03:51 | 00:00:00 | |
| DO2SHX-10 | 2026-09-04 07:36:42 | 52.66580 | 8.94057 | 85° | 51km/h | 15888m | 4.3m/s | -55.6°C | 4.9% | 110.3hPa | 2.7V | 00:00:00 | 01:03:50 | 00:00:00 | |
| DN9WHV | 2026-09-04 07:36:41 | 52.66580 | 8.94057 | 86° | 51km/h | 15888m | 4.4m/s | -55.6°C | 1.9% | 110.4hPa | 2.6V | 00:00:00 | 00:00:00 | 00:00:00 | |
| DF5WG-10 | 2026-09-04 07:36:40 | 52.66579 | 8.94014 | 91° | 62km/h | 15878m | 6.0m/s | -55.5°C | 5.0% | 110.5hPa | 2.6V | 00:00:00 | 01:03:48 | 08:30:00 | |
| DL1XH1-15 | 2026-09-04 07:36:39 | 52.66583 | 8.93868 | 93° | 66km/h | 15843m | 4.8m/s | -55.5°C | 4.9% | 111.2hPa | 2.6V | 08:30:00 | 01:03:42 | 00:00:00 | |
| BIOWL1-15 | 2026-09-04 07:36:37 | 52.66581 | 8.93945 | 92° | 57km/h | 15860m | 6.4m/s | -55.5°C | 1.7% | 110.9hPa | 2.8V | 18:12:15 | 01:03:45 | 00:00:00 | |
| HSKMA3-T | 2026-09-04 07:36:36 | 52.66581 | 8.93920 | 92° | 60km/h | 15854m | 4.4m/s | -55.6°C | 1.7% | 111hPa | 2.8V | 18:12:15 | 01:03:44 | 00:00:00 | |
| DO2SHX-10 | 2026-09-04 07:36:36 | 52.66581 | 8.93920 | 92° | 64km/h | 15855m | 4.3m/s | -55.5°C | 5.0% | 111.0hPa | 2.7V | 00:00:00 | 01:03:44 | 00:00:00 | |
| DM0DOS-11 | 2026-09-04 07:36:35 | 52.66588 | 8.93756 | 96° | 69km/h | 15821m | 4.4m/s | -55.5°C | 5.1% | 111.6hPa | 2.7V | 08:30:00 | 01:03:38 | 00:00:00 | |
| DL1XH-west | 2026-09-04 07:36:35 | 52.66582 | 8.93895 | 93° | 64km/h | 15849m | 6.6m/s | -55.6°C | 1.7% | 111.1hPa | 2.6V | 18:12:15 | 01:03:43 | 00:00:00 | |
| DF8AY | 2026-09-04 07:36:33 | 52.66584 | 8.93840 | 93° | 66km/h | 15838m | 6.3m/s | -55.5°C | 1.7% | 111.3hPa | 2.6V | 18:12:15 | 01:03:41 | 00:00:00 | |
| DL1NUX | 2026-09-04 07:36:33 | 52.66591 | 8.93699 | 94° | 68km/h | 15811m | 5.4m/s | -55.5°C | 5.1% | 111.7hPa | 2.6V | 08:30:00 | 01:03:36 | 00:00:00 | |
| GOEST3-10 | 2026-09-04 07:36:33 | 52.66584 | 8.93840 | 94° | 68km/h | 15838m | 6.3m/s | -55.5°C | 5.0% | 111.2hPa | 2.7V | 00:00:00 | 01:03:41 | 00:00:00 | |
| DF8AY-15 | 2026-09-04 07:36:32 | 52.66585 | 8.93813 | 94° | 66km/h | 15832m | 5.0m/s | -55.5°C | 5.1% | 111.3hPa | 2.7V | 00:00:00 | 01:03:40 | 00:00:00 | |
| DO2SHX-10 | 2026-09-04 07:36:31 | 52.66586 | 8.93784 | 96° | 69km/h | 15826m | 6.3m/s | -55.5°C | 5.1% | 111.4hPa | 2.7V | 00:00:00 | 01:03:39 | 00:00:00 | |
| DF5WG-10 | 2026-09-04 07:36:30 | 52.66588 | 8.93756 | 97° | 66km/h | 15821m | 4.4m/s | -55.4°C | 5.1% | 111.6hPa | 2.7V | 00:00:00 | 01:03:38 | 00:00:00 | |
| DL1XH1-15 | 2026-09-04 07:36:29 | 52.66595 | 8.93591 | 92° | 64km/h | 15791m | 4.7m/s | -55.6°C | 5.1% | 112hPa | 2.7V | 08:30:00 | 01:03:32 | 00:00:00 | |
| DO2JMG | 2026-09-04 07:36:27 | 52.66592 | 8.93672 | 92° | 64km/h | 15806m | 4.7m/s | -55.5°C | 1.8% | 111.8hPa | 2.6V | 18:12:15 | 01:03:35 | 00:00:00 | |
| BIOWL1-15 | 2026-09-04 07:36:26 | 52.66593 | 8.93645 | 93° | 64km/h | 15801m | 5.4m/s | -55.5°C | 1.8% | 111.9hPa | 2.8V | 18:12:15 | 01:03:34 | 00:00:00 | |
| DB0DAN | 2026-09-04 07:36:25 | 52.66594 | 8.93618 | 93° | 62km/h | 15796m | 5.2m/s | -55.5°C | 2% | 111.99hPa | 2.8V | 00:00:00 | 00:00:00 | 00:00:00 | |
| DM0DOS-11 | 2026-09-04 07:36:25 | 52.66600 | 8.93488 | 99° | 62km/h | 15770m | 3.3m/s | -55.6°C | 5.1% | 112.4hPa | 2.8V | 08:30:00 | 01:03:28 | 00:00:00 | |
| DL1XH-west | 2026-09-04 07:36:24 | 52.66595 | 8.93591 | 93° | 64km/h | 15791m | 4.7m/s | -55.6°C | 1.9% | 112hPa | 2.7V | 18:12:15 | 01:03:32 | 00:00:00 | |
| DJ2DS-15 | 2026-09-04 07:36:24 | 52.66595 | 8.93591 | 93° | 64km/h | 15791m | 4.7m/s | -55.6°C | 5.1% | 112.0hPa | 2.7V | 00:00:00 | 01:03:32 | 08:30:00 | |
| DL1NUX | 2026-09-04 07:36:23 | 52.66605 | 8.93437 | 99° | 60km/h | 15760m | 4.5m/s | -55.6°C | 5% | 112.6hPa | 2.7V | 08:30:00 | 01:03:26 | 00:00:00 | |
| DF8AY | 2026-09-04 07:36:22 | 52.66596 | 8.93539 | 95° | 62km/h | 15780m | 4.2m/s | -55.7°C | 1.9% | 112.3hPa | 2.6V | 18:12:15 | 01:03:30 | 00:00:00 | |
| AU51GT2 | 2026-09-04 07:36:21 | 52.66598 | 8.93513 | 96° | 62km/h | 15775m | 6.2m/s | 0°C | -1.0% | -1.0hPa | 2.7V | 00:00:00 | 00:00:00 | 00:00:00 | |
| DO2SHX-10 | 2026-09-04 07:36:20 | 52.66600 | 8.93488 | 100° | 64km/h | 15770m | 3.2m/s | -55.5°C | 5.1% | 112.4hPa | 2.7V | 00:00:00 | 01:03:28 | 08:30:00 | |
| DL1XH1-15 | 2026-09-04 07:36:19 | 52.66619 | 8.93333 | 101° | 66km/h | 15738m | 5.8m/s | -55.5°C | 4.9% | 113hPa | 2.8V | 08:30:00 | 01:03:22 | 00:00:00 | |
| AA1-15 | 2026-09-04 07:36:17 | 52.66608 | 8.93412 | 102° | 62km/h | 15756m | 5.2m/s | -55.6°C | 1.9% | 112.7hPa | 2.6V | 18:12:15 | 01:03:25 | 00:00:00 | |
| DO2JMG | 2026-09-04 07:36:16 | 52.66612 | 8.93386 | 104° | 66km/h | 15750m | 6.3m/s | -55.5°C | 1.9% | 112.8hPa | 2.6V | 18:12:15 | 01:03:24 | 00:00:00 | |
| DL3AQ-11 | 2026-09-04 07:36:16 | 52.66616 | 8.93360 | 103° | 66km/h | 15744m | 5.3m/s | -55.5°C | 2.0% | 112.9hPa | 2.6V | 00:00:00 | 00:00:00 | 00:00:00 | |
| DD8BA-10 | 2026-09-04 07:36:15 | 52.66616 | 8.93360 | 104° | 64km/h | 15744m | 5.3m/s | -55.4°C | 5.0% | 112.9hPa | 2.6V | 00:00:00 | 00:00:00 | 00:00:00 | |
| DO2SHX-10 | 2026-09-04 07:36:14 | 52.66619 | 8.93333 | 102° | 66km/h | 15739m | 5.7m/s | -55.5°C | 4.9% | 113.0hPa | 2.6V | 00:00:00 | 01:03:22 | 00:00:00 | |
| DL1NUX | 2026-09-04 07:36:13 | 52.66637 | 8.93172 | 102° | 64km/h | 15708m | 5.8m/s | -55.6°C | 5.1% | 113.5hPa | 2.6V | 08:30:00 | 01:03:16 | 00:00:00 | |
| DL1XH-west | 2026-09-04 07:36:13 | 52.66623 | 8.93306 | 101° | 68km/h | 15733m | 5.1m/s | -55.6°C | 1.9% | 113.1hPa | 2.8V | 18:12:15 | 01:03:21 | 00:00:00 | |
| DF8AY | 2026-09-04 07:36:11 | 52.66629 | 8.93250 | 99° | 66km/h | 15722m | 5.3m/s | -55.7°C | 2% | 113.3hPa | 2.6V | 18:12:15 | 01:03:19 | 00:00:00 | |
| DO2SHX-10 | 2026-09-04 07:36:10 | 52.66631 | 8.93224 | 99° | 64km/h | 15717m | 4.8m/s | -55.6°C | 5.1% | 113.4hPa | 2.6V | 00:00:00 | 01:03:18 | 00:00:00 | |
| DL1XH1-15 | 2026-09-04 07:36:09 | 52.66653 | 8.93075 | 109° | 60km/h | 15687m | 6.3m/s | -55.7°C | 5% | 114hPa | 2.6V | 08:30:00 | 01:03:12 | 00:00:00 | |
| AA1-15 | 2026-09-04 07:36:06 | 52.66644 | 8.93122 | 105° | 60km/h | 15698m | 6.1m/s | -55.7°C | 1.9% | 113.7hPa | 2.8V | 18:12:15 | 01:03:14 | 00:00:00 | |
| BIOWL1-15 | 2026-09-04 07:36:05 | 52.66648 | 8.93098 | 107° | 60km/h | 15692m | 4.7m/s | -55.6°C | 1.9% | 113.9hPa | 2.8V | 18:12:15 | 01:03:13 | 00:00:00 | |
| DL1XH-west | 2026-09-04 07:36:03 | 52.66658 | 8.93051 | 111° | 62km/h | 15682m | 4.6m/s | -55.8°C | 1.9% | 114.1hPa | 2.6V | 18:12:15 | 01:03:11 | 00:00:00 | |
| DF8AY | 2026-09-04 07:36:01 | 52.66669 | 8.93003 | 109° | 60km/h | 15671m | 4.3m/s | -56.1°C | 2% | 114.3hPa | 2.8V | 18:12:15 | 01:03:09 | 00:00:00 | |
| DO2SHX-10 | 2026-09-04 07:36:01 | 52.66669 | 8.93003 | 110° | 62km/h | 15671m | 4.3m/s | -56.1°C | 5.1% | 114.2hPa | 2.8V | 00:00:00 | 01:03:09 | 00:00:00 | |
| DF5WG-10 | 2026-09-04 07:36:00 | 52.66674 | 8.92979 | 111° | 66km/h | 15666m | 6.1m/s | -56.3°C | 5.1% | 114.3hPa | 2.8V | 00:00:00 | 01:03:08 | 00:00:00 | |
| DL1XH1-15 | 2026-09-04 07:35:59 | 52.66700 | 8.92824 | 100° | 68km/h | 15634m | 4.3m/s | -56.8°C | 5.5% | 114.9hPa | 2.8V | 08:30:00 | 01:03:02 | 00:00:00 | |
| AA1-15 | 2026-09-04 07:35:56 | 52.66693 | 8.92878 | 103° | 64km/h | 15644m | 4.7m/s | -56.7°C | 2.2% | 114.7hPa | 2.6V | 18:12:15 | 01:03:04 | 00:00:00 | |
| DB0DAN | 2026-09-04 07:35:55 | 52.66696 | 8.92851 | 102° | 64km/h | 15640m | 5.5m/s | -56.7°C | 2.3% | 114.8hPa | 2.8V | 00:00:00 | 00:00:00 | 00:00:00 | |
| HSKMA3-T | 2026-09-04 07:35:55 | 52.66696 | 8.92851 | 102° | 68km/h | 15639m | 5.5m/s | -56.7°C | 2.2% | 114.8hPa | 2.8V | 18:12:15 | 01:03:03 | 00:00:00 | |
| DO2JMG | 2026-09-04 07:35:54 | 52.66700 | 8.92824 | 100° | 68km/h | 15635m | 4.3m/s | -56.8°C | 2.2% | 114.9hPa | 2.8V | 18:12:15 | 01:03:02 | 00:00:00 | |
| DL1NUX | 2026-09-04 07:35:53 | 52.66716 | 8.92662 | 98° | 64km/h | 15604m | 4.1m/s | -56.6°C | 5.5% | 115.5hPa | 2.8V | 08:30:00 | 01:02:56 | 00:00:00 | |
| DL1XH-west | 2026-09-04 07:35:53 | 52.66702 | 8.92796 | 98° | 68km/h | 15630m | 6.1m/s | -56.9°C | 2.2% | 115hPa | 2.8V | 18:12:15 | 01:03:01 | 00:00:00 | |
| DF8AY | 2026-09-04 07:35:50 | 52.66711 | 8.92715 | 100° | 66km/h | 15614m | 4.9m/s | -56.8°C | 2.1% | 115.3hPa | 2.6V | 18:12:15 | 01:02:58 | 00:00:00 | |
| DB0UT-7 | 2026-09-04 07:35:50 | 52.66711 | 8.92715 | 100° | 75km/h | 15614m | 4.8m/s | -56.7°C | 5.4% | 115.2hPa | 2.6V | 00:00:00 | 01:02:58 | 08:30:00 | |
| DL1XH1-15 | 2026-09-04 07:35:49 | 52.66729 | 8.92551 | 101° | 69km/h | 15583m | 6.2m/s | -56.6°C | 5.3% | 115.8hPa | 2.6V | 08:30:00 | 01:02:52 | 00:00:00 | |
| AA1-15 | 2026-09-04 07:35:45 | 52.66725 | 8.92579 | 102° | 69km/h | 15588m | 5.1m/s | -56.7°C | 2.1% | 115.8hPa | 2.6V | 18:12:15 | 01:02:53 | 00:00:00 | |
| DO2JMG | 2026-09-04 07:35:44 | 52.66729 | 8.92551 | 101° | 69km/h | 15583m | 6.2m/s | -56.6°C | 2.1% | 115.8hPa | 2.6V | 18:12:15 | 01:02:52 | 00:00:00 | |
| DJ2DS-15 | 2026-09-04 07:35:44 | 52.66729 | 8.92551 | 102° | 77km/h | 15583m | 6.1m/s | -56.5°C | 5.3% | 115.8hPa | 2.6V | 00:00:00 | 01:02:52 | 00:00:00 | |
| DL1NUX | 2026-09-04 07:35:43 | 52.66751 | 8.92372 | 103° | 75km/h | 15550m | 6m/s | -56.7°C | 5.6% | 116.4hPa | 2.6V | 08:30:00 | 01:02:46 | 00:00:00 | |
| DL1XH-west | 2026-09-04 07:35:42 | 52.66736 | 8.92493 | 102° | 73km/h | 15572m | 6.2m/s | -56.6°C | 2.1% | 116hPa | 2.8V | 18:12:15 | 01:02:50 | 00:00:00 | |
| DF8AY | 2026-09-04 07:35:39 | 52.66748 | 8.92402 | 102° | 73km/h | 15555m | 4.6m/s | -56.7°C | 2.2% | 116.4hPa | 2.6V | 18:12:15 | 01:02:47 | 00:00:00 | |
| DO2SHX-10 | 2026-09-04 07:35:39 | 52.66747 | 8.92402 | 102° | 75km/h | 15555m | 4.6m/s | -56.7°C | 5.5% | 116.3hPa | 2.6V | 00:00:00 | 01:02:47 | 00:00:00 | |
| GOEST3-10 | 2026-09-04 07:35:38 | 52.66751 | 8.92372 | 104° | 75km/h | 15550m | 5.9m/s | -56.6°C | 5.6% | 116.4hPa | 2.6V | 00:00:00 | 00:00:00 | 08:30:00 | |
| DJ2KF-10 | 2026-09-04 07:35:37 | 52.66756 | 8.92342 | 105° | 84km/h | 15544m | 5.2m/s | -56.7°C | 5.6% | 116.5hPa | 2.7V | 00:00:00 | 01:02:45 | 00:00:00 | |
| HTAHTA | 2026-09-04 07:35:36 | 52.66770 | 8.92253 | 104° | 73km/h | 15529m | 4.3m/s | -56.9°C | 2.2% | 116.8hPa | 2.6V | 00:00:00 | 00:00:00 | 00:00:00 | |
| DM0DOS-11 | 2026-09-04 07:35:35 | 52.66790 | 8.92130 | 105° | 78km/h | 15506m | 4.5m/s | -56.9°C | 5.6% | 117.2hPa | 2.6V | 08:30:00 | 01:02:38 | 00:00:00 | |
| AA1-15 | 2026-09-04 07:35:35 | 52.66765 | 8.92282 | 104° | 73km/h | 15533m | 5.3m/s | -56.8°C | 2.2% | 116.7hPa | 2.6V | 18:12:15 | 01:02:43 | 00:00:00 | |
| DO2JMG | 2026-09-04 07:35:34 | 52.66770 | 8.92253 | 104° | 73km/h | 15529m | 4.3m/s | -56.9°C | 2.2% | 116.8hPa | 2.6V | 18:12:15 | 01:02:42 | 00:00:00 | |
| HSKMA3-T | 2026-09-04 07:35:33 | 52.66775 | 8.92223 | 105° | 77km/h | 15523m | 6.8m/s | -57°C | 2.2% | 116.9hPa | 2.8V | 18:12:15 | 01:02:41 | 00:00:00 | |
| DL1XH-west | 2026-09-04 07:35:31 | 52.66785 | 8.92161 | 105° | 77km/h | 15512m | 6.2m/s | -57°C | 2.2% | 117.2hPa | 2.6V | 18:12:15 | 01:02:39 | 00:00:00 | |
| DK9SH | 2026-09-04 07:35:31 | 52.66785 | 8.92161 | 106° | 77km/h | 15512m | 6.2m/s | -57.0°C | 2.3% | 117.2hPa | 2.8V | 00:00:00 | 00:00:00 | 00:00:00 | |
| DL1XH1-15 | 2026-09-04 07:35:30 | 52.66821 | 8.91929 | 101° | 84km/h | 15477m | 5.1m/s | -57°C | 5.4% | 117.8hPa | 2.8V | 08:30:00 | 01:02:32 | 00:00:00 | |
| DF8AY | 2026-09-04 07:35:30 | 52.66795 | 8.92098 | 106° | 80km/h | 15501m | 6.4m/s | -57°C | 2.3% | 117.3hPa | 2.8V | 18:12:15 | 01:02:37 | 00:00:00 | |
| DO2SHX-10 | 2026-09-04 07:35:29 | 52.66795 | 8.92098 | 107° | 82km/h | 15501m | 6.4m/s | -56.9°C | 5.6% | 117.3hPa | 2.8V | 00:00:00 | 01:02:37 | 00:00:00 | |
| GOEST3-10 | 2026-09-04 07:35:28 | 52.66801 | 8.92065 | 107° | 84km/h | 15496m | 4.0m/s | -57.0°C | 5.5% | 117.4hPa | 2.8V | 00:00:00 | 00:00:00 | 00:00:00 | |
| DL8OAI-8 | 2026-09-04 07:35:27 | 52.66807 | 8.92031 | 106° | 84km/h | 15491m | 5.1m/s | -57.0°C | 2.3% | 117.5hPa | 2.8V | 00:00:00 | 00:00:00 | 00:00:00 | |
| DN9WHV | 2026-09-04 07:35:26 | 52.66807 | 8.92031 | 106° | 84km/h | 15491m | 5.1m/s | -57.0°C | 2.3% | 117.5hPa | 2.8V | 00:00:00 | 00:00:00 | 00:00:00 | |
| DM0DOS-11 | 2026-09-04 07:35:25 | 52.66840 | 8.91794 | 104° | 82km/h | 15457m | 4.1m/s | -57.1°C | 5.7% | 118.1hPa | 2.8V | 08:30:00 | 01:02:28 | 00:00:00 | |
| AA1-15 | 2026-09-04 07:35:24 | 52.66820 | 8.91929 | 101° | 84km/h | 15477m | 5.1m/s | -57°C | 2.2% | 117.8hPa | 2.8V | 18:12:15 | 01:02:32 | 00:00:00 | |
| DO2JMG | 2026-09-04 07:35:23 | 52.66825 | 8.91894 | 102° | 86km/h | 15472m | 4.7m/s | -57°C | 2.2% | 117.9hPa | 2.6V | 18:12:15 | 01:02:31 | 00:00:00 | |
| DL1XH-west | 2026-09-04 07:35:20 | 52.66840 | 8.91794 | 105° | 82km/h | 15457m | 4.1m/s | -57.1°C | 2.3% | 118.1hPa | 2.8V | 18:12:15 | 01:02:28 | 00:00:00 | |
| DB0UT-7 | 2026-09-04 07:35:20 | 52.66840 | 8.91794 | 105° | 88km/h | 15457m | 4.0m/s | -57.1°C | 5.7% | 118.1hPa | 2.8V | 00:00:00 | 00:00:00 | 00:00:00 | |
| DL1XH1-15 | 2026-09-04 07:35:19 | 52.66874 | 8.91579 | 102° | 91km/h | 15427m | 4.4m/s | -57.2°C | 5.7% | 118.7hPa | 2.8V | 08:30:00 | 01:02:22 | 00:00:00 | |
| DF8AY | 2026-09-04 07:35:18 | 52.66851 | 8.91725 | 106° | 89km/h | 15446m | 4.5m/s | -57.2°C | 2.4% | 118.3hPa | 2.8V | 18:12:15 | 01:02:26 | 00:00:00 | |
| GOEST3-10 | 2026-09-04 07:35:18 | 52.66851 | 8.91725 | 106° | 91km/h | 15446m | 4.4m/s | -57.1°C | 5.8% | 118.3hPa | 2.6V | 00:00:00 | 00:00:00 | 00:00:00 | |
| DN9WHV | 2026-09-04 07:35:16 | 52.66857 | 8.91689 | 106° | 91km/h | 15442m | 4.0m/s | -57.2°C | 2.4% | 118.4hPa | 2.6V | 00:00:00 | 00:00:00 | 00:00:00 | |
| DM0DOS-11 | 2026-09-04 07:35:15 | 52.66895 | 8.91429 | 103° | 89km/h | 15407m | 5m/s | -57.2°C | 5.6% | 119.1hPa | 2.6V | 08:30:00 | 01:02:18 | 00:00:00 | |
| DO2JMG | 2026-09-04 07:35:13 | 52.66879 | 8.91542 | 103° | 93km/h | 15422m | 5.4m/s | -57.3°C | 2.3% | 118.8hPa | 2.8V | 18:12:15 | 01:02:21 | 00:00:00 | |
| BIOWL9-15 | 2026-09-04 07:35:13 | 52.66884 | 8.91504 | 103° | 95km/h | 15417m | 4.7m/s | -57.3°C | 2.3% | 118.9hPa | 2.8V | 00:00:00 | 00:00:00 | 00:00:00 | |
| DL1XH-15 | 2026-09-04 07:35:12 | 52.66912 | 8.91321 | 104° | 89km/h | 15392m | 4.1m/s | -57.1°C | 5.9% | 119.4hPa | 2.8V | 08:30:00 | 01:02:15 | 00:00:00 | |
| HSKMA3-T | 2026-09-04 07:35:12 | 52.66884 | 8.91504 | 104° | 95km/h | 15417m | 4.7m/s | -57.3°C | 2.2% | 118.9hPa | 2.8V | 18:12:15 | 01:02:20 | 00:00:00 | |
| DL1XH-west | 2026-09-04 07:35:10 | 52.66895 | 8.91429 | 104° | 89km/h | 15407m | 5m/s | -57.2°C | 2.3% | 119.1hPa | 2.6V | 18:12:15 | 01:02:18 | 00:00:00 | |
| DL1XH1-15 | 2026-09-04 07:35:09 | 52.66925 | 8.91214 | 99° | 88km/h | 15376m | 6m/s | -57°C | 5.9% | 119.7hPa | 2.6V | 08:30:00 | 01:02:12 | 00:00:00 | |
| DF8AY | 2026-09-04 07:35:07 | 52.66912 | 8.91321 | 104° | 89km/h | 15392m | 4.1m/s | -57.1°C | 2.5% | 119.4hPa | 2.8V | 18:12:15 | 01:02:15 | 00:00:00 | |
| DN9WHV | 2026-09-04 07:35:07 | 52.66912 | 8.91321 | 105° | 89km/h | 15392m | 4.1m/s | -57.1°C | 2.5% | 119.4hPa | 2.8V | 00:00:00 | 00:00:00 | 00:00:00 | |
| DO3DL | 2026-09-04 07:35:06 | 52.66912 | 8.91321 | 105° | 89km/h | 15392m | 4.1m/s | -57.1°C | 2.5% | 119.4hPa | 2.8V | 00:00:00 | 00:00:00 | 00:00:00 | |
| DM0DOS-11 | 2026-09-04 07:35:05 | 52.66936 | 8.91069 | 95° | 88km/h | 15356m | 4.3m/s | -57°C | 6% | 120hPa | 2.8V | 08:30:00 | 01:02:08 | 00:00:00 | |
| DO2JMG | 2026-09-04 07:35:03 | 52.66929 | 8.91178 | 99° | 89km/h | 15371m | 4.5m/s | -57.1°C | 2.6% | 119.8hPa | 2.6V | 18:12:15 | 01:02:11 | 00:00:00 | |
| DL1XH-15 | 2026-09-04 07:35:02 | 52.66944 | 8.90958 | 97° | 88km/h | 15341m | 6.3m/s | -57°C | 5.8% | 120.4hPa | 2.6V | 08:30:00 | 01:02:05 | 00:00:00 | |
| HSKMA3-T | 2026-09-04 07:35:02 | 52.66932 | 8.91141 | 97° | 88km/h | 15366m | 4.9m/s | -57.1°C | 2.5% | 119.9hPa | 2.8V | 18:12:15 | 01:02:10 | 00:00:00 | |
| DF8AY | 2026-09-04 07:35:01 | 52.66947 | 8.90923 | 99° | 88km/h | 15335m | 4.7m/s | -56.9°C | 2.5% | 120.5hPa | 2.8V | 18:12:15 | 01:02:04 | 00:00:00 | |
| DL1XH-west | 2026-09-04 07:35:00 | 52.66936 | 8.91069 | 95° | 88km/h | 15356m | 4.3m/s | -57°C | 2.6% | 120.1hPa | 2.8V | 18:12:15 | 01:02:08 | 00:00:00 | |
| DL1XH1-15 | 2026-09-04 07:34:59 | 52.66955 | 8.90851 | 101° | 86km/h | 15324m | 4.6m/s | -56.9°C | 5.7% | 120.7hPa | 2.6V | 08:30:00 | 01:02:02 | 00:00:00 | |
| SMARD9-15 | 2026-09-04 07:34:59 | 52.66941 | 8.90995 | 97° | 89km/h | 15346m | 4.2m/s | -57.0°C | 2.5% | 120.3hPa | 2.8V | 00:00:00 | 00:00:00 | 00:00:00 | |
| D01LWL | 2026-09-04 07:34:56 | 52.66951 | 8.90887 | 100° | 86km/h | 15330m | 6.5m/s | -56.9°C | 2.5% | 120.5hPa | 2.8V | 00:00:00 | 00:00:00 | 00:00:00 | |
| DB0DAN | 2026-09-04 07:34:55 | 52.66951 | 8.90887 | 101° | 84km/h | 15330m | 6.5m/s | -56.9°C | 2.5% | 120.54hPa | 2.8V | 00:00:00 | 00:00:00 | 00:00:00 | |
| DM0DOS-11 | 2026-09-04 07:34:55 | 52.66972 | 8.90713 | 102° | 86km/h | 15304m | 4.4m/s | -56.6°C | 5.7% | 121.1hPa | 2.6V | 08:30:00 | 01:01:58 | 00:00:00 | |
| DO2JMG | 2026-09-04 07:34:53 | 52.66959 | 8.90817 | 101° | 84km/h | 15319m | 6.1m/s | -56.9°C | 2.5% | 120.8hPa | 2.6V | 18:12:15 | 01:02:01 | 00:00:00 | |
| AA1-15 | 2026-09-04 07:34:52 | 52.66963 | 8.90782 | 101° | 84km/h | 15314m | 4.3m/s | -56.9°C | 2.5% | 120.9hPa | 2.8V | 18:12:15 | 01:02:00 | 00:00:00 | |
| DL1XH-west | 2026-09-04 07:34:49 | 52.66977 | 8.90679 | 102° | 84km/h | 15299m | 5.2m/s | -56.6°C | 2.4% | 121.2hPa | 2.7V | 18:12:15 | 01:01:57 | 00:00:00 | |
| DF8AY | 2026-09-04 07:34:46 | 52.66989 | 8.90578 | 102° | 84km/h | 15285m | 5.3m/s | -56.6°C | 2.5% | 121.4hPa | 2.6V | 18:12:15 | 01:01:54 | 00:00:00 | |
| SONDE2-11 | 2026-09-04 07:34:46 | 52.66993 | 8.90544 | 101° | 82km/h | 15280m | 3.9m/s | -56.5°C | 2.5% | 121.5hPa | 2.8V | 00:00:00 | 00:00:00 | 00:00:00 | |
| SO1NDE-10 | 2026-09-04 07:34:45 | 52.66993 | 8.90544 | 102° | 78km/h | 15281m | 3.9m/s | -56.5°C | 5.7% | 121.5hPa | 2.8V | 00:00:00 | 01:01:53 | 00:00:00 | |
| DJ2DS-15 | 2026-09-04 07:34:44 | 52.66998 | 8.90510 | 103° | 80km/h | 15276m | 6.0m/s | -56.5°C | 5.8% | 121.6hPa | 2.8V | 00:00:00 | 01:01:52 | 00:00:00 | |
| DL1NUX | 2026-09-04 07:34:43 | 52.67021 | 8.90307 | 98° | 82km/h | 15245m | 4.7m/s | -56.3°C | 5.8% | 122.2hPa | 2.8V | 08:30:00 | 01:01:46 | 00:00:00 | |
| DO2JMG | 2026-09-04 07:34:43 | 52.67002 | 8.90477 | 102° | 82km/h | 15270m | 4.4m/s | -56.5°C | 2.5% | 121.8hPa | 2.8V | 18:12:15 | 01:01:51 | 00:00:00 | |
| BIOWL1-15 | 2026-09-04 07:34:42 | 52.67007 | 8.90444 | 102° | 84km/h | 15265m | 5.9m/s | -56.4°C | 2.6% | 121.8hPa | 2.6V | 18:12:15 | 01:01:50 | 00:00:00 | |
| BIOWL9-15 | 2026-09-04 07:34:42 | 52.67011 | 8.90409 | 101° | 84km/h | 15260m | 4.2m/s | -56.4°C | 2.5% | 121.9hPa | 2.7V | 00:00:00 | 00:00:00 | 00:00:00 | |
| DK5PH-5 | 2026-09-04 07:34:41 | 52.67011 | 8.90409 | 102° | 84km/h | 15260m | 4.1m/s | 0°C | 0% | 0hPa | 2.7V | 00:00:00 | 01:01:49 | 00:00:00 | |
| SONCRA | 2026-09-04 07:34:40 | 52.67015 | 8.90375 | 99° | 82km/h | 15256m | 5.5m/s | -56.4°C | 2.5% | 122.0hPa | 2.7V | 00:00:00 | 00:00:00 | 00:00:00 | |
| DL1XH1-15 | 2026-09-04 07:34:39 | 52.67033 | 8.90176 | 98° | 77km/h | 15226m | 4m/s | -56.1°C | 5.7% | 122.5hPa | 2.7V | 08:30:00 | 01:01:42 | 00:00:00 | |
| DL1XH-west | 2026-09-04 07:34:39 | 52.67018 | 8.90341 | 98° | 82km/h | 15250m | 4.9m/s | -56.3°C | 2.7% | 122.1hPa | 2.8V | 18:12:15 | 01:01:47 | 00:00:00 | |
| DF8AY | 2026-09-04 07:34:35 | 52.67030 | 8.90208 | 99° | 77km/h | 15231m | 6m/s | -56.3°C | 2.6% | 122.5hPa | 2.6V | 18:12:15 | 01:01:43 | 00:00:00 | |
| DM0DOS-11 | 2026-09-04 07:34:35 | 52.67044 | 8.90047 | 97° | 78km/h | 15205m | 4.4m/s | -56°C | 5.6% | 123hPa | 2.6V | 08:30:00 | 01:01:38 | 00:00:00 | |
| DD8BA-10 | 2026-09-04 07:34:35 | 52.67030 | 8.90208 | 99° | 78km/h | 15231m | 5.9m/s | -56.2°C | 5.8% | 122.4hPa | 2.7V | 00:00:00 | 00:00:00 | 00:00:00 | |
| HTAHTA | 2026-09-04 07:34:34 | 52.67033 | 8.90176 | 98° | 75km/h | 15226m | 4.0m/s | -56.2°C | 2.5% | 122.5hPa | 2.7V | 00:00:00 | 00:00:00 | 00:00:00 | |
| DL1NUX | 2026-09-04 07:34:33 | 52.67051 | 8.89981 | 100° | 82km/h | 15194m | 4.5m/s | -56°C | 5.6% | 123.1hPa | 2.7V | 08:30:00 | 01:01:36 | 00:00:00 | |
| DO2JMG | 2026-09-04 07:34:32 | 52.67039 | 8.90111 | 98° | 78km/h | 15216m | 4.6m/s | -56.1°C | 2.6% | 122.8hPa | 2.8V | 18:12:15 | 01:01:40 | 00:00:00 | |
| BIOWL1-15 | 2026-09-04 07:34:31 | 52.67042 | 8.90079 | 98° | 78km/h | 15210m | 6.4m/s | -56.1°C | 2.6% | 122.9hPa | 2.8V | 18:12:15 | 01:01:39 | 00:00:00 | |
| DO2SHX-10 | 2026-09-04 07:34:31 | 52.67042 | 8.90079 | 98° | 78km/h | 15211m | 6.3m/s | -56.0°C | 5.6% | 122.8hPa | 2.6V | 00:00:00 | 01:01:39 | 00:00:00 | |
| WEDDY | 2026-09-04 07:34:30 | 52.67042 | 8.90079 | 99° | 78km/h | 15211m | 6.4m/s | 0°C | 0% | 0hPa | 2.6V | 00:00:00 | 00:00:00 | 00:00:00 | |
| DL1XH1-15 | 2026-09-04 07:34:29 | 52.67064 | 8.89850 | 98° | 80km/h | 15174m | 5.5m/s | -56.1°C | 5.7% | 123.6hPa | 2.6V | 08:30:00 | 01:01:32 | 00:00:00 | |
| DL1XH-west | 2026-09-04 07:34:28 | 52.67051 | 8.89981 | 100° | 82km/h | 15194m | 4.5m/s | -56°C | 2.6% | 123.1hPa | 2.7V | 18:12:15 | 01:01:36 | 00:00:00 | |
| DO2SHX-10 | 2026-09-04 07:34:28 | 52.67051 | 8.89981 | 101° | 80km/h | 15194m | 4.4m/s | -56.0°C | 5.6% | 123.1hPa | 2.8V | 00:00:00 | 01:01:36 | 00:00:00 | |
| GOEST3-10 | 2026-09-04 07:34:27 | 52.67054 | 8.89948 | 101° | 78km/h | 15189m | 6.2m/s | -56.0°C | 5.6% | 123.2hPa | 2.8V | 00:00:00 | 00:00:00 | 00:00:00 | |
| DO3DL | 2026-09-04 07:34:26 | 52.67054 | 8.89948 | 101° | 80km/h | 15189m | 6.2m/s | -56.1°C | 2.5% | 123.2hPa | 2.8V | 00:00:00 | 00:00:00 | 00:00:00 | |
| DM0DOS-11 | 2026-09-04 07:34:25 | 52.67074 | 8.89728 | 96° | 69km/h | 15155m | 4.6m/s | -56.2°C | 5.5% | 123.9hPa | 2.8V | 08:30:00 | 01:01:28 | 00:00:00 | |
| DF8AY | 2026-09-04 07:34:24 | 52.67064 | 8.89850 | 99° | 80km/h | 15174m | 5.5m/s | -56.2°C | 2.7% | 123.6hPa | 2.6V | 18:12:15 | 01:01:32 | 00:00:00 | |
| BIOWL1-15 | 2026-09-04 07:34:21 | 52.67072 | 8.89757 | 97° | 69km/h | 15159m | 4.1m/s | -56.1°C | 2.5% | 123.8hPa | 2.8V | 18:12:15 | 01:01:29 | 00:00:00 | |
| HSKMA3-T | 2026-09-04 07:34:20 | 52.67074 | 8.89728 | 97° | 69km/h | 15155m | 4.6m/s | -56.2°C | 2.5% | 123.9hPa | 2.8V | 18:12:15 | 01:01:28 | 00:00:00 | |
| DB0UT-7 | 2026-09-04 07:34:20 | 52.67074 | 8.89728 | 97° | 78km/h | 15155m | 4.6m/s | -56.2°C | 5.5% | 123.9hPa | 2.7V | 00:00:00 | 00:00:00 | 00:00:00 | |
| DL1XH1-15 | 2026-09-04 07:34:19 | 52.67084 | 8.89554 | 96° | 75km/h | 15123m | 4.4m/s | -56.3°C | 5.8% | 124.5hPa | 2.8V | 08:30:00 | 01:01:22 | 00:00:00 | |
| DB0NH | 2026-09-04 07:34:19 | 52.67076 | 8.89699 | 96° | 78km/h | 15149m | 5.8m/s | -56.1°C | 5.5% | 124.0hPa | 2.6V | 00:00:00 | 01:01:27 | 00:00:00 | |
| DO2SHX-10 | 2026-09-04 07:34:18 | 52.67077 | 8.89670 | 96° | 69km/h | 15144m | 4.8m/s | -56.2°C | 5.6% | 124.1hPa | 2.6V | 00:00:00 | 01:01:26 | 00:00:00 | |
| GOEST3-10 | 2026-09-04 07:34:17 | 52.67079 | 8.89641 | 95° | 71km/h | 15139m | 5.9m/s | -56.2°C | 5.6% | 124.2hPa | 2.6V | 00:00:00 | 00:00:00 | 00:00:00 | |
| DL1XH-west | 2026-09-04 07:34:17 | 52.67079 | 8.89641 | 95° | 69km/h | 15139m | 5.9m/s | -56.2°C | 2.6% | 124.2hPa | 2.6V | 18:12:15 | 01:01:25 | 00:00:00 | |
| DL3AQ-11 | 2026-09-04 07:34:16 | 52.67080 | 8.89613 | 95° | 68km/h | 15134m | 4.6m/s | -56.3°C | 2.5% | 124.3hPa | 2.6V | 00:00:00 | 00:00:00 | 00:00:00 | |
| DM0DOS-11 | 2026-09-04 07:34:15 | 52.67098 | 8.89432 | 102° | 77km/h | 15103m | 6.2m/s | -56.5°C | 6% | 125hPa | 2.6V | 08:30:00 | 01:01:18 | 00:00:00 | |
| DF8AY | 2026-09-04 07:34:14 | 52.67087 | 8.89524 | 99° | 73km/h | 15118m | 5.6m/s | -56.4°C | 2.9% | 124.7hPa | 2.8V | 18:12:15 | 01:01:21 | 00:00:00 | |
| DL1NUX | 2026-09-04 07:34:13 | 52.67107 | 8.89370 | 103° | 75km/h | 15092m | 5.1m/s | -56.5°C | 5.8% | 125.2hPa | 2.8V | 08:30:00 | 01:01:16 | 00:00:00 | |
| BIOWL1-15 | 2026-09-04 07:34:11 | 52.67094 | 8.89463 | 103° | 75km/h | 15108m | 4.6m/s | -56.5°C | 2.8% | 124.9hPa | 2.6V | 18:12:15 | 01:01:19 | 00:00:00 | |
| HSKMA3-T | 2026-09-04 07:34:10 | 52.67098 | 8.89432 | 103° | 77km/h | 15103m | 6.2m/s | -56.5°C | 2.9% | 125hPa | 2.6V | 18:12:15 | 01:01:18 | 00:00:00 | |
| DF8AY | 2026-09-04 07:34:07 | 52.67135 | 8.89192 | 100° | 75km/h | 15062m | 5.6m/s | -56.6°C | 2.8% | 125.7hPa | 2.7V | 18:12:15 | 01:01:10 | 00:00:00 | |
| DL1XH-west | 2026-09-04 07:34:06 | 52.67117 | 8.89311 | 108° | 73km/h | 15081m | 4.1m/s | -56.5°C | 2.7% | 125.4hPa | 2.7V | 18:12:15 | 01:01:14 | 00:00:00 | |
| DO2SHX-10 | 2026-09-04 07:34:06 | 52.67117 | 8.89311 | 108° | 73km/h | 15082m | 4.0m/s | -56.4°C | 5.6% | 125.3hPa | 2.7V | 00:00:00 | 01:01:14 | 00:00:00 | |
| DM0DOS-11 | 2026-09-04 07:34:05 | 52.67142 | 8.89129 | 101° | 80km/h | 15050m | 4.7m/s | -56.8°C | 6% | 126hPa | 2.8V | 08:30:00 | 01:01:08 | 00:00:00 | |
| DD8BA-10 | 2026-09-04 07:34:05 | 52.67122 | 8.89282 | 107° | 80km/h | 15078m | 4.0m/s | -56.5°C | 5.6% | 125.4hPa | 2.7V | 00:00:00 | 00:00:00 | 00:00:00 | |
| DJ2DS-15 | 2026-09-04 07:34:04 | 52.67127 | 8.89253 | 105° | 88km/h | 15072m | 5.9m/s | -56.5°C | 5.6% | 125.5hPa | 2.7V | 00:00:00 | 01:01:12 | 00:00:00 | |
| DL1NUX | 2026-09-04 07:34:03 | 52.67151 | 8.89062 | 105° | 86km/h | 15039m | 5.1m/s | -56.7°C | 6.2% | 126.2hPa | 2.7V | 08:30:00 | 01:01:06 | 00:00:00 | |
| DO2JMG | 2026-09-04 07:34:01 | 52.67138 | 8.89161 | 101° | 77km/h | 15056m | 6.8m/s | -56.7°C | 2.9% | 125.9hPa | 2.8V | 18:12:15 | 01:01:09 | 00:00:00 | |
| DL1XH-15 | 2026-09-04 07:34:00 | 52.67174 | 8.88960 | 113° | 88km/h | 15023m | 4.7m/s | -56.9°C | 6.3% | 126.5hPa | 2.6V | 08:30:00 | 01:01:03 | 00:00:00 | |
| AA1-15 | 2026-09-04 07:34:00 | 52.67142 | 8.89129 | 102° | 80km/h | 15050m | 4.7m/s | -56.8°C | 3.1% | 126hPa | 2.8V | 18:12:15 | 01:01:08 | 00:00:00 | |
| HSKMA3-T | 2026-09-04 07:33:59 | 52.67146 | 8.89096 | 102° | 82km/h | 15045m | 6m/s | -56.8°C | 3.2% | 126.1hPa | 2.6V | 18:12:15 | 01:01:07 | 00:00:00 | |
| DL1XH-west | 2026-09-04 07:33:56 | 52.67166 | 8.88993 | 112° | 88km/h | 15028m | 5.6m/s | -56.8°C | 3.3% | 126.4hPa | 2.8V | 18:12:15 | 01:01:04 | 00:00:00 | |
| DO2SHX-10 | 2026-09-04 07:33:56 | 52.67166 | 8.88993 | 113° | 93km/h | 15028m | 5.6m/s | -56.8°C | 6.2% | 126.4hPa | 2.7V | 00:00:00 | 01:01:04 | 08:30:00 | |
| DM0DOS-11 | 2026-09-04 07:33:55 | 52.67212 | 8.88779 | 105° | 99km/h | 14994m | 5.2m/s | -57.2°C | 6.4% | 127.1hPa | 2.7V | 08:30:00 | 01:00:58 | 00:00:00 | |
| DB0DAN | 2026-09-04 07:33:55 | 52.67174 | 8.88960 | 113° | 84km/h | 15023m | 4.7m/s | -56.9°C | 3% | 126.51hPa | 2.6V | 00:00:00 | 00:00:00 | 00:00:00 | |
| D01LWL | 2026-09-04 07:33:54 | 52.67190 | 8.88892 | 108° | 88km/h | 15013m | 5.8m/s | -57.1°C | 3.0% | 126.7hPa | 2.8V | 00:00:00 | 00:00:00 | 00:00:00 | |
| DL1NUX | 2026-09-04 07:33:53 | 52.67224 | 8.88701 | 105° | 97km/h | 14984m | 3.6m/s | -57.3°C | 6.5% | 127.3hPa | 2.8V | 08:30:00 | 01:00:56 | 00:00:00 | |
| DF8AY | 2026-09-04 07:33:51 | 52.67205 | 8.88818 | 107° | 99km/h | 15000m | 5.9m/s | -57.2°C | 3.5% | 127hPa | 2.6V | 18:12:15 | 01:00:59 | 00:00:00 | |
| BIOWL1-15 | 2026-09-04 07:33:50 | 52.67211 | 8.88779 | 105° | 99km/h | 14994m | 5.2m/s | -57.2°C | 3.4% | 127.1hPa | 2.7V | 18:12:15 | 01:00:58 | 00:00:00 | |
| DL1XH1-15 | 2026-09-04 07:33:50 | 52.67250 | 8.88547 | 106° | 93km/h | 14963m | 4.2m/s | -57.3°C | 6.4% | 127.7hPa | 2.7V | 08:30:00 | 01:00:52 | 00:00:00 | |
| HSKMA3-T | 2026-09-04 07:33:49 | 52.67224 | 8.88701 | 105° | 97km/h | 14984m | 3.6m/s | -57.3°C | 3.5% | 127.3hPa | 2.8V | 18:12:15 | 01:00:56 | 00:00:00 | |
| AA1-15 | 2026-09-04 07:33:49 | 52.67218 | 8.88740 | 105° | 97km/h | 14989m | 5.5m/s | -57.3°C | 3.5% | 127.2hPa | 2.7V | 18:12:15 | 01:00:57 | 00:00:00 | |
| DL1XH-west | 2026-09-04 07:33:45 | 52.67244 | 8.88585 | 106° | 95km/h | 14969m | 6.4m/s | -57.3°C | 3.4% | 127.6hPa | 2.6V | 18:12:15 | 01:00:53 | 00:00:00 | |
| SO1NDE-10 | 2026-09-04 07:33:45 | 52.67244 | 8.88585 | 106° | 102km/h | 14969m | 6.3m/s | -57.3°C | 6.4% | 127.6hPa | 2.7V | 00:00:00 | 01:00:53 | 00:00:00 | |
| DJ2DS-15 | 2026-09-04 07:33:44 | 52.67251 | 8.88547 | 107° | 102km/h | 14964m | 4.1m/s | -57.3°C | 6.4% | 127.7hPa | 2.7V | 00:00:00 | 01:00:52 | 00:00:00 | |
| DL1NUX | 2026-09-04 07:33:43 | 52.67292 | 8.88316 | 104° | 99km/h | 14935m | 4.6m/s | -57.4°C | 6.6% | 128.3hPa | 2.7V | 08:30:00 | 01:00:46 | 00:00:00 | |
| DF8AY | 2026-09-04 07:33:41 | 52.67272 | 8.88433 | 107° | 99km/h | 14949m | 4.6m/s | -57.3°C | 3.5% | 128hPa | 2.8V | 18:12:15 | 01:00:49 | 00:00:00 | |
| DO2SHX-10 | 2026-09-04 07:33:41 | 52.67272 | 8.88433 | 108° | 99km/h | 14950m | 4.5m/s | -57.3°C | 6.5% | 128.0hPa | 2.7V | 00:00:00 | 01:00:49 | 00:00:00 | |
| DL1XH-15 | 2026-09-04 07:33:40 | 52.67310 | 8.88193 | 102° | 102km/h | 14921m | 5.1m/s | -57.4°C | 6.7% | 128.6hPa | 2.8V | 08:30:00 | 01:00:43 | 00:00:00 | |
| DO2JMG | 2026-09-04 07:33:40 | 52.67279 | 8.88394 | 106° | 97km/h | 14944m | 5.2m/s | -57.4°C | 3.6% | 128.1hPa | 2.8V | 18:12:15 | 01:00:48 | 00:00:00 | |
| AA1-15 | 2026-09-04 07:33:38 | 52.67292 | 8.88316 | 105° | 99km/h | 14935m | 4.6m/s | -57.4°C | 3.6% | 128.3hPa | 2.7V | 18:12:15 | 01:00:46 | 00:00:00 | |
| SONCRA | 2026-09-04 07:33:38 | 52.67292 | 8.88316 | 104° | 99km/h | 14935m | 4.6m/s | -57.4°C | 3.1% | 128.3hPa | 2.8V | 00:00:00 | 00:00:00 | 00:00:00 | |
| DJ2KF-10 | 2026-09-04 07:33:37 | 52.67298 | 8.88276 | 105° | 106km/h | 14931m | 4.8m/s | -57.4°C | 6.6% | 128.3hPa | 2.8V | 00:00:00 | 01:00:45 | 00:00:00 | |
| DL3AQ-11 | 2026-09-04 07:33:36 | 52.67310 | 8.88193 | 102° | 102km/h | 14921m | 5.1m/s | -57.4°C | 3.2% | 128.6hPa | 2.8V | 00:00:00 | 00:00:00 | 00:00:00 | |
| DM0DOS-11 | 2026-09-04 07:33:35 | 52.67342 | 8.87980 | 103° | 106km/h | 14897m | 5.5m/s | -57.5°C | 6.8% | 129.1hPa | 2.8V | 08:30:00 | 01:00:38 | 00:00:00 | |
| DL1XH-west | 2026-09-04 07:33:35 | 52.67310 | 8.88193 | 103° | 102km/h | 14921m | 5.1m/s | -57.4°C | 3.7% | 128.6hPa | 2.8V | 18:12:15 | 01:00:43 | 00:00:00 | |
| DD8BA-10 | 2026-09-04 07:33:35 | 52.67310 | 8.88193 | 103° | 106km/h | 14921m | 5.1m/s | -57.3°C | 6.7% | 128.5hPa | 2.8V | 00:00:00 | 00:00:00 | 00:00:00 | |
| DL1NUX | 2026-09-04 07:33:33 | 52.67353 | 8.87895 | 102° | 106km/h | 14887m | 4.8m/s | -57.4°C | 6.8% | 129.2hPa | 2.8V | 08:30:00 | 01:00:36 | 00:00:00 | |
| DF8AY | 2026-09-04 07:33:31 | 52.67335 | 8.88024 | 104° | 108km/h | 14902m | 4m/s | -57.5°C | 3.7% | 129hPa | 2.7V | 18:12:15 | 01:00:39 | 00:00:00 | |
| DL1XH-15 | 2026-09-04 07:33:30 | 52.67369 | 8.87766 | 101° | 102km/h | 14872m | 5m/s | -57.4°C | 6.8% | 129.6hPa | 2.7V | 08:30:00 | 01:00:33 | 00:00:00 | |
| BIOWL1-15 | 2026-09-04 07:33:29 | 52.67348 | 8.87938 | 103° | 104km/h | 14892m | 4.4m/s | -57.3°C | 3.8% | 129.2hPa | 2.8V | 18:12:15 | 01:00:37 | 00:00:00 | |
| AA1-15 | 2026-09-04 07:33:27 | 52.67359 | 8.87852 | 102° | 106km/h | 14882m | 5m/s | -57.4°C | 3.8% | 129.4hPa | 2.6V | 18:12:15 | 01:00:35 | 00:00:00 | |
| GOEST3-10 | 2026-09-04 07:33:27 | 52.67359 | 8.87852 | 102° | 104km/h | 14883m | 5.0m/s | -57.3°C | 6.8% | 129.3hPa | 2.7V | 00:00:00 | 00:00:00 | 00:00:00 | |
| DO3DL | 2026-09-04 07:33:26 | 52.67359 | 8.87852 | 103° | 106km/h | 14883m | 5.0m/s | -57.4°C | 3.3% | 129.4hPa | 2.7V | 00:00:00 | 00:00:00 | 00:00:00 | |
| DB0DAN | 2026-09-04 07:33:25 | 52.67369 | 8.87766 | 101° | 99km/h | 14872m | 5m/s | -57.4°C | 3.3% | 129.55hPa | 2.7V | 00:00:00 | 00:00:00 | 00:00:00 | |
| DM0DOS-11 | 2026-09-04 07:33:25 | 52.67398 | 8.87553 | 102° | 106km/h | 14848m | 4.9m/s | -57.4°C | 6.8% | 130hPa | 2.7V | 08:30:00 | 01:00:28 | 00:00:00 | |
| DL1XH-west | 2026-09-04 07:33:24 | 52.67374 | 8.87725 | 102° | 102km/h | 14868m | 3.8m/s | -57.3°C | 3.9% | 129.6hPa | 2.8V | 18:12:15 | 01:00:32 | 00:00:00 | |
| DL8OAI-8 | 2026-09-04 07:33:24 | 52.67374 | 8.87725 | 103° | 102km/h | 14868m | 3.8m/s | -57.3°C | 3.4% | 129.6hPa | 2.7V | 00:00:00 | 00:00:00 | 00:00:00 | |
| DO2SHX-10 | 2026-09-04 07:33:23 | 52.67380 | 8.87682 | 103° | 106km/h | 14863m | 5.6m/s | -57.3°C | 6.8% | 129.7hPa | 2.7V | 00:00:00 | 01:00:31 | 00:00:00 | |
| DO9LL-15 | 2026-09-04 07:33:22 | 52.67386 | 8.87639 | 104° | 108km/h | 14858m | 4.1m/s | -57.3°C | 6.8% | 129.8hPa | 2.7V | 00:00:00 | 01:00:30 | 00:00:00 | |
| DL1XH-15 | 2026-09-04 07:33:21 | 52.67426 | 8.87334 | 99° | 106km/h | 14824m | 4.1m/s | -57.3°C | 6.8% | 130.6hPa | 2.7V | 08:30:00 | 01:00:23 | 00:00:00 | |
| DF8AY | 2026-09-04 07:33:20 | 52.67398 | 8.87553 | 102° | 106km/h | 14848m | 4.9m/s | -57.4°C | 3.8% | 130hPa | 2.7V | 18:12:15 | 01:00:28 | 00:00:00 | |
| BIOWL1-15 | 2026-09-04 07:33:18 | 52.67410 | 8.87465 | 102° | 110km/h | 14838m | 4.3m/s | -57.4°C | 3.8% | 130.2hPa | 2.8V | 18:12:15 | 01:00:26 | 00:00:00 | |
| AA1-15 | 2026-09-04 07:33:17 | 52.67416 | 8.87421 | 102° | 108km/h | 14834m | 4.7m/s | -57.4°C | 3.8% | 130.4hPa | 2.8V | 18:12:15 | 01:00:25 | 00:00:00 | |
| GOEST3-10 | 2026-09-04 07:33:17 | 52.67416 | 8.87421 | 102° | 108km/h | 14834m | 4.7m/s | -57.4°C | 6.7% | 130.4hPa | 2.8V | 00:00:00 | 00:00:00 | 00:00:00 | |
| DO2SHX-10 | 2026-09-04 07:33:16 | 52.67421 | 8.87377 | 101° | 106km/h | 14829m | 4.8m/s | -57.3°C | 6.7% | 130.4hPa | 2.8V | 00:00:00 | 01:00:24 | 00:00:00 | |
| DM0DOS-11 | 2026-09-04 07:33:15 | 52.67447 | 8.87112 | 99° | 108km/h | 14799m | 5.8m/s | -57.2°C | 6.6% | 131.1hPa | 2.8V | 08:30:00 | 01:00:18 | 00:00:00 | |
| SO1NDE-10 | 2026-09-04 07:33:15 | 52.67425 | 8.87334 | 100° | 108km/h | 14825m | 4.1m/s | -57.3°C | 6.8% | 130.5hPa | 2.7V | 00:00:00 | 01:00:23 | 00:00:00 | |
| DL1NUX | 2026-09-04 07:33:13 | 52.67456 | 8.87024 | 100° | 106km/h | 14789m | 5.5m/s | -57.3°C | 6.7% | 131.3hPa | 2.7V | 08:30:00 | 01:00:16 | 00:00:00 | |
| DL1XH-west | 2026-09-04 07:33:13 | 52.67434 | 8.87245 | 99° | 110km/h | 14814m | 3.8m/s | -57.2°C | 3.9% | 130.7hPa | 2.7V | 18:12:15 | 01:00:21 | 00:00:00 | |
| SONDE2-11 | 2026-09-04 07:33:13 | 52.67439 | 8.87201 | 98° | 108km/h | 14810m | 5.5m/s | -57.2°C | 3.2% | 130.9hPa | 2.8V | 00:00:00 | 00:00:00 | 00:00:00 | |
| DL4XJ-10 | 2026-09-04 07:33:12 | 52.67438 | 8.87201 | 99° | 108km/h | 14809m | 5.5m/s | -57.7°C | 0% | 0hPa | 2.8V | 00:00:00 | 00:00:00 | 00:00:00 | |
| DL1XH-15 | 2026-09-04 07:33:11 | 52.67472 | 8.86895 | 102° | 108km/h | 14774m | 4.8m/s | -57.5°C | 6.8% | 131.6hPa | 2.8V | 08:30:00 | 01:00:13 | 00:00:00 | |
| DF8AY | 2026-09-04 07:33:11 | 52.67447 | 8.87112 | 100° | 108km/h | 14799m | 5.8m/s | -57.2°C | 3.8% | 131.1hPa | 2.8V | 18:12:15 | 01:00:18 | 00:00:00 | |
| DN9WHV | 2026-09-04 07:33:11 | 52.67443 | 8.87156 | 100° | 108km/h | 14805m | 4.7m/s | -57.1°C | 3.2% | 130.9hPa | 2.7V | 00:00:00 | 00:00:00 | 00:00:00 | |
| DO2SHX-10 | 2026-09-04 07:33:10 | 52.67447 | 8.87112 | 100° | 106km/h | 14800m | 5.8m/s | -57.1°C | 6.6% | 131.0hPa | 2.7V | 00:00:00 | 01:00:18 | 00:00:00 | |
| DL1XH1-15 | 2026-09-04 07:33:09 | 52.67479 | 8.86852 | 103° | 106km/h | 14769m | 4.5m/s | -57.4°C | 6.9% | 131.7hPa | 2.8V | 08:30:00 | 01:00:12 | 00:00:00 | |
| DO2JMG | 2026-09-04 07:33:08 | 52.67457 | 8.87024 | 101° | 106km/h | 14789m | 5.5m/s | -57.3°C | 3.9% | 131.3hPa | 2.7V | 18:12:15 | 01:00:16 | 00:00:00 | |
| AA1-15 | 2026-09-04 07:33:06 | 52.67467 | 8.86938 | 102° | 106km/h | 14779m | 5.3m/s | -57.4°C | 3.9% | 131.5hPa | 2.8V | 18:12:15 | 01:00:14 | 00:00:00 | |
| DM0DOS-11 | 2026-09-04 07:33:05 | 52.67498 | 8.86677 | 98° | 110km/h | 14750m | 4.6m/s | -57.5°C | 7.1% | 132.1hPa | 2.8V | 08:30:00 | 01:00:08 | 00:00:00 | |
| DD8BA-10 | 2026-09-04 07:33:05 | 52.67473 | 8.86895 | 103° | 108km/h | 14774m | 4.8m/s | -57.4°C | 6.8% | 131.6hPa | 2.8V | 00:00:00 | 00:00:00 | 00:00:00 | |
| DJ2DS-15 | 2026-09-04 07:33:04 | 52.67479 | 8.86852 | 104° | 108km/h | 14769m | 4.5m/s | -57.4°C | 6.9% | 131.7hPa | 2.8V | 00:00:00 | 01:00:12 | 00:00:00 | |
| DL1NUX | 2026-09-04 07:33:03 | 52.67506 | 8.86587 | 97° | 108km/h | 14740m | 4.9m/s | -57.5°C | 7.1% | 132.3hPa | 2.8V | 08:30:00 | 01:00:06 | 00:00:00 | |
| DL1XH-west | 2026-09-04 07:33:02 | 52.67489 | 8.86766 | 100° | 106km/h | 14760m | 3.8m/s | -57.5°C | 4% | 131.9hPa | 2.7V | 18:12:15 | 01:00:10 | 00:00:00 | |
| DF8AY | 2026-09-04 07:33:00 | 52.67498 | 8.86677 | 98° | 110km/h | 14750m | 4.6m/s | -57.5°C | 4.1% | 132.1hPa | 2.8V | 18:12:15 | 01:00:08 | 00:00:00 | |
| DL1XH1-15 | 2026-09-04 07:32:59 | 52.67522 | 8.86409 | 99° | 106km/h | 14720m | 6.1m/s | -57.4°C | 7.1% | 132.7hPa | 2.8V | 08:30:00 | 01:00:02 | 00:00:00 | |
| DO2JMG | 2026-09-04 07:32:58 | 52.67506 | 8.86587 | 97° | 108km/h | 14740m | 4.9m/s | -57.5°C | 4.1% | 132.3hPa | 2.8V | 18:12:15 | 01:00:06 | 00:00:00 | |
| BIOWL1-15 | 2026-09-04 07:32:57 | 52.67509 | 8.86543 | 98° | 110km/h | 14735m | 4.8m/s | -57.5°C | 4.1% | 132.4hPa | 2.7V | 18:12:15 | 01:00:05 | 00:00:00 | |
| AA1-15 | 2026-09-04 07:32:56 | 52.67513 | 8.86498 | 99° | 110km/h | 14730m | 4.8m/s | -57.5°C | 4.2% | 132.6hPa | 2.7V | 18:12:15 | 01:00:04 | 00:00:00 | |
| DL3AQ-11 | 2026-09-04 07:32:56 | 52.67518 | 8.86453 | 99° | 108km/h | 14725m | 4.4m/s | -57.4°C | 3.6% | 132.7hPa | 2.7V | 00:00:00 | 00:00:00 | 00:00:00 | |
| DB0DAN | 2026-09-04 07:32:55 | 52.67518 | 8.86453 | 100° | 104km/h | 14725m | 4.4m/s | -57.4°C | 3.6% | 132.66hPa | 2.7V | 00:00:00 | 00:00:00 | 00:00:00 | |
| SMARD9-15 | 2026-09-04 07:32:55 | 52.67522 | 8.86409 | 99° | 106km/h | 14720m | 6.1m/s | -57.4°C | 3.6% | 132.8hPa | 2.8V | 00:00:00 | 00:00:00 | 00:00:00 | |
| DN9WHV | 2026-09-04 07:32:54 | 52.67518 | 8.86453 | 101° | 108km/h | 14725m | 4.4m/s | -57.4°C | 3.6% | 132.7hPa | 2.8V | 00:00:00 | 00:00:00 | 00:00:00 | |
| DL1NUX | 2026-09-04 07:32:53 | 52.67543 | 8.86145 | 92° | 110km/h | 14690m | 4.9m/s | -57.4°C | 7% | 133.3hPa | 2.8V | 08:30:00 | 00:59:56 | 00:00:00 | |
| DL1XH-west | 2026-09-04 07:32:51 | 52.67535 | 8.86279 | 98° | 108km/h | 14705m | 4.4m/s | -57.4°C | 4.2% | 133.1hPa | 2.7V | 18:12:15 | 00:59:59 | 00:00:00 | |
| DF8AY | 2026-09-04 07:32:50 | 52.67538 | 8.86235 | 97° | 108km/h | 14700m | 5.3m/s | -57.4°C | 4.1% | 133.1hPa | 2.7V | 18:12:15 | 00:59:58 | 00:00:00 | |
| DB0UT-7 | 2026-09-04 07:32:50 | 52.67538 | 8.86234 | 97° | 104km/h | 14701m | 5.3m/s | -57.4°C | 7.0% | 133.1hPa | 2.7V | 00:00:00 | 00:59:58 | 00:00:00 | |
| DL1XH1-15 | 2026-09-04 07:32:49 | 52.67547 | 8.85962 | 93° | 108km/h | 14670m | 4.4m/s | -57.3°C | 6.8% | 133.8hPa | 2.7V | 08:30:00 | 00:59:52 | 00:00:00 | |
| BIOWL1-15 | 2026-09-04 07:32:48 | 52.67545 | 8.86053 | 92° | 111km/h | 14680m | 4.4m/s | -57.2°C | 4.2% | 133.6hPa | 2.8V | 18:12:15 | 00:59:54 | 00:00:00 | |
| DO2JMG | 2026-09-04 07:32:47 | 52.67544 | 8.86099 | 92° | 111km/h | 14685m | 5m/s | -57.3°C | 4.1% | 133.5hPa | 2.8V | 18:12:15 | 00:59:55 | 00:00:00 | |
| AA1-15 | 2026-09-04 07:32:45 | 52.67545 | 8.86007 | 92° | 110km/h | 14675m | 5.6m/s | -57.3°C | 4.2% | 133.7hPa | 2.7V | 18:12:15 | 00:59:53 | 00:00:00 | |
| SO1NDE-10 | 2026-09-04 07:32:45 | 52.67545 | 8.86007 | 92° | 102km/h | 14676m | 5.5m/s | -57.2°C | 6.9% | 133.6hPa | 2.7V | 00:00:00 | 00:59:53 | 00:00:00 | |
| DO2SHX-10 | 2026-09-04 07:32:44 | 52.67547 | 8.85962 | 94° | 106km/h | 14670m | 4.3m/s | -57.3°C | 6.8% | 133.7hPa | 2.7V | 00:00:00 | 00:59:52 | 00:00:00 | |
| DL1NUX | 2026-09-04 07:32:43 | 52.67567 | 8.85708 | 98° | 102km/h | 14640m | 4.7m/s | -57.4°C | 7.1% | 134.4hPa | 2.7V | 08:30:00 | 00:59:46 | 00:00:00 | |
| DL1XH-west | 2026-09-04 07:32:41 | 52.67555 | 8.85832 | 98° | 100km/h | 14655m | 5.9m/s | -57.4°C | 4.2% | 134.1hPa | 2.8V | 18:12:15 | 00:59:49 | 00:00:00 | |
| DO2SHX-10 | 2026-09-04 07:32:41 | 52.67555 | 8.85832 | 99° | 100km/h | 14655m | 5.9m/s | -57.3°C | 6.9% | 134.1hPa | 2.7V | 00:00:00 | 00:59:49 | 00:00:00 | |
| DD1CC3-15 | 2026-09-04 07:32:40 | 52.67555 | 8.85832 | 99° | 100km/h | 14655m | 5.9m/s | -57.4°C | 3.5% | 134.1hPa | 2.8V | 00:00:00 | 00:00:00 | 00:00:00 | |
| DL1XH1-15 | 2026-09-04 07:32:39 | 52.67577 | 8.85537 | 94° | 104km/h | 14621m | 5.3m/s | -57.2°C | 7.5% | 134.8hPa | 2.8V | 08:30:00 | 00:59:42 | 00:00:00 | |
| DF8AY | 2026-09-04 07:32:39 | 52.67563 | 8.85750 | 99° | 100km/h | 14646m | 5.2m/s | -57.4°C | 4.2% | 134.3hPa | 2.7V | 18:12:15 | 00:59:47 | 00:00:00 | |
| BIOWL1-15 | 2026-09-04 07:32:38 | 52.67572 | 8.85623 | 95° | 102km/h | 14631m | 5.6m/s | -57.3°C | 4.4% | 134.6hPa | 2.8V | 18:12:15 | 00:59:44 | 00:00:00 | |
| DO2JMG | 2026-09-04 07:32:37 | 52.67570 | 8.85666 | 96° | 102km/h | 14636m | 4.1m/s | -57.3°C | 4.4% | 134.5hPa | 2.7V | 18:12:15 | 00:59:45 | 00:00:00 | |
| HSKMA3-T | 2026-09-04 07:32:35 | 52.67575 | 8.85580 | 94° | 104km/h | 14626m | 4.6m/s | -57.3°C | 4.5% | 134.7hPa | 2.8V | 18:12:15 | 00:59:43 | 00:00:00 | |
| AA1-15 | 2026-09-04 07:32:34 | 52.67577 | 8.85537 | 95° | 104km/h | 14621m | 5.3m/s | -57.2°C | 4.6% | 134.8hPa | 2.8V | 18:12:15 | 00:59:42 | 00:00:00 | |
| DL1NUX | 2026-09-04 07:32:33 | 52.67586 | 8.85287 | 93° | 100km/h | 14592m | 4.7m/s | -57.4°C | 7.1% | 135.5hPa | 2.8V | 08:30:00 | 00:59:36 | 00:00:00 | |
| DL1XH-west | 2026-09-04 07:32:30 | 52.67583 | 8.85370 | 93° | 99km/h | 14602m | 5.6m/s | -57.3°C | 4.2% | 135.3hPa | 2.8V | 18:12:15 | 00:59:38 | 00:00:00 | |
| DF8AY | 2026-09-04 07:32:29 | 52.67584 | 8.85328 | 94° | 100km/h | 14597m | 4.5m/s | -57.3°C | 4.2% | 135.4hPa | 2.8V | 18:12:15 | 00:59:37 | 00:00:00 | |
| DO2JMG | 2026-09-04 07:32:27 | 52.67587 | 8.85245 | 93° | 100km/h | 14587m | 5m/s | -57.3°C | 4.4% | 135.6hPa | 2.7V | 18:12:15 | 00:59:35 | 00:00:00 | |
| GOEST3-10 | 2026-09-04 07:32:27 | 52.67587 | 8.85245 | 94° | 102km/h | 14587m | 4.9m/s | -57.3°C | 7.1% | 135.5hPa | 2.7V | 00:00:00 | 00:00:00 | 00:00:00 | |
| DO3DL | 2026-09-04 07:32:26 | 52.67587 | 8.85245 | 94° | 100km/h | 14587m | 5.0m/s | -57.3°C | 3.6% | 135.6hPa | 2.7V | 00:00:00 | 00:00:00 | 00:00:00 | |
| DB0DAN | 2026-09-04 07:32:25 | 52.67591 | 8.85161 | 95° | 99km/h | 14577m | 5.7m/s | -57.2°C | 3.6% | 135.78hPa | 2.7V | 00:00:00 | 00:00:00 | 00:00:00 | |
| BIOWL1-15 | 2026-09-04 07:32:25 | 52.67591 | 8.85161 | 95° | 102km/h | 14577m | 5.7m/s | -57.2°C | 4.4% | 135.8hPa | 2.7V | 18:12:15 | 00:59:33 | 00:00:00 | |
| AA1-15 | 2026-09-04 07:32:24 | 52.67593 | 8.85118 | 96° | 104km/h | 14573m | 3.4m/s | -57.2°C | 4.4% | 135.9hPa | 2.8V | 18:12:15 | 00:59:32 | 00:00:00 | |
| DJ2DS-15 | 2026-09-04 07:32:24 | 52.67593 | 8.85118 | 96° | 100km/h | 14573m | 3.3m/s | -57.2°C | 7.0% | 135.9hPa | 2.7V | 00:00:00 | 00:59:32 | 00:00:00 | |
| BIOWL7-15 | 2026-09-04 07:32:23 | 52.67593 | 8.85118 | 97° | 104km/h | 14573m | 3.4m/s | -57.2°C | 3.6% | 135.9hPa | 2.7V | 00:00:00 | 00:00:00 | 00:00:00 | |
| GOEST3-10 | 2026-09-04 07:32:22 | 52.67598 | 8.85032 | 96° | 102km/h | 14563m | 4.1m/s | -57.1°C | 6.9% | 136.1hPa | 2.7V | 00:00:00 | 00:59:30 | 00:00:00 | |
| D01LWL | 2026-09-04 07:32:21 | 52.67604 | 8.84947 | 97° | 100km/h | 14553m | 5.4m/s | -57.2°C | 3.6% | 136.3hPa | 2.7V | 00:00:00 | 00:00:00 | 00:00:00 | |
| DB0UT-7 | 2026-09-04 07:32:20 | 52.67604 | 8.84947 | 98° | 100km/h | 14553m | 5.3m/s | -57.2°C | 7.0% | 136.3hPa | 2.7V | 00:00:00 | 00:00:00 | 00:00:00 | |
| DL1XH1-15 | 2026-09-04 07:32:19 | 52.67626 | 8.84703 | 97° | 97km/h | 14522m | 5.6m/s | -57°C | 6.8% | 136.9hPa | 2.7V | 08:30:00 | 00:59:22 | 00:00:00 | |
| DF8AY | 2026-09-04 07:32:19 | 52.67608 | 8.84905 | 98° | 100km/h | 14547m | 6.3m/s | -57.1°C | 4.6% | 136.4hPa | 2.7V | 18:12:15 | 00:59:27 | 00:00:00 | |
| DO2JMG | 2026-09-04 07:32:16 | 52.67619 | 8.84783 | 100° | 97km/h | 14531m | 5.4m/s | -57.1°C | 4.7% | 136.8hPa | 2.8V | 18:12:15 | 00:59:24 | 00:00:00 | |
| BIOWL1-15 | 2026-09-04 07:32:14 | 52.67626 | 8.84703 | 98° | 97km/h | 14522m | 5.6m/s | -57.1°C | 4.5% | 137hPa | 2.7V | 18:12:15 | 00:59:22 | 00:00:00 | |
| DF8AY | 2026-09-04 07:32:13 | 52.67644 | 8.84460 | 97° | 99km/h | 14492m | 4.4m/s | -57.6°C | 4.7% | 137.6hPa | 2.7V | 18:12:15 | 00:59:16 | 00:00:00 | |
| AA1-15 | 2026-09-04 07:32:13 | 52.67629 | 8.84663 | 97° | 97km/h | 14517m | 4.1m/s | -57.1°C | 4.5% | 137.1hPa | 2.7V | 18:12:15 | 00:59:21 | 00:00:00 | |
| DO2SHX-10 | 2026-09-04 07:32:12 | 52.67632 | 8.84623 | 97° | 99km/h | 14512m | 5.2m/s | -57.1°C | 7.0% | 137.2hPa | 2.7V | 00:00:00 | 00:59:20 | 00:00:00 | |
| SONDE2-11 | 2026-09-04 07:32:11 | 52.67638 | 8.84542 | 96° | 99km/h | 14502m | 5.4m/s | -57.2°C | 3.7% | 137.4hPa | 2.8V | 00:00:00 | 00:00:00 | 00:00:00 | |
| DL1XH1-15 | 2026-09-04 07:32:09 | 52.67660 | 8.84299 | 100° | 97km/h | 14472m | 4.1m/s | -58.2°C | 7.4% | 138.1hPa | 2.8V | 08:30:00 | 00:59:12 | 00:00:00 | |
| DL1XH-west | 2026-09-04 07:32:09 | 52.67641 | 8.84501 | 96° | 99km/h | 14497m | 4.6m/s | -57.3°C | 4.7% | 137.5hPa | 2.7V | 18:12:15 | 00:59:17 | 00:00:00 | |
| DO2JMG | 2026-09-04 07:32:05 | 52.67656 | 8.84338 | 100° | 97km/h | 14477m | 6.1m/s | -58.1°C | 4.7% | 137.9hPa | 2.8V | 18:12:15 | 00:59:13 | 00:00:00 | |
| SONCRA | 2026-09-04 07:32:05 | 52.67660 | 8.84299 | 100° | 95km/h | 14472m | 4.1m/s | -58.2°C | 3.8% | 138.1hPa | 2.8V | 00:00:00 | 00:00:00 | 00:00:00 | |
| DM0DOS-11 | 2026-09-04 07:32:04 | 52.67680 | 8.84144 | 100° | 93km/h | 14453m | 5.6m/s | -58.2°C | 7.7% | 138.5hPa | 2.8V | 08:30:00 | 00:59:08 | 00:00:00 | |
| BIOWL1-15 | 2026-09-04 07:32:04 | 52.67660 | 8.84299 | 100° | 97km/h | 14472m | 4.1m/s | -58.2°C | 4.8% | 138.1hPa | 2.8V | 18:12:15 | 00:59:12 | 00:00:00 | |
| HSKMA3-T | 2026-09-04 07:32:03 | 52.67665 | 8.84260 | 102° | 95km/h | 14467m | 5.6m/s | -58.2°C | 4.9% | 138.2hPa | 2.7V | 18:12:15 | 00:59:11 | 00:00:00 | |
| AA1-15 | 2026-09-04 07:32:02 | 52.67670 | 8.84221 | 103° | 95km/h | 14462m | 4.8m/s | -58.1°C | 4.9% | 138.3hPa | 2.7V | 18:12:15 | 00:59:10 | 00:00:00 | |
| DN9WHV | 2026-09-04 07:32:01 | 52.67670 | 8.84221 | 104° | 95km/h | 14462m | 4.8m/s | -58.1°C | 3.9% | 138.3hPa | 2.7V | 00:00:00 | 00:00:00 | 00:00:00 | |
| DL1XH-15 | 2026-09-04 07:32:00 | 52.67700 | 8.83939 | 98° | 108km/h | 14428m | 5.7m/s | -58.4°C | 7.8% | 139hPa | 2.7V | 08:30:00 | 00:59:03 | 00:00:00 | |
| DL1XH-west | 2026-09-04 07:31:59 | 52.67684 | 8.84105 | 99° | 95km/h | 14448m | 4m/s | -58.3°C | 5.2% | 138.6hPa | 2.8V | 18:12:15 | 00:59:07 | 00:00:00 | |
| DF8AY | 2026-09-04 07:31:57 | 52.67692 | 8.84025 | 100° | 100km/h | 14438m | 5.3m/s | -58.3°C | 5.3% | 138.8hPa | 2.7V | 18:12:15 | 00:59:05 | 00:00:00 | |
| DD1CC8 | 2026-09-04 07:31:57 | 52.67696 | 8.83983 | 99° | 104km/h | 14433m | 4.3m/s | -58.3°C | 4.2% | 138.9hPa | 2.7V | 00:00:00 | 00:00:00 | 00:00:00 | |
| DO2SHX-10 | 2026-09-04 07:31:56 | 52.67696 | 8.83983 | 100° | 108km/h | 14433m | 4.2m/s | -58.3°C | 7.9% | 138.9hPa | 2.7V | 00:00:00 | 00:59:04 | 00:00:00 | |
| DD8BA-10 | 2026-09-04 07:31:55 | 52.67700 | 8.83939 | 99° | 110km/h | 14429m | 5.6m/s | -58.4°C | 7.8% | 139.0hPa | 2.7V | 00:00:00 | 00:00:00 | 08:30:00 | |
| DM0DOS-11 | 2026-09-04 07:31:54 | 52.67722 | 8.83712 | 99° | 111km/h | 14403m | 6.3m/s | -58.8°C | 8.2% | 139.7hPa | 2.7V | 08:30:00 | 00:58:58 | 00:00:00 | |
| DO2JMG | 2026-09-04 07:31:54 | 52.67704 | 8.83895 | 98° | 110km/h | 14423m | 4.7m/s | -58.5°C | 5.4% | 139.2hPa | 2.8V | 18:12:15 | 00:59:02 | 00:00:00 | |
| DL1NUX | 2026-09-04 07:31:53 | 52.67732 | 8.83623 | 101° | 108km/h | 14393m | 6m/s | -58.7°C | 8.4% | 139.8hPa | 2.8V | 08:30:00 | 00:58:56 | 00:00:00 | |
| BIOWL1-15 | 2026-09-04 07:31:53 | 52.67708 | 8.83849 | 98° | 111km/h | 14419m | 4.5m/s | -58.5°C | 5.3% | 139.3hPa | 2.8V | 18:12:15 | 00:59:01 | 00:00:00 | |
| HSKMA3-T | 2026-09-04 07:31:52 | 52.67712 | 8.83803 | 100° | 111km/h | 14413m | 6.4m/s | -58.6°C | 5.3% | 139.4hPa | 2.8V | 18:12:15 | 00:59:00 | 00:00:00 | |
| AA1-15 | 2026-09-04 07:31:51 | 52.67717 | 8.83758 | 100° | 111km/h | 14408m | 4.1m/s | -58.8°C | 5.5% | 139.5hPa | 2.7V | 18:12:15 | 00:58:59 | 00:00:00 | |
| DL1XH-15 | 2026-09-04 07:31:50 | 52.67746 | 8.83488 | 97° | 113km/h | 14378m | 4.2m/s | -58.6°C | 8.4% | 140.2hPa | 2.7V | 08:30:00 | 00:58:53 | 00:00:00 | |
| DL1XH-west | 2026-09-04 07:31:49 | 52.67727 | 8.83667 | 100° | 110km/h | 14398m | 4.6m/s | -58.7°C | 5.5% | 139.7hPa | 2.7V | 18:12:15 | 00:58:57 | 00:00:00 | |
| DF8AY | 2026-09-04 07:31:47 | 52.67737 | 8.83579 | 101° | 108km/h | 14387m | 3.9m/s | -58.6°C | 5.8% | 140hPa | 2.8V | 18:12:15 | 00:58:55 | 00:00:00 | |
| DO2SHX-10 | 2026-09-04 07:31:47 | 52.67737 | 8.83579 | 101° | 111km/h | 14388m | 3.9m/s | -58.6°C | 8.5% | 139.9hPa | 2.8V | 00:00:00 | 00:58:55 | 00:00:00 | |
| DC6BW-12 | 2026-09-04 07:31:46 | 52.67737 | 8.83579 | 102° | 108km/h | 14388m | 3.9m/s | -58.6°C | 4.7% | 140.0hPa | 2.8V | 00:00:00 | 00:00:00 | 00:00:00 | |
| DN9WHV | 2026-09-04 07:31:45 | 52.67742 | 8.83534 | 100° | 110km/h | 14383m | 5.9m/s | -58.6°C | 4.6% | 140.1hPa | 2.8V | 00:00:00 | 00:00:00 | 00:00:00 | |
| DM0DOS-11 | 2026-09-04 07:31:44 | 52.67765 | 8.83250 | 96° | 117km/h | 14352m | 4.3m/s | -58.7°C | 8.4% | 140.8hPa | 2.8V | 08:30:00 | 00:58:48 | 00:00:00 | |
| BIOWL1-15 | 2026-09-04 07:31:44 | 52.67758 | 8.83347 | 97° | 117km/h | 14363m | 4.8m/s | -58.7°C | 5.9% | 140.5hPa | 2.8V | 18:12:15 | 00:58:50 | 00:00:00 | |
| DJ2DS-15 | 2026-09-04 07:31:44 | 52.67750 | 8.83441 | 98° | 115km/h | 14373m | 5.3m/s | -58.6°C | 8.3% | 140.2hPa | 2.7V | 00:00:00 | 00:58:52 | 00:00:00 | |
| DL1NUX | 2026-09-04 07:31:43 | 52.67772 | 8.83155 | 96° | 115km/h | 14342m | 4.4m/s | -58.8°C | 8.4% | 141hPa | 2.7V | 08:30:00 | 00:58:46 | 00:00:00 | |
| DO2JMG | 2026-09-04 07:31:43 | 52.67754 | 8.83394 | 98° | 115km/h | 14368m | 5.1m/s | -58.6°C | 5.9% | 140.4hPa | 2.7V | 18:12:15 | 00:58:51 | 00:00:00 | |
| AA1-15 | 2026-09-04 07:31:42 | 52.67762 | 8.83298 | 97° | 117km/h | 14358m | 5.8m/s | -58.7°C | 6% | 140.6hPa | 2.8V | 18:12:15 | 00:58:49 | 00:00:00 | |
| DO2SHX-10 | 2026-09-04 07:31:41 | 52.67762 | 8.83298 | 97° | 117km/h | 14358m | 5.7m/s | -58.6°C | 8.4% | 140.6hPa | 2.8V | 00:00:00 | 00:58:49 | 00:00:00 | |
| DL1XH-15 | 2026-09-04 07:31:40 | 52.67781 | 8.83012 | 96° | 113km/h | 14327m | 5.7m/s | -58.7°C | 8.5% | 141.3hPa | 2.8V | 08:30:00 | 00:58:43 | 00:00:00 | |
| DL1XH1-15 | 2026-09-04 07:31:39 | 52.67785 | 8.82966 | 97° | 113km/h | 14323m | 4m/s | -58.6°C | 8.5% | 141.4hPa | 2.8V | 08:30:00 | 00:58:42 | 00:00:00 | |
| DL1XH-west | 2026-09-04 07:31:38 | 52.67772 | 8.83155 | 96° | 115km/h | 14342m | 4.4m/s | -58.8°C | 6% | 141hPa | 2.7V | 18:12:15 | 00:58:46 | 00:00:00 | |
| DF8AY | 2026-09-04 07:31:36 | 52.67778 | 8.83060 | 96° | 115km/h | 14332m | 4m/s | -58.7°C | 6% | 141.2hPa | 2.8V | 18:12:15 | 00:58:44 | 00:00:00 | |
| DO2JMG | 2026-09-04 07:31:33 | 52.67788 | 8.82919 | 97° | 113km/h | 14318m | 5.1m/s | -58.7°C | 6.1% | 141.5hPa | 2.7V | 18:12:15 | 00:58:41 | 00:00:00 | |
| BIOWL1-15 | 2026-09-04 07:31:31 | 52.67795 | 8.82825 | 96° | 113km/h | 14308m | 4.6m/s | -58.7°C | 6.1% | 141.7hPa | 2.7V | 18:12:15 | 00:58:39 | 00:00:00 | |
| HSKMA3-T | 2026-09-04 07:31:30 | 52.67798 | 8.82778 | 97° | 113km/h | 14303m | 6m/s | -58.7°C | 6.3% | 141.8hPa | 2.8V | 18:12:15 | 00:58:38 | 00:00:00 | |
| DN9WHV | 2026-09-04 07:31:30 | 52.67798 | 8.82778 | 98° | 113km/h | 14303m | 6.0m/s | -58.7°C | 4.8% | 141.8hPa | 2.8V | 00:00:00 | 00:00:00 | 00:00:00 | |
| DL1XH1-15 | 2026-09-04 07:31:29 | 52.67818 | 8.82497 | 96° | 115km/h | 14273m | 6.1m/s | -59°C | 9.3% | 142.5hPa | 2.8V | 08:30:00 | 00:58:32 | 00:00:00 | |
| DL1XH-west | 2026-09-04 07:31:28 | 52.67804 | 8.82686 | 96° | 113km/h | 14293m | 5.9m/s | -58.8°C | 6.6% | 142.1hPa | 2.8V | 18:12:15 | 00:58:36 | 00:00:00 | |
| GOEST3-10 | 2026-09-04 07:31:27 | 52.67807 | 8.82638 | 96° | 115km/h | 14288m | 4.7m/s | -58.7°C | 8.9% | 142.2hPa | 2.7V | 00:00:00 | 00:00:00 | 00:00:00 | |
| DL3OBA | 2026-09-04 07:31:26 | 52.67807 | 8.82638 | 97° | 115km/h | 14288m | 4.7m/s | -58.8°C | 5.0% | 142.2hPa | 2.7V | 00:00:00 | 00:00:00 | 00:00:00 | |
| DB0DAN | 2026-09-04 07:31:25 | 52.67814 | 8.82544 | 97° | 108km/h | 14278m | 4.1m/s | -59°C | 5.1% | 142.4hPa | 2.7V | 00:00:00 | 00:00:00 | 00:00:00 | |
| DF8AY | 2026-09-04 07:31:25 | 52.67814 | 8.82544 | 97° | 113km/h | 14278m | 4.1m/s | -59°C | 6.7% | 142.4hPa | 2.7V | 18:12:15 | 00:58:33 | 00:00:00 | |
| DD8BA-10 | 2026-09-04 07:31:25 | 52.67814 | 8.82544 | 98° | 111km/h | 14278m | 4.1m/s | -58.9°C | 9.1% | 142.4hPa | 2.7V | 00:00:00 | 00:00:00 | 00:00:00 | |
| DJ2DS-15 | 2026-09-04 07:31:24 | 52.67818 | 8.82497 | 97° | 111km/h | 14273m | 6.0m/s | -59.0°C | 9.3% | 142.5hPa | 2.7V | 00:00:00 | 00:58:32 | 00:00:00 | |
| DL1NUX | 2026-09-04 07:31:23 | 52.67831 | 8.82218 | 92° | 110km/h | 14242m | 5.1m/s | -59.1°C | 9.7% | 143.2hPa | 2.8V | 08:30:00 | 00:58:26 | 00:00:00 | |
| DO2JMG | 2026-09-04 07:31:23 | 52.67821 | 8.82449 | 95° | 115km/h | 14267m | 4.4m/s | -59.1°C | 6.9% | 142.7hPa | 2.8V | 18:12:15 | 00:58:31 | 00:00:00 | |
| AA1-15 | 2026-09-04 07:31:21 | 52.67826 | 8.82355 | 95° | 111km/h | 14257m | 4.6m/s | -59.1°C | 7.1% | 142.9hPa | 2.7V | 18:12:15 | 00:58:29 | 00:00:00 | |
| HSKMA3-T | 2026-09-04 07:31:20 | 52.67828 | 8.82309 | 94° | 111km/h | 14252m | 5.7m/s | -59.2°C | 7.1% | 143hPa | 2.7V | 18:12:15 | 00:58:28 | 00:00:00 | |
| DB0UT-7 | 2026-09-04 07:31:20 | 52.67828 | 8.82309 | 94° | 108km/h | 14252m | 5.6m/s | -59.1°C | 9.5% | 143.0hPa | 2.7V | 00:00:00 | 00:00:00 | 08:30:00 | |
| DL1XH1-15 | 2026-09-04 07:31:19 | 52.67838 | 8.82036 | 95° | 111km/h | 14223m | 4m/s | -59°C | 9.6% | 143.7hPa | 2.7V | 08:30:00 | 00:58:22 | 00:00:00 | |
| DF5WG-10 | 2026-09-04 07:31:19 | 52.67829 | 8.82263 | 93° | 111km/h | 14247m | 4.4m/s | -59.1°C | 9.6% | 143.1hPa | 2.7V | 00:00:00 | 00:58:27 | 00:00:00 | |
| DO2SHX-10 | 2026-09-04 07:31:18 | 52.67830 | 8.82218 | 93° | 110km/h | 14242m | 5.1m/s | -59.0°C | 9.7% | 143.2hPa | 2.7V | 00:00:00 | 00:58:26 | 00:00:00 | |
| GOEST3-10 | 2026-09-04 07:31:17 | 52.67832 | 8.82173 | 94° | 110km/h | 14237m | 4.9m/s | -59.0°C | 9.6% | 143.3hPa | 2.7V | 00:00:00 | 00:00:00 | 00:00:00 | |
| DL1XH-west | 2026-09-04 07:31:17 | 52.67832 | 8.82173 | 94° | 108km/h | 14237m | 5m/s | -59.1°C | 7.3% | 143.4hPa | 2.8V | 18:12:15 | 00:58:25 | 00:00:00 | |
| SO1NDE-10 | 2026-09-04 07:31:15 | 52.67836 | 8.82082 | 95° | 106km/h | 14227m | 4.8m/s | -59.0°C | 9.7% | 143.6hPa | 2.7V | 00:00:00 | 00:58:23 | 08:30:00 | |
| DM0DOS-11 | 2026-09-04 07:31:14 | 52.67851 | 8.81851 | 96° | 113km/h | 14202m | 4.4m/s | -59.1°C | 9.8% | 144.1hPa | 2.8V | 08:30:00 | 00:58:18 | 00:00:00 | |
| DF8AY | 2026-09-04 07:31:14 | 52.67838 | 8.82036 | 95° | 111km/h | 14223m | 4m/s | -59°C | 7.4% | 143.7hPa | 2.7V | 18:12:15 | 00:58:22 | 00:00:00 | |
| DL1ZP-14 | 2026-09-04 07:31:14 | 52.67841 | 8.81990 | 96° | 110km/h | 14218m | 5.6m/s | -59.0°C | 5.6% | 143.8hPa | 2.7V | 00:00:00 | 00:00:00 | 00:00:00 | |
| DL1NUX | 2026-09-04 07:31:13 | 52.67857 | 8.81758 | 95° | 111km/h | 14192m | 4.5m/s | -59.2°C | 9.9% | 144.4hPa | 2.7V | 08:30:00 | 00:58:16 | 00:00:00 | |
| BIOWL1-15 | 2026-09-04 07:31:12 | 52.67851 | 8.81851 | 96° | 113km/h | 14202m | 4.4m/s | -59.1°C | 7.7% | 144.2hPa | 2.8V | 18:12:15 | 00:58:18 | 00:00:00 | |
| DO2JMG | 2026-09-04 07:31:12 | 52.67844 | 8.81944 | 97° | 111km/h | 14213m | 5.2m/s | -59°C | 7.5% | 143.9hPa | 2.8V | 18:12:15 | 00:58:20 | 00:00:00 | |
| AA1-15 | 2026-09-04 07:31:11 | 52.67848 | 8.81897 | 96° | 113km/h | 14207m | 5.4m/s | -59.1°C | 7.7% | 144hPa | 2.8V | 18:12:15 | 00:58:19 | 00:00:00 | |
| HSKMA3-T | 2026-09-04 07:31:09 | 52.67854 | 8.81804 | 97° | 111km/h | 14197m | 5.8m/s | -59.1°C | 7.7% | 144.2hPa | 2.7V | 18:12:15 | 00:58:17 | 00:00:00 | |
| DL1XH-west | 2026-09-04 07:31:07 | 52.67859 | 8.81712 | 95° | 111km/h | 14187m | 5.9m/s | -59.2°C | 7.9% | 144.5hPa | 2.7V | 18:12:15 | 00:58:15 | 00:00:00 | |
| DJ2KF-10 | 2026-09-04 07:31:07 | 52.67859 | 8.81712 | 95° | 104km/h | 14188m | 5.8m/s | -59.2°C | 9.9% | 144.5hPa | 2.7V | 00:00:00 | 00:58:15 | 00:00:00 | |
| DO3DL | 2026-09-04 07:31:06 | 52.67859 | 8.81712 | 95° | 111km/h | 14188m | 5.9m/s | -59.2°C | 5.8% | 144.5hPa | 2.8V | 00:00:00 | 00:00:00 | 00:00:00 | |
| DD8BA-10 | 2026-09-04 07:31:05 | 52.67863 | 8.81621 | 94° | 104km/h | 14177m | 5.5m/s | -59.2°C | 9.9% | 144.7hPa | 2.8V | 00:00:00 | 00:00:00 | 00:00:00 | |
| DM0DOS-11 | 2026-09-04 07:31:04 | 52.67870 | 8.81404 | 94° | 100km/h | 14152m | 5.8m/s | -59.7°C | 10.1% | 145.3hPa | 2.8V | 08:30:00 | 00:58:08 | 00:00:00 | |
| DF8AY | 2026-09-04 07:31:04 | 52.67864 | 8.81576 | 94° | 108km/h | 14172m | 4.8m/s | -59.3°C | 8% | 144.8hPa | 2.8V | 18:12:15 | 00:58:12 | 00:00:00 | |
| AA1-15 | 2026-09-04 07:31:01 | 52.67869 | 8.81447 | 93° | 102km/h | 14157m | 4.7m/s | -59.5°C | 8% | 145.2hPa | 2.7V | 18:12:15 | 00:58:09 | 00:00:00 | |
| HSKMA3-T | 2026-09-04 07:30:59 | 52.67873 | 8.81363 | 96° | 102km/h | 14147m | 4.9m/s | -59.6°C | 8.2% | 145.5hPa | 2.8V | 18:12:15 | 00:58:07 | 00:00:00 | |
| DL1XH-west | 2026-09-04 07:30:57 | 52.67881 | 8.81233 | 97° | 108km/h | 14132m | 3.9m/s | -59.7°C | 8.4% | 145.8hPa | 2.7V | 18:12:15 | 00:58:04 | 00:00:00 | |
| DL1XH-15 | 2026-09-04 07:30:56 | 52.67902 | 8.81014 | 100° | 104km/h | 14107m | 5m/s | -59.9°C | 11.5% | 146.3hPa | 2.7V | 08:30:00 | 00:57:59 | 00:00:00 | |
| DL3AQ-11 | 2026-09-04 07:30:56 | 52.67884 | 8.81189 | 98° | 108km/h | 14127m | 6.7m/s | -59.7°C | 6.5% | 145.9hPa | 2.7V | 00:00:00 | 00:00:00 | 00:00:00 | |
| DB0DAN | 2026-09-04 07:30:55 | 52.67884 | 8.81189 | 98° | 102km/h | 14127m | 6.7m/s | -59.7°C | 6.5% | 145.87hPa | 2.7V | 00:00:00 | 00:00:00 | 00:00:00 | |
| DD1CC8 | 2026-09-04 07:30:55 | 52.67889 | 8.81144 | 99° | 108km/h | 14121m | 4.5m/s | -59.7°C | 6.7% | 146.0hPa | 2.8V | 00:00:00 | 00:00:00 | 00:00:00 | |
| DO3DL | 2026-09-04 07:30:54 | 52.67893 | 8.81100 | 100° | 108km/h | 14117m | 5.4m/s | -59.7°C | 6.8% | 146.2hPa | 2.8V | 00:00:00 | 00:00:00 | 00:00:00 | |
| DL1NUX | 2026-09-04 07:30:53 | 52.67916 | 8.80888 | 99° | 102km/h | 14092m | 5.5m/s | -59.9°C | 11.5% | 146.7hPa | 2.8V | 08:30:00 | 00:57:56 | 00:00:00 | |
| DF8AY | 2026-09-04 07:30:53 | 52.67893 | 8.81100 | 99° | 108km/h | 14117m | 5.4m/s | -59.7°C | 8.9% | 146.2hPa | 2.8V | 18:12:15 | 00:58:01 | 00:00:00 | |
| DO2JMG | 2026-09-04 07:30:51 | 52.67902 | 8.81014 | 101° | 104km/h | 14107m | 5m/s | -59.9°C | 9.1% | 146.3hPa | 2.7V | 18:12:15 | 00:57:59 | 00:00:00 | |
| BIOWL1-15 | 2026-09-04 07:30:51 | 52.67912 | 8.80930 | 101° | 102km/h | 14098m | 4.5m/s | -60°C | 9.1% | 146.6hPa | 2.7V | 18:12:15 | 00:57:57 | 00:00:00 | |
| AA1-15 | 2026-09-04 07:30:50 | 52.67907 | 8.80972 | 101° | 102km/h | 14102m | 4.5m/s | -60°C | 9% | 146.5hPa | 2.7V | 18:12:15 | 00:57:58 | 00:00:00 | |
| HSKMA3-T | 2026-09-04 07:30:48 | 52.67916 | 8.80888 | 100° | 102km/h | 14093m | 5.5m/s | -59.9°C | 9.1% | 146.7hPa | 2.8V | 18:12:15 | 00:57:56 | 00:00:00 | |
| D01LWL | 2026-09-04 07:30:48 | 52.67920 | 8.80846 | 99° | 102km/h | 14088m | 3.1m/s | -59.9°C | 6.9% | 146.8hPa | 2.8V | 00:00:00 | 00:00:00 | 00:00:00 | |
| DO2SHX-10 | 2026-09-04 07:30:47 | 52.67920 | 8.80846 | 100° | 100km/h | 14088m | 3.1m/s | 0°C | 0% | 0hPa | 2.8V | 00:00:00 | 00:57:55 | 00:00:00 | |
| DL1XH-15 | 2026-09-04 07:30:46 | 52.67947 | 8.80602 | 100° | 97km/h | 14062m | 4.9m/s | -60°C | 11.3% | 147.4hPa | 2.8V | 08:30:00 | 00:57:49 | 00:00:00 | |
| DL1XH-west | 2026-09-04 07:30:45 | 52.67929 | 8.80763 | 101° | 100km/h | 14079m | 4.9m/s | -60.1°C | 9.2% | 147hPa | 2.7V | 18:12:15 | 00:57:53 | 00:00:00 | |
| DD8BA-10 | 2026-09-04 07:30:45 | 52.67929 | 8.80763 | 102° | 100km/h | 14079m | 4.8m/s | -60.0°C | 11.4% | 147.0hPa | 2.8V | 00:00:00 | 00:00:00 | 00:00:00 | |
| DM0DOS-11 | 2026-09-04 07:30:44 | 52.67952 | 8.80562 | 101° | 99km/h | 14057m | 4.7m/s | -59.9°C | 11.4% | 147.5hPa | 2.8V | 08:30:00 | 00:57:48 | 00:00:00 | |
| DO2SHX-10 | 2026-09-04 07:30:44 | 52.67934 | 8.80723 | 102° | 99km/h | 14075m | 3.6m/s | 0°C | 0% | 0hPa | 2.7V | 00:00:00 | 00:57:52 | 00:00:00 | |
| DL1NUX | 2026-09-04 07:30:43 | 52.67962 | 8.80481 | 101° | 102km/h | 14047m | 5.3m/s | -59.9°C | 12% | 147.8hPa | 2.7V | 08:30:00 | 00:57:46 | 00:00:00 | |
| DF8AY | 2026-09-04 07:30:42 | 52.67943 | 8.80642 | 99° | 97km/h | 14066m | 3.7m/s | -60°C | 9.3% | 147.3hPa | 2.8V | 18:12:15 | 00:57:50 | 00:00:00 | |
| DO2JMG | 2026-09-04 07:30:41 | 52.67947 | 8.80602 | 100° | 97km/h | 14062m | 4.9m/s | -60°C | 9.4% | 147.4hPa | 2.8V | 18:12:15 | 00:57:49 | 00:00:00 | |
| BIOWL1-15 | 2026-09-04 07:30:40 | 52.67962 | 8.80481 | 101° | 102km/h | 14048m | 5.4m/s | -59.9°C | 9.9% | 147.8hPa | 2.7V | 18:12:15 | 00:57:46 | 00:00:00 | |
| AA1-15 | 2026-09-04 07:30:39 | 52.67957 | 8.80522 | 102° | 100km/h | 14052m | 4.6m/s | -59.9°C | 9.5% | 147.6hPa | 2.7V | 18:12:15 | 00:57:47 | 00:00:00 | |
| HSKMA3-T | 2026-09-04 07:30:37 | 52.67967 | 8.80438 | 103° | 104km/h | 14043m | 3.2m/s | -59.8°C | 9.9% | 147.9hPa | 2.7V | 18:12:15 | 00:57:45 | 00:00:00 | |
| GOEST3-10 | 2026-09-04 07:30:37 | 52.67967 | 8.80438 | 103° | 104km/h | 14043m | 3.2m/s | -59.7°C | 12.1% | 147.8hPa | 2.7V | 00:00:00 | 00:00:00 | 00:00:00 | |
| DD1CC3-15 | 2026-09-04 07:30:36 | 52.67967 | 8.80438 | 104° | 104km/h | 14043m | 3.2m/s | -59.8°C | 7.6% | 147.9hPa | 2.8V | 00:00:00 | 00:00:00 | 00:00:00 | |
| DD8BA-10 | 2026-09-04 07:30:35 | 52.67980 | 8.80354 | 105° | 106km/h | 14035m | 3.6m/s | -59.7°C | 12.3% | 148.0hPa | 2.8V | 00:00:00 | 00:00:00 | 00:00:00 | |
| DM0DOS-11 | 2026-09-04 07:30:34 | 52.68012 | 8.80142 | 104° | 106km/h | 14012m | 4.6m/s | -59.7°C | 12.5% | 148.6hPa | 2.8V | 08:30:00 | 00:57:38 | 00:00:00 | |
| DL1XH-west | 2026-09-04 07:30:34 | 52.67986 | 8.80312 | 104° | 104km/h | 14030m | 4.8m/s | -59.8°C | 10.1% | 148.2hPa | 2.8V | 18:12:15 | 00:57:42 | 00:00:00 | |
| DJ2KF-10 | 2026-09-04 07:30:34 | 52.67986 | 8.80312 | 104° | 110km/h | 14031m | 4.8m/s | -59.7°C | 12.2% | 148.2hPa | 2.7V | 00:00:00 | 00:57:42 | 00:00:00 | |
| DL1NUX | 2026-09-04 07:30:33 | 52.68025 | 8.80056 | 103° | 108km/h | 14002m | 4.5m/s | -59.7°C | 12.6% | 148.9hPa | 2.7V | 08:30:00 | 00:57:36 | 00:00:00 | |
| DF8AY | 2026-09-04 07:30:31 | 52.68005 | 8.80185 | 105° | 106km/h | 14017m | 5.3m/s | -59.7°C | 10.4% | 148.5hPa | 2.8V | 18:12:15 | 00:57:39 | 00:00:00 | |
| DO2JMG | 2026-09-04 07:30:30 | 52.68012 | 8.80142 | 105° | 106km/h | 14012m | 4.6m/s | -59.7°C | 10.5% | 148.6hPa | 2.8V | 18:12:15 | 00:57:38 | 00:00:00 | |
| AA1-15 | 2026-09-04 07:30:28 | 52.68025 | 8.80056 | 103° | 108km/h | 14002m | 4.5m/s | -59.7°C | 10.7% | 148.9hPa | 2.7V | 18:12:15 | 00:57:36 | 00:00:00 | |
| BIOWL1-15 | 2026-09-04 07:30:27 | 52.68031 | 8.80012 | 104° | 108km/h | 13996m | 6m/s | -59.8°C | 10.8% | 149hPa | 2.8V | 18:12:15 | 00:57:35 | 00:00:00 | |
| HSKMA3-T | 2026-09-04 07:30:26 | 52.68038 | 8.79969 | 104° | 106km/h | 13992m | 3.8m/s | -59.9°C | 10.8% | 149.1hPa | 2.8V | 18:12:15 | 00:57:34 | 00:00:00 | |
| DB0DAN | 2026-09-04 07:30:25 | 52.68044 | 8.79926 | 103° | 100km/h | 13987m | 5.6m/s | -59.8°C | 8% | 149.13hPa | 2.7V | 00:00:00 | 00:00:00 | 00:00:00 | |
| DL1XH-west | 2026-09-04 07:30:23 | 52.68056 | 8.79844 | 105° | 100km/h | 13978m | 4.7m/s | -59.8°C | 11.1% | 149.4hPa | 2.8V | 18:12:15 | 00:57:31 | 00:00:00 | |
| DF8AY | 2026-09-04 07:30:21 | 52.68070 | 8.79764 | 108° | 100km/h | 13970m | 3.8m/s | -59.8°C | 11.4% | 149.6hPa | 2.7V | 18:12:15 | 00:57:29 | 00:00:00 | |
| DO2JMG | 2026-09-04 07:30:20 | 52.68078 | 8.79724 | 107° | 102km/h | 13965m | 5.4m/s | -59.7°C | 11.6% | 149.7hPa | 2.7V | 18:12:15 | 00:57:28 | 00:00:00 | |
| DO2SHX-10 | 2026-09-04 07:30:20 | 52.68078 | 8.79724 | 108° | 106km/h | 13965m | 5.3m/s | 0°C | 0% | 0hPa | 2.7V | 00:00:00 | 00:57:28 | 00:00:00 | |
| DL1XH1-15 | 2026-09-04 07:30:19 | 52.68125 | 8.79463 | 106° | 113km/h | 13934m | 3.7m/s | -59.6°C | 13.9% | 150.5hPa | 2.7V | 08:30:00 | 00:57:22 | 00:00:00 | |
| AA1-15 | 2026-09-04 07:30:18 | 52.68093 | 8.79640 | 106° | 108km/h | 13955m | 4.4m/s | -59.7°C | 11.7% | 149.9hPa | 2.8V | 18:12:15 | 00:57:26 | 00:00:00 | |
| BIOWL1-15 | 2026-09-04 07:30:16 | 52.68109 | 8.79552 | 107° | 111km/h | 13945m | 4.6m/s | -59.6°C | 12.1% | 150.2hPa | 2.7V | 18:12:15 | 00:57:24 | 00:00:00 | |
| HSKMA3-T | 2026-09-04 07:30:16 | 52.68117 | 8.79508 | 106° | 113km/h | 13939m | 6.2m/s | -59.6°C | 12.3% | 150.3hPa | 2.7V | 18:12:15 | 00:57:23 | 00:00:00 | |
| DL1XH-west | 2026-09-04 07:30:13 | 52.68133 | 8.79418 | 108° | 113km/h | 13930m | 5.5m/s | -59.7°C | 12.6% | 150.5hPa | 2.8V | 18:12:15 | 00:57:21 | 00:00:00 | |
| DF8AY | 2026-09-04 07:30:10 | 52.68160 | 8.79284 | 109° | 113km/h | 13914m | 5.1m/s | -59.7°C | 13.1% | 150.9hPa | 2.7V | 18:12:15 | 00:57:18 | 00:00:00 | |
| DO2JMG | 2026-09-04 07:30:09 | 52.68169 | 8.79240 | 109° | 111km/h | 13910m | 3.6m/s | -59.7°C | 13.3% | 151hPa | 2.7V | 18:12:15 | 00:57:17 | 00:00:00 | |
| AA1-15 | 2026-09-04 07:30:08 | 52.68179 | 8.79196 | 111° | 111km/h | 13905m | 7.5m/s | -59.6°C | 13.5% | 151.1hPa | 2.7V | 18:12:15 | 00:57:16 | 00:00:00 | |
| BIOWL1-15 | 2026-09-04 07:30:07 | 52.68209 | 8.79064 | 108° | 117km/h | 13888m | 4.5m/s | -59.6°C | 14.1% | 151.6hPa | 2.8V | 18:12:15 | 00:57:13 | 00:00:00 | |
| GOEST3-10 | 2026-09-04 07:30:07 | 52.68189 | 8.79153 | 112° | 117km/h | 13899m | 4.4m/s | -59.5°C | 14.9% | 151.3hPa | 2.7V | 00:00:00 | 00:00:00 | 00:00:00 | |
| DL1XH-15 | 2026-09-04 07:30:06 | 52.68247 | 8.78874 | 110° | 126km/h | 13866m | 5.7m/s | -59.5°C | 16.7% | 152.1hPa | 2.8V | 08:30:00 | 00:57:09 | 00:00:00 | |
| HSKMA3-T | 2026-09-04 07:30:04 | 52.68218 | 8.79017 | 107° | 119km/h | 13884m | 4.3m/s | -59.6°C | 14.3% | 151.7hPa | 2.7V | 18:12:15 | 00:57:12 | 00:00:00 | |
| DL1XH-west | 2026-09-04 07:30:02 | 52.68236 | 8.78922 | 109° | 122km/h | 13872m | 7.3m/s | -59.5°C | 15% | 151.9hPa | 2.7V | 18:12:15 | 00:57:10 | 00:00:00 | |
| DO2JMG | 2026-09-04 07:29:59 | 52.68270 | 8.78774 | 111° | 130km/h | 13854m | 7.1m/s | -59.7°C | 16.2% | 152.4hPa | 2.8V | 18:12:15 | 00:57:07 | 00:00:00 | |
| AA1-15 | 2026-09-04 07:29:57 | 52.68292 | 8.78676 | 111° | 122km/h | 13844m | 5.8m/s | -59.5°C | 17% | 152.6hPa | 2.7V | 18:12:15 | 00:57:05 | 00:00:00 | |
| BIOWL1-15 | 2026-09-04 07:29:57 | 52.68315 | 8.78584 | 113° | 117km/h | 13831m | 5.1m/s | -59.5°C | 18% | 152.9hPa | 2.8V | 18:12:15 | 00:57:03 | 00:00:00 | |
| GOEST3-10 | 2026-09-04 07:29:57 | 52.68292 | 8.78676 | 111° | 120km/h | 13844m | 5.7m/s | -59.5°C | 18.1% | 152.6hPa | 2.8V | 00:00:00 | 00:00:00 | 00:00:00 | |
| DL1XH-15 | 2026-09-04 07:29:56 | 52.68359 | 8.78393 | 110° | 128km/h | 13808m | 7.6m/s | -59.7°C | 19.3% | 153.5hPa | 2.8V | 08:30:00 | 00:56:59 | 00:00:00 | |
| HSKMA3-T | 2026-09-04 07:29:54 | 52.68326 | 8.78539 | 112° | 119km/h | 13825m | 5.4m/s | -59.5°C | 18.6% | 153.1hPa | 2.7V | 18:12:15 | 00:57:02 | 00:00:00 | |
| DL1XH-west | 2026-09-04 07:29:51 | 52.68360 | 8.78393 | 111° | 128km/h | 13808m | 7.6m/s | -59.7°C | 19.6% | 153.5hPa | 2.8V | 18:12:15 | 00:56:59 | 00:00:00 | |
| DF8AY | 2026-09-04 07:29:49 | 52.68384 | 8.78296 | 115° | 122km/h | 13790m | 8m/s | -60.5°C | 20.6% | 153.9hPa | 2.7V | 18:12:15 | 00:56:57 | 00:00:00 | |
| DO2JMG | 2026-09-04 07:29:48 | 52.68397 | 8.78251 | 115° | 119km/h | 13783m | 4.7m/s | -60.4°C | 21% | 154.1hPa | 2.8V | 18:12:15 | 00:56:56 | 00:00:00 | |
| AA1-15 | 2026-09-04 07:29:46 | 52.68419 | 8.78160 | 108° | 119km/h | 13772m | 4.7m/s | -60.4°C | 21.8% | 154.4hPa | 2.8V | 18:12:15 | 00:56:54 | 00:00:00 | |
| AP2371 | 2026-09-04 07:29:46 | 52.68419 | 8.78160 | 109° | 119km/h | 13772m | 4.7m/s | -60.4°C | 0% | 0hPa | 2.8V | 00:00:00 | 00:00:00 | 00:00:00 | |
| DD8BA-10 | 2026-09-04 07:29:45 | 52.68427 | 8.78114 | 106° | 130km/h | 13766m | 7.3m/s | -60.3°C | 20.9% | 154.4hPa | 2.8V | 00:00:00 | 00:00:00 | 00:00:00 | |
| DM0DOS-11 | 2026-09-04 07:29:44 | 52.68476 | 8.77894 | 114° | 128km/h | 13725m | 5m/s | -60.2°C | 23.7% | 155.5hPa | 2.8V | 08:30:00 | 00:56:48 | 00:00:00 | |
| BIOWL1-15 | 2026-09-04 07:29:44 | 52.68435 | 8.78068 | 106° | 110km/h | 13757m | 10.5m/s | -60.3°C | 22.6% | 154.6hPa | 2.7V | 18:12:15 | 00:56:52 | 00:00:00 | |
| HSKMA3-T | 2026-09-04 07:29:43 | 52.68443 | 8.78025 | 108° | 108km/h | 13747m | 10.4m/s | -60.3°C | 23% | 154.9hPa | 2.7V | 18:12:15 | 00:56:51 | 00:00:00 | |
| DL1XH-west | 2026-09-04 07:29:41 | 52.68463 | 8.77940 | 114° | 117km/h | 13730m | 5.9m/s | -60.2°C | 24.4% | 155.4hPa | 2.8V | 18:12:15 | 00:56:49 | 00:00:00 | |
| DB0DAN | 2026-09-04 07:29:40 | 52.68476 | 8.77894 | 114° | 120km/h | 13725m | 5m/s | -60.2°C | 17.7% | 155.54hPa | 2.8V | 00:00:00 | 00:00:00 | 00:00:00 | |
| DL1XH1-15 | 2026-09-04 07:29:39 | 52.68550 | 8.77525 | 106° | 172km/h | 13675m | 8.3m/s | -60.1°C | 27.5% | 156.8hPa | 2.8V | 08:30:00 | 00:56:42 | 00:00:00 | |
| DF8AY | 2026-09-04 07:29:39 | 52.68489 | 8.77843 | 113° | 137km/h | 13719m | 7m/s | -60.2°C | 25.8% | 155.7hPa | 2.7V | 18:12:15 | 00:56:47 | 00:00:00 | |
| DO2JMG | 2026-09-04 07:29:38 | 52.68502 | 8.77788 | 111° | 148km/h | 13711m | 9.2m/s | -60.2°C | 26.5% | 155.9hPa | 2.7V | 18:12:15 | 00:56:46 | 00:00:00 | |
| BIOWL1-15 | 2026-09-04 07:29:36 | 52.68550 | 8.77525 | 106° | 172km/h | 13675m | 8.3m/s | -60.1°C | 29.6% | 156.8hPa | 2.8V | 18:12:15 | 00:56:42 | 00:00:00 | |
| AA1-15 | 2026-09-04 07:29:36 | 52.68527 | 8.77663 | 106° | 168km/h | 13693m | 8.5m/s | -60.2°C | 28.1% | 156.3hPa | 2.8V | 18:12:15 | 00:56:44 | 00:00:00 | |
| DF8AY | 2026-09-04 07:29:33 | 52.68635 | 8.77151 | 111° | 142km/h | 13638m | 5.9m/s | -60.7°C | 34.1% | 157.8hPa | 2.7V | 18:12:15 | 00:56:36 | 00:00:00 | |
| HSKMA3-T | 2026-09-04 07:29:33 | 52.68563 | 8.77457 | 108° | 170km/h | 13668m | 6.1m/s | -60.1°C | 30.3% | 157hPa | 2.7V | 18:12:15 | 00:56:41 | 00:00:00 | |
| DL4XJ-10 | 2026-09-04 07:29:32 | 52.68577 | 8.77391 | 110° | 153km/h | 13662m | 6.8m/s | -60.8°C | 0% | 0hPa | 2.8V | 00:00:00 | 00:00:00 | 00:00:00 | |
| DL1XH-15 | 2026-09-04 07:29:31 | 52.68657 | 8.77043 | 105° | 135km/h | 13625m | 6.3m/s | -61°C | 30.6% | 158hPa | 2.8V | 08:30:00 | 00:56:34 | 00:00:00 | |
| DL1XH-west | 2026-09-04 07:29:31 | 52.68591 | 8.77327 | 111° | 162km/h | 13655m | 5.8m/s | -60.3°C | 31.8% | 157.3hPa | 2.8V | 18:12:15 | 00:56:39 | 00:00:00 | |
| DL1XH1-15 | 2026-09-04 07:29:29 | 52.68672 | 8.76930 | 100° | 146km/h | 13611m | 8.5m/s | -61.3°C | 32.6% | 158.4hPa | 2.7V | 08:30:00 | 00:56:32 | 00:00:00 | |
| DO2JMG | 2026-09-04 07:29:27 | 52.68647 | 8.77097 | 109° | 135km/h | 13632m | 6.1m/s | -60.8°C | 35% | 157.8hPa | 2.8V | 18:12:15 | 00:56:35 | 00:00:00 | |
| DF5WG-10 | 2026-09-04 07:29:27 | 52.68647 | 8.77097 | 109° | 150km/h | 13632m | 6.1m/s | -60.8°C | 29.9% | 157.8hPa | 2.8V | 00:00:00 | 00:56:35 | 00:00:00 | |
| DL1CLM-18 | 2026-09-04 07:29:26 | 52.68647 | 8.77097 | 110° | 135km/h | 13632m | 6.1m/s | -60.8°C | 23.4% | 157.8hPa | 2.8V | 00:00:00 | 00:00:00 | 00:00:00 | |
| DB0DAN | 2026-09-04 07:29:25 | 52.68665 | 8.76988 | 103° | 131km/h | 13618m | 7.5m/s | -61.2°C | 24.9% | 158.19hPa | 2.8V | 00:00:00 | 00:00:00 | 00:00:00 | |
| AA1-15 | 2026-09-04 07:29:25 | 52.68665 | 8.76988 | 103° | 139km/h | 13619m | 7.5m/s | -61.2°C | 36.8% | 158.2hPa | 2.8V | 18:12:15 | 00:56:33 | 00:00:00 | |
| DD8BA-10 | 2026-09-04 07:29:25 | 52.68665 | 8.76988 | 103° | 155km/h | 13619m | 7.4m/s | -61.1°C | 31.7% | 158.1hPa | 2.7V | 00:00:00 | 00:00:00 | 00:00:00 | |
| DM0DOS-11 | 2026-09-04 07:29:24 | 52.68699 | 8.76675 | 98° | 157km/h | 13575m | 8.3m/s | -62.6°C | 39.3% | 159.3hPa | 2.8V | 08:30:00 | 00:56:28 | 00:00:00 | |
| BIOWL1-15 | 2026-09-04 07:29:23 | 52.68679 | 8.76869 | 100° | 153km/h | 13602m | 8.4m/s | -61.5°C | 38.4% | 158.6hPa | 2.7V | 18:12:15 | 00:56:31 | 00:00:00 | |
| WEDDY | 2026-09-04 07:29:23 | 52.68679 | 8.76869 | 101° | 153km/h | 13602m | 8.4m/s | 0°C | 0% | 0hPa | 2.7V | 00:00:00 | 00:00:00 | 00:00:00 | |
| DO2LYB-13 | 2026-09-04 07:29:22 | 52.68679 | 8.76869 | 101° | 153km/h | 13602m | 8.4m/s | -61.5°C | 26.2% | 158.6hPa | 2.7V | 00:00:00 | 00:00:00 | 00:00:00 | |
| DL1XH-15 | 2026-09-04 07:29:21 | 52.68719 | 8.76414 | 95° | 161km/h | 13555m | 4.3m/s | -63.4°C | 45.3% | 159.9hPa | 2.7V | 08:30:00 | 00:56:24 | 00:00:00 | |
| DL1XH-west | 2026-09-04 07:29:21 | 52.68699 | 8.76675 | 99° | 157km/h | 13575m | 8.3m/s | -62.7°C | 41.3% | 159.3hPa | 2.8V | 18:12:15 | 00:56:28 | 00:00:00 | |
| SO1NDE-10 | 2026-09-04 07:29:20 | 52.68699 | 8.76675 | 99° | 153km/h | 13576m | 8.3m/s | -62.6°C | 39.3% | 159.3hPa | 2.7V | 00:00:00 | 00:56:28 | 00:00:00 | |
| DL1XH1-15 | 2026-09-04 07:29:19 | 52.68726 | 8.76282 | 93° | 159km/h | 13545m | 4.6m/s | -63.8°C | 48.3% | 160.1hPa | 2.8V | 08:30:00 | 00:56:22 | 00:00:00 | |
| DF8AY | 2026-09-04 07:29:17 | 52.68715 | 8.76480 | 97° | 161km/h | 13559m | 4.4m/s | -63.3°C | 43.5% | 159.8hPa | 2.7V | 18:12:15 | 00:56:25 | 00:00:00 | |
| DO2JMG | 2026-09-04 07:29:16 | 52.68719 | 8.76414 | 96° | 161km/h | 13555m | 4.3m/s | -63.4°C | 43.9% | 159.9hPa | 2.7V | 18:12:15 | 00:56:24 | 00:00:00 | |
| AA1-15 | 2026-09-04 07:29:14 | 52.68726 | 8.76282 | 94° | 159km/h | 13545m | 4.6m/s | -63.8°C | 45.1% | 160.1hPa | 2.8V | 18:12:15 | 00:56:22 | 00:00:00 | |
| BIOWL1-15 | 2026-09-04 07:29:12 | 52.68733 | 8.76084 | 93° | 157km/h | 13530m | 6.2m/s | -64.1°C | 46.3% | 160.5hPa | 2.7V | 18:12:15 | 00:56:19 | 00:00:00 | |
| HSKMA3-T | 2026-09-04 07:29:12 | 52.68731 | 8.76149 | 93° | 159km/h | 13536m | 4.1m/s | -64.1°C | 46% | 160.4hPa | 2.7V | 18:12:15 | 00:56:20 | 00:00:00 | |
| DO3DL | 2026-09-04 07:29:12 | 52.68731 | 8.76149 | 94° | 159km/h | 13536m | 4.1m/s | -64.1°C | 40.6% | 160.4hPa | 2.8V | 00:00:00 | 00:00:00 | 00:00:00 | |
| DB0DAN | 2026-09-04 07:29:10 | 52.68735 | 8.76020 | 93° | 148km/h | 13525m | 4.5m/s | -64.1°C | 40.9% | 160.65hPa | 2.8V | 00:00:00 | 00:00:00 | 00:00:00 | |
| DL1XH-west | 2026-09-04 07:29:09 | 52.68737 | 8.75955 | 93° | 155km/h | 13520m | 5.8m/s | -64°C | 46.8% | 160.8hPa | 2.8V | 18:12:15 | 00:56:17 | 00:00:00 | |
| DF8AY | 2026-09-04 07:29:06 | 52.68743 | 8.75763 | 93° | 151km/h | 13505m | 4.6m/s | -64°C | 47.5% | 161.2hPa | 2.8V | 18:12:15 | 00:56:14 | 00:00:00 | |
| DO2JMG | 2026-09-04 07:29:05 | 52.68745 | 8.75699 | 93° | 153km/h | 13501m | 4.6m/s | -64°C | 47.8% | 161.3hPa | 2.8V | 18:12:15 | 00:56:13 | 00:00:00 | |
| DD8BA-10 | 2026-09-04 07:29:05 | 52.68745 | 8.75699 | 94° | 151km/h | 13501m | 4.6m/s | -64.0°C | 51.5% | 161.2hPa | 2.8V | 00:00:00 | 00:00:00 | 00:00:00 | |
| DM0DOS-11 | 2026-09-04 07:29:04 | 52.68757 | 8.75384 | 94° | 151km/h | 13476m | 6.1m/s | -63.8°C | 50.4% | 162hPa | 2.8V | 08:30:00 | 00:56:08 | 00:00:00 | |
| AA1-15 | 2026-09-04 07:29:03 | 52.68750 | 8.75573 | 94° | 151km/h | 13491m | 4.8m/s | -63.8°C | 48.3% | 161.6hPa | 2.7V | 18:12:15 | 00:56:11 | 00:00:00 | |
| BIOWL1-15 | 2026-09-04 07:29:02 | 52.68752 | 8.75510 | 93° | 151km/h | 13486m | 4.8m/s | -63.8°C | 48.4% | 161.7hPa | 2.7V | 18:12:15 | 00:56:10 | 00:00:00 | |
| GOEST3-10 | 2026-09-04 07:29:02 | 52.68752 | 8.75510 | 94° | 151km/h | 13486m | 4.7m/s | -63.7°C | 50.6% | 161.7hPa | 2.7V | 00:00:00 | 00:56:10 | 00:00:00 | |
| DL1XH-15 | 2026-09-04 07:29:01 | 52.68769 | 8.75136 | 94° | 150km/h | 13455m | 6.4m/s | -63.6°C | 52.1% | 162.5hPa | 2.7V | 08:30:00 | 00:56:04 | 00:00:00 | |
| HSKMA3-T | 2026-09-04 07:29:01 | 52.68755 | 8.75447 | 94° | 151km/h | 13481m | 4.6m/s | -63.8°C | 48.6% | 161.8hPa | 2.7V | 18:12:15 | 00:56:09 | 00:00:00 | |
| DL1XH-west | 2026-09-04 07:28:59 | 52.68760 | 8.75322 | 94° | 151km/h | 13471m | 4.3m/s | -63.8°C | 49.3% | 162.1hPa | 2.8V | 18:12:15 | 00:56:07 | 00:00:00 | |
| DF8AY | 2026-09-04 07:28:56 | 52.68769 | 8.75136 | 95° | 150km/h | 13455m | 6.4m/s | -63.6°C | 50.4% | 162.5hPa | 2.7V | 18:12:15 | 00:56:04 | 00:00:00 | |
| DL3AQ-11 | 2026-09-04 07:28:56 | 52.68772 | 8.75074 | 94° | 150km/h | 13450m | 4.5m/s | -63.7°C | 43.2% | 162.7hPa | 2.8V | 00:00:00 | 00:00:00 | 00:00:00 | |
| DB0DAN | 2026-09-04 07:28:55 | 52.68772 | 8.75074 | 95° | 142km/h | 13450m | 4.5m/s | -63.7°C | 43.2% | 162.68hPa | 2.8V | 00:00:00 | 00:00:00 | 00:00:00 | |
| DD8BA-10 | 2026-09-04 07:28:55 | 52.68772 | 8.75073 | 95° | 151km/h | 13450m | 4.5m/s | -63.6°C | 53.2% | 162.6hPa | 2.7V | 00:00:00 | 00:00:00 | 08:30:00 | |
| DM0DOS-11 | 2026-09-04 07:28:54 | 52.68787 | 8.74759 | 94° | 153km/h | 13424m | 5.7m/s | -63.8°C | 55.2% | 163.3hPa | 2.8V | 08:30:00 | 00:55:58 | 00:00:00 | |
| DO2JMG | 2026-09-04 07:28:54 | 52.68775 | 8.75011 | 94° | 150km/h | 13445m | 5.9m/s | -63.7°C | 51.3% | 162.8hPa | 2.8V | 18:12:15 | 00:56:02 | 00:00:00 | |
| AA1-15 | 2026-09-04 07:28:53 | 52.68777 | 8.74949 | 94° | 151km/h | 13440m | 4.2m/s | -63.7°C | 51.8% | 162.9hPa | 2.7V | 18:12:15 | 00:56:01 | 00:00:00 | |
| BIOWL1-15 | 2026-09-04 07:28:52 | 52.68780 | 8.74886 | 95° | 153km/h | 13434m | 6m/s | -63.7°C | 52.3% | 163hPa | 2.7V | 18:12:15 | 00:56:00 | 00:00:00 | |
| DF8AY-15 | 2026-09-04 07:28:52 | 52.68780 | 8.74886 | 95° | 151km/h | 13435m | 6.0m/s | -63.6°C | 55.1% | 163.0hPa | 2.7V | 00:00:00 | 00:56:00 | 00:00:00 | |
| DL1XH-15 | 2026-09-04 07:28:51 | 52.68797 | 8.74505 | 93° | 151km/h | 13405m | 4.3m/s | -64°C | 56.5% | 163.9hPa | 2.7V | 08:30:00 | 00:55:54 | 00:00:00 | |
| HSKMA3-T | 2026-09-04 07:28:50 | 52.68786 | 8.74759 | 94° | 153km/h | 13424m | 5.7m/s | -63.8°C | 53.2% | 163.3hPa | 2.8V | 18:12:15 | 00:55:58 | 00:00:00 | |
| DB0UT-7 | 2026-09-04 07:28:50 | 52.68786 | 8.74759 | 95° | 155km/h | 13424m | 5.6m/s | -63.7°C | 55.2% | 163.2hPa | 2.8V | 00:00:00 | 00:55:58 | 00:00:00 | |
| DL1XH1-15 | 2026-09-04 07:28:49 | 52.68802 | 8.74381 | 94° | 146km/h | 13396m | 3.5m/s | -64.1°C | 58% | 164.1hPa | 2.8V | 08:30:00 | 00:55:52 | 00:00:00 | |
| DL1XH-west | 2026-09-04 07:28:48 | 52.68792 | 8.74632 | 94° | 153km/h | 13414m | 5m/s | -63.9°C | 54% | 163.6hPa | 2.7V | 18:12:15 | 00:55:56 | 00:00:00 | |
| DF8AY | 2026-09-04 07:28:46 | 52.68797 | 8.74505 | 94° | 151km/h | 13405m | 4.3m/s | -64°C | 54.8% | 163.9hPa | 2.7V | 18:12:15 | 00:55:54 | 00:00:00 | |
| DD8BA-10 | 2026-09-04 07:28:45 | 52.68799 | 8.74442 | 94° | 151km/h | 13400m | 5.0m/s | -64.0°C | 57.1% | 163.9hPa | 2.8V | 00:00:00 | 00:00:00 | 00:00:00 | |
| Es werden nur die letzten 3500 von 5615 Frames angezeigt. GPX/KML und Diagramme bleiben verfügbar. | |||||||||||||||